<?xml version="1.0" encoding="UTF-8" standalone="no" ?>
<gpx xmlns="http://www.topografix.com/GPX/1/1" xmlns:xsi="http://www.w3.org/2001/XMLSchema-instance" xsi:schemaLocation="http://www.topografix.com/GPX/1/1 http://www.topografix.com/GPX/1/1/gpx.xsd" version="1.1" creator="VisuGPX - https://www.visugpx.com">
  <metadata>
    <name>HRP2023-J10</name>
  </metadata>
  <trk>
    <name><![CDATA[HRP2023-J10]]></name>
    <extensions>
      <line xmlns="http://www.topografix.com/GPX/gpx_style/0/2">
        <color>0000FF</color>
        <width>4</width>
      </line>
    </extensions>
    <trkseg>
      <trkpt lat="42.61974" lon="1.53835">
        <ele>1593.1999511719</ele>
        <time>2023-07-22T04:37:20.000Z</time>
      </trkpt>
      <trkpt lat="42.61979" lon="1.53829">
        <ele>1594.4000244141</ele>
        <time>2023-07-22T04:37:27.000Z</time>
      </trkpt>
      <trkpt lat="42.6198" lon="1.53827">
        <ele>1594.5999755859</ele>
        <time>2023-07-22T04:37:29.000Z</time>
      </trkpt>
      <trkpt lat="42.61985" lon="1.53828">
        <ele>1596.1999511719</ele>
        <time>2023-07-22T04:37:40.000Z</time>
      </trkpt>
      <trkpt lat="42.61986" lon="1.53827">
        <ele>1596.5999755859</ele>
        <time>2023-07-22T04:37:43.000Z</time>
      </trkpt>
      <trkpt lat="42.61987" lon="1.53822">
        <ele>1597.1999511719</ele>
        <time>2023-07-22T04:37:47.000Z</time>
      </trkpt>
      <trkpt lat="42.61978" lon="1.53824">
        <ele>1597.8000488281</ele>
        <time>2023-07-22T04:37:50.000Z</time>
      </trkpt>
      <trkpt lat="42.6198" lon="1.53824">
        <ele>1598</ele>
        <time>2023-07-22T04:37:56.000Z</time>
      </trkpt>
      <trkpt lat="42.61982" lon="1.53825">
        <ele>1597.5999755859</ele>
        <time>2023-07-22T04:38:04.000Z</time>
      </trkpt>
      <trkpt lat="42.61981" lon="1.53824">
        <ele>1597.1999511719</ele>
        <time>2023-07-22T04:38:13.000Z</time>
      </trkpt>
      <trkpt lat="42.61981" lon="1.53823">
        <ele>1596.8000488281</ele>
        <time>2023-07-22T04:38:22.000Z</time>
      </trkpt>
      <trkpt lat="42.61981" lon="1.53824">
        <ele>1596.8000488281</ele>
        <time>2023-07-22T04:38:26.000Z</time>
      </trkpt>
      <trkpt lat="42.61981" lon="1.53824">
        <ele>1596.5999755859</ele>
        <time>2023-07-22T04:38:28.000Z</time>
      </trkpt>
      <trkpt lat="42.61983" lon="1.53823">
        <ele>1596.4000244141</ele>
        <time>2023-07-22T04:38:36.000Z</time>
      </trkpt>
      <trkpt lat="42.6198" lon="1.53822">
        <ele>1596.1999511719</ele>
        <time>2023-07-22T04:38:41.000Z</time>
      </trkpt>
      <trkpt lat="42.61986" lon="1.53822">
        <ele>1596.4000244141</ele>
        <time>2023-07-22T04:38:46.000Z</time>
      </trkpt>
      <trkpt lat="42.61989" lon="1.53823">
        <ele>1597.1999511719</ele>
        <time>2023-07-22T04:38:52.000Z</time>
      </trkpt>
      <trkpt lat="42.61988" lon="1.53825">
        <ele>1597</ele>
        <time>2023-07-22T04:39:01.000Z</time>
      </trkpt>
      <trkpt lat="42.61989" lon="1.53823">
        <ele>1596.8000488281</ele>
        <time>2023-07-22T04:39:06.000Z</time>
      </trkpt>
      <trkpt lat="42.61993" lon="1.5382">
        <ele>1597.5999755859</ele>
        <time>2023-07-22T04:39:14.000Z</time>
      </trkpt>
      <trkpt lat="42.61993" lon="1.53821">
        <ele>1597.8000488281</ele>
        <time>2023-07-22T04:39:15.000Z</time>
      </trkpt>
      <trkpt lat="42.61996" lon="1.53816">
        <ele>1598.8000488281</ele>
        <time>2023-07-22T04:39:21.000Z</time>
      </trkpt>
      <trkpt lat="42.61997" lon="1.53815">
        <ele>1599</ele>
        <time>2023-07-22T04:39:22.000Z</time>
      </trkpt>
      <trkpt lat="42.61999" lon="1.5381">
        <ele>1599.8000488281</ele>
        <time>2023-07-22T04:39:26.000Z</time>
      </trkpt>
      <trkpt lat="42.62002" lon="1.53806">
        <ele>1600.4000244141</ele>
        <time>2023-07-22T04:39:29.000Z</time>
      </trkpt>
      <trkpt lat="42.62004" lon="1.53803">
        <ele>1600.8000488281</ele>
        <time>2023-07-22T04:39:31.000Z</time>
      </trkpt>
      <trkpt lat="42.62008" lon="1.53796">
        <ele>1602</ele>
        <time>2023-07-22T04:39:38.000Z</time>
      </trkpt>
      <trkpt lat="42.62011" lon="1.53789">
        <ele>1603.1999511719</ele>
        <time>2023-07-22T04:39:44.000Z</time>
      </trkpt>
      <trkpt lat="42.62011" lon="1.53788">
        <ele>1603.4000244141</ele>
        <time>2023-07-22T04:39:45.000Z</time>
      </trkpt>
      <trkpt lat="42.62014" lon="1.53783">
        <ele>1604.1999511719</ele>
        <time>2023-07-22T04:39:50.000Z</time>
      </trkpt>
      <trkpt lat="42.62015" lon="1.5378">
        <ele>1604.5999755859</ele>
        <time>2023-07-22T04:39:53.000Z</time>
      </trkpt>
      <trkpt lat="42.62017" lon="1.53775">
        <ele>1605.1999511719</ele>
        <time>2023-07-22T04:39:57.000Z</time>
      </trkpt>
      <trkpt lat="42.62021" lon="1.53768">
        <ele>1606.4000244141</ele>
        <time>2023-07-22T04:40:03.000Z</time>
      </trkpt>
      <trkpt lat="42.62024" lon="1.53764">
        <ele>1607.4000244141</ele>
        <time>2023-07-22T04:40:09.000Z</time>
      </trkpt>
      <trkpt lat="42.62026" lon="1.53762">
        <ele>1607.8000488281</ele>
        <time>2023-07-22T04:40:11.000Z</time>
      </trkpt>
      <trkpt lat="42.62029" lon="1.53758">
        <ele>1608.4000244141</ele>
        <time>2023-07-22T04:40:16.000Z</time>
      </trkpt>
      <trkpt lat="42.62031" lon="1.53756">
        <ele>1609.1999511719</ele>
        <time>2023-07-22T04:40:20.000Z</time>
      </trkpt>
      <trkpt lat="42.62032" lon="1.53754">
        <ele>1609.5999755859</ele>
        <time>2023-07-22T04:40:22.000Z</time>
      </trkpt>
      <trkpt lat="42.62037" lon="1.53745">
        <ele>1610.8000488281</ele>
        <time>2023-07-22T04:40:29.000Z</time>
      </trkpt>
      <trkpt lat="42.62038" lon="1.53744">
        <ele>1611</ele>
        <time>2023-07-22T04:40:30.000Z</time>
      </trkpt>
      <trkpt lat="42.62041" lon="1.53741">
        <ele>1611.8000488281</ele>
        <time>2023-07-22T04:40:36.000Z</time>
      </trkpt>
      <trkpt lat="42.62042" lon="1.53739">
        <ele>1612.1999511719</ele>
        <time>2023-07-22T04:40:38.000Z</time>
      </trkpt>
      <trkpt lat="42.62044" lon="1.53736">
        <ele>1613</ele>
        <time>2023-07-22T04:40:43.000Z</time>
      </trkpt>
      <trkpt lat="42.62048" lon="1.53732">
        <ele>1614</ele>
        <time>2023-07-22T04:40:49.000Z</time>
      </trkpt>
      <trkpt lat="42.6205" lon="1.53729">
        <ele>1615</ele>
        <time>2023-07-22T04:40:55.000Z</time>
      </trkpt>
      <trkpt lat="42.62053" lon="1.53726">
        <ele>1615.5999755859</ele>
        <time>2023-07-22T04:40:59.000Z</time>
      </trkpt>
      <trkpt lat="42.62055" lon="1.53723">
        <ele>1616</ele>
        <time>2023-07-22T04:41:02.000Z</time>
      </trkpt>
      <trkpt lat="42.6206" lon="1.53716">
        <ele>1617.1999511719</ele>
        <time>2023-07-22T04:41:09.000Z</time>
      </trkpt>
      <trkpt lat="42.62061" lon="1.53715">
        <ele>1617.4000244141</ele>
        <time>2023-07-22T04:41:10.000Z</time>
      </trkpt>
      <trkpt lat="42.62066" lon="1.53707">
        <ele>1618.4000244141</ele>
        <time>2023-07-22T04:41:17.000Z</time>
      </trkpt>
      <trkpt lat="42.62067" lon="1.53704">
        <ele>1618.5999755859</ele>
        <time>2023-07-22T04:41:19.000Z</time>
      </trkpt>
      <trkpt lat="42.6207" lon="1.53695">
        <ele>1619.4000244141</ele>
        <time>2023-07-22T04:41:27.000Z</time>
      </trkpt>
      <trkpt lat="42.62075" lon="1.53687">
        <ele>1620.5999755859</ele>
        <time>2023-07-22T04:41:36.000Z</time>
      </trkpt>
      <trkpt lat="42.62082" lon="1.53678">
        <ele>1621.5999755859</ele>
        <time>2023-07-22T04:41:45.000Z</time>
      </trkpt>
      <trkpt lat="42.62086" lon="1.5367">
        <ele>1622.1999511719</ele>
        <time>2023-07-22T04:41:52.000Z</time>
      </trkpt>
      <trkpt lat="42.62088" lon="1.53662">
        <ele>1622.5999755859</ele>
        <time>2023-07-22T04:41:58.000Z</time>
      </trkpt>
      <trkpt lat="42.62089" lon="1.53659">
        <ele>1622.8000488281</ele>
        <time>2023-07-22T04:42:01.000Z</time>
      </trkpt>
      <trkpt lat="42.62096" lon="1.53651">
        <ele>1623.5999755859</ele>
        <time>2023-07-22T04:42:08.000Z</time>
      </trkpt>
      <trkpt lat="42.62097" lon="1.5365">
        <ele>1623.8000488281</ele>
        <time>2023-07-22T04:42:09.000Z</time>
      </trkpt>
      <trkpt lat="42.62105" lon="1.53643">
        <ele>1624.5999755859</ele>
        <time>2023-07-22T04:42:18.000Z</time>
      </trkpt>
      <trkpt lat="42.62106" lon="1.53642">
        <ele>1624.5999755859</ele>
        <time>2023-07-22T04:42:19.000Z</time>
      </trkpt>
      <trkpt lat="42.62112" lon="1.53632">
        <ele>1625.4000244141</ele>
        <time>2023-07-22T04:42:26.000Z</time>
      </trkpt>
      <trkpt lat="42.62113" lon="1.5363">
        <ele>1625.5999755859</ele>
        <time>2023-07-22T04:42:28.000Z</time>
      </trkpt>
      <trkpt lat="42.62117" lon="1.53623">
        <ele>1626.1999511719</ele>
        <time>2023-07-22T04:42:33.000Z</time>
      </trkpt>
      <trkpt lat="42.6212" lon="1.53618">
        <ele>1626.8000488281</ele>
        <time>2023-07-22T04:42:38.000Z</time>
      </trkpt>
      <trkpt lat="42.62122" lon="1.53616">
        <ele>1626.8000488281</ele>
        <time>2023-07-22T04:42:40.000Z</time>
      </trkpt>
      <trkpt lat="42.62128" lon="1.53608">
        <ele>1627.5999755859</ele>
        <time>2023-07-22T04:42:48.000Z</time>
      </trkpt>
      <trkpt lat="42.62129" lon="1.53606">
        <ele>1627.8000488281</ele>
        <time>2023-07-22T04:42:50.000Z</time>
      </trkpt>
      <trkpt lat="42.62136" lon="1.53595">
        <ele>1628.8000488281</ele>
        <time>2023-07-22T04:42:59.000Z</time>
      </trkpt>
      <trkpt lat="42.62136" lon="1.53594">
        <ele>1629</ele>
        <time>2023-07-22T04:43:00.000Z</time>
      </trkpt>
      <trkpt lat="42.62139" lon="1.53586">
        <ele>1629.8000488281</ele>
        <time>2023-07-22T04:43:07.000Z</time>
      </trkpt>
      <trkpt lat="42.62141" lon="1.53583">
        <ele>1630</ele>
        <time>2023-07-22T04:43:09.000Z</time>
      </trkpt>
      <trkpt lat="42.62143" lon="1.5358">
        <ele>1631.1999511719</ele>
        <time>2023-07-22T04:43:15.000Z</time>
      </trkpt>
      <trkpt lat="42.62146" lon="1.53577">
        <ele>1631.5999755859</ele>
        <time>2023-07-22T04:43:21.000Z</time>
      </trkpt>
      <trkpt lat="42.6215" lon="1.53572">
        <ele>1632.1999511719</ele>
        <time>2023-07-22T04:43:26.000Z</time>
      </trkpt>
      <trkpt lat="42.62153" lon="1.53566">
        <ele>1633.1999511719</ele>
        <time>2023-07-22T04:43:32.000Z</time>
      </trkpt>
      <trkpt lat="42.62154" lon="1.53565">
        <ele>1633.1999511719</ele>
        <time>2023-07-22T04:43:33.000Z</time>
      </trkpt>
      <trkpt lat="42.62158" lon="1.53556">
        <ele>1633.8000488281</ele>
        <time>2023-07-22T04:43:40.000Z</time>
      </trkpt>
      <trkpt lat="42.62165" lon="1.53544">
        <ele>1634.1999511719</ele>
        <time>2023-07-22T04:43:50.000Z</time>
      </trkpt>
      <trkpt lat="42.62165" lon="1.53542">
        <ele>1634.4000244141</ele>
        <time>2023-07-22T04:43:51.000Z</time>
      </trkpt>
      <trkpt lat="42.62169" lon="1.53532">
        <ele>1634.8000488281</ele>
        <time>2023-07-22T04:43:57.000Z</time>
      </trkpt>
      <trkpt lat="42.62173" lon="1.53522">
        <ele>1635.4000244141</ele>
        <time>2023-07-22T04:44:05.000Z</time>
      </trkpt>
      <trkpt lat="42.62173" lon="1.53521">
        <ele>1635.4000244141</ele>
        <time>2023-07-22T04:44:06.000Z</time>
      </trkpt>
      <trkpt lat="42.62176" lon="1.53514">
        <ele>1635.5999755859</ele>
        <time>2023-07-22T04:44:12.000Z</time>
      </trkpt>
      <trkpt lat="42.6218" lon="1.53499">
        <ele>1636</ele>
        <time>2023-07-22T04:44:23.000Z</time>
      </trkpt>
      <trkpt lat="42.62184" lon="1.53486">
        <ele>1636.4000244141</ele>
        <time>2023-07-22T04:44:30.000Z</time>
      </trkpt>
      <trkpt lat="42.62184" lon="1.53485">
        <ele>1636.4000244141</ele>
        <time>2023-07-22T04:44:31.000Z</time>
      </trkpt>
      <trkpt lat="42.6219" lon="1.53472">
        <ele>1636.8000488281</ele>
        <time>2023-07-22T04:44:38.000Z</time>
      </trkpt>
      <trkpt lat="42.62194" lon="1.53466">
        <ele>1637.1999511719</ele>
        <time>2023-07-22T04:44:44.000Z</time>
      </trkpt>
      <trkpt lat="42.62198" lon="1.53458">
        <ele>1637.4000244141</ele>
        <time>2023-07-22T04:44:50.000Z</time>
      </trkpt>
      <trkpt lat="42.62199" lon="1.53456">
        <ele>1637.5999755859</ele>
        <time>2023-07-22T04:44:52.000Z</time>
      </trkpt>
      <trkpt lat="42.62204" lon="1.5344">
        <ele>1638.5999755859</ele>
        <time>2023-07-22T04:45:03.000Z</time>
      </trkpt>
      <trkpt lat="42.62208" lon="1.53432">
        <ele>1639.1999511719</ele>
        <time>2023-07-22T04:45:10.000Z</time>
      </trkpt>
      <trkpt lat="42.62212" lon="1.53427">
        <ele>1639.5999755859</ele>
        <time>2023-07-22T04:45:14.000Z</time>
      </trkpt>
      <trkpt lat="42.62214" lon="1.53424">
        <ele>1640</ele>
        <time>2023-07-22T04:45:17.000Z</time>
      </trkpt>
      <trkpt lat="42.62222" lon="1.53418">
        <ele>1640.5999755859</ele>
        <time>2023-07-22T04:45:25.000Z</time>
      </trkpt>
      <trkpt lat="42.62225" lon="1.53415">
        <ele>1640.8000488281</ele>
        <time>2023-07-22T04:45:28.000Z</time>
      </trkpt>
      <trkpt lat="42.6223" lon="1.53406">
        <ele>1641.8000488281</ele>
        <time>2023-07-22T04:45:35.000Z</time>
      </trkpt>
      <trkpt lat="42.62233" lon="1.53403">
        <ele>1642.1999511719</ele>
        <time>2023-07-22T04:45:38.000Z</time>
      </trkpt>
      <trkpt lat="42.62237" lon="1.53397">
        <ele>1642.8000488281</ele>
        <time>2023-07-22T04:45:43.000Z</time>
      </trkpt>
      <trkpt lat="42.62239" lon="1.53393">
        <ele>1643.5999755859</ele>
        <time>2023-07-22T04:45:49.000Z</time>
      </trkpt>
      <trkpt lat="42.6224" lon="1.53392">
        <ele>1643.8000488281</ele>
        <time>2023-07-22T04:45:51.000Z</time>
      </trkpt>
      <trkpt lat="42.62244" lon="1.53386">
        <ele>1645</ele>
        <time>2023-07-22T04:45:58.000Z</time>
      </trkpt>
      <trkpt lat="42.62247" lon="1.53379">
        <ele>1646</ele>
        <time>2023-07-22T04:46:05.000Z</time>
      </trkpt>
      <trkpt lat="42.62247" lon="1.53378">
        <ele>1646.1999511719</ele>
        <time>2023-07-22T04:46:06.000Z</time>
      </trkpt>
      <trkpt lat="42.62251" lon="1.53371">
        <ele>1647.1999511719</ele>
        <time>2023-07-22T04:46:12.000Z</time>
      </trkpt>
      <trkpt lat="42.62251" lon="1.53371">
        <ele>1647.4000244141</ele>
        <time>2023-07-22T04:46:13.000Z</time>
      </trkpt>
      <trkpt lat="42.62254" lon="1.53367">
        <ele>1648.4000244141</ele>
        <time>2023-07-22T04:46:19.000Z</time>
      </trkpt>
      <trkpt lat="42.62256" lon="1.53366">
        <ele>1648.5999755859</ele>
        <time>2023-07-22T04:46:21.000Z</time>
      </trkpt>
      <trkpt lat="42.62261" lon="1.5336">
        <ele>1649.4000244141</ele>
        <time>2023-07-22T04:46:27.000Z</time>
      </trkpt>
      <trkpt lat="42.62263" lon="1.53356">
        <ele>1649.8000488281</ele>
        <time>2023-07-22T04:46:30.000Z</time>
      </trkpt>
      <trkpt lat="42.62267" lon="1.53351">
        <ele>1650.4000244141</ele>
        <time>2023-07-22T04:46:35.000Z</time>
      </trkpt>
      <trkpt lat="42.6227" lon="1.53347">
        <ele>1650.8000488281</ele>
        <time>2023-07-22T04:46:39.000Z</time>
      </trkpt>
      <trkpt lat="42.62273" lon="1.53339">
        <ele>1651.5999755859</ele>
        <time>2023-07-22T04:46:46.000Z</time>
      </trkpt>
      <trkpt lat="42.62273" lon="1.53336">
        <ele>1652</ele>
        <time>2023-07-22T04:46:49.000Z</time>
      </trkpt>
      <trkpt lat="42.62275" lon="1.53333">
        <ele>1652.8000488281</ele>
        <time>2023-07-22T04:46:53.000Z</time>
      </trkpt>
      <trkpt lat="42.62277" lon="1.53328">
        <ele>1653.5999755859</ele>
        <time>2023-07-22T04:46:59.000Z</time>
      </trkpt>
      <trkpt lat="42.62277" lon="1.53328">
        <ele>1653.8000488281</ele>
        <time>2023-07-22T04:47:00.000Z</time>
      </trkpt>
      <trkpt lat="42.62279" lon="1.53322">
        <ele>1654.8000488281</ele>
        <time>2023-07-22T04:47:06.000Z</time>
      </trkpt>
      <trkpt lat="42.62281" lon="1.5332">
        <ele>1655.1999511719</ele>
        <time>2023-07-22T04:47:08.000Z</time>
      </trkpt>
      <trkpt lat="42.62285" lon="1.53317">
        <ele>1656</ele>
        <time>2023-07-22T04:47:12.000Z</time>
      </trkpt>
      <trkpt lat="42.62287" lon="1.53316">
        <ele>1656.8000488281</ele>
        <time>2023-07-22T04:47:18.000Z</time>
      </trkpt>
      <trkpt lat="42.62288" lon="1.53316">
        <ele>1657</ele>
        <time>2023-07-22T04:47:19.000Z</time>
      </trkpt>
      <trkpt lat="42.62291" lon="1.53311">
        <ele>1658</ele>
        <time>2023-07-22T04:47:26.000Z</time>
      </trkpt>
      <trkpt lat="42.62292" lon="1.53309">
        <ele>1658.4000244141</ele>
        <time>2023-07-22T04:47:28.000Z</time>
      </trkpt>
      <trkpt lat="42.62294" lon="1.53305">
        <ele>1659</ele>
        <time>2023-07-22T04:47:32.000Z</time>
      </trkpt>
      <trkpt lat="42.62296" lon="1.53302">
        <ele>1659.5999755859</ele>
        <time>2023-07-22T04:47:35.000Z</time>
      </trkpt>
      <trkpt lat="42.62297" lon="1.53299">
        <ele>1660.1999511719</ele>
        <time>2023-07-22T04:47:39.000Z</time>
      </trkpt>
      <trkpt lat="42.62302" lon="1.53294">
        <ele>1661.4000244141</ele>
        <time>2023-07-22T04:47:46.000Z</time>
      </trkpt>
      <trkpt lat="42.62309" lon="1.53291">
        <ele>1662.5999755859</ele>
        <time>2023-07-22T04:47:54.000Z</time>
      </trkpt>
      <trkpt lat="42.6231" lon="1.5329">
        <ele>1662.5999755859</ele>
        <time>2023-07-22T04:47:55.000Z</time>
      </trkpt>
      <trkpt lat="42.62314" lon="1.53287">
        <ele>1663.8000488281</ele>
        <time>2023-07-22T04:48:02.000Z</time>
      </trkpt>
      <trkpt lat="42.62318" lon="1.53278">
        <ele>1664.8000488281</ele>
        <time>2023-07-22T04:48:09.000Z</time>
      </trkpt>
      <trkpt lat="42.62318" lon="1.53275">
        <ele>1665</ele>
        <time>2023-07-22T04:48:11.000Z</time>
      </trkpt>
      <trkpt lat="42.6232" lon="1.53268">
        <ele>1666</ele>
        <time>2023-07-22T04:48:17.000Z</time>
      </trkpt>
      <trkpt lat="42.62321" lon="1.53268">
        <ele>1666.4000244141</ele>
        <time>2023-07-22T04:48:19.000Z</time>
      </trkpt>
      <trkpt lat="42.62323" lon="1.53265">
        <ele>1667.1999511719</ele>
        <time>2023-07-22T04:48:24.000Z</time>
      </trkpt>
      <trkpt lat="42.62324" lon="1.53264">
        <ele>1667.4000244141</ele>
        <time>2023-07-22T04:48:26.000Z</time>
      </trkpt>
      <trkpt lat="42.62328" lon="1.53259">
        <ele>1668.1999511719</ele>
        <time>2023-07-22T04:48:31.000Z</time>
      </trkpt>
      <trkpt lat="42.6233" lon="1.53256">
        <ele>1668.5999755859</ele>
        <time>2023-07-22T04:48:34.000Z</time>
      </trkpt>
      <trkpt lat="42.62331" lon="1.53251">
        <ele>1669.4000244141</ele>
        <time>2023-07-22T04:48:39.000Z</time>
      </trkpt>
      <trkpt lat="42.62333" lon="1.53247">
        <ele>1670.1999511719</ele>
        <time>2023-07-22T04:48:44.000Z</time>
      </trkpt>
      <trkpt lat="42.62333" lon="1.53246">
        <ele>1670.4000244141</ele>
        <time>2023-07-22T04:48:45.000Z</time>
      </trkpt>
      <trkpt lat="42.62339" lon="1.53239">
        <ele>1671.4000244141</ele>
        <time>2023-07-22T04:48:53.000Z</time>
      </trkpt>
      <trkpt lat="42.62339" lon="1.53237">
        <ele>1671.5999755859</ele>
        <time>2023-07-22T04:48:54.000Z</time>
      </trkpt>
      <trkpt lat="42.62343" lon="1.53228">
        <ele>1672.4000244141</ele>
        <time>2023-07-22T04:49:02.000Z</time>
      </trkpt>
      <trkpt lat="42.62343" lon="1.53226">
        <ele>1672.5999755859</ele>
        <time>2023-07-22T04:49:03.000Z</time>
      </trkpt>
      <trkpt lat="42.62347" lon="1.53219">
        <ele>1673.8000488281</ele>
        <time>2023-07-22T04:49:10.000Z</time>
      </trkpt>
      <trkpt lat="42.6235" lon="1.5321">
        <ele>1674.8000488281</ele>
        <time>2023-07-22T04:49:17.000Z</time>
      </trkpt>
      <trkpt lat="42.62354" lon="1.53204">
        <ele>1676</ele>
        <time>2023-07-22T04:49:24.000Z</time>
      </trkpt>
      <trkpt lat="42.62354" lon="1.53204">
        <ele>1676.1999511719</ele>
        <time>2023-07-22T04:49:26.000Z</time>
      </trkpt>
      <trkpt lat="42.62357" lon="1.53199">
        <ele>1677.1999511719</ele>
        <time>2023-07-22T04:49:32.000Z</time>
      </trkpt>
      <trkpt lat="42.62358" lon="1.53196">
        <ele>1677.8000488281</ele>
        <time>2023-07-22T04:49:36.000Z</time>
      </trkpt>
      <trkpt lat="42.62357" lon="1.53195">
        <ele>1678.1999511719</ele>
        <time>2023-07-22T04:49:38.000Z</time>
      </trkpt>
      <trkpt lat="42.62358" lon="1.53192">
        <ele>1678.8000488281</ele>
        <time>2023-07-22T04:49:42.000Z</time>
      </trkpt>
      <trkpt lat="42.6236" lon="1.5319">
        <ele>1679.4000244141</ele>
        <time>2023-07-22T04:49:46.000Z</time>
      </trkpt>
      <trkpt lat="42.62364" lon="1.53183">
        <ele>1680.1999511719</ele>
        <time>2023-07-22T04:49:53.000Z</time>
      </trkpt>
      <trkpt lat="42.62364" lon="1.53182">
        <ele>1680.5999755859</ele>
        <time>2023-07-22T04:49:54.000Z</time>
      </trkpt>
      <trkpt lat="42.62366" lon="1.53178">
        <ele>1681.4000244141</ele>
        <time>2023-07-22T04:50:00.000Z</time>
      </trkpt>
      <trkpt lat="42.62366" lon="1.53176">
        <ele>1681.5999755859</ele>
        <time>2023-07-22T04:50:01.000Z</time>
      </trkpt>
      <trkpt lat="42.62368" lon="1.53171">
        <ele>1682.4000244141</ele>
        <time>2023-07-22T04:50:06.000Z</time>
      </trkpt>
      <trkpt lat="42.62368" lon="1.53169">
        <ele>1682.8000488281</ele>
        <time>2023-07-22T04:50:08.000Z</time>
      </trkpt>
      <trkpt lat="42.6237" lon="1.53164">
        <ele>1683.5999755859</ele>
        <time>2023-07-22T04:50:13.000Z</time>
      </trkpt>
      <trkpt lat="42.6237" lon="1.53163">
        <ele>1683.8000488281</ele>
        <time>2023-07-22T04:50:15.000Z</time>
      </trkpt>
      <trkpt lat="42.62373" lon="1.53159">
        <ele>1684.8000488281</ele>
        <time>2023-07-22T04:50:21.000Z</time>
      </trkpt>
      <trkpt lat="42.62373" lon="1.53158">
        <ele>1685</ele>
        <time>2023-07-22T04:50:22.000Z</time>
      </trkpt>
      <trkpt lat="42.62377" lon="1.53154">
        <ele>1686</ele>
        <time>2023-07-22T04:50:29.000Z</time>
      </trkpt>
      <trkpt lat="42.62377" lon="1.53153">
        <ele>1686.1999511719</ele>
        <time>2023-07-22T04:50:30.000Z</time>
      </trkpt>
      <trkpt lat="42.62382" lon="1.53147">
        <ele>1687.1999511719</ele>
        <time>2023-07-22T04:50:36.000Z</time>
      </trkpt>
      <trkpt lat="42.62384" lon="1.53144">
        <ele>1687.5999755859</ele>
        <time>2023-07-22T04:50:39.000Z</time>
      </trkpt>
      <trkpt lat="42.62385" lon="1.5314">
        <ele>1688.1999511719</ele>
        <time>2023-07-22T04:50:43.000Z</time>
      </trkpt>
      <trkpt lat="42.62386" lon="1.53136">
        <ele>1689</ele>
        <time>2023-07-22T04:50:48.000Z</time>
      </trkpt>
      <trkpt lat="42.62388" lon="1.53134">
        <ele>1689.4000244141</ele>
        <time>2023-07-22T04:50:50.000Z</time>
      </trkpt>
      <trkpt lat="42.62392" lon="1.53131">
        <ele>1690.4000244141</ele>
        <time>2023-07-22T04:50:57.000Z</time>
      </trkpt>
      <trkpt lat="42.62393" lon="1.53131">
        <ele>1690.5999755859</ele>
        <time>2023-07-22T04:50:58.000Z</time>
      </trkpt>
      <trkpt lat="42.62396" lon="1.53131">
        <ele>1691.5999755859</ele>
        <time>2023-07-22T04:51:04.000Z</time>
      </trkpt>
      <trkpt lat="42.62398" lon="1.5313">
        <ele>1691.8000488281</ele>
        <time>2023-07-22T04:51:06.000Z</time>
      </trkpt>
      <trkpt lat="42.624" lon="1.53127">
        <ele>1692.5999755859</ele>
        <time>2023-07-22T04:51:11.000Z</time>
      </trkpt>
      <trkpt lat="42.624" lon="1.53125">
        <ele>1693.1999511719</ele>
        <time>2023-07-22T04:51:14.000Z</time>
      </trkpt>
      <trkpt lat="42.62401" lon="1.53123">
        <ele>1693.8000488281</ele>
        <time>2023-07-22T04:51:17.000Z</time>
      </trkpt>
      <trkpt lat="42.62404" lon="1.5312">
        <ele>1694.5999755859</ele>
        <time>2023-07-22T04:51:22.000Z</time>
      </trkpt>
      <trkpt lat="42.62405" lon="1.53119">
        <ele>1694.8000488281</ele>
        <time>2023-07-22T04:51:23.000Z</time>
      </trkpt>
      <trkpt lat="42.62407" lon="1.53115">
        <ele>1695.8000488281</ele>
        <time>2023-07-22T04:51:28.000Z</time>
      </trkpt>
      <trkpt lat="42.62408" lon="1.53114">
        <ele>1696.1999511719</ele>
        <time>2023-07-22T04:51:30.000Z</time>
      </trkpt>
      <trkpt lat="42.62411" lon="1.53107">
        <ele>1697</ele>
        <time>2023-07-22T04:51:35.000Z</time>
      </trkpt>
      <trkpt lat="42.62413" lon="1.53104">
        <ele>1697.5999755859</ele>
        <time>2023-07-22T04:51:39.000Z</time>
      </trkpt>
      <trkpt lat="42.62414" lon="1.53101">
        <ele>1698</ele>
        <time>2023-07-22T04:51:42.000Z</time>
      </trkpt>
      <trkpt lat="42.62417" lon="1.53097">
        <ele>1698.8000488281</ele>
        <time>2023-07-22T04:51:47.000Z</time>
      </trkpt>
      <trkpt lat="42.62418" lon="1.53094">
        <ele>1699.1999511719</ele>
        <time>2023-07-22T04:51:50.000Z</time>
      </trkpt>
      <trkpt lat="42.62421" lon="1.53088">
        <ele>1700</ele>
        <time>2023-07-22T04:51:55.000Z</time>
      </trkpt>
      <trkpt lat="42.62422" lon="1.53086">
        <ele>1700.1999511719</ele>
        <time>2023-07-22T04:51:57.000Z</time>
      </trkpt>
      <trkpt lat="42.62425" lon="1.5308">
        <ele>1701.4000244141</ele>
        <time>2023-07-22T04:52:05.000Z</time>
      </trkpt>
      <trkpt lat="42.62428" lon="1.53075">
        <ele>1702.4000244141</ele>
        <time>2023-07-22T04:52:11.000Z</time>
      </trkpt>
      <trkpt lat="42.6243" lon="1.5307">
        <ele>1702.8000488281</ele>
        <time>2023-07-22T04:52:15.000Z</time>
      </trkpt>
      <trkpt lat="42.62432" lon="1.53067">
        <ele>1703.4000244141</ele>
        <time>2023-07-22T04:52:19.000Z</time>
      </trkpt>
      <trkpt lat="42.62433" lon="1.53063">
        <ele>1704.1999511719</ele>
        <time>2023-07-22T04:52:24.000Z</time>
      </trkpt>
      <trkpt lat="42.62433" lon="1.5306">
        <ele>1704.5999755859</ele>
        <time>2023-07-22T04:52:26.000Z</time>
      </trkpt>
      <trkpt lat="42.62434" lon="1.53053">
        <ele>1705.5999755859</ele>
        <time>2023-07-22T04:52:33.000Z</time>
      </trkpt>
      <trkpt lat="42.62439" lon="1.53048">
        <ele>1706.8000488281</ele>
        <time>2023-07-22T04:52:40.000Z</time>
      </trkpt>
      <trkpt lat="42.6244" lon="1.53047">
        <ele>1707</ele>
        <time>2023-07-22T04:52:41.000Z</time>
      </trkpt>
      <trkpt lat="42.62443" lon="1.53045">
        <ele>1707.8000488281</ele>
        <time>2023-07-22T04:52:47.000Z</time>
      </trkpt>
      <trkpt lat="42.62444" lon="1.53036">
        <ele>1708.8000488281</ele>
        <time>2023-07-22T04:52:54.000Z</time>
      </trkpt>
      <trkpt lat="42.62444" lon="1.53035">
        <ele>1709</ele>
        <time>2023-07-22T04:52:55.000Z</time>
      </trkpt>
      <trkpt lat="42.62446" lon="1.53027">
        <ele>1710</ele>
        <time>2023-07-22T04:53:01.000Z</time>
      </trkpt>
      <trkpt lat="42.62446" lon="1.53027">
        <ele>1710</ele>
        <time>2023-07-22T04:53:02.000Z</time>
      </trkpt>
      <trkpt lat="42.62451" lon="1.53021">
        <ele>1711</ele>
        <time>2023-07-22T04:53:10.000Z</time>
      </trkpt>
      <trkpt lat="42.62452" lon="1.5302">
        <ele>1711</ele>
        <time>2023-07-22T04:53:11.000Z</time>
      </trkpt>
      <trkpt lat="42.62454" lon="1.53014">
        <ele>1712</ele>
        <time>2023-07-22T04:53:18.000Z</time>
      </trkpt>
      <trkpt lat="42.62458" lon="1.5301">
        <ele>1713.1999511719</ele>
        <time>2023-07-22T04:53:24.000Z</time>
      </trkpt>
      <trkpt lat="42.62458" lon="1.5301">
        <ele>1713.4000244141</ele>
        <time>2023-07-22T04:53:26.000Z</time>
      </trkpt>
      <trkpt lat="42.62457" lon="1.53012">
        <ele>1713.4000244141</ele>
        <time>2023-07-22T04:53:35.000Z</time>
      </trkpt>
      <trkpt lat="42.62461" lon="1.53005">
        <ele>1713.4000244141</ele>
        <time>2023-07-22T04:53:45.000Z</time>
      </trkpt>
      <trkpt lat="42.62459" lon="1.52995">
        <ele>1714.1999511719</ele>
        <time>2023-07-22T04:53:52.000Z</time>
      </trkpt>
      <trkpt lat="42.62459" lon="1.52994">
        <ele>1714.1999511719</ele>
        <time>2023-07-22T04:53:53.000Z</time>
      </trkpt>
      <trkpt lat="42.62458" lon="1.52984">
        <ele>1714.8000488281</ele>
        <time>2023-07-22T04:53:58.000Z</time>
      </trkpt>
      <trkpt lat="42.62458" lon="1.52975">
        <ele>1715.1999511719</ele>
        <time>2023-07-22T04:54:03.000Z</time>
      </trkpt>
      <trkpt lat="42.62457" lon="1.52972">
        <ele>1715.4000244141</ele>
        <time>2023-07-22T04:54:05.000Z</time>
      </trkpt>
      <trkpt lat="42.62457" lon="1.52967">
        <ele>1715.8000488281</ele>
        <time>2023-07-22T04:54:09.000Z</time>
      </trkpt>
      <trkpt lat="42.62457" lon="1.52959">
        <ele>1716.1999511719</ele>
        <time>2023-07-22T04:54:15.000Z</time>
      </trkpt>
      <trkpt lat="42.62457" lon="1.52956">
        <ele>1716.4000244141</ele>
        <time>2023-07-22T04:54:18.000Z</time>
      </trkpt>
      <trkpt lat="42.62456" lon="1.52947">
        <ele>1716.8000488281</ele>
        <time>2023-07-22T04:54:23.000Z</time>
      </trkpt>
      <trkpt lat="42.62455" lon="1.52939">
        <ele>1717.4000244141</ele>
        <time>2023-07-22T04:54:29.000Z</time>
      </trkpt>
      <trkpt lat="42.62455" lon="1.52929">
        <ele>1718.1999511719</ele>
        <time>2023-07-22T04:54:36.000Z</time>
      </trkpt>
      <trkpt lat="42.62456" lon="1.52925">
        <ele>1718.4000244141</ele>
        <time>2023-07-22T04:54:39.000Z</time>
      </trkpt>
      <trkpt lat="42.62456" lon="1.52922">
        <ele>1718.5999755859</ele>
        <time>2023-07-22T04:54:42.000Z</time>
      </trkpt>
      <trkpt lat="42.62456" lon="1.52918">
        <ele>1718.8000488281</ele>
        <time>2023-07-22T04:54:49.000Z</time>
      </trkpt>
      <trkpt lat="42.62455" lon="1.52909">
        <ele>1718.5999755859</ele>
        <time>2023-07-22T04:54:56.000Z</time>
      </trkpt>
      <trkpt lat="42.62457" lon="1.52902">
        <ele>1719.4000244141</ele>
        <time>2023-07-22T04:55:02.000Z</time>
      </trkpt>
      <trkpt lat="42.62458" lon="1.529">
        <ele>1719.5999755859</ele>
        <time>2023-07-22T04:55:04.000Z</time>
      </trkpt>
      <trkpt lat="42.62461" lon="1.52892">
        <ele>1720</ele>
        <time>2023-07-22T04:55:10.000Z</time>
      </trkpt>
      <trkpt lat="42.62462" lon="1.52883">
        <ele>1720.4000244141</ele>
        <time>2023-07-22T04:55:14.000Z</time>
      </trkpt>
      <trkpt lat="42.62463" lon="1.52877">
        <ele>1720.8000488281</ele>
        <time>2023-07-22T04:55:18.000Z</time>
      </trkpt>
      <trkpt lat="42.62464" lon="1.52868">
        <ele>1721.5999755859</ele>
        <time>2023-07-22T04:55:24.000Z</time>
      </trkpt>
      <trkpt lat="42.62464" lon="1.52865">
        <ele>1721.8000488281</ele>
        <time>2023-07-22T04:55:26.000Z</time>
      </trkpt>
      <trkpt lat="42.62469" lon="1.52859">
        <ele>1722.4000244141</ele>
        <time>2023-07-22T04:55:33.000Z</time>
      </trkpt>
      <trkpt lat="42.62474" lon="1.52853">
        <ele>1722.5999755859</ele>
        <time>2023-07-22T04:55:38.000Z</time>
      </trkpt>
      <trkpt lat="42.62478" lon="1.52848">
        <ele>1722.8000488281</ele>
        <time>2023-07-22T04:55:41.000Z</time>
      </trkpt>
      <trkpt lat="42.62483" lon="1.5284">
        <ele>1723.5999755859</ele>
        <time>2023-07-22T04:55:48.000Z</time>
      </trkpt>
      <trkpt lat="42.62483" lon="1.52839">
        <ele>1723.5999755859</ele>
        <time>2023-07-22T04:55:49.000Z</time>
      </trkpt>
      <trkpt lat="42.62488" lon="1.5283">
        <ele>1724.1999511719</ele>
        <time>2023-07-22T04:55:54.000Z</time>
      </trkpt>
      <trkpt lat="42.62491" lon="1.52824">
        <ele>1724.5999755859</ele>
        <time>2023-07-22T04:55:59.000Z</time>
      </trkpt>
      <trkpt lat="42.62492" lon="1.52822">
        <ele>1724.8000488281</ele>
        <time>2023-07-22T04:56:01.000Z</time>
      </trkpt>
      <trkpt lat="42.62496" lon="1.52813">
        <ele>1725.5999755859</ele>
        <time>2023-07-22T04:56:08.000Z</time>
      </trkpt>
      <trkpt lat="42.62497" lon="1.52812">
        <ele>1725.8000488281</ele>
        <time>2023-07-22T04:56:09.000Z</time>
      </trkpt>
      <trkpt lat="42.62502" lon="1.52801">
        <ele>1726.4000244141</ele>
        <time>2023-07-22T04:56:16.000Z</time>
      </trkpt>
      <trkpt lat="42.62505" lon="1.52793">
        <ele>1726.5999755859</ele>
        <time>2023-07-22T04:56:23.000Z</time>
      </trkpt>
      <trkpt lat="42.62504" lon="1.52792">
        <ele>1726.5999755859</ele>
        <time>2023-07-22T04:56:30.000Z</time>
      </trkpt>
      <trkpt lat="42.62505" lon="1.52786">
        <ele>1726.5999755859</ele>
        <time>2023-07-22T04:56:35.000Z</time>
      </trkpt>
      <trkpt lat="42.62506" lon="1.52784">
        <ele>1726.8000488281</ele>
        <time>2023-07-22T04:56:38.000Z</time>
      </trkpt>
      <trkpt lat="42.62507" lon="1.5278">
        <ele>1726.8000488281</ele>
        <time>2023-07-22T04:56:42.000Z</time>
      </trkpt>
      <trkpt lat="42.62514" lon="1.52772">
        <ele>1727.1999511719</ele>
        <time>2023-07-22T04:56:51.000Z</time>
      </trkpt>
      <trkpt lat="42.62515" lon="1.52756">
        <ele>1727.4000244141</ele>
        <time>2023-07-22T04:57:00.000Z</time>
      </trkpt>
      <trkpt lat="42.62517" lon="1.52737">
        <ele>1727.5999755859</ele>
        <time>2023-07-22T04:57:10.000Z</time>
      </trkpt>
      <trkpt lat="42.62518" lon="1.52723">
        <ele>1727.4000244141</ele>
        <time>2023-07-22T04:57:19.000Z</time>
      </trkpt>
      <trkpt lat="42.62517" lon="1.52703">
        <ele>1727.5999755859</ele>
        <time>2023-07-22T04:57:30.000Z</time>
      </trkpt>
      <trkpt lat="42.62521" lon="1.5269">
        <ele>1727.5999755859</ele>
        <time>2023-07-22T04:57:38.000Z</time>
      </trkpt>
      <trkpt lat="42.62526" lon="1.52673">
        <ele>1727.5999755859</ele>
        <time>2023-07-22T04:57:48.000Z</time>
      </trkpt>
      <trkpt lat="42.62528" lon="1.52665">
        <ele>1727.5999755859</ele>
        <time>2023-07-22T04:57:55.000Z</time>
      </trkpt>
      <trkpt lat="42.62528" lon="1.52666">
        <ele>1727.5999755859</ele>
        <time>2023-07-22T04:57:57.000Z</time>
      </trkpt>
      <trkpt lat="42.62528" lon="1.52663">
        <ele>1727.5999755859</ele>
        <time>2023-07-22T04:58:03.000Z</time>
      </trkpt>
      <trkpt lat="42.62529" lon="1.52665">
        <ele>1727.5999755859</ele>
        <time>2023-07-22T04:58:14.000Z</time>
      </trkpt>
      <trkpt lat="42.6253" lon="1.52667">
        <ele>1727.8000488281</ele>
        <time>2023-07-22T04:58:19.000Z</time>
      </trkpt>
      <trkpt lat="42.62532" lon="1.52665">
        <ele>1727.8000488281</ele>
        <time>2023-07-22T04:58:24.000Z</time>
      </trkpt>
      <trkpt lat="42.62536" lon="1.52655">
        <ele>1727.5999755859</ele>
        <time>2023-07-22T04:58:31.000Z</time>
      </trkpt>
      <trkpt lat="42.62538" lon="1.52648">
        <ele>1727.8000488281</ele>
        <time>2023-07-22T04:58:38.000Z</time>
      </trkpt>
      <trkpt lat="42.62538" lon="1.52648">
        <ele>1727.8000488281</ele>
        <time>2023-07-22T04:58:39.000Z</time>
      </trkpt>
      <trkpt lat="42.62538" lon="1.52648">
        <ele>1728</ele>
        <time>2023-07-22T04:58:46.000Z</time>
      </trkpt>
      <trkpt lat="42.62542" lon="1.52647">
        <ele>1728.1999511719</ele>
        <time>2023-07-22T04:58:54.000Z</time>
      </trkpt>
      <trkpt lat="42.62549" lon="1.52636">
        <ele>1728</ele>
        <time>2023-07-22T04:59:03.000Z</time>
      </trkpt>
      <trkpt lat="42.62554" lon="1.52626">
        <ele>1728.4000244141</ele>
        <time>2023-07-22T04:59:11.000Z</time>
      </trkpt>
      <trkpt lat="42.62557" lon="1.52621">
        <ele>1728.8000488281</ele>
        <time>2023-07-22T04:59:15.000Z</time>
      </trkpt>
      <trkpt lat="42.6256" lon="1.52618">
        <ele>1728.8000488281</ele>
        <time>2023-07-22T04:59:18.000Z</time>
      </trkpt>
      <trkpt lat="42.62566" lon="1.52607">
        <ele>1729.1999511719</ele>
        <time>2023-07-22T04:59:26.000Z</time>
      </trkpt>
      <trkpt lat="42.62572" lon="1.52593">
        <ele>1729.5999755859</ele>
        <time>2023-07-22T04:59:35.000Z</time>
      </trkpt>
      <trkpt lat="42.62573" lon="1.52592">
        <ele>1729.8000488281</ele>
        <time>2023-07-22T04:59:36.000Z</time>
      </trkpt>
      <trkpt lat="42.62579" lon="1.52582">
        <ele>1730.1999511719</ele>
        <time>2023-07-22T04:59:44.000Z</time>
      </trkpt>
      <trkpt lat="42.6258" lon="1.52566">
        <ele>1730.1999511719</ele>
        <time>2023-07-22T04:59:52.000Z</time>
      </trkpt>
      <trkpt lat="42.62576" lon="1.52558">
        <ele>1730.1999511719</ele>
        <time>2023-07-22T04:59:59.000Z</time>
      </trkpt>
      <trkpt lat="42.62576" lon="1.52556">
        <ele>1730.4000244141</ele>
        <time>2023-07-22T05:00:05.000Z</time>
      </trkpt>
      <trkpt lat="42.62577" lon="1.52557">
        <ele>1730.4000244141</ele>
        <time>2023-07-22T05:00:07.000Z</time>
      </trkpt>
      <trkpt lat="42.62584" lon="1.52555">
        <ele>1730</ele>
        <time>2023-07-22T05:00:14.000Z</time>
      </trkpt>
      <trkpt lat="42.62588" lon="1.52543">
        <ele>1729.8000488281</ele>
        <time>2023-07-22T05:00:21.000Z</time>
      </trkpt>
      <trkpt lat="42.62589" lon="1.52535">
        <ele>1729.4000244141</ele>
        <time>2023-07-22T05:00:28.000Z</time>
      </trkpt>
      <trkpt lat="42.62591" lon="1.52533">
        <ele>1729.4000244141</ele>
        <time>2023-07-22T05:00:32.000Z</time>
      </trkpt>
      <trkpt lat="42.62591" lon="1.52533">
        <ele>1729.4000244141</ele>
        <time>2023-07-22T05:00:34.000Z</time>
      </trkpt>
      <trkpt lat="42.62593" lon="1.52541">
        <ele>1729.4000244141</ele>
        <time>2023-07-22T05:00:43.000Z</time>
      </trkpt>
      <trkpt lat="42.62592" lon="1.5254">
        <ele>1729.4000244141</ele>
        <time>2023-07-22T05:00:52.000Z</time>
      </trkpt>
      <trkpt lat="42.62592" lon="1.52536">
        <ele>1729.4000244141</ele>
        <time>2023-07-22T05:00:58.000Z</time>
      </trkpt>
      <trkpt lat="42.62597" lon="1.52526">
        <ele>1728.8000488281</ele>
        <time>2023-07-22T05:01:04.000Z</time>
      </trkpt>
      <trkpt lat="42.62598" lon="1.52524">
        <ele>1728.5999755859</ele>
        <time>2023-07-22T05:01:05.000Z</time>
      </trkpt>
      <trkpt lat="42.62602" lon="1.52516">
        <ele>1728</ele>
        <time>2023-07-22T05:01:11.000Z</time>
      </trkpt>
      <trkpt lat="42.62604" lon="1.52513">
        <ele>1727.5999755859</ele>
        <time>2023-07-22T05:01:14.000Z</time>
      </trkpt>
      <trkpt lat="42.62607" lon="1.52505">
        <ele>1727.4000244141</ele>
        <time>2023-07-22T05:01:19.000Z</time>
      </trkpt>
      <trkpt lat="42.62613" lon="1.52492">
        <ele>1727.4000244141</ele>
        <time>2023-07-22T05:01:29.000Z</time>
      </trkpt>
      <trkpt lat="42.62618" lon="1.52478">
        <ele>1727.8000488281</ele>
        <time>2023-07-22T05:01:37.000Z</time>
      </trkpt>
      <trkpt lat="42.62621" lon="1.52468">
        <ele>1728.4000244141</ele>
        <time>2023-07-22T05:01:45.000Z</time>
      </trkpt>
      <trkpt lat="42.62623" lon="1.52465">
        <ele>1728.8000488281</ele>
        <time>2023-07-22T05:01:47.000Z</time>
      </trkpt>
      <trkpt lat="42.62628" lon="1.52457">
        <ele>1729.8000488281</ele>
        <time>2023-07-22T05:01:54.000Z</time>
      </trkpt>
      <trkpt lat="42.62629" lon="1.52452">
        <ele>1730.8000488281</ele>
        <time>2023-07-22T05:02:00.000Z</time>
      </trkpt>
      <trkpt lat="42.6263" lon="1.5245">
        <ele>1731</ele>
        <time>2023-07-22T05:02:01.000Z</time>
      </trkpt>
      <trkpt lat="42.62635" lon="1.52444">
        <ele>1732</ele>
        <time>2023-07-22T05:02:07.000Z</time>
      </trkpt>
      <trkpt lat="42.62636" lon="1.52443">
        <ele>1732.4000244141</ele>
        <time>2023-07-22T05:02:09.000Z</time>
      </trkpt>
      <trkpt lat="42.6264" lon="1.52436">
        <ele>1733.1999511719</ele>
        <time>2023-07-22T05:02:15.000Z</time>
      </trkpt>
      <trkpt lat="42.62642" lon="1.52431">
        <ele>1733.5999755859</ele>
        <time>2023-07-22T05:02:18.000Z</time>
      </trkpt>
      <trkpt lat="42.62644" lon="1.52427">
        <ele>1734.1999511719</ele>
        <time>2023-07-22T05:02:20.000Z</time>
      </trkpt>
      <trkpt lat="42.62647" lon="1.52421">
        <ele>1735</ele>
        <time>2023-07-22T05:02:25.000Z</time>
      </trkpt>
      <trkpt lat="42.62649" lon="1.52421">
        <ele>1735.4000244141</ele>
        <time>2023-07-22T05:02:28.000Z</time>
      </trkpt>
      <trkpt lat="42.62652" lon="1.52421">
        <ele>1735.8000488281</ele>
        <time>2023-07-22T05:02:32.000Z</time>
      </trkpt>
      <trkpt lat="42.62654" lon="1.5242">
        <ele>1736.4000244141</ele>
        <time>2023-07-22T05:02:35.000Z</time>
      </trkpt>
      <trkpt lat="42.62655" lon="1.52418">
        <ele>1737</ele>
        <time>2023-07-22T05:02:39.000Z</time>
      </trkpt>
      <trkpt lat="42.62656" lon="1.52416">
        <ele>1737.4000244141</ele>
        <time>2023-07-22T05:02:42.000Z</time>
      </trkpt>
      <trkpt lat="42.62659" lon="1.52412">
        <ele>1738.5999755859</ele>
        <time>2023-07-22T05:02:48.000Z</time>
      </trkpt>
      <trkpt lat="42.6266" lon="1.52407">
        <ele>1739.5999755859</ele>
        <time>2023-07-22T05:02:55.000Z</time>
      </trkpt>
      <trkpt lat="42.62662" lon="1.52405">
        <ele>1740</ele>
        <time>2023-07-22T05:02:57.000Z</time>
      </trkpt>
      <trkpt lat="42.62663" lon="1.524">
        <ele>1740.8000488281</ele>
        <time>2023-07-22T05:03:02.000Z</time>
      </trkpt>
      <trkpt lat="42.62663" lon="1.52398">
        <ele>1741.1999511719</ele>
        <time>2023-07-22T05:03:04.000Z</time>
      </trkpt>
      <trkpt lat="42.62665" lon="1.52391">
        <ele>1742</ele>
        <time>2023-07-22T05:03:09.000Z</time>
      </trkpt>
      <trkpt lat="42.62665" lon="1.5239">
        <ele>1742.1999511719</ele>
        <time>2023-07-22T05:03:11.000Z</time>
      </trkpt>
      <trkpt lat="42.62667" lon="1.52387">
        <ele>1743</ele>
        <time>2023-07-22T05:03:18.000Z</time>
      </trkpt>
      <trkpt lat="42.62668" lon="1.52385">
        <ele>1743</ele>
        <time>2023-07-22T05:03:19.000Z</time>
      </trkpt>
      <trkpt lat="42.6267" lon="1.52378">
        <ele>1744</ele>
        <time>2023-07-22T05:03:25.000Z</time>
      </trkpt>
      <trkpt lat="42.62669" lon="1.52378">
        <ele>1744.1999511719</ele>
        <time>2023-07-22T05:03:26.000Z</time>
      </trkpt>
      <trkpt lat="42.62668" lon="1.5237">
        <ele>1745</ele>
        <time>2023-07-22T05:03:33.000Z</time>
      </trkpt>
      <trkpt lat="42.62668" lon="1.52367">
        <ele>1745.4000244141</ele>
        <time>2023-07-22T05:03:35.000Z</time>
      </trkpt>
      <trkpt lat="42.62669" lon="1.52355">
        <ele>1745</ele>
        <time>2023-07-22T05:03:43.000Z</time>
      </trkpt>
      <trkpt lat="42.62676" lon="1.52347">
        <ele>1744.4000244141</ele>
        <time>2023-07-22T05:03:50.000Z</time>
      </trkpt>
      <trkpt lat="42.62681" lon="1.52345">
        <ele>1744</ele>
        <time>2023-07-22T05:03:55.000Z</time>
      </trkpt>
      <trkpt lat="42.62686" lon="1.52345">
        <ele>1744.1999511719</ele>
        <time>2023-07-22T05:03:59.000Z</time>
      </trkpt>
      <trkpt lat="42.62694" lon="1.52345">
        <ele>1744.4000244141</ele>
        <time>2023-07-22T05:04:06.000Z</time>
      </trkpt>
      <trkpt lat="42.62708" lon="1.52347">
        <ele>1743.1999511719</ele>
        <time>2023-07-22T05:04:16.000Z</time>
      </trkpt>
      <trkpt lat="42.62713" lon="1.52349">
        <ele>1743</ele>
        <time>2023-07-22T05:04:19.000Z</time>
      </trkpt>
      <trkpt lat="42.62718" lon="1.5235">
        <ele>1742.5999755859</ele>
        <time>2023-07-22T05:04:24.000Z</time>
      </trkpt>
      <trkpt lat="42.62728" lon="1.52349">
        <ele>1742</ele>
        <time>2023-07-22T05:04:31.000Z</time>
      </trkpt>
      <trkpt lat="42.62729" lon="1.52348">
        <ele>1741.8000488281</ele>
        <time>2023-07-22T05:04:32.000Z</time>
      </trkpt>
      <trkpt lat="42.62734" lon="1.52343">
        <ele>1741.1999511719</ele>
        <time>2023-07-22T05:04:38.000Z</time>
      </trkpt>
      <trkpt lat="42.62736" lon="1.52339">
        <ele>1740.5999755859</ele>
        <time>2023-07-22T05:04:41.000Z</time>
      </trkpt>
      <trkpt lat="42.62738" lon="1.52333">
        <ele>1739.8000488281</ele>
        <time>2023-07-22T05:04:45.000Z</time>
      </trkpt>
      <trkpt lat="42.6274" lon="1.52331">
        <ele>1739.4000244141</ele>
        <time>2023-07-22T05:04:47.000Z</time>
      </trkpt>
      <trkpt lat="42.62745" lon="1.52324">
        <ele>1738.5999755859</ele>
        <time>2023-07-22T05:04:53.000Z</time>
      </trkpt>
      <trkpt lat="42.62746" lon="1.52323">
        <ele>1738.4000244141</ele>
        <time>2023-07-22T05:04:54.000Z</time>
      </trkpt>
      <trkpt lat="42.6275" lon="1.52317">
        <ele>1737.4000244141</ele>
        <time>2023-07-22T05:05:00.000Z</time>
      </trkpt>
      <trkpt lat="42.62755" lon="1.52309">
        <ele>1736.1999511719</ele>
        <time>2023-07-22T05:05:06.000Z</time>
      </trkpt>
      <trkpt lat="42.62756" lon="1.52308">
        <ele>1736</ele>
        <time>2023-07-22T05:05:07.000Z</time>
      </trkpt>
      <trkpt lat="42.62761" lon="1.523">
        <ele>1735.5999755859</ele>
        <time>2023-07-22T05:05:12.000Z</time>
      </trkpt>
      <trkpt lat="42.6277" lon="1.5229">
        <ele>1736.5999755859</ele>
        <time>2023-07-22T05:05:22.000Z</time>
      </trkpt>
      <trkpt lat="42.62773" lon="1.52287">
        <ele>1737.1999511719</ele>
        <time>2023-07-22T05:05:26.000Z</time>
      </trkpt>
      <trkpt lat="42.62778" lon="1.52284">
        <ele>1738.1999511719</ele>
        <time>2023-07-22T05:05:30.000Z</time>
      </trkpt>
      <trkpt lat="42.62779" lon="1.52284">
        <ele>1738.4000244141</ele>
        <time>2023-07-22T05:05:31.000Z</time>
      </trkpt>
      <trkpt lat="42.62781" lon="1.52281">
        <ele>1739.4000244141</ele>
        <time>2023-07-22T05:05:36.000Z</time>
      </trkpt>
      <trkpt lat="42.62782" lon="1.5228">
        <ele>1739.5999755859</ele>
        <time>2023-07-22T05:05:37.000Z</time>
      </trkpt>
      <trkpt lat="42.62788" lon="1.52274">
        <ele>1740.5999755859</ele>
        <time>2023-07-22T05:05:44.000Z</time>
      </trkpt>
      <trkpt lat="42.62793" lon="1.52271">
        <ele>1741.8000488281</ele>
        <time>2023-07-22T05:05:50.000Z</time>
      </trkpt>
      <trkpt lat="42.62795" lon="1.5227">
        <ele>1742</ele>
        <time>2023-07-22T05:05:52.000Z</time>
      </trkpt>
      <trkpt lat="42.62799" lon="1.52266">
        <ele>1742.8000488281</ele>
        <time>2023-07-22T05:05:56.000Z</time>
      </trkpt>
      <trkpt lat="42.62803" lon="1.52265">
        <ele>1743.5999755859</ele>
        <time>2023-07-22T05:06:01.000Z</time>
      </trkpt>
      <trkpt lat="42.62809" lon="1.52263">
        <ele>1743.8000488281</ele>
        <time>2023-07-22T05:06:05.000Z</time>
      </trkpt>
      <trkpt lat="42.62816" lon="1.5226">
        <ele>1744</ele>
        <time>2023-07-22T05:06:09.000Z</time>
      </trkpt>
      <trkpt lat="42.62821" lon="1.52254">
        <ele>1744.4000244141</ele>
        <time>2023-07-22T05:06:15.000Z</time>
      </trkpt>
      <trkpt lat="42.62826" lon="1.52248">
        <ele>1744.8000488281</ele>
        <time>2023-07-22T05:06:20.000Z</time>
      </trkpt>
      <trkpt lat="42.62828" lon="1.52245">
        <ele>1745</ele>
        <time>2023-07-22T05:06:23.000Z</time>
      </trkpt>
      <trkpt lat="42.62837" lon="1.52234">
        <ele>1745.1999511719</ele>
        <time>2023-07-22T05:06:33.000Z</time>
      </trkpt>
      <trkpt lat="42.62845" lon="1.52227">
        <ele>1745.1999511719</ele>
        <time>2023-07-22T05:06:42.000Z</time>
      </trkpt>
      <trkpt lat="42.62853" lon="1.52219">
        <ele>1745.4000244141</ele>
        <time>2023-07-22T05:06:48.000Z</time>
      </trkpt>
      <trkpt lat="42.62859" lon="1.5221">
        <ele>1745.1999511719</ele>
        <time>2023-07-22T05:06:56.000Z</time>
      </trkpt>
      <trkpt lat="42.62867" lon="1.52199">
        <ele>1745.4000244141</ele>
        <time>2023-07-22T05:07:05.000Z</time>
      </trkpt>
      <trkpt lat="42.62874" lon="1.52187">
        <ele>1745.8000488281</ele>
        <time>2023-07-22T05:07:14.000Z</time>
      </trkpt>
      <trkpt lat="42.62875" lon="1.52186">
        <ele>1746</ele>
        <time>2023-07-22T05:07:15.000Z</time>
      </trkpt>
      <trkpt lat="42.6288" lon="1.52175">
        <ele>1746.8000488281</ele>
        <time>2023-07-22T05:07:23.000Z</time>
      </trkpt>
      <trkpt lat="42.62881" lon="1.52173">
        <ele>1747</ele>
        <time>2023-07-22T05:07:24.000Z</time>
      </trkpt>
      <trkpt lat="42.62886" lon="1.5216">
        <ele>1748</ele>
        <time>2023-07-22T05:07:32.000Z</time>
      </trkpt>
      <trkpt lat="42.62886" lon="1.52159">
        <ele>1748.4000244141</ele>
        <time>2023-07-22T05:07:33.000Z</time>
      </trkpt>
      <trkpt lat="42.62888" lon="1.52151">
        <ele>1749</ele>
        <time>2023-07-22T05:07:38.000Z</time>
      </trkpt>
      <trkpt lat="42.6289" lon="1.52146">
        <ele>1749.5999755859</ele>
        <time>2023-07-22T05:07:42.000Z</time>
      </trkpt>
      <trkpt lat="42.62891" lon="1.52143">
        <ele>1750.1999511719</ele>
        <time>2023-07-22T05:07:44.000Z</time>
      </trkpt>
      <trkpt lat="42.62893" lon="1.52135">
        <ele>1751.1999511719</ele>
        <time>2023-07-22T05:07:50.000Z</time>
      </trkpt>
      <trkpt lat="42.62894" lon="1.52133">
        <ele>1751.4000244141</ele>
        <time>2023-07-22T05:07:51.000Z</time>
      </trkpt>
      <trkpt lat="42.62897" lon="1.52126">
        <ele>1752.4000244141</ele>
        <time>2023-07-22T05:07:56.000Z</time>
      </trkpt>
      <trkpt lat="42.62901" lon="1.52121">
        <ele>1753</ele>
        <time>2023-07-22T05:08:00.000Z</time>
      </trkpt>
      <trkpt lat="42.62904" lon="1.52117">
        <ele>1753.4000244141</ele>
        <time>2023-07-22T05:08:03.000Z</time>
      </trkpt>
      <trkpt lat="42.62908" lon="1.52114">
        <ele>1753.5999755859</ele>
        <time>2023-07-22T05:08:07.000Z</time>
      </trkpt>
      <trkpt lat="42.62917" lon="1.52107">
        <ele>1754</ele>
        <time>2023-07-22T05:08:15.000Z</time>
      </trkpt>
      <trkpt lat="42.62919" lon="1.52104">
        <ele>1754.4000244141</ele>
        <time>2023-07-22T05:08:18.000Z</time>
      </trkpt>
      <trkpt lat="42.62923" lon="1.52097">
        <ele>1754.5999755859</ele>
        <time>2023-07-22T05:08:23.000Z</time>
      </trkpt>
      <trkpt lat="42.62928" lon="1.52088">
        <ele>1755.1999511719</ele>
        <time>2023-07-22T05:08:30.000Z</time>
      </trkpt>
      <trkpt lat="42.62929" lon="1.52086">
        <ele>1755.4000244141</ele>
        <time>2023-07-22T05:08:32.000Z</time>
      </trkpt>
      <trkpt lat="42.62933" lon="1.52081">
        <ele>1756</ele>
        <time>2023-07-22T05:08:38.000Z</time>
      </trkpt>
      <trkpt lat="42.62938" lon="1.52072">
        <ele>1756.5999755859</ele>
        <time>2023-07-22T05:08:45.000Z</time>
      </trkpt>
      <trkpt lat="42.62941" lon="1.52065">
        <ele>1757.8000488281</ele>
        <time>2023-07-22T05:08:52.000Z</time>
      </trkpt>
      <trkpt lat="42.62942" lon="1.52064">
        <ele>1758</ele>
        <time>2023-07-22T05:08:53.000Z</time>
      </trkpt>
      <trkpt lat="42.62945" lon="1.52057">
        <ele>1758.8000488281</ele>
        <time>2023-07-22T05:08:58.000Z</time>
      </trkpt>
      <trkpt lat="42.62947" lon="1.52052">
        <ele>1759.8000488281</ele>
        <time>2023-07-22T05:09:02.000Z</time>
      </trkpt>
      <trkpt lat="42.62947" lon="1.5205">
        <ele>1760</ele>
        <time>2023-07-22T05:09:03.000Z</time>
      </trkpt>
      <trkpt lat="42.6295" lon="1.52043">
        <ele>1761.1999511719</ele>
        <time>2023-07-22T05:09:10.000Z</time>
      </trkpt>
      <trkpt lat="42.6295" lon="1.5204">
        <ele>1761.4000244141</ele>
        <time>2023-07-22T05:09:12.000Z</time>
      </trkpt>
      <trkpt lat="42.6295" lon="1.52035">
        <ele>1762.1999511719</ele>
        <time>2023-07-22T05:09:16.000Z</time>
      </trkpt>
      <trkpt lat="42.62951" lon="1.52029">
        <ele>1763</ele>
        <time>2023-07-22T05:09:21.000Z</time>
      </trkpt>
      <trkpt lat="42.62951" lon="1.52027">
        <ele>1763.1999511719</ele>
        <time>2023-07-22T05:09:22.000Z</time>
      </trkpt>
      <trkpt lat="42.6295" lon="1.52016">
        <ele>1764.4000244141</ele>
        <time>2023-07-22T05:09:29.000Z</time>
      </trkpt>
      <trkpt lat="42.62951" lon="1.5201">
        <ele>1765.5999755859</ele>
        <time>2023-07-22T05:09:35.000Z</time>
      </trkpt>
      <trkpt lat="42.62951" lon="1.52008">
        <ele>1765.8000488281</ele>
        <time>2023-07-22T05:09:36.000Z</time>
      </trkpt>
      <trkpt lat="42.62955" lon="1.52002">
        <ele>1766.5999755859</ele>
        <time>2023-07-22T05:09:42.000Z</time>
      </trkpt>
      <trkpt lat="42.62956" lon="1.52001">
        <ele>1767</ele>
        <time>2023-07-22T05:09:44.000Z</time>
      </trkpt>
      <trkpt lat="42.62961" lon="1.51993">
        <ele>1767.8000488281</ele>
        <time>2023-07-22T05:09:50.000Z</time>
      </trkpt>
      <trkpt lat="42.62962" lon="1.51992">
        <ele>1768</ele>
        <time>2023-07-22T05:09:52.000Z</time>
      </trkpt>
      <trkpt lat="42.62967" lon="1.51986">
        <ele>1769</ele>
        <time>2023-07-22T05:09:58.000Z</time>
      </trkpt>
      <trkpt lat="42.6297" lon="1.51985">
        <ele>1769.4000244141</ele>
        <time>2023-07-22T05:10:01.000Z</time>
      </trkpt>
      <trkpt lat="42.62978" lon="1.51983">
        <ele>1770</ele>
        <time>2023-07-22T05:10:06.000Z</time>
      </trkpt>
      <trkpt lat="42.62981" lon="1.51982">
        <ele>1770.4000244141</ele>
        <time>2023-07-22T05:10:09.000Z</time>
      </trkpt>
      <trkpt lat="42.62984" lon="1.51978">
        <ele>1771.1999511719</ele>
        <time>2023-07-22T05:10:13.000Z</time>
      </trkpt>
      <trkpt lat="42.62985" lon="1.51973">
        <ele>1771.4000244141</ele>
        <time>2023-07-22T05:10:16.000Z</time>
      </trkpt>
      <trkpt lat="42.62992" lon="1.51962">
        <ele>1772.1999511719</ele>
        <time>2023-07-22T05:10:25.000Z</time>
      </trkpt>
      <trkpt lat="42.62996" lon="1.51955">
        <ele>1772.8000488281</ele>
        <time>2023-07-22T05:10:32.000Z</time>
      </trkpt>
      <trkpt lat="42.63002" lon="1.51951">
        <ele>1773.4000244141</ele>
        <time>2023-07-22T05:10:38.000Z</time>
      </trkpt>
      <trkpt lat="42.63005" lon="1.51949">
        <ele>1773.4000244141</ele>
        <time>2023-07-22T05:10:42.000Z</time>
      </trkpt>
      <trkpt lat="42.63015" lon="1.51939">
        <ele>1774</ele>
        <time>2023-07-22T05:10:50.000Z</time>
      </trkpt>
      <trkpt lat="42.6302" lon="1.51929">
        <ele>1774.4000244141</ele>
        <time>2023-07-22T05:10:56.000Z</time>
      </trkpt>
      <trkpt lat="42.63022" lon="1.51924">
        <ele>1774.4000244141</ele>
        <time>2023-07-22T05:10:59.000Z</time>
      </trkpt>
      <trkpt lat="42.63026" lon="1.51913">
        <ele>1774.8000488281</ele>
        <time>2023-07-22T05:11:06.000Z</time>
      </trkpt>
      <trkpt lat="42.63029" lon="1.51898">
        <ele>1775.1999511719</ele>
        <time>2023-07-22T05:11:15.000Z</time>
      </trkpt>
      <trkpt lat="42.63034" lon="1.51884">
        <ele>1775.4000244141</ele>
        <time>2023-07-22T05:11:23.000Z</time>
      </trkpt>
      <trkpt lat="42.63035" lon="1.51881">
        <ele>1775.4000244141</ele>
        <time>2023-07-22T05:11:25.000Z</time>
      </trkpt>
      <trkpt lat="42.63038" lon="1.51875">
        <ele>1775.8000488281</ele>
        <time>2023-07-22T05:11:30.000Z</time>
      </trkpt>
      <trkpt lat="42.63038" lon="1.51871">
        <ele>1776.4000244141</ele>
        <time>2023-07-22T05:11:33.000Z</time>
      </trkpt>
      <trkpt lat="42.63041" lon="1.51865">
        <ele>1777.5999755859</ele>
        <time>2023-07-22T05:11:39.000Z</time>
      </trkpt>
      <trkpt lat="42.63043" lon="1.51853">
        <ele>1778.5999755859</ele>
        <time>2023-07-22T05:11:46.000Z</time>
      </trkpt>
      <trkpt lat="42.63044" lon="1.51851">
        <ele>1778.5999755859</ele>
        <time>2023-07-22T05:11:47.000Z</time>
      </trkpt>
      <trkpt lat="42.63044" lon="1.51842">
        <ele>1779.5999755859</ele>
        <time>2023-07-22T05:11:54.000Z</time>
      </trkpt>
      <trkpt lat="42.63045" lon="1.51841">
        <ele>1779.8000488281</ele>
        <time>2023-07-22T05:11:55.000Z</time>
      </trkpt>
      <trkpt lat="42.63047" lon="1.51832">
        <ele>1780.4000244141</ele>
        <time>2023-07-22T05:12:02.000Z</time>
      </trkpt>
      <trkpt lat="42.6305" lon="1.51823">
        <ele>1780.8000488281</ele>
        <time>2023-07-22T05:12:07.000Z</time>
      </trkpt>
      <trkpt lat="42.63052" lon="1.51818">
        <ele>1781.1999511719</ele>
        <time>2023-07-22T05:12:10.000Z</time>
      </trkpt>
      <trkpt lat="42.63054" lon="1.51809">
        <ele>1781.8000488281</ele>
        <time>2023-07-22T05:12:15.000Z</time>
      </trkpt>
      <trkpt lat="42.63055" lon="1.51804">
        <ele>1782.5999755859</ele>
        <time>2023-07-22T05:12:19.000Z</time>
      </trkpt>
      <trkpt lat="42.63056" lon="1.51802">
        <ele>1782.8000488281</ele>
        <time>2023-07-22T05:12:21.000Z</time>
      </trkpt>
      <trkpt lat="42.63057" lon="1.51787">
        <ele>1783.5999755859</ele>
        <time>2023-07-22T05:12:29.000Z</time>
      </trkpt>
      <trkpt lat="42.63056" lon="1.51782">
        <ele>1784</ele>
        <time>2023-07-22T05:12:32.000Z</time>
      </trkpt>
      <trkpt lat="42.63057" lon="1.51772">
        <ele>1784.8000488281</ele>
        <time>2023-07-22T05:12:39.000Z</time>
      </trkpt>
      <trkpt lat="42.63057" lon="1.5177">
        <ele>1785</ele>
        <time>2023-07-22T05:12:40.000Z</time>
      </trkpt>
      <trkpt lat="42.63056" lon="1.51761">
        <ele>1786</ele>
        <time>2023-07-22T05:12:47.000Z</time>
      </trkpt>
      <trkpt lat="42.63056" lon="1.5176">
        <ele>1786.1999511719</ele>
        <time>2023-07-22T05:12:48.000Z</time>
      </trkpt>
      <trkpt lat="42.63056" lon="1.51751">
        <ele>1787.1999511719</ele>
        <time>2023-07-22T05:12:53.000Z</time>
      </trkpt>
      <trkpt lat="42.63056" lon="1.51747">
        <ele>1787.5999755859</ele>
        <time>2023-07-22T05:12:56.000Z</time>
      </trkpt>
      <trkpt lat="42.63058" lon="1.51739">
        <ele>1788.1999511719</ele>
        <time>2023-07-22T05:13:02.000Z</time>
      </trkpt>
      <trkpt lat="42.63059" lon="1.51738">
        <ele>1788.4000244141</ele>
        <time>2023-07-22T05:13:03.000Z</time>
      </trkpt>
      <trkpt lat="42.63062" lon="1.51724">
        <ele>1789.1999511719</ele>
        <time>2023-07-22T05:13:11.000Z</time>
      </trkpt>
      <trkpt lat="42.63062" lon="1.51724">
        <ele>1789.5999755859</ele>
        <time>2023-07-22T05:13:12.000Z</time>
      </trkpt>
      <trkpt lat="42.63063" lon="1.51714">
        <ele>1790</ele>
        <time>2023-07-22T05:13:19.000Z</time>
      </trkpt>
      <trkpt lat="42.63064" lon="1.51711">
        <ele>1790.1999511719</ele>
        <time>2023-07-22T05:13:21.000Z</time>
      </trkpt>
      <trkpt lat="42.6307" lon="1.51705">
        <ele>1791</ele>
        <time>2023-07-22T05:13:27.000Z</time>
      </trkpt>
      <trkpt lat="42.63072" lon="1.51702">
        <ele>1791.4000244141</ele>
        <time>2023-07-22T05:13:29.000Z</time>
      </trkpt>
      <trkpt lat="42.63078" lon="1.51696">
        <ele>1792.1999511719</ele>
        <time>2023-07-22T05:13:36.000Z</time>
      </trkpt>
      <trkpt lat="42.63079" lon="1.51695">
        <ele>1792.4000244141</ele>
        <time>2023-07-22T05:13:37.000Z</time>
      </trkpt>
      <trkpt lat="42.63084" lon="1.51688">
        <ele>1793.1999511719</ele>
        <time>2023-07-22T05:13:43.000Z</time>
      </trkpt>
      <trkpt lat="42.63086" lon="1.51686">
        <ele>1793.4000244141</ele>
        <time>2023-07-22T05:13:45.000Z</time>
      </trkpt>
      <trkpt lat="42.63088" lon="1.5168">
        <ele>1793.8000488281</ele>
        <time>2023-07-22T05:13:50.000Z</time>
      </trkpt>
      <trkpt lat="42.63092" lon="1.51672">
        <ele>1794.4000244141</ele>
        <time>2023-07-22T05:13:56.000Z</time>
      </trkpt>
      <trkpt lat="42.63093" lon="1.51668">
        <ele>1794.5999755859</ele>
        <time>2023-07-22T05:13:58.000Z</time>
      </trkpt>
      <trkpt lat="42.63096" lon="1.51657">
        <ele>1795.4000244141</ele>
        <time>2023-07-22T05:14:04.000Z</time>
      </trkpt>
      <trkpt lat="42.63096" lon="1.51655">
        <ele>1795.8000488281</ele>
        <time>2023-07-22T05:14:06.000Z</time>
      </trkpt>
      <trkpt lat="42.63097" lon="1.51647">
        <ele>1796.5999755859</ele>
        <time>2023-07-22T05:14:12.000Z</time>
      </trkpt>
      <trkpt lat="42.63101" lon="1.51635">
        <ele>1797.8000488281</ele>
        <time>2023-07-22T05:14:21.000Z</time>
      </trkpt>
      <trkpt lat="42.63104" lon="1.51623">
        <ele>1798.8000488281</ele>
        <time>2023-07-22T05:14:28.000Z</time>
      </trkpt>
      <trkpt lat="42.63104" lon="1.51622">
        <ele>1798.8000488281</ele>
        <time>2023-07-22T05:14:29.000Z</time>
      </trkpt>
      <trkpt lat="42.63109" lon="1.5161">
        <ele>1799.8000488281</ele>
        <time>2023-07-22T05:14:37.000Z</time>
      </trkpt>
      <trkpt lat="42.63109" lon="1.51609">
        <ele>1800</ele>
        <time>2023-07-22T05:14:38.000Z</time>
      </trkpt>
      <trkpt lat="42.63113" lon="1.516">
        <ele>1800.5999755859</ele>
        <time>2023-07-22T05:14:44.000Z</time>
      </trkpt>
      <trkpt lat="42.63115" lon="1.51595">
        <ele>1801</ele>
        <time>2023-07-22T05:14:48.000Z</time>
      </trkpt>
      <trkpt lat="42.63116" lon="1.51592">
        <ele>1801.1999511719</ele>
        <time>2023-07-22T05:14:51.000Z</time>
      </trkpt>
      <trkpt lat="42.63118" lon="1.51583">
        <ele>1801.5999755859</ele>
        <time>2023-07-22T05:14:58.000Z</time>
      </trkpt>
      <trkpt lat="42.63118" lon="1.51575">
        <ele>1802</ele>
        <time>2023-07-22T05:15:04.000Z</time>
      </trkpt>
      <trkpt lat="42.63118" lon="1.5157">
        <ele>1802.1999511719</ele>
        <time>2023-07-22T05:15:07.000Z</time>
      </trkpt>
      <trkpt lat="42.6312" lon="1.51556">
        <ele>1802.8000488281</ele>
        <time>2023-07-22T05:15:15.000Z</time>
      </trkpt>
      <trkpt lat="42.63121" lon="1.51554">
        <ele>1803</ele>
        <time>2023-07-22T05:15:17.000Z</time>
      </trkpt>
      <trkpt lat="42.63121" lon="1.51546">
        <ele>1803.4000244141</ele>
        <time>2023-07-22T05:15:22.000Z</time>
      </trkpt>
      <trkpt lat="42.63124" lon="1.51535">
        <ele>1804</ele>
        <time>2023-07-22T05:15:28.000Z</time>
      </trkpt>
      <trkpt lat="42.63125" lon="1.51533">
        <ele>1804.1999511719</ele>
        <time>2023-07-22T05:15:30.000Z</time>
      </trkpt>
      <trkpt lat="42.63129" lon="1.51515">
        <ele>1804.8000488281</ele>
        <time>2023-07-22T05:15:39.000Z</time>
      </trkpt>
      <trkpt lat="42.6313" lon="1.51511">
        <ele>1805</ele>
        <time>2023-07-22T05:15:42.000Z</time>
      </trkpt>
      <trkpt lat="42.63131" lon="1.51502">
        <ele>1805.4000244141</ele>
        <time>2023-07-22T05:15:48.000Z</time>
      </trkpt>
      <trkpt lat="42.63133" lon="1.51492">
        <ele>1806</ele>
        <time>2023-07-22T05:15:54.000Z</time>
      </trkpt>
      <trkpt lat="42.63133" lon="1.5149">
        <ele>1806.1999511719</ele>
        <time>2023-07-22T05:15:55.000Z</time>
      </trkpt>
      <trkpt lat="42.63136" lon="1.51482">
        <ele>1807</ele>
        <time>2023-07-22T05:16:01.000Z</time>
      </trkpt>
      <trkpt lat="42.63136" lon="1.51481">
        <ele>1807.4000244141</ele>
        <time>2023-07-22T05:16:02.000Z</time>
      </trkpt>
      <trkpt lat="42.63139" lon="1.51473">
        <ele>1808.1999511719</ele>
        <time>2023-07-22T05:16:08.000Z</time>
      </trkpt>
      <trkpt lat="42.63141" lon="1.51466">
        <ele>1809</ele>
        <time>2023-07-22T05:16:13.000Z</time>
      </trkpt>
      <trkpt lat="42.63142" lon="1.51464">
        <ele>1809.1999511719</ele>
        <time>2023-07-22T05:16:15.000Z</time>
      </trkpt>
      <trkpt lat="42.63146" lon="1.5146">
        <ele>1810.4000244141</ele>
        <time>2023-07-22T05:16:21.000Z</time>
      </trkpt>
      <trkpt lat="42.63151" lon="1.51454">
        <ele>1811.4000244141</ele>
        <time>2023-07-22T05:16:27.000Z</time>
      </trkpt>
      <trkpt lat="42.63151" lon="1.51454">
        <ele>1811.5999755859</ele>
        <time>2023-07-22T05:16:28.000Z</time>
      </trkpt>
      <trkpt lat="42.63153" lon="1.51451">
        <ele>1812.4000244141</ele>
        <time>2023-07-22T05:16:32.000Z</time>
      </trkpt>
      <trkpt lat="42.63154" lon="1.51448">
        <ele>1813</ele>
        <time>2023-07-22T05:16:35.000Z</time>
      </trkpt>
      <trkpt lat="42.63155" lon="1.51444">
        <ele>1813.5999755859</ele>
        <time>2023-07-22T05:16:38.000Z</time>
      </trkpt>
      <trkpt lat="42.63156" lon="1.51438">
        <ele>1814.8000488281</ele>
        <time>2023-07-22T05:16:44.000Z</time>
      </trkpt>
      <trkpt lat="42.63157" lon="1.51436">
        <ele>1815.1999511719</ele>
        <time>2023-07-22T05:16:46.000Z</time>
      </trkpt>
      <trkpt lat="42.63159" lon="1.51433">
        <ele>1815.8000488281</ele>
        <time>2023-07-22T05:16:50.000Z</time>
      </trkpt>
      <trkpt lat="42.6316" lon="1.51429">
        <ele>1816.5999755859</ele>
        <time>2023-07-22T05:16:54.000Z</time>
      </trkpt>
      <trkpt lat="42.63161" lon="1.51428">
        <ele>1816.8000488281</ele>
        <time>2023-07-22T05:16:55.000Z</time>
      </trkpt>
      <trkpt lat="42.63163" lon="1.51423">
        <ele>1817.8000488281</ele>
        <time>2023-07-22T05:17:01.000Z</time>
      </trkpt>
      <trkpt lat="42.63163" lon="1.51423">
        <ele>1818</ele>
        <time>2023-07-22T05:17:02.000Z</time>
      </trkpt>
      <trkpt lat="42.63165" lon="1.51415">
        <ele>1819</ele>
        <time>2023-07-22T05:17:08.000Z</time>
      </trkpt>
      <trkpt lat="42.63164" lon="1.51413">
        <ele>1819.4000244141</ele>
        <time>2023-07-22T05:17:10.000Z</time>
      </trkpt>
      <trkpt lat="42.63163" lon="1.51409">
        <ele>1820</ele>
        <time>2023-07-22T05:17:15.000Z</time>
      </trkpt>
      <trkpt lat="42.63162" lon="1.51407">
        <ele>1820.1999511719</ele>
        <time>2023-07-22T05:17:17.000Z</time>
      </trkpt>
      <trkpt lat="42.63159" lon="1.514">
        <ele>1821.1999511719</ele>
        <time>2023-07-22T05:17:23.000Z</time>
      </trkpt>
      <trkpt lat="42.63159" lon="1.51399">
        <ele>1821.4000244141</ele>
        <time>2023-07-22T05:17:24.000Z</time>
      </trkpt>
      <trkpt lat="42.63156" lon="1.51397">
        <ele>1822.4000244141</ele>
        <time>2023-07-22T05:17:30.000Z</time>
      </trkpt>
      <trkpt lat="42.63154" lon="1.51395">
        <ele>1822.8000488281</ele>
        <time>2023-07-22T05:17:33.000Z</time>
      </trkpt>
      <trkpt lat="42.63152" lon="1.51393">
        <ele>1823.4000244141</ele>
        <time>2023-07-22T05:17:38.000Z</time>
      </trkpt>
      <trkpt lat="42.63151" lon="1.51391">
        <ele>1824</ele>
        <time>2023-07-22T05:17:41.000Z</time>
      </trkpt>
      <trkpt lat="42.6315" lon="1.51389">
        <ele>1824.5999755859</ele>
        <time>2023-07-22T05:17:45.000Z</time>
      </trkpt>
      <trkpt lat="42.6315" lon="1.51386">
        <ele>1825</ele>
        <time>2023-07-22T05:17:48.000Z</time>
      </trkpt>
      <trkpt lat="42.6315" lon="1.5138">
        <ele>1825.8000488281</ele>
        <time>2023-07-22T05:17:53.000Z</time>
      </trkpt>
      <trkpt lat="42.6315" lon="1.51376">
        <ele>1826.4000244141</ele>
        <time>2023-07-22T05:17:56.000Z</time>
      </trkpt>
      <trkpt lat="42.6315" lon="1.51373">
        <ele>1826.8000488281</ele>
        <time>2023-07-22T05:17:59.000Z</time>
      </trkpt>
      <trkpt lat="42.6315" lon="1.51367">
        <ele>1827.5999755859</ele>
        <time>2023-07-22T05:18:04.000Z</time>
      </trkpt>
      <trkpt lat="42.63151" lon="1.51366">
        <ele>1828</ele>
        <time>2023-07-22T05:18:06.000Z</time>
      </trkpt>
      <trkpt lat="42.63154" lon="1.51362">
        <ele>1828.8000488281</ele>
        <time>2023-07-22T05:18:11.000Z</time>
      </trkpt>
      <trkpt lat="42.63154" lon="1.51361">
        <ele>1829</ele>
        <time>2023-07-22T05:18:13.000Z</time>
      </trkpt>
      <trkpt lat="42.63154" lon="1.51356">
        <ele>1829.5999755859</ele>
        <time>2023-07-22T05:18:18.000Z</time>
      </trkpt>
      <trkpt lat="42.63154" lon="1.51355">
        <ele>1830.1999511719</ele>
        <time>2023-07-22T05:18:21.000Z</time>
      </trkpt>
      <trkpt lat="42.63153" lon="1.51352">
        <ele>1831</ele>
        <time>2023-07-22T05:18:25.000Z</time>
      </trkpt>
      <trkpt lat="42.63153" lon="1.51351">
        <ele>1831.4000244141</ele>
        <time>2023-07-22T05:18:27.000Z</time>
      </trkpt>
      <trkpt lat="42.63153" lon="1.5135">
        <ele>1832.1999511719</ele>
        <time>2023-07-22T05:18:31.000Z</time>
      </trkpt>
      <trkpt lat="42.63153" lon="1.51348">
        <ele>1832.5999755859</ele>
        <time>2023-07-22T05:18:33.000Z</time>
      </trkpt>
      <trkpt lat="42.63155" lon="1.51343">
        <ele>1833.5999755859</ele>
        <time>2023-07-22T05:18:39.000Z</time>
      </trkpt>
      <trkpt lat="42.63156" lon="1.51343">
        <ele>1833.8000488281</ele>
        <time>2023-07-22T05:18:40.000Z</time>
      </trkpt>
      <trkpt lat="42.6316" lon="1.51342">
        <ele>1834.8000488281</ele>
        <time>2023-07-22T05:18:45.000Z</time>
      </trkpt>
      <trkpt lat="42.63163" lon="1.51341">
        <ele>1835.1999511719</ele>
        <time>2023-07-22T05:18:48.000Z</time>
      </trkpt>
      <trkpt lat="42.63164" lon="1.51341">
        <ele>1835.8000488281</ele>
        <time>2023-07-22T05:18:51.000Z</time>
      </trkpt>
      <trkpt lat="42.63165" lon="1.51338">
        <ele>1836.4000244141</ele>
        <time>2023-07-22T05:18:55.000Z</time>
      </trkpt>
      <trkpt lat="42.63165" lon="1.51336">
        <ele>1836.8000488281</ele>
        <time>2023-07-22T05:18:58.000Z</time>
      </trkpt>
      <trkpt lat="42.63164" lon="1.51332">
        <ele>1838</ele>
        <time>2023-07-22T05:19:03.000Z</time>
      </trkpt>
      <trkpt lat="42.63163" lon="1.51329">
        <ele>1838.4000244141</ele>
        <time>2023-07-22T05:19:05.000Z</time>
      </trkpt>
      <trkpt lat="42.63162" lon="1.51327">
        <ele>1839</ele>
        <time>2023-07-22T05:19:09.000Z</time>
      </trkpt>
      <trkpt lat="42.63162" lon="1.51325">
        <ele>1839.5999755859</ele>
        <time>2023-07-22T05:19:12.000Z</time>
      </trkpt>
      <trkpt lat="42.63162" lon="1.51323">
        <ele>1840.1999511719</ele>
        <time>2023-07-22T05:19:15.000Z</time>
      </trkpt>
      <trkpt lat="42.63162" lon="1.51318">
        <ele>1840.5999755859</ele>
        <time>2023-07-22T05:19:19.000Z</time>
      </trkpt>
      <trkpt lat="42.63161" lon="1.51314">
        <ele>1841.1999511719</ele>
        <time>2023-07-22T05:19:24.000Z</time>
      </trkpt>
      <trkpt lat="42.63161" lon="1.51311">
        <ele>1841.5999755859</ele>
        <time>2023-07-22T05:19:27.000Z</time>
      </trkpt>
      <trkpt lat="42.63161" lon="1.51304">
        <ele>1842.4000244141</ele>
        <time>2023-07-22T05:19:32.000Z</time>
      </trkpt>
      <trkpt lat="42.6316" lon="1.51301">
        <ele>1843</ele>
        <time>2023-07-22T05:19:36.000Z</time>
      </trkpt>
      <trkpt lat="42.6316" lon="1.513">
        <ele>1843.4000244141</ele>
        <time>2023-07-22T05:19:38.000Z</time>
      </trkpt>
      <trkpt lat="42.6316" lon="1.51294">
        <ele>1844.5999755859</ele>
        <time>2023-07-22T05:19:45.000Z</time>
      </trkpt>
      <trkpt lat="42.63161" lon="1.51291">
        <ele>1845.5999755859</ele>
        <time>2023-07-22T05:19:52.000Z</time>
      </trkpt>
      <trkpt lat="42.6316" lon="1.51293">
        <ele>1845.8000488281</ele>
        <time>2023-07-22T05:19:54.000Z</time>
      </trkpt>
      <trkpt lat="42.63156" lon="1.51304">
        <ele>1845.8000488281</ele>
        <time>2023-07-22T05:20:02.000Z</time>
      </trkpt>
      <trkpt lat="42.63155" lon="1.51303">
        <ele>1845.5999755859</ele>
        <time>2023-07-22T05:20:09.000Z</time>
      </trkpt>
      <trkpt lat="42.63157" lon="1.51301">
        <ele>1845.5999755859</ele>
        <time>2023-07-22T05:20:18.000Z</time>
      </trkpt>
      <trkpt lat="42.63161" lon="1.51298">
        <ele>1845.4000244141</ele>
        <time>2023-07-22T05:20:27.000Z</time>
      </trkpt>
      <trkpt lat="42.63161" lon="1.51292">
        <ele>1845.4000244141</ele>
        <time>2023-07-22T05:20:34.000Z</time>
      </trkpt>
      <trkpt lat="42.6316" lon="1.51283">
        <ele>1846.1999511719</ele>
        <time>2023-07-22T05:20:41.000Z</time>
      </trkpt>
      <trkpt lat="42.6316" lon="1.5128">
        <ele>1846.5999755859</ele>
        <time>2023-07-22T05:20:44.000Z</time>
      </trkpt>
      <trkpt lat="42.63159" lon="1.51273">
        <ele>1847.5999755859</ele>
        <time>2023-07-22T05:20:50.000Z</time>
      </trkpt>
      <trkpt lat="42.63159" lon="1.51272">
        <ele>1847.5999755859</ele>
        <time>2023-07-22T05:20:51.000Z</time>
      </trkpt>
      <trkpt lat="42.63159" lon="1.51262">
        <ele>1848.8000488281</ele>
        <time>2023-07-22T05:20:58.000Z</time>
      </trkpt>
      <trkpt lat="42.63161" lon="1.51246">
        <ele>1848.4000244141</ele>
        <time>2023-07-22T05:21:07.000Z</time>
      </trkpt>
      <trkpt lat="42.63164" lon="1.51232">
        <ele>1848.4000244141</ele>
        <time>2023-07-22T05:21:15.000Z</time>
      </trkpt>
      <trkpt lat="42.63166" lon="1.51225">
        <ele>1849.8000488281</ele>
        <time>2023-07-22T05:21:21.000Z</time>
      </trkpt>
      <trkpt lat="42.63166" lon="1.51224">
        <ele>1849.8000488281</ele>
        <time>2023-07-22T05:21:22.000Z</time>
      </trkpt>
      <trkpt lat="42.63167" lon="1.51217">
        <ele>1850.8000488281</ele>
        <time>2023-07-22T05:21:27.000Z</time>
      </trkpt>
      <trkpt lat="42.63169" lon="1.51212">
        <ele>1851.1999511719</ele>
        <time>2023-07-22T05:21:31.000Z</time>
      </trkpt>
      <trkpt lat="42.63174" lon="1.51202">
        <ele>1851.8000488281</ele>
        <time>2023-07-22T05:21:38.000Z</time>
      </trkpt>
      <trkpt lat="42.63174" lon="1.51201">
        <ele>1851.8000488281</ele>
        <time>2023-07-22T05:21:39.000Z</time>
      </trkpt>
      <trkpt lat="42.63174" lon="1.51201">
        <ele>1852</ele>
        <time>2023-07-22T05:21:42.000Z</time>
      </trkpt>
      <trkpt lat="42.63175" lon="1.51201">
        <ele>1852</ele>
        <time>2023-07-22T05:21:44.000Z</time>
      </trkpt>
      <trkpt lat="42.63175" lon="1.51201">
        <ele>1852</ele>
        <time>2023-07-22T05:21:45.000Z</time>
      </trkpt>
      <trkpt lat="42.63177" lon="1.51196">
        <ele>1852</ele>
        <time>2023-07-22T05:21:50.000Z</time>
      </trkpt>
      <trkpt lat="42.6318" lon="1.51187">
        <ele>1853</ele>
        <time>2023-07-22T05:21:58.000Z</time>
      </trkpt>
      <trkpt lat="42.63181" lon="1.51185">
        <ele>1853</ele>
        <time>2023-07-22T05:21:59.000Z</time>
      </trkpt>
      <trkpt lat="42.63184" lon="1.51177">
        <ele>1854.1999511719</ele>
        <time>2023-07-22T05:22:07.000Z</time>
      </trkpt>
      <trkpt lat="42.63184" lon="1.51176">
        <ele>1854.4000244141</ele>
        <time>2023-07-22T05:22:08.000Z</time>
      </trkpt>
      <trkpt lat="42.6319" lon="1.51168">
        <ele>1854.8000488281</ele>
        <time>2023-07-22T05:22:16.000Z</time>
      </trkpt>
      <trkpt lat="42.63189" lon="1.51169">
        <ele>1855.1999511719</ele>
        <time>2023-07-22T05:22:19.000Z</time>
      </trkpt>
      <trkpt lat="42.63187" lon="1.51168">
        <ele>1855.1999511719</ele>
        <time>2023-07-22T05:22:23.000Z</time>
      </trkpt>
      <trkpt lat="42.63184" lon="1.51165">
        <ele>1855.1999511719</ele>
        <time>2023-07-22T05:22:32.000Z</time>
      </trkpt>
      <trkpt lat="42.63183" lon="1.51167">
        <ele>1855</ele>
        <time>2023-07-22T05:22:41.000Z</time>
      </trkpt>
      <trkpt lat="42.63184" lon="1.51166">
        <ele>1854.8000488281</ele>
        <time>2023-07-22T05:22:55.000Z</time>
      </trkpt>
      <trkpt lat="42.63189" lon="1.51158">
        <ele>1854.8000488281</ele>
        <time>2023-07-22T05:23:02.000Z</time>
      </trkpt>
      <trkpt lat="42.63193" lon="1.51147">
        <ele>1854.1999511719</ele>
        <time>2023-07-22T05:23:10.000Z</time>
      </trkpt>
      <trkpt lat="42.63194" lon="1.51144">
        <ele>1854.1999511719</ele>
        <time>2023-07-22T05:23:12.000Z</time>
      </trkpt>
      <trkpt lat="42.63194" lon="1.51137">
        <ele>1853</ele>
        <time>2023-07-22T05:23:18.000Z</time>
      </trkpt>
      <trkpt lat="42.63194" lon="1.51135">
        <ele>1853</ele>
        <time>2023-07-22T05:23:19.000Z</time>
      </trkpt>
      <trkpt lat="42.63193" lon="1.51124">
        <ele>1852</ele>
        <time>2023-07-22T05:23:27.000Z</time>
      </trkpt>
      <trkpt lat="42.63202" lon="1.51111">
        <ele>1854.1999511719</ele>
        <time>2023-07-22T05:23:42.000Z</time>
      </trkpt>
      <trkpt lat="42.6321" lon="1.51103">
        <ele>1854.8000488281</ele>
        <time>2023-07-22T05:23:47.000Z</time>
      </trkpt>
      <trkpt lat="42.63211" lon="1.51104">
        <ele>1855</ele>
        <time>2023-07-22T05:23:48.000Z</time>
      </trkpt>
      <trkpt lat="42.63216" lon="1.51104">
        <ele>1855.1999511719</ele>
        <time>2023-07-22T05:23:50.000Z</time>
      </trkpt>
      <trkpt lat="42.63218" lon="1.51103">
        <ele>1855.4000244141</ele>
        <time>2023-07-22T05:23:52.000Z</time>
      </trkpt>
      <trkpt lat="42.63223" lon="1.51099">
        <ele>1856</ele>
        <time>2023-07-22T05:23:57.000Z</time>
      </trkpt>
      <trkpt lat="42.63223" lon="1.51099">
        <ele>1856.1999511719</ele>
        <time>2023-07-22T05:23:58.000Z</time>
      </trkpt>
      <trkpt lat="42.63227" lon="1.51095">
        <ele>1857.4000244141</ele>
        <time>2023-07-22T05:24:04.000Z</time>
      </trkpt>
      <trkpt lat="42.63228" lon="1.51094">
        <ele>1857.5999755859</ele>
        <time>2023-07-22T05:24:05.000Z</time>
      </trkpt>
      <trkpt lat="42.63232" lon="1.51093">
        <ele>1858.5999755859</ele>
        <time>2023-07-22T05:24:09.000Z</time>
      </trkpt>
      <trkpt lat="42.63233" lon="1.51093">
        <ele>1859</ele>
        <time>2023-07-22T05:24:11.000Z</time>
      </trkpt>
      <trkpt lat="42.63233" lon="1.51092">
        <ele>1859.5999755859</ele>
        <time>2023-07-22T05:24:13.000Z</time>
      </trkpt>
      <trkpt lat="42.63236" lon="1.51091">
        <ele>1860.5999755859</ele>
        <time>2023-07-22T05:24:19.000Z</time>
      </trkpt>
      <trkpt lat="42.63242" lon="1.51092">
        <ele>1861.8000488281</ele>
        <time>2023-07-22T05:24:26.000Z</time>
      </trkpt>
      <trkpt lat="42.63244" lon="1.51095">
        <ele>1862</ele>
        <time>2023-07-22T05:24:33.000Z</time>
      </trkpt>
      <trkpt lat="42.63242" lon="1.51097">
        <ele>1862</ele>
        <time>2023-07-22T05:24:42.000Z</time>
      </trkpt>
      <trkpt lat="42.63241" lon="1.51095">
        <ele>1861.8000488281</ele>
        <time>2023-07-22T05:24:48.000Z</time>
      </trkpt>
      <trkpt lat="42.63243" lon="1.51095">
        <ele>1861.5999755859</ele>
        <time>2023-07-22T05:24:59.000Z</time>
      </trkpt>
      <trkpt lat="42.63244" lon="1.51094">
        <ele>1861.4000244141</ele>
        <time>2023-07-22T05:25:05.000Z</time>
      </trkpt>
      <trkpt lat="42.63247" lon="1.51106">
        <ele>1862</ele>
        <time>2023-07-22T05:25:14.000Z</time>
      </trkpt>
      <trkpt lat="42.63247" lon="1.51117">
        <ele>1862.4000244141</ele>
        <time>2023-07-22T05:25:21.000Z</time>
      </trkpt>
      <trkpt lat="42.63241" lon="1.5113">
        <ele>1862.8000488281</ele>
        <time>2023-07-22T05:25:29.000Z</time>
      </trkpt>
      <trkpt lat="42.6324" lon="1.51142">
        <ele>1863.4000244141</ele>
        <time>2023-07-22T05:25:37.000Z</time>
      </trkpt>
      <trkpt lat="42.63243" lon="1.51151">
        <ele>1864</ele>
        <time>2023-07-22T05:25:44.000Z</time>
      </trkpt>
      <trkpt lat="42.63247" lon="1.51163">
        <ele>1864.4000244141</ele>
        <time>2023-07-22T05:25:51.000Z</time>
      </trkpt>
      <trkpt lat="42.63253" lon="1.51173">
        <ele>1864.5999755859</ele>
        <time>2023-07-22T05:25:58.000Z</time>
      </trkpt>
      <trkpt lat="42.63257" lon="1.51178">
        <ele>1865</ele>
        <time>2023-07-22T05:26:03.000Z</time>
      </trkpt>
      <trkpt lat="42.63261" lon="1.51181">
        <ele>1865.1999511719</ele>
        <time>2023-07-22T05:26:05.000Z</time>
      </trkpt>
      <trkpt lat="42.63269" lon="1.51185">
        <ele>1865.8000488281</ele>
        <time>2023-07-22T05:26:12.000Z</time>
      </trkpt>
      <trkpt lat="42.63272" lon="1.51186">
        <ele>1866.1999511719</ele>
        <time>2023-07-22T05:26:15.000Z</time>
      </trkpt>
      <trkpt lat="42.63278" lon="1.51186">
        <ele>1866.5999755859</ele>
        <time>2023-07-22T05:26:19.000Z</time>
      </trkpt>
      <trkpt lat="42.63281" lon="1.51185">
        <ele>1867.1999511719</ele>
        <time>2023-07-22T05:26:22.000Z</time>
      </trkpt>
      <trkpt lat="42.63286" lon="1.51182">
        <ele>1867.8000488281</ele>
        <time>2023-07-22T05:26:26.000Z</time>
      </trkpt>
      <trkpt lat="42.63291" lon="1.51179">
        <ele>1868.1999511719</ele>
        <time>2023-07-22T05:26:30.000Z</time>
      </trkpt>
      <trkpt lat="42.63295" lon="1.51177">
        <ele>1869</ele>
        <time>2023-07-22T05:26:34.000Z</time>
      </trkpt>
      <trkpt lat="42.63301" lon="1.51173">
        <ele>1869.4000244141</ele>
        <time>2023-07-22T05:26:38.000Z</time>
      </trkpt>
      <trkpt lat="42.63304" lon="1.51171">
        <ele>1869.5999755859</ele>
        <time>2023-07-22T05:26:40.000Z</time>
      </trkpt>
      <trkpt lat="42.63309" lon="1.51167">
        <ele>1870.1999511719</ele>
        <time>2023-07-22T05:26:46.000Z</time>
      </trkpt>
      <trkpt lat="42.63312" lon="1.51167">
        <ele>1870.4000244141</ele>
        <time>2023-07-22T05:26:48.000Z</time>
      </trkpt>
      <trkpt lat="42.63317" lon="1.51163">
        <ele>1871</ele>
        <time>2023-07-22T05:26:53.000Z</time>
      </trkpt>
      <trkpt lat="42.63321" lon="1.51159">
        <ele>1871.5999755859</ele>
        <time>2023-07-22T05:26:57.000Z</time>
      </trkpt>
      <trkpt lat="42.63321" lon="1.51156">
        <ele>1872</ele>
        <time>2023-07-22T05:27:00.000Z</time>
      </trkpt>
      <trkpt lat="42.63324" lon="1.5115">
        <ele>1872.5999755859</ele>
        <time>2023-07-22T05:27:05.000Z</time>
      </trkpt>
      <trkpt lat="42.63324" lon="1.5115">
        <ele>1872.8000488281</ele>
        <time>2023-07-22T05:27:06.000Z</time>
      </trkpt>
      <trkpt lat="42.63322" lon="1.5115">
        <ele>1873.1999511719</ele>
        <time>2023-07-22T05:27:11.000Z</time>
      </trkpt>
      <trkpt lat="42.63322" lon="1.5115">
        <ele>1873.1999511719</ele>
        <time>2023-07-22T05:27:13.000Z</time>
      </trkpt>
      <trkpt lat="42.63323" lon="1.51149">
        <ele>1873.1999511719</ele>
        <time>2023-07-22T05:27:14.000Z</time>
      </trkpt>
      <trkpt lat="42.63325" lon="1.51152">
        <ele>1873.1999511719</ele>
        <time>2023-07-22T05:27:19.000Z</time>
      </trkpt>
      <trkpt lat="42.63325" lon="1.51152">
        <ele>1873.1999511719</ele>
        <time>2023-07-22T05:27:20.000Z</time>
      </trkpt>
      <trkpt lat="42.63327" lon="1.51148">
        <ele>1873.1999511719</ele>
        <time>2023-07-22T05:27:29.000Z</time>
      </trkpt>
      <trkpt lat="42.63326" lon="1.51144">
        <ele>1873.4000244141</ele>
        <time>2023-07-22T05:27:36.000Z</time>
      </trkpt>
      <trkpt lat="42.63325" lon="1.51142">
        <ele>1873.5999755859</ele>
        <time>2023-07-22T05:27:47.000Z</time>
      </trkpt>
      <trkpt lat="42.63325" lon="1.51143">
        <ele>1873.5999755859</ele>
        <time>2023-07-22T05:27:57.000Z</time>
      </trkpt>
      <trkpt lat="42.63325" lon="1.51143">
        <ele>1873.5999755859</ele>
        <time>2023-07-22T05:27:58.000Z</time>
      </trkpt>
      <trkpt lat="42.63325" lon="1.51145">
        <ele>1873.8000488281</ele>
        <time>2023-07-22T05:28:06.000Z</time>
      </trkpt>
      <trkpt lat="42.63325" lon="1.5115">
        <ele>1873.8000488281</ele>
        <time>2023-07-22T05:28:13.000Z</time>
      </trkpt>
      <trkpt lat="42.63325" lon="1.51144">
        <ele>1873.8000488281</ele>
        <time>2023-07-22T05:28:17.000Z</time>
      </trkpt>
      <trkpt lat="42.63326" lon="1.51135">
        <ele>1874.1999511719</ele>
        <time>2023-07-22T05:28:22.000Z</time>
      </trkpt>
      <trkpt lat="42.63324" lon="1.51132">
        <ele>1874.5999755859</ele>
        <time>2023-07-22T05:28:29.000Z</time>
      </trkpt>
      <trkpt lat="42.63324" lon="1.51127">
        <ele>1874.5999755859</ele>
        <time>2023-07-22T05:28:39.000Z</time>
      </trkpt>
      <trkpt lat="42.63325" lon="1.51129">
        <ele>1874.8000488281</ele>
        <time>2023-07-22T05:28:47.000Z</time>
      </trkpt>
      <trkpt lat="42.63326" lon="1.5112">
        <ele>1875.4000244141</ele>
        <time>2023-07-22T05:28:54.000Z</time>
      </trkpt>
      <trkpt lat="42.63326" lon="1.51115">
        <ele>1875.5999755859</ele>
        <time>2023-07-22T05:28:56.000Z</time>
      </trkpt>
      <trkpt lat="42.63326" lon="1.51104">
        <ele>1876.1999511719</ele>
        <time>2023-07-22T05:29:02.000Z</time>
      </trkpt>
      <trkpt lat="42.63326" lon="1.51096">
        <ele>1876.8000488281</ele>
        <time>2023-07-22T05:29:06.000Z</time>
      </trkpt>
      <trkpt lat="42.63326" lon="1.51091">
        <ele>1877.1999511719</ele>
        <time>2023-07-22T05:29:09.000Z</time>
      </trkpt>
      <trkpt lat="42.63326" lon="1.5108">
        <ele>1877.8000488281</ele>
        <time>2023-07-22T05:29:16.000Z</time>
      </trkpt>
      <trkpt lat="42.63327" lon="1.51077">
        <ele>1878.1999511719</ele>
        <time>2023-07-22T05:29:18.000Z</time>
      </trkpt>
      <trkpt lat="42.63327" lon="1.51067">
        <ele>1878.8000488281</ele>
        <time>2023-07-22T05:29:24.000Z</time>
      </trkpt>
      <trkpt lat="42.63327" lon="1.51061">
        <ele>1879</ele>
        <time>2023-07-22T05:29:27.000Z</time>
      </trkpt>
      <trkpt lat="42.63328" lon="1.51056">
        <ele>1879.5999755859</ele>
        <time>2023-07-22T05:29:33.000Z</time>
      </trkpt>
      <trkpt lat="42.63328" lon="1.51051">
        <ele>1880</ele>
        <time>2023-07-22T05:29:36.000Z</time>
      </trkpt>
      <trkpt lat="42.63328" lon="1.51044">
        <ele>1880.5999755859</ele>
        <time>2023-07-22T05:29:40.000Z</time>
      </trkpt>
      <trkpt lat="42.63328" lon="1.5104">
        <ele>1881</ele>
        <time>2023-07-22T05:29:42.000Z</time>
      </trkpt>
      <trkpt lat="42.63327" lon="1.51028">
        <ele>1881.8000488281</ele>
        <time>2023-07-22T05:29:48.000Z</time>
      </trkpt>
      <trkpt lat="42.63327" lon="1.51025">
        <ele>1882.1999511719</ele>
        <time>2023-07-22T05:29:50.000Z</time>
      </trkpt>
      <trkpt lat="42.63326" lon="1.51017">
        <ele>1883</ele>
        <time>2023-07-22T05:29:55.000Z</time>
      </trkpt>
      <trkpt lat="42.63326" lon="1.51012">
        <ele>1883.1999511719</ele>
        <time>2023-07-22T05:29:59.000Z</time>
      </trkpt>
      <trkpt lat="42.63326" lon="1.51008">
        <ele>1883.5999755859</ele>
        <time>2023-07-22T05:30:02.000Z</time>
      </trkpt>
      <trkpt lat="42.63327" lon="1.50997">
        <ele>1884.1999511719</ele>
        <time>2023-07-22T05:30:07.000Z</time>
      </trkpt>
      <trkpt lat="42.63327" lon="1.50995">
        <ele>1884.4000244141</ele>
        <time>2023-07-22T05:30:08.000Z</time>
      </trkpt>
      <trkpt lat="42.63328" lon="1.50986">
        <ele>1885.1999511719</ele>
        <time>2023-07-22T05:30:14.000Z</time>
      </trkpt>
      <trkpt lat="42.63328" lon="1.50984">
        <ele>1885.1999511719</ele>
        <time>2023-07-22T05:30:15.000Z</time>
      </trkpt>
      <trkpt lat="42.63331" lon="1.50973">
        <ele>1886</ele>
        <time>2023-07-22T05:30:22.000Z</time>
      </trkpt>
      <trkpt lat="42.63334" lon="1.50968">
        <ele>1886.4000244141</ele>
        <time>2023-07-22T05:30:26.000Z</time>
      </trkpt>
      <trkpt lat="42.63335" lon="1.50962">
        <ele>1886.8000488281</ele>
        <time>2023-07-22T05:30:30.000Z</time>
      </trkpt>
      <trkpt lat="42.63332" lon="1.50955">
        <ele>1887</ele>
        <time>2023-07-22T05:30:38.000Z</time>
      </trkpt>
      <trkpt lat="42.63331" lon="1.50954">
        <ele>1887</ele>
        <time>2023-07-22T05:30:41.000Z</time>
      </trkpt>
      <trkpt lat="42.6333" lon="1.50955">
        <ele>1887</ele>
        <time>2023-07-22T05:30:47.000Z</time>
      </trkpt>
      <trkpt lat="42.63333" lon="1.50951">
        <ele>1887.1999511719</ele>
        <time>2023-07-22T05:30:54.000Z</time>
      </trkpt>
      <trkpt lat="42.63334" lon="1.50946">
        <ele>1887.5999755859</ele>
        <time>2023-07-22T05:30:57.000Z</time>
      </trkpt>
      <trkpt lat="42.63336" lon="1.50942">
        <ele>1888</ele>
        <time>2023-07-22T05:31:00.000Z</time>
      </trkpt>
      <trkpt lat="42.63338" lon="1.50936">
        <ele>1888.5999755859</ele>
        <time>2023-07-22T05:31:05.000Z</time>
      </trkpt>
      <trkpt lat="42.63339" lon="1.50934">
        <ele>1889</ele>
        <time>2023-07-22T05:31:07.000Z</time>
      </trkpt>
      <trkpt lat="42.63344" lon="1.50925">
        <ele>1889.8000488281</ele>
        <time>2023-07-22T05:31:14.000Z</time>
      </trkpt>
      <trkpt lat="42.63345" lon="1.50922">
        <ele>1890</ele>
        <time>2023-07-22T05:31:16.000Z</time>
      </trkpt>
      <trkpt lat="42.6335" lon="1.50908">
        <ele>1890.8000488281</ele>
        <time>2023-07-22T05:31:25.000Z</time>
      </trkpt>
      <trkpt lat="42.63355" lon="1.50898">
        <ele>1891.5999755859</ele>
        <time>2023-07-22T05:31:32.000Z</time>
      </trkpt>
      <trkpt lat="42.63355" lon="1.50896">
        <ele>1891.8000488281</ele>
        <time>2023-07-22T05:31:33.000Z</time>
      </trkpt>
      <trkpt lat="42.63358" lon="1.50886">
        <ele>1892.5999755859</ele>
        <time>2023-07-22T05:31:39.000Z</time>
      </trkpt>
      <trkpt lat="42.6336" lon="1.5088">
        <ele>1893</ele>
        <time>2023-07-22T05:31:42.000Z</time>
      </trkpt>
      <trkpt lat="42.63362" lon="1.50874">
        <ele>1893.4000244141</ele>
        <time>2023-07-22T05:31:47.000Z</time>
      </trkpt>
      <trkpt lat="42.63365" lon="1.50869">
        <ele>1894</ele>
        <time>2023-07-22T05:31:51.000Z</time>
      </trkpt>
      <trkpt lat="42.63368" lon="1.50864">
        <ele>1894.4000244141</ele>
        <time>2023-07-22T05:31:54.000Z</time>
      </trkpt>
      <trkpt lat="42.6337" lon="1.50856">
        <ele>1895.1999511719</ele>
        <time>2023-07-22T05:32:00.000Z</time>
      </trkpt>
      <trkpt lat="42.63371" lon="1.50855">
        <ele>1895.1999511719</ele>
        <time>2023-07-22T05:32:01.000Z</time>
      </trkpt>
      <trkpt lat="42.63374" lon="1.50846">
        <ele>1896.1999511719</ele>
        <time>2023-07-22T05:32:07.000Z</time>
      </trkpt>
      <trkpt lat="42.63378" lon="1.50836">
        <ele>1897</ele>
        <time>2023-07-22T05:32:14.000Z</time>
      </trkpt>
      <trkpt lat="42.6338" lon="1.50833">
        <ele>1897.1999511719</ele>
        <time>2023-07-22T05:32:16.000Z</time>
      </trkpt>
      <trkpt lat="42.63382" lon="1.50824">
        <ele>1898</ele>
        <time>2023-07-22T05:32:21.000Z</time>
      </trkpt>
      <trkpt lat="42.63383" lon="1.50818">
        <ele>1898.4000244141</ele>
        <time>2023-07-22T05:32:25.000Z</time>
      </trkpt>
      <trkpt lat="42.63384" lon="1.50812">
        <ele>1898.5999755859</ele>
        <time>2023-07-22T05:32:28.000Z</time>
      </trkpt>
      <trkpt lat="42.63385" lon="1.50802">
        <ele>1899.4000244141</ele>
        <time>2023-07-22T05:32:34.000Z</time>
      </trkpt>
      <trkpt lat="42.63385" lon="1.50799">
        <ele>1899.5999755859</ele>
        <time>2023-07-22T05:32:36.000Z</time>
      </trkpt>
      <trkpt lat="42.63386" lon="1.50788">
        <ele>1900.4000244141</ele>
        <time>2023-07-22T05:32:43.000Z</time>
      </trkpt>
      <trkpt lat="42.63386" lon="1.50776">
        <ele>1901.4000244141</ele>
        <time>2023-07-22T05:32:50.000Z</time>
      </trkpt>
      <trkpt lat="42.63385" lon="1.50774">
        <ele>1901.5999755859</ele>
        <time>2023-07-22T05:32:51.000Z</time>
      </trkpt>
      <trkpt lat="42.63386" lon="1.50762">
        <ele>1902.5999755859</ele>
        <time>2023-07-22T05:32:57.000Z</time>
      </trkpt>
      <trkpt lat="42.63387" lon="1.50748">
        <ele>1903.4000244141</ele>
        <time>2023-07-22T05:33:04.000Z</time>
      </trkpt>
      <trkpt lat="42.63387" lon="1.50745">
        <ele>1903.8000488281</ele>
        <time>2023-07-22T05:33:06.000Z</time>
      </trkpt>
      <trkpt lat="42.63389" lon="1.50736">
        <ele>1904.4000244141</ele>
        <time>2023-07-22T05:33:11.000Z</time>
      </trkpt>
      <trkpt lat="42.6339" lon="1.5073">
        <ele>1904.8000488281</ele>
        <time>2023-07-22T05:33:14.000Z</time>
      </trkpt>
      <trkpt lat="42.63392" lon="1.50727">
        <ele>1905</ele>
        <time>2023-07-22T05:33:17.000Z</time>
      </trkpt>
      <trkpt lat="42.63395" lon="1.50718">
        <ele>1905.8000488281</ele>
        <time>2023-07-22T05:33:23.000Z</time>
      </trkpt>
      <trkpt lat="42.63396" lon="1.50717">
        <ele>1906</ele>
        <time>2023-07-22T05:33:24.000Z</time>
      </trkpt>
      <trkpt lat="42.63397" lon="1.50712">
        <ele>1906.4000244141</ele>
        <time>2023-07-22T05:33:28.000Z</time>
      </trkpt>
      <trkpt lat="42.63398" lon="1.50708">
        <ele>1906.8000488281</ele>
        <time>2023-07-22T05:33:35.000Z</time>
      </trkpt>
      <trkpt lat="42.63399" lon="1.50699">
        <ele>1907.1999511719</ele>
        <time>2023-07-22T05:33:40.000Z</time>
      </trkpt>
      <trkpt lat="42.634" lon="1.50692">
        <ele>1907.8000488281</ele>
        <time>2023-07-22T05:33:45.000Z</time>
      </trkpt>
      <trkpt lat="42.63401" lon="1.50683">
        <ele>1908.1999511719</ele>
        <time>2023-07-22T05:33:50.000Z</time>
      </trkpt>
      <trkpt lat="42.63401" lon="1.50681">
        <ele>1908.4000244141</ele>
        <time>2023-07-22T05:33:52.000Z</time>
      </trkpt>
      <trkpt lat="42.63401" lon="1.50673">
        <ele>1909.1999511719</ele>
        <time>2023-07-22T05:33:58.000Z</time>
      </trkpt>
      <trkpt lat="42.63401" lon="1.50669">
        <ele>1909.4000244141</ele>
        <time>2023-07-22T05:34:00.000Z</time>
      </trkpt>
      <trkpt lat="42.63401" lon="1.50664">
        <ele>1909.8000488281</ele>
        <time>2023-07-22T05:34:04.000Z</time>
      </trkpt>
      <trkpt lat="42.63401" lon="1.50656">
        <ele>1910.5999755859</ele>
        <time>2023-07-22T05:34:09.000Z</time>
      </trkpt>
      <trkpt lat="42.634" lon="1.50655">
        <ele>1910.5999755859</ele>
        <time>2023-07-22T05:34:10.000Z</time>
      </trkpt>
      <trkpt lat="42.63399" lon="1.50643">
        <ele>1911.4000244141</ele>
        <time>2023-07-22T05:34:17.000Z</time>
      </trkpt>
      <trkpt lat="42.63399" lon="1.50641">
        <ele>1911.5999755859</ele>
        <time>2023-07-22T05:34:18.000Z</time>
      </trkpt>
      <trkpt lat="42.63398" lon="1.50631">
        <ele>1912.5999755859</ele>
        <time>2023-07-22T05:34:24.000Z</time>
      </trkpt>
      <trkpt lat="42.63397" lon="1.5063">
        <ele>1912.5999755859</ele>
        <time>2023-07-22T05:34:25.000Z</time>
      </trkpt>
      <trkpt lat="42.63396" lon="1.50621">
        <ele>1913.4000244141</ele>
        <time>2023-07-22T05:34:31.000Z</time>
      </trkpt>
      <trkpt lat="42.63396" lon="1.50617">
        <ele>1913.8000488281</ele>
        <time>2023-07-22T05:34:34.000Z</time>
      </trkpt>
      <trkpt lat="42.63396" lon="1.5061">
        <ele>1914.1999511719</ele>
        <time>2023-07-22T05:34:38.000Z</time>
      </trkpt>
      <trkpt lat="42.63395" lon="1.50601">
        <ele>1914.8000488281</ele>
        <time>2023-07-22T05:34:43.000Z</time>
      </trkpt>
      <trkpt lat="42.63395" lon="1.50597">
        <ele>1915.1999511719</ele>
        <time>2023-07-22T05:34:45.000Z</time>
      </trkpt>
      <trkpt lat="42.63395" lon="1.50587">
        <ele>1916</ele>
        <time>2023-07-22T05:34:53.000Z</time>
      </trkpt>
      <trkpt lat="42.63395" lon="1.50577">
        <ele>1916.5999755859</ele>
        <time>2023-07-22T05:35:00.000Z</time>
      </trkpt>
      <trkpt lat="42.63395" lon="1.5057">
        <ele>1917</ele>
        <time>2023-07-22T05:35:04.000Z</time>
      </trkpt>
      <trkpt lat="42.63396" lon="1.50563">
        <ele>1917.4000244141</ele>
        <time>2023-07-22T05:35:08.000Z</time>
      </trkpt>
      <trkpt lat="42.63398" lon="1.50553">
        <ele>1918</ele>
        <time>2023-07-22T05:35:15.000Z</time>
      </trkpt>
      <trkpt lat="42.63398" lon="1.50539">
        <ele>1919</ele>
        <time>2023-07-22T05:35:22.000Z</time>
      </trkpt>
      <trkpt lat="42.63397" lon="1.50537">
        <ele>1919</ele>
        <time>2023-07-22T05:35:23.000Z</time>
      </trkpt>
      <trkpt lat="42.63397" lon="1.50525">
        <ele>1919.8000488281</ele>
        <time>2023-07-22T05:35:30.000Z</time>
      </trkpt>
      <trkpt lat="42.63396" lon="1.50521">
        <ele>1920</ele>
        <time>2023-07-22T05:35:34.000Z</time>
      </trkpt>
      <trkpt lat="42.63396" lon="1.50518">
        <ele>1920.5999755859</ele>
        <time>2023-07-22T05:35:37.000Z</time>
      </trkpt>
      <trkpt lat="42.63396" lon="1.50509">
        <ele>1921.1999511719</ele>
        <time>2023-07-22T05:35:43.000Z</time>
      </trkpt>
      <trkpt lat="42.63396" lon="1.50508">
        <ele>1921.4000244141</ele>
        <time>2023-07-22T05:35:44.000Z</time>
      </trkpt>
      <trkpt lat="42.63394" lon="1.50495">
        <ele>1922.1999511719</ele>
        <time>2023-07-22T05:35:52.000Z</time>
      </trkpt>
      <trkpt lat="42.63392" lon="1.50483">
        <ele>1923.1999511719</ele>
        <time>2023-07-22T05:36:01.000Z</time>
      </trkpt>
      <trkpt lat="42.63387" lon="1.50467">
        <ele>1924.4000244141</ele>
        <time>2023-07-22T05:36:10.000Z</time>
      </trkpt>
      <trkpt lat="42.63385" lon="1.5046">
        <ele>1925.1999511719</ele>
        <time>2023-07-22T05:36:16.000Z</time>
      </trkpt>
      <trkpt lat="42.63384" lon="1.50458">
        <ele>1925.4000244141</ele>
        <time>2023-07-22T05:36:17.000Z</time>
      </trkpt>
      <trkpt lat="42.63381" lon="1.50445">
        <ele>1926.1999511719</ele>
        <time>2023-07-22T05:36:24.000Z</time>
      </trkpt>
      <trkpt lat="42.6338" lon="1.50441">
        <ele>1926.4000244141</ele>
        <time>2023-07-22T05:36:26.000Z</time>
      </trkpt>
      <trkpt lat="42.63377" lon="1.50434">
        <ele>1927</ele>
        <time>2023-07-22T05:36:31.000Z</time>
      </trkpt>
      <trkpt lat="42.63375" lon="1.50427">
        <ele>1927.4000244141</ele>
        <time>2023-07-22T05:36:36.000Z</time>
      </trkpt>
      <trkpt lat="42.63375" lon="1.50425">
        <ele>1927.8000488281</ele>
        <time>2023-07-22T05:36:37.000Z</time>
      </trkpt>
      <trkpt lat="42.63373" lon="1.50417">
        <ele>1928.5999755859</ele>
        <time>2023-07-22T05:36:43.000Z</time>
      </trkpt>
      <trkpt lat="42.63372" lon="1.50414">
        <ele>1928.8000488281</ele>
        <time>2023-07-22T05:36:44.000Z</time>
      </trkpt>
      <trkpt lat="42.63369" lon="1.50403">
        <ele>1929.5999755859</ele>
        <time>2023-07-22T05:36:51.000Z</time>
      </trkpt>
      <trkpt lat="42.63366" lon="1.5039">
        <ele>1930.5999755859</ele>
        <time>2023-07-22T05:36:58.000Z</time>
      </trkpt>
      <trkpt lat="42.63366" lon="1.50389">
        <ele>1930.8000488281</ele>
        <time>2023-07-22T05:36:59.000Z</time>
      </trkpt>
      <trkpt lat="42.63366" lon="1.50375">
        <ele>1931.8000488281</ele>
        <time>2023-07-22T05:37:07.000Z</time>
      </trkpt>
      <trkpt lat="42.63365" lon="1.50373">
        <ele>1931.8000488281</ele>
        <time>2023-07-22T05:37:08.000Z</time>
      </trkpt>
      <trkpt lat="42.63364" lon="1.50362">
        <ele>1932.8000488281</ele>
        <time>2023-07-22T05:37:15.000Z</time>
      </trkpt>
      <trkpt lat="42.63363" lon="1.50358">
        <ele>1933.1999511719</ele>
        <time>2023-07-22T05:37:17.000Z</time>
      </trkpt>
      <trkpt lat="42.63363" lon="1.50352">
        <ele>1933.5999755859</ele>
        <time>2023-07-22T05:37:21.000Z</time>
      </trkpt>
      <trkpt lat="42.63363" lon="1.50344">
        <ele>1934.1999511719</ele>
        <time>2023-07-22T05:37:26.000Z</time>
      </trkpt>
      <trkpt lat="42.63362" lon="1.5034">
        <ele>1934.4000244141</ele>
        <time>2023-07-22T05:37:28.000Z</time>
      </trkpt>
      <trkpt lat="42.63361" lon="1.5033">
        <ele>1935.1999511719</ele>
        <time>2023-07-22T05:37:34.000Z</time>
      </trkpt>
      <trkpt lat="42.6336" lon="1.50327">
        <ele>1935.4000244141</ele>
        <time>2023-07-22T05:37:36.000Z</time>
      </trkpt>
      <trkpt lat="42.6336" lon="1.50313">
        <ele>1936.1999511719</ele>
        <time>2023-07-22T05:37:44.000Z</time>
      </trkpt>
      <trkpt lat="42.6336" lon="1.50312">
        <ele>1936.4000244141</ele>
        <time>2023-07-22T05:37:45.000Z</time>
      </trkpt>
      <trkpt lat="42.63359" lon="1.50304">
        <ele>1936.8000488281</ele>
        <time>2023-07-22T05:37:50.000Z</time>
      </trkpt>
      <trkpt lat="42.63359" lon="1.50299">
        <ele>1937.4000244141</ele>
        <time>2023-07-22T05:37:53.000Z</time>
      </trkpt>
      <trkpt lat="42.63359" lon="1.50295">
        <ele>1937.5999755859</ele>
        <time>2023-07-22T05:37:56.000Z</time>
      </trkpt>
      <trkpt lat="42.63359" lon="1.50284">
        <ele>1938.5999755859</ele>
        <time>2023-07-22T05:38:03.000Z</time>
      </trkpt>
      <trkpt lat="42.6336" lon="1.50274">
        <ele>1939.1999511719</ele>
        <time>2023-07-22T05:38:09.000Z</time>
      </trkpt>
      <trkpt lat="42.6336" lon="1.50267">
        <ele>1939.5999755859</ele>
        <time>2023-07-22T05:38:12.000Z</time>
      </trkpt>
      <trkpt lat="42.63358" lon="1.5026">
        <ele>1940.1999511719</ele>
        <time>2023-07-22T05:38:17.000Z</time>
      </trkpt>
      <trkpt lat="42.63356" lon="1.5025">
        <ele>1940.8000488281</ele>
        <time>2023-07-22T05:38:22.000Z</time>
      </trkpt>
      <trkpt lat="42.63355" lon="1.50248">
        <ele>1940.8000488281</ele>
        <time>2023-07-22T05:38:23.000Z</time>
      </trkpt>
      <trkpt lat="42.63352" lon="1.50235">
        <ele>1941.8000488281</ele>
        <time>2023-07-22T05:38:31.000Z</time>
      </trkpt>
      <trkpt lat="42.63348" lon="1.50227">
        <ele>1942.4000244141</ele>
        <time>2023-07-22T05:38:38.000Z</time>
      </trkpt>
      <trkpt lat="42.63348" lon="1.50222">
        <ele>1942.8000488281</ele>
        <time>2023-07-22T05:38:42.000Z</time>
      </trkpt>
      <trkpt lat="42.63345" lon="1.50216">
        <ele>1943.1999511719</ele>
        <time>2023-07-22T05:38:45.000Z</time>
      </trkpt>
      <trkpt lat="42.63344" lon="1.50208">
        <ele>1944</ele>
        <time>2023-07-22T05:38:51.000Z</time>
      </trkpt>
      <trkpt lat="42.63344" lon="1.50208">
        <ele>1944</ele>
        <time>2023-07-22T05:38:52.000Z</time>
      </trkpt>
      <trkpt lat="42.63345" lon="1.50209">
        <ele>1944.4000244141</ele>
        <time>2023-07-22T05:39:00.000Z</time>
      </trkpt>
      <trkpt lat="42.63345" lon="1.50209">
        <ele>1944.4000244141</ele>
        <time>2023-07-22T05:39:01.000Z</time>
      </trkpt>
      <trkpt lat="42.63343" lon="1.50207">
        <ele>1944.5999755859</ele>
        <time>2023-07-22T05:39:06.000Z</time>
      </trkpt>
      <trkpt lat="42.63345" lon="1.50205">
        <ele>1944.5999755859</ele>
        <time>2023-07-22T05:39:13.000Z</time>
      </trkpt>
      <trkpt lat="42.63347" lon="1.50205">
        <ele>1944.5999755859</ele>
        <time>2023-07-22T05:39:23.000Z</time>
      </trkpt>
      <trkpt lat="42.63347" lon="1.50204">
        <ele>1944.5999755859</ele>
        <time>2023-07-22T05:39:33.000Z</time>
      </trkpt>
      <trkpt lat="42.63346" lon="1.50206">
        <ele>1944.4000244141</ele>
        <time>2023-07-22T05:39:43.000Z</time>
      </trkpt>
      <trkpt lat="42.63347" lon="1.50206">
        <ele>1944.4000244141</ele>
        <time>2023-07-22T05:39:53.000Z</time>
      </trkpt>
      <trkpt lat="42.63347" lon="1.50208">
        <ele>1944.1999511719</ele>
        <time>2023-07-22T05:40:04.000Z</time>
      </trkpt>
      <trkpt lat="42.63346" lon="1.50205">
        <ele>1944.1999511719</ele>
        <time>2023-07-22T05:40:13.000Z</time>
      </trkpt>
      <trkpt lat="42.63346" lon="1.50206">
        <ele>1944</ele>
        <time>2023-07-22T05:40:20.000Z</time>
      </trkpt>
      <trkpt lat="42.63345" lon="1.50205">
        <ele>1944</ele>
        <time>2023-07-22T05:40:30.000Z</time>
      </trkpt>
      <trkpt lat="42.63345" lon="1.50204">
        <ele>1943.8000488281</ele>
        <time>2023-07-22T05:40:37.000Z</time>
      </trkpt>
      <trkpt lat="42.63341" lon="1.50196">
        <ele>1944.1999511719</ele>
        <time>2023-07-22T05:40:42.000Z</time>
      </trkpt>
      <trkpt lat="42.63335" lon="1.50188">
        <ele>1944.8000488281</ele>
        <time>2023-07-22T05:40:49.000Z</time>
      </trkpt>
      <trkpt lat="42.63335" lon="1.50185">
        <ele>1945</ele>
        <time>2023-07-22T05:40:51.000Z</time>
      </trkpt>
      <trkpt lat="42.63332" lon="1.50176">
        <ele>1945.5999755859</ele>
        <time>2023-07-22T05:40:55.000Z</time>
      </trkpt>
      <trkpt lat="42.63331" lon="1.50171">
        <ele>1946.1999511719</ele>
        <time>2023-07-22T05:41:00.000Z</time>
      </trkpt>
      <trkpt lat="42.6333" lon="1.50169">
        <ele>1946.1999511719</ele>
        <time>2023-07-22T05:41:01.000Z</time>
      </trkpt>
      <trkpt lat="42.63328" lon="1.5016">
        <ele>1947</ele>
        <time>2023-07-22T05:41:08.000Z</time>
      </trkpt>
      <trkpt lat="42.63328" lon="1.50157">
        <ele>1947.1999511719</ele>
        <time>2023-07-22T05:41:10.000Z</time>
      </trkpt>
      <trkpt lat="42.63327" lon="1.50147">
        <ele>1947.5999755859</ele>
        <time>2023-07-22T05:41:14.000Z</time>
      </trkpt>
      <trkpt lat="42.63326" lon="1.50144">
        <ele>1948.1999511719</ele>
        <time>2023-07-22T05:41:18.000Z</time>
      </trkpt>
      <trkpt lat="42.63326" lon="1.50142">
        <ele>1948.1999511719</ele>
        <time>2023-07-22T05:41:19.000Z</time>
      </trkpt>
      <trkpt lat="42.63324" lon="1.50133">
        <ele>1948.5999755859</ele>
        <time>2023-07-22T05:41:24.000Z</time>
      </trkpt>
      <trkpt lat="42.63322" lon="1.50127">
        <ele>1949.1999511719</ele>
        <time>2023-07-22T05:41:29.000Z</time>
      </trkpt>
      <trkpt lat="42.63321" lon="1.50123">
        <ele>1949.4000244141</ele>
        <time>2023-07-22T05:41:32.000Z</time>
      </trkpt>
      <trkpt lat="42.63321" lon="1.50122">
        <ele>1949.5999755859</ele>
        <time>2023-07-22T05:41:36.000Z</time>
      </trkpt>
      <trkpt lat="42.63321" lon="1.50122">
        <ele>1950</ele>
        <time>2023-07-22T05:41:38.000Z</time>
      </trkpt>
      <trkpt lat="42.6332" lon="1.50122">
        <ele>1950</ele>
        <time>2023-07-22T05:41:42.000Z</time>
      </trkpt>
      <trkpt lat="42.63319" lon="1.5012">
        <ele>1950</ele>
        <time>2023-07-22T05:41:46.000Z</time>
      </trkpt>
      <trkpt lat="42.63321" lon="1.5012">
        <ele>1949.8000488281</ele>
        <time>2023-07-22T05:41:54.000Z</time>
      </trkpt>
      <trkpt lat="42.63318" lon="1.50118">
        <ele>1950</ele>
        <time>2023-07-22T05:42:01.000Z</time>
      </trkpt>
      <trkpt lat="42.63315" lon="1.50109">
        <ele>1950.4000244141</ele>
        <time>2023-07-22T05:42:06.000Z</time>
      </trkpt>
      <trkpt lat="42.63314" lon="1.50104">
        <ele>1950.8000488281</ele>
        <time>2023-07-22T05:42:08.000Z</time>
      </trkpt>
      <trkpt lat="42.63312" lon="1.50095">
        <ele>1951.4000244141</ele>
        <time>2023-07-22T05:42:14.000Z</time>
      </trkpt>
      <trkpt lat="42.63309" lon="1.50085">
        <ele>1952.1999511719</ele>
        <time>2023-07-22T05:42:21.000Z</time>
      </trkpt>
      <trkpt lat="42.63309" lon="1.50083">
        <ele>1952.4000244141</ele>
        <time>2023-07-22T05:42:22.000Z</time>
      </trkpt>
      <trkpt lat="42.63307" lon="1.50075">
        <ele>1953</ele>
        <time>2023-07-22T05:42:27.000Z</time>
      </trkpt>
      <trkpt lat="42.63305" lon="1.5007">
        <ele>1953.4000244141</ele>
        <time>2023-07-22T05:42:31.000Z</time>
      </trkpt>
      <trkpt lat="42.63302" lon="1.50062">
        <ele>1954</ele>
        <time>2023-07-22T05:42:35.000Z</time>
      </trkpt>
      <trkpt lat="42.63299" lon="1.50054">
        <ele>1954.4000244141</ele>
        <time>2023-07-22T05:42:40.000Z</time>
      </trkpt>
      <trkpt lat="42.63298" lon="1.50053">
        <ele>1954.5999755859</ele>
        <time>2023-07-22T05:42:41.000Z</time>
      </trkpt>
      <trkpt lat="42.63294" lon="1.50048">
        <ele>1955.5999755859</ele>
        <time>2023-07-22T05:42:46.000Z</time>
      </trkpt>
      <trkpt lat="42.63291" lon="1.50047">
        <ele>1956</ele>
        <time>2023-07-22T05:42:48.000Z</time>
      </trkpt>
      <trkpt lat="42.63288" lon="1.50045">
        <ele>1956.8000488281</ele>
        <time>2023-07-22T05:42:52.000Z</time>
      </trkpt>
      <trkpt lat="42.63283" lon="1.50041">
        <ele>1957.5999755859</ele>
        <time>2023-07-22T05:42:56.000Z</time>
      </trkpt>
      <trkpt lat="42.63281" lon="1.50039">
        <ele>1957.8000488281</ele>
        <time>2023-07-22T05:42:57.000Z</time>
      </trkpt>
      <trkpt lat="42.63278" lon="1.50035">
        <ele>1959</ele>
        <time>2023-07-22T05:43:01.000Z</time>
      </trkpt>
      <trkpt lat="42.63277" lon="1.50033">
        <ele>1959.1999511719</ele>
        <time>2023-07-22T05:43:02.000Z</time>
      </trkpt>
      <trkpt lat="42.63276" lon="1.50027">
        <ele>1960.1999511719</ele>
        <time>2023-07-22T05:43:07.000Z</time>
      </trkpt>
      <trkpt lat="42.63274" lon="1.50024">
        <ele>1960.4000244141</ele>
        <time>2023-07-22T05:43:09.000Z</time>
      </trkpt>
      <trkpt lat="42.63268" lon="1.50016">
        <ele>1960.8000488281</ele>
        <time>2023-07-22T05:43:16.000Z</time>
      </trkpt>
      <trkpt lat="42.63263" lon="1.50013">
        <ele>1961.1999511719</ele>
        <time>2023-07-22T05:43:22.000Z</time>
      </trkpt>
      <trkpt lat="42.63255" lon="1.50008">
        <ele>1962</ele>
        <time>2023-07-22T05:43:28.000Z</time>
      </trkpt>
      <trkpt lat="42.63255" lon="1.50008">
        <ele>1962.1999511719</ele>
        <time>2023-07-22T05:43:34.000Z</time>
      </trkpt>
      <trkpt lat="42.63256" lon="1.50004">
        <ele>1962.1999511719</ele>
        <time>2023-07-22T05:43:44.000Z</time>
      </trkpt>
      <trkpt lat="42.63262" lon="1.50008">
        <ele>1961.8000488281</ele>
        <time>2023-07-22T05:43:51.000Z</time>
      </trkpt>
      <trkpt lat="42.63273" lon="1.50015">
        <ele>1961.1999511719</ele>
        <time>2023-07-22T05:43:58.000Z</time>
      </trkpt>
      <trkpt lat="42.6328" lon="1.5002">
        <ele>1961</ele>
        <time>2023-07-22T05:44:04.000Z</time>
      </trkpt>
      <trkpt lat="42.63284" lon="1.50034">
        <ele>1960.5999755859</ele>
        <time>2023-07-22T05:44:12.000Z</time>
      </trkpt>
      <trkpt lat="42.63285" lon="1.50035">
        <ele>1960</ele>
        <time>2023-07-22T05:44:15.000Z</time>
      </trkpt>
      <trkpt lat="42.63285" lon="1.50033">
        <ele>1959.5999755859</ele>
        <time>2023-07-22T05:44:18.000Z</time>
      </trkpt>
      <trkpt lat="42.63284" lon="1.50033">
        <ele>1959.5999755859</ele>
        <time>2023-07-22T05:44:27.000Z</time>
      </trkpt>
      <trkpt lat="42.63285" lon="1.5004">
        <ele>1958.8000488281</ele>
        <time>2023-07-22T05:44:34.000Z</time>
      </trkpt>
      <trkpt lat="42.63288" lon="1.50045">
        <ele>1958.1999511719</ele>
        <time>2023-07-22T05:44:41.000Z</time>
      </trkpt>
      <trkpt lat="42.63293" lon="1.50048">
        <ele>1957.8000488281</ele>
        <time>2023-07-22T05:44:46.000Z</time>
      </trkpt>
      <trkpt lat="42.63295" lon="1.50049">
        <ele>1957.4000244141</ele>
        <time>2023-07-22T05:44:48.000Z</time>
      </trkpt>
      <trkpt lat="42.633" lon="1.50055">
        <ele>1956.4000244141</ele>
        <time>2023-07-22T05:44:53.000Z</time>
      </trkpt>
      <trkpt lat="42.63302" lon="1.5006">
        <ele>1955.5999755859</ele>
        <time>2023-07-22T05:44:56.000Z</time>
      </trkpt>
      <trkpt lat="42.63302" lon="1.50062">
        <ele>1955.4000244141</ele>
        <time>2023-07-22T05:44:57.000Z</time>
      </trkpt>
      <trkpt lat="42.63305" lon="1.50069">
        <ele>1954.8000488281</ele>
        <time>2023-07-22T05:45:02.000Z</time>
      </trkpt>
      <trkpt lat="42.63309" lon="1.5008">
        <ele>1954.1999511719</ele>
        <time>2023-07-22T05:45:08.000Z</time>
      </trkpt>
      <trkpt lat="42.6331" lon="1.50083">
        <ele>1954</ele>
        <time>2023-07-22T05:45:10.000Z</time>
      </trkpt>
      <trkpt lat="42.63312" lon="1.50096">
        <ele>1953.1999511719</ele>
        <time>2023-07-22T05:45:16.000Z</time>
      </trkpt>
      <trkpt lat="42.63317" lon="1.50107">
        <ele>1952.1999511719</ele>
        <time>2023-07-22T05:45:24.000Z</time>
      </trkpt>
      <trkpt lat="42.63322" lon="1.50114">
        <ele>1951.4000244141</ele>
        <time>2023-07-22T05:45:31.000Z</time>
      </trkpt>
      <trkpt lat="42.63323" lon="1.50117">
        <ele>1951</ele>
        <time>2023-07-22T05:45:34.000Z</time>
      </trkpt>
      <trkpt lat="42.63325" lon="1.50125">
        <ele>1950.4000244141</ele>
        <time>2023-07-22T05:45:39.000Z</time>
      </trkpt>
      <trkpt lat="42.63325" lon="1.5013">
        <ele>1950</ele>
        <time>2023-07-22T05:45:42.000Z</time>
      </trkpt>
      <trkpt lat="42.63326" lon="1.50141">
        <ele>1949.4000244141</ele>
        <time>2023-07-22T05:45:47.000Z</time>
      </trkpt>
      <trkpt lat="42.63328" lon="1.50149">
        <ele>1948.8000488281</ele>
        <time>2023-07-22T05:45:51.000Z</time>
      </trkpt>
      <trkpt lat="42.63329" lon="1.50155">
        <ele>1948.1999511719</ele>
        <time>2023-07-22T05:45:55.000Z</time>
      </trkpt>
      <trkpt lat="42.63333" lon="1.50167">
        <ele>1947.5999755859</ele>
        <time>2023-07-22T05:46:03.000Z</time>
      </trkpt>
      <trkpt lat="42.63336" lon="1.5018">
        <ele>1946.5999755859</ele>
        <time>2023-07-22T05:46:10.000Z</time>
      </trkpt>
      <trkpt lat="42.63337" lon="1.50183">
        <ele>1946.4000244141</ele>
        <time>2023-07-22T05:46:12.000Z</time>
      </trkpt>
      <trkpt lat="42.63342" lon="1.50194">
        <ele>1945.1999511719</ele>
        <time>2023-07-22T05:46:20.000Z</time>
      </trkpt>
      <trkpt lat="42.63344" lon="1.50198">
        <ele>1944.8000488281</ele>
        <time>2023-07-22T05:46:27.000Z</time>
      </trkpt>
      <trkpt lat="42.63344" lon="1.50199">
        <ele>1944.5999755859</ele>
        <time>2023-07-22T05:46:36.000Z</time>
      </trkpt>
      <trkpt lat="42.63349" lon="1.50202">
        <ele>1944.4000244141</ele>
        <time>2023-07-22T05:46:44.000Z</time>
      </trkpt>
      <trkpt lat="42.63351" lon="1.50204">
        <ele>1945.1999511719</ele>
        <time>2023-07-22T05:46:52.000Z</time>
      </trkpt>
      <trkpt lat="42.63352" lon="1.50202">
        <ele>1946.4000244141</ele>
        <time>2023-07-22T05:46:58.000Z</time>
      </trkpt>
      <trkpt lat="42.63351" lon="1.50197">
        <ele>1947.4000244141</ele>
        <time>2023-07-22T05:47:03.000Z</time>
      </trkpt>
      <trkpt lat="42.63351" lon="1.50195">
        <ele>1947.8000488281</ele>
        <time>2023-07-22T05:47:06.000Z</time>
      </trkpt>
      <trkpt lat="42.6335" lon="1.50192">
        <ele>1948.5999755859</ele>
        <time>2023-07-22T05:47:10.000Z</time>
      </trkpt>
      <trkpt lat="42.63349" lon="1.50191">
        <ele>1949.1999511719</ele>
        <time>2023-07-22T05:47:13.000Z</time>
      </trkpt>
      <trkpt lat="42.63348" lon="1.50187">
        <ele>1949.5999755859</ele>
        <time>2023-07-22T05:47:19.000Z</time>
      </trkpt>
      <trkpt lat="42.63349" lon="1.50188">
        <ele>1950</ele>
        <time>2023-07-22T05:47:21.000Z</time>
      </trkpt>
      <trkpt lat="42.6335" lon="1.5019">
        <ele>1950.5999755859</ele>
        <time>2023-07-22T05:47:25.000Z</time>
      </trkpt>
      <trkpt lat="42.63351" lon="1.5019">
        <ele>1951</ele>
        <time>2023-07-22T05:47:28.000Z</time>
      </trkpt>
      <trkpt lat="42.63355" lon="1.5019">
        <ele>1951.8000488281</ele>
        <time>2023-07-22T05:47:32.000Z</time>
      </trkpt>
      <trkpt lat="42.63357" lon="1.50189">
        <ele>1952.5999755859</ele>
        <time>2023-07-22T05:47:37.000Z</time>
      </trkpt>
      <trkpt lat="42.63357" lon="1.5019">
        <ele>1953</ele>
        <time>2023-07-22T05:47:39.000Z</time>
      </trkpt>
      <trkpt lat="42.63356" lon="1.50188">
        <ele>1953.8000488281</ele>
        <time>2023-07-22T05:47:45.000Z</time>
      </trkpt>
      <trkpt lat="42.63355" lon="1.50188">
        <ele>1954</ele>
        <time>2023-07-22T05:47:46.000Z</time>
      </trkpt>
      <trkpt lat="42.63355" lon="1.50185">
        <ele>1955</ele>
        <time>2023-07-22T05:47:52.000Z</time>
      </trkpt>
      <trkpt lat="42.63355" lon="1.50184">
        <ele>1955</ele>
        <time>2023-07-22T05:47:53.000Z</time>
      </trkpt>
      <trkpt lat="42.63357" lon="1.50181">
        <ele>1956.1999511719</ele>
        <time>2023-07-22T05:48:00.000Z</time>
      </trkpt>
      <trkpt lat="42.63358" lon="1.50178">
        <ele>1957.1999511719</ele>
        <time>2023-07-22T05:48:05.000Z</time>
      </trkpt>
      <trkpt lat="42.63358" lon="1.50179">
        <ele>1957.5999755859</ele>
        <time>2023-07-22T05:48:08.000Z</time>
      </trkpt>
      <trkpt lat="42.63359" lon="1.50176">
        <ele>1958.4000244141</ele>
        <time>2023-07-22T05:48:13.000Z</time>
      </trkpt>
      <trkpt lat="42.6336" lon="1.50174">
        <ele>1958.8000488281</ele>
        <time>2023-07-22T05:48:16.000Z</time>
      </trkpt>
      <trkpt lat="42.6336" lon="1.50175">
        <ele>1959.4000244141</ele>
        <time>2023-07-22T05:48:19.000Z</time>
      </trkpt>
      <trkpt lat="42.63362" lon="1.50173">
        <ele>1960.1999511719</ele>
        <time>2023-07-22T05:48:24.000Z</time>
      </trkpt>
      <trkpt lat="42.63362" lon="1.50173">
        <ele>1960.5999755859</ele>
        <time>2023-07-22T05:48:25.000Z</time>
      </trkpt>
      <trkpt lat="42.63362" lon="1.5017">
        <ele>1961.4000244141</ele>
        <time>2023-07-22T05:48:31.000Z</time>
      </trkpt>
      <trkpt lat="42.63362" lon="1.5017">
        <ele>1961.5999755859</ele>
        <time>2023-07-22T05:48:32.000Z</time>
      </trkpt>
      <trkpt lat="42.63363" lon="1.50164">
        <ele>1962.5999755859</ele>
        <time>2023-07-22T05:48:39.000Z</time>
      </trkpt>
      <trkpt lat="42.63363" lon="1.50163">
        <ele>1962.8000488281</ele>
        <time>2023-07-22T05:48:40.000Z</time>
      </trkpt>
      <trkpt lat="42.63364" lon="1.50163">
        <ele>1963.8000488281</ele>
        <time>2023-07-22T05:48:45.000Z</time>
      </trkpt>
      <trkpt lat="42.63364" lon="1.50162">
        <ele>1964.1999511719</ele>
        <time>2023-07-22T05:48:47.000Z</time>
      </trkpt>
      <trkpt lat="42.63365" lon="1.5016">
        <ele>1964.8000488281</ele>
        <time>2023-07-22T05:48:52.000Z</time>
      </trkpt>
      <trkpt lat="42.63365" lon="1.50159">
        <ele>1965.5999755859</ele>
        <time>2023-07-22T05:48:57.000Z</time>
      </trkpt>
      <trkpt lat="42.63365" lon="1.50158">
        <ele>1965.8000488281</ele>
        <time>2023-07-22T05:48:58.000Z</time>
      </trkpt>
      <trkpt lat="42.63367" lon="1.50154">
        <ele>1967</ele>
        <time>2023-07-22T05:49:05.000Z</time>
      </trkpt>
      <trkpt lat="42.63367" lon="1.50153">
        <ele>1967.1999511719</ele>
        <time>2023-07-22T05:49:07.000Z</time>
      </trkpt>
      <trkpt lat="42.63367" lon="1.50153">
        <ele>1968</ele>
        <time>2023-07-22T05:49:13.000Z</time>
      </trkpt>
      <trkpt lat="42.63366" lon="1.50153">
        <ele>1968</ele>
        <time>2023-07-22T05:49:14.000Z</time>
      </trkpt>
      <trkpt lat="42.63366" lon="1.50154">
        <ele>1968</ele>
        <time>2023-07-22T05:49:23.000Z</time>
      </trkpt>
      <trkpt lat="42.63368" lon="1.50151">
        <ele>1968</ele>
        <time>2023-07-22T05:49:33.000Z</time>
      </trkpt>
      <trkpt lat="42.63368" lon="1.50146">
        <ele>1968.1999511719</ele>
        <time>2023-07-22T05:49:40.000Z</time>
      </trkpt>
      <trkpt lat="42.63367" lon="1.50142">
        <ele>1969</ele>
        <time>2023-07-22T05:49:46.000Z</time>
      </trkpt>
      <trkpt lat="42.63367" lon="1.5014">
        <ele>1969.8000488281</ele>
        <time>2023-07-22T05:49:49.000Z</time>
      </trkpt>
      <trkpt lat="42.63367" lon="1.5014">
        <ele>1970.1999511719</ele>
        <time>2023-07-22T05:49:50.000Z</time>
      </trkpt>
      <trkpt lat="42.63367" lon="1.50135">
        <ele>1971.1999511719</ele>
        <time>2023-07-22T05:49:56.000Z</time>
      </trkpt>
      <trkpt lat="42.63367" lon="1.50134">
        <ele>1971.5999755859</ele>
        <time>2023-07-22T05:49:58.000Z</time>
      </trkpt>
      <trkpt lat="42.63367" lon="1.50132">
        <ele>1972.1999511719</ele>
        <time>2023-07-22T05:50:02.000Z</time>
      </trkpt>
      <trkpt lat="42.63368" lon="1.50129">
        <ele>1973.1999511719</ele>
        <time>2023-07-22T05:50:07.000Z</time>
      </trkpt>
      <trkpt lat="42.63368" lon="1.50128">
        <ele>1973.4000244141</ele>
        <time>2023-07-22T05:50:08.000Z</time>
      </trkpt>
      <trkpt lat="42.63368" lon="1.50125">
        <ele>1974.4000244141</ele>
        <time>2023-07-22T05:50:13.000Z</time>
      </trkpt>
      <trkpt lat="42.63368" lon="1.50125">
        <ele>1974.5999755859</ele>
        <time>2023-07-22T05:50:14.000Z</time>
      </trkpt>
      <trkpt lat="42.63368" lon="1.50123">
        <ele>1975.5999755859</ele>
        <time>2023-07-22T05:50:19.000Z</time>
      </trkpt>
      <trkpt lat="42.63368" lon="1.50121">
        <ele>1975.8000488281</ele>
        <time>2023-07-22T05:50:21.000Z</time>
      </trkpt>
      <trkpt lat="42.63368" lon="1.50117">
        <ele>1976.5999755859</ele>
        <time>2023-07-22T05:50:26.000Z</time>
      </trkpt>
      <trkpt lat="42.63368" lon="1.50115">
        <ele>1977</ele>
        <time>2023-07-22T05:50:29.000Z</time>
      </trkpt>
      <trkpt lat="42.63368" lon="1.50111">
        <ele>1977.8000488281</ele>
        <time>2023-07-22T05:50:33.000Z</time>
      </trkpt>
      <trkpt lat="42.63367" lon="1.50109">
        <ele>1978.4000244141</ele>
        <time>2023-07-22T05:50:37.000Z</time>
      </trkpt>
      <trkpt lat="42.63367" lon="1.50107">
        <ele>1978.8000488281</ele>
        <time>2023-07-22T05:50:40.000Z</time>
      </trkpt>
      <trkpt lat="42.63367" lon="1.50104">
        <ele>1979.4000244141</ele>
        <time>2023-07-22T05:50:44.000Z</time>
      </trkpt>
      <trkpt lat="42.63367" lon="1.50102">
        <ele>1980</ele>
        <time>2023-07-22T05:50:47.000Z</time>
      </trkpt>
      <trkpt lat="42.63368" lon="1.501">
        <ele>1980.4000244141</ele>
        <time>2023-07-22T05:50:50.000Z</time>
      </trkpt>
      <trkpt lat="42.6337" lon="1.50101">
        <ele>1981.4000244141</ele>
        <time>2023-07-22T05:50:55.000Z</time>
      </trkpt>
      <trkpt lat="42.63372" lon="1.50101">
        <ele>1981.5999755859</ele>
        <time>2023-07-22T05:50:57.000Z</time>
      </trkpt>
      <trkpt lat="42.63374" lon="1.50102">
        <ele>1982.4000244141</ele>
        <time>2023-07-22T05:51:01.000Z</time>
      </trkpt>
      <trkpt lat="42.63376" lon="1.50105">
        <ele>1983.1999511719</ele>
        <time>2023-07-22T05:51:06.000Z</time>
      </trkpt>
      <trkpt lat="42.63376" lon="1.50106">
        <ele>1983.4000244141</ele>
        <time>2023-07-22T05:51:08.000Z</time>
      </trkpt>
      <trkpt lat="42.63378" lon="1.50108">
        <ele>1984.4000244141</ele>
        <time>2023-07-22T05:51:13.000Z</time>
      </trkpt>
      <trkpt lat="42.63378" lon="1.50109">
        <ele>1984.5999755859</ele>
        <time>2023-07-22T05:51:14.000Z</time>
      </trkpt>
      <trkpt lat="42.6338" lon="1.50108">
        <ele>1985.5999755859</ele>
        <time>2023-07-22T05:51:18.000Z</time>
      </trkpt>
      <trkpt lat="42.63382" lon="1.50108">
        <ele>1986</ele>
        <time>2023-07-22T05:51:21.000Z</time>
      </trkpt>
      <trkpt lat="42.63383" lon="1.50107">
        <ele>1986.8000488281</ele>
        <time>2023-07-22T05:51:26.000Z</time>
      </trkpt>
      <trkpt lat="42.63385" lon="1.50107">
        <ele>1987.8000488281</ele>
        <time>2023-07-22T05:51:32.000Z</time>
      </trkpt>
      <trkpt lat="42.63384" lon="1.50106">
        <ele>1989</ele>
        <time>2023-07-22T05:51:38.000Z</time>
      </trkpt>
      <trkpt lat="42.63384" lon="1.50105">
        <ele>1989.1999511719</ele>
        <time>2023-07-22T05:51:39.000Z</time>
      </trkpt>
      <trkpt lat="42.63384" lon="1.50104">
        <ele>1989.1999511719</ele>
        <time>2023-07-22T05:51:41.000Z</time>
      </trkpt>
      <trkpt lat="42.63384" lon="1.50101">
        <ele>1990</ele>
        <time>2023-07-22T05:51:45.000Z</time>
      </trkpt>
      <trkpt lat="42.63385" lon="1.501">
        <ele>1990.4000244141</ele>
        <time>2023-07-22T05:51:48.000Z</time>
      </trkpt>
      <trkpt lat="42.63386" lon="1.50099">
        <ele>1991</ele>
        <time>2023-07-22T05:51:53.000Z</time>
      </trkpt>
      <trkpt lat="42.63387" lon="1.50096">
        <ele>1991.8000488281</ele>
        <time>2023-07-22T05:51:57.000Z</time>
      </trkpt>
      <trkpt lat="42.63387" lon="1.50093">
        <ele>1992</ele>
        <time>2023-07-22T05:52:00.000Z</time>
      </trkpt>
      <trkpt lat="42.63387" lon="1.50088">
        <ele>1993</ele>
        <time>2023-07-22T05:52:06.000Z</time>
      </trkpt>
      <trkpt lat="42.63387" lon="1.50087">
        <ele>1993.1999511719</ele>
        <time>2023-07-22T05:52:08.000Z</time>
      </trkpt>
      <trkpt lat="42.63389" lon="1.50087">
        <ele>1994</ele>
        <time>2023-07-22T05:52:13.000Z</time>
      </trkpt>
      <trkpt lat="42.63391" lon="1.50089">
        <ele>1994.4000244141</ele>
        <time>2023-07-22T05:52:15.000Z</time>
      </trkpt>
      <trkpt lat="42.63391" lon="1.50092">
        <ele>1995.1999511719</ele>
        <time>2023-07-22T05:52:21.000Z</time>
      </trkpt>
      <trkpt lat="42.63392" lon="1.50093">
        <ele>1995.4000244141</ele>
        <time>2023-07-22T05:52:23.000Z</time>
      </trkpt>
      <trkpt lat="42.63394" lon="1.50093">
        <ele>1996.4000244141</ele>
        <time>2023-07-22T05:52:29.000Z</time>
      </trkpt>
      <trkpt lat="42.63395" lon="1.50093">
        <ele>1996.5999755859</ele>
        <time>2023-07-22T05:52:30.000Z</time>
      </trkpt>
      <trkpt lat="42.63397" lon="1.50091">
        <ele>1997.4000244141</ele>
        <time>2023-07-22T05:52:35.000Z</time>
      </trkpt>
      <trkpt lat="42.63398" lon="1.50091">
        <ele>1997.5999755859</ele>
        <time>2023-07-22T05:52:36.000Z</time>
      </trkpt>
      <trkpt lat="42.63399" lon="1.50091">
        <ele>1998.5999755859</ele>
        <time>2023-07-22T05:52:43.000Z</time>
      </trkpt>
      <trkpt lat="42.63398" lon="1.5009">
        <ele>1999.4000244141</ele>
        <time>2023-07-22T05:52:52.000Z</time>
      </trkpt>
      <trkpt lat="42.63398" lon="1.50088">
        <ele>1999.1999511719</ele>
        <time>2023-07-22T05:53:00.000Z</time>
      </trkpt>
      <trkpt lat="42.63396" lon="1.50086">
        <ele>1999.1999511719</ele>
        <time>2023-07-22T05:53:09.000Z</time>
      </trkpt>
      <trkpt lat="42.63397" lon="1.50088">
        <ele>1999.1999511719</ele>
        <time>2023-07-22T05:53:23.000Z</time>
      </trkpt>
      <trkpt lat="42.63398" lon="1.50086">
        <ele>1999.1999511719</ele>
        <time>2023-07-22T05:53:31.000Z</time>
      </trkpt>
      <trkpt lat="42.63397" lon="1.50086">
        <ele>1999.1999511719</ele>
        <time>2023-07-22T05:53:39.000Z</time>
      </trkpt>
      <trkpt lat="42.63398" lon="1.50082">
        <ele>1999.4000244141</ele>
        <time>2023-07-22T05:53:46.000Z</time>
      </trkpt>
      <trkpt lat="42.63398" lon="1.50082">
        <ele>1999.8000488281</ele>
        <time>2023-07-22T05:53:51.000Z</time>
      </trkpt>
      <trkpt lat="42.63398" lon="1.50082">
        <ele>2000.4000244141</ele>
        <time>2023-07-22T05:53:55.000Z</time>
      </trkpt>
      <trkpt lat="42.63398" lon="1.50079">
        <ele>2000.8000488281</ele>
        <time>2023-07-22T05:53:58.000Z</time>
      </trkpt>
      <trkpt lat="42.63398" lon="1.50077">
        <ele>2001.5999755859</ele>
        <time>2023-07-22T05:54:02.000Z</time>
      </trkpt>
      <trkpt lat="42.63397" lon="1.50076">
        <ele>2002</ele>
        <time>2023-07-22T05:54:04.000Z</time>
      </trkpt>
      <trkpt lat="42.63396" lon="1.50071">
        <ele>2002.5999755859</ele>
        <time>2023-07-22T05:54:09.000Z</time>
      </trkpt>
      <trkpt lat="42.63396" lon="1.50069">
        <ele>2003</ele>
        <time>2023-07-22T05:54:12.000Z</time>
      </trkpt>
      <trkpt lat="42.63398" lon="1.50067">
        <ele>2004.4000244141</ele>
        <time>2023-07-22T05:54:19.000Z</time>
      </trkpt>
      <trkpt lat="42.63399" lon="1.50067">
        <ele>2004.5999755859</ele>
        <time>2023-07-22T05:54:20.000Z</time>
      </trkpt>
      <trkpt lat="42.63402" lon="1.5007">
        <ele>2005.5999755859</ele>
        <time>2023-07-22T05:54:25.000Z</time>
      </trkpt>
      <trkpt lat="42.63404" lon="1.50072">
        <ele>2006.1999511719</ele>
        <time>2023-07-22T05:54:29.000Z</time>
      </trkpt>
      <trkpt lat="42.63404" lon="1.50073">
        <ele>2006.5999755859</ele>
        <time>2023-07-22T05:54:32.000Z</time>
      </trkpt>
      <trkpt lat="42.63404" lon="1.50072">
        <ele>2007.5999755859</ele>
        <time>2023-07-22T05:54:38.000Z</time>
      </trkpt>
      <trkpt lat="42.63404" lon="1.50072">
        <ele>2007.8000488281</ele>
        <time>2023-07-22T05:54:39.000Z</time>
      </trkpt>
      <trkpt lat="42.63406" lon="1.50068">
        <ele>2008.8000488281</ele>
        <time>2023-07-22T05:54:45.000Z</time>
      </trkpt>
      <trkpt lat="42.63407" lon="1.50066">
        <ele>2009</ele>
        <time>2023-07-22T05:54:47.000Z</time>
      </trkpt>
      <trkpt lat="42.63407" lon="1.50063">
        <ele>2010</ele>
        <time>2023-07-22T05:54:51.000Z</time>
      </trkpt>
      <trkpt lat="42.63407" lon="1.50063">
        <ele>2010.5999755859</ele>
        <time>2023-07-22T05:54:54.000Z</time>
      </trkpt>
      <trkpt lat="42.63407" lon="1.50065">
        <ele>2011</ele>
        <time>2023-07-22T05:54:57.000Z</time>
      </trkpt>
      <trkpt lat="42.63404" lon="1.50063">
        <ele>2011.5999755859</ele>
        <time>2023-07-22T05:55:01.000Z</time>
      </trkpt>
      <trkpt lat="42.63402" lon="1.50059">
        <ele>2012</ele>
        <time>2023-07-22T05:55:05.000Z</time>
      </trkpt>
      <trkpt lat="42.63403" lon="1.50057">
        <ele>2012.4000244141</ele>
        <time>2023-07-22T05:55:07.000Z</time>
      </trkpt>
      <trkpt lat="42.63405" lon="1.50051">
        <ele>2013.1999511719</ele>
        <time>2023-07-22T05:55:12.000Z</time>
      </trkpt>
      <trkpt lat="42.63408" lon="1.50048">
        <ele>2014</ele>
        <time>2023-07-22T05:55:17.000Z</time>
      </trkpt>
      <trkpt lat="42.63408" lon="1.50046">
        <ele>2014.1999511719</ele>
        <time>2023-07-22T05:55:19.000Z</time>
      </trkpt>
      <trkpt lat="42.63409" lon="1.50044">
        <ele>2015.1999511719</ele>
        <time>2023-07-22T05:55:25.000Z</time>
      </trkpt>
      <trkpt lat="42.63409" lon="1.50045">
        <ele>2015.4000244141</ele>
        <time>2023-07-22T05:55:26.000Z</time>
      </trkpt>
      <trkpt lat="42.63413" lon="1.50043">
        <ele>2016.4000244141</ele>
        <time>2023-07-22T05:55:34.000Z</time>
      </trkpt>
      <trkpt lat="42.63415" lon="1.5004">
        <ele>2017.4000244141</ele>
        <time>2023-07-22T05:55:41.000Z</time>
      </trkpt>
      <trkpt lat="42.63415" lon="1.50039">
        <ele>2017.5999755859</ele>
        <time>2023-07-22T05:55:42.000Z</time>
      </trkpt>
      <trkpt lat="42.63415" lon="1.50038">
        <ele>2017.8000488281</ele>
        <time>2023-07-22T05:55:43.000Z</time>
      </trkpt>
      <trkpt lat="42.63416" lon="1.50036">
        <ele>2018.4000244141</ele>
        <time>2023-07-22T05:55:46.000Z</time>
      </trkpt>
      <trkpt lat="42.63417" lon="1.50032">
        <ele>2018.5999755859</ele>
        <time>2023-07-22T05:55:51.000Z</time>
      </trkpt>
      <trkpt lat="42.63416" lon="1.50032">
        <ele>2018.8000488281</ele>
        <time>2023-07-22T05:55:54.000Z</time>
      </trkpt>
      <trkpt lat="42.63416" lon="1.5003">
        <ele>2019</ele>
        <time>2023-07-22T05:55:57.000Z</time>
      </trkpt>
      <trkpt lat="42.63415" lon="1.5003">
        <ele>2019.5999755859</ele>
        <time>2023-07-22T05:56:03.000Z</time>
      </trkpt>
      <trkpt lat="42.63415" lon="1.5003">
        <ele>2019.5999755859</ele>
        <time>2023-07-22T05:56:04.000Z</time>
      </trkpt>
      <trkpt lat="42.63412" lon="1.50028">
        <ele>2020.5999755859</ele>
        <time>2023-07-22T05:56:10.000Z</time>
      </trkpt>
      <trkpt lat="42.6341" lon="1.50026">
        <ele>2021</ele>
        <time>2023-07-22T05:56:12.000Z</time>
      </trkpt>
      <trkpt lat="42.63412" lon="1.50022">
        <ele>2021.8000488281</ele>
        <time>2023-07-22T05:56:19.000Z</time>
      </trkpt>
      <trkpt lat="42.63413" lon="1.50023">
        <ele>2022.5999755859</ele>
        <time>2023-07-22T05:56:23.000Z</time>
      </trkpt>
      <trkpt lat="42.63413" lon="1.50024">
        <ele>2022.8000488281</ele>
        <time>2023-07-22T05:56:24.000Z</time>
      </trkpt>
      <trkpt lat="42.63415" lon="1.50023">
        <ele>2023.1999511719</ele>
        <time>2023-07-22T05:56:27.000Z</time>
      </trkpt>
      <trkpt lat="42.63417" lon="1.50024">
        <ele>2023.8000488281</ele>
        <time>2023-07-22T05:56:30.000Z</time>
      </trkpt>
      <trkpt lat="42.63418" lon="1.50024">
        <ele>2024.1999511719</ele>
        <time>2023-07-22T05:56:35.000Z</time>
      </trkpt>
      <trkpt lat="42.6342" lon="1.50024">
        <ele>2024.8000488281</ele>
        <time>2023-07-22T05:56:39.000Z</time>
      </trkpt>
      <trkpt lat="42.63422" lon="1.50025">
        <ele>2025.8000488281</ele>
        <time>2023-07-22T05:56:45.000Z</time>
      </trkpt>
      <trkpt lat="42.63423" lon="1.50023">
        <ele>2026</ele>
        <time>2023-07-22T05:56:46.000Z</time>
      </trkpt>
      <trkpt lat="42.63423" lon="1.50021">
        <ele>2026.5999755859</ele>
        <time>2023-07-22T05:56:51.000Z</time>
      </trkpt>
      <trkpt lat="42.63422" lon="1.50021">
        <ele>2027.1999511719</ele>
        <time>2023-07-22T05:56:54.000Z</time>
      </trkpt>
      <trkpt lat="42.63421" lon="1.50018">
        <ele>2027.5999755859</ele>
        <time>2023-07-22T05:56:57.000Z</time>
      </trkpt>
      <trkpt lat="42.63419" lon="1.50015">
        <ele>2028.1999511719</ele>
        <time>2023-07-22T05:57:01.000Z</time>
      </trkpt>
      <trkpt lat="42.63418" lon="1.50016">
        <ele>2028.5999755859</ele>
        <time>2023-07-22T05:57:04.000Z</time>
      </trkpt>
      <trkpt lat="42.63416" lon="1.50015">
        <ele>2029.1999511719</ele>
        <time>2023-07-22T05:57:08.000Z</time>
      </trkpt>
      <trkpt lat="42.63415" lon="1.50012">
        <ele>2029.5999755859</ele>
        <time>2023-07-22T05:57:12.000Z</time>
      </trkpt>
      <trkpt lat="42.63416" lon="1.50008">
        <ele>2030.4000244141</ele>
        <time>2023-07-22T05:57:17.000Z</time>
      </trkpt>
      <trkpt lat="42.63416" lon="1.50007">
        <ele>2031</ele>
        <time>2023-07-22T05:57:21.000Z</time>
      </trkpt>
      <trkpt lat="42.63415" lon="1.50003">
        <ele>2031.4000244141</ele>
        <time>2023-07-22T05:57:24.000Z</time>
      </trkpt>
      <trkpt lat="42.63416" lon="1.5">
        <ele>2032</ele>
        <time>2023-07-22T05:57:28.000Z</time>
      </trkpt>
      <trkpt lat="42.63418" lon="1.50006">
        <ele>2032.4000244141</ele>
        <time>2023-07-22T05:57:32.000Z</time>
      </trkpt>
      <trkpt lat="42.63419" lon="1.50007">
        <ele>2032.5999755859</ele>
        <time>2023-07-22T05:57:33.000Z</time>
      </trkpt>
      <trkpt lat="42.63423" lon="1.50009">
        <ele>2033.4000244141</ele>
        <time>2023-07-22T05:57:40.000Z</time>
      </trkpt>
      <trkpt lat="42.63424" lon="1.50009">
        <ele>2033.5999755859</ele>
        <time>2023-07-22T05:57:41.000Z</time>
      </trkpt>
      <trkpt lat="42.63429" lon="1.50009">
        <ele>2034</ele>
        <time>2023-07-22T05:57:47.000Z</time>
      </trkpt>
      <trkpt lat="42.63431" lon="1.50008">
        <ele>2034.5999755859</ele>
        <time>2023-07-22T05:57:52.000Z</time>
      </trkpt>
      <trkpt lat="42.63431" lon="1.50008">
        <ele>2035</ele>
        <time>2023-07-22T05:57:54.000Z</time>
      </trkpt>
      <trkpt lat="42.6343" lon="1.5001">
        <ele>2035.8000488281</ele>
        <time>2023-07-22T05:57:59.000Z</time>
      </trkpt>
      <trkpt lat="42.63429" lon="1.50011">
        <ele>2036</ele>
        <time>2023-07-22T05:58:01.000Z</time>
      </trkpt>
      <trkpt lat="42.63429" lon="1.50006">
        <ele>2036.5999755859</ele>
        <time>2023-07-22T05:58:07.000Z</time>
      </trkpt>
      <trkpt lat="42.63429" lon="1.50005">
        <ele>2036.8000488281</ele>
        <time>2023-07-22T05:58:08.000Z</time>
      </trkpt>
      <trkpt lat="42.63428" lon="1.50003">
        <ele>2037.8000488281</ele>
        <time>2023-07-22T05:58:15.000Z</time>
      </trkpt>
      <trkpt lat="42.63427" lon="1.49997">
        <ele>2038.8000488281</ele>
        <time>2023-07-22T05:58:24.000Z</time>
      </trkpt>
      <trkpt lat="42.63427" lon="1.49996">
        <ele>2039</ele>
        <time>2023-07-22T05:58:25.000Z</time>
      </trkpt>
      <trkpt lat="42.63427" lon="1.49993">
        <ele>2040.1999511719</ele>
        <time>2023-07-22T05:58:32.000Z</time>
      </trkpt>
      <trkpt lat="42.63427" lon="1.49993">
        <ele>2040.5999755859</ele>
        <time>2023-07-22T05:58:34.000Z</time>
      </trkpt>
      <trkpt lat="42.63425" lon="1.49989">
        <ele>2041.4000244141</ele>
        <time>2023-07-22T05:58:40.000Z</time>
      </trkpt>
      <trkpt lat="42.63425" lon="1.49988">
        <ele>2041.5999755859</ele>
        <time>2023-07-22T05:58:41.000Z</time>
      </trkpt>
      <trkpt lat="42.63424" lon="1.49986">
        <ele>2042.4000244141</ele>
        <time>2023-07-22T05:58:46.000Z</time>
      </trkpt>
      <trkpt lat="42.63424" lon="1.49985">
        <ele>2042.8000488281</ele>
        <time>2023-07-22T05:58:49.000Z</time>
      </trkpt>
      <trkpt lat="42.63424" lon="1.49983">
        <ele>2043.5999755859</ele>
        <time>2023-07-22T05:58:54.000Z</time>
      </trkpt>
      <trkpt lat="42.63425" lon="1.49982">
        <ele>2044</ele>
        <time>2023-07-22T05:58:57.000Z</time>
      </trkpt>
      <trkpt lat="42.63428" lon="1.49983">
        <ele>2044.5999755859</ele>
        <time>2023-07-22T05:59:03.000Z</time>
      </trkpt>
      <trkpt lat="42.63429" lon="1.49984">
        <ele>2045</ele>
        <time>2023-07-22T05:59:05.000Z</time>
      </trkpt>
      <trkpt lat="42.63431" lon="1.49983">
        <ele>2045.8000488281</ele>
        <time>2023-07-22T05:59:10.000Z</time>
      </trkpt>
      <trkpt lat="42.63431" lon="1.49982">
        <ele>2046.1999511719</ele>
        <time>2023-07-22T05:59:13.000Z</time>
      </trkpt>
      <trkpt lat="42.63432" lon="1.49978">
        <ele>2046.8000488281</ele>
        <time>2023-07-22T05:59:20.000Z</time>
      </trkpt>
      <trkpt lat="42.63433" lon="1.49977">
        <ele>2047</ele>
        <time>2023-07-22T05:59:22.000Z</time>
      </trkpt>
      <trkpt lat="42.63433" lon="1.49978">
        <ele>2047.5999755859</ele>
        <time>2023-07-22T05:59:28.000Z</time>
      </trkpt>
      <trkpt lat="42.63431" lon="1.49972">
        <ele>2048</ele>
        <time>2023-07-22T05:59:33.000Z</time>
      </trkpt>
      <trkpt lat="42.63431" lon="1.49972">
        <ele>2048.1999511719</ele>
        <time>2023-07-22T05:59:35.000Z</time>
      </trkpt>
      <trkpt lat="42.63434" lon="1.49967">
        <ele>2049</ele>
        <time>2023-07-22T05:59:43.000Z</time>
      </trkpt>
      <trkpt lat="42.63434" lon="1.49966">
        <ele>2049</ele>
        <time>2023-07-22T05:59:44.000Z</time>
      </trkpt>
      <trkpt lat="42.63435" lon="1.49967">
        <ele>2049.3999023438</ele>
        <time>2023-07-22T05:59:51.000Z</time>
      </trkpt>
      <trkpt lat="42.63437" lon="1.49973">
        <ele>2049.6000976562</ele>
        <time>2023-07-22T05:59:58.000Z</time>
      </trkpt>
      <trkpt lat="42.63438" lon="1.49969">
        <ele>2050.1999511719</ele>
        <time>2023-07-22T06:00:03.000Z</time>
      </trkpt>
      <trkpt lat="42.63438" lon="1.49969">
        <ele>2050.3999023438</ele>
        <time>2023-07-22T06:00:04.000Z</time>
      </trkpt>
      <trkpt lat="42.6344" lon="1.49964">
        <ele>2051.1999511719</ele>
        <time>2023-07-22T06:00:10.000Z</time>
      </trkpt>
      <trkpt lat="42.63441" lon="1.49961">
        <ele>2051.6000976562</ele>
        <time>2023-07-22T06:00:13.000Z</time>
      </trkpt>
      <trkpt lat="42.63443" lon="1.49958">
        <ele>2052.3999023438</ele>
        <time>2023-07-22T06:00:20.000Z</time>
      </trkpt>
      <trkpt lat="42.63444" lon="1.49958">
        <ele>2053</ele>
        <time>2023-07-22T06:00:23.000Z</time>
      </trkpt>
      <trkpt lat="42.63443" lon="1.49957">
        <ele>2053.6000976562</ele>
        <time>2023-07-22T06:00:27.000Z</time>
      </trkpt>
      <trkpt lat="42.63442" lon="1.49955">
        <ele>2054</ele>
        <time>2023-07-22T06:00:31.000Z</time>
      </trkpt>
      <trkpt lat="42.63441" lon="1.49946">
        <ele>2054.6000976562</ele>
        <time>2023-07-22T06:00:38.000Z</time>
      </trkpt>
      <trkpt lat="42.6344" lon="1.49945">
        <ele>2054.6000976562</ele>
        <time>2023-07-22T06:00:39.000Z</time>
      </trkpt>
      <trkpt lat="42.6344" lon="1.49942">
        <ele>2055.1999511719</ele>
        <time>2023-07-22T06:00:45.000Z</time>
      </trkpt>
      <trkpt lat="42.63443" lon="1.49935">
        <ele>2055.6000976562</ele>
        <time>2023-07-22T06:00:53.000Z</time>
      </trkpt>
      <trkpt lat="42.63444" lon="1.49929">
        <ele>2055.6000976562</ele>
        <time>2023-07-22T06:01:02.000Z</time>
      </trkpt>
      <trkpt lat="42.63443" lon="1.49925">
        <ele>2055.3999023438</ele>
        <time>2023-07-22T06:01:09.000Z</time>
      </trkpt>
      <trkpt lat="42.63443" lon="1.49926">
        <ele>2055.1999511719</ele>
        <time>2023-07-22T06:01:18.000Z</time>
      </trkpt>
      <trkpt lat="42.63439" lon="1.49925">
        <ele>2055.1999511719</ele>
        <time>2023-07-22T06:01:28.000Z</time>
      </trkpt>
      <trkpt lat="42.63436" lon="1.49921">
        <ele>2055.1999511719</ele>
        <time>2023-07-22T06:01:35.000Z</time>
      </trkpt>
      <trkpt lat="42.63436" lon="1.49913">
        <ele>2055.3999023438</ele>
        <time>2023-07-22T06:01:42.000Z</time>
      </trkpt>
      <trkpt lat="42.63436" lon="1.49907">
        <ele>2055.6000976562</ele>
        <time>2023-07-22T06:01:46.000Z</time>
      </trkpt>
      <trkpt lat="42.63437" lon="1.49904">
        <ele>2056</ele>
        <time>2023-07-22T06:01:50.000Z</time>
      </trkpt>
      <trkpt lat="42.63434" lon="1.49898">
        <ele>2056.8000488281</ele>
        <time>2023-07-22T06:01:56.000Z</time>
      </trkpt>
      <trkpt lat="42.63433" lon="1.49894">
        <ele>2057.1999511719</ele>
        <time>2023-07-22T06:01:59.000Z</time>
      </trkpt>
      <trkpt lat="42.63432" lon="1.49892">
        <ele>2058</ele>
        <time>2023-07-22T06:02:03.000Z</time>
      </trkpt>
      <trkpt lat="42.6343" lon="1.4989">
        <ele>2058.3999023438</ele>
        <time>2023-07-22T06:02:08.000Z</time>
      </trkpt>
      <trkpt lat="42.63429" lon="1.49886">
        <ele>2059</ele>
        <time>2023-07-22T06:02:13.000Z</time>
      </trkpt>
      <trkpt lat="42.63429" lon="1.49885">
        <ele>2059.1999511719</ele>
        <time>2023-07-22T06:02:15.000Z</time>
      </trkpt>
      <trkpt lat="42.63431" lon="1.49874">
        <ele>2059.6000976562</ele>
        <time>2023-07-22T06:02:23.000Z</time>
      </trkpt>
      <trkpt lat="42.63433" lon="1.49869">
        <ele>2060</ele>
        <time>2023-07-22T06:02:29.000Z</time>
      </trkpt>
      <trkpt lat="42.63434" lon="1.49866">
        <ele>2060.1999511719</ele>
        <time>2023-07-22T06:02:31.000Z</time>
      </trkpt>
      <trkpt lat="42.63436" lon="1.49862">
        <ele>2061.1999511719</ele>
        <time>2023-07-22T06:02:37.000Z</time>
      </trkpt>
      <trkpt lat="42.63436" lon="1.49861">
        <ele>2061.6000976562</ele>
        <time>2023-07-22T06:02:39.000Z</time>
      </trkpt>
      <trkpt lat="42.63435" lon="1.49856">
        <ele>2062.1999511719</ele>
        <time>2023-07-22T06:02:44.000Z</time>
      </trkpt>
      <trkpt lat="42.63435" lon="1.49855">
        <ele>2062.6000976562</ele>
        <time>2023-07-22T06:02:46.000Z</time>
      </trkpt>
      <trkpt lat="42.63434" lon="1.49854">
        <ele>2063.3999023438</ele>
        <time>2023-07-22T06:02:53.000Z</time>
      </trkpt>
      <trkpt lat="42.63434" lon="1.49854">
        <ele>2063.6000976562</ele>
        <time>2023-07-22T06:02:54.000Z</time>
      </trkpt>
      <trkpt lat="42.63436" lon="1.49848">
        <ele>2064.3999023438</ele>
        <time>2023-07-22T06:03:01.000Z</time>
      </trkpt>
      <trkpt lat="42.63437" lon="1.49847">
        <ele>2064.6000976562</ele>
        <time>2023-07-22T06:03:02.000Z</time>
      </trkpt>
      <trkpt lat="42.63438" lon="1.49837">
        <ele>2064.3999023438</ele>
        <time>2023-07-22T06:03:10.000Z</time>
      </trkpt>
      <trkpt lat="42.63437" lon="1.49831">
        <ele>2063.6000976562</ele>
        <time>2023-07-22T06:03:17.000Z</time>
      </trkpt>
      <trkpt lat="42.63437" lon="1.49831">
        <ele>2063.3999023438</ele>
        <time>2023-07-22T06:03:18.000Z</time>
      </trkpt>
      <trkpt lat="42.63438" lon="1.49823">
        <ele>2062.3999023438</ele>
        <time>2023-07-22T06:03:25.000Z</time>
      </trkpt>
      <trkpt lat="42.63437" lon="1.49823">
        <ele>2062.1999511719</ele>
        <time>2023-07-22T06:03:26.000Z</time>
      </trkpt>
      <trkpt lat="42.63438" lon="1.49816">
        <ele>2061.1999511719</ele>
        <time>2023-07-22T06:03:31.000Z</time>
      </trkpt>
      <trkpt lat="42.63439" lon="1.49813">
        <ele>2060.8000488281</ele>
        <time>2023-07-22T06:03:34.000Z</time>
      </trkpt>
      <trkpt lat="42.63441" lon="1.49803">
        <ele>2060.3999023438</ele>
        <time>2023-07-22T06:03:41.000Z</time>
      </trkpt>
      <trkpt lat="42.63442" lon="1.49799">
        <ele>2060.6000976562</ele>
        <time>2023-07-22T06:03:45.000Z</time>
      </trkpt>
      <trkpt lat="42.63444" lon="1.49791">
        <ele>2061.1999511719</ele>
        <time>2023-07-22T06:03:53.000Z</time>
      </trkpt>
      <trkpt lat="42.63449" lon="1.49789">
        <ele>2062.3999023438</ele>
        <time>2023-07-22T06:04:01.000Z</time>
      </trkpt>
      <trkpt lat="42.6345" lon="1.49786">
        <ele>2063.3999023438</ele>
        <time>2023-07-22T06:04:09.000Z</time>
      </trkpt>
      <trkpt lat="42.63451" lon="1.4978">
        <ele>2064.6000976562</ele>
        <time>2023-07-22T06:04:17.000Z</time>
      </trkpt>
      <trkpt lat="42.63452" lon="1.49779">
        <ele>2064.8000488281</ele>
        <time>2023-07-22T06:04:19.000Z</time>
      </trkpt>
      <trkpt lat="42.63454" lon="1.49774">
        <ele>2065.6000976562</ele>
        <time>2023-07-22T06:04:25.000Z</time>
      </trkpt>
      <trkpt lat="42.63454" lon="1.49771">
        <ele>2066</ele>
        <time>2023-07-22T06:04:28.000Z</time>
      </trkpt>
      <trkpt lat="42.63456" lon="1.49767">
        <ele>2066.8000488281</ele>
        <time>2023-07-22T06:04:34.000Z</time>
      </trkpt>
      <trkpt lat="42.63458" lon="1.49765">
        <ele>2067</ele>
        <time>2023-07-22T06:04:37.000Z</time>
      </trkpt>
      <trkpt lat="42.63457" lon="1.49759">
        <ele>2067.8000488281</ele>
        <time>2023-07-22T06:04:45.000Z</time>
      </trkpt>
      <trkpt lat="42.63456" lon="1.49759">
        <ele>2067.8000488281</ele>
        <time>2023-07-22T06:04:46.000Z</time>
      </trkpt>
      <trkpt lat="42.63456" lon="1.49753">
        <ele>2068.8000488281</ele>
        <time>2023-07-22T06:04:54.000Z</time>
      </trkpt>
      <trkpt lat="42.63456" lon="1.49753">
        <ele>2068.8000488281</ele>
        <time>2023-07-22T06:04:55.000Z</time>
      </trkpt>
      <trkpt lat="42.63456" lon="1.49749">
        <ele>2069.6000976562</ele>
        <time>2023-07-22T06:05:02.000Z</time>
      </trkpt>
      <trkpt lat="42.63456" lon="1.49745">
        <ele>2070</ele>
        <time>2023-07-22T06:05:06.000Z</time>
      </trkpt>
      <trkpt lat="42.63456" lon="1.49742">
        <ele>2070</ele>
        <time>2023-07-22T06:05:10.000Z</time>
      </trkpt>
      <trkpt lat="42.63455" lon="1.49732">
        <ele>2070.3999023438</ele>
        <time>2023-07-22T06:05:18.000Z</time>
      </trkpt>
      <trkpt lat="42.63456" lon="1.49729">
        <ele>2070.3999023438</ele>
        <time>2023-07-22T06:05:25.000Z</time>
      </trkpt>
      <trkpt lat="42.63457" lon="1.49723">
        <ele>2071</ele>
        <time>2023-07-22T06:05:31.000Z</time>
      </trkpt>
      <trkpt lat="42.63458" lon="1.4972">
        <ele>2071.1999511719</ele>
        <time>2023-07-22T06:05:33.000Z</time>
      </trkpt>
      <trkpt lat="42.63459" lon="1.49719">
        <ele>2072</ele>
        <time>2023-07-22T06:05:38.000Z</time>
      </trkpt>
      <trkpt lat="42.6346" lon="1.4972">
        <ele>2072</ele>
        <time>2023-07-22T06:05:40.000Z</time>
      </trkpt>
      <trkpt lat="42.63462" lon="1.49724">
        <ele>2072</ele>
        <time>2023-07-22T06:05:48.000Z</time>
      </trkpt>
      <trkpt lat="42.63461" lon="1.49719">
        <ele>2072</ele>
        <time>2023-07-22T06:05:55.000Z</time>
      </trkpt>
      <trkpt lat="42.63465" lon="1.49715">
        <ele>2072.8000488281</ele>
        <time>2023-07-22T06:06:03.000Z</time>
      </trkpt>
      <trkpt lat="42.63466" lon="1.49713">
        <ele>2073.1999511719</ele>
        <time>2023-07-22T06:06:06.000Z</time>
      </trkpt>
      <trkpt lat="42.63469" lon="1.49707">
        <ele>2074</ele>
        <time>2023-07-22T06:06:13.000Z</time>
      </trkpt>
      <trkpt lat="42.6347" lon="1.49707">
        <ele>2074.1999511719</ele>
        <time>2023-07-22T06:06:14.000Z</time>
      </trkpt>
      <trkpt lat="42.6347" lon="1.49713">
        <ele>2074.8000488281</ele>
        <time>2023-07-22T06:06:20.000Z</time>
      </trkpt>
      <trkpt lat="42.63471" lon="1.49715">
        <ele>2075.1999511719</ele>
        <time>2023-07-22T06:06:23.000Z</time>
      </trkpt>
      <trkpt lat="42.63471" lon="1.49715">
        <ele>2075.8000488281</ele>
        <time>2023-07-22T06:06:27.000Z</time>
      </trkpt>
      <trkpt lat="42.63472" lon="1.49714">
        <ele>2076.1999511719</ele>
        <time>2023-07-22T06:06:36.000Z</time>
      </trkpt>
      <trkpt lat="42.63473" lon="1.49711">
        <ele>2077</ele>
        <time>2023-07-22T06:06:44.000Z</time>
      </trkpt>
      <trkpt lat="42.63478" lon="1.4971">
        <ele>2077.3999023438</ele>
        <time>2023-07-22T06:06:49.000Z</time>
      </trkpt>
      <trkpt lat="42.6348" lon="1.49709">
        <ele>2077.6000976562</ele>
        <time>2023-07-22T06:06:51.000Z</time>
      </trkpt>
      <trkpt lat="42.63483" lon="1.49706">
        <ele>2078.3999023438</ele>
        <time>2023-07-22T06:06:57.000Z</time>
      </trkpt>
      <trkpt lat="42.63484" lon="1.49706">
        <ele>2078.6000976562</ele>
        <time>2023-07-22T06:06:58.000Z</time>
      </trkpt>
      <trkpt lat="42.63489" lon="1.49709">
        <ele>2079.8000488281</ele>
        <time>2023-07-22T06:07:07.000Z</time>
      </trkpt>
      <trkpt lat="42.63489" lon="1.4971">
        <ele>2080.1999511719</ele>
        <time>2023-07-22T06:07:09.000Z</time>
      </trkpt>
      <trkpt lat="42.6349" lon="1.4971">
        <ele>2080.3999023438</ele>
        <time>2023-07-22T06:07:12.000Z</time>
      </trkpt>
      <trkpt lat="42.6349" lon="1.4971">
        <ele>2080.6000976562</ele>
        <time>2023-07-22T06:07:14.000Z</time>
      </trkpt>
      <trkpt lat="42.63491" lon="1.49708">
        <ele>2080.8000488281</ele>
        <time>2023-07-22T06:07:17.000Z</time>
      </trkpt>
      <trkpt lat="42.63494" lon="1.49705">
        <ele>2081</ele>
        <time>2023-07-22T06:07:21.000Z</time>
      </trkpt>
      <trkpt lat="42.63498" lon="1.497">
        <ele>2081.3999023438</ele>
        <time>2023-07-22T06:07:28.000Z</time>
      </trkpt>
      <trkpt lat="42.63501" lon="1.49698">
        <ele>2081.6000976562</ele>
        <time>2023-07-22T06:07:31.000Z</time>
      </trkpt>
      <trkpt lat="42.635" lon="1.49697">
        <ele>2082</ele>
        <time>2023-07-22T06:07:35.000Z</time>
      </trkpt>
      <trkpt lat="42.63499" lon="1.49697">
        <ele>2082.3999023438</ele>
        <time>2023-07-22T06:07:40.000Z</time>
      </trkpt>
      <trkpt lat="42.63501" lon="1.49696">
        <ele>2082.6000976562</ele>
        <time>2023-07-22T06:07:42.000Z</time>
      </trkpt>
      <trkpt lat="42.63503" lon="1.49697">
        <ele>2082.6000976562</ele>
        <time>2023-07-22T06:07:48.000Z</time>
      </trkpt>
      <trkpt lat="42.63502" lon="1.49697">
        <ele>2082.6000976562</ele>
        <time>2023-07-22T06:07:50.000Z</time>
      </trkpt>
      <trkpt lat="42.63501" lon="1.49696">
        <ele>2082.8000488281</ele>
        <time>2023-07-22T06:07:53.000Z</time>
      </trkpt>
      <trkpt lat="42.63501" lon="1.49695">
        <ele>2082.8000488281</ele>
        <time>2023-07-22T06:07:55.000Z</time>
      </trkpt>
      <trkpt lat="42.63499" lon="1.49692">
        <ele>2082.6000976562</ele>
        <time>2023-07-22T06:08:05.000Z</time>
      </trkpt>
      <trkpt lat="42.635" lon="1.49696">
        <ele>2082.3999023438</ele>
        <time>2023-07-22T06:08:13.000Z</time>
      </trkpt>
      <trkpt lat="42.63502" lon="1.49696">
        <ele>2082.3999023438</ele>
        <time>2023-07-22T06:08:20.000Z</time>
      </trkpt>
      <trkpt lat="42.63499" lon="1.49697">
        <ele>2082.8000488281</ele>
        <time>2023-07-22T06:08:48.000Z</time>
      </trkpt>
      <trkpt lat="42.63503" lon="1.49696">
        <ele>2082.3999023438</ele>
        <time>2023-07-22T06:08:55.000Z</time>
      </trkpt>
      <trkpt lat="42.63506" lon="1.49694">
        <ele>2082.1999511719</ele>
        <time>2023-07-22T06:09:03.000Z</time>
      </trkpt>
      <trkpt lat="42.63504" lon="1.49694">
        <ele>2082</ele>
        <time>2023-07-22T06:09:11.000Z</time>
      </trkpt>
      <trkpt lat="42.63506" lon="1.49695">
        <ele>2082</ele>
        <time>2023-07-22T06:09:20.000Z</time>
      </trkpt>
      <trkpt lat="42.63506" lon="1.49694">
        <ele>2082.1999511719</ele>
        <time>2023-07-22T06:09:30.000Z</time>
      </trkpt>
      <trkpt lat="42.63506" lon="1.49696">
        <ele>2082</ele>
        <time>2023-07-22T06:09:38.000Z</time>
      </trkpt>
      <trkpt lat="42.63506" lon="1.49695">
        <ele>2082.1999511719</ele>
        <time>2023-07-22T06:09:47.000Z</time>
      </trkpt>
      <trkpt lat="42.63506" lon="1.49697">
        <ele>2082.1999511719</ele>
        <time>2023-07-22T06:09:54.000Z</time>
      </trkpt>
      <trkpt lat="42.63503" lon="1.49697">
        <ele>2082.1999511719</ele>
        <time>2023-07-22T06:10:02.000Z</time>
      </trkpt>
      <trkpt lat="42.63503" lon="1.49698">
        <ele>2082.1999511719</ele>
        <time>2023-07-22T06:10:08.000Z</time>
      </trkpt>
      <trkpt lat="42.63503" lon="1.49697">
        <ele>2082.1999511719</ele>
        <time>2023-07-22T06:10:16.000Z</time>
      </trkpt>
      <trkpt lat="42.63504" lon="1.49695">
        <ele>2082.1999511719</ele>
        <time>2023-07-22T06:10:24.000Z</time>
      </trkpt>
      <trkpt lat="42.63505" lon="1.49697">
        <ele>2082</ele>
        <time>2023-07-22T06:10:32.000Z</time>
      </trkpt>
      <trkpt lat="42.63503" lon="1.49695">
        <ele>2082</ele>
        <time>2023-07-22T06:10:41.000Z</time>
      </trkpt>
      <trkpt lat="42.63506" lon="1.49693">
        <ele>2082</ele>
        <time>2023-07-22T06:10:48.000Z</time>
      </trkpt>
      <trkpt lat="42.63513" lon="1.49692">
        <ele>2082.8000488281</ele>
        <time>2023-07-22T06:10:55.000Z</time>
      </trkpt>
      <trkpt lat="42.63518" lon="1.49686">
        <ele>2083.8000488281</ele>
        <time>2023-07-22T06:11:03.000Z</time>
      </trkpt>
      <trkpt lat="42.63526" lon="1.49683">
        <ele>2084.6000976562</ele>
        <time>2023-07-22T06:11:12.000Z</time>
      </trkpt>
      <trkpt lat="42.63527" lon="1.49682">
        <ele>2085</ele>
        <time>2023-07-22T06:11:16.000Z</time>
      </trkpt>
      <trkpt lat="42.63532" lon="1.49678">
        <ele>2085</ele>
        <time>2023-07-22T06:11:21.000Z</time>
      </trkpt>
      <trkpt lat="42.63538" lon="1.49674">
        <ele>2085.1999511719</ele>
        <time>2023-07-22T06:11:31.000Z</time>
      </trkpt>
      <trkpt lat="42.63541" lon="1.49667">
        <ele>2085.1999511719</ele>
        <time>2023-07-22T06:11:38.000Z</time>
      </trkpt>
      <trkpt lat="42.63542" lon="1.49663">
        <ele>2085.1999511719</ele>
        <time>2023-07-22T06:11:45.000Z</time>
      </trkpt>
      <trkpt lat="42.63542" lon="1.49661">
        <ele>2085.1999511719</ele>
        <time>2023-07-22T06:11:47.000Z</time>
      </trkpt>
      <trkpt lat="42.63545" lon="1.49656">
        <ele>2085</ele>
        <time>2023-07-22T06:11:52.000Z</time>
      </trkpt>
      <trkpt lat="42.63547" lon="1.49652">
        <ele>2085.3999023438</ele>
        <time>2023-07-22T06:11:59.000Z</time>
      </trkpt>
      <trkpt lat="42.63548" lon="1.49646">
        <ele>2086</ele>
        <time>2023-07-22T06:12:04.000Z</time>
      </trkpt>
      <trkpt lat="42.63547" lon="1.49644">
        <ele>2086</ele>
        <time>2023-07-22T06:12:07.000Z</time>
      </trkpt>
      <trkpt lat="42.63545" lon="1.49639">
        <ele>2086.1999511719</ele>
        <time>2023-07-22T06:12:14.000Z</time>
      </trkpt>
      <trkpt lat="42.63545" lon="1.49635">
        <ele>2086.3999023438</ele>
        <time>2023-07-22T06:12:20.000Z</time>
      </trkpt>
      <trkpt lat="42.6355" lon="1.49639">
        <ele>2086.6000976562</ele>
        <time>2023-07-22T06:12:26.000Z</time>
      </trkpt>
      <trkpt lat="42.63549" lon="1.49637">
        <ele>2086.8000488281</ele>
        <time>2023-07-22T06:12:37.000Z</time>
      </trkpt>
      <trkpt lat="42.63547" lon="1.49636">
        <ele>2086.8000488281</ele>
        <time>2023-07-22T06:12:45.000Z</time>
      </trkpt>
      <trkpt lat="42.63548" lon="1.49638">
        <ele>2087</ele>
        <time>2023-07-22T06:12:47.000Z</time>
      </trkpt>
      <trkpt lat="42.63549" lon="1.49639">
        <ele>2087</ele>
        <time>2023-07-22T06:12:52.000Z</time>
      </trkpt>
      <trkpt lat="42.63543" lon="1.49635">
        <ele>2087</ele>
        <time>2023-07-22T06:12:59.000Z</time>
      </trkpt>
      <trkpt lat="42.6354" lon="1.49631">
        <ele>2086.6000976562</ele>
        <time>2023-07-22T06:13:05.000Z</time>
      </trkpt>
      <trkpt lat="42.63537" lon="1.49624">
        <ele>2086.6000976562</ele>
        <time>2023-07-22T06:13:11.000Z</time>
      </trkpt>
      <trkpt lat="42.63535" lon="1.49619">
        <ele>2086.6000976562</ele>
        <time>2023-07-22T06:13:18.000Z</time>
      </trkpt>
      <trkpt lat="42.63532" lon="1.49615">
        <ele>2087</ele>
        <time>2023-07-22T06:13:25.000Z</time>
      </trkpt>
      <trkpt lat="42.63529" lon="1.49608">
        <ele>2087.6000976562</ele>
        <time>2023-07-22T06:13:32.000Z</time>
      </trkpt>
      <trkpt lat="42.63526" lon="1.49603">
        <ele>2088</ele>
        <time>2023-07-22T06:13:41.000Z</time>
      </trkpt>
      <trkpt lat="42.63526" lon="1.49602">
        <ele>2088</ele>
        <time>2023-07-22T06:13:42.000Z</time>
      </trkpt>
      <trkpt lat="42.63525" lon="1.49592">
        <ele>2088.8000488281</ele>
        <time>2023-07-22T06:13:51.000Z</time>
      </trkpt>
      <trkpt lat="42.63526" lon="1.49591">
        <ele>2089</ele>
        <time>2023-07-22T06:13:53.000Z</time>
      </trkpt>
      <trkpt lat="42.63524" lon="1.49586">
        <ele>2089.6000976562</ele>
        <time>2023-07-22T06:13:59.000Z</time>
      </trkpt>
      <trkpt lat="42.63523" lon="1.49579">
        <ele>2089.3999023438</ele>
        <time>2023-07-22T06:14:06.000Z</time>
      </trkpt>
      <trkpt lat="42.63522" lon="1.49574">
        <ele>2089.8000488281</ele>
        <time>2023-07-22T06:14:13.000Z</time>
      </trkpt>
      <trkpt lat="42.63521" lon="1.49573">
        <ele>2090</ele>
        <time>2023-07-22T06:14:14.000Z</time>
      </trkpt>
      <trkpt lat="42.63519" lon="1.49572">
        <ele>2090</ele>
        <time>2023-07-22T06:14:20.000Z</time>
      </trkpt>
      <trkpt lat="42.63516" lon="1.49565">
        <ele>2091</ele>
        <time>2023-07-22T06:14:29.000Z</time>
      </trkpt>
      <trkpt lat="42.63516" lon="1.49566">
        <ele>2091</ele>
        <time>2023-07-22T06:14:30.000Z</time>
      </trkpt>
      <trkpt lat="42.63517" lon="1.49566">
        <ele>2091.1999511719</ele>
        <time>2023-07-22T06:14:32.000Z</time>
      </trkpt>
      <trkpt lat="42.63518" lon="1.49563">
        <ele>2091.1999511719</ele>
        <time>2023-07-22T06:14:35.000Z</time>
      </trkpt>
      <trkpt lat="42.63518" lon="1.49563">
        <ele>2091.1999511719</ele>
        <time>2023-07-22T06:14:36.000Z</time>
      </trkpt>
      <trkpt lat="42.6352" lon="1.49563">
        <ele>2091.1999511719</ele>
        <time>2023-07-22T06:14:44.000Z</time>
      </trkpt>
      <trkpt lat="42.63516" lon="1.49564">
        <ele>2091.1999511719</ele>
        <time>2023-07-22T06:14:51.000Z</time>
      </trkpt>
      <trkpt lat="42.63513" lon="1.4956">
        <ele>2091.1999511719</ele>
        <time>2023-07-22T06:14:58.000Z</time>
      </trkpt>
      <trkpt lat="42.63507" lon="1.49552">
        <ele>2091.3999023438</ele>
        <time>2023-07-22T06:15:07.000Z</time>
      </trkpt>
      <trkpt lat="42.63504" lon="1.49548">
        <ele>2091.6000976562</ele>
        <time>2023-07-22T06:15:12.000Z</time>
      </trkpt>
      <trkpt lat="42.63504" lon="1.49544">
        <ele>2092</ele>
        <time>2023-07-22T06:15:16.000Z</time>
      </trkpt>
      <trkpt lat="42.63504" lon="1.49541">
        <ele>2092.1999511719</ele>
        <time>2023-07-22T06:15:20.000Z</time>
      </trkpt>
      <trkpt lat="42.63503" lon="1.49533">
        <ele>2092</ele>
        <time>2023-07-22T06:15:27.000Z</time>
      </trkpt>
      <trkpt lat="42.635" lon="1.49527">
        <ele>2092.8000488281</ele>
        <time>2023-07-22T06:15:35.000Z</time>
      </trkpt>
      <trkpt lat="42.63498" lon="1.49522">
        <ele>2092.8000488281</ele>
        <time>2023-07-22T06:15:42.000Z</time>
      </trkpt>
      <trkpt lat="42.63496" lon="1.49512">
        <ele>2092.8000488281</ele>
        <time>2023-07-22T06:15:51.000Z</time>
      </trkpt>
      <trkpt lat="42.63496" lon="1.49508">
        <ele>2093.1999511719</ele>
        <time>2023-07-22T06:15:55.000Z</time>
      </trkpt>
      <trkpt lat="42.63497" lon="1.49504">
        <ele>2093.3999023438</ele>
        <time>2023-07-22T06:15:59.000Z</time>
      </trkpt>
      <trkpt lat="42.63492" lon="1.49495">
        <ele>2093.6000976562</ele>
        <time>2023-07-22T06:16:07.000Z</time>
      </trkpt>
      <trkpt lat="42.63491" lon="1.49488">
        <ele>2094.1999511719</ele>
        <time>2023-07-22T06:16:15.000Z</time>
      </trkpt>
      <trkpt lat="42.63491" lon="1.49487">
        <ele>2094.1999511719</ele>
        <time>2023-07-22T06:16:16.000Z</time>
      </trkpt>
      <trkpt lat="42.63488" lon="1.49479">
        <ele>2094.6000976562</ele>
        <time>2023-07-22T06:16:25.000Z</time>
      </trkpt>
      <trkpt lat="42.63487" lon="1.49474">
        <ele>2095</ele>
        <time>2023-07-22T06:16:31.000Z</time>
      </trkpt>
      <trkpt lat="42.63484" lon="1.49469">
        <ele>2094.3999023438</ele>
        <time>2023-07-22T06:16:38.000Z</time>
      </trkpt>
      <trkpt lat="42.63481" lon="1.49465">
        <ele>2094.8000488281</ele>
        <time>2023-07-22T06:16:45.000Z</time>
      </trkpt>
      <trkpt lat="42.63479" lon="1.49458">
        <ele>2095.3999023438</ele>
        <time>2023-07-22T06:16:51.000Z</time>
      </trkpt>
      <trkpt lat="42.63478" lon="1.49457">
        <ele>2095.8000488281</ele>
        <time>2023-07-22T06:16:54.000Z</time>
      </trkpt>
      <trkpt lat="42.63475" lon="1.49454">
        <ele>2096.6000976562</ele>
        <time>2023-07-22T06:16:59.000Z</time>
      </trkpt>
      <trkpt lat="42.63475" lon="1.4945">
        <ele>2096.8000488281</ele>
        <time>2023-07-22T06:17:02.000Z</time>
      </trkpt>
      <trkpt lat="42.63475" lon="1.49445">
        <ele>2097.6000976562</ele>
        <time>2023-07-22T06:17:06.000Z</time>
      </trkpt>
      <trkpt lat="42.63478" lon="1.49443">
        <ele>2098.3999023438</ele>
        <time>2023-07-22T06:17:11.000Z</time>
      </trkpt>
      <trkpt lat="42.63478" lon="1.49443">
        <ele>2098.6000976562</ele>
        <time>2023-07-22T06:17:12.000Z</time>
      </trkpt>
      <trkpt lat="42.63481" lon="1.49436">
        <ele>2099.6000976562</ele>
        <time>2023-07-22T06:17:20.000Z</time>
      </trkpt>
      <trkpt lat="42.63482" lon="1.49429">
        <ele>2100.8000488281</ele>
        <time>2023-07-22T06:17:29.000Z</time>
      </trkpt>
      <trkpt lat="42.63481" lon="1.49422">
        <ele>2101.8000488281</ele>
        <time>2023-07-22T06:17:37.000Z</time>
      </trkpt>
      <trkpt lat="42.63479" lon="1.49416">
        <ele>2102.8000488281</ele>
        <time>2023-07-22T06:17:43.000Z</time>
      </trkpt>
      <trkpt lat="42.63479" lon="1.49415">
        <ele>2103</ele>
        <time>2023-07-22T06:17:45.000Z</time>
      </trkpt>
      <trkpt lat="42.63477" lon="1.49409">
        <ele>2104</ele>
        <time>2023-07-22T06:17:52.000Z</time>
      </trkpt>
      <trkpt lat="42.63477" lon="1.49408">
        <ele>2104</ele>
        <time>2023-07-22T06:17:53.000Z</time>
      </trkpt>
      <trkpt lat="42.63479" lon="1.494">
        <ele>2104.8000488281</ele>
        <time>2023-07-22T06:18:02.000Z</time>
      </trkpt>
      <trkpt lat="42.63481" lon="1.49401">
        <ele>2105</ele>
        <time>2023-07-22T06:18:05.000Z</time>
      </trkpt>
      <trkpt lat="42.63484" lon="1.49402">
        <ele>2105.6000976562</ele>
        <time>2023-07-22T06:18:10.000Z</time>
      </trkpt>
      <trkpt lat="42.63487" lon="1.49404">
        <ele>2106</ele>
        <time>2023-07-22T06:18:14.000Z</time>
      </trkpt>
      <trkpt lat="42.63489" lon="1.49404">
        <ele>2106.3999023438</ele>
        <time>2023-07-22T06:18:18.000Z</time>
      </trkpt>
      <trkpt lat="42.63492" lon="1.49404">
        <ele>2107.1999511719</ele>
        <time>2023-07-22T06:18:24.000Z</time>
      </trkpt>
      <trkpt lat="42.63492" lon="1.49403">
        <ele>2107.1999511719</ele>
        <time>2023-07-22T06:18:26.000Z</time>
      </trkpt>
      <trkpt lat="42.63489" lon="1.494">
        <ele>2107.8000488281</ele>
        <time>2023-07-22T06:18:34.000Z</time>
      </trkpt>
      <trkpt lat="42.63489" lon="1.49397">
        <ele>2108.1999511719</ele>
        <time>2023-07-22T06:18:38.000Z</time>
      </trkpt>
      <trkpt lat="42.63488" lon="1.49392">
        <ele>2109.1999511719</ele>
        <time>2023-07-22T06:18:44.000Z</time>
      </trkpt>
      <trkpt lat="42.63488" lon="1.49391">
        <ele>2109.3999023438</ele>
        <time>2023-07-22T06:18:45.000Z</time>
      </trkpt>
      <trkpt lat="42.63484" lon="1.49386">
        <ele>2109.8000488281</ele>
        <time>2023-07-22T06:18:52.000Z</time>
      </trkpt>
      <trkpt lat="42.63484" lon="1.4938">
        <ele>2110.3999023438</ele>
        <time>2023-07-22T06:18:58.000Z</time>
      </trkpt>
      <trkpt lat="42.63483" lon="1.49377">
        <ele>2110.8000488281</ele>
        <time>2023-07-22T06:19:01.000Z</time>
      </trkpt>
      <trkpt lat="42.63483" lon="1.49376">
        <ele>2111.3999023438</ele>
        <time>2023-07-22T06:19:07.000Z</time>
      </trkpt>
      <trkpt lat="42.63483" lon="1.49376">
        <ele>2111.6000976562</ele>
        <time>2023-07-22T06:19:08.000Z</time>
      </trkpt>
      <trkpt lat="42.63484" lon="1.49376">
        <ele>2111.8000488281</ele>
        <time>2023-07-22T06:19:20.000Z</time>
      </trkpt>
      <trkpt lat="42.63483" lon="1.49375">
        <ele>2111.8000488281</ele>
        <time>2023-07-22T06:19:29.000Z</time>
      </trkpt>
      <trkpt lat="42.63484" lon="1.49374">
        <ele>2111.8000488281</ele>
        <time>2023-07-22T06:19:40.000Z</time>
      </trkpt>
      <trkpt lat="42.63486" lon="1.49376">
        <ele>2112.3999023438</ele>
        <time>2023-07-22T06:19:49.000Z</time>
      </trkpt>
      <trkpt lat="42.63488" lon="1.49378">
        <ele>2112.6000976562</ele>
        <time>2023-07-22T06:19:50.000Z</time>
      </trkpt>
      <trkpt lat="42.6349" lon="1.4938">
        <ele>2113.1999511719</ele>
        <time>2023-07-22T06:19:54.000Z</time>
      </trkpt>
      <trkpt lat="42.6349" lon="1.49378">
        <ele>2113.8000488281</ele>
        <time>2023-07-22T06:19:57.000Z</time>
      </trkpt>
      <trkpt lat="42.63489" lon="1.49375">
        <ele>2114</ele>
        <time>2023-07-22T06:20:00.000Z</time>
      </trkpt>
      <trkpt lat="42.6349" lon="1.49369">
        <ele>2114.8000488281</ele>
        <time>2023-07-22T06:20:06.000Z</time>
      </trkpt>
      <trkpt lat="42.63491" lon="1.49369">
        <ele>2115</ele>
        <time>2023-07-22T06:20:08.000Z</time>
      </trkpt>
      <trkpt lat="42.63492" lon="1.4937">
        <ele>2115.3999023438</ele>
        <time>2023-07-22T06:20:10.000Z</time>
      </trkpt>
      <trkpt lat="42.63492" lon="1.49371">
        <ele>2115.8000488281</ele>
        <time>2023-07-22T06:20:13.000Z</time>
      </trkpt>
      <trkpt lat="42.63493" lon="1.49373">
        <ele>2116.1999511719</ele>
        <time>2023-07-22T06:20:15.000Z</time>
      </trkpt>
      <trkpt lat="42.63495" lon="1.49376">
        <ele>2117</ele>
        <time>2023-07-22T06:20:20.000Z</time>
      </trkpt>
      <trkpt lat="42.63497" lon="1.49376">
        <ele>2117.3999023438</ele>
        <time>2023-07-22T06:20:23.000Z</time>
      </trkpt>
      <trkpt lat="42.63498" lon="1.49375">
        <ele>2117.6000976562</ele>
        <time>2023-07-22T06:20:25.000Z</time>
      </trkpt>
      <trkpt lat="42.63498" lon="1.49374">
        <ele>2117.8000488281</ele>
        <time>2023-07-22T06:20:28.000Z</time>
      </trkpt>
      <trkpt lat="42.63498" lon="1.49373">
        <ele>2118</ele>
        <time>2023-07-22T06:20:29.000Z</time>
      </trkpt>
      <trkpt lat="42.63498" lon="1.49368">
        <ele>2118.8000488281</ele>
        <time>2023-07-22T06:20:37.000Z</time>
      </trkpt>
      <trkpt lat="42.63498" lon="1.49368">
        <ele>2119</ele>
        <time>2023-07-22T06:20:40.000Z</time>
      </trkpt>
      <trkpt lat="42.63499" lon="1.49367">
        <ele>2119.3999023438</ele>
        <time>2023-07-22T06:20:44.000Z</time>
      </trkpt>
      <trkpt lat="42.635" lon="1.49363">
        <ele>2120</ele>
        <time>2023-07-22T06:20:50.000Z</time>
      </trkpt>
      <trkpt lat="42.63499" lon="1.49363">
        <ele>2120.1999511719</ele>
        <time>2023-07-22T06:20:51.000Z</time>
      </trkpt>
      <trkpt lat="42.63498" lon="1.49358">
        <ele>2121</ele>
        <time>2023-07-22T06:20:57.000Z</time>
      </trkpt>
      <trkpt lat="42.63498" lon="1.49358">
        <ele>2121.1999511719</ele>
        <time>2023-07-22T06:20:58.000Z</time>
      </trkpt>
      <trkpt lat="42.63499" lon="1.49353">
        <ele>2122.1999511719</ele>
        <time>2023-07-22T06:21:05.000Z</time>
      </trkpt>
      <trkpt lat="42.63499" lon="1.49352">
        <ele>2122.3999023438</ele>
        <time>2023-07-22T06:21:06.000Z</time>
      </trkpt>
      <trkpt lat="42.63497" lon="1.49348">
        <ele>2123</ele>
        <time>2023-07-22T06:21:12.000Z</time>
      </trkpt>
      <trkpt lat="42.63495" lon="1.49344">
        <ele>2123.3999023438</ele>
        <time>2023-07-22T06:21:16.000Z</time>
      </trkpt>
      <trkpt lat="42.63496" lon="1.49344">
        <ele>2123.3999023438</ele>
        <time>2023-07-22T06:21:20.000Z</time>
      </trkpt>
      <trkpt lat="42.63498" lon="1.49343">
        <ele>2124.3999023438</ele>
        <time>2023-07-22T06:21:28.000Z</time>
      </trkpt>
      <trkpt lat="42.63498" lon="1.49343">
        <ele>2124.8000488281</ele>
        <time>2023-07-22T06:21:29.000Z</time>
      </trkpt>
      <trkpt lat="42.63499" lon="1.49341">
        <ele>2125.3999023438</ele>
        <time>2023-07-22T06:21:33.000Z</time>
      </trkpt>
      <trkpt lat="42.63499" lon="1.49339">
        <ele>2125.8000488281</ele>
        <time>2023-07-22T06:21:36.000Z</time>
      </trkpt>
      <trkpt lat="42.63498" lon="1.49337">
        <ele>2126.6000976562</ele>
        <time>2023-07-22T06:21:40.000Z</time>
      </trkpt>
      <trkpt lat="42.63497" lon="1.49334">
        <ele>2127.6000976562</ele>
        <time>2023-07-22T06:21:45.000Z</time>
      </trkpt>
      <trkpt lat="42.63497" lon="1.49331">
        <ele>2129</ele>
        <time>2023-07-22T06:21:49.000Z</time>
      </trkpt>
      <trkpt lat="42.63497" lon="1.4933">
        <ele>2129.8000488281</ele>
        <time>2023-07-22T06:21:52.000Z</time>
      </trkpt>
      <trkpt lat="42.63497" lon="1.49329">
        <ele>2130</ele>
        <time>2023-07-22T06:21:54.000Z</time>
      </trkpt>
      <trkpt lat="42.63499" lon="1.49322">
        <ele>2131.1999511719</ele>
        <time>2023-07-22T06:22:01.000Z</time>
      </trkpt>
      <trkpt lat="42.635" lon="1.49316">
        <ele>2132</ele>
        <time>2023-07-22T06:22:08.000Z</time>
      </trkpt>
      <trkpt lat="42.63499" lon="1.49315">
        <ele>2132.1999511719</ele>
        <time>2023-07-22T06:22:10.000Z</time>
      </trkpt>
      <trkpt lat="42.63498" lon="1.49313">
        <ele>2132.8000488281</ele>
        <time>2023-07-22T06:22:15.000Z</time>
      </trkpt>
      <trkpt lat="42.63496" lon="1.49309">
        <ele>2133</ele>
        <time>2023-07-22T06:22:20.000Z</time>
      </trkpt>
      <trkpt lat="42.63496" lon="1.49305">
        <ele>2133.3999023438</ele>
        <time>2023-07-22T06:22:22.000Z</time>
      </trkpt>
      <trkpt lat="42.63493" lon="1.49303">
        <ele>2134.3999023438</ele>
        <time>2023-07-22T06:22:29.000Z</time>
      </trkpt>
      <trkpt lat="42.63491" lon="1.49301">
        <ele>2135.6000976562</ele>
        <time>2023-07-22T06:22:36.000Z</time>
      </trkpt>
      <trkpt lat="42.63491" lon="1.49299">
        <ele>2136</ele>
        <time>2023-07-22T06:22:38.000Z</time>
      </trkpt>
      <trkpt lat="42.63491" lon="1.49295">
        <ele>2136.8000488281</ele>
        <time>2023-07-22T06:22:42.000Z</time>
      </trkpt>
      <trkpt lat="42.6349" lon="1.49294">
        <ele>2137</ele>
        <time>2023-07-22T06:22:44.000Z</time>
      </trkpt>
      <trkpt lat="42.63488" lon="1.49291">
        <ele>2137.8000488281</ele>
        <time>2023-07-22T06:22:48.000Z</time>
      </trkpt>
      <trkpt lat="42.63485" lon="1.49289">
        <ele>2138.3999023438</ele>
        <time>2023-07-22T06:22:53.000Z</time>
      </trkpt>
      <trkpt lat="42.63484" lon="1.49287">
        <ele>2138.8000488281</ele>
        <time>2023-07-22T06:22:55.000Z</time>
      </trkpt>
      <trkpt lat="42.63482" lon="1.49284">
        <ele>2139.8000488281</ele>
        <time>2023-07-22T06:23:02.000Z</time>
      </trkpt>
      <trkpt lat="42.63481" lon="1.49283">
        <ele>2140</ele>
        <time>2023-07-22T06:23:04.000Z</time>
      </trkpt>
      <trkpt lat="42.6348" lon="1.4928">
        <ele>2140.8000488281</ele>
        <time>2023-07-22T06:23:10.000Z</time>
      </trkpt>
      <trkpt lat="42.6348" lon="1.4928">
        <ele>2141</ele>
        <time>2023-07-22T06:23:11.000Z</time>
      </trkpt>
      <trkpt lat="42.63479" lon="1.49275">
        <ele>2142</ele>
        <time>2023-07-22T06:23:17.000Z</time>
      </trkpt>
      <trkpt lat="42.63474" lon="1.49269">
        <ele>2142.8000488281</ele>
        <time>2023-07-22T06:23:23.000Z</time>
      </trkpt>
      <trkpt lat="42.63471" lon="1.49266">
        <ele>2143.1999511719</ele>
        <time>2023-07-22T06:23:29.000Z</time>
      </trkpt>
      <trkpt lat="42.63469" lon="1.49262">
        <ele>2144.1999511719</ele>
        <time>2023-07-22T06:23:35.000Z</time>
      </trkpt>
      <trkpt lat="42.63468" lon="1.4926">
        <ele>2144.3999023438</ele>
        <time>2023-07-22T06:23:38.000Z</time>
      </trkpt>
      <trkpt lat="42.63467" lon="1.49255">
        <ele>2145.1999511719</ele>
        <time>2023-07-22T06:23:43.000Z</time>
      </trkpt>
      <trkpt lat="42.63466" lon="1.49254">
        <ele>2145.6000976562</ele>
        <time>2023-07-22T06:23:45.000Z</time>
      </trkpt>
      <trkpt lat="42.63466" lon="1.49252">
        <ele>2146.3999023438</ele>
        <time>2023-07-22T06:23:49.000Z</time>
      </trkpt>
      <trkpt lat="42.63465" lon="1.49249">
        <ele>2147.1999511719</ele>
        <time>2023-07-22T06:23:53.000Z</time>
      </trkpt>
      <trkpt lat="42.63465" lon="1.49248">
        <ele>2147.6000976562</ele>
        <time>2023-07-22T06:23:54.000Z</time>
      </trkpt>
      <trkpt lat="42.63464" lon="1.49244">
        <ele>2148.1999511719</ele>
        <time>2023-07-22T06:23:58.000Z</time>
      </trkpt>
      <trkpt lat="42.63464" lon="1.49243">
        <ele>2148.8000488281</ele>
        <time>2023-07-22T06:24:00.000Z</time>
      </trkpt>
      <trkpt lat="42.63464" lon="1.49242">
        <ele>2149.6000976562</ele>
        <time>2023-07-22T06:24:05.000Z</time>
      </trkpt>
      <trkpt lat="42.63464" lon="1.49241">
        <ele>2149.8000488281</ele>
        <time>2023-07-22T06:24:06.000Z</time>
      </trkpt>
      <trkpt lat="42.63462" lon="1.49235">
        <ele>2150.6000976562</ele>
        <time>2023-07-22T06:24:13.000Z</time>
      </trkpt>
      <trkpt lat="42.63462" lon="1.49235">
        <ele>2150.8000488281</ele>
        <time>2023-07-22T06:24:14.000Z</time>
      </trkpt>
      <trkpt lat="42.63463" lon="1.49233">
        <ele>2152</ele>
        <time>2023-07-22T06:24:20.000Z</time>
      </trkpt>
      <trkpt lat="42.63465" lon="1.49229">
        <ele>2152.6000976562</ele>
        <time>2023-07-22T06:24:26.000Z</time>
      </trkpt>
      <trkpt lat="42.63465" lon="1.49228">
        <ele>2153</ele>
        <time>2023-07-22T06:24:28.000Z</time>
      </trkpt>
      <trkpt lat="42.63464" lon="1.49225">
        <ele>2154</ele>
        <time>2023-07-22T06:24:34.000Z</time>
      </trkpt>
      <trkpt lat="42.63464" lon="1.49224">
        <ele>2154.1999511719</ele>
        <time>2023-07-22T06:24:35.000Z</time>
      </trkpt>
      <trkpt lat="42.63463" lon="1.49221">
        <ele>2155.1999511719</ele>
        <time>2023-07-22T06:24:42.000Z</time>
      </trkpt>
      <trkpt lat="42.63464" lon="1.49218">
        <ele>2156.3999023438</ele>
        <time>2023-07-22T06:24:50.000Z</time>
      </trkpt>
      <trkpt lat="42.63462" lon="1.49216">
        <ele>2157.3999023438</ele>
        <time>2023-07-22T06:24:56.000Z</time>
      </trkpt>
      <trkpt lat="42.63461" lon="1.49214">
        <ele>2157.6000976562</ele>
        <time>2023-07-22T06:25:00.000Z</time>
      </trkpt>
      <trkpt lat="42.63458" lon="1.49211">
        <ele>2158</ele>
        <time>2023-07-22T06:25:06.000Z</time>
      </trkpt>
      <trkpt lat="42.63457" lon="1.49209">
        <ele>2158.3999023438</ele>
        <time>2023-07-22T06:25:09.000Z</time>
      </trkpt>
      <trkpt lat="42.63455" lon="1.49205">
        <ele>2159</ele>
        <time>2023-07-22T06:25:14.000Z</time>
      </trkpt>
      <trkpt lat="42.63455" lon="1.49203">
        <ele>2159.3999023438</ele>
        <time>2023-07-22T06:25:18.000Z</time>
      </trkpt>
      <trkpt lat="42.63454" lon="1.49203">
        <ele>2159.8000488281</ele>
        <time>2023-07-22T06:25:19.000Z</time>
      </trkpt>
      <trkpt lat="42.63454" lon="1.492">
        <ele>2160.6000976562</ele>
        <time>2023-07-22T06:25:24.000Z</time>
      </trkpt>
      <trkpt lat="42.63453" lon="1.49198">
        <ele>2160.8000488281</ele>
        <time>2023-07-22T06:25:27.000Z</time>
      </trkpt>
      <trkpt lat="42.63453" lon="1.49194">
        <ele>2161.8000488281</ele>
        <time>2023-07-22T06:25:31.000Z</time>
      </trkpt>
      <trkpt lat="42.63452" lon="1.49191">
        <ele>2161.8000488281</ele>
        <time>2023-07-22T06:25:34.000Z</time>
      </trkpt>
      <trkpt lat="42.63452" lon="1.49187">
        <ele>2163</ele>
        <time>2023-07-22T06:25:41.000Z</time>
      </trkpt>
      <trkpt lat="42.63451" lon="1.49187">
        <ele>2163.3999023438</ele>
        <time>2023-07-22T06:25:43.000Z</time>
      </trkpt>
      <trkpt lat="42.63449" lon="1.49184">
        <ele>2164</ele>
        <time>2023-07-22T06:25:48.000Z</time>
      </trkpt>
      <trkpt lat="42.63449" lon="1.49183">
        <ele>2164</ele>
        <time>2023-07-22T06:25:50.000Z</time>
      </trkpt>
      <trkpt lat="42.63448" lon="1.49179">
        <ele>2165</ele>
        <time>2023-07-22T06:25:55.000Z</time>
      </trkpt>
      <trkpt lat="42.63448" lon="1.49177">
        <ele>2165.3999023438</ele>
        <time>2023-07-22T06:25:58.000Z</time>
      </trkpt>
      <trkpt lat="42.63449" lon="1.4917">
        <ele>2166.1999511719</ele>
        <time>2023-07-22T06:26:05.000Z</time>
      </trkpt>
      <trkpt lat="42.63449" lon="1.49169">
        <ele>2166.3999023438</ele>
        <time>2023-07-22T06:26:07.000Z</time>
      </trkpt>
      <trkpt lat="42.63448" lon="1.49167">
        <ele>2167.1999511719</ele>
        <time>2023-07-22T06:26:12.000Z</time>
      </trkpt>
      <trkpt lat="42.63448" lon="1.49167">
        <ele>2167.3999023438</ele>
        <time>2023-07-22T06:26:13.000Z</time>
      </trkpt>
      <trkpt lat="42.63448" lon="1.49162">
        <ele>2168</ele>
        <time>2023-07-22T06:26:18.000Z</time>
      </trkpt>
      <trkpt lat="42.63449" lon="1.4916">
        <ele>2168.6000976562</ele>
        <time>2023-07-22T06:26:22.000Z</time>
      </trkpt>
      <trkpt lat="42.6345" lon="1.49158">
        <ele>2169.1999511719</ele>
        <time>2023-07-22T06:26:25.000Z</time>
      </trkpt>
      <trkpt lat="42.63449" lon="1.49157">
        <ele>2169.8000488281</ele>
        <time>2023-07-22T06:26:29.000Z</time>
      </trkpt>
      <trkpt lat="42.63449" lon="1.49153">
        <ele>2171</ele>
        <time>2023-07-22T06:26:35.000Z</time>
      </trkpt>
      <trkpt lat="42.63449" lon="1.49147">
        <ele>2172</ele>
        <time>2023-07-22T06:26:40.000Z</time>
      </trkpt>
      <trkpt lat="42.63449" lon="1.49143">
        <ele>2172.8000488281</ele>
        <time>2023-07-22T06:26:45.000Z</time>
      </trkpt>
      <trkpt lat="42.63449" lon="1.49142">
        <ele>2173</ele>
        <time>2023-07-22T06:26:47.000Z</time>
      </trkpt>
      <trkpt lat="42.63448" lon="1.49138">
        <ele>2173.8000488281</ele>
        <time>2023-07-22T06:26:51.000Z</time>
      </trkpt>
      <trkpt lat="42.63447" lon="1.49132">
        <ele>2174.1999511719</ele>
        <time>2023-07-22T06:26:56.000Z</time>
      </trkpt>
      <trkpt lat="42.63446" lon="1.4913">
        <ele>2174.1999511719</ele>
        <time>2023-07-22T06:26:58.000Z</time>
      </trkpt>
      <trkpt lat="42.63445" lon="1.49126">
        <ele>2175.1999511719</ele>
        <time>2023-07-22T06:27:04.000Z</time>
      </trkpt>
      <trkpt lat="42.63444" lon="1.49125">
        <ele>2175.3999023438</ele>
        <time>2023-07-22T06:27:05.000Z</time>
      </trkpt>
      <trkpt lat="42.63441" lon="1.49119">
        <ele>2175.8000488281</ele>
        <time>2023-07-22T06:27:11.000Z</time>
      </trkpt>
      <trkpt lat="42.6344" lon="1.49112">
        <ele>2176</ele>
        <time>2023-07-22T06:27:18.000Z</time>
      </trkpt>
      <trkpt lat="42.6344" lon="1.49109">
        <ele>2176.1999511719</ele>
        <time>2023-07-22T06:27:21.000Z</time>
      </trkpt>
      <trkpt lat="42.63439" lon="1.49106">
        <ele>2177.3999023438</ele>
        <time>2023-07-22T06:27:27.000Z</time>
      </trkpt>
      <trkpt lat="42.63439" lon="1.49101">
        <ele>2178.3999023438</ele>
        <time>2023-07-22T06:27:33.000Z</time>
      </trkpt>
      <trkpt lat="42.63438" lon="1.49095">
        <ele>2179.6000976562</ele>
        <time>2023-07-22T06:27:41.000Z</time>
      </trkpt>
      <trkpt lat="42.63438" lon="1.49094">
        <ele>2179.6000976562</ele>
        <time>2023-07-22T06:27:42.000Z</time>
      </trkpt>
      <trkpt lat="42.63436" lon="1.49089">
        <ele>2180.6000976562</ele>
        <time>2023-07-22T06:27:48.000Z</time>
      </trkpt>
      <trkpt lat="42.63436" lon="1.49086">
        <ele>2181.1999511719</ele>
        <time>2023-07-22T06:27:51.000Z</time>
      </trkpt>
      <trkpt lat="42.63433" lon="1.49079">
        <ele>2181.8000488281</ele>
        <time>2023-07-22T06:27:58.000Z</time>
      </trkpt>
      <trkpt lat="42.63433" lon="1.49078">
        <ele>2181.8000488281</ele>
        <time>2023-07-22T06:28:00.000Z</time>
      </trkpt>
      <trkpt lat="42.63431" lon="1.49074">
        <ele>2182.1999511719</ele>
        <time>2023-07-22T06:28:06.000Z</time>
      </trkpt>
      <trkpt lat="42.63431" lon="1.49072">
        <ele>2182.8000488281</ele>
        <time>2023-07-22T06:28:09.000Z</time>
      </trkpt>
      <trkpt lat="42.6343" lon="1.49068">
        <ele>2183.3999023438</ele>
        <time>2023-07-22T06:28:13.000Z</time>
      </trkpt>
      <trkpt lat="42.6343" lon="1.49067">
        <ele>2183.8000488281</ele>
        <time>2023-07-22T06:28:15.000Z</time>
      </trkpt>
      <trkpt lat="42.63428" lon="1.49062">
        <ele>2184.6000976562</ele>
        <time>2023-07-22T06:28:21.000Z</time>
      </trkpt>
      <trkpt lat="42.63428" lon="1.4906">
        <ele>2185</ele>
        <time>2023-07-22T06:28:23.000Z</time>
      </trkpt>
      <trkpt lat="42.63425" lon="1.49056">
        <ele>2185.3999023438</ele>
        <time>2023-07-22T06:28:28.000Z</time>
      </trkpt>
      <trkpt lat="42.63421" lon="1.49054">
        <ele>2185.8000488281</ele>
        <time>2023-07-22T06:28:34.000Z</time>
      </trkpt>
      <trkpt lat="42.6342" lon="1.49052">
        <ele>2186</ele>
        <time>2023-07-22T06:28:37.000Z</time>
      </trkpt>
      <trkpt lat="42.6342" lon="1.49049">
        <ele>2186.3999023438</ele>
        <time>2023-07-22T06:28:41.000Z</time>
      </trkpt>
      <trkpt lat="42.63418" lon="1.49046">
        <ele>2187.1999511719</ele>
        <time>2023-07-22T06:28:45.000Z</time>
      </trkpt>
      <trkpt lat="42.63416" lon="1.49045">
        <ele>2187.6000976562</ele>
        <time>2023-07-22T06:28:48.000Z</time>
      </trkpt>
      <trkpt lat="42.63413" lon="1.49042">
        <ele>2188.1999511719</ele>
        <time>2023-07-22T06:28:53.000Z</time>
      </trkpt>
      <trkpt lat="42.63412" lon="1.49042">
        <ele>2188.3999023438</ele>
        <time>2023-07-22T06:28:55.000Z</time>
      </trkpt>
      <trkpt lat="42.63408" lon="1.49039">
        <ele>2189.1999511719</ele>
        <time>2023-07-22T06:29:00.000Z</time>
      </trkpt>
      <trkpt lat="42.63407" lon="1.49038">
        <ele>2189.3999023438</ele>
        <time>2023-07-22T06:29:01.000Z</time>
      </trkpt>
      <trkpt lat="42.63403" lon="1.49033">
        <ele>2190.1999511719</ele>
        <time>2023-07-22T06:29:09.000Z</time>
      </trkpt>
      <trkpt lat="42.63401" lon="1.49031">
        <ele>2190.3999023438</ele>
        <time>2023-07-22T06:29:11.000Z</time>
      </trkpt>
      <trkpt lat="42.63398" lon="1.49028">
        <ele>2191.3999023438</ele>
        <time>2023-07-22T06:29:17.000Z</time>
      </trkpt>
      <trkpt lat="42.63397" lon="1.49028">
        <ele>2191.6000976562</ele>
        <time>2023-07-22T06:29:18.000Z</time>
      </trkpt>
      <trkpt lat="42.63391" lon="1.49027">
        <ele>2191.6000976562</ele>
        <time>2023-07-22T06:29:25.000Z</time>
      </trkpt>
      <trkpt lat="42.63387" lon="1.49021">
        <ele>2192.6000976562</ele>
        <time>2023-07-22T06:29:33.000Z</time>
      </trkpt>
      <trkpt lat="42.63384" lon="1.49017">
        <ele>2193.8000488281</ele>
        <time>2023-07-22T06:29:39.000Z</time>
      </trkpt>
      <trkpt lat="42.63383" lon="1.49016">
        <ele>2194.1999511719</ele>
        <time>2023-07-22T06:29:41.000Z</time>
      </trkpt>
      <trkpt lat="42.63381" lon="1.49013">
        <ele>2194.6000976562</ele>
        <time>2023-07-22T06:29:49.000Z</time>
      </trkpt>
      <trkpt lat="42.63381" lon="1.49015">
        <ele>2194.3999023438</ele>
        <time>2023-07-22T06:29:56.000Z</time>
      </trkpt>
      <trkpt lat="42.63386" lon="1.49008">
        <ele>2194.3999023438</ele>
        <time>2023-07-22T06:30:03.000Z</time>
      </trkpt>
      <trkpt lat="42.6339" lon="1.49003">
        <ele>2195</ele>
        <time>2023-07-22T06:30:09.000Z</time>
      </trkpt>
      <trkpt lat="42.63393" lon="1.49001">
        <ele>2195.3999023438</ele>
        <time>2023-07-22T06:30:11.000Z</time>
      </trkpt>
      <trkpt lat="42.63399" lon="1.48998">
        <ele>2195.8000488281</ele>
        <time>2023-07-22T06:30:19.000Z</time>
      </trkpt>
      <trkpt lat="42.63401" lon="1.49001">
        <ele>2196</ele>
        <time>2023-07-22T06:30:23.000Z</time>
      </trkpt>
      <trkpt lat="42.63403" lon="1.49001">
        <ele>2196</ele>
        <time>2023-07-22T06:30:26.000Z</time>
      </trkpt>
      <trkpt lat="42.6341" lon="1.48999">
        <ele>2196</ele>
        <time>2023-07-22T06:30:33.000Z</time>
      </trkpt>
      <trkpt lat="42.63412" lon="1.48998">
        <ele>2196.6000976562</ele>
        <time>2023-07-22T06:30:39.000Z</time>
      </trkpt>
      <trkpt lat="42.6341" lon="1.48998">
        <ele>2195.6000976562</ele>
        <time>2023-07-22T06:30:49.000Z</time>
      </trkpt>
      <trkpt lat="42.63413" lon="1.48997">
        <ele>2195.6000976562</ele>
        <time>2023-07-22T06:30:55.000Z</time>
      </trkpt>
      <trkpt lat="42.63414" lon="1.48995">
        <ele>2195.6000976562</ele>
        <time>2023-07-22T06:31:04.000Z</time>
      </trkpt>
      <trkpt lat="42.63414" lon="1.48997">
        <ele>2195.6000976562</ele>
        <time>2023-07-22T06:31:14.000Z</time>
      </trkpt>
      <trkpt lat="42.63412" lon="1.48999">
        <ele>2195.1999511719</ele>
        <time>2023-07-22T06:31:22.000Z</time>
      </trkpt>
      <trkpt lat="42.63412" lon="1.48996">
        <ele>2195.1999511719</ele>
        <time>2023-07-22T06:31:31.000Z</time>
      </trkpt>
      <trkpt lat="42.63411" lon="1.48997">
        <ele>2195</ele>
        <time>2023-07-22T06:31:37.000Z</time>
      </trkpt>
      <trkpt lat="42.63411" lon="1.48997">
        <ele>2195</ele>
        <time>2023-07-22T06:31:39.000Z</time>
      </trkpt>
      <trkpt lat="42.63408" lon="1.49">
        <ele>2195</ele>
        <time>2023-07-22T06:31:45.000Z</time>
      </trkpt>
      <trkpt lat="42.63404" lon="1.49001">
        <ele>2195.1999511719</ele>
        <time>2023-07-22T06:31:51.000Z</time>
      </trkpt>
      <trkpt lat="42.63399" lon="1.49">
        <ele>2195.1999511719</ele>
        <time>2023-07-22T06:31:57.000Z</time>
      </trkpt>
      <trkpt lat="42.63393" lon="1.49003">
        <ele>2194.3999023438</ele>
        <time>2023-07-22T06:32:05.000Z</time>
      </trkpt>
      <trkpt lat="42.6339" lon="1.49005">
        <ele>2194.3999023438</ele>
        <time>2023-07-22T06:32:10.000Z</time>
      </trkpt>
      <trkpt lat="42.63386" lon="1.49009">
        <ele>2193.8000488281</ele>
        <time>2023-07-22T06:32:14.000Z</time>
      </trkpt>
      <trkpt lat="42.63384" lon="1.49009">
        <ele>2193.3999023438</ele>
        <time>2023-07-22T06:32:18.000Z</time>
      </trkpt>
      <trkpt lat="42.63385" lon="1.49011">
        <ele>2193.1999511719</ele>
        <time>2023-07-22T06:32:26.000Z</time>
      </trkpt>
      <trkpt lat="42.63385" lon="1.4901">
        <ele>2193</ele>
        <time>2023-07-22T06:32:36.000Z</time>
      </trkpt>
      <trkpt lat="42.63384" lon="1.4901">
        <ele>2193.1999511719</ele>
        <time>2023-07-22T06:32:45.000Z</time>
      </trkpt>
      <trkpt lat="42.63385" lon="1.4901">
        <ele>2193</ele>
        <time>2023-07-22T06:32:59.000Z</time>
      </trkpt>
      <trkpt lat="42.63386" lon="1.49008">
        <ele>2193</ele>
        <time>2023-07-22T06:33:10.000Z</time>
      </trkpt>
      <trkpt lat="42.63386" lon="1.4901">
        <ele>2192.8000488281</ele>
        <time>2023-07-22T06:33:19.000Z</time>
      </trkpt>
      <trkpt lat="42.63387" lon="1.49007">
        <ele>2193</ele>
        <time>2023-07-22T06:33:31.000Z</time>
      </trkpt>
      <trkpt lat="42.63384" lon="1.49003">
        <ele>2193.1999511719</ele>
        <time>2023-07-22T06:33:41.000Z</time>
      </trkpt>
      <trkpt lat="42.63386" lon="1.49008">
        <ele>2193</ele>
        <time>2023-07-22T06:33:50.000Z</time>
      </trkpt>
      <trkpt lat="42.63386" lon="1.49009">
        <ele>2193.1999511719</ele>
        <time>2023-07-22T06:33:58.000Z</time>
      </trkpt>
      <trkpt lat="42.63386" lon="1.49009">
        <ele>2193.3999023438</ele>
        <time>2023-07-22T06:34:07.000Z</time>
      </trkpt>
      <trkpt lat="42.63386" lon="1.49009">
        <ele>2192.8000488281</ele>
        <time>2023-07-22T06:34:20.000Z</time>
      </trkpt>
      <trkpt lat="42.63386" lon="1.49009">
        <ele>2192.3999023438</ele>
        <time>2023-07-22T06:34:45.000Z</time>
      </trkpt>
      <trkpt lat="42.63384" lon="1.49009">
        <ele>2192.1999511719</ele>
        <time>2023-07-22T06:35:02.000Z</time>
      </trkpt>
      <trkpt lat="42.63388" lon="1.49005">
        <ele>2192</ele>
        <time>2023-07-22T06:35:08.000Z</time>
      </trkpt>
      <trkpt lat="42.63396" lon="1.48998">
        <ele>2192.6000976562</ele>
        <time>2023-07-22T06:35:17.000Z</time>
      </trkpt>
      <trkpt lat="42.63399" lon="1.48999">
        <ele>2192.8000488281</ele>
        <time>2023-07-22T06:35:20.000Z</time>
      </trkpt>
      <trkpt lat="42.63402" lon="1.49001">
        <ele>2193</ele>
        <time>2023-07-22T06:35:24.000Z</time>
      </trkpt>
      <trkpt lat="42.63409" lon="1.49">
        <ele>2193.6000976562</ele>
        <time>2023-07-22T06:35:32.000Z</time>
      </trkpt>
      <trkpt lat="42.63419" lon="1.48999">
        <ele>2192.8000488281</ele>
        <time>2023-07-22T06:35:42.000Z</time>
      </trkpt>
      <trkpt lat="42.63427" lon="1.49008">
        <ele>2192.6000976562</ele>
        <time>2023-07-22T06:35:50.000Z</time>
      </trkpt>
      <trkpt lat="42.63429" lon="1.49013">
        <ele>2193.8000488281</ele>
        <time>2023-07-22T06:35:59.000Z</time>
      </trkpt>
      <trkpt lat="42.6343" lon="1.49014">
        <ele>2193.8000488281</ele>
        <time>2023-07-22T06:36:01.000Z</time>
      </trkpt>
      <trkpt lat="42.63433" lon="1.49018">
        <ele>2195</ele>
        <time>2023-07-22T06:36:07.000Z</time>
      </trkpt>
      <trkpt lat="42.63433" lon="1.49021">
        <ele>2195.6000976562</ele>
        <time>2023-07-22T06:36:16.000Z</time>
      </trkpt>
      <trkpt lat="42.63437" lon="1.49026">
        <ele>2195.8000488281</ele>
        <time>2023-07-22T06:36:22.000Z</time>
      </trkpt>
      <trkpt lat="42.63444" lon="1.49032">
        <ele>2195.8000488281</ele>
        <time>2023-07-22T06:36:29.000Z</time>
      </trkpt>
      <trkpt lat="42.63444" lon="1.49033">
        <ele>2196</ele>
        <time>2023-07-22T06:36:30.000Z</time>
      </trkpt>
      <trkpt lat="42.63449" lon="1.49036">
        <ele>2197</ele>
        <time>2023-07-22T06:36:36.000Z</time>
      </trkpt>
      <trkpt lat="42.63451" lon="1.49036">
        <ele>2197.1999511719</ele>
        <time>2023-07-22T06:36:38.000Z</time>
      </trkpt>
      <trkpt lat="42.63453" lon="1.49033">
        <ele>2198.1999511719</ele>
        <time>2023-07-22T06:36:44.000Z</time>
      </trkpt>
      <trkpt lat="42.63453" lon="1.4903">
        <ele>2199.1999511719</ele>
        <time>2023-07-22T06:36:50.000Z</time>
      </trkpt>
      <trkpt lat="42.63452" lon="1.49026">
        <ele>2199.8000488281</ele>
        <time>2023-07-22T06:36:54.000Z</time>
      </trkpt>
      <trkpt lat="42.63453" lon="1.49024">
        <ele>2200.3999023438</ele>
        <time>2023-07-22T06:36:58.000Z</time>
      </trkpt>
      <trkpt lat="42.63454" lon="1.49023">
        <ele>2201</ele>
        <time>2023-07-22T06:37:01.000Z</time>
      </trkpt>
      <trkpt lat="42.63454" lon="1.49023">
        <ele>2201.3999023438</ele>
        <time>2023-07-22T06:37:02.000Z</time>
      </trkpt>
      <trkpt lat="42.63453" lon="1.49022">
        <ele>2202.3999023438</ele>
        <time>2023-07-22T06:37:06.000Z</time>
      </trkpt>
      <trkpt lat="42.63452" lon="1.4902">
        <ele>2202.3999023438</ele>
        <time>2023-07-22T06:37:09.000Z</time>
      </trkpt>
      <trkpt lat="42.6345" lon="1.49015">
        <ele>2203.3999023438</ele>
        <time>2023-07-22T06:37:17.000Z</time>
      </trkpt>
      <trkpt lat="42.63449" lon="1.49012">
        <ele>2204.3999023438</ele>
        <time>2023-07-22T06:37:23.000Z</time>
      </trkpt>
      <trkpt lat="42.63449" lon="1.49011">
        <ele>2204.6000976562</ele>
        <time>2023-07-22T06:37:24.000Z</time>
      </trkpt>
      <trkpt lat="42.63448" lon="1.49005">
        <ele>2205.6000976562</ele>
        <time>2023-07-22T06:37:30.000Z</time>
      </trkpt>
      <trkpt lat="42.63449" lon="1.49004">
        <ele>2206.1999511719</ele>
        <time>2023-07-22T06:37:34.000Z</time>
      </trkpt>
      <trkpt lat="42.6345" lon="1.49005">
        <ele>2206.6000976562</ele>
        <time>2023-07-22T06:37:36.000Z</time>
      </trkpt>
      <trkpt lat="42.63451" lon="1.49">
        <ele>2207.1999511719</ele>
        <time>2023-07-22T06:37:42.000Z</time>
      </trkpt>
      <trkpt lat="42.63452" lon="1.48999">
        <ele>2207.8000488281</ele>
        <time>2023-07-22T06:37:45.000Z</time>
      </trkpt>
      <trkpt lat="42.6345" lon="1.48995">
        <ele>2208.1999511719</ele>
        <time>2023-07-22T06:37:51.000Z</time>
      </trkpt>
      <trkpt lat="42.63451" lon="1.48994">
        <ele>2209</ele>
        <time>2023-07-22T06:37:57.000Z</time>
      </trkpt>
      <trkpt lat="42.63451" lon="1.48993">
        <ele>2209</ele>
        <time>2023-07-22T06:37:58.000Z</time>
      </trkpt>
      <trkpt lat="42.63453" lon="1.48988">
        <ele>2209.8000488281</ele>
        <time>2023-07-22T06:38:07.000Z</time>
      </trkpt>
      <trkpt lat="42.63454" lon="1.48987">
        <ele>2210</ele>
        <time>2023-07-22T06:38:09.000Z</time>
      </trkpt>
      <trkpt lat="42.63454" lon="1.48981">
        <ele>2210.8000488281</ele>
        <time>2023-07-22T06:38:15.000Z</time>
      </trkpt>
      <trkpt lat="42.63456" lon="1.48981">
        <ele>2211</ele>
        <time>2023-07-22T06:38:19.000Z</time>
      </trkpt>
      <trkpt lat="42.63457" lon="1.48981">
        <ele>2211.8000488281</ele>
        <time>2023-07-22T06:38:24.000Z</time>
      </trkpt>
      <trkpt lat="42.63457" lon="1.48981">
        <ele>2212.1999511719</ele>
        <time>2023-07-22T06:38:26.000Z</time>
      </trkpt>
      <trkpt lat="42.63459" lon="1.48979">
        <ele>2213.3999023438</ele>
        <time>2023-07-22T06:38:32.000Z</time>
      </trkpt>
      <trkpt lat="42.63459" lon="1.48979">
        <ele>2213.3999023438</ele>
        <time>2023-07-22T06:38:33.000Z</time>
      </trkpt>
      <trkpt lat="42.63464" lon="1.48976">
        <ele>2214.3999023438</ele>
        <time>2023-07-22T06:38:42.000Z</time>
      </trkpt>
      <trkpt lat="42.63466" lon="1.48976">
        <ele>2215.3999023438</ele>
        <time>2023-07-22T06:38:50.000Z</time>
      </trkpt>
      <trkpt lat="42.63466" lon="1.48976">
        <ele>2215.6000976562</ele>
        <time>2023-07-22T06:38:51.000Z</time>
      </trkpt>
      <trkpt lat="42.63469" lon="1.48976">
        <ele>2216.3999023438</ele>
        <time>2023-07-22T06:38:58.000Z</time>
      </trkpt>
      <trkpt lat="42.6347" lon="1.48976">
        <ele>2216.6000976562</ele>
        <time>2023-07-22T06:39:00.000Z</time>
      </trkpt>
      <trkpt lat="42.63473" lon="1.48979">
        <ele>2217.3999023438</ele>
        <time>2023-07-22T06:39:06.000Z</time>
      </trkpt>
      <trkpt lat="42.63473" lon="1.48979">
        <ele>2217.6000976562</ele>
        <time>2023-07-22T06:39:07.000Z</time>
      </trkpt>
      <trkpt lat="42.63475" lon="1.48982">
        <ele>2218.3999023438</ele>
        <time>2023-07-22T06:39:13.000Z</time>
      </trkpt>
      <trkpt lat="42.63475" lon="1.48983">
        <ele>2218.6000976562</ele>
        <time>2023-07-22T06:39:14.000Z</time>
      </trkpt>
      <trkpt lat="42.63475" lon="1.48985">
        <ele>2219.3999023438</ele>
        <time>2023-07-22T06:39:20.000Z</time>
      </trkpt>
      <trkpt lat="42.63475" lon="1.48984">
        <ele>2219.8000488281</ele>
        <time>2023-07-22T06:39:23.000Z</time>
      </trkpt>
      <trkpt lat="42.63478" lon="1.48986">
        <ele>2219.8000488281</ele>
        <time>2023-07-22T06:39:29.000Z</time>
      </trkpt>
      <trkpt lat="42.63482" lon="1.48986">
        <ele>2219.6000976562</ele>
        <time>2023-07-22T06:39:40.000Z</time>
      </trkpt>
      <trkpt lat="42.6348" lon="1.48985">
        <ele>2219.6000976562</ele>
        <time>2023-07-22T06:39:50.000Z</time>
      </trkpt>
      <trkpt lat="42.63478" lon="1.48987">
        <ele>2219.3999023438</ele>
        <time>2023-07-22T06:39:58.000Z</time>
      </trkpt>
      <trkpt lat="42.63478" lon="1.48988">
        <ele>2219.3999023438</ele>
        <time>2023-07-22T06:40:04.000Z</time>
      </trkpt>
      <trkpt lat="42.63479" lon="1.48993">
        <ele>2219.8000488281</ele>
        <time>2023-07-22T06:40:11.000Z</time>
      </trkpt>
      <trkpt lat="42.63483" lon="1.48997">
        <ele>2221</ele>
        <time>2023-07-22T06:40:18.000Z</time>
      </trkpt>
      <trkpt lat="42.63484" lon="1.48998">
        <ele>2221.3999023438</ele>
        <time>2023-07-22T06:40:20.000Z</time>
      </trkpt>
      <trkpt lat="42.63488" lon="1.48998">
        <ele>2222</ele>
        <time>2023-07-22T06:40:27.000Z</time>
      </trkpt>
      <trkpt lat="42.63494" lon="1.49001">
        <ele>2223</ele>
        <time>2023-07-22T06:40:35.000Z</time>
      </trkpt>
      <trkpt lat="42.63495" lon="1.49002">
        <ele>2223.1999511719</ele>
        <time>2023-07-22T06:40:36.000Z</time>
      </trkpt>
      <trkpt lat="42.63497" lon="1.49004">
        <ele>2224.1999511719</ele>
        <time>2023-07-22T06:40:42.000Z</time>
      </trkpt>
      <trkpt lat="42.63499" lon="1.49008">
        <ele>2225.1999511719</ele>
        <time>2023-07-22T06:40:50.000Z</time>
      </trkpt>
      <trkpt lat="42.635" lon="1.49009">
        <ele>2225.3999023438</ele>
        <time>2023-07-22T06:40:51.000Z</time>
      </trkpt>
      <trkpt lat="42.63501" lon="1.49011">
        <ele>2226.3999023438</ele>
        <time>2023-07-22T06:40:58.000Z</time>
      </trkpt>
      <trkpt lat="42.63501" lon="1.49011">
        <ele>2226.6000976562</ele>
        <time>2023-07-22T06:40:59.000Z</time>
      </trkpt>
      <trkpt lat="42.63504" lon="1.49012">
        <ele>2227.3999023438</ele>
        <time>2023-07-22T06:41:07.000Z</time>
      </trkpt>
      <trkpt lat="42.63506" lon="1.49011">
        <ele>2227.8000488281</ele>
        <time>2023-07-22T06:41:10.000Z</time>
      </trkpt>
      <trkpt lat="42.63507" lon="1.49011">
        <ele>2228.3999023438</ele>
        <time>2023-07-22T06:41:13.000Z</time>
      </trkpt>
      <trkpt lat="42.63506" lon="1.49013">
        <ele>2229</ele>
        <time>2023-07-22T06:41:17.000Z</time>
      </trkpt>
      <trkpt lat="42.63508" lon="1.49018">
        <ele>2229.6000976562</ele>
        <time>2023-07-22T06:41:22.000Z</time>
      </trkpt>
      <trkpt lat="42.6351" lon="1.4902">
        <ele>2229.8000488281</ele>
        <time>2023-07-22T06:41:25.000Z</time>
      </trkpt>
      <trkpt lat="42.6351" lon="1.49021">
        <ele>2230.6000976562</ele>
        <time>2023-07-22T06:41:28.000Z</time>
      </trkpt>
      <trkpt lat="42.6351" lon="1.49022">
        <ele>2231.1999511719</ele>
        <time>2023-07-22T06:41:34.000Z</time>
      </trkpt>
      <trkpt lat="42.63511" lon="1.49025">
        <ele>2231.6000976562</ele>
        <time>2023-07-22T06:41:37.000Z</time>
      </trkpt>
      <trkpt lat="42.63513" lon="1.49026">
        <ele>2232.1999511719</ele>
        <time>2023-07-22T06:41:41.000Z</time>
      </trkpt>
      <trkpt lat="42.63515" lon="1.49026">
        <ele>2232.6000976562</ele>
        <time>2023-07-22T06:41:46.000Z</time>
      </trkpt>
      <trkpt lat="42.63516" lon="1.49029">
        <ele>2233</ele>
        <time>2023-07-22T06:41:50.000Z</time>
      </trkpt>
      <trkpt lat="42.63517" lon="1.49032">
        <ele>2233.8000488281</ele>
        <time>2023-07-22T06:41:54.000Z</time>
      </trkpt>
      <trkpt lat="42.63518" lon="1.49031">
        <ele>2234</ele>
        <time>2023-07-22T06:41:58.000Z</time>
      </trkpt>
      <trkpt lat="42.63518" lon="1.49032">
        <ele>2234.8000488281</ele>
        <time>2023-07-22T06:42:03.000Z</time>
      </trkpt>
      <trkpt lat="42.63518" lon="1.49033">
        <ele>2234.8000488281</ele>
        <time>2023-07-22T06:42:04.000Z</time>
      </trkpt>
      <trkpt lat="42.63521" lon="1.49037">
        <ele>2235.8000488281</ele>
        <time>2023-07-22T06:42:12.000Z</time>
      </trkpt>
      <trkpt lat="42.6352" lon="1.49039">
        <ele>2236.1999511719</ele>
        <time>2023-07-22T06:42:14.000Z</time>
      </trkpt>
      <trkpt lat="42.63522" lon="1.49042">
        <ele>2237</ele>
        <time>2023-07-22T06:42:20.000Z</time>
      </trkpt>
      <trkpt lat="42.63523" lon="1.49042">
        <ele>2237.1999511719</ele>
        <time>2023-07-22T06:42:22.000Z</time>
      </trkpt>
      <trkpt lat="42.63525" lon="1.49044">
        <ele>2238</ele>
        <time>2023-07-22T06:42:28.000Z</time>
      </trkpt>
      <trkpt lat="42.63525" lon="1.49046">
        <ele>2238.3999023438</ele>
        <time>2023-07-22T06:42:30.000Z</time>
      </trkpt>
      <trkpt lat="42.63525" lon="1.49049">
        <ele>2239</ele>
        <time>2023-07-22T06:42:35.000Z</time>
      </trkpt>
      <trkpt lat="42.63525" lon="1.4905">
        <ele>2239.6000976562</ele>
        <time>2023-07-22T06:42:38.000Z</time>
      </trkpt>
      <trkpt lat="42.63527" lon="1.4905">
        <ele>2240.1999511719</ele>
        <time>2023-07-22T06:42:43.000Z</time>
      </trkpt>
      <trkpt lat="42.63529" lon="1.49049">
        <ele>2240.6000976562</ele>
        <time>2023-07-22T06:42:46.000Z</time>
      </trkpt>
      <trkpt lat="42.63528" lon="1.49045">
        <ele>2241.1999511719</ele>
        <time>2023-07-22T06:42:50.000Z</time>
      </trkpt>
      <trkpt lat="42.63528" lon="1.49043">
        <ele>2241.3999023438</ele>
        <time>2023-07-22T06:42:53.000Z</time>
      </trkpt>
      <trkpt lat="42.6353" lon="1.49044">
        <ele>2242.1999511719</ele>
        <time>2023-07-22T06:42:58.000Z</time>
      </trkpt>
      <trkpt lat="42.63531" lon="1.49045">
        <ele>2242.8000488281</ele>
        <time>2023-07-22T06:43:01.000Z</time>
      </trkpt>
      <trkpt lat="42.63531" lon="1.49046">
        <ele>2243.3999023438</ele>
        <time>2023-07-22T06:43:06.000Z</time>
      </trkpt>
      <trkpt lat="42.63532" lon="1.49047">
        <ele>2243.8000488281</ele>
        <time>2023-07-22T06:43:09.000Z</time>
      </trkpt>
      <trkpt lat="42.63533" lon="1.4905">
        <ele>2244.6000976562</ele>
        <time>2023-07-22T06:43:13.000Z</time>
      </trkpt>
      <trkpt lat="42.63533" lon="1.49054">
        <ele>2244.6000976562</ele>
        <time>2023-07-22T06:43:17.000Z</time>
      </trkpt>
      <trkpt lat="42.63533" lon="1.49057">
        <ele>2245.1999511719</ele>
        <time>2023-07-22T06:43:24.000Z</time>
      </trkpt>
      <trkpt lat="42.63534" lon="1.49058">
        <ele>2245.6000976562</ele>
        <time>2023-07-22T06:43:28.000Z</time>
      </trkpt>
      <trkpt lat="42.63535" lon="1.49058">
        <ele>2246.3999023438</ele>
        <time>2023-07-22T06:43:34.000Z</time>
      </trkpt>
      <trkpt lat="42.63535" lon="1.49057">
        <ele>2246.6000976562</ele>
        <time>2023-07-22T06:43:36.000Z</time>
      </trkpt>
      <trkpt lat="42.63534" lon="1.49054">
        <ele>2247</ele>
        <time>2023-07-22T06:43:41.000Z</time>
      </trkpt>
      <trkpt lat="42.63533" lon="1.49055">
        <ele>2247.8000488281</ele>
        <time>2023-07-22T06:43:47.000Z</time>
      </trkpt>
      <trkpt lat="42.63534" lon="1.49057">
        <ele>2248</ele>
        <time>2023-07-22T06:43:50.000Z</time>
      </trkpt>
      <trkpt lat="42.63534" lon="1.49059">
        <ele>2248.8000488281</ele>
        <time>2023-07-22T06:43:53.000Z</time>
      </trkpt>
      <trkpt lat="42.63534" lon="1.49061">
        <ele>2249.1999511719</ele>
        <time>2023-07-22T06:43:57.000Z</time>
      </trkpt>
      <trkpt lat="42.63535" lon="1.49065">
        <ele>2249.8000488281</ele>
        <time>2023-07-22T06:44:02.000Z</time>
      </trkpt>
      <trkpt lat="42.63535" lon="1.49066">
        <ele>2250</ele>
        <time>2023-07-22T06:44:04.000Z</time>
      </trkpt>
      <trkpt lat="42.63538" lon="1.49075">
        <ele>2250.6000976562</ele>
        <time>2023-07-22T06:44:12.000Z</time>
      </trkpt>
      <trkpt lat="42.63539" lon="1.49079">
        <ele>2250.8000488281</ele>
        <time>2023-07-22T06:44:17.000Z</time>
      </trkpt>
      <trkpt lat="42.63539" lon="1.49081">
        <ele>2251.1999511719</ele>
        <time>2023-07-22T06:44:19.000Z</time>
      </trkpt>
      <trkpt lat="42.6354" lon="1.4909">
        <ele>2252</ele>
        <time>2023-07-22T06:44:25.000Z</time>
      </trkpt>
      <trkpt lat="42.63541" lon="1.4909">
        <ele>2252.1999511719</ele>
        <time>2023-07-22T06:44:27.000Z</time>
      </trkpt>
      <trkpt lat="42.63543" lon="1.4909">
        <ele>2253</ele>
        <time>2023-07-22T06:44:31.000Z</time>
      </trkpt>
      <trkpt lat="42.63545" lon="1.49089">
        <ele>2253</ele>
        <time>2023-07-22T06:44:33.000Z</time>
      </trkpt>
      <trkpt lat="42.63545" lon="1.49091">
        <ele>2253.6000976562</ele>
        <time>2023-07-22T06:44:39.000Z</time>
      </trkpt>
      <trkpt lat="42.63544" lon="1.49088">
        <ele>2254</ele>
        <time>2023-07-22T06:44:43.000Z</time>
      </trkpt>
      <trkpt lat="42.63545" lon="1.49086">
        <ele>2254.6000976562</ele>
        <time>2023-07-22T06:44:47.000Z</time>
      </trkpt>
      <trkpt lat="42.63546" lon="1.49088">
        <ele>2255</ele>
        <time>2023-07-22T06:44:50.000Z</time>
      </trkpt>
      <trkpt lat="42.63547" lon="1.49094">
        <ele>2255.6000976562</ele>
        <time>2023-07-22T06:44:54.000Z</time>
      </trkpt>
      <trkpt lat="42.63548" lon="1.491">
        <ele>2255.8000488281</ele>
        <time>2023-07-22T06:45:01.000Z</time>
      </trkpt>
      <trkpt lat="42.6355" lon="1.49104">
        <ele>2256.1999511719</ele>
        <time>2023-07-22T06:45:05.000Z</time>
      </trkpt>
      <trkpt lat="42.63551" lon="1.49111">
        <ele>2256.3999023438</ele>
        <time>2023-07-22T06:45:10.000Z</time>
      </trkpt>
      <trkpt lat="42.63552" lon="1.49118">
        <ele>2257.1999511719</ele>
        <time>2023-07-22T06:45:16.000Z</time>
      </trkpt>
      <trkpt lat="42.63553" lon="1.49121">
        <ele>2257.6000976562</ele>
        <time>2023-07-22T06:45:20.000Z</time>
      </trkpt>
      <trkpt lat="42.63554" lon="1.49125">
        <ele>2258.1999511719</ele>
        <time>2023-07-22T06:45:25.000Z</time>
      </trkpt>
      <trkpt lat="42.63555" lon="1.49127">
        <ele>2258.6000976562</ele>
        <time>2023-07-22T06:45:28.000Z</time>
      </trkpt>
      <trkpt lat="42.63559" lon="1.4913">
        <ele>2259.1999511719</ele>
        <time>2023-07-22T06:45:36.000Z</time>
      </trkpt>
      <trkpt lat="42.63559" lon="1.4913">
        <ele>2259.3999023438</ele>
        <time>2023-07-22T06:45:37.000Z</time>
      </trkpt>
      <trkpt lat="42.6356" lon="1.49132">
        <ele>2260</ele>
        <time>2023-07-22T06:45:46.000Z</time>
      </trkpt>
      <trkpt lat="42.6356" lon="1.49131">
        <ele>2260.1999511719</ele>
        <time>2023-07-22T06:45:48.000Z</time>
      </trkpt>
      <trkpt lat="42.63563" lon="1.4913">
        <ele>2260.8000488281</ele>
        <time>2023-07-22T06:45:52.000Z</time>
      </trkpt>
      <trkpt lat="42.63563" lon="1.49128">
        <ele>2261.3999023438</ele>
        <time>2023-07-22T06:45:57.000Z</time>
      </trkpt>
      <trkpt lat="42.63563" lon="1.49127">
        <ele>2261.3999023438</ele>
        <time>2023-07-22T06:45:59.000Z</time>
      </trkpt>
      <trkpt lat="42.63563" lon="1.49121">
        <ele>2262.3999023438</ele>
        <time>2023-07-22T06:46:06.000Z</time>
      </trkpt>
      <trkpt lat="42.63563" lon="1.4912">
        <ele>2262.6000976562</ele>
        <time>2023-07-22T06:46:07.000Z</time>
      </trkpt>
      <trkpt lat="42.63564" lon="1.49118">
        <ele>2263.3999023438</ele>
        <time>2023-07-22T06:46:14.000Z</time>
      </trkpt>
      <trkpt lat="42.63566" lon="1.49114">
        <ele>2264.6000976562</ele>
        <time>2023-07-22T06:46:20.000Z</time>
      </trkpt>
      <trkpt lat="42.63565" lon="1.49111">
        <ele>2266</ele>
        <time>2023-07-22T06:46:26.000Z</time>
      </trkpt>
      <trkpt lat="42.63565" lon="1.49107">
        <ele>2267</ele>
        <time>2023-07-22T06:46:33.000Z</time>
      </trkpt>
      <trkpt lat="42.63566" lon="1.49106">
        <ele>2267</ele>
        <time>2023-07-22T06:46:34.000Z</time>
      </trkpt>
      <trkpt lat="42.63569" lon="1.4911">
        <ele>2267.8000488281</ele>
        <time>2023-07-22T06:46:40.000Z</time>
      </trkpt>
      <trkpt lat="42.63569" lon="1.49109">
        <ele>2268</ele>
        <time>2023-07-22T06:46:41.000Z</time>
      </trkpt>
      <trkpt lat="42.6357" lon="1.49109">
        <ele>2269.1999511719</ele>
        <time>2023-07-22T06:46:47.000Z</time>
      </trkpt>
      <trkpt lat="42.63572" lon="1.49107">
        <ele>2270.1999511719</ele>
        <time>2023-07-22T06:46:55.000Z</time>
      </trkpt>
      <trkpt lat="42.63572" lon="1.49108">
        <ele>2270.3999023438</ele>
        <time>2023-07-22T06:46:56.000Z</time>
      </trkpt>
      <trkpt lat="42.63577" lon="1.49114">
        <ele>2271</ele>
        <time>2023-07-22T06:47:03.000Z</time>
      </trkpt>
      <trkpt lat="42.63578" lon="1.49115">
        <ele>2271.3999023438</ele>
        <time>2023-07-22T06:47:06.000Z</time>
      </trkpt>
      <trkpt lat="42.63578" lon="1.49113">
        <ele>2271.3999023438</ele>
        <time>2023-07-22T06:47:09.000Z</time>
      </trkpt>
      <trkpt lat="42.6358" lon="1.49111">
        <ele>2271.3999023438</ele>
        <time>2023-07-22T06:47:18.000Z</time>
      </trkpt>
      <trkpt lat="42.63585" lon="1.49107">
        <ele>2270.8000488281</ele>
        <time>2023-07-22T06:47:24.000Z</time>
      </trkpt>
      <trkpt lat="42.63586" lon="1.49103">
        <ele>2270.8000488281</ele>
        <time>2023-07-22T06:47:31.000Z</time>
      </trkpt>
      <trkpt lat="42.63588" lon="1.491">
        <ele>2270.6000976562</ele>
        <time>2023-07-22T06:47:40.000Z</time>
      </trkpt>
      <trkpt lat="42.63589" lon="1.49099">
        <ele>2270.6000976562</ele>
        <time>2023-07-22T06:47:48.000Z</time>
      </trkpt>
      <trkpt lat="42.63588" lon="1.49096">
        <ele>2270.6000976562</ele>
        <time>2023-07-22T06:47:58.000Z</time>
      </trkpt>
      <trkpt lat="42.63589" lon="1.49098">
        <ele>2270.6000976562</ele>
        <time>2023-07-22T06:48:05.000Z</time>
      </trkpt>
      <trkpt lat="42.63593" lon="1.49099">
        <ele>2270.1999511719</ele>
        <time>2023-07-22T06:48:11.000Z</time>
      </trkpt>
      <trkpt lat="42.63601" lon="1.49097">
        <ele>2269.8000488281</ele>
        <time>2023-07-22T06:48:18.000Z</time>
      </trkpt>
      <trkpt lat="42.63602" lon="1.49096">
        <ele>2269.1999511719</ele>
        <time>2023-07-22T06:48:22.000Z</time>
      </trkpt>
      <trkpt lat="42.63603" lon="1.49097">
        <ele>2268.8000488281</ele>
        <time>2023-07-22T06:48:25.000Z</time>
      </trkpt>
      <trkpt lat="42.63606" lon="1.49098">
        <ele>2268.1999511719</ele>
        <time>2023-07-22T06:48:29.000Z</time>
      </trkpt>
      <trkpt lat="42.63608" lon="1.49099">
        <ele>2267.6000976562</ele>
        <time>2023-07-22T06:48:32.000Z</time>
      </trkpt>
      <trkpt lat="42.6361" lon="1.49099">
        <ele>2267</ele>
        <time>2023-07-22T06:48:34.000Z</time>
      </trkpt>
      <trkpt lat="42.63615" lon="1.49098">
        <ele>2266</ele>
        <time>2023-07-22T06:48:40.000Z</time>
      </trkpt>
      <trkpt lat="42.63615" lon="1.49097">
        <ele>2265.8000488281</ele>
        <time>2023-07-22T06:48:41.000Z</time>
      </trkpt>
      <trkpt lat="42.63618" lon="1.49094">
        <ele>2265</ele>
        <time>2023-07-22T06:48:44.000Z</time>
      </trkpt>
      <trkpt lat="42.63622" lon="1.49091">
        <ele>2264</ele>
        <time>2023-07-22T06:48:49.000Z</time>
      </trkpt>
      <trkpt lat="42.63628" lon="1.49086">
        <ele>2263</ele>
        <time>2023-07-22T06:48:55.000Z</time>
      </trkpt>
      <trkpt lat="42.63629" lon="1.49085">
        <ele>2262.6000976562</ele>
        <time>2023-07-22T06:48:57.000Z</time>
      </trkpt>
      <trkpt lat="42.63632" lon="1.49085">
        <ele>2262</ele>
        <time>2023-07-22T06:49:03.000Z</time>
      </trkpt>
      <trkpt lat="42.63633" lon="1.49084">
        <ele>2261.6000976562</ele>
        <time>2023-07-22T06:49:05.000Z</time>
      </trkpt>
      <trkpt lat="42.63635" lon="1.49084">
        <ele>2260.8000488281</ele>
        <time>2023-07-22T06:49:09.000Z</time>
      </trkpt>
      <trkpt lat="42.63638" lon="1.49085">
        <ele>2260.1999511719</ele>
        <time>2023-07-22T06:49:13.000Z</time>
      </trkpt>
      <trkpt lat="42.63639" lon="1.49085">
        <ele>2259.6000976562</ele>
        <time>2023-07-22T06:49:14.000Z</time>
      </trkpt>
      <trkpt lat="42.63642" lon="1.49084">
        <ele>2258.8000488281</ele>
        <time>2023-07-22T06:49:21.000Z</time>
      </trkpt>
      <trkpt lat="42.63643" lon="1.49084">
        <ele>2258.6000976562</ele>
        <time>2023-07-22T06:49:22.000Z</time>
      </trkpt>
      <trkpt lat="42.63647" lon="1.49084">
        <ele>2257.6000976562</ele>
        <time>2023-07-22T06:49:27.000Z</time>
      </trkpt>
      <trkpt lat="42.63647" lon="1.49084">
        <ele>2257.1999511719</ele>
        <time>2023-07-22T06:49:28.000Z</time>
      </trkpt>
      <trkpt lat="42.63652" lon="1.49091">
        <ele>2255.3999023438</ele>
        <time>2023-07-22T06:49:36.000Z</time>
      </trkpt>
      <trkpt lat="42.63654" lon="1.49091">
        <ele>2254.3999023438</ele>
        <time>2023-07-22T06:49:40.000Z</time>
      </trkpt>
      <trkpt lat="42.63658" lon="1.49095">
        <ele>2252.1999511719</ele>
        <time>2023-07-22T06:49:53.000Z</time>
      </trkpt>
      <trkpt lat="42.63658" lon="1.49097">
        <ele>2251.8000488281</ele>
        <time>2023-07-22T06:49:55.000Z</time>
      </trkpt>
      <trkpt lat="42.63661" lon="1.49102">
        <ele>2251</ele>
        <time>2023-07-22T06:50:00.000Z</time>
      </trkpt>
      <trkpt lat="42.63662" lon="1.49102">
        <ele>2250.8000488281</ele>
        <time>2023-07-22T06:50:01.000Z</time>
      </trkpt>
      <trkpt lat="42.63665" lon="1.49106">
        <ele>2249.8000488281</ele>
        <time>2023-07-22T06:50:09.000Z</time>
      </trkpt>
      <trkpt lat="42.63671" lon="1.49113">
        <ele>2249.6000976562</ele>
        <time>2023-07-22T06:50:17.000Z</time>
      </trkpt>
      <trkpt lat="42.63673" lon="1.49123">
        <ele>2249.3999023438</ele>
        <time>2023-07-22T06:50:26.000Z</time>
      </trkpt>
      <trkpt lat="42.63674" lon="1.49127">
        <ele>2249.1999511719</ele>
        <time>2023-07-22T06:50:32.000Z</time>
      </trkpt>
      <trkpt lat="42.63673" lon="1.49133">
        <ele>2248.8000488281</ele>
        <time>2023-07-22T06:50:40.000Z</time>
      </trkpt>
      <trkpt lat="42.63672" lon="1.49133">
        <ele>2248.8000488281</ele>
        <time>2023-07-22T06:50:43.000Z</time>
      </trkpt>
      <trkpt lat="42.63673" lon="1.49132">
        <ele>2248.3999023438</ele>
        <time>2023-07-22T06:50:47.000Z</time>
      </trkpt>
      <trkpt lat="42.6368" lon="1.49135">
        <ele>2248</ele>
        <time>2023-07-22T06:50:54.000Z</time>
      </trkpt>
      <trkpt lat="42.63688" lon="1.49142">
        <ele>2248.3999023438</ele>
        <time>2023-07-22T06:51:02.000Z</time>
      </trkpt>
      <trkpt lat="42.63693" lon="1.49138">
        <ele>2249</ele>
        <time>2023-07-22T06:51:09.000Z</time>
      </trkpt>
      <trkpt lat="42.63692" lon="1.49133">
        <ele>2249</ele>
        <time>2023-07-22T06:51:12.000Z</time>
      </trkpt>
      <trkpt lat="42.6369" lon="1.4913">
        <ele>2249.1999511719</ele>
        <time>2023-07-22T06:51:15.000Z</time>
      </trkpt>
      <trkpt lat="42.63689" lon="1.49127">
        <ele>2248.8000488281</ele>
        <time>2023-07-22T06:51:22.000Z</time>
      </trkpt>
      <trkpt lat="42.63689" lon="1.4913">
        <ele>2248.6000976562</ele>
        <time>2023-07-22T06:51:31.000Z</time>
      </trkpt>
      <trkpt lat="42.63689" lon="1.49128">
        <ele>2248.8000488281</ele>
        <time>2023-07-22T06:51:39.000Z</time>
      </trkpt>
      <trkpt lat="42.63691" lon="1.49137">
        <ele>2248.8000488281</ele>
        <time>2023-07-22T06:51:46.000Z</time>
      </trkpt>
      <trkpt lat="42.6369" lon="1.49139">
        <ele>2249.1999511719</ele>
        <time>2023-07-22T06:51:52.000Z</time>
      </trkpt>
      <trkpt lat="42.63694" lon="1.49141">
        <ele>2249.8000488281</ele>
        <time>2023-07-22T06:52:00.000Z</time>
      </trkpt>
      <trkpt lat="42.637" lon="1.49144">
        <ele>2250</ele>
        <time>2023-07-22T06:52:10.000Z</time>
      </trkpt>
      <trkpt lat="42.63709" lon="1.49141">
        <ele>2250.1999511719</ele>
        <time>2023-07-22T06:52:18.000Z</time>
      </trkpt>
      <trkpt lat="42.63719" lon="1.49145">
        <ele>2249.6000976562</ele>
        <time>2023-07-22T06:52:25.000Z</time>
      </trkpt>
      <trkpt lat="42.63726" lon="1.4915">
        <ele>2249.8000488281</ele>
        <time>2023-07-22T06:52:33.000Z</time>
      </trkpt>
      <trkpt lat="42.63731" lon="1.49155">
        <ele>2250.8000488281</ele>
        <time>2023-07-22T06:52:41.000Z</time>
      </trkpt>
      <trkpt lat="42.63731" lon="1.49155">
        <ele>2251</ele>
        <time>2023-07-22T06:52:42.000Z</time>
      </trkpt>
      <trkpt lat="42.63734" lon="1.49156">
        <ele>2251.8000488281</ele>
        <time>2023-07-22T06:52:50.000Z</time>
      </trkpt>
      <trkpt lat="42.63735" lon="1.49157">
        <ele>2251.8000488281</ele>
        <time>2023-07-22T06:52:53.000Z</time>
      </trkpt>
      <trkpt lat="42.63736" lon="1.49158">
        <ele>2252.1999511719</ele>
        <time>2023-07-22T06:52:57.000Z</time>
      </trkpt>
      <trkpt lat="42.63737" lon="1.4916">
        <ele>2253</ele>
        <time>2023-07-22T06:53:02.000Z</time>
      </trkpt>
      <trkpt lat="42.63738" lon="1.4916">
        <ele>2253.1999511719</ele>
        <time>2023-07-22T06:53:03.000Z</time>
      </trkpt>
      <trkpt lat="42.63741" lon="1.49162">
        <ele>2254.1999511719</ele>
        <time>2023-07-22T06:53:08.000Z</time>
      </trkpt>
      <trkpt lat="42.63742" lon="1.49162">
        <ele>2254.3999023438</ele>
        <time>2023-07-22T06:53:09.000Z</time>
      </trkpt>
      <trkpt lat="42.63745" lon="1.49166">
        <ele>2255.1999511719</ele>
        <time>2023-07-22T06:53:17.000Z</time>
      </trkpt>
      <trkpt lat="42.63745" lon="1.49166">
        <ele>2255.3999023438</ele>
        <time>2023-07-22T06:53:18.000Z</time>
      </trkpt>
      <trkpt lat="42.63745" lon="1.49169">
        <ele>2255.6000976562</ele>
        <time>2023-07-22T06:53:25.000Z</time>
      </trkpt>
      <trkpt lat="42.63744" lon="1.49166">
        <ele>2255.6000976562</ele>
        <time>2023-07-22T06:53:33.000Z</time>
      </trkpt>
      <trkpt lat="42.63745" lon="1.49167">
        <ele>2256</ele>
        <time>2023-07-22T06:53:40.000Z</time>
      </trkpt>
      <trkpt lat="42.63746" lon="1.49167">
        <ele>2256.3999023438</ele>
        <time>2023-07-22T06:53:42.000Z</time>
      </trkpt>
      <trkpt lat="42.63749" lon="1.49166">
        <ele>2257.6000976562</ele>
        <time>2023-07-22T06:53:47.000Z</time>
      </trkpt>
      <trkpt lat="42.6375" lon="1.49166">
        <ele>2257.8000488281</ele>
        <time>2023-07-22T06:53:48.000Z</time>
      </trkpt>
      <trkpt lat="42.63753" lon="1.49167">
        <ele>2258.6000976562</ele>
        <time>2023-07-22T06:53:55.000Z</time>
      </trkpt>
      <trkpt lat="42.63754" lon="1.49167">
        <ele>2258.8000488281</ele>
        <time>2023-07-22T06:53:56.000Z</time>
      </trkpt>
      <trkpt lat="42.63757" lon="1.49166">
        <ele>2259.6000976562</ele>
        <time>2023-07-22T06:54:03.000Z</time>
      </trkpt>
      <trkpt lat="42.63758" lon="1.49165">
        <ele>2259.8000488281</ele>
        <time>2023-07-22T06:54:05.000Z</time>
      </trkpt>
      <trkpt lat="42.63762" lon="1.49163">
        <ele>2260.6000976562</ele>
        <time>2023-07-22T06:54:10.000Z</time>
      </trkpt>
      <trkpt lat="42.63763" lon="1.49163">
        <ele>2261</ele>
        <time>2023-07-22T06:54:12.000Z</time>
      </trkpt>
      <trkpt lat="42.63766" lon="1.49163">
        <ele>2261.8000488281</ele>
        <time>2023-07-22T06:54:18.000Z</time>
      </trkpt>
      <trkpt lat="42.63768" lon="1.49162">
        <ele>2262</ele>
        <time>2023-07-22T06:54:21.000Z</time>
      </trkpt>
      <trkpt lat="42.63771" lon="1.49163">
        <ele>2263</ele>
        <time>2023-07-22T06:54:26.000Z</time>
      </trkpt>
      <trkpt lat="42.63771" lon="1.49163">
        <ele>2263.1999511719</ele>
        <time>2023-07-22T06:54:27.000Z</time>
      </trkpt>
      <trkpt lat="42.63775" lon="1.49163">
        <ele>2264.1999511719</ele>
        <time>2023-07-22T06:54:33.000Z</time>
      </trkpt>
      <trkpt lat="42.63776" lon="1.49162">
        <ele>2264.6000976562</ele>
        <time>2023-07-22T06:54:35.000Z</time>
      </trkpt>
      <trkpt lat="42.6378" lon="1.49159">
        <ele>2265.3999023438</ele>
        <time>2023-07-22T06:54:39.000Z</time>
      </trkpt>
      <trkpt lat="42.63781" lon="1.49154">
        <ele>2265.6000976562</ele>
        <time>2023-07-22T06:54:43.000Z</time>
      </trkpt>
      <trkpt lat="42.63785" lon="1.49149">
        <ele>2265.8000488281</ele>
        <time>2023-07-22T06:54:51.000Z</time>
      </trkpt>
      <trkpt lat="42.63788" lon="1.49147">
        <ele>2266.3999023438</ele>
        <time>2023-07-22T06:54:57.000Z</time>
      </trkpt>
      <trkpt lat="42.63789" lon="1.49146">
        <ele>2266.3999023438</ele>
        <time>2023-07-22T06:54:59.000Z</time>
      </trkpt>
      <trkpt lat="42.63792" lon="1.49135">
        <ele>2266.8000488281</ele>
        <time>2023-07-22T06:55:07.000Z</time>
      </trkpt>
      <trkpt lat="42.63793" lon="1.49133">
        <ele>2267.1999511719</ele>
        <time>2023-07-22T06:55:10.000Z</time>
      </trkpt>
      <trkpt lat="42.63794" lon="1.49133">
        <ele>2267.6000976562</ele>
        <time>2023-07-22T06:55:12.000Z</time>
      </trkpt>
      <trkpt lat="42.63797" lon="1.49134">
        <ele>2268.6000976562</ele>
        <time>2023-07-22T06:55:16.000Z</time>
      </trkpt>
      <trkpt lat="42.63799" lon="1.49133">
        <ele>2268.8000488281</ele>
        <time>2023-07-22T06:55:20.000Z</time>
      </trkpt>
      <trkpt lat="42.63802" lon="1.49131">
        <ele>2269.1999511719</ele>
        <time>2023-07-22T06:55:24.000Z</time>
      </trkpt>
      <trkpt lat="42.63807" lon="1.49129">
        <ele>2269.8000488281</ele>
        <time>2023-07-22T06:55:29.000Z</time>
      </trkpt>
      <trkpt lat="42.6381" lon="1.49128">
        <ele>2270.1999511719</ele>
        <time>2023-07-22T06:55:33.000Z</time>
      </trkpt>
      <trkpt lat="42.63815" lon="1.49124">
        <ele>2270.8000488281</ele>
        <time>2023-07-22T06:55:40.000Z</time>
      </trkpt>
      <trkpt lat="42.63818" lon="1.49119">
        <ele>2271</ele>
        <time>2023-07-22T06:55:48.000Z</time>
      </trkpt>
      <trkpt lat="42.63823" lon="1.49115">
        <ele>2271.8000488281</ele>
        <time>2023-07-22T06:55:55.000Z</time>
      </trkpt>
      <trkpt lat="42.63824" lon="1.49116">
        <ele>2272</ele>
        <time>2023-07-22T06:55:56.000Z</time>
      </trkpt>
      <trkpt lat="42.63824" lon="1.49116">
        <ele>2272</ele>
        <time>2023-07-22T06:55:57.000Z</time>
      </trkpt>
      <trkpt lat="42.63828" lon="1.49118">
        <ele>2272.8000488281</ele>
        <time>2023-07-22T06:56:02.000Z</time>
      </trkpt>
      <trkpt lat="42.63829" lon="1.49118">
        <ele>2273</ele>
        <time>2023-07-22T06:56:03.000Z</time>
      </trkpt>
      <trkpt lat="42.63833" lon="1.49112">
        <ele>2273.8000488281</ele>
        <time>2023-07-22T06:56:09.000Z</time>
      </trkpt>
      <trkpt lat="42.63835" lon="1.49108">
        <ele>2274</ele>
        <time>2023-07-22T06:56:13.000Z</time>
      </trkpt>
      <trkpt lat="42.63837" lon="1.49105">
        <ele>2274.1999511719</ele>
        <time>2023-07-22T06:56:16.000Z</time>
      </trkpt>
      <trkpt lat="42.63841" lon="1.49101">
        <ele>2275</ele>
        <time>2023-07-22T06:56:24.000Z</time>
      </trkpt>
      <trkpt lat="42.63842" lon="1.491">
        <ele>2275.1999511719</ele>
        <time>2023-07-22T06:56:25.000Z</time>
      </trkpt>
      <trkpt lat="42.63846" lon="1.49095">
        <ele>2276.1999511719</ele>
        <time>2023-07-22T06:56:32.000Z</time>
      </trkpt>
      <trkpt lat="42.63846" lon="1.49095">
        <ele>2276.3999023438</ele>
        <time>2023-07-22T06:56:33.000Z</time>
      </trkpt>
      <trkpt lat="42.63847" lon="1.49092">
        <ele>2276.6000976562</ele>
        <time>2023-07-22T06:56:39.000Z</time>
      </trkpt>
      <trkpt lat="42.6385" lon="1.49086">
        <ele>2276.6000976562</ele>
        <time>2023-07-22T06:56:45.000Z</time>
      </trkpt>
      <trkpt lat="42.63856" lon="1.49081">
        <ele>2277.6000976562</ele>
        <time>2023-07-22T06:56:52.000Z</time>
      </trkpt>
      <trkpt lat="42.63858" lon="1.4908">
        <ele>2277.6000976562</ele>
        <time>2023-07-22T06:56:54.000Z</time>
      </trkpt>
      <trkpt lat="42.63863" lon="1.49078">
        <ele>2278.1999511719</ele>
        <time>2023-07-22T06:57:01.000Z</time>
      </trkpt>
      <trkpt lat="42.63866" lon="1.49076">
        <ele>2278.8000488281</ele>
        <time>2023-07-22T06:57:05.000Z</time>
      </trkpt>
      <trkpt lat="42.63869" lon="1.49074">
        <ele>2279.1999511719</ele>
        <time>2023-07-22T06:57:08.000Z</time>
      </trkpt>
      <trkpt lat="42.63873" lon="1.4907">
        <ele>2279.8000488281</ele>
        <time>2023-07-22T06:57:13.000Z</time>
      </trkpt>
      <trkpt lat="42.63875" lon="1.49065">
        <ele>2279.8000488281</ele>
        <time>2023-07-22T06:57:17.000Z</time>
      </trkpt>
      <trkpt lat="42.63878" lon="1.49056">
        <ele>2280.3999023438</ele>
        <time>2023-07-22T06:57:25.000Z</time>
      </trkpt>
      <trkpt lat="42.63879" lon="1.49053">
        <ele>2280.8000488281</ele>
        <time>2023-07-22T06:57:28.000Z</time>
      </trkpt>
      <trkpt lat="42.63879" lon="1.49048">
        <ele>2281.1999511719</ele>
        <time>2023-07-22T06:57:32.000Z</time>
      </trkpt>
      <trkpt lat="42.63878" lon="1.4904">
        <ele>2281.3999023438</ele>
        <time>2023-07-22T06:57:40.000Z</time>
      </trkpt>
      <trkpt lat="42.63879" lon="1.49037">
        <ele>2282</ele>
        <time>2023-07-22T06:57:45.000Z</time>
      </trkpt>
      <trkpt lat="42.63879" lon="1.49036">
        <ele>2282.3999023438</ele>
        <time>2023-07-22T06:57:47.000Z</time>
      </trkpt>
      <trkpt lat="42.63879" lon="1.49036">
        <ele>2283</ele>
        <time>2023-07-22T06:57:50.000Z</time>
      </trkpt>
      <trkpt lat="42.63878" lon="1.49034">
        <ele>2283.6000976562</ele>
        <time>2023-07-22T06:57:53.000Z</time>
      </trkpt>
      <trkpt lat="42.63878" lon="1.49031">
        <ele>2284</ele>
        <time>2023-07-22T06:57:56.000Z</time>
      </trkpt>
      <trkpt lat="42.6388" lon="1.49027">
        <ele>2284.6000976562</ele>
        <time>2023-07-22T06:58:01.000Z</time>
      </trkpt>
      <trkpt lat="42.6388" lon="1.49023">
        <ele>2285.1999511719</ele>
        <time>2023-07-22T06:58:05.000Z</time>
      </trkpt>
      <trkpt lat="42.63881" lon="1.49021">
        <ele>2285.6000976562</ele>
        <time>2023-07-22T06:58:08.000Z</time>
      </trkpt>
      <trkpt lat="42.63882" lon="1.4902">
        <ele>2286.1999511719</ele>
        <time>2023-07-22T06:58:10.000Z</time>
      </trkpt>
      <trkpt lat="42.63882" lon="1.49015">
        <ele>2286.6000976562</ele>
        <time>2023-07-22T06:58:15.000Z</time>
      </trkpt>
      <trkpt lat="42.63883" lon="1.49012">
        <ele>2287.3999023438</ele>
        <time>2023-07-22T06:58:19.000Z</time>
      </trkpt>
      <trkpt lat="42.63883" lon="1.4901">
        <ele>2288</ele>
        <time>2023-07-22T06:58:22.000Z</time>
      </trkpt>
      <trkpt lat="42.63884" lon="1.49008">
        <ele>2288.3999023438</ele>
        <time>2023-07-22T06:58:25.000Z</time>
      </trkpt>
      <trkpt lat="42.63884" lon="1.49007">
        <ele>2289.1999511719</ele>
        <time>2023-07-22T06:58:30.000Z</time>
      </trkpt>
      <trkpt lat="42.63882" lon="1.49005">
        <ele>2289.3999023438</ele>
        <time>2023-07-22T06:58:34.000Z</time>
      </trkpt>
      <trkpt lat="42.63881" lon="1.49004">
        <ele>2289.6000976562</ele>
        <time>2023-07-22T06:58:37.000Z</time>
      </trkpt>
      <trkpt lat="42.6388" lon="1.48999">
        <ele>2290.8000488281</ele>
        <time>2023-07-22T06:58:44.000Z</time>
      </trkpt>
      <trkpt lat="42.63877" lon="1.48991">
        <ele>2291.6000976562</ele>
        <time>2023-07-22T06:58:52.000Z</time>
      </trkpt>
      <trkpt lat="42.63875" lon="1.48988">
        <ele>2290.3999023438</ele>
        <time>2023-07-22T06:58:59.000Z</time>
      </trkpt>
      <trkpt lat="42.63875" lon="1.48987">
        <ele>2290.3999023438</ele>
        <time>2023-07-22T06:59:00.000Z</time>
      </trkpt>
      <trkpt lat="42.63874" lon="1.48987">
        <ele>2289.6000976562</ele>
        <time>2023-07-22T06:59:06.000Z</time>
      </trkpt>
      <trkpt lat="42.63874" lon="1.48986">
        <ele>2289.6000976562</ele>
        <time>2023-07-22T06:59:08.000Z</time>
      </trkpt>
      <trkpt lat="42.63875" lon="1.48985">
        <ele>2290.8000488281</ele>
        <time>2023-07-22T06:59:11.000Z</time>
      </trkpt>
      <trkpt lat="42.63875" lon="1.48985">
        <ele>2290.3999023438</ele>
        <time>2023-07-22T06:59:16.000Z</time>
      </trkpt>
      <trkpt lat="42.63874" lon="1.48987">
        <ele>2289.3999023438</ele>
        <time>2023-07-22T06:59:20.000Z</time>
      </trkpt>
      <trkpt lat="42.63876" lon="1.48991">
        <ele>2289.6000976562</ele>
        <time>2023-07-22T06:59:26.000Z</time>
      </trkpt>
      <trkpt lat="42.63876" lon="1.48992">
        <ele>2289.6000976562</ele>
        <time>2023-07-22T06:59:27.000Z</time>
      </trkpt>
      <trkpt lat="42.63877" lon="1.48994">
        <ele>2289.8000488281</ele>
        <time>2023-07-22T06:59:33.000Z</time>
      </trkpt>
      <trkpt lat="42.63876" lon="1.49">
        <ele>2289</ele>
        <time>2023-07-22T06:59:41.000Z</time>
      </trkpt>
      <trkpt lat="42.63878" lon="1.49006">
        <ele>2288.8000488281</ele>
        <time>2023-07-22T06:59:49.000Z</time>
      </trkpt>
      <trkpt lat="42.6388" lon="1.49011">
        <ele>2288.3999023438</ele>
        <time>2023-07-22T06:59:57.000Z</time>
      </trkpt>
      <trkpt lat="42.63881" lon="1.49011">
        <ele>2288.3999023438</ele>
        <time>2023-07-22T06:59:58.000Z</time>
      </trkpt>
      <trkpt lat="42.63885" lon="1.49009">
        <ele>2289.3999023438</ele>
        <time>2023-07-22T07:00:06.000Z</time>
      </trkpt>
      <trkpt lat="42.63891" lon="1.49005">
        <ele>2290.3999023438</ele>
        <time>2023-07-22T07:00:13.000Z</time>
      </trkpt>
      <trkpt lat="42.6389" lon="1.49005">
        <ele>2290.6000976562</ele>
        <time>2023-07-22T07:00:14.000Z</time>
      </trkpt>
      <trkpt lat="42.63892" lon="1.48999">
        <ele>2291.3999023438</ele>
        <time>2023-07-22T07:00:21.000Z</time>
      </trkpt>
      <trkpt lat="42.63893" lon="1.48997">
        <ele>2291.6000976562</ele>
        <time>2023-07-22T07:00:23.000Z</time>
      </trkpt>
      <trkpt lat="42.63896" lon="1.48995">
        <ele>2292.3999023438</ele>
        <time>2023-07-22T07:00:28.000Z</time>
      </trkpt>
      <trkpt lat="42.63898" lon="1.48995">
        <ele>2292.6000976562</ele>
        <time>2023-07-22T07:00:30.000Z</time>
      </trkpt>
      <trkpt lat="42.639" lon="1.48995">
        <ele>2293</ele>
        <time>2023-07-22T07:00:33.000Z</time>
      </trkpt>
      <trkpt lat="42.63901" lon="1.48994">
        <ele>2293.6000976562</ele>
        <time>2023-07-22T07:00:36.000Z</time>
      </trkpt>
      <trkpt lat="42.63901" lon="1.48993">
        <ele>2293.8000488281</ele>
        <time>2023-07-22T07:00:37.000Z</time>
      </trkpt>
      <trkpt lat="42.63905" lon="1.48988">
        <ele>2294</ele>
        <time>2023-07-22T07:00:42.000Z</time>
      </trkpt>
      <trkpt lat="42.63908" lon="1.48979">
        <ele>2294.8000488281</ele>
        <time>2023-07-22T07:00:49.000Z</time>
      </trkpt>
      <trkpt lat="42.63908" lon="1.48974">
        <ele>2295</ele>
        <time>2023-07-22T07:00:55.000Z</time>
      </trkpt>
      <trkpt lat="42.63911" lon="1.48965">
        <ele>2295.8000488281</ele>
        <time>2023-07-22T07:01:04.000Z</time>
      </trkpt>
      <trkpt lat="42.63914" lon="1.48961">
        <ele>2297</ele>
        <time>2023-07-22T07:01:10.000Z</time>
      </trkpt>
      <trkpt lat="42.63914" lon="1.4896">
        <ele>2297.1999511719</ele>
        <time>2023-07-22T07:01:11.000Z</time>
      </trkpt>
      <trkpt lat="42.63915" lon="1.4896">
        <ele>2298</ele>
        <time>2023-07-22T07:01:17.000Z</time>
      </trkpt>
      <trkpt lat="42.63917" lon="1.4896">
        <ele>2298.3999023438</ele>
        <time>2023-07-22T07:01:20.000Z</time>
      </trkpt>
      <trkpt lat="42.6392" lon="1.48957">
        <ele>2299</ele>
        <time>2023-07-22T07:01:25.000Z</time>
      </trkpt>
      <trkpt lat="42.6392" lon="1.48954">
        <ele>2299.6000976562</ele>
        <time>2023-07-22T07:01:29.000Z</time>
      </trkpt>
      <trkpt lat="42.63921" lon="1.48954">
        <ele>2300.1999511719</ele>
        <time>2023-07-22T07:01:32.000Z</time>
      </trkpt>
      <trkpt lat="42.63921" lon="1.48954">
        <ele>2300.8000488281</ele>
        <time>2023-07-22T07:01:36.000Z</time>
      </trkpt>
      <trkpt lat="42.63922" lon="1.48954">
        <ele>2301.1999511719</ele>
        <time>2023-07-22T07:01:40.000Z</time>
      </trkpt>
      <trkpt lat="42.63926" lon="1.48952">
        <ele>2302.1999511719</ele>
        <time>2023-07-22T07:01:46.000Z</time>
      </trkpt>
      <trkpt lat="42.63926" lon="1.48951">
        <ele>2302.1999511719</ele>
        <time>2023-07-22T07:01:47.000Z</time>
      </trkpt>
      <trkpt lat="42.63927" lon="1.4895">
        <ele>2303.1999511719</ele>
        <time>2023-07-22T07:01:53.000Z</time>
      </trkpt>
      <trkpt lat="42.63927" lon="1.4895">
        <ele>2303.3999023438</ele>
        <time>2023-07-22T07:01:54.000Z</time>
      </trkpt>
      <trkpt lat="42.63929" lon="1.48948">
        <ele>2304.3999023438</ele>
        <time>2023-07-22T07:02:03.000Z</time>
      </trkpt>
      <trkpt lat="42.6393" lon="1.48947">
        <ele>2304.6000976562</ele>
        <time>2023-07-22T07:02:04.000Z</time>
      </trkpt>
      <trkpt lat="42.63934" lon="1.48944">
        <ele>2305.3999023438</ele>
        <time>2023-07-22T07:02:10.000Z</time>
      </trkpt>
      <trkpt lat="42.63936" lon="1.48942">
        <ele>2305.6000976562</ele>
        <time>2023-07-22T07:02:12.000Z</time>
      </trkpt>
      <trkpt lat="42.63937" lon="1.48939">
        <ele>2306.3999023438</ele>
        <time>2023-07-22T07:02:18.000Z</time>
      </trkpt>
      <trkpt lat="42.63937" lon="1.48938">
        <ele>2306.6000976562</ele>
        <time>2023-07-22T07:02:19.000Z</time>
      </trkpt>
      <trkpt lat="42.6394" lon="1.48933">
        <ele>2307.3999023438</ele>
        <time>2023-07-22T07:02:25.000Z</time>
      </trkpt>
      <trkpt lat="42.63941" lon="1.48933">
        <ele>2307.6000976562</ele>
        <time>2023-07-22T07:02:27.000Z</time>
      </trkpt>
      <trkpt lat="42.63944" lon="1.48932">
        <ele>2308.1999511719</ele>
        <time>2023-07-22T07:02:34.000Z</time>
      </trkpt>
      <trkpt lat="42.63946" lon="1.48932">
        <ele>2308.6000976562</ele>
        <time>2023-07-22T07:02:37.000Z</time>
      </trkpt>
      <trkpt lat="42.63948" lon="1.48932">
        <ele>2308.8000488281</ele>
        <time>2023-07-22T07:02:40.000Z</time>
      </trkpt>
      <trkpt lat="42.63951" lon="1.48933">
        <ele>2309.8000488281</ele>
        <time>2023-07-22T07:02:46.000Z</time>
      </trkpt>
      <trkpt lat="42.63951" lon="1.48932">
        <ele>2310</ele>
        <time>2023-07-22T07:02:47.000Z</time>
      </trkpt>
      <trkpt lat="42.63955" lon="1.48926">
        <ele>2311</ele>
        <time>2023-07-22T07:02:54.000Z</time>
      </trkpt>
      <trkpt lat="42.63955" lon="1.48925">
        <ele>2311.1999511719</ele>
        <time>2023-07-22T07:02:55.000Z</time>
      </trkpt>
      <trkpt lat="42.63958" lon="1.48922">
        <ele>2312</ele>
        <time>2023-07-22T07:03:02.000Z</time>
      </trkpt>
      <trkpt lat="42.6396" lon="1.48923">
        <ele>2313.1999511719</ele>
        <time>2023-07-22T07:03:09.000Z</time>
      </trkpt>
      <trkpt lat="42.63961" lon="1.48924">
        <ele>2313.1999511719</ele>
        <time>2023-07-22T07:03:10.000Z</time>
      </trkpt>
      <trkpt lat="42.63961" lon="1.48925">
        <ele>2314.1999511719</ele>
        <time>2023-07-22T07:03:15.000Z</time>
      </trkpt>
      <trkpt lat="42.63961" lon="1.48922">
        <ele>2314.3999023438</ele>
        <time>2023-07-22T07:03:18.000Z</time>
      </trkpt>
      <trkpt lat="42.63962" lon="1.4892">
        <ele>2315.1999511719</ele>
        <time>2023-07-22T07:03:25.000Z</time>
      </trkpt>
      <trkpt lat="42.63962" lon="1.48922">
        <ele>2316.1999511719</ele>
        <time>2023-07-22T07:03:33.000Z</time>
      </trkpt>
      <trkpt lat="42.63963" lon="1.48921">
        <ele>2316.3999023438</ele>
        <time>2023-07-22T07:03:35.000Z</time>
      </trkpt>
      <trkpt lat="42.63966" lon="1.48918">
        <ele>2317.1999511719</ele>
        <time>2023-07-22T07:03:40.000Z</time>
      </trkpt>
      <trkpt lat="42.63966" lon="1.48917">
        <ele>2317.3999023438</ele>
        <time>2023-07-22T07:03:41.000Z</time>
      </trkpt>
      <trkpt lat="42.6397" lon="1.48916">
        <ele>2318.3999023438</ele>
        <time>2023-07-22T07:03:48.000Z</time>
      </trkpt>
      <trkpt lat="42.6397" lon="1.48916">
        <ele>2318.3999023438</ele>
        <time>2023-07-22T07:03:49.000Z</time>
      </trkpt>
      <trkpt lat="42.63973" lon="1.48916">
        <ele>2319.6000976562</ele>
        <time>2023-07-22T07:03:56.000Z</time>
      </trkpt>
      <trkpt lat="42.63975" lon="1.48914">
        <ele>2320.6000976562</ele>
        <time>2023-07-22T07:04:04.000Z</time>
      </trkpt>
      <trkpt lat="42.63975" lon="1.48913">
        <ele>2320.8000488281</ele>
        <time>2023-07-22T07:04:05.000Z</time>
      </trkpt>
      <trkpt lat="42.63981" lon="1.4891">
        <ele>2321.8000488281</ele>
        <time>2023-07-22T07:04:12.000Z</time>
      </trkpt>
      <trkpt lat="42.63983" lon="1.4891">
        <ele>2322.8000488281</ele>
        <time>2023-07-22T07:04:19.000Z</time>
      </trkpt>
      <trkpt lat="42.63983" lon="1.4891">
        <ele>2323</ele>
        <time>2023-07-22T07:04:20.000Z</time>
      </trkpt>
      <trkpt lat="42.63983" lon="1.48907">
        <ele>2323.6000976562</ele>
        <time>2023-07-22T07:04:27.000Z</time>
      </trkpt>
      <trkpt lat="42.63983" lon="1.48907">
        <ele>2323.6000976562</ele>
        <time>2023-07-22T07:04:29.000Z</time>
      </trkpt>
      <trkpt lat="42.63985" lon="1.48904">
        <ele>2323.8000488281</ele>
        <time>2023-07-22T07:04:35.000Z</time>
      </trkpt>
      <trkpt lat="42.63985" lon="1.48904">
        <ele>2324.1999511719</ele>
        <time>2023-07-22T07:04:37.000Z</time>
      </trkpt>
      <trkpt lat="42.63989" lon="1.48906">
        <ele>2324.8000488281</ele>
        <time>2023-07-22T07:04:45.000Z</time>
      </trkpt>
      <trkpt lat="42.63994" lon="1.48907">
        <ele>2324.8000488281</ele>
        <time>2023-07-22T07:04:55.000Z</time>
      </trkpt>
      <trkpt lat="42.63995" lon="1.48907">
        <ele>2324.8000488281</ele>
        <time>2023-07-22T07:04:56.000Z</time>
      </trkpt>
      <trkpt lat="42.64002" lon="1.48907">
        <ele>2325.3999023438</ele>
        <time>2023-07-22T07:05:03.000Z</time>
      </trkpt>
      <trkpt lat="42.64007" lon="1.48908">
        <ele>2326</ele>
        <time>2023-07-22T07:05:09.000Z</time>
      </trkpt>
      <trkpt lat="42.64009" lon="1.48906">
        <ele>2327</ele>
        <time>2023-07-22T07:05:15.000Z</time>
      </trkpt>
      <trkpt lat="42.64009" lon="1.48905">
        <ele>2327.3999023438</ele>
        <time>2023-07-22T07:05:18.000Z</time>
      </trkpt>
      <trkpt lat="42.64014" lon="1.48901">
        <ele>2328</ele>
        <time>2023-07-22T07:05:24.000Z</time>
      </trkpt>
      <trkpt lat="42.64014" lon="1.48901">
        <ele>2328.1999511719</ele>
        <time>2023-07-22T07:05:25.000Z</time>
      </trkpt>
      <trkpt lat="42.64014" lon="1.48904">
        <ele>2329</ele>
        <time>2023-07-22T07:05:30.000Z</time>
      </trkpt>
      <trkpt lat="42.64014" lon="1.48905">
        <ele>2329.1999511719</ele>
        <time>2023-07-22T07:05:32.000Z</time>
      </trkpt>
      <trkpt lat="42.64016" lon="1.48904">
        <ele>2330.1999511719</ele>
        <time>2023-07-22T07:05:38.000Z</time>
      </trkpt>
      <trkpt lat="42.64015" lon="1.48901">
        <ele>2331</ele>
        <time>2023-07-22T07:05:43.000Z</time>
      </trkpt>
      <trkpt lat="42.64018" lon="1.48907">
        <ele>2331.1999511719</ele>
        <time>2023-07-22T07:05:53.000Z</time>
      </trkpt>
      <trkpt lat="42.64019" lon="1.48904">
        <ele>2331.1999511719</ele>
        <time>2023-07-22T07:06:02.000Z</time>
      </trkpt>
      <trkpt lat="42.64019" lon="1.48904">
        <ele>2331.3999023438</ele>
        <time>2023-07-22T07:06:04.000Z</time>
      </trkpt>
      <trkpt lat="42.6402" lon="1.48907">
        <ele>2331.3999023438</ele>
        <time>2023-07-22T07:06:10.000Z</time>
      </trkpt>
      <trkpt lat="42.64021" lon="1.48908">
        <ele>2332.3999023438</ele>
        <time>2023-07-22T07:06:17.000Z</time>
      </trkpt>
      <trkpt lat="42.64023" lon="1.48907">
        <ele>2333.3999023438</ele>
        <time>2023-07-22T07:06:24.000Z</time>
      </trkpt>
      <trkpt lat="42.64024" lon="1.48907">
        <ele>2333.6000976562</ele>
        <time>2023-07-22T07:06:25.000Z</time>
      </trkpt>
      <trkpt lat="42.64025" lon="1.48905">
        <ele>2334.6000976562</ele>
        <time>2023-07-22T07:06:30.000Z</time>
      </trkpt>
      <trkpt lat="42.64025" lon="1.48906">
        <ele>2334.8000488281</ele>
        <time>2023-07-22T07:06:32.000Z</time>
      </trkpt>
      <trkpt lat="42.64029" lon="1.48907">
        <ele>2335.6000976562</ele>
        <time>2023-07-22T07:06:38.000Z</time>
      </trkpt>
      <trkpt lat="42.64029" lon="1.48907">
        <ele>2336</ele>
        <time>2023-07-22T07:06:40.000Z</time>
      </trkpt>
      <trkpt lat="42.64031" lon="1.48906">
        <ele>2336.8000488281</ele>
        <time>2023-07-22T07:06:46.000Z</time>
      </trkpt>
      <trkpt lat="42.64032" lon="1.48906">
        <ele>2337.1999511719</ele>
        <time>2023-07-22T07:06:48.000Z</time>
      </trkpt>
      <trkpt lat="42.64035" lon="1.48907">
        <ele>2338</ele>
        <time>2023-07-22T07:06:54.000Z</time>
      </trkpt>
      <trkpt lat="42.64036" lon="1.48906">
        <ele>2338.3999023438</ele>
        <time>2023-07-22T07:06:56.000Z</time>
      </trkpt>
      <trkpt lat="42.64039" lon="1.48906">
        <ele>2339</ele>
        <time>2023-07-22T07:07:00.000Z</time>
      </trkpt>
      <trkpt lat="42.64039" lon="1.48907">
        <ele>2339.6000976562</ele>
        <time>2023-07-22T07:07:04.000Z</time>
      </trkpt>
      <trkpt lat="42.64041" lon="1.48909">
        <ele>2340.1999511719</ele>
        <time>2023-07-22T07:07:09.000Z</time>
      </trkpt>
      <trkpt lat="42.64041" lon="1.48909">
        <ele>2340.8000488281</ele>
        <time>2023-07-22T07:07:12.000Z</time>
      </trkpt>
      <trkpt lat="42.64044" lon="1.48909">
        <ele>2341.3999023438</ele>
        <time>2023-07-22T07:07:16.000Z</time>
      </trkpt>
      <trkpt lat="42.64045" lon="1.48908">
        <ele>2341.6000976562</ele>
        <time>2023-07-22T07:07:19.000Z</time>
      </trkpt>
      <trkpt lat="42.64045" lon="1.48909">
        <ele>2342.3999023438</ele>
        <time>2023-07-22T07:07:24.000Z</time>
      </trkpt>
      <trkpt lat="42.64045" lon="1.4891">
        <ele>2343</ele>
        <time>2023-07-22T07:07:28.000Z</time>
      </trkpt>
      <trkpt lat="42.64048" lon="1.48909">
        <ele>2343.3999023438</ele>
        <time>2023-07-22T07:07:32.000Z</time>
      </trkpt>
      <trkpt lat="42.6405" lon="1.48908">
        <ele>2343.8000488281</ele>
        <time>2023-07-22T07:07:35.000Z</time>
      </trkpt>
      <trkpt lat="42.64052" lon="1.48908">
        <ele>2344.3999023438</ele>
        <time>2023-07-22T07:07:40.000Z</time>
      </trkpt>
      <trkpt lat="42.64053" lon="1.48908">
        <ele>2344.8000488281</ele>
        <time>2023-07-22T07:07:42.000Z</time>
      </trkpt>
      <trkpt lat="42.64055" lon="1.48909">
        <ele>2345.6000976562</ele>
        <time>2023-07-22T07:07:48.000Z</time>
      </trkpt>
      <trkpt lat="42.64055" lon="1.48909">
        <ele>2345.8000488281</ele>
        <time>2023-07-22T07:07:49.000Z</time>
      </trkpt>
      <trkpt lat="42.6406" lon="1.48909">
        <ele>2346.8000488281</ele>
        <time>2023-07-22T07:07:57.000Z</time>
      </trkpt>
      <trkpt lat="42.6406" lon="1.48909">
        <ele>2346.8000488281</ele>
        <time>2023-07-22T07:07:58.000Z</time>
      </trkpt>
      <trkpt lat="42.64062" lon="1.48908">
        <ele>2347.8000488281</ele>
        <time>2023-07-22T07:08:05.000Z</time>
      </trkpt>
      <trkpt lat="42.64063" lon="1.48908">
        <ele>2348</ele>
        <time>2023-07-22T07:08:06.000Z</time>
      </trkpt>
      <trkpt lat="42.64068" lon="1.48907">
        <ele>2348.8000488281</ele>
        <time>2023-07-22T07:08:13.000Z</time>
      </trkpt>
      <trkpt lat="42.64069" lon="1.48908">
        <ele>2348.8000488281</ele>
        <time>2023-07-22T07:08:15.000Z</time>
      </trkpt>
      <trkpt lat="42.6407" lon="1.48909">
        <ele>2349</ele>
        <time>2023-07-22T07:08:16.000Z</time>
      </trkpt>
      <trkpt lat="42.64069" lon="1.48907">
        <ele>2349.6000976562</ele>
        <time>2023-07-22T07:08:19.000Z</time>
      </trkpt>
      <trkpt lat="42.6407" lon="1.48905">
        <ele>2350.1999511719</ele>
        <time>2023-07-22T07:08:22.000Z</time>
      </trkpt>
      <trkpt lat="42.64071" lon="1.48903">
        <ele>2350.3999023438</ele>
        <time>2023-07-22T07:08:25.000Z</time>
      </trkpt>
      <trkpt lat="42.64074" lon="1.48901">
        <ele>2351.1999511719</ele>
        <time>2023-07-22T07:08:32.000Z</time>
      </trkpt>
      <trkpt lat="42.64074" lon="1.489">
        <ele>2351.1999511719</ele>
        <time>2023-07-22T07:08:33.000Z</time>
      </trkpt>
      <trkpt lat="42.64075" lon="1.48899">
        <ele>2352.3999023438</ele>
        <time>2023-07-22T07:08:41.000Z</time>
      </trkpt>
      <trkpt lat="42.64078" lon="1.48894">
        <ele>2353.3999023438</ele>
        <time>2023-07-22T07:08:47.000Z</time>
      </trkpt>
      <trkpt lat="42.64079" lon="1.48892">
        <ele>2353.8000488281</ele>
        <time>2023-07-22T07:08:49.000Z</time>
      </trkpt>
      <trkpt lat="42.64083" lon="1.48892">
        <ele>2354.3999023438</ele>
        <time>2023-07-22T07:08:56.000Z</time>
      </trkpt>
      <trkpt lat="42.64083" lon="1.48893">
        <ele>2354.6000976562</ele>
        <time>2023-07-22T07:08:57.000Z</time>
      </trkpt>
      <trkpt lat="42.64085" lon="1.48892">
        <ele>2354.8000488281</ele>
        <time>2023-07-22T07:09:04.000Z</time>
      </trkpt>
      <trkpt lat="42.64085" lon="1.48894">
        <ele>2354.3999023438</ele>
        <time>2023-07-22T07:09:12.000Z</time>
      </trkpt>
      <trkpt lat="42.64082" lon="1.48896">
        <ele>2354.8000488281</ele>
        <time>2023-07-22T07:09:21.000Z</time>
      </trkpt>
      <trkpt lat="42.64084" lon="1.48898">
        <ele>2354.8000488281</ele>
        <time>2023-07-22T07:09:29.000Z</time>
      </trkpt>
      <trkpt lat="42.64085" lon="1.48895">
        <ele>2354.8000488281</ele>
        <time>2023-07-22T07:09:37.000Z</time>
      </trkpt>
      <trkpt lat="42.64088" lon="1.48894">
        <ele>2355.6000976562</ele>
        <time>2023-07-22T07:09:42.000Z</time>
      </trkpt>
      <trkpt lat="42.64088" lon="1.48894">
        <ele>2355.8000488281</ele>
        <time>2023-07-22T07:09:43.000Z</time>
      </trkpt>
      <trkpt lat="42.64094" lon="1.48896">
        <ele>2356</ele>
        <time>2023-07-22T07:09:52.000Z</time>
      </trkpt>
      <trkpt lat="42.64095" lon="1.48896">
        <ele>2356</ele>
        <time>2023-07-22T07:10:00.000Z</time>
      </trkpt>
      <trkpt lat="42.64096" lon="1.48897">
        <ele>2355.6000976562</ele>
        <time>2023-07-22T07:10:10.000Z</time>
      </trkpt>
      <trkpt lat="42.64096" lon="1.48895">
        <ele>2355.6000976562</ele>
        <time>2023-07-22T07:10:18.000Z</time>
      </trkpt>
      <trkpt lat="42.641" lon="1.48896">
        <ele>2355.1999511719</ele>
        <time>2023-07-22T07:10:24.000Z</time>
      </trkpt>
      <trkpt lat="42.64105" lon="1.48898">
        <ele>2354.6000976562</ele>
        <time>2023-07-22T07:10:31.000Z</time>
      </trkpt>
      <trkpt lat="42.64112" lon="1.48898">
        <ele>2354.1999511719</ele>
        <time>2023-07-22T07:10:37.000Z</time>
      </trkpt>
      <trkpt lat="42.64116" lon="1.48902">
        <ele>2354</ele>
        <time>2023-07-22T07:10:44.000Z</time>
      </trkpt>
      <trkpt lat="42.64118" lon="1.48906">
        <ele>2354</ele>
        <time>2023-07-22T07:10:51.000Z</time>
      </trkpt>
      <trkpt lat="42.64118" lon="1.48904">
        <ele>2353.3999023438</ele>
        <time>2023-07-22T07:10:55.000Z</time>
      </trkpt>
      <trkpt lat="42.64117" lon="1.48901">
        <ele>2353.1999511719</ele>
        <time>2023-07-22T07:10:59.000Z</time>
      </trkpt>
      <trkpt lat="42.64121" lon="1.48904">
        <ele>2352.1999511719</ele>
        <time>2023-07-22T07:11:06.000Z</time>
      </trkpt>
      <trkpt lat="42.64125" lon="1.48905">
        <ele>2351.6000976562</ele>
        <time>2023-07-22T07:11:13.000Z</time>
      </trkpt>
      <trkpt lat="42.64129" lon="1.48906">
        <ele>2351.6000976562</ele>
        <time>2023-07-22T07:11:19.000Z</time>
      </trkpt>
      <trkpt lat="42.64133" lon="1.48909">
        <ele>2353</ele>
        <time>2023-07-22T07:11:25.000Z</time>
      </trkpt>
      <trkpt lat="42.6414" lon="1.4891">
        <ele>2353.1999511719</ele>
        <time>2023-07-22T07:11:34.000Z</time>
      </trkpt>
      <trkpt lat="42.6414" lon="1.48911">
        <ele>2353.1999511719</ele>
        <time>2023-07-22T07:11:35.000Z</time>
      </trkpt>
      <trkpt lat="42.64149" lon="1.48915">
        <ele>2354.1999511719</ele>
        <time>2023-07-22T07:11:43.000Z</time>
      </trkpt>
      <trkpt lat="42.64157" lon="1.48917">
        <ele>2354.6000976562</ele>
        <time>2023-07-22T07:11:51.000Z</time>
      </trkpt>
      <trkpt lat="42.64167" lon="1.48919">
        <ele>2355.1999511719</ele>
        <time>2023-07-22T07:12:00.000Z</time>
      </trkpt>
      <trkpt lat="42.6417" lon="1.4892">
        <ele>2355.1999511719</ele>
        <time>2023-07-22T07:12:03.000Z</time>
      </trkpt>
      <trkpt lat="42.64178" lon="1.48926">
        <ele>2355.6000976562</ele>
        <time>2023-07-22T07:12:10.000Z</time>
      </trkpt>
      <trkpt lat="42.64184" lon="1.48931">
        <ele>2356</ele>
        <time>2023-07-22T07:12:17.000Z</time>
      </trkpt>
      <trkpt lat="42.64186" lon="1.48933">
        <ele>2356.1999511719</ele>
        <time>2023-07-22T07:12:21.000Z</time>
      </trkpt>
      <trkpt lat="42.64188" lon="1.48935">
        <ele>2357</ele>
        <time>2023-07-22T07:12:24.000Z</time>
      </trkpt>
      <trkpt lat="42.64191" lon="1.48939">
        <ele>2357.3999023438</ele>
        <time>2023-07-22T07:12:30.000Z</time>
      </trkpt>
      <trkpt lat="42.64193" lon="1.48941">
        <ele>2357.6000976562</ele>
        <time>2023-07-22T07:12:33.000Z</time>
      </trkpt>
      <trkpt lat="42.64194" lon="1.48941">
        <ele>2358.6000976562</ele>
        <time>2023-07-22T07:12:36.000Z</time>
      </trkpt>
      <trkpt lat="42.64197" lon="1.48943">
        <ele>2358.8000488281</ele>
        <time>2023-07-22T07:12:39.000Z</time>
      </trkpt>
      <trkpt lat="42.64199" lon="1.48944">
        <ele>2359.6000976562</ele>
        <time>2023-07-22T07:12:42.000Z</time>
      </trkpt>
      <trkpt lat="42.64205" lon="1.48946">
        <ele>2359.8000488281</ele>
        <time>2023-07-22T07:12:49.000Z</time>
      </trkpt>
      <trkpt lat="42.64209" lon="1.48948">
        <ele>2360.1999511719</ele>
        <time>2023-07-22T07:12:56.000Z</time>
      </trkpt>
      <trkpt lat="42.6421" lon="1.4895">
        <ele>2360.6000976562</ele>
        <time>2023-07-22T07:12:58.000Z</time>
      </trkpt>
      <trkpt lat="42.64213" lon="1.48953">
        <ele>2361.6000976562</ele>
        <time>2023-07-22T07:13:05.000Z</time>
      </trkpt>
      <trkpt lat="42.64221" lon="1.48954">
        <ele>2361.8000488281</ele>
        <time>2023-07-22T07:13:12.000Z</time>
      </trkpt>
      <trkpt lat="42.64228" lon="1.48959">
        <ele>2362.1999511719</ele>
        <time>2023-07-22T07:13:20.000Z</time>
      </trkpt>
      <trkpt lat="42.6423" lon="1.48963">
        <ele>2362.1999511719</ele>
        <time>2023-07-22T07:13:26.000Z</time>
      </trkpt>
      <trkpt lat="42.64231" lon="1.48966">
        <ele>2362.8000488281</ele>
        <time>2023-07-22T07:13:32.000Z</time>
      </trkpt>
      <trkpt lat="42.64232" lon="1.48966">
        <ele>2363</ele>
        <time>2023-07-22T07:13:33.000Z</time>
      </trkpt>
      <trkpt lat="42.64238" lon="1.4897">
        <ele>2363.1999511719</ele>
        <time>2023-07-22T07:13:40.000Z</time>
      </trkpt>
      <trkpt lat="42.6424" lon="1.48975">
        <ele>2363.6000976562</ele>
        <time>2023-07-22T07:13:46.000Z</time>
      </trkpt>
      <trkpt lat="42.64242" lon="1.48978">
        <ele>2364</ele>
        <time>2023-07-22T07:13:49.000Z</time>
      </trkpt>
      <trkpt lat="42.64245" lon="1.48981">
        <ele>2364.3999023438</ele>
        <time>2023-07-22T07:13:54.000Z</time>
      </trkpt>
      <trkpt lat="42.64249" lon="1.48984">
        <ele>2365</ele>
        <time>2023-07-22T07:14:00.000Z</time>
      </trkpt>
      <trkpt lat="42.6425" lon="1.48984">
        <ele>2365</ele>
        <time>2023-07-22T07:14:01.000Z</time>
      </trkpt>
      <trkpt lat="42.64256" lon="1.48988">
        <ele>2365.3999023438</ele>
        <time>2023-07-22T07:14:09.000Z</time>
      </trkpt>
      <trkpt lat="42.64265" lon="1.48999">
        <ele>2365.8000488281</ele>
        <time>2023-07-22T07:14:18.000Z</time>
      </trkpt>
      <trkpt lat="42.6427" lon="1.49002">
        <ele>2366</ele>
        <time>2023-07-22T07:14:25.000Z</time>
      </trkpt>
      <trkpt lat="42.64278" lon="1.49007">
        <ele>2366.6000976562</ele>
        <time>2023-07-22T07:14:35.000Z</time>
      </trkpt>
      <trkpt lat="42.64282" lon="1.49008">
        <ele>2367.1999511719</ele>
        <time>2023-07-22T07:14:39.000Z</time>
      </trkpt>
      <trkpt lat="42.64286" lon="1.49012">
        <ele>2367.6000976562</ele>
        <time>2023-07-22T07:14:44.000Z</time>
      </trkpt>
      <trkpt lat="42.64293" lon="1.49015">
        <ele>2367.1999511719</ele>
        <time>2023-07-22T07:14:51.000Z</time>
      </trkpt>
      <trkpt lat="42.64302" lon="1.49016">
        <ele>2367.6000976562</ele>
        <time>2023-07-22T07:15:01.000Z</time>
      </trkpt>
      <trkpt lat="42.64309" lon="1.49017">
        <ele>2367.8000488281</ele>
        <time>2023-07-22T07:15:07.000Z</time>
      </trkpt>
      <trkpt lat="42.64311" lon="1.49018">
        <ele>2368.1999511719</ele>
        <time>2023-07-22T07:15:10.000Z</time>
      </trkpt>
      <trkpt lat="42.64317" lon="1.49021">
        <ele>2369</ele>
        <time>2023-07-22T07:15:16.000Z</time>
      </trkpt>
      <trkpt lat="42.64321" lon="1.49024">
        <ele>2369</ele>
        <time>2023-07-22T07:15:24.000Z</time>
      </trkpt>
      <trkpt lat="42.64324" lon="1.49027">
        <ele>2370</ele>
        <time>2023-07-22T07:15:27.000Z</time>
      </trkpt>
      <trkpt lat="42.64328" lon="1.49028">
        <ele>2370.3999023438</ele>
        <time>2023-07-22T07:15:30.000Z</time>
      </trkpt>
      <trkpt lat="42.64333" lon="1.49031">
        <ele>2370.6000976562</ele>
        <time>2023-07-22T07:15:37.000Z</time>
      </trkpt>
      <trkpt lat="42.64334" lon="1.49032">
        <ele>2371</ele>
        <time>2023-07-22T07:15:39.000Z</time>
      </trkpt>
      <trkpt lat="42.64341" lon="1.49038">
        <ele>2371.8000488281</ele>
        <time>2023-07-22T07:15:46.000Z</time>
      </trkpt>
      <trkpt lat="42.64342" lon="1.49039">
        <ele>2372.1999511719</ele>
        <time>2023-07-22T07:15:48.000Z</time>
      </trkpt>
      <trkpt lat="42.64346" lon="1.49043">
        <ele>2372.3999023438</ele>
        <time>2023-07-22T07:15:54.000Z</time>
      </trkpt>
      <trkpt lat="42.64345" lon="1.49045">
        <ele>2373.1999511719</ele>
        <time>2023-07-22T07:15:59.000Z</time>
      </trkpt>
      <trkpt lat="42.64346" lon="1.49046">
        <ele>2373.6000976562</ele>
        <time>2023-07-22T07:16:01.000Z</time>
      </trkpt>
      <trkpt lat="42.6435" lon="1.49046">
        <ele>2374.3999023438</ele>
        <time>2023-07-22T07:16:06.000Z</time>
      </trkpt>
      <trkpt lat="42.64353" lon="1.49046">
        <ele>2374.6000976562</ele>
        <time>2023-07-22T07:16:08.000Z</time>
      </trkpt>
      <trkpt lat="42.64355" lon="1.49048">
        <ele>2375.6000976562</ele>
        <time>2023-07-22T07:16:12.000Z</time>
      </trkpt>
      <trkpt lat="42.64357" lon="1.49047">
        <ele>2376.3999023438</ele>
        <time>2023-07-22T07:16:16.000Z</time>
      </trkpt>
      <trkpt lat="42.64358" lon="1.49047">
        <ele>2376.6000976562</ele>
        <time>2023-07-22T07:16:18.000Z</time>
      </trkpt>
      <trkpt lat="42.64361" lon="1.49048">
        <ele>2377.3999023438</ele>
        <time>2023-07-22T07:16:24.000Z</time>
      </trkpt>
      <trkpt lat="42.64361" lon="1.49048">
        <ele>2377.8000488281</ele>
        <time>2023-07-22T07:16:25.000Z</time>
      </trkpt>
      <trkpt lat="42.64366" lon="1.49049">
        <ele>2378.8000488281</ele>
        <time>2023-07-22T07:16:32.000Z</time>
      </trkpt>
      <trkpt lat="42.64367" lon="1.49049">
        <ele>2379.1999511719</ele>
        <time>2023-07-22T07:16:34.000Z</time>
      </trkpt>
      <trkpt lat="42.64372" lon="1.49052">
        <ele>2379.3999023438</ele>
        <time>2023-07-22T07:16:41.000Z</time>
      </trkpt>
      <trkpt lat="42.64374" lon="1.49052">
        <ele>2380</ele>
        <time>2023-07-22T07:16:47.000Z</time>
      </trkpt>
      <trkpt lat="42.64374" lon="1.49052">
        <ele>2380.1999511719</ele>
        <time>2023-07-22T07:16:49.000Z</time>
      </trkpt>
      <trkpt lat="42.64379" lon="1.49053">
        <ele>2381.1999511719</ele>
        <time>2023-07-22T07:16:57.000Z</time>
      </trkpt>
      <trkpt lat="42.64382" lon="1.49054">
        <ele>2381.3999023438</ele>
        <time>2023-07-22T07:16:58.000Z</time>
      </trkpt>
      <trkpt lat="42.64384" lon="1.49055">
        <ele>2382.1999511719</ele>
        <time>2023-07-22T07:17:03.000Z</time>
      </trkpt>
      <trkpt lat="42.64384" lon="1.49056">
        <ele>2382.3999023438</ele>
        <time>2023-07-22T07:17:05.000Z</time>
      </trkpt>
      <trkpt lat="42.64385" lon="1.49059">
        <ele>2383.3999023438</ele>
        <time>2023-07-22T07:17:09.000Z</time>
      </trkpt>
      <trkpt lat="42.64387" lon="1.49058">
        <ele>2383.3999023438</ele>
        <time>2023-07-22T07:17:11.000Z</time>
      </trkpt>
      <trkpt lat="42.64389" lon="1.4906">
        <ele>2383.6000976562</ele>
        <time>2023-07-22T07:17:18.000Z</time>
      </trkpt>
      <trkpt lat="42.64395" lon="1.49064">
        <ele>2383.8000488281</ele>
        <time>2023-07-22T07:17:25.000Z</time>
      </trkpt>
      <trkpt lat="42.64397" lon="1.49064">
        <ele>2383.6000976562</ele>
        <time>2023-07-22T07:17:32.000Z</time>
      </trkpt>
      <trkpt lat="42.64396" lon="1.49066">
        <ele>2383.6000976562</ele>
        <time>2023-07-22T07:17:46.000Z</time>
      </trkpt>
      <trkpt lat="42.64393" lon="1.49065">
        <ele>2383.1999511719</ele>
        <time>2023-07-22T07:17:54.000Z</time>
      </trkpt>
      <trkpt lat="42.64397" lon="1.49066">
        <ele>2383.6000976562</ele>
        <time>2023-07-22T07:18:00.000Z</time>
      </trkpt>
      <trkpt lat="42.64406" lon="1.49069">
        <ele>2385.3999023438</ele>
        <time>2023-07-22T07:18:11.000Z</time>
      </trkpt>
      <trkpt lat="42.64407" lon="1.4907">
        <ele>2385.8000488281</ele>
        <time>2023-07-22T07:18:13.000Z</time>
      </trkpt>
      <trkpt lat="42.64411" lon="1.49072">
        <ele>2386.6000976562</ele>
        <time>2023-07-22T07:18:19.000Z</time>
      </trkpt>
      <trkpt lat="42.64413" lon="1.49074">
        <ele>2387</ele>
        <time>2023-07-22T07:18:22.000Z</time>
      </trkpt>
      <trkpt lat="42.64416" lon="1.49079">
        <ele>2387.6000976562</ele>
        <time>2023-07-22T07:18:27.000Z</time>
      </trkpt>
      <trkpt lat="42.64418" lon="1.4908">
        <ele>2388.1999511719</ele>
        <time>2023-07-22T07:18:30.000Z</time>
      </trkpt>
      <trkpt lat="42.64418" lon="1.4908">
        <ele>2388.8000488281</ele>
        <time>2023-07-22T07:18:34.000Z</time>
      </trkpt>
      <trkpt lat="42.64418" lon="1.4908">
        <ele>2389</ele>
        <time>2023-07-22T07:18:35.000Z</time>
      </trkpt>
      <trkpt lat="42.6442" lon="1.49082">
        <ele>2389.8000488281</ele>
        <time>2023-07-22T07:18:40.000Z</time>
      </trkpt>
      <trkpt lat="42.64422" lon="1.49085">
        <ele>2390.1999511719</ele>
        <time>2023-07-22T07:18:42.000Z</time>
      </trkpt>
      <trkpt lat="42.64425" lon="1.49088">
        <ele>2390.8000488281</ele>
        <time>2023-07-22T07:18:45.000Z</time>
      </trkpt>
      <trkpt lat="42.64427" lon="1.4909">
        <ele>2391.3999023438</ele>
        <time>2023-07-22T07:18:50.000Z</time>
      </trkpt>
      <trkpt lat="42.64428" lon="1.49091">
        <ele>2391.8000488281</ele>
        <time>2023-07-22T07:18:53.000Z</time>
      </trkpt>
      <trkpt lat="42.64428" lon="1.49092">
        <ele>2392.6000976562</ele>
        <time>2023-07-22T07:18:58.000Z</time>
      </trkpt>
      <trkpt lat="42.64428" lon="1.49092">
        <ele>2393</ele>
        <time>2023-07-22T07:18:59.000Z</time>
      </trkpt>
      <trkpt lat="42.64431" lon="1.49096">
        <ele>2394</ele>
        <time>2023-07-22T07:19:06.000Z</time>
      </trkpt>
      <trkpt lat="42.64431" lon="1.49097">
        <ele>2394.3999023438</ele>
        <time>2023-07-22T07:19:08.000Z</time>
      </trkpt>
      <trkpt lat="42.64432" lon="1.49099">
        <ele>2395.1999511719</ele>
        <time>2023-07-22T07:19:13.000Z</time>
      </trkpt>
      <trkpt lat="42.64431" lon="1.491">
        <ele>2395.1999511719</ele>
        <time>2023-07-22T07:19:14.000Z</time>
      </trkpt>
      <trkpt lat="42.64432" lon="1.49104">
        <ele>2395.6000976562</ele>
        <time>2023-07-22T07:19:20.000Z</time>
      </trkpt>
      <trkpt lat="42.64433" lon="1.49106">
        <ele>2396.1999511719</ele>
        <time>2023-07-22T07:19:25.000Z</time>
      </trkpt>
      <trkpt lat="42.64433" lon="1.49106">
        <ele>2396.6000976562</ele>
        <time>2023-07-22T07:19:28.000Z</time>
      </trkpt>
      <trkpt lat="42.64435" lon="1.49107">
        <ele>2397.1999511719</ele>
        <time>2023-07-22T07:19:33.000Z</time>
      </trkpt>
      <trkpt lat="42.64436" lon="1.49109">
        <ele>2397.8000488281</ele>
        <time>2023-07-22T07:19:37.000Z</time>
      </trkpt>
      <trkpt lat="42.64437" lon="1.49112">
        <ele>2398.1999511719</ele>
        <time>2023-07-22T07:19:45.000Z</time>
      </trkpt>
      <trkpt lat="42.64437" lon="1.49113">
        <ele>2398.3999023438</ele>
        <time>2023-07-22T07:19:47.000Z</time>
      </trkpt>
      <trkpt lat="42.64439" lon="1.49116">
        <ele>2399</ele>
        <time>2023-07-22T07:19:53.000Z</time>
      </trkpt>
      <trkpt lat="42.64441" lon="1.49119">
        <ele>2399.3999023438</ele>
        <time>2023-07-22T07:19:57.000Z</time>
      </trkpt>
      <trkpt lat="42.64443" lon="1.4912">
        <ele>2400</ele>
        <time>2023-07-22T07:20:00.000Z</time>
      </trkpt>
      <trkpt lat="42.64444" lon="1.49122">
        <ele>2400.6000976562</ele>
        <time>2023-07-22T07:20:05.000Z</time>
      </trkpt>
      <trkpt lat="42.64446" lon="1.49125">
        <ele>2401.1999511719</ele>
        <time>2023-07-22T07:20:08.000Z</time>
      </trkpt>
      <trkpt lat="42.64448" lon="1.49126">
        <ele>2401.6000976562</ele>
        <time>2023-07-22T07:20:11.000Z</time>
      </trkpt>
      <trkpt lat="42.64448" lon="1.49128">
        <ele>2402.3999023438</ele>
        <time>2023-07-22T07:20:15.000Z</time>
      </trkpt>
      <trkpt lat="42.64447" lon="1.49128">
        <ele>2402.8000488281</ele>
        <time>2023-07-22T07:20:17.000Z</time>
      </trkpt>
      <trkpt lat="42.64446" lon="1.4913">
        <ele>2403.6000976562</ele>
        <time>2023-07-22T07:20:22.000Z</time>
      </trkpt>
      <trkpt lat="42.64447" lon="1.49131">
        <ele>2403.8000488281</ele>
        <time>2023-07-22T07:20:23.000Z</time>
      </trkpt>
      <trkpt lat="42.6445" lon="1.49134">
        <ele>2404.8000488281</ele>
        <time>2023-07-22T07:20:29.000Z</time>
      </trkpt>
      <trkpt lat="42.64452" lon="1.49135">
        <ele>2406</ele>
        <time>2023-07-22T07:20:35.000Z</time>
      </trkpt>
      <trkpt lat="42.64454" lon="1.49135">
        <ele>2406.3999023438</ele>
        <time>2023-07-22T07:20:38.000Z</time>
      </trkpt>
      <trkpt lat="42.64457" lon="1.49136">
        <ele>2407</ele>
        <time>2023-07-22T07:20:41.000Z</time>
      </trkpt>
      <trkpt lat="42.64459" lon="1.49139">
        <ele>2407.6000976562</ele>
        <time>2023-07-22T07:20:46.000Z</time>
      </trkpt>
      <trkpt lat="42.64458" lon="1.49139">
        <ele>2408</ele>
        <time>2023-07-22T07:20:51.000Z</time>
      </trkpt>
      <trkpt lat="42.64458" lon="1.49141">
        <ele>2408.1999511719</ele>
        <time>2023-07-22T07:20:54.000Z</time>
      </trkpt>
      <trkpt lat="42.64459" lon="1.49144">
        <ele>2409.1999511719</ele>
        <time>2023-07-22T07:20:59.000Z</time>
      </trkpt>
      <trkpt lat="42.64458" lon="1.49144">
        <ele>2410</ele>
        <time>2023-07-22T07:21:03.000Z</time>
      </trkpt>
      <trkpt lat="42.64458" lon="1.49146">
        <ele>2410.1999511719</ele>
        <time>2023-07-22T07:21:08.000Z</time>
      </trkpt>
      <trkpt lat="42.64459" lon="1.49146">
        <ele>2410.8000488281</ele>
        <time>2023-07-22T07:21:13.000Z</time>
      </trkpt>
      <trkpt lat="42.6446" lon="1.49146">
        <ele>2411.3999023438</ele>
        <time>2023-07-22T07:21:15.000Z</time>
      </trkpt>
      <trkpt lat="42.64462" lon="1.49149">
        <ele>2412.3999023438</ele>
        <time>2023-07-22T07:21:23.000Z</time>
      </trkpt>
      <trkpt lat="42.64464" lon="1.49153">
        <ele>2412.6000976562</ele>
        <time>2023-07-22T07:21:29.000Z</time>
      </trkpt>
      <trkpt lat="42.64465" lon="1.49155">
        <ele>2413.3999023438</ele>
        <time>2023-07-22T07:21:33.000Z</time>
      </trkpt>
      <trkpt lat="42.64467" lon="1.49155">
        <ele>2413.8000488281</ele>
        <time>2023-07-22T07:21:37.000Z</time>
      </trkpt>
      <trkpt lat="42.64471" lon="1.49157">
        <ele>2414.3999023438</ele>
        <time>2023-07-22T07:21:41.000Z</time>
      </trkpt>
      <trkpt lat="42.64471" lon="1.49157">
        <ele>2414.8000488281</ele>
        <time>2023-07-22T07:21:44.000Z</time>
      </trkpt>
      <trkpt lat="42.64473" lon="1.49159">
        <ele>2415.3999023438</ele>
        <time>2023-07-22T07:21:49.000Z</time>
      </trkpt>
      <trkpt lat="42.64473" lon="1.49159">
        <ele>2415.6000976562</ele>
        <time>2023-07-22T07:21:50.000Z</time>
      </trkpt>
      <trkpt lat="42.64471" lon="1.4916">
        <ele>2416.8000488281</ele>
        <time>2023-07-22T07:21:57.000Z</time>
      </trkpt>
      <trkpt lat="42.64471" lon="1.4916">
        <ele>2417.1999511719</ele>
        <time>2023-07-22T07:21:58.000Z</time>
      </trkpt>
      <trkpt lat="42.64472" lon="1.49162">
        <ele>2417.3999023438</ele>
        <time>2023-07-22T07:22:07.000Z</time>
      </trkpt>
      <trkpt lat="42.64472" lon="1.49164">
        <ele>2418</ele>
        <time>2023-07-22T07:22:11.000Z</time>
      </trkpt>
      <trkpt lat="42.64472" lon="1.49165">
        <ele>2418.6000976562</ele>
        <time>2023-07-22T07:22:13.000Z</time>
      </trkpt>
      <trkpt lat="42.64471" lon="1.49168">
        <ele>2419</ele>
        <time>2023-07-22T07:22:17.000Z</time>
      </trkpt>
      <trkpt lat="42.64471" lon="1.49172">
        <ele>2420</ele>
        <time>2023-07-22T07:22:23.000Z</time>
      </trkpt>
      <trkpt lat="42.64471" lon="1.49178">
        <ele>2421.1999511719</ele>
        <time>2023-07-22T07:22:30.000Z</time>
      </trkpt>
      <trkpt lat="42.64471" lon="1.49178">
        <ele>2421.1999511719</ele>
        <time>2023-07-22T07:22:31.000Z</time>
      </trkpt>
      <trkpt lat="42.64472" lon="1.49182">
        <ele>2422.3999023438</ele>
        <time>2023-07-22T07:22:36.000Z</time>
      </trkpt>
      <trkpt lat="42.64472" lon="1.49183">
        <ele>2423</ele>
        <time>2023-07-22T07:22:41.000Z</time>
      </trkpt>
      <trkpt lat="42.64472" lon="1.49184">
        <ele>2423.1999511719</ele>
        <time>2023-07-22T07:22:45.000Z</time>
      </trkpt>
      <trkpt lat="42.64473" lon="1.49185">
        <ele>2423.6000976562</ele>
        <time>2023-07-22T07:22:46.000Z</time>
      </trkpt>
      <trkpt lat="42.64473" lon="1.49185">
        <ele>2423.6000976562</ele>
        <time>2023-07-22T07:22:48.000Z</time>
      </trkpt>
      <trkpt lat="42.64475" lon="1.49184">
        <ele>2424.3999023438</ele>
        <time>2023-07-22T07:22:57.000Z</time>
      </trkpt>
      <trkpt lat="42.64483" lon="1.49183">
        <ele>2424.3999023438</ele>
        <time>2023-07-22T07:23:06.000Z</time>
      </trkpt>
      <trkpt lat="42.64488" lon="1.4918">
        <ele>2424.3999023438</ele>
        <time>2023-07-22T07:23:12.000Z</time>
      </trkpt>
      <trkpt lat="42.64489" lon="1.49179">
        <ele>2424.6000976562</ele>
        <time>2023-07-22T07:23:14.000Z</time>
      </trkpt>
      <trkpt lat="42.6449" lon="1.49179">
        <ele>2425.3999023438</ele>
        <time>2023-07-22T07:23:19.000Z</time>
      </trkpt>
      <trkpt lat="42.6449" lon="1.49179">
        <ele>2425.6000976562</ele>
        <time>2023-07-22T07:23:20.000Z</time>
      </trkpt>
      <trkpt lat="42.64492" lon="1.4918">
        <ele>2426.8000488281</ele>
        <time>2023-07-22T07:23:25.000Z</time>
      </trkpt>
      <trkpt lat="42.64493" lon="1.4918">
        <ele>2427</ele>
        <time>2023-07-22T07:23:26.000Z</time>
      </trkpt>
      <trkpt lat="42.64493" lon="1.49183">
        <ele>2427.3999023438</ele>
        <time>2023-07-22T07:23:31.000Z</time>
      </trkpt>
      <trkpt lat="42.64492" lon="1.49183">
        <ele>2427.3999023438</ele>
        <time>2023-07-22T07:23:35.000Z</time>
      </trkpt>
      <trkpt lat="42.64489" lon="1.49174">
        <ele>2426.3999023438</ele>
        <time>2023-07-22T07:23:42.000Z</time>
      </trkpt>
      <trkpt lat="42.64489" lon="1.49175">
        <ele>2426.1999511719</ele>
        <time>2023-07-22T07:23:48.000Z</time>
      </trkpt>
      <trkpt lat="42.64488" lon="1.49174">
        <ele>2426.3999023438</ele>
        <time>2023-07-22T07:23:57.000Z</time>
      </trkpt>
      <trkpt lat="42.64489" lon="1.49176">
        <ele>2427</ele>
        <time>2023-07-22T07:24:05.000Z</time>
      </trkpt>
      <trkpt lat="42.64489" lon="1.49176">
        <ele>2426.6000976562</ele>
        <time>2023-07-22T07:24:15.000Z</time>
      </trkpt>
      <trkpt lat="42.64489" lon="1.49171">
        <ele>2426.6000976562</ele>
        <time>2023-07-22T07:24:22.000Z</time>
      </trkpt>
      <trkpt lat="42.64489" lon="1.49173">
        <ele>2426.1999511719</ele>
        <time>2023-07-22T07:24:27.000Z</time>
      </trkpt>
      <trkpt lat="42.64489" lon="1.49171">
        <ele>2426.1999511719</ele>
        <time>2023-07-22T07:24:35.000Z</time>
      </trkpt>
      <trkpt lat="42.6449" lon="1.49173">
        <ele>2426</ele>
        <time>2023-07-22T07:24:42.000Z</time>
      </trkpt>
      <trkpt lat="42.6449" lon="1.49172">
        <ele>2425.6000976562</ele>
        <time>2023-07-22T07:24:44.000Z</time>
      </trkpt>
      <trkpt lat="42.64489" lon="1.49174">
        <ele>2425.1999511719</ele>
        <time>2023-07-22T07:24:49.000Z</time>
      </trkpt>
      <trkpt lat="42.6449" lon="1.49176">
        <ele>2424.8000488281</ele>
        <time>2023-07-22T07:24:58.000Z</time>
      </trkpt>
      <trkpt lat="42.64489" lon="1.49173">
        <ele>2425</ele>
        <time>2023-07-22T07:25:08.000Z</time>
      </trkpt>
      <trkpt lat="42.6449" lon="1.49174">
        <ele>2424.8000488281</ele>
        <time>2023-07-22T07:25:14.000Z</time>
      </trkpt>
      <trkpt lat="42.64488" lon="1.49173">
        <ele>2424.8000488281</ele>
        <time>2023-07-22T07:25:21.000Z</time>
      </trkpt>
      <trkpt lat="42.64488" lon="1.49172">
        <ele>2425.6000976562</ele>
        <time>2023-07-22T07:25:26.000Z</time>
      </trkpt>
      <trkpt lat="42.64488" lon="1.49172">
        <ele>2426</ele>
        <time>2023-07-22T07:25:34.000Z</time>
      </trkpt>
      <trkpt lat="42.6449" lon="1.49174">
        <ele>2425.6000976562</ele>
        <time>2023-07-22T07:25:41.000Z</time>
      </trkpt>
      <trkpt lat="42.64491" lon="1.49175">
        <ele>2425.6000976562</ele>
        <time>2023-07-22T07:25:49.000Z</time>
      </trkpt>
      <trkpt lat="42.6449" lon="1.49172">
        <ele>2425.1999511719</ele>
        <time>2023-07-22T07:25:56.000Z</time>
      </trkpt>
      <trkpt lat="42.6449" lon="1.49174">
        <ele>2425.3999023438</ele>
        <time>2023-07-22T07:26:03.000Z</time>
      </trkpt>
      <trkpt lat="42.64491" lon="1.49174">
        <ele>2425.1999511719</ele>
        <time>2023-07-22T07:26:11.000Z</time>
      </trkpt>
      <trkpt lat="42.64489" lon="1.49173">
        <ele>2425.3999023438</ele>
        <time>2023-07-22T07:26:18.000Z</time>
      </trkpt>
      <trkpt lat="42.64491" lon="1.49174">
        <ele>2425.1999511719</ele>
        <time>2023-07-22T07:26:25.000Z</time>
      </trkpt>
      <trkpt lat="42.64491" lon="1.49175">
        <ele>2424.8000488281</ele>
        <time>2023-07-22T07:26:34.000Z</time>
      </trkpt>
      <trkpt lat="42.64491" lon="1.49175">
        <ele>2424.6000976562</ele>
        <time>2023-07-22T07:26:37.000Z</time>
      </trkpt>
      <trkpt lat="42.64489" lon="1.49174">
        <ele>2424.6000976562</ele>
        <time>2023-07-22T07:26:45.000Z</time>
      </trkpt>
      <trkpt lat="42.64488" lon="1.49174">
        <ele>2424.8000488281</ele>
        <time>2023-07-22T07:27:01.000Z</time>
      </trkpt>
      <trkpt lat="42.64488" lon="1.49176">
        <ele>2424.6000976562</ele>
        <time>2023-07-22T07:27:09.000Z</time>
      </trkpt>
      <trkpt lat="42.64489" lon="1.49177">
        <ele>2424.6000976562</ele>
        <time>2023-07-22T07:27:16.000Z</time>
      </trkpt>
      <trkpt lat="42.64489" lon="1.49177">
        <ele>2424.1999511719</ele>
        <time>2023-07-22T07:27:26.000Z</time>
      </trkpt>
      <trkpt lat="42.64491" lon="1.49175">
        <ele>2424.3999023438</ele>
        <time>2023-07-22T07:27:47.000Z</time>
      </trkpt>
      <trkpt lat="42.6449" lon="1.49174">
        <ele>2424.6000976562</ele>
        <time>2023-07-22T07:27:57.000Z</time>
      </trkpt>
      <trkpt lat="42.6449" lon="1.49175">
        <ele>2425</ele>
        <time>2023-07-22T07:28:07.000Z</time>
      </trkpt>
      <trkpt lat="42.64489" lon="1.49175">
        <ele>2424.8000488281</ele>
        <time>2023-07-22T07:28:14.000Z</time>
      </trkpt>
      <trkpt lat="42.64491" lon="1.49175">
        <ele>2424.6000976562</ele>
        <time>2023-07-22T07:28:28.000Z</time>
      </trkpt>
      <trkpt lat="42.64491" lon="1.49174">
        <ele>2424.1999511719</ele>
        <time>2023-07-22T07:28:37.000Z</time>
      </trkpt>
      <trkpt lat="42.64492" lon="1.49176">
        <ele>2424.1999511719</ele>
        <time>2023-07-22T07:28:46.000Z</time>
      </trkpt>
      <trkpt lat="42.64491" lon="1.49176">
        <ele>2424.3999023438</ele>
        <time>2023-07-22T07:28:54.000Z</time>
      </trkpt>
      <trkpt lat="42.64489" lon="1.49176">
        <ele>2424.8000488281</ele>
        <time>2023-07-22T07:29:03.000Z</time>
      </trkpt>
      <trkpt lat="42.6449" lon="1.49173">
        <ele>2424.8000488281</ele>
        <time>2023-07-22T07:29:12.000Z</time>
      </trkpt>
      <trkpt lat="42.64489" lon="1.49179">
        <ele>2424.8000488281</ele>
        <time>2023-07-22T07:29:20.000Z</time>
      </trkpt>
      <trkpt lat="42.64489" lon="1.49176">
        <ele>2424.6000976562</ele>
        <time>2023-07-22T07:29:28.000Z</time>
      </trkpt>
      <trkpt lat="42.64492" lon="1.49176">
        <ele>2424.8000488281</ele>
        <time>2023-07-22T07:29:35.000Z</time>
      </trkpt>
      <trkpt lat="42.64494" lon="1.49174">
        <ele>2424.8000488281</ele>
        <time>2023-07-22T07:29:43.000Z</time>
      </trkpt>
      <trkpt lat="42.64489" lon="1.49171">
        <ele>2424.8000488281</ele>
        <time>2023-07-22T07:29:51.000Z</time>
      </trkpt>
      <trkpt lat="42.64486" lon="1.4917">
        <ele>2425</ele>
        <time>2023-07-22T07:30:00.000Z</time>
      </trkpt>
      <trkpt lat="42.64489" lon="1.49174">
        <ele>2425</ele>
        <time>2023-07-22T07:30:07.000Z</time>
      </trkpt>
      <trkpt lat="42.64489" lon="1.49174">
        <ele>2424.8000488281</ele>
        <time>2023-07-22T07:30:13.000Z</time>
      </trkpt>
      <trkpt lat="42.64491" lon="1.49179">
        <ele>2424.6000976562</ele>
        <time>2023-07-22T07:30:31.000Z</time>
      </trkpt>
      <trkpt lat="42.64491" lon="1.49177">
        <ele>2424.1999511719</ele>
        <time>2023-07-22T07:30:40.000Z</time>
      </trkpt>
      <trkpt lat="42.64489" lon="1.49175">
        <ele>2424.6000976562</ele>
        <time>2023-07-22T07:30:48.000Z</time>
      </trkpt>
      <trkpt lat="42.64489" lon="1.49176">
        <ele>2425</ele>
        <time>2023-07-22T07:30:56.000Z</time>
      </trkpt>
      <trkpt lat="42.64491" lon="1.49174">
        <ele>2424.6000976562</ele>
        <time>2023-07-22T07:31:04.000Z</time>
      </trkpt>
      <trkpt lat="42.64492" lon="1.49174">
        <ele>2424.1999511719</ele>
        <time>2023-07-22T07:31:14.000Z</time>
      </trkpt>
      <trkpt lat="42.6449" lon="1.49173">
        <ele>2424.6000976562</ele>
        <time>2023-07-22T07:31:20.000Z</time>
      </trkpt>
      <trkpt lat="42.64492" lon="1.49174">
        <ele>2425.3999023438</ele>
        <time>2023-07-22T07:31:28.000Z</time>
      </trkpt>
      <trkpt lat="42.64496" lon="1.49174">
        <ele>2425.6000976562</ele>
        <time>2023-07-22T07:31:32.000Z</time>
      </trkpt>
      <trkpt lat="42.64496" lon="1.49174">
        <ele>2425.6000976562</ele>
        <time>2023-07-22T07:31:35.000Z</time>
      </trkpt>
      <trkpt lat="42.64494" lon="1.49175">
        <ele>2425.6000976562</ele>
        <time>2023-07-22T07:31:43.000Z</time>
      </trkpt>
      <trkpt lat="42.64493" lon="1.49176">
        <ele>2425.3999023438</ele>
        <time>2023-07-22T07:31:51.000Z</time>
      </trkpt>
      <trkpt lat="42.64493" lon="1.49174">
        <ele>2425.3999023438</ele>
        <time>2023-07-22T07:31:58.000Z</time>
      </trkpt>
      <trkpt lat="42.64495" lon="1.49174">
        <ele>2425.3999023438</ele>
        <time>2023-07-22T07:32:06.000Z</time>
      </trkpt>
      <trkpt lat="42.64491" lon="1.49173">
        <ele>2425.1999511719</ele>
        <time>2023-07-22T07:32:15.000Z</time>
      </trkpt>
      <trkpt lat="42.64491" lon="1.49174">
        <ele>2425.6000976562</ele>
        <time>2023-07-22T07:32:23.000Z</time>
      </trkpt>
      <trkpt lat="42.64488" lon="1.49178">
        <ele>2424.8000488281</ele>
        <time>2023-07-22T07:32:29.000Z</time>
      </trkpt>
      <trkpt lat="42.64487" lon="1.49179">
        <ele>2424.6000976562</ele>
        <time>2023-07-22T07:32:30.000Z</time>
      </trkpt>
      <trkpt lat="42.64482" lon="1.49181">
        <ele>2423.3999023438</ele>
        <time>2023-07-22T07:32:35.000Z</time>
      </trkpt>
      <trkpt lat="42.64482" lon="1.49182">
        <ele>2423.3999023438</ele>
        <time>2023-07-22T07:32:36.000Z</time>
      </trkpt>
      <trkpt lat="42.64482" lon="1.49185">
        <ele>2423.1999511719</ele>
        <time>2023-07-22T07:32:44.000Z</time>
      </trkpt>
      <trkpt lat="42.64485" lon="1.49183">
        <ele>2423.6000976562</ele>
        <time>2023-07-22T07:32:49.000Z</time>
      </trkpt>
      <trkpt lat="42.64489" lon="1.49177">
        <ele>2423.8000488281</ele>
        <time>2023-07-22T07:32:54.000Z</time>
      </trkpt>
      <trkpt lat="42.64489" lon="1.49175">
        <ele>2424.1999511719</ele>
        <time>2023-07-22T07:32:59.000Z</time>
      </trkpt>
      <trkpt lat="42.64489" lon="1.49174">
        <ele>2424.3999023438</ele>
        <time>2023-07-22T07:33:00.000Z</time>
      </trkpt>
      <trkpt lat="42.64489" lon="1.49172">
        <ele>2425</ele>
        <time>2023-07-22T07:33:05.000Z</time>
      </trkpt>
      <trkpt lat="42.6449" lon="1.49174">
        <ele>2425.1999511719</ele>
        <time>2023-07-22T07:33:13.000Z</time>
      </trkpt>
      <trkpt lat="42.64491" lon="1.49174">
        <ele>2424.6000976562</ele>
        <time>2023-07-22T07:33:21.000Z</time>
      </trkpt>
      <trkpt lat="42.64488" lon="1.49175">
        <ele>2424</ele>
        <time>2023-07-22T07:33:30.000Z</time>
      </trkpt>
      <trkpt lat="42.64484" lon="1.49177">
        <ele>2423.3999023438</ele>
        <time>2023-07-22T07:33:34.000Z</time>
      </trkpt>
      <trkpt lat="42.64479" lon="1.49179">
        <ele>2422.8000488281</ele>
        <time>2023-07-22T07:33:39.000Z</time>
      </trkpt>
      <trkpt lat="42.64479" lon="1.49176">
        <ele>2422.6000976562</ele>
        <time>2023-07-22T07:33:45.000Z</time>
      </trkpt>
      <trkpt lat="42.64479" lon="1.49175">
        <ele>2422.6000976562</ele>
        <time>2023-07-22T07:33:47.000Z</time>
      </trkpt>
      <trkpt lat="42.64476" lon="1.49177">
        <ele>2423</ele>
        <time>2023-07-22T07:33:51.000Z</time>
      </trkpt>
      <trkpt lat="42.64475" lon="1.49183">
        <ele>2423.3999023438</ele>
        <time>2023-07-22T07:33:58.000Z</time>
      </trkpt>
      <trkpt lat="42.64476" lon="1.49187">
        <ele>2423.1999511719</ele>
        <time>2023-07-22T07:34:04.000Z</time>
      </trkpt>
      <trkpt lat="42.64473" lon="1.49186">
        <ele>2424</ele>
        <time>2023-07-22T07:34:13.000Z</time>
      </trkpt>
      <trkpt lat="42.64473" lon="1.49183">
        <ele>2424</ele>
        <time>2023-07-22T07:34:19.000Z</time>
      </trkpt>
      <trkpt lat="42.64473" lon="1.49179">
        <ele>2422.6000976562</ele>
        <time>2023-07-22T07:34:26.000Z</time>
      </trkpt>
      <trkpt lat="42.64475" lon="1.49177">
        <ele>2422.1999511719</ele>
        <time>2023-07-22T07:34:30.000Z</time>
      </trkpt>
      <trkpt lat="42.64476" lon="1.49177">
        <ele>2422</ele>
        <time>2023-07-22T07:34:34.000Z</time>
      </trkpt>
      <trkpt lat="42.64475" lon="1.49176">
        <ele>2422</ele>
        <time>2023-07-22T07:34:40.000Z</time>
      </trkpt>
      <trkpt lat="42.64475" lon="1.49182">
        <ele>2422.1999511719</ele>
        <time>2023-07-22T07:34:46.000Z</time>
      </trkpt>
      <trkpt lat="42.64475" lon="1.49185">
        <ele>2422.8000488281</ele>
        <time>2023-07-22T07:34:53.000Z</time>
      </trkpt>
      <trkpt lat="42.64477" lon="1.49184">
        <ele>2423.3999023438</ele>
        <time>2023-07-22T07:34:57.000Z</time>
      </trkpt>
      <trkpt lat="42.64479" lon="1.49183">
        <ele>2423.3999023438</ele>
        <time>2023-07-22T07:34:59.000Z</time>
      </trkpt>
      <trkpt lat="42.64482" lon="1.49179">
        <ele>2423.8000488281</ele>
        <time>2023-07-22T07:35:04.000Z</time>
      </trkpt>
      <trkpt lat="42.64486" lon="1.49174">
        <ele>2423.8000488281</ele>
        <time>2023-07-22T07:35:09.000Z</time>
      </trkpt>
      <trkpt lat="42.64489" lon="1.49174">
        <ele>2424</ele>
        <time>2023-07-22T07:35:12.000Z</time>
      </trkpt>
      <trkpt lat="42.64491" lon="1.49173">
        <ele>2424.3999023438</ele>
        <time>2023-07-22T07:35:15.000Z</time>
      </trkpt>
      <trkpt lat="42.64491" lon="1.49173">
        <ele>2424.6000976562</ele>
        <time>2023-07-22T07:35:16.000Z</time>
      </trkpt>
      <trkpt lat="42.64492" lon="1.49173">
        <ele>2424.8000488281</ele>
        <time>2023-07-22T07:35:18.000Z</time>
      </trkpt>
      <trkpt lat="42.64492" lon="1.49173">
        <ele>2424.8000488281</ele>
        <time>2023-07-22T07:35:20.000Z</time>
      </trkpt>
      <trkpt lat="42.64492" lon="1.49173">
        <ele>2425</ele>
        <time>2023-07-22T07:35:23.000Z</time>
      </trkpt>
      <trkpt lat="42.64491" lon="1.49171">
        <ele>2425</ele>
        <time>2023-07-22T07:35:29.000Z</time>
      </trkpt>
      <trkpt lat="42.64489" lon="1.49167">
        <ele>2425.3999023438</ele>
        <time>2023-07-22T07:35:33.000Z</time>
      </trkpt>
      <trkpt lat="42.64485" lon="1.49168">
        <ele>2425</ele>
        <time>2023-07-22T07:35:41.000Z</time>
      </trkpt>
      <trkpt lat="42.64489" lon="1.49171">
        <ele>2425</ele>
        <time>2023-07-22T07:35:50.000Z</time>
      </trkpt>
      <trkpt lat="42.64492" lon="1.4917">
        <ele>2424.3999023438</ele>
        <time>2023-07-22T07:35:56.000Z</time>
      </trkpt>
      <trkpt lat="42.64491" lon="1.4917">
        <ele>2424.3999023438</ele>
        <time>2023-07-22T07:36:05.000Z</time>
      </trkpt>
      <trkpt lat="42.64491" lon="1.49169">
        <ele>2424.3999023438</ele>
        <time>2023-07-22T07:36:14.000Z</time>
      </trkpt>
      <trkpt lat="42.64489" lon="1.49173">
        <ele>2424.3999023438</ele>
        <time>2023-07-22T07:36:21.000Z</time>
      </trkpt>
      <trkpt lat="42.64487" lon="1.49171">
        <ele>2424.6000976562</ele>
        <time>2023-07-22T07:36:27.000Z</time>
      </trkpt>
      <trkpt lat="42.64489" lon="1.49168">
        <ele>2424.3999023438</ele>
        <time>2023-07-22T07:36:36.000Z</time>
      </trkpt>
      <trkpt lat="42.64493" lon="1.49169">
        <ele>2424.3999023438</ele>
        <time>2023-07-22T07:36:43.000Z</time>
      </trkpt>
      <trkpt lat="42.64492" lon="1.49171">
        <ele>2424.8000488281</ele>
        <time>2023-07-22T07:36:50.000Z</time>
      </trkpt>
      <trkpt lat="42.64486" lon="1.49173">
        <ele>2424.1999511719</ele>
        <time>2023-07-22T07:36:58.000Z</time>
      </trkpt>
      <trkpt lat="42.6448" lon="1.49178">
        <ele>2423.6000976562</ele>
        <time>2023-07-22T07:37:05.000Z</time>
      </trkpt>
      <trkpt lat="42.64479" lon="1.49179">
        <ele>2423.3999023438</ele>
        <time>2023-07-22T07:37:07.000Z</time>
      </trkpt>
      <trkpt lat="42.64476" lon="1.49182">
        <ele>2423.1999511719</ele>
        <time>2023-07-22T07:37:11.000Z</time>
      </trkpt>
      <trkpt lat="42.64472" lon="1.49189">
        <ele>2423.6000976562</ele>
        <time>2023-07-22T07:37:18.000Z</time>
      </trkpt>
      <trkpt lat="42.64472" lon="1.49199">
        <ele>2424.3999023438</ele>
        <time>2023-07-22T07:37:25.000Z</time>
      </trkpt>
      <trkpt lat="42.64472" lon="1.492">
        <ele>2424.6000976562</ele>
        <time>2023-07-22T07:37:26.000Z</time>
      </trkpt>
      <trkpt lat="42.6447" lon="1.49208">
        <ele>2425.3999023438</ele>
        <time>2023-07-22T07:37:33.000Z</time>
      </trkpt>
      <trkpt lat="42.6447" lon="1.49211">
        <ele>2425.6000976562</ele>
        <time>2023-07-22T07:37:36.000Z</time>
      </trkpt>
      <trkpt lat="42.6447" lon="1.49211">
        <ele>2425.8000488281</ele>
        <time>2023-07-22T07:37:39.000Z</time>
      </trkpt>
      <trkpt lat="42.64471" lon="1.49213">
        <ele>2425.6000976562</ele>
        <time>2023-07-22T07:37:46.000Z</time>
      </trkpt>
      <trkpt lat="42.64467" lon="1.4922">
        <ele>2426.1999511719</ele>
        <time>2023-07-22T07:37:53.000Z</time>
      </trkpt>
      <trkpt lat="42.64464" lon="1.49228">
        <ele>2426</ele>
        <time>2023-07-22T07:38:00.000Z</time>
      </trkpt>
      <trkpt lat="42.64463" lon="1.49228">
        <ele>2425.8000488281</ele>
        <time>2023-07-22T07:38:07.000Z</time>
      </trkpt>
      <trkpt lat="42.64465" lon="1.49227">
        <ele>2425.6000976562</ele>
        <time>2023-07-22T07:38:17.000Z</time>
      </trkpt>
      <trkpt lat="42.64465" lon="1.49226">
        <ele>2425.8000488281</ele>
        <time>2023-07-22T07:38:25.000Z</time>
      </trkpt>
      <trkpt lat="42.64464" lon="1.49234">
        <ele>2426</ele>
        <time>2023-07-22T07:38:31.000Z</time>
      </trkpt>
      <trkpt lat="42.64463" lon="1.49241">
        <ele>2426.1999511719</ele>
        <time>2023-07-22T07:38:39.000Z</time>
      </trkpt>
      <trkpt lat="42.64465" lon="1.49241">
        <ele>2426.6000976562</ele>
        <time>2023-07-22T07:38:47.000Z</time>
      </trkpt>
      <trkpt lat="42.64464" lon="1.4925">
        <ele>2426.1999511719</ele>
        <time>2023-07-22T07:38:54.000Z</time>
      </trkpt>
      <trkpt lat="42.64465" lon="1.49258">
        <ele>2426.8000488281</ele>
        <time>2023-07-22T07:39:01.000Z</time>
      </trkpt>
      <trkpt lat="42.64465" lon="1.49259">
        <ele>2427</ele>
        <time>2023-07-22T07:39:02.000Z</time>
      </trkpt>
      <trkpt lat="42.64466" lon="1.49259">
        <ele>2427.8000488281</ele>
        <time>2023-07-22T07:39:10.000Z</time>
      </trkpt>
      <trkpt lat="42.64466" lon="1.49259">
        <ele>2427.8000488281</ele>
        <time>2023-07-22T07:39:11.000Z</time>
      </trkpt>
      <trkpt lat="42.64465" lon="1.49259">
        <ele>2427.6000976562</ele>
        <time>2023-07-22T07:39:22.000Z</time>
      </trkpt>
      <trkpt lat="42.64469" lon="1.49253">
        <ele>2427.1999511719</ele>
        <time>2023-07-22T07:39:28.000Z</time>
      </trkpt>
      <trkpt lat="42.64474" lon="1.49252">
        <ele>2427.3999023438</ele>
        <time>2023-07-22T07:39:35.000Z</time>
      </trkpt>
      <trkpt lat="42.64478" lon="1.4925">
        <ele>2427.3999023438</ele>
        <time>2023-07-22T07:39:40.000Z</time>
      </trkpt>
      <trkpt lat="42.64482" lon="1.49248">
        <ele>2426.3999023438</ele>
        <time>2023-07-22T07:39:44.000Z</time>
      </trkpt>
      <trkpt lat="42.64485" lon="1.49247">
        <ele>2426.1999511719</ele>
        <time>2023-07-22T07:39:48.000Z</time>
      </trkpt>
      <trkpt lat="42.64497" lon="1.4924">
        <ele>2425.8000488281</ele>
        <time>2023-07-22T07:39:58.000Z</time>
      </trkpt>
      <trkpt lat="42.64499" lon="1.49236">
        <ele>2426</ele>
        <time>2023-07-22T07:40:05.000Z</time>
      </trkpt>
      <trkpt lat="42.64509" lon="1.49232">
        <ele>2426.8000488281</ele>
        <time>2023-07-22T07:40:13.000Z</time>
      </trkpt>
      <trkpt lat="42.64515" lon="1.4923">
        <ele>2427.3999023438</ele>
        <time>2023-07-22T07:40:21.000Z</time>
      </trkpt>
      <trkpt lat="42.64519" lon="1.49233">
        <ele>2427.3999023438</ele>
        <time>2023-07-22T07:40:25.000Z</time>
      </trkpt>
      <trkpt lat="42.64522" lon="1.49234">
        <ele>2427.6000976562</ele>
        <time>2023-07-22T07:40:28.000Z</time>
      </trkpt>
      <trkpt lat="42.64527" lon="1.49235">
        <ele>2428.8000488281</ele>
        <time>2023-07-22T07:40:35.000Z</time>
      </trkpt>
      <trkpt lat="42.64528" lon="1.49236">
        <ele>2428.8000488281</ele>
        <time>2023-07-22T07:40:36.000Z</time>
      </trkpt>
      <trkpt lat="42.64534" lon="1.49239">
        <ele>2429.3999023438</ele>
        <time>2023-07-22T07:40:43.000Z</time>
      </trkpt>
      <trkpt lat="42.64535" lon="1.49238">
        <ele>2430</ele>
        <time>2023-07-22T07:40:45.000Z</time>
      </trkpt>
      <trkpt lat="42.64534" lon="1.49236">
        <ele>2430.8000488281</ele>
        <time>2023-07-22T07:40:49.000Z</time>
      </trkpt>
      <trkpt lat="42.64537" lon="1.49239">
        <ele>2430.6000976562</ele>
        <time>2023-07-22T07:40:55.000Z</time>
      </trkpt>
      <trkpt lat="42.64538" lon="1.49239">
        <ele>2430.6000976562</ele>
        <time>2023-07-22T07:41:04.000Z</time>
      </trkpt>
      <trkpt lat="42.64539" lon="1.49252">
        <ele>2429.3999023438</ele>
        <time>2023-07-22T07:41:12.000Z</time>
      </trkpt>
      <trkpt lat="42.64542" lon="1.49264">
        <ele>2430</ele>
        <time>2023-07-22T07:41:21.000Z</time>
      </trkpt>
      <trkpt lat="42.64546" lon="1.4927">
        <ele>2431.1999511719</ele>
        <time>2023-07-22T07:41:28.000Z</time>
      </trkpt>
      <trkpt lat="42.64547" lon="1.49271">
        <ele>2431.1999511719</ele>
        <time>2023-07-22T07:41:29.000Z</time>
      </trkpt>
      <trkpt lat="42.64554" lon="1.49281">
        <ele>2431.3999023438</ele>
        <time>2023-07-22T07:41:37.000Z</time>
      </trkpt>
      <trkpt lat="42.64558" lon="1.49292">
        <ele>2431.8000488281</ele>
        <time>2023-07-22T07:41:48.000Z</time>
      </trkpt>
      <trkpt lat="42.64559" lon="1.49296">
        <ele>2432.1999511719</ele>
        <time>2023-07-22T07:41:52.000Z</time>
      </trkpt>
      <trkpt lat="42.6456" lon="1.49299">
        <ele>2432.1999511719</ele>
        <time>2023-07-22T07:41:55.000Z</time>
      </trkpt>
      <trkpt lat="42.64562" lon="1.49299">
        <ele>2432.3999023438</ele>
        <time>2023-07-22T07:41:58.000Z</time>
      </trkpt>
      <trkpt lat="42.64563" lon="1.49299">
        <ele>2432.8000488281</ele>
        <time>2023-07-22T07:42:02.000Z</time>
      </trkpt>
      <trkpt lat="42.64563" lon="1.49297">
        <ele>2433</ele>
        <time>2023-07-22T07:42:12.000Z</time>
      </trkpt>
      <trkpt lat="42.64567" lon="1.49301">
        <ele>2433</ele>
        <time>2023-07-22T07:42:22.000Z</time>
      </trkpt>
      <trkpt lat="42.64567" lon="1.493">
        <ele>2433</ele>
        <time>2023-07-22T07:42:31.000Z</time>
      </trkpt>
      <trkpt lat="42.64565" lon="1.49299">
        <ele>2433</ele>
        <time>2023-07-22T07:42:38.000Z</time>
      </trkpt>
      <trkpt lat="42.64566" lon="1.49301">
        <ele>2433</ele>
        <time>2023-07-22T07:42:47.000Z</time>
      </trkpt>
      <trkpt lat="42.64569" lon="1.49302">
        <ele>2432.8000488281</ele>
        <time>2023-07-22T07:42:55.000Z</time>
      </trkpt>
      <trkpt lat="42.64568" lon="1.49298">
        <ele>2432.8000488281</ele>
        <time>2023-07-22T07:43:03.000Z</time>
      </trkpt>
      <trkpt lat="42.6457" lon="1.49304">
        <ele>2432.6000976562</ele>
        <time>2023-07-22T07:43:11.000Z</time>
      </trkpt>
      <trkpt lat="42.6457" lon="1.49309">
        <ele>2432.1999511719</ele>
        <time>2023-07-22T07:43:18.000Z</time>
      </trkpt>
      <trkpt lat="42.64574" lon="1.49316">
        <ele>2432</ele>
        <time>2023-07-22T07:43:25.000Z</time>
      </trkpt>
      <trkpt lat="42.64579" lon="1.49319">
        <ele>2432.8000488281</ele>
        <time>2023-07-22T07:43:32.000Z</time>
      </trkpt>
      <trkpt lat="42.64583" lon="1.4932">
        <ele>2433.1999511719</ele>
        <time>2023-07-22T07:43:35.000Z</time>
      </trkpt>
      <trkpt lat="42.64585" lon="1.4932">
        <ele>2433.8000488281</ele>
        <time>2023-07-22T07:43:39.000Z</time>
      </trkpt>
      <trkpt lat="42.64589" lon="1.49322">
        <ele>2434.1999511719</ele>
        <time>2023-07-22T07:43:44.000Z</time>
      </trkpt>
      <trkpt lat="42.64593" lon="1.49323">
        <ele>2434.8000488281</ele>
        <time>2023-07-22T07:43:47.000Z</time>
      </trkpt>
      <trkpt lat="42.64595" lon="1.49324">
        <ele>2435.3999023438</ele>
        <time>2023-07-22T07:43:52.000Z</time>
      </trkpt>
      <trkpt lat="42.64596" lon="1.49324">
        <ele>2435.8000488281</ele>
        <time>2023-07-22T07:43:54.000Z</time>
      </trkpt>
      <trkpt lat="42.64597" lon="1.49326">
        <ele>2436.6000976562</ele>
        <time>2023-07-22T07:43:57.000Z</time>
      </trkpt>
      <trkpt lat="42.64599" lon="1.49327">
        <ele>2437.6000976562</ele>
        <time>2023-07-22T07:44:01.000Z</time>
      </trkpt>
      <trkpt lat="42.646" lon="1.49327">
        <ele>2437.8000488281</ele>
        <time>2023-07-22T07:44:04.000Z</time>
      </trkpt>
      <trkpt lat="42.64601" lon="1.49325">
        <ele>2438.6000976562</ele>
        <time>2023-07-22T07:44:08.000Z</time>
      </trkpt>
      <trkpt lat="42.64601" lon="1.49322">
        <ele>2438.8000488281</ele>
        <time>2023-07-22T07:44:12.000Z</time>
      </trkpt>
      <trkpt lat="42.64602" lon="1.49323">
        <ele>2439.3999023438</ele>
        <time>2023-07-22T07:44:20.000Z</time>
      </trkpt>
      <trkpt lat="42.64599" lon="1.49324">
        <ele>2439.1999511719</ele>
        <time>2023-07-22T07:44:29.000Z</time>
      </trkpt>
      <trkpt lat="42.646" lon="1.49327">
        <ele>2438.6000976562</ele>
        <time>2023-07-22T07:44:40.000Z</time>
      </trkpt>
      <trkpt lat="42.64605" lon="1.4933">
        <ele>2439.1999511719</ele>
        <time>2023-07-22T07:44:49.000Z</time>
      </trkpt>
      <trkpt lat="42.64606" lon="1.4933">
        <ele>2439.8000488281</ele>
        <time>2023-07-22T07:44:52.000Z</time>
      </trkpt>
      <trkpt lat="42.64608" lon="1.4933">
        <ele>2440.3999023438</ele>
        <time>2023-07-22T07:44:56.000Z</time>
      </trkpt>
      <trkpt lat="42.64611" lon="1.49332">
        <ele>2440.3999023438</ele>
        <time>2023-07-22T07:45:02.000Z</time>
      </trkpt>
      <trkpt lat="42.64612" lon="1.49336">
        <ele>2440.8000488281</ele>
        <time>2023-07-22T07:45:06.000Z</time>
      </trkpt>
      <trkpt lat="42.64614" lon="1.49339">
        <ele>2441.6000976562</ele>
        <time>2023-07-22T07:45:10.000Z</time>
      </trkpt>
      <trkpt lat="42.64615" lon="1.4934">
        <ele>2442</ele>
        <time>2023-07-22T07:45:12.000Z</time>
      </trkpt>
      <trkpt lat="42.64618" lon="1.49343">
        <ele>2443</ele>
        <time>2023-07-22T07:45:19.000Z</time>
      </trkpt>
      <trkpt lat="42.64619" lon="1.49345">
        <ele>2443.1999511719</ele>
        <time>2023-07-22T07:45:21.000Z</time>
      </trkpt>
      <trkpt lat="42.6462" lon="1.49349">
        <ele>2444.3999023438</ele>
        <time>2023-07-22T07:45:26.000Z</time>
      </trkpt>
      <trkpt lat="42.6462" lon="1.49349">
        <ele>2444.6000976562</ele>
        <time>2023-07-22T07:45:27.000Z</time>
      </trkpt>
      <trkpt lat="42.64621" lon="1.49351">
        <ele>2445.6000976562</ele>
        <time>2023-07-22T07:45:31.000Z</time>
      </trkpt>
      <trkpt lat="42.64621" lon="1.49352">
        <ele>2446.1999511719</ele>
        <time>2023-07-22T07:45:36.000Z</time>
      </trkpt>
      <trkpt lat="42.64626" lon="1.4936">
        <ele>2445.8000488281</ele>
        <time>2023-07-22T07:45:44.000Z</time>
      </trkpt>
      <trkpt lat="42.64628" lon="1.49366">
        <ele>2445.3999023438</ele>
        <time>2023-07-22T07:45:51.000Z</time>
      </trkpt>
      <trkpt lat="42.6463" lon="1.49369">
        <ele>2444.3999023438</ele>
        <time>2023-07-22T07:45:55.000Z</time>
      </trkpt>
      <trkpt lat="42.64633" lon="1.49373">
        <ele>2443.3999023438</ele>
        <time>2023-07-22T07:46:00.000Z</time>
      </trkpt>
      <trkpt lat="42.64637" lon="1.49379">
        <ele>2442.3999023438</ele>
        <time>2023-07-22T07:46:06.000Z</time>
      </trkpt>
      <trkpt lat="42.64638" lon="1.4938">
        <ele>2442.1999511719</ele>
        <time>2023-07-22T07:46:07.000Z</time>
      </trkpt>
      <trkpt lat="42.64641" lon="1.49385">
        <ele>2441</ele>
        <time>2023-07-22T07:46:12.000Z</time>
      </trkpt>
      <trkpt lat="42.64643" lon="1.49387">
        <ele>2440.6000976562</ele>
        <time>2023-07-22T07:46:14.000Z</time>
      </trkpt>
      <trkpt lat="42.64645" lon="1.49391">
        <ele>2440</ele>
        <time>2023-07-22T07:46:19.000Z</time>
      </trkpt>
      <trkpt lat="42.64647" lon="1.49392">
        <ele>2439.6000976562</ele>
        <time>2023-07-22T07:46:21.000Z</time>
      </trkpt>
      <trkpt lat="42.64652" lon="1.49394">
        <ele>2439.6000976562</ele>
        <time>2023-07-22T07:46:27.000Z</time>
      </trkpt>
      <trkpt lat="42.64657" lon="1.49398">
        <ele>2440.1999511719</ele>
        <time>2023-07-22T07:46:34.000Z</time>
      </trkpt>
      <trkpt lat="42.6466" lon="1.49402">
        <ele>2441.1999511719</ele>
        <time>2023-07-22T07:46:39.000Z</time>
      </trkpt>
      <trkpt lat="42.64662" lon="1.49404">
        <ele>2441.8000488281</ele>
        <time>2023-07-22T07:46:42.000Z</time>
      </trkpt>
      <trkpt lat="42.64663" lon="1.49404">
        <ele>2442.1999511719</ele>
        <time>2023-07-22T07:46:44.000Z</time>
      </trkpt>
      <trkpt lat="42.64665" lon="1.49407">
        <ele>2443.1999511719</ele>
        <time>2023-07-22T07:46:48.000Z</time>
      </trkpt>
      <trkpt lat="42.64666" lon="1.49408">
        <ele>2443.6000976562</ele>
        <time>2023-07-22T07:46:49.000Z</time>
      </trkpt>
      <trkpt lat="42.64671" lon="1.49411">
        <ele>2444.3999023438</ele>
        <time>2023-07-22T07:46:57.000Z</time>
      </trkpt>
      <trkpt lat="42.64671" lon="1.49411">
        <ele>2444.3999023438</ele>
        <time>2023-07-22T07:46:58.000Z</time>
      </trkpt>
      <trkpt lat="42.64671" lon="1.49411">
        <ele>2444.6000976562</ele>
        <time>2023-07-22T07:46:59.000Z</time>
      </trkpt>
      <trkpt lat="42.64672" lon="1.49412">
        <ele>2444.8000488281</ele>
        <time>2023-07-22T07:47:05.000Z</time>
      </trkpt>
      <trkpt lat="42.64674" lon="1.49411">
        <ele>2445</ele>
        <time>2023-07-22T07:47:13.000Z</time>
      </trkpt>
      <trkpt lat="42.64675" lon="1.4941">
        <ele>2445.1999511719</ele>
        <time>2023-07-22T07:47:21.000Z</time>
      </trkpt>
      <trkpt lat="42.64674" lon="1.49409">
        <ele>2445.3999023438</ele>
        <time>2023-07-22T07:47:28.000Z</time>
      </trkpt>
      <trkpt lat="42.64673" lon="1.4941">
        <ele>2445.3999023438</ele>
        <time>2023-07-22T07:47:31.000Z</time>
      </trkpt>
      <trkpt lat="42.64676" lon="1.49415">
        <ele>2445.3999023438</ele>
        <time>2023-07-22T07:47:38.000Z</time>
      </trkpt>
      <trkpt lat="42.64682" lon="1.49422">
        <ele>2445.6000976562</ele>
        <time>2023-07-22T07:47:46.000Z</time>
      </trkpt>
      <trkpt lat="42.64691" lon="1.49432">
        <ele>2446.1999511719</ele>
        <time>2023-07-22T07:47:56.000Z</time>
      </trkpt>
      <trkpt lat="42.64693" lon="1.49435">
        <ele>2446.3999023438</ele>
        <time>2023-07-22T07:47:59.000Z</time>
      </trkpt>
      <trkpt lat="42.64697" lon="1.4944">
        <ele>2446.8000488281</ele>
        <time>2023-07-22T07:48:05.000Z</time>
      </trkpt>
      <trkpt lat="42.64704" lon="1.49447">
        <ele>2447</ele>
        <time>2023-07-22T07:48:13.000Z</time>
      </trkpt>
      <trkpt lat="42.64707" lon="1.4945">
        <ele>2447.3999023438</ele>
        <time>2023-07-22T07:48:18.000Z</time>
      </trkpt>
      <trkpt lat="42.64712" lon="1.49453">
        <ele>2448</ele>
        <time>2023-07-22T07:48:23.000Z</time>
      </trkpt>
      <trkpt lat="42.64716" lon="1.49456">
        <ele>2448.6000976562</ele>
        <time>2023-07-22T07:48:27.000Z</time>
      </trkpt>
      <trkpt lat="42.64719" lon="1.49459">
        <ele>2449.1999511719</ele>
        <time>2023-07-22T07:48:32.000Z</time>
      </trkpt>
      <trkpt lat="42.6472" lon="1.49463">
        <ele>2449.6000976562</ele>
        <time>2023-07-22T07:48:36.000Z</time>
      </trkpt>
      <trkpt lat="42.64721" lon="1.49469">
        <ele>2449.6000976562</ele>
        <time>2023-07-22T07:48:41.000Z</time>
      </trkpt>
      <trkpt lat="42.64723" lon="1.49476">
        <ele>2450.6000976562</ele>
        <time>2023-07-22T07:48:47.000Z</time>
      </trkpt>
      <trkpt lat="42.64723" lon="1.49479">
        <ele>2450.8000488281</ele>
        <time>2023-07-22T07:48:49.000Z</time>
      </trkpt>
      <trkpt lat="42.64724" lon="1.49486">
        <ele>2451.1999511719</ele>
        <time>2023-07-22T07:48:56.000Z</time>
      </trkpt>
      <trkpt lat="42.64726" lon="1.49489">
        <ele>2451.6000976562</ele>
        <time>2023-07-22T07:49:01.000Z</time>
      </trkpt>
      <trkpt lat="42.64726" lon="1.49492">
        <ele>2451.8000488281</ele>
        <time>2023-07-22T07:49:04.000Z</time>
      </trkpt>
      <trkpt lat="42.64725" lon="1.49498">
        <ele>2451.8000488281</ele>
        <time>2023-07-22T07:49:10.000Z</time>
      </trkpt>
      <trkpt lat="42.64726" lon="1.49507">
        <ele>2451.8000488281</ele>
        <time>2023-07-22T07:49:17.000Z</time>
      </trkpt>
      <trkpt lat="42.64729" lon="1.49514">
        <ele>2452.6000976562</ele>
        <time>2023-07-22T07:49:25.000Z</time>
      </trkpt>
      <trkpt lat="42.64729" lon="1.49514">
        <ele>2452.8000488281</ele>
        <time>2023-07-22T07:49:26.000Z</time>
      </trkpt>
      <trkpt lat="42.64731" lon="1.49518">
        <ele>2453.3999023438</ele>
        <time>2023-07-22T07:49:32.000Z</time>
      </trkpt>
      <trkpt lat="42.64732" lon="1.4952">
        <ele>2453.8000488281</ele>
        <time>2023-07-22T07:49:34.000Z</time>
      </trkpt>
      <trkpt lat="42.64734" lon="1.49525">
        <ele>2454.8000488281</ele>
        <time>2023-07-22T07:49:40.000Z</time>
      </trkpt>
      <trkpt lat="42.64734" lon="1.49525">
        <ele>2455</ele>
        <time>2023-07-22T07:49:41.000Z</time>
      </trkpt>
      <trkpt lat="42.64736" lon="1.49529">
        <ele>2455.6000976562</ele>
        <time>2023-07-22T07:49:46.000Z</time>
      </trkpt>
      <trkpt lat="42.64738" lon="1.49532">
        <ele>2456</ele>
        <time>2023-07-22T07:49:54.000Z</time>
      </trkpt>
      <trkpt lat="42.64738" lon="1.49533">
        <ele>2456</ele>
        <time>2023-07-22T07:49:55.000Z</time>
      </trkpt>
      <trkpt lat="42.64739" lon="1.49536">
        <ele>2457.1999511719</ele>
        <time>2023-07-22T07:50:02.000Z</time>
      </trkpt>
      <trkpt lat="42.64741" lon="1.49539">
        <ele>2458.1999511719</ele>
        <time>2023-07-22T07:50:09.000Z</time>
      </trkpt>
      <trkpt lat="42.64741" lon="1.49541">
        <ele>2458.3999023438</ele>
        <time>2023-07-22T07:50:11.000Z</time>
      </trkpt>
      <trkpt lat="42.64743" lon="1.49547">
        <ele>2459.1999511719</ele>
        <time>2023-07-22T07:50:17.000Z</time>
      </trkpt>
      <trkpt lat="42.64744" lon="1.49548">
        <ele>2459.3999023438</ele>
        <time>2023-07-22T07:50:18.000Z</time>
      </trkpt>
      <trkpt lat="42.64748" lon="1.49554">
        <ele>2460.3999023438</ele>
        <time>2023-07-22T07:50:26.000Z</time>
      </trkpt>
      <trkpt lat="42.6475" lon="1.49557">
        <ele>2461.3999023438</ele>
        <time>2023-07-22T07:50:33.000Z</time>
      </trkpt>
      <trkpt lat="42.64751" lon="1.4956">
        <ele>2462</ele>
        <time>2023-07-22T07:50:37.000Z</time>
      </trkpt>
      <trkpt lat="42.64753" lon="1.49564">
        <ele>2462.6000976562</ele>
        <time>2023-07-22T07:50:40.000Z</time>
      </trkpt>
      <trkpt lat="42.64753" lon="1.49568">
        <ele>2463</ele>
        <time>2023-07-22T07:50:44.000Z</time>
      </trkpt>
      <trkpt lat="42.64753" lon="1.49573">
        <ele>2463.3999023438</ele>
        <time>2023-07-22T07:50:52.000Z</time>
      </trkpt>
      <trkpt lat="42.64753" lon="1.49574">
        <ele>2463.6000976562</ele>
        <time>2023-07-22T07:50:53.000Z</time>
      </trkpt>
      <trkpt lat="42.64751" lon="1.49577">
        <ele>2464.8000488281</ele>
        <time>2023-07-22T07:50:58.000Z</time>
      </trkpt>
      <trkpt lat="42.6475" lon="1.49579">
        <ele>2465.3999023438</ele>
        <time>2023-07-22T07:51:02.000Z</time>
      </trkpt>
      <trkpt lat="42.64751" lon="1.4958">
        <ele>2466</ele>
        <time>2023-07-22T07:51:05.000Z</time>
      </trkpt>
      <trkpt lat="42.64754" lon="1.49585">
        <ele>2467</ele>
        <time>2023-07-22T07:51:12.000Z</time>
      </trkpt>
      <trkpt lat="42.64755" lon="1.49586">
        <ele>2467.8000488281</ele>
        <time>2023-07-22T07:51:22.000Z</time>
      </trkpt>
      <trkpt lat="42.64754" lon="1.49589">
        <ele>2468</ele>
        <time>2023-07-22T07:51:28.000Z</time>
      </trkpt>
      <trkpt lat="42.64754" lon="1.49589">
        <ele>2468</ele>
        <time>2023-07-22T07:51:29.000Z</time>
      </trkpt>
      <trkpt lat="42.64754" lon="1.49591">
        <ele>2468.3999023438</ele>
        <time>2023-07-22T07:51:37.000Z</time>
      </trkpt>
      <trkpt lat="42.64755" lon="1.49594">
        <ele>2469.1999511719</ele>
        <time>2023-07-22T07:51:41.000Z</time>
      </trkpt>
      <trkpt lat="42.64755" lon="1.49596">
        <ele>2469.6000976562</ele>
        <time>2023-07-22T07:51:44.000Z</time>
      </trkpt>
      <trkpt lat="42.64756" lon="1.49598">
        <ele>2470.1999511719</ele>
        <time>2023-07-22T07:51:48.000Z</time>
      </trkpt>
      <trkpt lat="42.64757" lon="1.49599">
        <ele>2471.1999511719</ele>
        <time>2023-07-22T07:51:52.000Z</time>
      </trkpt>
      <trkpt lat="42.64757" lon="1.49602">
        <ele>2472.3999023438</ele>
        <time>2023-07-22T07:52:00.000Z</time>
      </trkpt>
      <trkpt lat="42.64756" lon="1.49602">
        <ele>2472.3999023438</ele>
        <time>2023-07-22T07:52:01.000Z</time>
      </trkpt>
      <trkpt lat="42.64757" lon="1.49607">
        <ele>2473.3999023438</ele>
        <time>2023-07-22T07:52:08.000Z</time>
      </trkpt>
      <trkpt lat="42.64757" lon="1.49608">
        <ele>2473.8000488281</ele>
        <time>2023-07-22T07:52:10.000Z</time>
      </trkpt>
      <trkpt lat="42.64758" lon="1.49609">
        <ele>2474.3999023438</ele>
        <time>2023-07-22T07:52:14.000Z</time>
      </trkpt>
      <trkpt lat="42.6476" lon="1.49613">
        <ele>2475.3999023438</ele>
        <time>2023-07-22T07:52:19.000Z</time>
      </trkpt>
      <trkpt lat="42.6476" lon="1.49614">
        <ele>2475.6000976562</ele>
        <time>2023-07-22T07:52:20.000Z</time>
      </trkpt>
      <trkpt lat="42.64761" lon="1.49614">
        <ele>2476.6000976562</ele>
        <time>2023-07-22T07:52:27.000Z</time>
      </trkpt>
      <trkpt lat="42.64761" lon="1.49614">
        <ele>2476.8000488281</ele>
        <time>2023-07-22T07:52:28.000Z</time>
      </trkpt>
      <trkpt lat="42.64765" lon="1.49616">
        <ele>2477.8000488281</ele>
        <time>2023-07-22T07:52:33.000Z</time>
      </trkpt>
      <trkpt lat="42.64766" lon="1.49615">
        <ele>2478.1999511719</ele>
        <time>2023-07-22T07:52:35.000Z</time>
      </trkpt>
      <trkpt lat="42.64766" lon="1.49615">
        <ele>2478.8000488281</ele>
        <time>2023-07-22T07:52:38.000Z</time>
      </trkpt>
      <trkpt lat="42.64766" lon="1.49617">
        <ele>2479.3999023438</ele>
        <time>2023-07-22T07:52:43.000Z</time>
      </trkpt>
      <trkpt lat="42.64766" lon="1.49618">
        <ele>2479.8000488281</ele>
        <time>2023-07-22T07:52:45.000Z</time>
      </trkpt>
      <trkpt lat="42.6477" lon="1.49617">
        <ele>2480.6000976562</ele>
        <time>2023-07-22T07:52:50.000Z</time>
      </trkpt>
      <trkpt lat="42.64771" lon="1.49617">
        <ele>2481</ele>
        <time>2023-07-22T07:52:52.000Z</time>
      </trkpt>
      <trkpt lat="42.64772" lon="1.49618">
        <ele>2481.3999023438</ele>
        <time>2023-07-22T07:52:57.000Z</time>
      </trkpt>
      <trkpt lat="42.64771" lon="1.49621">
        <ele>2482</ele>
        <time>2023-07-22T07:53:00.000Z</time>
      </trkpt>
      <trkpt lat="42.64772" lon="1.49624">
        <ele>2482.6000976562</ele>
        <time>2023-07-22T07:53:03.000Z</time>
      </trkpt>
      <trkpt lat="42.64772" lon="1.49626">
        <ele>2483.1999511719</ele>
        <time>2023-07-22T07:53:06.000Z</time>
      </trkpt>
      <trkpt lat="42.64772" lon="1.49629">
        <ele>2484</ele>
        <time>2023-07-22T07:53:12.000Z</time>
      </trkpt>
      <trkpt lat="42.64772" lon="1.49629">
        <ele>2484.1999511719</ele>
        <time>2023-07-22T07:53:13.000Z</time>
      </trkpt>
      <trkpt lat="42.64774" lon="1.49626">
        <ele>2485.3999023438</ele>
        <time>2023-07-22T07:53:18.000Z</time>
      </trkpt>
      <trkpt lat="42.64775" lon="1.49626">
        <ele>2485.3999023438</ele>
        <time>2023-07-22T07:53:19.000Z</time>
      </trkpt>
      <trkpt lat="42.64778" lon="1.49626">
        <ele>2486.3999023438</ele>
        <time>2023-07-22T07:53:24.000Z</time>
      </trkpt>
      <trkpt lat="42.6478" lon="1.49626">
        <ele>2487.1999511719</ele>
        <time>2023-07-22T07:53:28.000Z</time>
      </trkpt>
      <trkpt lat="42.6478" lon="1.49627">
        <ele>2487.6000976562</ele>
        <time>2023-07-22T07:53:30.000Z</time>
      </trkpt>
      <trkpt lat="42.64779" lon="1.49631">
        <ele>2488.1999511719</ele>
        <time>2023-07-22T07:53:35.000Z</time>
      </trkpt>
      <trkpt lat="42.64778" lon="1.49633">
        <ele>2488.6000976562</ele>
        <time>2023-07-22T07:53:38.000Z</time>
      </trkpt>
      <trkpt lat="42.64778" lon="1.49636">
        <ele>2489.8000488281</ele>
        <time>2023-07-22T07:53:44.000Z</time>
      </trkpt>
      <trkpt lat="42.64778" lon="1.49637">
        <ele>2489.8000488281</ele>
        <time>2023-07-22T07:53:45.000Z</time>
      </trkpt>
      <trkpt lat="42.64777" lon="1.4964">
        <ele>2490.8000488281</ele>
        <time>2023-07-22T07:53:51.000Z</time>
      </trkpt>
      <trkpt lat="42.64777" lon="1.49641">
        <ele>2491.3999023438</ele>
        <time>2023-07-22T07:53:55.000Z</time>
      </trkpt>
      <trkpt lat="42.64778" lon="1.4964">
        <ele>2492</ele>
        <time>2023-07-22T07:53:57.000Z</time>
      </trkpt>
      <trkpt lat="42.6478" lon="1.49641">
        <ele>2493</ele>
        <time>2023-07-22T07:54:02.000Z</time>
      </trkpt>
      <trkpt lat="42.64783" lon="1.49645">
        <ele>2493.6000976562</ele>
        <time>2023-07-22T07:54:08.000Z</time>
      </trkpt>
      <trkpt lat="42.64782" lon="1.49646">
        <ele>2494</ele>
        <time>2023-07-22T07:54:11.000Z</time>
      </trkpt>
      <trkpt lat="42.64782" lon="1.49648">
        <ele>2495.1999511719</ele>
        <time>2023-07-22T07:54:16.000Z</time>
      </trkpt>
      <trkpt lat="42.64782" lon="1.49649">
        <ele>2495.3999023438</ele>
        <time>2023-07-22T07:54:17.000Z</time>
      </trkpt>
      <trkpt lat="42.64783" lon="1.49649">
        <ele>2496.1999511719</ele>
        <time>2023-07-22T07:54:21.000Z</time>
      </trkpt>
      <trkpt lat="42.64783" lon="1.49648">
        <ele>2496.8000488281</ele>
        <time>2023-07-22T07:54:25.000Z</time>
      </trkpt>
      <trkpt lat="42.64785" lon="1.49649">
        <ele>2497.3999023438</ele>
        <time>2023-07-22T07:54:28.000Z</time>
      </trkpt>
      <trkpt lat="42.64785" lon="1.49652">
        <ele>2497.8000488281</ele>
        <time>2023-07-22T07:54:33.000Z</time>
      </trkpt>
      <trkpt lat="42.64785" lon="1.49654">
        <ele>2498.3999023438</ele>
        <time>2023-07-22T07:54:37.000Z</time>
      </trkpt>
      <trkpt lat="42.64785" lon="1.49657">
        <ele>2499.3999023438</ele>
        <time>2023-07-22T07:54:42.000Z</time>
      </trkpt>
      <trkpt lat="42.64785" lon="1.4966">
        <ele>2500.6000976562</ele>
        <time>2023-07-22T07:54:49.000Z</time>
      </trkpt>
      <trkpt lat="42.64785" lon="1.4966">
        <ele>2500.8000488281</ele>
        <time>2023-07-22T07:54:51.000Z</time>
      </trkpt>
      <trkpt lat="42.64784" lon="1.49663">
        <ele>2501.6000976562</ele>
        <time>2023-07-22T07:54:59.000Z</time>
      </trkpt>
      <trkpt lat="42.64784" lon="1.49664">
        <ele>2501.8000488281</ele>
        <time>2023-07-22T07:55:00.000Z</time>
      </trkpt>
      <trkpt lat="42.64783" lon="1.49666">
        <ele>2502.8000488281</ele>
        <time>2023-07-22T07:55:07.000Z</time>
      </trkpt>
      <trkpt lat="42.64783" lon="1.49666">
        <ele>2503.3999023438</ele>
        <time>2023-07-22T07:55:09.000Z</time>
      </trkpt>
      <trkpt lat="42.64783" lon="1.49669">
        <ele>2504</ele>
        <time>2023-07-22T07:55:15.000Z</time>
      </trkpt>
      <trkpt lat="42.64785" lon="1.49671">
        <ele>2504.6000976562</ele>
        <time>2023-07-22T07:55:22.000Z</time>
      </trkpt>
      <trkpt lat="42.64786" lon="1.49674">
        <ele>2505.1999511719</ele>
        <time>2023-07-22T07:55:25.000Z</time>
      </trkpt>
      <trkpt lat="42.64786" lon="1.49677">
        <ele>2505.6000976562</ele>
        <time>2023-07-22T07:55:30.000Z</time>
      </trkpt>
      <trkpt lat="42.64784" lon="1.4968">
        <ele>2506.1999511719</ele>
        <time>2023-07-22T07:55:36.000Z</time>
      </trkpt>
      <trkpt lat="42.64784" lon="1.49681">
        <ele>2506.1999511719</ele>
        <time>2023-07-22T07:55:38.000Z</time>
      </trkpt>
      <trkpt lat="42.64782" lon="1.49682">
        <ele>2507.1999511719</ele>
        <time>2023-07-22T07:55:44.000Z</time>
      </trkpt>
      <trkpt lat="42.64782" lon="1.49682">
        <ele>2507.3999023438</ele>
        <time>2023-07-22T07:55:45.000Z</time>
      </trkpt>
      <trkpt lat="42.64781" lon="1.49684">
        <ele>2507.3999023438</ele>
        <time>2023-07-22T07:55:51.000Z</time>
      </trkpt>
      <trkpt lat="42.64781" lon="1.49685">
        <ele>2507.6000976562</ele>
        <time>2023-07-22T07:55:59.000Z</time>
      </trkpt>
      <trkpt lat="42.64781" lon="1.49687">
        <ele>2508.3999023438</ele>
        <time>2023-07-22T07:56:04.000Z</time>
      </trkpt>
      <trkpt lat="42.64781" lon="1.49687">
        <ele>2508.6000976562</ele>
        <time>2023-07-22T07:56:05.000Z</time>
      </trkpt>
      <trkpt lat="42.64781" lon="1.49689">
        <ele>2509.3999023438</ele>
        <time>2023-07-22T07:56:12.000Z</time>
      </trkpt>
      <trkpt lat="42.64781" lon="1.4969">
        <ele>2509.6000976562</ele>
        <time>2023-07-22T07:56:13.000Z</time>
      </trkpt>
      <trkpt lat="42.64781" lon="1.49691">
        <ele>2510.6000976562</ele>
        <time>2023-07-22T07:56:18.000Z</time>
      </trkpt>
      <trkpt lat="42.64782" lon="1.49694">
        <ele>2511</ele>
        <time>2023-07-22T07:56:21.000Z</time>
      </trkpt>
      <trkpt lat="42.64782" lon="1.49696">
        <ele>2511.8000488281</ele>
        <time>2023-07-22T07:56:25.000Z</time>
      </trkpt>
      <trkpt lat="42.64781" lon="1.49697">
        <ele>2512.6000976562</ele>
        <time>2023-07-22T07:56:30.000Z</time>
      </trkpt>
      <trkpt lat="42.64781" lon="1.49697">
        <ele>2513</ele>
        <time>2023-07-22T07:56:31.000Z</time>
      </trkpt>
      <trkpt lat="42.6478" lon="1.497">
        <ele>2514</ele>
        <time>2023-07-22T07:56:39.000Z</time>
      </trkpt>
      <trkpt lat="42.64779" lon="1.49701">
        <ele>2515</ele>
        <time>2023-07-22T07:56:44.000Z</time>
      </trkpt>
      <trkpt lat="42.64779" lon="1.497">
        <ele>2515.3999023438</ele>
        <time>2023-07-22T07:56:46.000Z</time>
      </trkpt>
      <trkpt lat="42.6478" lon="1.49701">
        <ele>2516.1999511719</ele>
        <time>2023-07-22T07:56:50.000Z</time>
      </trkpt>
      <trkpt lat="42.64781" lon="1.49704">
        <ele>2516.8000488281</ele>
        <time>2023-07-22T07:56:54.000Z</time>
      </trkpt>
      <trkpt lat="42.64781" lon="1.49706">
        <ele>2517.1999511719</ele>
        <time>2023-07-22T07:56:57.000Z</time>
      </trkpt>
      <trkpt lat="42.64781" lon="1.49707">
        <ele>2518.1999511719</ele>
        <time>2023-07-22T07:57:02.000Z</time>
      </trkpt>
      <trkpt lat="42.64781" lon="1.49708">
        <ele>2518.3999023438</ele>
        <time>2023-07-22T07:57:04.000Z</time>
      </trkpt>
      <trkpt lat="42.64781" lon="1.49712">
        <ele>2519.3999023438</ele>
        <time>2023-07-22T07:57:10.000Z</time>
      </trkpt>
      <trkpt lat="42.64782" lon="1.49713">
        <ele>2520.6000976562</ele>
        <time>2023-07-22T07:57:15.000Z</time>
      </trkpt>
      <trkpt lat="42.64781" lon="1.49714">
        <ele>2521</ele>
        <time>2023-07-22T07:57:18.000Z</time>
      </trkpt>
      <trkpt lat="42.64781" lon="1.49714">
        <ele>2521.6000976562</ele>
        <time>2023-07-22T07:57:20.000Z</time>
      </trkpt>
      <trkpt lat="42.64779" lon="1.49713">
        <ele>2522.6000976562</ele>
        <time>2023-07-22T07:57:25.000Z</time>
      </trkpt>
      <trkpt lat="42.64779" lon="1.49713">
        <ele>2522.6000976562</ele>
        <time>2023-07-22T07:57:26.000Z</time>
      </trkpt>
      <trkpt lat="42.64779" lon="1.49715">
        <ele>2523.6000976562</ele>
        <time>2023-07-22T07:57:31.000Z</time>
      </trkpt>
      <trkpt lat="42.6478" lon="1.49716">
        <ele>2524</ele>
        <time>2023-07-22T07:57:35.000Z</time>
      </trkpt>
      <trkpt lat="42.6478" lon="1.49719">
        <ele>2524.6000976562</ele>
        <time>2023-07-22T07:57:39.000Z</time>
      </trkpt>
      <trkpt lat="42.6478" lon="1.49719">
        <ele>2525.1999511719</ele>
        <time>2023-07-22T07:57:43.000Z</time>
      </trkpt>
      <trkpt lat="42.6478" lon="1.49721">
        <ele>2525.6000976562</ele>
        <time>2023-07-22T07:57:46.000Z</time>
      </trkpt>
      <trkpt lat="42.64779" lon="1.49724">
        <ele>2526.3999023438</ele>
        <time>2023-07-22T07:57:51.000Z</time>
      </trkpt>
      <trkpt lat="42.6478" lon="1.49726">
        <ele>2526.8000488281</ele>
        <time>2023-07-22T07:57:53.000Z</time>
      </trkpt>
      <trkpt lat="42.64779" lon="1.49731">
        <ele>2527.3999023438</ele>
        <time>2023-07-22T07:57:58.000Z</time>
      </trkpt>
      <trkpt lat="42.64779" lon="1.49733">
        <ele>2527.8000488281</ele>
        <time>2023-07-22T07:58:01.000Z</time>
      </trkpt>
      <trkpt lat="42.64777" lon="1.49733">
        <ele>2528.8000488281</ele>
        <time>2023-07-22T07:58:05.000Z</time>
      </trkpt>
      <trkpt lat="42.64778" lon="1.49732">
        <ele>2530</ele>
        <time>2023-07-22T07:58:10.000Z</time>
      </trkpt>
      <trkpt lat="42.64777" lon="1.49734">
        <ele>2530.6000976562</ele>
        <time>2023-07-22T07:58:14.000Z</time>
      </trkpt>
      <trkpt lat="42.64776" lon="1.49735">
        <ele>2531</ele>
        <time>2023-07-22T07:58:17.000Z</time>
      </trkpt>
      <trkpt lat="42.64776" lon="1.49736">
        <ele>2531.3999023438</ele>
        <time>2023-07-22T07:58:20.000Z</time>
      </trkpt>
      <trkpt lat="42.64776" lon="1.49736">
        <ele>2532.1999511719</ele>
        <time>2023-07-22T07:58:24.000Z</time>
      </trkpt>
      <trkpt lat="42.64773" lon="1.49739">
        <ele>2532.8000488281</ele>
        <time>2023-07-22T07:58:29.000Z</time>
      </trkpt>
      <trkpt lat="42.64773" lon="1.49741">
        <ele>2533.1999511719</ele>
        <time>2023-07-22T07:58:32.000Z</time>
      </trkpt>
      <trkpt lat="42.64773" lon="1.49741">
        <ele>2533.8000488281</ele>
        <time>2023-07-22T07:58:37.000Z</time>
      </trkpt>
      <trkpt lat="42.64773" lon="1.49743">
        <ele>2534.1999511719</ele>
        <time>2023-07-22T07:58:39.000Z</time>
      </trkpt>
      <trkpt lat="42.64773" lon="1.49744">
        <ele>2535.3999023438</ele>
        <time>2023-07-22T07:58:44.000Z</time>
      </trkpt>
      <trkpt lat="42.64773" lon="1.49744">
        <ele>2535.6000976562</ele>
        <time>2023-07-22T07:58:45.000Z</time>
      </trkpt>
      <trkpt lat="42.64773" lon="1.49747">
        <ele>2536.3999023438</ele>
        <time>2023-07-22T07:58:51.000Z</time>
      </trkpt>
      <trkpt lat="42.64773" lon="1.49747">
        <ele>2537.1999511719</ele>
        <time>2023-07-22T07:58:55.000Z</time>
      </trkpt>
      <trkpt lat="42.64773" lon="1.49748">
        <ele>2537.6000976562</ele>
        <time>2023-07-22T07:58:57.000Z</time>
      </trkpt>
      <trkpt lat="42.64772" lon="1.4975">
        <ele>2538.8000488281</ele>
        <time>2023-07-22T07:59:02.000Z</time>
      </trkpt>
      <trkpt lat="42.64773" lon="1.4975">
        <ele>2539</ele>
        <time>2023-07-22T07:59:03.000Z</time>
      </trkpt>
      <trkpt lat="42.64772" lon="1.49752">
        <ele>2539.3999023438</ele>
        <time>2023-07-22T07:59:12.000Z</time>
      </trkpt>
      <trkpt lat="42.64771" lon="1.49753">
        <ele>2539.6000976562</ele>
        <time>2023-07-22T07:59:21.000Z</time>
      </trkpt>
      <trkpt lat="42.64773" lon="1.49748">
        <ele>2539.6000976562</ele>
        <time>2023-07-22T07:59:27.000Z</time>
      </trkpt>
      <trkpt lat="42.64773" lon="1.49747">
        <ele>2540</ele>
        <time>2023-07-22T07:59:29.000Z</time>
      </trkpt>
      <trkpt lat="42.64772" lon="1.49746">
        <ele>2540.6000976562</ele>
        <time>2023-07-22T07:59:34.000Z</time>
      </trkpt>
      <trkpt lat="42.64772" lon="1.49746">
        <ele>2541</ele>
        <time>2023-07-22T07:59:36.000Z</time>
      </trkpt>
      <trkpt lat="42.64775" lon="1.49748">
        <ele>2542</ele>
        <time>2023-07-22T07:59:42.000Z</time>
      </trkpt>
      <trkpt lat="42.64776" lon="1.49748">
        <ele>2542.1999511719</ele>
        <time>2023-07-22T07:59:43.000Z</time>
      </trkpt>
      <trkpt lat="42.64778" lon="1.49752">
        <ele>2543.1999511719</ele>
        <time>2023-07-22T07:59:48.000Z</time>
      </trkpt>
      <trkpt lat="42.64777" lon="1.49753">
        <ele>2543.6000976562</ele>
        <time>2023-07-22T07:59:50.000Z</time>
      </trkpt>
      <trkpt lat="42.64777" lon="1.49755">
        <ele>2544.3999023438</ele>
        <time>2023-07-22T07:59:53.000Z</time>
      </trkpt>
      <trkpt lat="42.64777" lon="1.49758">
        <ele>2545</ele>
        <time>2023-07-22T07:59:58.000Z</time>
      </trkpt>
      <trkpt lat="42.64776" lon="1.49756">
        <ele>2545.3999023438</ele>
        <time>2023-07-22T08:00:04.000Z</time>
      </trkpt>
      <trkpt lat="42.64777" lon="1.49757">
        <ele>2545.6000976562</ele>
        <time>2023-07-22T08:00:06.000Z</time>
      </trkpt>
      <trkpt lat="42.64775" lon="1.49757">
        <ele>2545.8000488281</ele>
        <time>2023-07-22T08:00:14.000Z</time>
      </trkpt>
      <trkpt lat="42.64772" lon="1.49755">
        <ele>2546</ele>
        <time>2023-07-22T08:00:21.000Z</time>
      </trkpt>
      <trkpt lat="42.64776" lon="1.49753">
        <ele>2545.8000488281</ele>
        <time>2023-07-22T08:00:26.000Z</time>
      </trkpt>
      <trkpt lat="42.64778" lon="1.49753">
        <ele>2545.8000488281</ele>
        <time>2023-07-22T08:00:28.000Z</time>
      </trkpt>
      <trkpt lat="42.64779" lon="1.49753">
        <ele>2545.8000488281</ele>
        <time>2023-07-22T08:00:29.000Z</time>
      </trkpt>
      <trkpt lat="42.64778" lon="1.49753">
        <ele>2545</ele>
        <time>2023-07-22T08:00:34.000Z</time>
      </trkpt>
      <trkpt lat="42.64775" lon="1.49755">
        <ele>2544.3999023438</ele>
        <time>2023-07-22T08:00:39.000Z</time>
      </trkpt>
      <trkpt lat="42.64773" lon="1.49758">
        <ele>2545</ele>
        <time>2023-07-22T08:00:50.000Z</time>
      </trkpt>
      <trkpt lat="42.64773" lon="1.4976">
        <ele>2545.6000976562</ele>
        <time>2023-07-22T08:00:53.000Z</time>
      </trkpt>
      <trkpt lat="42.64774" lon="1.49762">
        <ele>2546.3999023438</ele>
        <time>2023-07-22T08:00:58.000Z</time>
      </trkpt>
      <trkpt lat="42.64774" lon="1.49763">
        <ele>2546.6000976562</ele>
        <time>2023-07-22T08:00:59.000Z</time>
      </trkpt>
      <trkpt lat="42.64773" lon="1.49765">
        <ele>2547.6000976562</ele>
        <time>2023-07-22T08:01:04.000Z</time>
      </trkpt>
      <trkpt lat="42.64772" lon="1.49767">
        <ele>2548</ele>
        <time>2023-07-22T08:01:07.000Z</time>
      </trkpt>
      <trkpt lat="42.64769" lon="1.49768">
        <ele>2548.8000488281</ele>
        <time>2023-07-22T08:01:11.000Z</time>
      </trkpt>
      <trkpt lat="42.64768" lon="1.49769">
        <ele>2549.3999023438</ele>
        <time>2023-07-22T08:01:14.000Z</time>
      </trkpt>
      <trkpt lat="42.64769" lon="1.4977">
        <ele>2549.8000488281</ele>
        <time>2023-07-22T08:01:17.000Z</time>
      </trkpt>
      <trkpt lat="42.6477" lon="1.49772">
        <ele>2550.6000976562</ele>
        <time>2023-07-22T08:01:22.000Z</time>
      </trkpt>
      <trkpt lat="42.6477" lon="1.49772">
        <ele>2551</ele>
        <time>2023-07-22T08:01:23.000Z</time>
      </trkpt>
      <trkpt lat="42.64768" lon="1.49775">
        <ele>2551.8000488281</ele>
        <time>2023-07-22T08:01:28.000Z</time>
      </trkpt>
      <trkpt lat="42.64767" lon="1.49776">
        <ele>2552</ele>
        <time>2023-07-22T08:01:30.000Z</time>
      </trkpt>
      <trkpt lat="42.64764" lon="1.49777">
        <ele>2553</ele>
        <time>2023-07-22T08:01:35.000Z</time>
      </trkpt>
      <trkpt lat="42.64763" lon="1.49778">
        <ele>2553.1999511719</ele>
        <time>2023-07-22T08:01:36.000Z</time>
      </trkpt>
      <trkpt lat="42.64762" lon="1.49778">
        <ele>2554.1999511719</ele>
        <time>2023-07-22T08:01:42.000Z</time>
      </trkpt>
      <trkpt lat="42.64762" lon="1.49778">
        <ele>2554.3999023438</ele>
        <time>2023-07-22T08:01:43.000Z</time>
      </trkpt>
      <trkpt lat="42.64764" lon="1.49779">
        <ele>2555.1999511719</ele>
        <time>2023-07-22T08:01:53.000Z</time>
      </trkpt>
      <trkpt lat="42.64762" lon="1.49781">
        <ele>2556.1999511719</ele>
        <time>2023-07-22T08:02:02.000Z</time>
      </trkpt>
      <trkpt lat="42.64762" lon="1.49781">
        <ele>2556.1999511719</ele>
        <time>2023-07-22T08:02:03.000Z</time>
      </trkpt>
      <trkpt lat="42.64764" lon="1.49778">
        <ele>2557.1999511719</ele>
        <time>2023-07-22T08:02:14.000Z</time>
      </trkpt>
      <trkpt lat="42.64766" lon="1.49781">
        <ele>2557.8000488281</ele>
        <time>2023-07-22T08:02:20.000Z</time>
      </trkpt>
      <trkpt lat="42.64768" lon="1.49781">
        <ele>2558.8000488281</ele>
        <time>2023-07-22T08:02:28.000Z</time>
      </trkpt>
      <trkpt lat="42.64768" lon="1.49783">
        <ele>2559.6000976562</ele>
        <time>2023-07-22T08:02:32.000Z</time>
      </trkpt>
      <trkpt lat="42.64768" lon="1.49783">
        <ele>2560</ele>
        <time>2023-07-22T08:02:36.000Z</time>
      </trkpt>
      <trkpt lat="42.64768" lon="1.49785">
        <ele>2560.6000976562</ele>
        <time>2023-07-22T08:02:40.000Z</time>
      </trkpt>
      <trkpt lat="42.64769" lon="1.49788">
        <ele>2561</ele>
        <time>2023-07-22T08:02:42.000Z</time>
      </trkpt>
      <trkpt lat="42.6477" lon="1.49789">
        <ele>2561.8000488281</ele>
        <time>2023-07-22T08:02:45.000Z</time>
      </trkpt>
      <trkpt lat="42.64771" lon="1.49789">
        <ele>2562</ele>
        <time>2023-07-22T08:02:48.000Z</time>
      </trkpt>
      <trkpt lat="42.64774" lon="1.49788">
        <ele>2562.8000488281</ele>
        <time>2023-07-22T08:02:54.000Z</time>
      </trkpt>
      <trkpt lat="42.64775" lon="1.49788">
        <ele>2563</ele>
        <time>2023-07-22T08:02:56.000Z</time>
      </trkpt>
      <trkpt lat="42.64774" lon="1.49788">
        <ele>2563.6000976562</ele>
        <time>2023-07-22T08:03:04.000Z</time>
      </trkpt>
      <trkpt lat="42.6477" lon="1.49789">
        <ele>2563.8000488281</ele>
        <time>2023-07-22T08:03:07.000Z</time>
      </trkpt>
      <trkpt lat="42.64772" lon="1.4979">
        <ele>2564.3999023438</ele>
        <time>2023-07-22T08:03:12.000Z</time>
      </trkpt>
      <trkpt lat="42.64771" lon="1.49793">
        <ele>2564.8000488281</ele>
        <time>2023-07-22T08:03:16.000Z</time>
      </trkpt>
      <trkpt lat="42.64768" lon="1.49796">
        <ele>2565.6000976562</ele>
        <time>2023-07-22T08:03:21.000Z</time>
      </trkpt>
      <trkpt lat="42.64766" lon="1.49797">
        <ele>2566</ele>
        <time>2023-07-22T08:03:23.000Z</time>
      </trkpt>
      <trkpt lat="42.64767" lon="1.49798">
        <ele>2566.8000488281</ele>
        <time>2023-07-22T08:03:29.000Z</time>
      </trkpt>
      <trkpt lat="42.6477" lon="1.49797">
        <ele>2567</ele>
        <time>2023-07-22T08:03:32.000Z</time>
      </trkpt>
      <trkpt lat="42.6477" lon="1.49797">
        <ele>2567.3999023438</ele>
        <time>2023-07-22T08:03:35.000Z</time>
      </trkpt>
      <trkpt lat="42.64769" lon="1.49797">
        <ele>2569.3999023438</ele>
        <time>2023-07-22T08:03:47.000Z</time>
      </trkpt>
      <trkpt lat="42.64774" lon="1.49799">
        <ele>2570.3999023438</ele>
        <time>2023-07-22T08:03:57.000Z</time>
      </trkpt>
      <trkpt lat="42.64775" lon="1.49804">
        <ele>2571.1999511719</ele>
        <time>2023-07-22T08:04:04.000Z</time>
      </trkpt>
      <trkpt lat="42.64774" lon="1.49805">
        <ele>2571.8000488281</ele>
        <time>2023-07-22T08:04:07.000Z</time>
      </trkpt>
      <trkpt lat="42.64772" lon="1.49802">
        <ele>2572.1999511719</ele>
        <time>2023-07-22T08:04:12.000Z</time>
      </trkpt>
      <trkpt lat="42.64768" lon="1.49806">
        <ele>2573.1999511719</ele>
        <time>2023-07-22T08:04:23.000Z</time>
      </trkpt>
      <trkpt lat="42.6477" lon="1.49806">
        <ele>2573.3999023438</ele>
        <time>2023-07-22T08:04:29.000Z</time>
      </trkpt>
      <trkpt lat="42.6477" lon="1.49805">
        <ele>2573.8000488281</ele>
        <time>2023-07-22T08:04:31.000Z</time>
      </trkpt>
      <trkpt lat="42.64769" lon="1.49802">
        <ele>2574.3999023438</ele>
        <time>2023-07-22T08:04:36.000Z</time>
      </trkpt>
      <trkpt lat="42.64768" lon="1.49806">
        <ele>2575</ele>
        <time>2023-07-22T08:04:40.000Z</time>
      </trkpt>
      <trkpt lat="42.64768" lon="1.49808">
        <ele>2575</ele>
        <time>2023-07-22T08:04:44.000Z</time>
      </trkpt>
      <trkpt lat="42.6477" lon="1.49809">
        <ele>2576.1999511719</ele>
        <time>2023-07-22T08:04:50.000Z</time>
      </trkpt>
      <trkpt lat="42.64771" lon="1.49809">
        <ele>2576.6000976562</ele>
        <time>2023-07-22T08:04:52.000Z</time>
      </trkpt>
      <trkpt lat="42.64771" lon="1.49811">
        <ele>2577.1999511719</ele>
        <time>2023-07-22T08:04:58.000Z</time>
      </trkpt>
      <trkpt lat="42.64769" lon="1.49813">
        <ele>2577.8000488281</ele>
        <time>2023-07-22T08:05:01.000Z</time>
      </trkpt>
      <trkpt lat="42.64766" lon="1.49815">
        <ele>2578.3999023438</ele>
        <time>2023-07-22T08:05:04.000Z</time>
      </trkpt>
      <trkpt lat="42.64764" lon="1.49816">
        <ele>2579</ele>
        <time>2023-07-22T08:05:08.000Z</time>
      </trkpt>
      <trkpt lat="42.64768" lon="1.49819">
        <ele>2580.1999511719</ele>
        <time>2023-07-22T08:05:25.000Z</time>
      </trkpt>
      <trkpt lat="42.64767" lon="1.49815">
        <ele>2580.3999023438</ele>
        <time>2023-07-22T08:05:30.000Z</time>
      </trkpt>
      <trkpt lat="42.64767" lon="1.49815">
        <ele>2580.3999023438</ele>
        <time>2023-07-22T08:05:31.000Z</time>
      </trkpt>
      <trkpt lat="42.64768" lon="1.49817">
        <ele>2580.6000976562</ele>
        <time>2023-07-22T08:05:37.000Z</time>
      </trkpt>
      <trkpt lat="42.6477" lon="1.49822">
        <ele>2581.3999023438</ele>
        <time>2023-07-22T08:05:43.000Z</time>
      </trkpt>
      <trkpt lat="42.64771" lon="1.49822">
        <ele>2581.6000976562</ele>
        <time>2023-07-22T08:05:45.000Z</time>
      </trkpt>
      <trkpt lat="42.64774" lon="1.49823">
        <ele>2582.3999023438</ele>
        <time>2023-07-22T08:05:53.000Z</time>
      </trkpt>
      <trkpt lat="42.64777" lon="1.49823">
        <ele>2583.6000976562</ele>
        <time>2023-07-22T08:05:59.000Z</time>
      </trkpt>
      <trkpt lat="42.64777" lon="1.49823">
        <ele>2583.8000488281</ele>
        <time>2023-07-22T08:06:00.000Z</time>
      </trkpt>
      <trkpt lat="42.64777" lon="1.49821">
        <ele>2584.8000488281</ele>
        <time>2023-07-22T08:06:05.000Z</time>
      </trkpt>
      <trkpt lat="42.64777" lon="1.4982">
        <ele>2585.1999511719</ele>
        <time>2023-07-22T08:06:08.000Z</time>
      </trkpt>
      <trkpt lat="42.64778" lon="1.49821">
        <ele>2585.8000488281</ele>
        <time>2023-07-22T08:06:12.000Z</time>
      </trkpt>
      <trkpt lat="42.64777" lon="1.49819">
        <ele>2586.3999023438</ele>
        <time>2023-07-22T08:06:15.000Z</time>
      </trkpt>
      <trkpt lat="42.64776" lon="1.4982">
        <ele>2586.8000488281</ele>
        <time>2023-07-22T08:06:19.000Z</time>
      </trkpt>
      <trkpt lat="42.64776" lon="1.49824">
        <ele>2588</ele>
        <time>2023-07-22T08:06:24.000Z</time>
      </trkpt>
      <trkpt lat="42.64776" lon="1.49828">
        <ele>2588.8000488281</ele>
        <time>2023-07-22T08:06:33.000Z</time>
      </trkpt>
      <trkpt lat="42.64776" lon="1.4983">
        <ele>2589</ele>
        <time>2023-07-22T08:06:35.000Z</time>
      </trkpt>
      <trkpt lat="42.64777" lon="1.49829">
        <ele>2589.3999023438</ele>
        <time>2023-07-22T08:06:40.000Z</time>
      </trkpt>
      <trkpt lat="42.64781" lon="1.49829">
        <ele>2589.6000976562</ele>
        <time>2023-07-22T08:06:58.000Z</time>
      </trkpt>
      <trkpt lat="42.64778" lon="1.49825">
        <ele>2589.3999023438</ele>
        <time>2023-07-22T08:07:04.000Z</time>
      </trkpt>
      <trkpt lat="42.64777" lon="1.49828">
        <ele>2589.8000488281</ele>
        <time>2023-07-22T08:07:12.000Z</time>
      </trkpt>
      <trkpt lat="42.64777" lon="1.49829">
        <ele>2590</ele>
        <time>2023-07-22T08:07:14.000Z</time>
      </trkpt>
      <trkpt lat="42.64776" lon="1.49831">
        <ele>2591.3999023438</ele>
        <time>2023-07-22T08:07:18.000Z</time>
      </trkpt>
      <trkpt lat="42.64776" lon="1.49831">
        <ele>2591.6000976562</ele>
        <time>2023-07-22T08:07:19.000Z</time>
      </trkpt>
      <trkpt lat="42.64778" lon="1.49835">
        <ele>2591.8000488281</ele>
        <time>2023-07-22T08:07:26.000Z</time>
      </trkpt>
      <trkpt lat="42.64779" lon="1.49834">
        <ele>2592.6000976562</ele>
        <time>2023-07-22T08:07:30.000Z</time>
      </trkpt>
      <trkpt lat="42.64778" lon="1.49835">
        <ele>2593.1999511719</ele>
        <time>2023-07-22T08:07:34.000Z</time>
      </trkpt>
      <trkpt lat="42.64777" lon="1.49834">
        <ele>2593.8000488281</ele>
        <time>2023-07-22T08:07:37.000Z</time>
      </trkpt>
      <trkpt lat="42.64777" lon="1.49835">
        <ele>2594</ele>
        <time>2023-07-22T08:07:41.000Z</time>
      </trkpt>
      <trkpt lat="42.6478" lon="1.49838">
        <ele>2593.6000976562</ele>
        <time>2023-07-22T08:07:48.000Z</time>
      </trkpt>
      <trkpt lat="42.64783" lon="1.49841">
        <ele>2593.1999511719</ele>
        <time>2023-07-22T08:07:54.000Z</time>
      </trkpt>
      <trkpt lat="42.64783" lon="1.49838">
        <ele>2594.8000488281</ele>
        <time>2023-07-22T08:08:00.000Z</time>
      </trkpt>
      <trkpt lat="42.64782" lon="1.49837">
        <ele>2594.8000488281</ele>
        <time>2023-07-22T08:08:01.000Z</time>
      </trkpt>
      <trkpt lat="42.64783" lon="1.49837">
        <ele>2596</ele>
        <time>2023-07-22T08:08:04.000Z</time>
      </trkpt>
      <trkpt lat="42.64783" lon="1.49839">
        <ele>2596.1999511719</ele>
        <time>2023-07-22T08:08:07.000Z</time>
      </trkpt>
      <trkpt lat="42.64784" lon="1.49843">
        <ele>2596.8000488281</ele>
        <time>2023-07-22T08:08:13.000Z</time>
      </trkpt>
      <trkpt lat="42.64784" lon="1.49842">
        <ele>2597</ele>
        <time>2023-07-22T08:08:14.000Z</time>
      </trkpt>
      <trkpt lat="42.64782" lon="1.49837">
        <ele>2597</ele>
        <time>2023-07-22T08:08:19.000Z</time>
      </trkpt>
      <trkpt lat="42.6478" lon="1.49838">
        <ele>2597.8000488281</ele>
        <time>2023-07-22T08:08:26.000Z</time>
      </trkpt>
      <trkpt lat="42.6478" lon="1.49838">
        <ele>2598</ele>
        <time>2023-07-22T08:08:27.000Z</time>
      </trkpt>
      <trkpt lat="42.64778" lon="1.49839">
        <ele>2599</ele>
        <time>2023-07-22T08:08:33.000Z</time>
      </trkpt>
      <trkpt lat="42.64777" lon="1.49838">
        <ele>2600</ele>
        <time>2023-07-22T08:08:36.000Z</time>
      </trkpt>
      <trkpt lat="42.64778" lon="1.49838">
        <ele>2599.8000488281</ele>
        <time>2023-07-22T08:08:44.000Z</time>
      </trkpt>
      <trkpt lat="42.64779" lon="1.4984">
        <ele>2600.3999023438</ele>
        <time>2023-07-22T08:08:53.000Z</time>
      </trkpt>
      <trkpt lat="42.64781" lon="1.49842">
        <ele>2601</ele>
        <time>2023-07-22T08:09:02.000Z</time>
      </trkpt>
      <trkpt lat="42.64781" lon="1.49843">
        <ele>2601.1999511719</ele>
        <time>2023-07-22T08:09:03.000Z</time>
      </trkpt>
      <trkpt lat="42.64781" lon="1.49845">
        <ele>2602.3999023438</ele>
        <time>2023-07-22T08:09:07.000Z</time>
      </trkpt>
      <trkpt lat="42.64781" lon="1.49847">
        <ele>2602.8000488281</ele>
        <time>2023-07-22T08:09:09.000Z</time>
      </trkpt>
      <trkpt lat="42.64782" lon="1.49849">
        <ele>2603.3999023438</ele>
        <time>2023-07-22T08:09:13.000Z</time>
      </trkpt>
      <trkpt lat="42.64785" lon="1.49853">
        <ele>2604.1999511719</ele>
        <time>2023-07-22T08:09:18.000Z</time>
      </trkpt>
      <trkpt lat="42.64787" lon="1.49854">
        <ele>2604.3999023438</ele>
        <time>2023-07-22T08:09:23.000Z</time>
      </trkpt>
      <trkpt lat="42.64787" lon="1.49853">
        <ele>2604.3999023438</ele>
        <time>2023-07-22T08:09:24.000Z</time>
      </trkpt>
      <trkpt lat="42.64785" lon="1.49854">
        <ele>2604.6000976562</ele>
        <time>2023-07-22T08:09:31.000Z</time>
      </trkpt>
      <trkpt lat="42.64786" lon="1.49856">
        <ele>2605.3999023438</ele>
        <time>2023-07-22T08:09:38.000Z</time>
      </trkpt>
      <trkpt lat="42.64787" lon="1.49858">
        <ele>2605.3999023438</ele>
        <time>2023-07-22T08:09:40.000Z</time>
      </trkpt>
      <trkpt lat="42.64787" lon="1.49863">
        <ele>2606.6000976562</ele>
        <time>2023-07-22T08:09:47.000Z</time>
      </trkpt>
      <trkpt lat="42.64784" lon="1.49857">
        <ele>2607.1999511719</ele>
        <time>2023-07-22T08:09:55.000Z</time>
      </trkpt>
      <trkpt lat="42.64784" lon="1.49856">
        <ele>2606.8000488281</ele>
        <time>2023-07-22T08:10:01.000Z</time>
      </trkpt>
      <trkpt lat="42.64784" lon="1.49855">
        <ele>2607.8000488281</ele>
        <time>2023-07-22T08:10:04.000Z</time>
      </trkpt>
      <trkpt lat="42.64785" lon="1.49854">
        <ele>2608.8000488281</ele>
        <time>2023-07-22T08:10:09.000Z</time>
      </trkpt>
      <trkpt lat="42.64786" lon="1.49855">
        <ele>2609</ele>
        <time>2023-07-22T08:10:10.000Z</time>
      </trkpt>
      <trkpt lat="42.64788" lon="1.49855">
        <ele>2609.6000976562</ele>
        <time>2023-07-22T08:10:16.000Z</time>
      </trkpt>
      <trkpt lat="42.64788" lon="1.49856">
        <ele>2610</ele>
        <time>2023-07-22T08:10:19.000Z</time>
      </trkpt>
      <trkpt lat="42.64787" lon="1.49857">
        <ele>2611</ele>
        <time>2023-07-22T08:10:23.000Z</time>
      </trkpt>
      <trkpt lat="42.64787" lon="1.49858">
        <ele>2611</ele>
        <time>2023-07-22T08:10:24.000Z</time>
      </trkpt>
      <trkpt lat="42.64788" lon="1.49859">
        <ele>2610.8000488281</ele>
        <time>2023-07-22T08:10:33.000Z</time>
      </trkpt>
      <trkpt lat="42.64789" lon="1.49859">
        <ele>2612.3999023438</ele>
        <time>2023-07-22T08:10:37.000Z</time>
      </trkpt>
      <trkpt lat="42.6479" lon="1.4986">
        <ele>2613.1999511719</ele>
        <time>2023-07-22T08:10:38.000Z</time>
      </trkpt>
      <trkpt lat="42.64789" lon="1.4986">
        <ele>2613.8000488281</ele>
        <time>2023-07-22T08:10:39.000Z</time>
      </trkpt>
      <trkpt lat="42.64788" lon="1.49862">
        <ele>2614.8000488281</ele>
        <time>2023-07-22T08:10:43.000Z</time>
      </trkpt>
      <trkpt lat="42.64788" lon="1.49862">
        <ele>2614.8000488281</ele>
        <time>2023-07-22T08:10:44.000Z</time>
      </trkpt>
      <trkpt lat="42.64791" lon="1.49863">
        <ele>2614.8000488281</ele>
        <time>2023-07-22T08:10:51.000Z</time>
      </trkpt>
      <trkpt lat="42.64791" lon="1.49868">
        <ele>2616</ele>
        <time>2023-07-22T08:10:58.000Z</time>
      </trkpt>
      <trkpt lat="42.64792" lon="1.49869">
        <ele>2616.6000976562</ele>
        <time>2023-07-22T08:11:06.000Z</time>
      </trkpt>
      <trkpt lat="42.64791" lon="1.49872">
        <ele>2616.8000488281</ele>
        <time>2023-07-22T08:11:12.000Z</time>
      </trkpt>
      <trkpt lat="42.64791" lon="1.49873">
        <ele>2617.3999023438</ele>
        <time>2023-07-22T08:11:13.000Z</time>
      </trkpt>
      <trkpt lat="42.64793" lon="1.49872">
        <ele>2617.8000488281</ele>
        <time>2023-07-22T08:11:20.000Z</time>
      </trkpt>
      <trkpt lat="42.64801" lon="1.4987">
        <ele>2617.8000488281</ele>
        <time>2023-07-22T08:11:27.000Z</time>
      </trkpt>
      <trkpt lat="42.64806" lon="1.49871">
        <ele>2618.6000976562</ele>
        <time>2023-07-22T08:11:32.000Z</time>
      </trkpt>
      <trkpt lat="42.64806" lon="1.49872">
        <ele>2619.6000976562</ele>
        <time>2023-07-22T08:11:34.000Z</time>
      </trkpt>
      <trkpt lat="42.64807" lon="1.49873">
        <ele>2620.8000488281</ele>
        <time>2023-07-22T08:11:36.000Z</time>
      </trkpt>
      <trkpt lat="42.64805" lon="1.49874">
        <ele>2622.6000976562</ele>
        <time>2023-07-22T08:11:38.000Z</time>
      </trkpt>
      <trkpt lat="42.64805" lon="1.49875">
        <ele>2623.6000976562</ele>
        <time>2023-07-22T08:11:40.000Z</time>
      </trkpt>
      <trkpt lat="42.64805" lon="1.49875">
        <ele>2624</ele>
        <time>2023-07-22T08:11:41.000Z</time>
      </trkpt>
      <trkpt lat="42.64804" lon="1.49873">
        <ele>2622.3999023438</ele>
        <time>2023-07-22T08:11:45.000Z</time>
      </trkpt>
      <trkpt lat="42.64802" lon="1.49871">
        <ele>2621.1999511719</ele>
        <time>2023-07-22T08:11:48.000Z</time>
      </trkpt>
      <trkpt lat="42.64802" lon="1.4987">
        <ele>2620.8000488281</ele>
        <time>2023-07-22T08:11:49.000Z</time>
      </trkpt>
      <trkpt lat="42.64802" lon="1.4987">
        <ele>2619.8000488281</ele>
        <time>2023-07-22T08:11:50.000Z</time>
      </trkpt>
      <trkpt lat="42.64804" lon="1.49871">
        <ele>2621.1999511719</ele>
        <time>2023-07-22T08:11:54.000Z</time>
      </trkpt>
      <trkpt lat="42.648" lon="1.49867">
        <ele>2621.3999023438</ele>
        <time>2023-07-22T08:11:58.000Z</time>
      </trkpt>
      <trkpt lat="42.64798" lon="1.49863">
        <ele>2618.3999023438</ele>
        <time>2023-07-22T08:12:05.000Z</time>
      </trkpt>
      <trkpt lat="42.64798" lon="1.49865">
        <ele>2616.3999023438</ele>
        <time>2023-07-22T08:12:06.000Z</time>
      </trkpt>
      <trkpt lat="42.64801" lon="1.49871">
        <ele>2620.8000488281</ele>
        <time>2023-07-22T08:12:11.000Z</time>
      </trkpt>
      <trkpt lat="42.64801" lon="1.4987">
        <ele>2624.1999511719</ele>
        <time>2023-07-22T08:12:12.000Z</time>
      </trkpt>
      <trkpt lat="42.64801" lon="1.49869">
        <ele>2626</ele>
        <time>2023-07-22T08:12:13.000Z</time>
      </trkpt>
      <trkpt lat="42.64801" lon="1.4987">
        <ele>2627.3999023438</ele>
        <time>2023-07-22T08:12:14.000Z</time>
      </trkpt>
      <trkpt lat="42.64802" lon="1.49872">
        <ele>2625.6000976562</ele>
        <time>2023-07-22T08:12:19.000Z</time>
      </trkpt>
      <trkpt lat="42.64801" lon="1.49873">
        <ele>2624.1999511719</ele>
        <time>2023-07-22T08:12:20.000Z</time>
      </trkpt>
      <trkpt lat="42.64801" lon="1.49874">
        <ele>2622.8000488281</ele>
        <time>2023-07-22T08:12:21.000Z</time>
      </trkpt>
      <trkpt lat="42.64798" lon="1.49876">
        <ele>2621.8000488281</ele>
        <time>2023-07-22T08:12:26.000Z</time>
      </trkpt>
      <trkpt lat="42.64795" lon="1.49878">
        <ele>2620.1999511719</ele>
        <time>2023-07-22T08:12:29.000Z</time>
      </trkpt>
      <trkpt lat="42.64794" lon="1.49882">
        <ele>2620</ele>
        <time>2023-07-22T08:12:32.000Z</time>
      </trkpt>
      <trkpt lat="42.64794" lon="1.49886">
        <ele>2622.1999511719</ele>
        <time>2023-07-22T08:12:35.000Z</time>
      </trkpt>
      <trkpt lat="42.64794" lon="1.49888">
        <ele>2623.3999023438</ele>
        <time>2023-07-22T08:12:37.000Z</time>
      </trkpt>
      <trkpt lat="42.64794" lon="1.4989">
        <ele>2625</ele>
        <time>2023-07-22T08:12:39.000Z</time>
      </trkpt>
      <trkpt lat="42.64795" lon="1.49893">
        <ele>2624.3999023438</ele>
        <time>2023-07-22T08:12:46.000Z</time>
      </trkpt>
      <trkpt lat="42.64796" lon="1.49893">
        <ele>2623.8000488281</ele>
        <time>2023-07-22T08:12:49.000Z</time>
      </trkpt>
      <trkpt lat="42.64796" lon="1.49893">
        <ele>2622.8000488281</ele>
        <time>2023-07-22T08:12:50.000Z</time>
      </trkpt>
      <trkpt lat="42.64797" lon="1.49893">
        <ele>2621.8000488281</ele>
        <time>2023-07-22T08:12:54.000Z</time>
      </trkpt>
      <trkpt lat="42.64797" lon="1.49893">
        <ele>2621.8000488281</ele>
        <time>2023-07-22T08:12:55.000Z</time>
      </trkpt>
      <trkpt lat="42.64796" lon="1.49892">
        <ele>2623</ele>
        <time>2023-07-22T08:13:03.000Z</time>
      </trkpt>
      <trkpt lat="42.64796" lon="1.49892">
        <ele>2623</ele>
        <time>2023-07-22T08:13:06.000Z</time>
      </trkpt>
      <trkpt lat="42.64796" lon="1.49893">
        <ele>2621.8000488281</ele>
        <time>2023-07-22T08:13:10.000Z</time>
      </trkpt>
      <trkpt lat="42.64796" lon="1.49893">
        <ele>2621.6000976562</ele>
        <time>2023-07-22T08:13:14.000Z</time>
      </trkpt>
      <trkpt lat="42.64796" lon="1.49893">
        <ele>2620.8000488281</ele>
        <time>2023-07-22T08:13:20.000Z</time>
      </trkpt>
      <trkpt lat="42.64796" lon="1.49892">
        <ele>2620</ele>
        <time>2023-07-22T08:13:25.000Z</time>
      </trkpt>
      <trkpt lat="42.64797" lon="1.49893">
        <ele>2619.3999023438</ele>
        <time>2023-07-22T08:13:27.000Z</time>
      </trkpt>
      <trkpt lat="42.64797" lon="1.49893">
        <ele>2618.3999023438</ele>
        <time>2023-07-22T08:13:31.000Z</time>
      </trkpt>
      <trkpt lat="42.64794" lon="1.4989">
        <ele>2617.1999511719</ele>
        <time>2023-07-22T08:13:37.000Z</time>
      </trkpt>
      <trkpt lat="42.64793" lon="1.4989">
        <ele>2617.1999511719</ele>
        <time>2023-07-22T08:13:38.000Z</time>
      </trkpt>
      <trkpt lat="42.64793" lon="1.4989">
        <ele>2616.1999511719</ele>
        <time>2023-07-22T08:13:44.000Z</time>
      </trkpt>
      <trkpt lat="42.64793" lon="1.4989">
        <ele>2616.1999511719</ele>
        <time>2023-07-22T08:13:45.000Z</time>
      </trkpt>
      <trkpt lat="42.64791" lon="1.4989">
        <ele>2615.8000488281</ele>
        <time>2023-07-22T08:13:54.000Z</time>
      </trkpt>
      <trkpt lat="42.64791" lon="1.49891">
        <ele>2616</ele>
        <time>2023-07-22T08:14:03.000Z</time>
      </trkpt>
      <trkpt lat="42.64795" lon="1.49895">
        <ele>2616.1999511719</ele>
        <time>2023-07-22T08:14:09.000Z</time>
      </trkpt>
      <trkpt lat="42.64797" lon="1.49896">
        <ele>2615</ele>
        <time>2023-07-22T08:14:14.000Z</time>
      </trkpt>
      <trkpt lat="42.64797" lon="1.49894">
        <ele>2614.8000488281</ele>
        <time>2023-07-22T08:14:18.000Z</time>
      </trkpt>
      <trkpt lat="42.64796" lon="1.4989">
        <ele>2616</ele>
        <time>2023-07-22T08:14:23.000Z</time>
      </trkpt>
      <trkpt lat="42.64796" lon="1.49887">
        <ele>2616.3999023438</ele>
        <time>2023-07-22T08:14:27.000Z</time>
      </trkpt>
      <trkpt lat="42.64799" lon="1.49884">
        <ele>2615</ele>
        <time>2023-07-22T08:14:33.000Z</time>
      </trkpt>
      <trkpt lat="42.64798" lon="1.49882">
        <ele>2614.6000976562</ele>
        <time>2023-07-22T08:14:40.000Z</time>
      </trkpt>
      <trkpt lat="42.64799" lon="1.4988">
        <ele>2614.1999511719</ele>
        <time>2023-07-22T08:14:46.000Z</time>
      </trkpt>
      <trkpt lat="42.648" lon="1.49879">
        <ele>2613.8000488281</ele>
        <time>2023-07-22T08:14:49.000Z</time>
      </trkpt>
      <trkpt lat="42.648" lon="1.49877">
        <ele>2612.6000976562</ele>
        <time>2023-07-22T08:14:52.000Z</time>
      </trkpt>
      <trkpt lat="42.648" lon="1.49876">
        <ele>2612.3999023438</ele>
        <time>2023-07-22T08:14:54.000Z</time>
      </trkpt>
      <trkpt lat="42.64802" lon="1.49869">
        <ele>2612.6000976562</ele>
        <time>2023-07-22T08:15:01.000Z</time>
      </trkpt>
      <trkpt lat="42.64803" lon="1.49862">
        <ele>2611.6000976562</ele>
        <time>2023-07-22T08:15:08.000Z</time>
      </trkpt>
      <trkpt lat="42.64805" lon="1.4986">
        <ele>2610.8000488281</ele>
        <time>2023-07-22T08:15:11.000Z</time>
      </trkpt>
      <trkpt lat="42.64805" lon="1.4986">
        <ele>2610.1999511719</ele>
        <time>2023-07-22T08:15:12.000Z</time>
      </trkpt>
      <trkpt lat="42.64809" lon="1.49857">
        <ele>2608.8000488281</ele>
        <time>2023-07-22T08:15:18.000Z</time>
      </trkpt>
      <trkpt lat="42.64811" lon="1.49856">
        <ele>2607.3999023438</ele>
        <time>2023-07-22T08:15:21.000Z</time>
      </trkpt>
      <trkpt lat="42.64811" lon="1.49855">
        <ele>2606.1999511719</ele>
        <time>2023-07-22T08:15:23.000Z</time>
      </trkpt>
      <trkpt lat="42.64812" lon="1.49854">
        <ele>2606</ele>
        <time>2023-07-22T08:15:25.000Z</time>
      </trkpt>
      <trkpt lat="42.64814" lon="1.49849">
        <ele>2604.1999511719</ele>
        <time>2023-07-22T08:15:31.000Z</time>
      </trkpt>
      <trkpt lat="42.64814" lon="1.49848">
        <ele>2603.3999023438</ele>
        <time>2023-07-22T08:15:33.000Z</time>
      </trkpt>
      <trkpt lat="42.64815" lon="1.49847">
        <ele>2602.6000976562</ele>
        <time>2023-07-22T08:15:35.000Z</time>
      </trkpt>
      <trkpt lat="42.64818" lon="1.4984">
        <ele>2603</ele>
        <time>2023-07-22T08:15:42.000Z</time>
      </trkpt>
      <trkpt lat="42.64818" lon="1.4984">
        <ele>2604.1999511719</ele>
        <time>2023-07-22T08:15:43.000Z</time>
      </trkpt>
      <trkpt lat="42.64821" lon="1.49836">
        <ele>2604</ele>
        <time>2023-07-22T08:15:48.000Z</time>
      </trkpt>
      <trkpt lat="42.64821" lon="1.49831">
        <ele>2602.8000488281</ele>
        <time>2023-07-22T08:15:53.000Z</time>
      </trkpt>
      <trkpt lat="42.64821" lon="1.49831">
        <ele>2602.1999511719</ele>
        <time>2023-07-22T08:15:56.000Z</time>
      </trkpt>
      <trkpt lat="42.64821" lon="1.49832">
        <ele>2601.8000488281</ele>
        <time>2023-07-22T08:15:57.000Z</time>
      </trkpt>
      <trkpt lat="42.64821" lon="1.49836">
        <ele>2600.8000488281</ele>
        <time>2023-07-22T08:16:04.000Z</time>
      </trkpt>
      <trkpt lat="42.64819" lon="1.49835">
        <ele>2600.6000976562</ele>
        <time>2023-07-22T08:16:12.000Z</time>
      </trkpt>
      <trkpt lat="42.64822" lon="1.49832">
        <ele>2601</ele>
        <time>2023-07-22T08:16:24.000Z</time>
      </trkpt>
      <trkpt lat="42.64826" lon="1.49834">
        <ele>2600.1999511719</ele>
        <time>2023-07-22T08:16:33.000Z</time>
      </trkpt>
      <trkpt lat="42.64827" lon="1.49832">
        <ele>2600.1999511719</ele>
        <time>2023-07-22T08:16:41.000Z</time>
      </trkpt>
      <trkpt lat="42.64822" lon="1.49834">
        <ele>2600.1999511719</ele>
        <time>2023-07-22T08:16:50.000Z</time>
      </trkpt>
      <trkpt lat="42.64821" lon="1.49834">
        <ele>2600.6000976562</ele>
        <time>2023-07-22T08:17:00.000Z</time>
      </trkpt>
      <trkpt lat="42.64823" lon="1.49834">
        <ele>2599</ele>
        <time>2023-07-22T08:17:03.000Z</time>
      </trkpt>
      <trkpt lat="42.64825" lon="1.49834">
        <ele>2598.8000488281</ele>
        <time>2023-07-22T08:17:08.000Z</time>
      </trkpt>
      <trkpt lat="42.64824" lon="1.49837">
        <ele>2598.3999023438</ele>
        <time>2023-07-22T08:17:15.000Z</time>
      </trkpt>
      <trkpt lat="42.64824" lon="1.49837">
        <ele>2598</ele>
        <time>2023-07-22T08:17:16.000Z</time>
      </trkpt>
      <trkpt lat="42.64824" lon="1.49834">
        <ele>2597</ele>
        <time>2023-07-22T08:17:22.000Z</time>
      </trkpt>
      <trkpt lat="42.64824" lon="1.49834">
        <ele>2596.8000488281</ele>
        <time>2023-07-22T08:17:23.000Z</time>
      </trkpt>
      <trkpt lat="42.64823" lon="1.49832">
        <ele>2595.8000488281</ele>
        <time>2023-07-22T08:17:29.000Z</time>
      </trkpt>
      <trkpt lat="42.64821" lon="1.49832">
        <ele>2595.8000488281</ele>
        <time>2023-07-22T08:17:32.000Z</time>
      </trkpt>
      <trkpt lat="42.6482" lon="1.49835">
        <ele>2595</ele>
        <time>2023-07-22T08:17:41.000Z</time>
      </trkpt>
      <trkpt lat="42.64821" lon="1.49836">
        <ele>2594.8000488281</ele>
        <time>2023-07-22T08:17:47.000Z</time>
      </trkpt>
      <trkpt lat="42.64822" lon="1.49837">
        <ele>2594.6000976562</ele>
        <time>2023-07-22T08:17:49.000Z</time>
      </trkpt>
      <trkpt lat="42.64824" lon="1.49835">
        <ele>2594</ele>
        <time>2023-07-22T08:17:55.000Z</time>
      </trkpt>
      <trkpt lat="42.64825" lon="1.49836">
        <ele>2593.8000488281</ele>
        <time>2023-07-22T08:17:56.000Z</time>
      </trkpt>
      <trkpt lat="42.64827" lon="1.49842">
        <ele>2593.1999511719</ele>
        <time>2023-07-22T08:18:02.000Z</time>
      </trkpt>
      <trkpt lat="42.64827" lon="1.49844">
        <ele>2592.6000976562</ele>
        <time>2023-07-22T08:18:04.000Z</time>
      </trkpt>
      <trkpt lat="42.64826" lon="1.49849">
        <ele>2591.8000488281</ele>
        <time>2023-07-22T08:18:11.000Z</time>
      </trkpt>
      <trkpt lat="42.64827" lon="1.4985">
        <ele>2591.3999023438</ele>
        <time>2023-07-22T08:18:13.000Z</time>
      </trkpt>
      <trkpt lat="42.64828" lon="1.49853">
        <ele>2590.1999511719</ele>
        <time>2023-07-22T08:18:17.000Z</time>
      </trkpt>
      <trkpt lat="42.64828" lon="1.49853">
        <ele>2589.8000488281</ele>
        <time>2023-07-22T08:18:18.000Z</time>
      </trkpt>
      <trkpt lat="42.64827" lon="1.49853">
        <ele>2589</ele>
        <time>2023-07-22T08:18:21.000Z</time>
      </trkpt>
      <trkpt lat="42.64828" lon="1.49854">
        <ele>2587.8000488281</ele>
        <time>2023-07-22T08:18:25.000Z</time>
      </trkpt>
      <trkpt lat="42.64828" lon="1.49855">
        <ele>2587.6000976562</ele>
        <time>2023-07-22T08:18:26.000Z</time>
      </trkpt>
      <trkpt lat="42.64828" lon="1.49858">
        <ele>2587</ele>
        <time>2023-07-22T08:18:32.000Z</time>
      </trkpt>
      <trkpt lat="42.64828" lon="1.49858">
        <ele>2586.6000976562</ele>
        <time>2023-07-22T08:18:33.000Z</time>
      </trkpt>
      <trkpt lat="42.64829" lon="1.49859">
        <ele>2585.3999023438</ele>
        <time>2023-07-22T08:18:38.000Z</time>
      </trkpt>
      <trkpt lat="42.64829" lon="1.49861">
        <ele>2585.1999511719</ele>
        <time>2023-07-22T08:18:40.000Z</time>
      </trkpt>
      <trkpt lat="42.64829" lon="1.49863">
        <ele>2584.3999023438</ele>
        <time>2023-07-22T08:18:44.000Z</time>
      </trkpt>
      <trkpt lat="42.64829" lon="1.49867">
        <ele>2583.1999511719</ele>
        <time>2023-07-22T08:18:49.000Z</time>
      </trkpt>
      <trkpt lat="42.64829" lon="1.49868">
        <ele>2582.8000488281</ele>
        <time>2023-07-22T08:18:50.000Z</time>
      </trkpt>
      <trkpt lat="42.6483" lon="1.49869">
        <ele>2582</ele>
        <time>2023-07-22T08:18:53.000Z</time>
      </trkpt>
      <trkpt lat="42.6483" lon="1.4987">
        <ele>2580.8000488281</ele>
        <time>2023-07-22T08:19:00.000Z</time>
      </trkpt>
      <trkpt lat="42.64831" lon="1.49874">
        <ele>2579.8000488281</ele>
        <time>2023-07-22T08:19:07.000Z</time>
      </trkpt>
      <trkpt lat="42.64832" lon="1.49876">
        <ele>2579.6000976562</ele>
        <time>2023-07-22T08:19:09.000Z</time>
      </trkpt>
      <trkpt lat="42.64833" lon="1.49882">
        <ele>2578.8000488281</ele>
        <time>2023-07-22T08:19:14.000Z</time>
      </trkpt>
      <trkpt lat="42.64832" lon="1.49883">
        <ele>2578.6000976562</ele>
        <time>2023-07-22T08:19:16.000Z</time>
      </trkpt>
      <trkpt lat="42.64832" lon="1.49884">
        <ele>2578.1999511719</ele>
        <time>2023-07-22T08:19:21.000Z</time>
      </trkpt>
      <trkpt lat="42.64832" lon="1.49885">
        <ele>2577.1999511719</ele>
        <time>2023-07-22T08:19:24.000Z</time>
      </trkpt>
      <trkpt lat="42.64831" lon="1.49884">
        <ele>2576.6000976562</ele>
        <time>2023-07-22T08:19:29.000Z</time>
      </trkpt>
      <trkpt lat="42.64832" lon="1.49886">
        <ele>2576.1999511719</ele>
        <time>2023-07-22T08:19:31.000Z</time>
      </trkpt>
      <trkpt lat="42.64833" lon="1.49887">
        <ele>2576</ele>
        <time>2023-07-22T08:19:36.000Z</time>
      </trkpt>
      <trkpt lat="42.64835" lon="1.49885">
        <ele>2575.1999511719</ele>
        <time>2023-07-22T08:19:43.000Z</time>
      </trkpt>
      <trkpt lat="42.64838" lon="1.49888">
        <ele>2574</ele>
        <time>2023-07-22T08:19:47.000Z</time>
      </trkpt>
      <trkpt lat="42.64838" lon="1.49887">
        <ele>2574</ele>
        <time>2023-07-22T08:19:49.000Z</time>
      </trkpt>
      <trkpt lat="42.64839" lon="1.49889">
        <ele>2573</ele>
        <time>2023-07-22T08:19:58.000Z</time>
      </trkpt>
      <trkpt lat="42.64838" lon="1.49889">
        <ele>2572.8000488281</ele>
        <time>2023-07-22T08:19:59.000Z</time>
      </trkpt>
      <trkpt lat="42.64839" lon="1.49883">
        <ele>2572.1999511719</ele>
        <time>2023-07-22T08:20:08.000Z</time>
      </trkpt>
      <trkpt lat="42.6484" lon="1.49882">
        <ele>2572</ele>
        <time>2023-07-22T08:20:12.000Z</time>
      </trkpt>
      <trkpt lat="42.64841" lon="1.49882">
        <ele>2571.3999023438</ele>
        <time>2023-07-22T08:20:15.000Z</time>
      </trkpt>
      <trkpt lat="42.64843" lon="1.49879">
        <ele>2570.8000488281</ele>
        <time>2023-07-22T08:20:20.000Z</time>
      </trkpt>
      <trkpt lat="42.64845" lon="1.49878">
        <ele>2570.1999511719</ele>
        <time>2023-07-22T08:20:23.000Z</time>
      </trkpt>
      <trkpt lat="42.64846" lon="1.49878">
        <ele>2569.8000488281</ele>
        <time>2023-07-22T08:20:25.000Z</time>
      </trkpt>
      <trkpt lat="42.64847" lon="1.49878">
        <ele>2568.8000488281</ele>
        <time>2023-07-22T08:20:31.000Z</time>
      </trkpt>
      <trkpt lat="42.64848" lon="1.49878">
        <ele>2568.3999023438</ele>
        <time>2023-07-22T08:20:32.000Z</time>
      </trkpt>
      <trkpt lat="42.64851" lon="1.49876">
        <ele>2567.6000976562</ele>
        <time>2023-07-22T08:20:38.000Z</time>
      </trkpt>
      <trkpt lat="42.64851" lon="1.49876">
        <ele>2567.3999023438</ele>
        <time>2023-07-22T08:20:39.000Z</time>
      </trkpt>
      <trkpt lat="42.64852" lon="1.49875">
        <ele>2566.6000976562</ele>
        <time>2023-07-22T08:20:44.000Z</time>
      </trkpt>
      <trkpt lat="42.64854" lon="1.49873">
        <ele>2566</ele>
        <time>2023-07-22T08:20:47.000Z</time>
      </trkpt>
      <trkpt lat="42.64854" lon="1.49871">
        <ele>2565.3999023438</ele>
        <time>2023-07-22T08:20:54.000Z</time>
      </trkpt>
      <trkpt lat="42.64857" lon="1.49869">
        <ele>2564.1999511719</ele>
        <time>2023-07-22T08:21:01.000Z</time>
      </trkpt>
      <trkpt lat="42.64857" lon="1.49868">
        <ele>2564.1999511719</ele>
        <time>2023-07-22T08:21:02.000Z</time>
      </trkpt>
      <trkpt lat="42.6486" lon="1.49868">
        <ele>2563</ele>
        <time>2023-07-22T08:21:09.000Z</time>
      </trkpt>
      <trkpt lat="42.64861" lon="1.49867">
        <ele>2562.6000976562</ele>
        <time>2023-07-22T08:21:11.000Z</time>
      </trkpt>
      <trkpt lat="42.64863" lon="1.49866">
        <ele>2562</ele>
        <time>2023-07-22T08:21:16.000Z</time>
      </trkpt>
      <trkpt lat="42.64864" lon="1.49865">
        <ele>2561.6000976562</ele>
        <time>2023-07-22T08:21:18.000Z</time>
      </trkpt>
      <trkpt lat="42.64865" lon="1.49864">
        <ele>2561</ele>
        <time>2023-07-22T08:21:22.000Z</time>
      </trkpt>
      <trkpt lat="42.64866" lon="1.49862">
        <ele>2560.8000488281</ele>
        <time>2023-07-22T08:21:25.000Z</time>
      </trkpt>
      <trkpt lat="42.64868" lon="1.49859">
        <ele>2560.3999023438</ele>
        <time>2023-07-22T08:21:33.000Z</time>
      </trkpt>
      <trkpt lat="42.64869" lon="1.49857">
        <ele>2560</ele>
        <time>2023-07-22T08:21:35.000Z</time>
      </trkpt>
      <trkpt lat="42.6487" lon="1.49854">
        <ele>2558.8000488281</ele>
        <time>2023-07-22T08:21:39.000Z</time>
      </trkpt>
      <trkpt lat="42.64871" lon="1.49854">
        <ele>2558.1999511719</ele>
        <time>2023-07-22T08:21:41.000Z</time>
      </trkpt>
      <trkpt lat="42.64873" lon="1.49853">
        <ele>2557.8000488281</ele>
        <time>2023-07-22T08:21:44.000Z</time>
      </trkpt>
      <trkpt lat="42.64875" lon="1.49853">
        <ele>2557.1999511719</ele>
        <time>2023-07-22T08:21:47.000Z</time>
      </trkpt>
      <trkpt lat="42.64875" lon="1.49853">
        <ele>2556.6000976562</ele>
        <time>2023-07-22T08:21:49.000Z</time>
      </trkpt>
      <trkpt lat="42.64876" lon="1.49853">
        <ele>2556</ele>
        <time>2023-07-22T08:21:52.000Z</time>
      </trkpt>
      <trkpt lat="42.64876" lon="1.49852">
        <ele>2555.6000976562</ele>
        <time>2023-07-22T08:21:55.000Z</time>
      </trkpt>
      <trkpt lat="42.64876" lon="1.49852">
        <ele>2555.1999511719</ele>
        <time>2023-07-22T08:21:59.000Z</time>
      </trkpt>
      <trkpt lat="42.64877" lon="1.49852">
        <ele>2554.3999023438</ele>
        <time>2023-07-22T08:22:03.000Z</time>
      </trkpt>
      <trkpt lat="42.64879" lon="1.49851">
        <ele>2553.6000976562</ele>
        <time>2023-07-22T08:22:06.000Z</time>
      </trkpt>
      <trkpt lat="42.6488" lon="1.49851">
        <ele>2553.3999023438</ele>
        <time>2023-07-22T08:22:07.000Z</time>
      </trkpt>
      <trkpt lat="42.64881" lon="1.49852">
        <ele>2552.8000488281</ele>
        <time>2023-07-22T08:22:11.000Z</time>
      </trkpt>
      <trkpt lat="42.64883" lon="1.49852">
        <ele>2552.3999023438</ele>
        <time>2023-07-22T08:22:13.000Z</time>
      </trkpt>
      <trkpt lat="42.64883" lon="1.49851">
        <ele>2551.1999511719</ele>
        <time>2023-07-22T08:22:18.000Z</time>
      </trkpt>
      <trkpt lat="42.64883" lon="1.49851">
        <ele>2551.1999511719</ele>
        <time>2023-07-22T08:22:21.000Z</time>
      </trkpt>
      <trkpt lat="42.64887" lon="1.49852">
        <ele>2550.8000488281</ele>
        <time>2023-07-22T08:22:28.000Z</time>
      </trkpt>
      <trkpt lat="42.6489" lon="1.49852">
        <ele>2550.1999511719</ele>
        <time>2023-07-22T08:22:32.000Z</time>
      </trkpt>
      <trkpt lat="42.64893" lon="1.49852">
        <ele>2549.6000976562</ele>
        <time>2023-07-22T08:22:36.000Z</time>
      </trkpt>
      <trkpt lat="42.64895" lon="1.4985">
        <ele>2549.1999511719</ele>
        <time>2023-07-22T08:22:41.000Z</time>
      </trkpt>
      <trkpt lat="42.64897" lon="1.49849">
        <ele>2548.8000488281</ele>
        <time>2023-07-22T08:22:43.000Z</time>
      </trkpt>
      <trkpt lat="42.64897" lon="1.49847">
        <ele>2548.1999511719</ele>
        <time>2023-07-22T08:22:50.000Z</time>
      </trkpt>
      <trkpt lat="42.64896" lon="1.49846">
        <ele>2548</ele>
        <time>2023-07-22T08:22:59.000Z</time>
      </trkpt>
      <trkpt lat="42.64896" lon="1.4985">
        <ele>2548</ele>
        <time>2023-07-22T08:23:09.000Z</time>
      </trkpt>
      <trkpt lat="42.64903" lon="1.49849">
        <ele>2547.3999023438</ele>
        <time>2023-07-22T08:23:18.000Z</time>
      </trkpt>
      <trkpt lat="42.64901" lon="1.4985">
        <ele>2547.6000976562</ele>
        <time>2023-07-22T08:23:27.000Z</time>
      </trkpt>
      <trkpt lat="42.649" lon="1.49849">
        <ele>2547.1999511719</ele>
        <time>2023-07-22T08:23:33.000Z</time>
      </trkpt>
      <trkpt lat="42.64902" lon="1.49849">
        <ele>2545.8000488281</ele>
        <time>2023-07-22T08:23:37.000Z</time>
      </trkpt>
      <trkpt lat="42.64902" lon="1.49849">
        <ele>2545.3999023438</ele>
        <time>2023-07-22T08:23:40.000Z</time>
      </trkpt>
      <trkpt lat="42.64907" lon="1.49847">
        <ele>2544.8000488281</ele>
        <time>2023-07-22T08:23:47.000Z</time>
      </trkpt>
      <trkpt lat="42.64913" lon="1.49846">
        <ele>2543.6000976562</ele>
        <time>2023-07-22T08:23:53.000Z</time>
      </trkpt>
      <trkpt lat="42.64913" lon="1.49847">
        <ele>2543.3999023438</ele>
        <time>2023-07-22T08:23:55.000Z</time>
      </trkpt>
      <trkpt lat="42.64916" lon="1.49849">
        <ele>2542.3999023438</ele>
        <time>2023-07-22T08:23:58.000Z</time>
      </trkpt>
      <trkpt lat="42.6492" lon="1.4985">
        <ele>2541.3999023438</ele>
        <time>2023-07-22T08:24:02.000Z</time>
      </trkpt>
      <trkpt lat="42.6492" lon="1.49851">
        <ele>2541</ele>
        <time>2023-07-22T08:24:04.000Z</time>
      </trkpt>
      <trkpt lat="42.6492" lon="1.49851">
        <ele>2540.3999023438</ele>
        <time>2023-07-22T08:24:06.000Z</time>
      </trkpt>
      <trkpt lat="42.6492" lon="1.49851">
        <ele>2540</ele>
        <time>2023-07-22T08:24:08.000Z</time>
      </trkpt>
      <trkpt lat="42.6492" lon="1.49852">
        <ele>2539.6000976562</ele>
        <time>2023-07-22T08:24:10.000Z</time>
      </trkpt>
      <trkpt lat="42.6492" lon="1.49853">
        <ele>2539.3999023438</ele>
        <time>2023-07-22T08:24:11.000Z</time>
      </trkpt>
      <trkpt lat="42.64921" lon="1.49853">
        <ele>2538.6000976562</ele>
        <time>2023-07-22T08:24:14.000Z</time>
      </trkpt>
      <trkpt lat="42.64922" lon="1.49852">
        <ele>2538.1999511719</ele>
        <time>2023-07-22T08:24:16.000Z</time>
      </trkpt>
      <trkpt lat="42.64922" lon="1.49853">
        <ele>2538.1999511719</ele>
        <time>2023-07-22T08:24:17.000Z</time>
      </trkpt>
      <trkpt lat="42.64923" lon="1.4985">
        <ele>2538</ele>
        <time>2023-07-22T08:24:26.000Z</time>
      </trkpt>
      <trkpt lat="42.64924" lon="1.49848">
        <ele>2538</ele>
        <time>2023-07-22T08:24:36.000Z</time>
      </trkpt>
      <trkpt lat="42.64923" lon="1.49853">
        <ele>2537.6000976562</ele>
        <time>2023-07-22T08:24:43.000Z</time>
      </trkpt>
      <trkpt lat="42.64924" lon="1.49856">
        <ele>2537</ele>
        <time>2023-07-22T08:24:48.000Z</time>
      </trkpt>
      <trkpt lat="42.64924" lon="1.49857">
        <ele>2536.8000488281</ele>
        <time>2023-07-22T08:24:50.000Z</time>
      </trkpt>
      <trkpt lat="42.64923" lon="1.4986">
        <ele>2536</ele>
        <time>2023-07-22T08:24:54.000Z</time>
      </trkpt>
      <trkpt lat="42.64923" lon="1.49862">
        <ele>2535.1999511719</ele>
        <time>2023-07-22T08:24:59.000Z</time>
      </trkpt>
      <trkpt lat="42.64922" lon="1.49863">
        <ele>2534.8000488281</ele>
        <time>2023-07-22T08:25:01.000Z</time>
      </trkpt>
      <trkpt lat="42.64921" lon="1.49866">
        <ele>2534.1999511719</ele>
        <time>2023-07-22T08:25:06.000Z</time>
      </trkpt>
      <trkpt lat="42.6492" lon="1.49871">
        <ele>2533.6000976562</ele>
        <time>2023-07-22T08:25:13.000Z</time>
      </trkpt>
      <trkpt lat="42.64921" lon="1.49874">
        <ele>2532.3999023438</ele>
        <time>2023-07-22T08:25:19.000Z</time>
      </trkpt>
      <trkpt lat="42.64921" lon="1.49874">
        <ele>2532.1999511719</ele>
        <time>2023-07-22T08:25:20.000Z</time>
      </trkpt>
      <trkpt lat="42.64921" lon="1.49876">
        <ele>2531.3999023438</ele>
        <time>2023-07-22T08:25:23.000Z</time>
      </trkpt>
      <trkpt lat="42.64922" lon="1.49881">
        <ele>2530.6000976562</ele>
        <time>2023-07-22T08:25:29.000Z</time>
      </trkpt>
      <trkpt lat="42.64923" lon="1.49881">
        <ele>2530.3999023438</ele>
        <time>2023-07-22T08:25:30.000Z</time>
      </trkpt>
      <trkpt lat="42.64924" lon="1.49883">
        <ele>2529.6000976562</ele>
        <time>2023-07-22T08:25:36.000Z</time>
      </trkpt>
      <trkpt lat="42.64924" lon="1.49883">
        <ele>2529.3999023438</ele>
        <time>2023-07-22T08:25:37.000Z</time>
      </trkpt>
      <trkpt lat="42.64925" lon="1.49887">
        <ele>2529</ele>
        <time>2023-07-22T08:25:44.000Z</time>
      </trkpt>
      <trkpt lat="42.64927" lon="1.49887">
        <ele>2528.8000488281</ele>
        <time>2023-07-22T08:25:51.000Z</time>
      </trkpt>
      <trkpt lat="42.64925" lon="1.49888">
        <ele>2528.6000976562</ele>
        <time>2023-07-22T08:25:59.000Z</time>
      </trkpt>
      <trkpt lat="42.64922" lon="1.49895">
        <ele>2528.8000488281</ele>
        <time>2023-07-22T08:26:07.000Z</time>
      </trkpt>
      <trkpt lat="42.64924" lon="1.49898">
        <ele>2528.1999511719</ele>
        <time>2023-07-22T08:26:13.000Z</time>
      </trkpt>
      <trkpt lat="42.64924" lon="1.49899">
        <ele>2527.8000488281</ele>
        <time>2023-07-22T08:26:15.000Z</time>
      </trkpt>
      <trkpt lat="42.64925" lon="1.499">
        <ele>2527.1999511719</ele>
        <time>2023-07-22T08:26:20.000Z</time>
      </trkpt>
      <trkpt lat="42.64927" lon="1.49903">
        <ele>2526.6000976562</ele>
        <time>2023-07-22T08:26:27.000Z</time>
      </trkpt>
      <trkpt lat="42.64928" lon="1.49902">
        <ele>2526.6000976562</ele>
        <time>2023-07-22T08:26:35.000Z</time>
      </trkpt>
      <trkpt lat="42.64928" lon="1.49901">
        <ele>2527</ele>
        <time>2023-07-22T08:26:46.000Z</time>
      </trkpt>
      <trkpt lat="42.6493" lon="1.49903">
        <ele>2526.8000488281</ele>
        <time>2023-07-22T08:26:53.000Z</time>
      </trkpt>
      <trkpt lat="42.64932" lon="1.4991">
        <ele>2526.1999511719</ele>
        <time>2023-07-22T08:27:00.000Z</time>
      </trkpt>
      <trkpt lat="42.64932" lon="1.4991">
        <ele>2526</ele>
        <time>2023-07-22T08:27:01.000Z</time>
      </trkpt>
      <trkpt lat="42.64933" lon="1.49914">
        <ele>2525.3999023438</ele>
        <time>2023-07-22T08:27:05.000Z</time>
      </trkpt>
      <trkpt lat="42.64934" lon="1.49922">
        <ele>2525.3999023438</ele>
        <time>2023-07-22T08:27:15.000Z</time>
      </trkpt>
      <trkpt lat="42.64932" lon="1.49925">
        <ele>2525.3999023438</ele>
        <time>2023-07-22T08:27:20.000Z</time>
      </trkpt>
      <trkpt lat="42.64932" lon="1.49926">
        <ele>2524.8000488281</ele>
        <time>2023-07-22T08:27:23.000Z</time>
      </trkpt>
      <trkpt lat="42.64933" lon="1.49928">
        <ele>2524.6000976562</ele>
        <time>2023-07-22T08:27:25.000Z</time>
      </trkpt>
      <trkpt lat="42.64934" lon="1.49932">
        <ele>2524.8000488281</ele>
        <time>2023-07-22T08:27:31.000Z</time>
      </trkpt>
      <trkpt lat="42.64935" lon="1.49931">
        <ele>2524.8000488281</ele>
        <time>2023-07-22T08:27:36.000Z</time>
      </trkpt>
      <trkpt lat="42.64938" lon="1.49933">
        <ele>2524.1999511719</ele>
        <time>2023-07-22T08:27:43.000Z</time>
      </trkpt>
      <trkpt lat="42.64943" lon="1.49936">
        <ele>2524.6000976562</ele>
        <time>2023-07-22T08:27:49.000Z</time>
      </trkpt>
      <trkpt lat="42.64944" lon="1.4994">
        <ele>2524.6000976562</ele>
        <time>2023-07-22T08:27:56.000Z</time>
      </trkpt>
      <trkpt lat="42.64943" lon="1.49938">
        <ele>2525.6000976562</ele>
        <time>2023-07-22T08:28:03.000Z</time>
      </trkpt>
      <trkpt lat="42.64943" lon="1.4994">
        <ele>2525.8000488281</ele>
        <time>2023-07-22T08:28:10.000Z</time>
      </trkpt>
      <trkpt lat="42.64944" lon="1.4994">
        <ele>2526</ele>
        <time>2023-07-22T08:28:11.000Z</time>
      </trkpt>
      <trkpt lat="42.64947" lon="1.49945">
        <ele>2526</ele>
        <time>2023-07-22T08:28:17.000Z</time>
      </trkpt>
      <trkpt lat="42.64946" lon="1.49948">
        <ele>2525.6000976562</ele>
        <time>2023-07-22T08:28:23.000Z</time>
      </trkpt>
      <trkpt lat="42.64946" lon="1.49948">
        <ele>2525.6000976562</ele>
        <time>2023-07-22T08:28:24.000Z</time>
      </trkpt>
      <trkpt lat="42.64946" lon="1.49949">
        <ele>2525.3999023438</ele>
        <time>2023-07-22T08:28:31.000Z</time>
      </trkpt>
      <trkpt lat="42.64946" lon="1.49952">
        <ele>2525.3999023438</ele>
        <time>2023-07-22T08:28:36.000Z</time>
      </trkpt>
      <trkpt lat="42.64947" lon="1.49952">
        <ele>2525</ele>
        <time>2023-07-22T08:28:38.000Z</time>
      </trkpt>
      <trkpt lat="42.64948" lon="1.49951">
        <ele>2525</ele>
        <time>2023-07-22T08:28:42.000Z</time>
      </trkpt>
      <trkpt lat="42.64951" lon="1.49952">
        <ele>2524.3999023438</ele>
        <time>2023-07-22T08:28:48.000Z</time>
      </trkpt>
      <trkpt lat="42.64953" lon="1.49952">
        <ele>2524</ele>
        <time>2023-07-22T08:28:50.000Z</time>
      </trkpt>
      <trkpt lat="42.64955" lon="1.49953">
        <ele>2523.8000488281</ele>
        <time>2023-07-22T08:28:54.000Z</time>
      </trkpt>
      <trkpt lat="42.64957" lon="1.49956">
        <ele>2523.6000976562</ele>
        <time>2023-07-22T08:29:01.000Z</time>
      </trkpt>
      <trkpt lat="42.64957" lon="1.49957">
        <ele>2522.8000488281</ele>
        <time>2023-07-22T08:29:06.000Z</time>
      </trkpt>
      <trkpt lat="42.64957" lon="1.49957">
        <ele>2522.8000488281</ele>
        <time>2023-07-22T08:29:07.000Z</time>
      </trkpt>
      <trkpt lat="42.64959" lon="1.49958">
        <ele>2522.1999511719</ele>
        <time>2023-07-22T08:29:14.000Z</time>
      </trkpt>
      <trkpt lat="42.64961" lon="1.4996">
        <ele>2522.3999023438</ele>
        <time>2023-07-22T08:29:19.000Z</time>
      </trkpt>
      <trkpt lat="42.64961" lon="1.49961">
        <ele>2521.8000488281</ele>
        <time>2023-07-22T08:29:25.000Z</time>
      </trkpt>
      <trkpt lat="42.6496" lon="1.49965">
        <ele>2521</ele>
        <time>2023-07-22T08:29:34.000Z</time>
      </trkpt>
      <trkpt lat="42.64959" lon="1.49972">
        <ele>2520.8000488281</ele>
        <time>2023-07-22T08:29:41.000Z</time>
      </trkpt>
      <trkpt lat="42.64959" lon="1.49977">
        <ele>2520.1999511719</ele>
        <time>2023-07-22T08:29:47.000Z</time>
      </trkpt>
      <trkpt lat="42.6496" lon="1.49978">
        <ele>2520.3999023438</ele>
        <time>2023-07-22T08:29:51.000Z</time>
      </trkpt>
      <trkpt lat="42.64964" lon="1.49974">
        <ele>2519.8000488281</ele>
        <time>2023-07-22T08:29:57.000Z</time>
      </trkpt>
      <trkpt lat="42.64964" lon="1.49974">
        <ele>2519.8000488281</ele>
        <time>2023-07-22T08:29:58.000Z</time>
      </trkpt>
      <trkpt lat="42.64964" lon="1.49973">
        <ele>2518.8000488281</ele>
        <time>2023-07-22T08:30:04.000Z</time>
      </trkpt>
      <trkpt lat="42.64964" lon="1.49973">
        <ele>2518.6000976562</ele>
        <time>2023-07-22T08:30:05.000Z</time>
      </trkpt>
      <trkpt lat="42.64967" lon="1.49975">
        <ele>2517.6000976562</ele>
        <time>2023-07-22T08:30:12.000Z</time>
      </trkpt>
      <trkpt lat="42.64968" lon="1.49976">
        <ele>2517.3999023438</ele>
        <time>2023-07-22T08:30:14.000Z</time>
      </trkpt>
      <trkpt lat="42.6497" lon="1.49978">
        <ele>2516.3999023438</ele>
        <time>2023-07-22T08:30:19.000Z</time>
      </trkpt>
      <trkpt lat="42.64971" lon="1.49979">
        <ele>2516.3999023438</ele>
        <time>2023-07-22T08:30:21.000Z</time>
      </trkpt>
      <trkpt lat="42.64973" lon="1.4998">
        <ele>2515.6000976562</ele>
        <time>2023-07-22T08:30:26.000Z</time>
      </trkpt>
      <trkpt lat="42.64973" lon="1.4998">
        <ele>2515.1999511719</ele>
        <time>2023-07-22T08:30:27.000Z</time>
      </trkpt>
      <trkpt lat="42.64974" lon="1.49979">
        <ele>2514.8000488281</ele>
        <time>2023-07-22T08:30:28.000Z</time>
      </trkpt>
      <trkpt lat="42.64976" lon="1.49975">
        <ele>2514</ele>
        <time>2023-07-22T08:30:33.000Z</time>
      </trkpt>
      <trkpt lat="42.64977" lon="1.49978">
        <ele>2513.1999511719</ele>
        <time>2023-07-22T08:30:36.000Z</time>
      </trkpt>
      <trkpt lat="42.64977" lon="1.49981">
        <ele>2513.1999511719</ele>
        <time>2023-07-22T08:30:38.000Z</time>
      </trkpt>
      <trkpt lat="42.64979" lon="1.49982">
        <ele>2512.8000488281</ele>
        <time>2023-07-22T08:30:42.000Z</time>
      </trkpt>
      <trkpt lat="42.64979" lon="1.49981">
        <ele>2512.6000976562</ele>
        <time>2023-07-22T08:30:43.000Z</time>
      </trkpt>
      <trkpt lat="42.64981" lon="1.4998">
        <ele>2512.1999511719</ele>
        <time>2023-07-22T08:30:45.000Z</time>
      </trkpt>
      <trkpt lat="42.64984" lon="1.4998">
        <ele>2511.8000488281</ele>
        <time>2023-07-22T08:30:48.000Z</time>
      </trkpt>
      <trkpt lat="42.64988" lon="1.4998">
        <ele>2511</ele>
        <time>2023-07-22T08:30:51.000Z</time>
      </trkpt>
      <trkpt lat="42.64988" lon="1.4998">
        <ele>2510.8000488281</ele>
        <time>2023-07-22T08:30:53.000Z</time>
      </trkpt>
      <trkpt lat="42.64988" lon="1.49983">
        <ele>2509.6000976562</ele>
        <time>2023-07-22T08:30:59.000Z</time>
      </trkpt>
      <trkpt lat="42.6499" lon="1.49985">
        <ele>2508.3999023438</ele>
        <time>2023-07-22T08:31:05.000Z</time>
      </trkpt>
      <trkpt lat="42.64992" lon="1.49986">
        <ele>2507.6000976562</ele>
        <time>2023-07-22T08:31:08.000Z</time>
      </trkpt>
      <trkpt lat="42.64993" lon="1.49987">
        <ele>2507.1999511719</ele>
        <time>2023-07-22T08:31:09.000Z</time>
      </trkpt>
      <trkpt lat="42.64996" lon="1.49991">
        <ele>2506.1999511719</ele>
        <time>2023-07-22T08:31:14.000Z</time>
      </trkpt>
      <trkpt lat="42.64997" lon="1.49993">
        <ele>2505.8000488281</ele>
        <time>2023-07-22T08:31:16.000Z</time>
      </trkpt>
      <trkpt lat="42.65" lon="1.49995">
        <ele>2505</ele>
        <time>2023-07-22T08:31:21.000Z</time>
      </trkpt>
      <trkpt lat="42.65001" lon="1.49996">
        <ele>2504.8000488281</ele>
        <time>2023-07-22T08:31:22.000Z</time>
      </trkpt>
      <trkpt lat="42.65002" lon="1.49996">
        <ele>2504</ele>
        <time>2023-07-22T08:31:26.000Z</time>
      </trkpt>
      <trkpt lat="42.65004" lon="1.49997">
        <ele>2503.3999023438</ele>
        <time>2023-07-22T08:31:29.000Z</time>
      </trkpt>
      <trkpt lat="42.65005" lon="1.49997">
        <ele>2502.8000488281</ele>
        <time>2023-07-22T08:31:31.000Z</time>
      </trkpt>
      <trkpt lat="42.65009" lon="1.49997">
        <ele>2501.6000976562</ele>
        <time>2023-07-22T08:31:36.000Z</time>
      </trkpt>
      <trkpt lat="42.65012" lon="1.5">
        <ele>2500.6000976562</ele>
        <time>2023-07-22T08:31:40.000Z</time>
      </trkpt>
      <trkpt lat="42.65013" lon="1.50001">
        <ele>2500</ele>
        <time>2023-07-22T08:31:42.000Z</time>
      </trkpt>
      <trkpt lat="42.65014" lon="1.50002">
        <ele>2499.3999023438</ele>
        <time>2023-07-22T08:31:45.000Z</time>
      </trkpt>
      <trkpt lat="42.65015" lon="1.50003">
        <ele>2499</ele>
        <time>2023-07-22T08:31:49.000Z</time>
      </trkpt>
      <trkpt lat="42.65016" lon="1.50005">
        <ele>2498.3999023438</ele>
        <time>2023-07-22T08:31:52.000Z</time>
      </trkpt>
      <trkpt lat="42.65017" lon="1.50006">
        <ele>2497.8000488281</ele>
        <time>2023-07-22T08:31:55.000Z</time>
      </trkpt>
      <trkpt lat="42.65018" lon="1.50005">
        <ele>2497.1999511719</ele>
        <time>2023-07-22T08:31:57.000Z</time>
      </trkpt>
      <trkpt lat="42.65022" lon="1.50005">
        <ele>2496.3999023438</ele>
        <time>2023-07-22T08:32:03.000Z</time>
      </trkpt>
      <trkpt lat="42.65023" lon="1.50004">
        <ele>2496</ele>
        <time>2023-07-22T08:32:04.000Z</time>
      </trkpt>
      <trkpt lat="42.65024" lon="1.50002">
        <ele>2495</ele>
        <time>2023-07-22T08:32:09.000Z</time>
      </trkpt>
      <trkpt lat="42.65025" lon="1.49998">
        <ele>2494</ele>
        <time>2023-07-22T08:32:13.000Z</time>
      </trkpt>
      <trkpt lat="42.65025" lon="1.49997">
        <ele>2493.3999023438</ele>
        <time>2023-07-22T08:32:17.000Z</time>
      </trkpt>
      <trkpt lat="42.65026" lon="1.49997">
        <ele>2493.1999511719</ele>
        <time>2023-07-22T08:32:19.000Z</time>
      </trkpt>
      <trkpt lat="42.65027" lon="1.49998">
        <ele>2492.8000488281</ele>
        <time>2023-07-22T08:32:21.000Z</time>
      </trkpt>
      <trkpt lat="42.6503" lon="1.49996">
        <ele>2492.1999511719</ele>
        <time>2023-07-22T08:32:24.000Z</time>
      </trkpt>
      <trkpt lat="42.65033" lon="1.49995">
        <ele>2491.6000976562</ele>
        <time>2023-07-22T08:32:26.000Z</time>
      </trkpt>
      <trkpt lat="42.65036" lon="1.49994">
        <ele>2491</ele>
        <time>2023-07-22T08:32:31.000Z</time>
      </trkpt>
      <trkpt lat="42.65038" lon="1.49993">
        <ele>2490.6000976562</ele>
        <time>2023-07-22T08:32:33.000Z</time>
      </trkpt>
      <trkpt lat="42.6504" lon="1.49991">
        <ele>2489.3999023438</ele>
        <time>2023-07-22T08:32:41.000Z</time>
      </trkpt>
      <trkpt lat="42.65041" lon="1.49992">
        <ele>2488.3999023438</ele>
        <time>2023-07-22T08:32:45.000Z</time>
      </trkpt>
      <trkpt lat="42.65042" lon="1.49994">
        <ele>2487.3999023438</ele>
        <time>2023-07-22T08:32:51.000Z</time>
      </trkpt>
      <trkpt lat="42.65045" lon="1.49989">
        <ele>2486.6000976562</ele>
        <time>2023-07-22T08:32:58.000Z</time>
      </trkpt>
      <trkpt lat="42.65046" lon="1.49986">
        <ele>2486.1999511719</ele>
        <time>2023-07-22T08:33:01.000Z</time>
      </trkpt>
      <trkpt lat="42.65048" lon="1.49981">
        <ele>2485.8000488281</ele>
        <time>2023-07-22T08:33:06.000Z</time>
      </trkpt>
      <trkpt lat="42.65054" lon="1.49982">
        <ele>2485.6000976562</ele>
        <time>2023-07-22T08:33:14.000Z</time>
      </trkpt>
      <trkpt lat="42.65055" lon="1.49984">
        <ele>2485.1999511719</ele>
        <time>2023-07-22T08:33:16.000Z</time>
      </trkpt>
      <trkpt lat="42.65056" lon="1.49982">
        <ele>2484.1999511719</ele>
        <time>2023-07-22T08:33:21.000Z</time>
      </trkpt>
      <trkpt lat="42.65057" lon="1.49981">
        <ele>2483.8000488281</ele>
        <time>2023-07-22T08:33:22.000Z</time>
      </trkpt>
      <trkpt lat="42.65058" lon="1.49978">
        <ele>2483.3999023438</ele>
        <time>2023-07-22T08:33:28.000Z</time>
      </trkpt>
      <trkpt lat="42.65057" lon="1.49978">
        <ele>2482.8000488281</ele>
        <time>2023-07-22T08:33:31.000Z</time>
      </trkpt>
      <trkpt lat="42.65057" lon="1.49978">
        <ele>2481.8000488281</ele>
        <time>2023-07-22T08:33:35.000Z</time>
      </trkpt>
      <trkpt lat="42.65061" lon="1.49975">
        <ele>2481.3999023438</ele>
        <time>2023-07-22T08:33:43.000Z</time>
      </trkpt>
      <trkpt lat="42.65059" lon="1.49974">
        <ele>2481</ele>
        <time>2023-07-22T08:33:49.000Z</time>
      </trkpt>
      <trkpt lat="42.65056" lon="1.49976">
        <ele>2481</ele>
        <time>2023-07-22T08:33:58.000Z</time>
      </trkpt>
      <trkpt lat="42.65059" lon="1.49974">
        <ele>2481</ele>
        <time>2023-07-22T08:34:06.000Z</time>
      </trkpt>
      <trkpt lat="42.6506" lon="1.49975">
        <ele>2480.8000488281</ele>
        <time>2023-07-22T08:34:07.000Z</time>
      </trkpt>
      <trkpt lat="42.65062" lon="1.49975">
        <ele>2479.6000976562</ele>
        <time>2023-07-22T08:34:12.000Z</time>
      </trkpt>
      <trkpt lat="42.65063" lon="1.49975">
        <ele>2479.1999511719</ele>
        <time>2023-07-22T08:34:14.000Z</time>
      </trkpt>
      <trkpt lat="42.65065" lon="1.49974">
        <ele>2478.6000976562</ele>
        <time>2023-07-22T08:34:19.000Z</time>
      </trkpt>
      <trkpt lat="42.65065" lon="1.49973">
        <ele>2478.3999023438</ele>
        <time>2023-07-22T08:34:21.000Z</time>
      </trkpt>
      <trkpt lat="42.65068" lon="1.49972">
        <ele>2477.3999023438</ele>
        <time>2023-07-22T08:34:27.000Z</time>
      </trkpt>
      <trkpt lat="42.65069" lon="1.4997">
        <ele>2477</ele>
        <time>2023-07-22T08:34:29.000Z</time>
      </trkpt>
      <trkpt lat="42.65069" lon="1.49972">
        <ele>2476</ele>
        <time>2023-07-22T08:34:36.000Z</time>
      </trkpt>
      <trkpt lat="42.65069" lon="1.49973">
        <ele>2475.6000976562</ele>
        <time>2023-07-22T08:34:39.000Z</time>
      </trkpt>
      <trkpt lat="42.65069" lon="1.49973">
        <ele>2475.3999023438</ele>
        <time>2023-07-22T08:34:40.000Z</time>
      </trkpt>
      <trkpt lat="42.65073" lon="1.49974">
        <ele>2474.1999511719</ele>
        <time>2023-07-22T08:34:48.000Z</time>
      </trkpt>
      <trkpt lat="42.65073" lon="1.49973">
        <ele>2473.8000488281</ele>
        <time>2023-07-22T08:34:49.000Z</time>
      </trkpt>
      <trkpt lat="42.65075" lon="1.4997">
        <ele>2473</ele>
        <time>2023-07-22T08:34:52.000Z</time>
      </trkpt>
      <trkpt lat="42.65076" lon="1.49968">
        <ele>2472.3999023438</ele>
        <time>2023-07-22T08:34:55.000Z</time>
      </trkpt>
      <trkpt lat="42.65077" lon="1.49967">
        <ele>2471.8000488281</ele>
        <time>2023-07-22T08:34:58.000Z</time>
      </trkpt>
      <trkpt lat="42.65077" lon="1.49972">
        <ele>2470.8000488281</ele>
        <time>2023-07-22T08:35:03.000Z</time>
      </trkpt>
      <trkpt lat="42.65078" lon="1.49973">
        <ele>2470.6000976562</ele>
        <time>2023-07-22T08:35:04.000Z</time>
      </trkpt>
      <trkpt lat="42.65079" lon="1.49976">
        <ele>2469.8000488281</ele>
        <time>2023-07-22T08:35:09.000Z</time>
      </trkpt>
      <trkpt lat="42.6508" lon="1.49978">
        <ele>2469.3999023438</ele>
        <time>2023-07-22T08:35:12.000Z</time>
      </trkpt>
      <trkpt lat="42.65083" lon="1.49984">
        <ele>2468.6000976562</ele>
        <time>2023-07-22T08:35:20.000Z</time>
      </trkpt>
      <trkpt lat="42.65084" lon="1.49984">
        <ele>2468.3999023438</ele>
        <time>2023-07-22T08:35:21.000Z</time>
      </trkpt>
      <trkpt lat="42.65085" lon="1.49985">
        <ele>2467.3999023438</ele>
        <time>2023-07-22T08:35:29.000Z</time>
      </trkpt>
      <trkpt lat="42.65086" lon="1.4999">
        <ele>2466.6000976562</ele>
        <time>2023-07-22T08:35:36.000Z</time>
      </trkpt>
      <trkpt lat="42.65086" lon="1.49992">
        <ele>2466.3999023438</ele>
        <time>2023-07-22T08:35:39.000Z</time>
      </trkpt>
      <trkpt lat="42.65087" lon="1.49994">
        <ele>2465.1999511719</ele>
        <time>2023-07-22T08:35:44.000Z</time>
      </trkpt>
      <trkpt lat="42.6509" lon="1.4999">
        <ele>2464.1999511719</ele>
        <time>2023-07-22T08:35:53.000Z</time>
      </trkpt>
      <trkpt lat="42.65093" lon="1.49986">
        <ele>2463.1999511719</ele>
        <time>2023-07-22T08:36:01.000Z</time>
      </trkpt>
      <trkpt lat="42.65093" lon="1.49987">
        <ele>2463</ele>
        <time>2023-07-22T08:36:02.000Z</time>
      </trkpt>
      <trkpt lat="42.65092" lon="1.49993">
        <ele>2463</ele>
        <time>2023-07-22T08:36:09.000Z</time>
      </trkpt>
      <trkpt lat="42.65091" lon="1.4999">
        <ele>2462.6000976562</ele>
        <time>2023-07-22T08:36:16.000Z</time>
      </trkpt>
      <trkpt lat="42.65094" lon="1.49988">
        <ele>2462.8000488281</ele>
        <time>2023-07-22T08:36:26.000Z</time>
      </trkpt>
      <trkpt lat="42.65094" lon="1.49987">
        <ele>2462.8000488281</ele>
        <time>2023-07-22T08:36:34.000Z</time>
      </trkpt>
      <trkpt lat="42.65098" lon="1.4999">
        <ele>2462.8000488281</ele>
        <time>2023-07-22T08:36:41.000Z</time>
      </trkpt>
      <trkpt lat="42.65098" lon="1.49991">
        <ele>2460.8000488281</ele>
        <time>2023-07-22T08:36:50.000Z</time>
      </trkpt>
      <trkpt lat="42.65099" lon="1.49991">
        <ele>2460.6000976562</ele>
        <time>2023-07-22T08:36:52.000Z</time>
      </trkpt>
      <trkpt lat="42.65101" lon="1.49991">
        <ele>2459.6000976562</ele>
        <time>2023-07-22T08:36:56.000Z</time>
      </trkpt>
      <trkpt lat="42.65103" lon="1.49991">
        <ele>2459.3999023438</ele>
        <time>2023-07-22T08:36:59.000Z</time>
      </trkpt>
      <trkpt lat="42.65106" lon="1.4999">
        <ele>2458.6000976562</ele>
        <time>2023-07-22T08:37:03.000Z</time>
      </trkpt>
      <trkpt lat="42.65107" lon="1.49992">
        <ele>2458.1999511719</ele>
        <time>2023-07-22T08:37:06.000Z</time>
      </trkpt>
      <trkpt lat="42.65109" lon="1.49994">
        <ele>2457.6000976562</ele>
        <time>2023-07-22T08:37:09.000Z</time>
      </trkpt>
      <trkpt lat="42.65111" lon="1.49998">
        <ele>2456.8000488281</ele>
        <time>2023-07-22T08:37:14.000Z</time>
      </trkpt>
      <trkpt lat="42.65112" lon="1.5">
        <ele>2456.3999023438</ele>
        <time>2023-07-22T08:37:15.000Z</time>
      </trkpt>
      <trkpt lat="42.65116" lon="1.50006">
        <ele>2455.8000488281</ele>
        <time>2023-07-22T08:37:21.000Z</time>
      </trkpt>
      <trkpt lat="42.65123" lon="1.50012">
        <ele>2455.3999023438</ele>
        <time>2023-07-22T08:37:28.000Z</time>
      </trkpt>
      <trkpt lat="42.65132" lon="1.50013">
        <ele>2455.6000976562</ele>
        <time>2023-07-22T08:37:35.000Z</time>
      </trkpt>
      <trkpt lat="42.65137" lon="1.50015">
        <ele>2455.3999023438</ele>
        <time>2023-07-22T08:37:43.000Z</time>
      </trkpt>
      <trkpt lat="42.65142" lon="1.50022">
        <ele>2456</ele>
        <time>2023-07-22T08:37:52.000Z</time>
      </trkpt>
      <trkpt lat="42.65147" lon="1.50024">
        <ele>2455.1999511719</ele>
        <time>2023-07-22T08:37:59.000Z</time>
      </trkpt>
      <trkpt lat="42.65151" lon="1.50024">
        <ele>2455.8000488281</ele>
        <time>2023-07-22T08:38:05.000Z</time>
      </trkpt>
      <trkpt lat="42.65154" lon="1.50022">
        <ele>2456.6000976562</ele>
        <time>2023-07-22T08:38:09.000Z</time>
      </trkpt>
      <trkpt lat="42.65155" lon="1.50022">
        <ele>2456.8000488281</ele>
        <time>2023-07-22T08:38:11.000Z</time>
      </trkpt>
      <trkpt lat="42.65158" lon="1.50024">
        <ele>2457.6000976562</ele>
        <time>2023-07-22T08:38:17.000Z</time>
      </trkpt>
      <trkpt lat="42.6516" lon="1.50025">
        <ele>2457.8000488281</ele>
        <time>2023-07-22T08:38:20.000Z</time>
      </trkpt>
      <trkpt lat="42.65167" lon="1.50022">
        <ele>2456.8000488281</ele>
        <time>2023-07-22T08:38:28.000Z</time>
      </trkpt>
      <trkpt lat="42.65169" lon="1.50021">
        <ele>2456.6000976562</ele>
        <time>2023-07-22T08:38:29.000Z</time>
      </trkpt>
      <trkpt lat="42.65172" lon="1.50018">
        <ele>2455.6000976562</ele>
        <time>2023-07-22T08:38:33.000Z</time>
      </trkpt>
      <trkpt lat="42.65173" lon="1.50018">
        <ele>2455.1999511719</ele>
        <time>2023-07-22T08:38:34.000Z</time>
      </trkpt>
      <trkpt lat="42.65175" lon="1.50018">
        <ele>2454.3999023438</ele>
        <time>2023-07-22T08:38:37.000Z</time>
      </trkpt>
      <trkpt lat="42.65179" lon="1.50018">
        <ele>2454.1999511719</ele>
        <time>2023-07-22T08:38:41.000Z</time>
      </trkpt>
      <trkpt lat="42.65185" lon="1.50017">
        <ele>2454.6000976562</ele>
        <time>2023-07-22T08:38:48.000Z</time>
      </trkpt>
      <trkpt lat="42.65194" lon="1.50018">
        <ele>2454.3999023438</ele>
        <time>2023-07-22T08:38:55.000Z</time>
      </trkpt>
      <trkpt lat="42.65197" lon="1.5002">
        <ele>2454.8000488281</ele>
        <time>2023-07-22T08:38:57.000Z</time>
      </trkpt>
      <trkpt lat="42.65199" lon="1.50022">
        <ele>2455.6000976562</ele>
        <time>2023-07-22T08:39:01.000Z</time>
      </trkpt>
      <trkpt lat="42.65201" lon="1.50025">
        <ele>2455.8000488281</ele>
        <time>2023-07-22T08:39:04.000Z</time>
      </trkpt>
      <trkpt lat="42.65206" lon="1.50032">
        <ele>2456.6000976562</ele>
        <time>2023-07-22T08:39:12.000Z</time>
      </trkpt>
      <trkpt lat="42.65208" lon="1.50033">
        <ele>2457.6000976562</ele>
        <time>2023-07-22T08:39:17.000Z</time>
      </trkpt>
      <trkpt lat="42.65211" lon="1.50033">
        <ele>2458.3999023438</ele>
        <time>2023-07-22T08:39:20.000Z</time>
      </trkpt>
      <trkpt lat="42.65212" lon="1.50033">
        <ele>2458.8000488281</ele>
        <time>2023-07-22T08:39:21.000Z</time>
      </trkpt>
      <trkpt lat="42.65217" lon="1.50036">
        <ele>2460</ele>
        <time>2023-07-22T08:39:26.000Z</time>
      </trkpt>
      <trkpt lat="42.6522" lon="1.5004">
        <ele>2460.3999023438</ele>
        <time>2023-07-22T08:39:30.000Z</time>
      </trkpt>
      <trkpt lat="42.65225" lon="1.50044">
        <ele>2459.3999023438</ele>
        <time>2023-07-22T08:39:37.000Z</time>
      </trkpt>
      <trkpt lat="42.65235" lon="1.50047">
        <ele>2459</ele>
        <time>2023-07-22T08:39:45.000Z</time>
      </trkpt>
      <trkpt lat="42.65236" lon="1.50048">
        <ele>2458.8000488281</ele>
        <time>2023-07-22T08:39:46.000Z</time>
      </trkpt>
      <trkpt lat="42.65243" lon="1.50051">
        <ele>2457.8000488281</ele>
        <time>2023-07-22T08:39:52.000Z</time>
      </trkpt>
      <trkpt lat="42.65245" lon="1.50051">
        <ele>2457.8000488281</ele>
        <time>2023-07-22T08:39:55.000Z</time>
      </trkpt>
      <trkpt lat="42.65253" lon="1.50054">
        <ele>2457.1999511719</ele>
        <time>2023-07-22T08:40:03.000Z</time>
      </trkpt>
      <trkpt lat="42.65254" lon="1.50055">
        <ele>2456.8000488281</ele>
        <time>2023-07-22T08:40:06.000Z</time>
      </trkpt>
      <trkpt lat="42.65257" lon="1.50058">
        <ele>2455.6000976562</ele>
        <time>2023-07-22T08:40:11.000Z</time>
      </trkpt>
      <trkpt lat="42.65257" lon="1.50059">
        <ele>2455.3999023438</ele>
        <time>2023-07-22T08:40:12.000Z</time>
      </trkpt>
      <trkpt lat="42.65263" lon="1.50062">
        <ele>2454.6000976562</ele>
        <time>2023-07-22T08:40:17.000Z</time>
      </trkpt>
      <trkpt lat="42.65265" lon="1.50063">
        <ele>2454.3999023438</ele>
        <time>2023-07-22T08:40:19.000Z</time>
      </trkpt>
      <trkpt lat="42.6527" lon="1.50065">
        <ele>2454.6000976562</ele>
        <time>2023-07-22T08:40:24.000Z</time>
      </trkpt>
      <trkpt lat="42.65277" lon="1.50067">
        <ele>2453.8000488281</ele>
        <time>2023-07-22T08:40:31.000Z</time>
      </trkpt>
      <trkpt lat="42.65282" lon="1.50067">
        <ele>2454.8000488281</ele>
        <time>2023-07-22T08:40:37.000Z</time>
      </trkpt>
      <trkpt lat="42.65295" lon="1.5007">
        <ele>2453</ele>
        <time>2023-07-22T08:40:47.000Z</time>
      </trkpt>
      <trkpt lat="42.65301" lon="1.50073">
        <ele>2453.3999023438</ele>
        <time>2023-07-22T08:40:55.000Z</time>
      </trkpt>
      <trkpt lat="42.65308" lon="1.50077">
        <ele>2453.8000488281</ele>
        <time>2023-07-22T08:41:02.000Z</time>
      </trkpt>
      <trkpt lat="42.65315" lon="1.50084">
        <ele>2454.1999511719</ele>
        <time>2023-07-22T08:41:10.000Z</time>
      </trkpt>
      <trkpt lat="42.65317" lon="1.50088">
        <ele>2454.3999023438</ele>
        <time>2023-07-22T08:41:17.000Z</time>
      </trkpt>
      <trkpt lat="42.65324" lon="1.50092">
        <ele>2453.3999023438</ele>
        <time>2023-07-22T08:41:26.000Z</time>
      </trkpt>
      <trkpt lat="42.65329" lon="1.50094">
        <ele>2452.3999023438</ele>
        <time>2023-07-22T08:41:33.000Z</time>
      </trkpt>
      <trkpt lat="42.65329" lon="1.50093">
        <ele>2452.1999511719</ele>
        <time>2023-07-22T08:41:34.000Z</time>
      </trkpt>
      <trkpt lat="42.6533" lon="1.50093">
        <ele>2452</ele>
        <time>2023-07-22T08:41:35.000Z</time>
      </trkpt>
      <trkpt lat="42.65329" lon="1.50095">
        <ele>2451.8000488281</ele>
        <time>2023-07-22T08:41:44.000Z</time>
      </trkpt>
      <trkpt lat="42.65327" lon="1.5009">
        <ele>2452.1999511719</ele>
        <time>2023-07-22T08:41:51.000Z</time>
      </trkpt>
      <trkpt lat="42.65331" lon="1.50089">
        <ele>2452.6000976562</ele>
        <time>2023-07-22T08:42:00.000Z</time>
      </trkpt>
      <trkpt lat="42.65334" lon="1.50088">
        <ele>2452.3999023438</ele>
        <time>2023-07-22T08:42:08.000Z</time>
      </trkpt>
      <trkpt lat="42.65335" lon="1.5009">
        <ele>2451.3999023438</ele>
        <time>2023-07-22T08:42:15.000Z</time>
      </trkpt>
      <trkpt lat="42.65337" lon="1.50093">
        <ele>2450.6000976562</ele>
        <time>2023-07-22T08:42:19.000Z</time>
      </trkpt>
      <trkpt lat="42.6534" lon="1.50097">
        <ele>2450.6000976562</ele>
        <time>2023-07-22T08:42:26.000Z</time>
      </trkpt>
      <trkpt lat="42.65343" lon="1.50096">
        <ele>2450.3999023438</ele>
        <time>2023-07-22T08:42:31.000Z</time>
      </trkpt>
      <trkpt lat="42.65346" lon="1.50095">
        <ele>2450.1999511719</ele>
        <time>2023-07-22T08:42:35.000Z</time>
      </trkpt>
      <trkpt lat="42.65346" lon="1.50098">
        <ele>2451</ele>
        <time>2023-07-22T08:42:44.000Z</time>
      </trkpt>
      <trkpt lat="42.65345" lon="1.50098">
        <ele>2451</ele>
        <time>2023-07-22T08:42:50.000Z</time>
      </trkpt>
      <trkpt lat="42.65352" lon="1.50096">
        <ele>2451.1999511719</ele>
        <time>2023-07-22T08:43:00.000Z</time>
      </trkpt>
      <trkpt lat="42.65355" lon="1.50094">
        <ele>2451.6000976562</ele>
        <time>2023-07-22T08:43:02.000Z</time>
      </trkpt>
      <trkpt lat="42.65356" lon="1.50092">
        <ele>2452.6000976562</ele>
        <time>2023-07-22T08:43:07.000Z</time>
      </trkpt>
      <trkpt lat="42.65356" lon="1.50093">
        <ele>2452.6000976562</ele>
        <time>2023-07-22T08:43:08.000Z</time>
      </trkpt>
      <trkpt lat="42.65361" lon="1.50095">
        <ele>2453</ele>
        <time>2023-07-22T08:43:17.000Z</time>
      </trkpt>
      <trkpt lat="42.65364" lon="1.50097">
        <ele>2453.6000976562</ele>
        <time>2023-07-22T08:43:24.000Z</time>
      </trkpt>
      <trkpt lat="42.65371" lon="1.50098">
        <ele>2453.8000488281</ele>
        <time>2023-07-22T08:43:29.000Z</time>
      </trkpt>
      <trkpt lat="42.65377" lon="1.50095">
        <ele>2452.8000488281</ele>
        <time>2023-07-22T08:43:37.000Z</time>
      </trkpt>
      <trkpt lat="42.65386" lon="1.50095">
        <ele>2453</ele>
        <time>2023-07-22T08:43:46.000Z</time>
      </trkpt>
      <trkpt lat="42.65389" lon="1.50098">
        <ele>2453.6000976562</ele>
        <time>2023-07-22T08:43:53.000Z</time>
      </trkpt>
      <trkpt lat="42.65388" lon="1.50095">
        <ele>2453.1999511719</ele>
        <time>2023-07-22T08:43:55.000Z</time>
      </trkpt>
      <trkpt lat="42.65389" lon="1.50095">
        <ele>2453</ele>
        <time>2023-07-22T08:43:57.000Z</time>
      </trkpt>
      <trkpt lat="42.6539" lon="1.50096">
        <ele>2453</ele>
        <time>2023-07-22T08:43:59.000Z</time>
      </trkpt>
      <trkpt lat="42.65399" lon="1.50095">
        <ele>2453.8000488281</ele>
        <time>2023-07-22T08:44:06.000Z</time>
      </trkpt>
      <trkpt lat="42.65407" lon="1.50093">
        <ele>2453.8000488281</ele>
        <time>2023-07-22T08:44:17.000Z</time>
      </trkpt>
      <trkpt lat="42.65413" lon="1.5009">
        <ele>2454</ele>
        <time>2023-07-22T08:44:24.000Z</time>
      </trkpt>
      <trkpt lat="42.65418" lon="1.50087">
        <ele>2454.6000976562</ele>
        <time>2023-07-22T08:44:28.000Z</time>
      </trkpt>
      <trkpt lat="42.65423" lon="1.50086">
        <ele>2455</ele>
        <time>2023-07-22T08:44:33.000Z</time>
      </trkpt>
      <trkpt lat="42.65427" lon="1.50084">
        <ele>2455.6000976562</ele>
        <time>2023-07-22T08:44:39.000Z</time>
      </trkpt>
      <trkpt lat="42.65428" lon="1.50084">
        <ele>2456</ele>
        <time>2023-07-22T08:44:40.000Z</time>
      </trkpt>
      <trkpt lat="42.6543" lon="1.50084">
        <ele>2457</ele>
        <time>2023-07-22T08:44:47.000Z</time>
      </trkpt>
      <trkpt lat="42.65435" lon="1.50084">
        <ele>2457.8000488281</ele>
        <time>2023-07-22T08:44:55.000Z</time>
      </trkpt>
      <trkpt lat="42.65437" lon="1.50084">
        <ele>2458</ele>
        <time>2023-07-22T08:44:59.000Z</time>
      </trkpt>
      <trkpt lat="42.65438" lon="1.50085">
        <ele>2458.1999511719</ele>
        <time>2023-07-22T08:45:00.000Z</time>
      </trkpt>
      <trkpt lat="42.65441" lon="1.50085">
        <ele>2459</ele>
        <time>2023-07-22T08:45:05.000Z</time>
      </trkpt>
      <trkpt lat="42.65446" lon="1.50084">
        <ele>2459.6000976562</ele>
        <time>2023-07-22T08:45:08.000Z</time>
      </trkpt>
      <trkpt lat="42.65449" lon="1.50084">
        <ele>2460.1999511719</ele>
        <time>2023-07-22T08:45:11.000Z</time>
      </trkpt>
      <trkpt lat="42.65452" lon="1.50083">
        <ele>2461.1999511719</ele>
        <time>2023-07-22T08:45:16.000Z</time>
      </trkpt>
      <trkpt lat="42.65455" lon="1.50083">
        <ele>2462.1999511719</ele>
        <time>2023-07-22T08:45:20.000Z</time>
      </trkpt>
      <trkpt lat="42.65458" lon="1.50084">
        <ele>2462.8000488281</ele>
        <time>2023-07-22T08:45:26.000Z</time>
      </trkpt>
      <trkpt lat="42.65461" lon="1.50085">
        <ele>2463.3999023438</ele>
        <time>2023-07-22T08:45:29.000Z</time>
      </trkpt>
      <trkpt lat="42.65461" lon="1.50085">
        <ele>2464.1999511719</ele>
        <time>2023-07-22T08:45:33.000Z</time>
      </trkpt>
      <trkpt lat="42.65461" lon="1.50084">
        <ele>2464.3999023438</ele>
        <time>2023-07-22T08:45:41.000Z</time>
      </trkpt>
      <trkpt lat="42.65464" lon="1.50084">
        <ele>2464.8000488281</ele>
        <time>2023-07-22T08:45:43.000Z</time>
      </trkpt>
      <trkpt lat="42.65471" lon="1.50083">
        <ele>2465.6000976562</ele>
        <time>2023-07-22T08:45:50.000Z</time>
      </trkpt>
      <trkpt lat="42.65471" lon="1.50083">
        <ele>2465.6000976562</ele>
        <time>2023-07-22T08:45:51.000Z</time>
      </trkpt>
      <trkpt lat="42.65474" lon="1.50083">
        <ele>2466.1999511719</ele>
        <time>2023-07-22T08:45:56.000Z</time>
      </trkpt>
      <trkpt lat="42.65478" lon="1.50084">
        <ele>2467.8000488281</ele>
        <time>2023-07-22T08:46:05.000Z</time>
      </trkpt>
      <trkpt lat="42.6548" lon="1.50084">
        <ele>2467.8000488281</ele>
        <time>2023-07-22T08:46:06.000Z</time>
      </trkpt>
      <trkpt lat="42.65489" lon="1.50079">
        <ele>2468.6000976562</ele>
        <time>2023-07-22T08:46:16.000Z</time>
      </trkpt>
      <trkpt lat="42.65491" lon="1.50078">
        <ele>2468.8000488281</ele>
        <time>2023-07-22T08:46:18.000Z</time>
      </trkpt>
      <trkpt lat="42.65494" lon="1.50077">
        <ele>2469.1999511719</ele>
        <time>2023-07-22T08:46:25.000Z</time>
      </trkpt>
      <trkpt lat="42.65497" lon="1.50078">
        <ele>2469.8000488281</ele>
        <time>2023-07-22T08:46:36.000Z</time>
      </trkpt>
      <trkpt lat="42.65499" lon="1.5008">
        <ele>2470</ele>
        <time>2023-07-22T08:46:38.000Z</time>
      </trkpt>
      <trkpt lat="42.65505" lon="1.50084">
        <ele>2470.6000976562</ele>
        <time>2023-07-22T08:46:46.000Z</time>
      </trkpt>
      <trkpt lat="42.65508" lon="1.50083">
        <ele>2470.6000976562</ele>
        <time>2023-07-22T08:46:51.000Z</time>
      </trkpt>
      <trkpt lat="42.65511" lon="1.50083">
        <ele>2471</ele>
        <time>2023-07-22T08:46:54.000Z</time>
      </trkpt>
      <trkpt lat="42.65516" lon="1.50082">
        <ele>2471.1999511719</ele>
        <time>2023-07-22T08:46:59.000Z</time>
      </trkpt>
      <trkpt lat="42.65521" lon="1.50082">
        <ele>2470.8000488281</ele>
        <time>2023-07-22T08:47:09.000Z</time>
      </trkpt>
      <trkpt lat="42.65529" lon="1.50082">
        <ele>2470.3999023438</ele>
        <time>2023-07-22T08:47:16.000Z</time>
      </trkpt>
      <trkpt lat="42.65535" lon="1.50082">
        <ele>2470.6000976562</ele>
        <time>2023-07-22T08:47:22.000Z</time>
      </trkpt>
      <trkpt lat="42.65538" lon="1.50085">
        <ele>2470.8000488281</ele>
        <time>2023-07-22T08:47:29.000Z</time>
      </trkpt>
      <trkpt lat="42.65546" lon="1.50087">
        <ele>2471.1999511719</ele>
        <time>2023-07-22T08:47:36.000Z</time>
      </trkpt>
      <trkpt lat="42.65555" lon="1.50085">
        <ele>2471</ele>
        <time>2023-07-22T08:47:43.000Z</time>
      </trkpt>
      <trkpt lat="42.65559" lon="1.50088">
        <ele>2471</ele>
        <time>2023-07-22T08:47:47.000Z</time>
      </trkpt>
      <trkpt lat="42.65562" lon="1.50089">
        <ele>2471.1999511719</ele>
        <time>2023-07-22T08:47:51.000Z</time>
      </trkpt>
      <trkpt lat="42.65566" lon="1.5009">
        <ele>2472</ele>
        <time>2023-07-22T08:47:57.000Z</time>
      </trkpt>
      <trkpt lat="42.65568" lon="1.50092">
        <ele>2472</ele>
        <time>2023-07-22T08:47:58.000Z</time>
      </trkpt>
      <trkpt lat="42.65574" lon="1.50098">
        <ele>2472.3999023438</ele>
        <time>2023-07-22T08:48:06.000Z</time>
      </trkpt>
      <trkpt lat="42.65583" lon="1.50098">
        <ele>2472.6000976562</ele>
        <time>2023-07-22T08:48:14.000Z</time>
      </trkpt>
      <trkpt lat="42.65588" lon="1.50094">
        <ele>2472</ele>
        <time>2023-07-22T08:48:20.000Z</time>
      </trkpt>
      <trkpt lat="42.65594" lon="1.50093">
        <ele>2472.1999511719</ele>
        <time>2023-07-22T08:48:27.000Z</time>
      </trkpt>
      <trkpt lat="42.65602" lon="1.50095">
        <ele>2472.8000488281</ele>
        <time>2023-07-22T08:48:35.000Z</time>
      </trkpt>
      <trkpt lat="42.65604" lon="1.50095">
        <ele>2472.3999023438</ele>
        <time>2023-07-22T08:48:41.000Z</time>
      </trkpt>
      <trkpt lat="42.65603" lon="1.50096">
        <ele>2472.8000488281</ele>
        <time>2023-07-22T08:48:48.000Z</time>
      </trkpt>
      <trkpt lat="42.65604" lon="1.50095">
        <ele>2472.8000488281</ele>
        <time>2023-07-22T08:49:04.000Z</time>
      </trkpt>
      <trkpt lat="42.65612" lon="1.50101">
        <ele>2473</ele>
        <time>2023-07-22T08:49:13.000Z</time>
      </trkpt>
      <trkpt lat="42.65618" lon="1.50107">
        <ele>2473.1999511719</ele>
        <time>2023-07-22T08:49:21.000Z</time>
      </trkpt>
      <trkpt lat="42.65623" lon="1.5011">
        <ele>2473.3999023438</ele>
        <time>2023-07-22T08:49:27.000Z</time>
      </trkpt>
      <trkpt lat="42.65628" lon="1.5011">
        <ele>2473.1999511719</ele>
        <time>2023-07-22T08:49:34.000Z</time>
      </trkpt>
      <trkpt lat="42.65639" lon="1.5011">
        <ele>2473</ele>
        <time>2023-07-22T08:49:45.000Z</time>
      </trkpt>
      <trkpt lat="42.65645" lon="1.50109">
        <ele>2473.6000976562</ele>
        <time>2023-07-22T08:49:52.000Z</time>
      </trkpt>
      <trkpt lat="42.65648" lon="1.5011">
        <ele>2474</ele>
        <time>2023-07-22T08:49:56.000Z</time>
      </trkpt>
      <trkpt lat="42.65655" lon="1.50108">
        <ele>2474.1999511719</ele>
        <time>2023-07-22T08:50:01.000Z</time>
      </trkpt>
      <trkpt lat="42.65664" lon="1.50109">
        <ele>2474.1999511719</ele>
        <time>2023-07-22T08:50:09.000Z</time>
      </trkpt>
      <trkpt lat="42.65672" lon="1.50105">
        <ele>2474</ele>
        <time>2023-07-22T08:50:16.000Z</time>
      </trkpt>
      <trkpt lat="42.65677" lon="1.50101">
        <ele>2473.8000488281</ele>
        <time>2023-07-22T08:50:23.000Z</time>
      </trkpt>
      <trkpt lat="42.65685" lon="1.50101">
        <ele>2474</ele>
        <time>2023-07-22T08:50:30.000Z</time>
      </trkpt>
      <trkpt lat="42.65693" lon="1.50099">
        <ele>2473.1999511719</ele>
        <time>2023-07-22T08:50:38.000Z</time>
      </trkpt>
      <trkpt lat="42.65698" lon="1.501">
        <ele>2473</ele>
        <time>2023-07-22T08:50:42.000Z</time>
      </trkpt>
      <trkpt lat="42.65702" lon="1.50101">
        <ele>2473</ele>
        <time>2023-07-22T08:50:46.000Z</time>
      </trkpt>
      <trkpt lat="42.65706" lon="1.50098">
        <ele>2472</ele>
        <time>2023-07-22T08:50:54.000Z</time>
      </trkpt>
      <trkpt lat="42.65714" lon="1.50099">
        <ele>2471</ele>
        <time>2023-07-22T08:51:02.000Z</time>
      </trkpt>
      <trkpt lat="42.65715" lon="1.50099">
        <ele>2471</ele>
        <time>2023-07-22T08:51:03.000Z</time>
      </trkpt>
      <trkpt lat="42.6572" lon="1.50098">
        <ele>2471.1999511719</ele>
        <time>2023-07-22T08:51:10.000Z</time>
      </trkpt>
      <trkpt lat="42.65728" lon="1.50099">
        <ele>2470.8000488281</ele>
        <time>2023-07-22T08:51:21.000Z</time>
      </trkpt>
      <trkpt lat="42.65734" lon="1.50104">
        <ele>2469.8000488281</ele>
        <time>2023-07-22T08:51:28.000Z</time>
      </trkpt>
      <trkpt lat="42.65737" lon="1.50108">
        <ele>2468.6000976562</ele>
        <time>2023-07-22T08:51:34.000Z</time>
      </trkpt>
      <trkpt lat="42.65738" lon="1.5011">
        <ele>2468.1999511719</ele>
        <time>2023-07-22T08:51:36.000Z</time>
      </trkpt>
      <trkpt lat="42.65739" lon="1.50113">
        <ele>2467.6000976562</ele>
        <time>2023-07-22T08:51:40.000Z</time>
      </trkpt>
      <trkpt lat="42.65741" lon="1.50116">
        <ele>2467.3999023438</ele>
        <time>2023-07-22T08:51:43.000Z</time>
      </trkpt>
      <trkpt lat="42.65749" lon="1.50125">
        <ele>2466.8000488281</ele>
        <time>2023-07-22T08:51:53.000Z</time>
      </trkpt>
      <trkpt lat="42.65756" lon="1.50132">
        <ele>2467</ele>
        <time>2023-07-22T08:52:00.000Z</time>
      </trkpt>
      <trkpt lat="42.6576" lon="1.50134">
        <ele>2466.6000976562</ele>
        <time>2023-07-22T08:52:07.000Z</time>
      </trkpt>
      <trkpt lat="42.65764" lon="1.50137">
        <ele>2465.3999023438</ele>
        <time>2023-07-22T08:52:13.000Z</time>
      </trkpt>
      <trkpt lat="42.65767" lon="1.50138">
        <ele>2465.1999511719</ele>
        <time>2023-07-22T08:52:15.000Z</time>
      </trkpt>
      <trkpt lat="42.65774" lon="1.50144">
        <ele>2464.8000488281</ele>
        <time>2023-07-22T08:52:25.000Z</time>
      </trkpt>
      <trkpt lat="42.65777" lon="1.50148">
        <ele>2464.3999023438</ele>
        <time>2023-07-22T08:52:32.000Z</time>
      </trkpt>
      <trkpt lat="42.65778" lon="1.50149">
        <ele>2464.1999511719</ele>
        <time>2023-07-22T08:52:33.000Z</time>
      </trkpt>
      <trkpt lat="42.65784" lon="1.50154">
        <ele>2463.6000976562</ele>
        <time>2023-07-22T08:52:42.000Z</time>
      </trkpt>
      <trkpt lat="42.65785" lon="1.50156">
        <ele>2463.1999511719</ele>
        <time>2023-07-22T08:52:44.000Z</time>
      </trkpt>
      <trkpt lat="42.65791" lon="1.50159">
        <ele>2462.1999511719</ele>
        <time>2023-07-22T08:52:50.000Z</time>
      </trkpt>
      <trkpt lat="42.65797" lon="1.5016">
        <ele>2461.6000976562</ele>
        <time>2023-07-22T08:52:57.000Z</time>
      </trkpt>
      <trkpt lat="42.65802" lon="1.50164">
        <ele>2461.1999511719</ele>
        <time>2023-07-22T08:53:04.000Z</time>
      </trkpt>
      <trkpt lat="42.65803" lon="1.50164">
        <ele>2461</ele>
        <time>2023-07-22T08:53:05.000Z</time>
      </trkpt>
      <trkpt lat="42.65803" lon="1.50163">
        <ele>2460.6000976562</ele>
        <time>2023-07-22T08:53:09.000Z</time>
      </trkpt>
      <trkpt lat="42.65803" lon="1.50163">
        <ele>2460.3999023438</ele>
        <time>2023-07-22T08:53:10.000Z</time>
      </trkpt>
      <trkpt lat="42.65803" lon="1.50163">
        <ele>2459.8000488281</ele>
        <time>2023-07-22T08:53:11.000Z</time>
      </trkpt>
      <trkpt lat="42.65805" lon="1.50165">
        <ele>2460.1999511719</ele>
        <time>2023-07-22T08:53:20.000Z</time>
      </trkpt>
      <trkpt lat="42.65804" lon="1.50164">
        <ele>2460.3999023438</ele>
        <time>2023-07-22T08:53:28.000Z</time>
      </trkpt>
      <trkpt lat="42.65803" lon="1.50163">
        <ele>2460.3999023438</ele>
        <time>2023-07-22T08:53:41.000Z</time>
      </trkpt>
      <trkpt lat="42.65803" lon="1.50162">
        <ele>2460.6000976562</ele>
        <time>2023-07-22T08:53:50.000Z</time>
      </trkpt>
      <trkpt lat="42.65801" lon="1.50162">
        <ele>2461</ele>
        <time>2023-07-22T08:53:58.000Z</time>
      </trkpt>
      <trkpt lat="42.65801" lon="1.50162">
        <ele>2461.3999023438</ele>
        <time>2023-07-22T08:53:59.000Z</time>
      </trkpt>
      <trkpt lat="42.65802" lon="1.50166">
        <ele>2460.1999511719</ele>
        <time>2023-07-22T08:54:08.000Z</time>
      </trkpt>
      <trkpt lat="42.658" lon="1.50169">
        <ele>2460.6000976562</ele>
        <time>2023-07-22T08:54:15.000Z</time>
      </trkpt>
      <trkpt lat="42.65799" lon="1.50169">
        <ele>2460</ele>
        <time>2023-07-22T08:54:17.000Z</time>
      </trkpt>
      <trkpt lat="42.658" lon="1.50167">
        <ele>2460.3999023438</ele>
        <time>2023-07-22T08:54:23.000Z</time>
      </trkpt>
      <trkpt lat="42.658" lon="1.50167">
        <ele>2460</ele>
        <time>2023-07-22T08:54:30.000Z</time>
      </trkpt>
      <trkpt lat="42.658" lon="1.50168">
        <ele>2460</ele>
        <time>2023-07-22T08:54:37.000Z</time>
      </trkpt>
      <trkpt lat="42.65802" lon="1.50166">
        <ele>2459.6000976562</ele>
        <time>2023-07-22T08:54:46.000Z</time>
      </trkpt>
      <trkpt lat="42.65804" lon="1.50162">
        <ele>2459.3999023438</ele>
        <time>2023-07-22T08:54:53.000Z</time>
      </trkpt>
      <trkpt lat="42.65808" lon="1.50161">
        <ele>2459</ele>
        <time>2023-07-22T08:55:00.000Z</time>
      </trkpt>
      <trkpt lat="42.65809" lon="1.50161">
        <ele>2459</ele>
        <time>2023-07-22T08:55:01.000Z</time>
      </trkpt>
      <trkpt lat="42.65811" lon="1.50166">
        <ele>2458</ele>
        <time>2023-07-22T08:55:07.000Z</time>
      </trkpt>
      <trkpt lat="42.65811" lon="1.50166">
        <ele>2457.8000488281</ele>
        <time>2023-07-22T08:55:08.000Z</time>
      </trkpt>
      <trkpt lat="42.65812" lon="1.50168">
        <ele>2456.8000488281</ele>
        <time>2023-07-22T08:55:11.000Z</time>
      </trkpt>
      <trkpt lat="42.65814" lon="1.50168">
        <ele>2456</ele>
        <time>2023-07-22T08:55:15.000Z</time>
      </trkpt>
      <trkpt lat="42.65815" lon="1.50168">
        <ele>2455.6000976562</ele>
        <time>2023-07-22T08:55:16.000Z</time>
      </trkpt>
      <trkpt lat="42.65817" lon="1.50172">
        <ele>2454.6000976562</ele>
        <time>2023-07-22T08:55:21.000Z</time>
      </trkpt>
      <trkpt lat="42.65817" lon="1.50172">
        <ele>2454.3999023438</ele>
        <time>2023-07-22T08:55:22.000Z</time>
      </trkpt>
      <trkpt lat="42.65819" lon="1.50173">
        <ele>2453.3999023438</ele>
        <time>2023-07-22T08:55:27.000Z</time>
      </trkpt>
      <trkpt lat="42.65821" lon="1.50171">
        <ele>2453.1999511719</ele>
        <time>2023-07-22T08:55:29.000Z</time>
      </trkpt>
      <trkpt lat="42.65823" lon="1.5017">
        <ele>2452.8000488281</ele>
        <time>2023-07-22T08:55:31.000Z</time>
      </trkpt>
      <trkpt lat="42.65825" lon="1.5017">
        <ele>2452.6000976562</ele>
        <time>2023-07-22T08:55:32.000Z</time>
      </trkpt>
      <trkpt lat="42.65826" lon="1.5017">
        <ele>2452.1999511719</ele>
        <time>2023-07-22T08:55:34.000Z</time>
      </trkpt>
      <trkpt lat="42.65827" lon="1.5017">
        <ele>2451.8000488281</ele>
        <time>2023-07-22T08:55:36.000Z</time>
      </trkpt>
      <trkpt lat="42.65828" lon="1.50171">
        <ele>2451.1999511719</ele>
        <time>2023-07-22T08:55:42.000Z</time>
      </trkpt>
      <trkpt lat="42.65829" lon="1.50171">
        <ele>2450.8000488281</ele>
        <time>2023-07-22T08:55:44.000Z</time>
      </trkpt>
      <trkpt lat="42.6583" lon="1.50173">
        <ele>2450.1999511719</ele>
        <time>2023-07-22T08:55:47.000Z</time>
      </trkpt>
      <trkpt lat="42.65833" lon="1.50173">
        <ele>2448.8000488281</ele>
        <time>2023-07-22T08:55:53.000Z</time>
      </trkpt>
      <trkpt lat="42.65838" lon="1.50174">
        <ele>2447.8000488281</ele>
        <time>2023-07-22T08:56:00.000Z</time>
      </trkpt>
      <trkpt lat="42.6584" lon="1.50174">
        <ele>2447.3999023438</ele>
        <time>2023-07-22T08:56:03.000Z</time>
      </trkpt>
      <trkpt lat="42.65842" lon="1.50175">
        <ele>2446.6000976562</ele>
        <time>2023-07-22T08:56:06.000Z</time>
      </trkpt>
      <trkpt lat="42.65844" lon="1.50177">
        <ele>2445.8000488281</ele>
        <time>2023-07-22T08:56:11.000Z</time>
      </trkpt>
      <trkpt lat="42.65844" lon="1.50177">
        <ele>2445.6000976562</ele>
        <time>2023-07-22T08:56:12.000Z</time>
      </trkpt>
      <trkpt lat="42.65846" lon="1.5018">
        <ele>2444.8000488281</ele>
        <time>2023-07-22T08:56:18.000Z</time>
      </trkpt>
      <trkpt lat="42.65847" lon="1.5018">
        <ele>2444.6000976562</ele>
        <time>2023-07-22T08:56:19.000Z</time>
      </trkpt>
      <trkpt lat="42.65852" lon="1.50183">
        <ele>2443.3999023438</ele>
        <time>2023-07-22T08:56:24.000Z</time>
      </trkpt>
      <trkpt lat="42.65853" lon="1.50184">
        <ele>2443.1999511719</ele>
        <time>2023-07-22T08:56:25.000Z</time>
      </trkpt>
      <trkpt lat="42.65856" lon="1.50185">
        <ele>2442.1999511719</ele>
        <time>2023-07-22T08:56:32.000Z</time>
      </trkpt>
      <trkpt lat="42.65855" lon="1.50185">
        <ele>2442</ele>
        <time>2023-07-22T08:56:33.000Z</time>
      </trkpt>
      <trkpt lat="42.65862" lon="1.50186">
        <ele>2441.6000976562</ele>
        <time>2023-07-22T08:56:41.000Z</time>
      </trkpt>
      <trkpt lat="42.65864" lon="1.50188">
        <ele>2441.1999511719</ele>
        <time>2023-07-22T08:56:46.000Z</time>
      </trkpt>
      <trkpt lat="42.65866" lon="1.50191">
        <ele>2440.1999511719</ele>
        <time>2023-07-22T08:56:51.000Z</time>
      </trkpt>
      <trkpt lat="42.65866" lon="1.50191">
        <ele>2440</ele>
        <time>2023-07-22T08:56:52.000Z</time>
      </trkpt>
      <trkpt lat="42.65868" lon="1.50195">
        <ele>2438.8000488281</ele>
        <time>2023-07-22T08:56:58.000Z</time>
      </trkpt>
      <trkpt lat="42.65868" lon="1.50196">
        <ele>2438.6000976562</ele>
        <time>2023-07-22T08:56:59.000Z</time>
      </trkpt>
      <trkpt lat="42.65869" lon="1.50197">
        <ele>2437.6000976562</ele>
        <time>2023-07-22T08:57:03.000Z</time>
      </trkpt>
      <trkpt lat="42.65871" lon="1.50198">
        <ele>2436.6000976562</ele>
        <time>2023-07-22T08:57:08.000Z</time>
      </trkpt>
      <trkpt lat="42.65872" lon="1.50198">
        <ele>2436.3999023438</ele>
        <time>2023-07-22T08:57:09.000Z</time>
      </trkpt>
      <trkpt lat="42.65874" lon="1.50199">
        <ele>2435.3999023438</ele>
        <time>2023-07-22T08:57:14.000Z</time>
      </trkpt>
      <trkpt lat="42.65873" lon="1.50199">
        <ele>2435</ele>
        <time>2023-07-22T08:57:16.000Z</time>
      </trkpt>
      <trkpt lat="42.65874" lon="1.50199">
        <ele>2435</ele>
        <time>2023-07-22T08:57:25.000Z</time>
      </trkpt>
      <trkpt lat="42.6587" lon="1.502">
        <ele>2435.1999511719</ele>
        <time>2023-07-22T08:57:39.000Z</time>
      </trkpt>
      <trkpt lat="42.65872" lon="1.50207">
        <ele>2434.8000488281</ele>
        <time>2023-07-22T08:57:49.000Z</time>
      </trkpt>
      <trkpt lat="42.65874" lon="1.50207">
        <ele>2434.3999023438</ele>
        <time>2023-07-22T08:57:52.000Z</time>
      </trkpt>
      <trkpt lat="42.65878" lon="1.50207">
        <ele>2433.8000488281</ele>
        <time>2023-07-22T08:57:56.000Z</time>
      </trkpt>
      <trkpt lat="42.65882" lon="1.50208">
        <ele>2433.1999511719</ele>
        <time>2023-07-22T08:57:59.000Z</time>
      </trkpt>
      <trkpt lat="42.65886" lon="1.5021">
        <ele>2432.1999511719</ele>
        <time>2023-07-22T08:58:03.000Z</time>
      </trkpt>
      <trkpt lat="42.65886" lon="1.50215">
        <ele>2431</ele>
        <time>2023-07-22T08:58:09.000Z</time>
      </trkpt>
      <trkpt lat="42.65886" lon="1.50216">
        <ele>2430.6000976562</ele>
        <time>2023-07-22T08:58:11.000Z</time>
      </trkpt>
      <trkpt lat="42.65884" lon="1.50217">
        <ele>2430</ele>
        <time>2023-07-22T08:58:13.000Z</time>
      </trkpt>
      <trkpt lat="42.65884" lon="1.5022">
        <ele>2428.6000976562</ele>
        <time>2023-07-22T08:58:17.000Z</time>
      </trkpt>
      <trkpt lat="42.65884" lon="1.5022">
        <ele>2427.8000488281</ele>
        <time>2023-07-22T08:58:19.000Z</time>
      </trkpt>
      <trkpt lat="42.65885" lon="1.5022">
        <ele>2427.3999023438</ele>
        <time>2023-07-22T08:58:21.000Z</time>
      </trkpt>
      <trkpt lat="42.65886" lon="1.50219">
        <ele>2426.1999511719</ele>
        <time>2023-07-22T08:58:25.000Z</time>
      </trkpt>
      <trkpt lat="42.65887" lon="1.50219">
        <ele>2426.1999511719</ele>
        <time>2023-07-22T08:58:27.000Z</time>
      </trkpt>
      <trkpt lat="42.65892" lon="1.50219">
        <ele>2425.1999511719</ele>
        <time>2023-07-22T08:58:33.000Z</time>
      </trkpt>
      <trkpt lat="42.65893" lon="1.50218">
        <ele>2424.8000488281</ele>
        <time>2023-07-22T08:58:34.000Z</time>
      </trkpt>
      <trkpt lat="42.65896" lon="1.50218">
        <ele>2424.1999511719</ele>
        <time>2023-07-22T08:58:37.000Z</time>
      </trkpt>
      <trkpt lat="42.65898" lon="1.50217">
        <ele>2423.1999511719</ele>
        <time>2023-07-22T08:58:41.000Z</time>
      </trkpt>
      <trkpt lat="42.65898" lon="1.50217">
        <ele>2423</ele>
        <time>2023-07-22T08:58:42.000Z</time>
      </trkpt>
      <trkpt lat="42.65901" lon="1.5022">
        <ele>2422</ele>
        <time>2023-07-22T08:58:48.000Z</time>
      </trkpt>
      <trkpt lat="42.65901" lon="1.50221">
        <ele>2421.8000488281</ele>
        <time>2023-07-22T08:58:49.000Z</time>
      </trkpt>
      <trkpt lat="42.65906" lon="1.50219">
        <ele>2420.8000488281</ele>
        <time>2023-07-22T08:58:55.000Z</time>
      </trkpt>
      <trkpt lat="42.65907" lon="1.50218">
        <ele>2420.8000488281</ele>
        <time>2023-07-22T08:58:56.000Z</time>
      </trkpt>
      <trkpt lat="42.65912" lon="1.50212">
        <ele>2419.8000488281</ele>
        <time>2023-07-22T08:59:03.000Z</time>
      </trkpt>
      <trkpt lat="42.65912" lon="1.50212">
        <ele>2419.6000976562</ele>
        <time>2023-07-22T08:59:04.000Z</time>
      </trkpt>
      <trkpt lat="42.65913" lon="1.50211">
        <ele>2419.1999511719</ele>
        <time>2023-07-22T08:59:09.000Z</time>
      </trkpt>
      <trkpt lat="42.65914" lon="1.50211">
        <ele>2418.6000976562</ele>
        <time>2023-07-22T08:59:11.000Z</time>
      </trkpt>
      <trkpt lat="42.65915" lon="1.5021">
        <ele>2417.6000976562</ele>
        <time>2023-07-22T08:59:16.000Z</time>
      </trkpt>
      <trkpt lat="42.65916" lon="1.5021">
        <ele>2417.1999511719</ele>
        <time>2023-07-22T08:59:17.000Z</time>
      </trkpt>
      <trkpt lat="42.65919" lon="1.50211">
        <ele>2416.1999511719</ele>
        <time>2023-07-22T08:59:22.000Z</time>
      </trkpt>
      <trkpt lat="42.65918" lon="1.50215">
        <ele>2415.6000976562</ele>
        <time>2023-07-22T08:59:27.000Z</time>
      </trkpt>
      <trkpt lat="42.65918" lon="1.50219">
        <ele>2415.1999511719</ele>
        <time>2023-07-22T08:59:31.000Z</time>
      </trkpt>
      <trkpt lat="42.65919" lon="1.50223">
        <ele>2414.6000976562</ele>
        <time>2023-07-22T08:59:35.000Z</time>
      </trkpt>
      <trkpt lat="42.6592" lon="1.50223">
        <ele>2414.1999511719</ele>
        <time>2023-07-22T08:59:38.000Z</time>
      </trkpt>
      <trkpt lat="42.65921" lon="1.50223">
        <ele>2413.3999023438</ele>
        <time>2023-07-22T08:59:42.000Z</time>
      </trkpt>
      <trkpt lat="42.65922" lon="1.50223">
        <ele>2413</ele>
        <time>2023-07-22T08:59:43.000Z</time>
      </trkpt>
      <trkpt lat="42.65923" lon="1.50223">
        <ele>2411.8000488281</ele>
        <time>2023-07-22T08:59:49.000Z</time>
      </trkpt>
      <trkpt lat="42.65922" lon="1.50223">
        <ele>2410.8000488281</ele>
        <time>2023-07-22T08:59:53.000Z</time>
      </trkpt>
      <trkpt lat="42.65921" lon="1.50223">
        <ele>2410.6000976562</ele>
        <time>2023-07-22T08:59:54.000Z</time>
      </trkpt>
      <trkpt lat="42.65922" lon="1.50223">
        <ele>2410.1999511719</ele>
        <time>2023-07-22T08:59:55.000Z</time>
      </trkpt>
      <trkpt lat="42.6592" lon="1.5022">
        <ele>2410.1999511719</ele>
        <time>2023-07-22T09:00:11.000Z</time>
      </trkpt>
      <trkpt lat="42.65918" lon="1.50226">
        <ele>2410.3999023438</ele>
        <time>2023-07-22T09:00:18.000Z</time>
      </trkpt>
      <trkpt lat="42.6592" lon="1.50233">
        <ele>2409.8000488281</ele>
        <time>2023-07-22T09:00:26.000Z</time>
      </trkpt>
      <trkpt lat="42.65921" lon="1.50233">
        <ele>2409.3999023438</ele>
        <time>2023-07-22T09:00:27.000Z</time>
      </trkpt>
      <trkpt lat="42.65923" lon="1.50233">
        <ele>2408.3999023438</ele>
        <time>2023-07-22T09:00:31.000Z</time>
      </trkpt>
      <trkpt lat="42.65927" lon="1.50234">
        <ele>2407.3999023438</ele>
        <time>2023-07-22T09:00:36.000Z</time>
      </trkpt>
      <trkpt lat="42.65927" lon="1.50234">
        <ele>2407.3999023438</ele>
        <time>2023-07-22T09:00:38.000Z</time>
      </trkpt>
      <trkpt lat="42.65926" lon="1.50232">
        <ele>2407</ele>
        <time>2023-07-22T09:00:43.000Z</time>
      </trkpt>
      <trkpt lat="42.65927" lon="1.50228">
        <ele>2407.1999511719</ele>
        <time>2023-07-22T09:00:50.000Z</time>
      </trkpt>
      <trkpt lat="42.65931" lon="1.50224">
        <ele>2407</ele>
        <time>2023-07-22T09:00:56.000Z</time>
      </trkpt>
      <trkpt lat="42.65933" lon="1.50224">
        <ele>2406.8000488281</ele>
        <time>2023-07-22T09:01:04.000Z</time>
      </trkpt>
      <trkpt lat="42.65936" lon="1.50224">
        <ele>2406.1999511719</ele>
        <time>2023-07-22T09:01:12.000Z</time>
      </trkpt>
      <trkpt lat="42.6594" lon="1.50225">
        <ele>2405</ele>
        <time>2023-07-22T09:01:17.000Z</time>
      </trkpt>
      <trkpt lat="42.65941" lon="1.50225">
        <ele>2404.8000488281</ele>
        <time>2023-07-22T09:01:18.000Z</time>
      </trkpt>
      <trkpt lat="42.65946" lon="1.50224">
        <ele>2404</ele>
        <time>2023-07-22T09:01:22.000Z</time>
      </trkpt>
      <trkpt lat="42.65946" lon="1.50223">
        <ele>2403.8000488281</ele>
        <time>2023-07-22T09:01:24.000Z</time>
      </trkpt>
      <trkpt lat="42.65947" lon="1.50222">
        <ele>2403</ele>
        <time>2023-07-22T09:01:28.000Z</time>
      </trkpt>
      <trkpt lat="42.65951" lon="1.5022">
        <ele>2402.8000488281</ele>
        <time>2023-07-22T09:01:32.000Z</time>
      </trkpt>
      <trkpt lat="42.6595" lon="1.50223">
        <ele>2402.3999023438</ele>
        <time>2023-07-22T09:01:38.000Z</time>
      </trkpt>
      <trkpt lat="42.65952" lon="1.50221">
        <ele>2402.1999511719</ele>
        <time>2023-07-22T09:01:43.000Z</time>
      </trkpt>
      <trkpt lat="42.65952" lon="1.5022">
        <ele>2402</ele>
        <time>2023-07-22T09:01:45.000Z</time>
      </trkpt>
      <trkpt lat="42.65955" lon="1.50219">
        <ele>2401.8000488281</ele>
        <time>2023-07-22T09:01:51.000Z</time>
      </trkpt>
      <trkpt lat="42.65958" lon="1.50217">
        <ele>2401</ele>
        <time>2023-07-22T09:01:57.000Z</time>
      </trkpt>
      <trkpt lat="42.65959" lon="1.50215">
        <ele>2400.8000488281</ele>
        <time>2023-07-22T09:02:00.000Z</time>
      </trkpt>
      <trkpt lat="42.65965" lon="1.50211">
        <ele>2400.1999511719</ele>
        <time>2023-07-22T09:02:04.000Z</time>
      </trkpt>
      <trkpt lat="42.65967" lon="1.5021">
        <ele>2399.8000488281</ele>
        <time>2023-07-22T09:02:06.000Z</time>
      </trkpt>
      <trkpt lat="42.65971" lon="1.50207">
        <ele>2400</ele>
        <time>2023-07-22T09:02:12.000Z</time>
      </trkpt>
      <trkpt lat="42.65973" lon="1.50206">
        <ele>2400.8000488281</ele>
        <time>2023-07-22T09:02:16.000Z</time>
      </trkpt>
      <trkpt lat="42.65974" lon="1.50206">
        <ele>2401.6000976562</ele>
        <time>2023-07-22T09:02:18.000Z</time>
      </trkpt>
      <trkpt lat="42.65976" lon="1.50207">
        <ele>2402.1999511719</ele>
        <time>2023-07-22T09:02:20.000Z</time>
      </trkpt>
      <trkpt lat="42.6598" lon="1.50206">
        <ele>2403.1999511719</ele>
        <time>2023-07-22T09:02:23.000Z</time>
      </trkpt>
      <trkpt lat="42.65981" lon="1.50207">
        <ele>2404</ele>
        <time>2023-07-22T09:02:25.000Z</time>
      </trkpt>
      <trkpt lat="42.65983" lon="1.50206">
        <ele>2404.1999511719</ele>
        <time>2023-07-22T09:02:27.000Z</time>
      </trkpt>
      <trkpt lat="42.65986" lon="1.50202">
        <ele>2402.6000976562</ele>
        <time>2023-07-22T09:02:33.000Z</time>
      </trkpt>
      <trkpt lat="42.65986" lon="1.50202">
        <ele>2402.3999023438</ele>
        <time>2023-07-22T09:02:34.000Z</time>
      </trkpt>
      <trkpt lat="42.65989" lon="1.502">
        <ele>2401.8000488281</ele>
        <time>2023-07-22T09:02:40.000Z</time>
      </trkpt>
      <trkpt lat="42.65989" lon="1.50199">
        <ele>2401.6000976562</ele>
        <time>2023-07-22T09:02:41.000Z</time>
      </trkpt>
      <trkpt lat="42.65991" lon="1.50197">
        <ele>2400.6000976562</ele>
        <time>2023-07-22T09:02:46.000Z</time>
      </trkpt>
      <trkpt lat="42.65992" lon="1.50195">
        <ele>2400.1999511719</ele>
        <time>2023-07-22T09:02:48.000Z</time>
      </trkpt>
      <trkpt lat="42.65995" lon="1.50191">
        <ele>2399.3999023438</ele>
        <time>2023-07-22T09:02:52.000Z</time>
      </trkpt>
      <trkpt lat="42.65997" lon="1.50189">
        <ele>2398.8000488281</ele>
        <time>2023-07-22T09:02:54.000Z</time>
      </trkpt>
      <trkpt lat="42.65999" lon="1.50188">
        <ele>2398.3999023438</ele>
        <time>2023-07-22T09:02:57.000Z</time>
      </trkpt>
      <trkpt lat="42.66002" lon="1.50186">
        <ele>2398.1999511719</ele>
        <time>2023-07-22T09:03:01.000Z</time>
      </trkpt>
      <trkpt lat="42.66009" lon="1.50184">
        <ele>2397.6000976562</ele>
        <time>2023-07-22T09:03:08.000Z</time>
      </trkpt>
      <trkpt lat="42.66012" lon="1.50182">
        <ele>2397.1999511719</ele>
        <time>2023-07-22T09:03:11.000Z</time>
      </trkpt>
      <trkpt lat="42.66017" lon="1.50182">
        <ele>2396.8000488281</ele>
        <time>2023-07-22T09:03:15.000Z</time>
      </trkpt>
      <trkpt lat="42.66025" lon="1.50182">
        <ele>2398.1999511719</ele>
        <time>2023-07-22T09:03:23.000Z</time>
      </trkpt>
      <trkpt lat="42.66028" lon="1.50181">
        <ele>2399</ele>
        <time>2023-07-22T09:03:26.000Z</time>
      </trkpt>
      <trkpt lat="42.66036" lon="1.50181">
        <ele>2399</ele>
        <time>2023-07-22T09:03:34.000Z</time>
      </trkpt>
      <trkpt lat="42.66041" lon="1.50181">
        <ele>2397.3999023438</ele>
        <time>2023-07-22T09:03:41.000Z</time>
      </trkpt>
      <trkpt lat="42.66043" lon="1.50181">
        <ele>2397.1999511719</ele>
        <time>2023-07-22T09:03:43.000Z</time>
      </trkpt>
      <trkpt lat="42.66046" lon="1.50181">
        <ele>2396.1999511719</ele>
        <time>2023-07-22T09:03:47.000Z</time>
      </trkpt>
      <trkpt lat="42.66047" lon="1.50181">
        <ele>2396</ele>
        <time>2023-07-22T09:03:48.000Z</time>
      </trkpt>
      <trkpt lat="42.66055" lon="1.50177">
        <ele>2396.6000976562</ele>
        <time>2023-07-22T09:03:56.000Z</time>
      </trkpt>
      <trkpt lat="42.66058" lon="1.50176">
        <ele>2397.1999511719</ele>
        <time>2023-07-22T09:04:00.000Z</time>
      </trkpt>
      <trkpt lat="42.66063" lon="1.50176">
        <ele>2397.6000976562</ele>
        <time>2023-07-22T09:04:04.000Z</time>
      </trkpt>
      <trkpt lat="42.66069" lon="1.50173">
        <ele>2397</ele>
        <time>2023-07-22T09:04:11.000Z</time>
      </trkpt>
      <trkpt lat="42.66072" lon="1.50171">
        <ele>2398.3999023438</ele>
        <time>2023-07-22T09:04:16.000Z</time>
      </trkpt>
      <trkpt lat="42.66072" lon="1.5017">
        <ele>2398.6000976562</ele>
        <time>2023-07-22T09:04:17.000Z</time>
      </trkpt>
      <trkpt lat="42.66076" lon="1.50164">
        <ele>2399</ele>
        <time>2023-07-22T09:04:23.000Z</time>
      </trkpt>
      <trkpt lat="42.66077" lon="1.50161">
        <ele>2397.6000976562</ele>
        <time>2023-07-22T09:04:30.000Z</time>
      </trkpt>
      <trkpt lat="42.66078" lon="1.50158">
        <ele>2397.1999511719</ele>
        <time>2023-07-22T09:04:32.000Z</time>
      </trkpt>
      <trkpt lat="42.6608" lon="1.50157">
        <ele>2396.8000488281</ele>
        <time>2023-07-22T09:04:35.000Z</time>
      </trkpt>
      <trkpt lat="42.66087" lon="1.50156">
        <ele>2397.3999023438</ele>
        <time>2023-07-22T09:04:42.000Z</time>
      </trkpt>
      <trkpt lat="42.66088" lon="1.50158">
        <ele>2398.1999511719</ele>
        <time>2023-07-22T09:04:51.000Z</time>
      </trkpt>
      <trkpt lat="42.66084" lon="1.50158">
        <ele>2398.1999511719</ele>
        <time>2023-07-22T09:05:00.000Z</time>
      </trkpt>
      <trkpt lat="42.66085" lon="1.50159">
        <ele>2398.3999023438</ele>
        <time>2023-07-22T09:05:04.000Z</time>
      </trkpt>
      <trkpt lat="42.66088" lon="1.50158">
        <ele>2398.1999511719</ele>
        <time>2023-07-22T09:05:08.000Z</time>
      </trkpt>
      <trkpt lat="42.66091" lon="1.50151">
        <ele>2397.3999023438</ele>
        <time>2023-07-22T09:05:14.000Z</time>
      </trkpt>
      <trkpt lat="42.6609" lon="1.5015">
        <ele>2397.1999511719</ele>
        <time>2023-07-22T09:05:15.000Z</time>
      </trkpt>
      <trkpt lat="42.66091" lon="1.50147">
        <ele>2396.1999511719</ele>
        <time>2023-07-22T09:05:18.000Z</time>
      </trkpt>
      <trkpt lat="42.66089" lon="1.50141">
        <ele>2395.3999023438</ele>
        <time>2023-07-22T09:05:22.000Z</time>
      </trkpt>
      <trkpt lat="42.66093" lon="1.50129">
        <ele>2395.1999511719</ele>
        <time>2023-07-22T09:05:30.000Z</time>
      </trkpt>
      <trkpt lat="42.66093" lon="1.50128">
        <ele>2395.1999511719</ele>
        <time>2023-07-22T09:05:31.000Z</time>
      </trkpt>
      <trkpt lat="42.66093" lon="1.50125">
        <ele>2394.1999511719</ele>
        <time>2023-07-22T09:05:38.000Z</time>
      </trkpt>
      <trkpt lat="42.66095" lon="1.50117">
        <ele>2393.1999511719</ele>
        <time>2023-07-22T09:05:45.000Z</time>
      </trkpt>
      <trkpt lat="42.66095" lon="1.50116">
        <ele>2393</ele>
        <time>2023-07-22T09:05:46.000Z</time>
      </trkpt>
      <trkpt lat="42.66098" lon="1.50115">
        <ele>2392</ele>
        <time>2023-07-22T09:05:52.000Z</time>
      </trkpt>
      <trkpt lat="42.66099" lon="1.50115">
        <ele>2392</ele>
        <time>2023-07-22T09:05:53.000Z</time>
      </trkpt>
      <trkpt lat="42.66102" lon="1.50114">
        <ele>2391</ele>
        <time>2023-07-22T09:05:59.000Z</time>
      </trkpt>
      <trkpt lat="42.66103" lon="1.50113">
        <ele>2391</ele>
        <time>2023-07-22T09:06:01.000Z</time>
      </trkpt>
      <trkpt lat="42.66104" lon="1.50111">
        <ele>2389.8000488281</ele>
        <time>2023-07-22T09:06:05.000Z</time>
      </trkpt>
      <trkpt lat="42.66103" lon="1.50108">
        <ele>2389.8000488281</ele>
        <time>2023-07-22T09:06:08.000Z</time>
      </trkpt>
      <trkpt lat="42.66103" lon="1.50107">
        <ele>2389.6000976562</ele>
        <time>2023-07-22T09:06:15.000Z</time>
      </trkpt>
      <trkpt lat="42.66105" lon="1.50107">
        <ele>2389.8000488281</ele>
        <time>2023-07-22T09:06:24.000Z</time>
      </trkpt>
      <trkpt lat="42.66101" lon="1.50106">
        <ele>2389.8000488281</ele>
        <time>2023-07-22T09:06:32.000Z</time>
      </trkpt>
      <trkpt lat="42.66101" lon="1.50104">
        <ele>2388.8000488281</ele>
        <time>2023-07-22T09:06:37.000Z</time>
      </trkpt>
      <trkpt lat="42.66101" lon="1.50102">
        <ele>2388.3999023438</ele>
        <time>2023-07-22T09:06:39.000Z</time>
      </trkpt>
      <trkpt lat="42.66102" lon="1.50101">
        <ele>2387.6000976562</ele>
        <time>2023-07-22T09:06:44.000Z</time>
      </trkpt>
      <trkpt lat="42.66102" lon="1.50098">
        <ele>2387</ele>
        <time>2023-07-22T09:06:46.000Z</time>
      </trkpt>
      <trkpt lat="42.66102" lon="1.50095">
        <ele>2386.6000976562</ele>
        <time>2023-07-22T09:06:49.000Z</time>
      </trkpt>
      <trkpt lat="42.66105" lon="1.50094">
        <ele>2385.6000976562</ele>
        <time>2023-07-22T09:06:55.000Z</time>
      </trkpt>
      <trkpt lat="42.66106" lon="1.50094">
        <ele>2385.3999023438</ele>
        <time>2023-07-22T09:06:56.000Z</time>
      </trkpt>
      <trkpt lat="42.66112" lon="1.5009">
        <ele>2384.3999023438</ele>
        <time>2023-07-22T09:07:02.000Z</time>
      </trkpt>
      <trkpt lat="42.66114" lon="1.50088">
        <ele>2384.3999023438</ele>
        <time>2023-07-22T09:07:04.000Z</time>
      </trkpt>
      <trkpt lat="42.66115" lon="1.50087">
        <ele>2384</ele>
        <time>2023-07-22T09:07:08.000Z</time>
      </trkpt>
      <trkpt lat="42.66117" lon="1.50082">
        <ele>2383</ele>
        <time>2023-07-22T09:07:13.000Z</time>
      </trkpt>
      <trkpt lat="42.66119" lon="1.50078">
        <ele>2382.3999023438</ele>
        <time>2023-07-22T09:07:16.000Z</time>
      </trkpt>
      <trkpt lat="42.66119" lon="1.50075">
        <ele>2382.1999511719</ele>
        <time>2023-07-22T09:07:19.000Z</time>
      </trkpt>
      <trkpt lat="42.66117" lon="1.50076">
        <ele>2383</ele>
        <time>2023-07-22T09:07:22.000Z</time>
      </trkpt>
      <trkpt lat="42.66114" lon="1.50075">
        <ele>2381</ele>
        <time>2023-07-22T09:07:27.000Z</time>
      </trkpt>
      <trkpt lat="42.66113" lon="1.50075">
        <ele>2380</ele>
        <time>2023-07-22T09:07:28.000Z</time>
      </trkpt>
      <trkpt lat="42.66113" lon="1.50075">
        <ele>2379.8000488281</ele>
        <time>2023-07-22T09:07:29.000Z</time>
      </trkpt>
      <trkpt lat="42.66112" lon="1.50073">
        <ele>2378.6000976562</ele>
        <time>2023-07-22T09:07:33.000Z</time>
      </trkpt>
      <trkpt lat="42.66112" lon="1.50073">
        <ele>2378.6000976562</ele>
        <time>2023-07-22T09:07:35.000Z</time>
      </trkpt>
      <trkpt lat="42.66111" lon="1.50071">
        <ele>2377.6000976562</ele>
        <time>2023-07-22T09:07:40.000Z</time>
      </trkpt>
      <trkpt lat="42.66112" lon="1.5007">
        <ele>2376.1999511719</ele>
        <time>2023-07-22T09:07:42.000Z</time>
      </trkpt>
      <trkpt lat="42.66112" lon="1.50069">
        <ele>2376</ele>
        <time>2023-07-22T09:07:44.000Z</time>
      </trkpt>
      <trkpt lat="42.66113" lon="1.50065">
        <ele>2375.1999511719</ele>
        <time>2023-07-22T09:07:52.000Z</time>
      </trkpt>
      <trkpt lat="42.66114" lon="1.50064">
        <ele>2375.1999511719</ele>
        <time>2023-07-22T09:07:53.000Z</time>
      </trkpt>
      <trkpt lat="42.66116" lon="1.50062">
        <ele>2374.3999023438</ele>
        <time>2023-07-22T09:07:59.000Z</time>
      </trkpt>
      <trkpt lat="42.66121" lon="1.50061">
        <ele>2374.6000976562</ele>
        <time>2023-07-22T09:08:06.000Z</time>
      </trkpt>
      <trkpt lat="42.66122" lon="1.50062">
        <ele>2374.1999511719</ele>
        <time>2023-07-22T09:08:12.000Z</time>
      </trkpt>
      <trkpt lat="42.66123" lon="1.50058">
        <ele>2374</ele>
        <time>2023-07-22T09:08:15.000Z</time>
      </trkpt>
      <trkpt lat="42.66128" lon="1.50053">
        <ele>2374.6000976562</ele>
        <time>2023-07-22T09:08:21.000Z</time>
      </trkpt>
      <trkpt lat="42.66126" lon="1.50057">
        <ele>2374.8000488281</ele>
        <time>2023-07-22T09:08:29.000Z</time>
      </trkpt>
      <trkpt lat="42.66126" lon="1.50058">
        <ele>2375.1999511719</ele>
        <time>2023-07-22T09:08:30.000Z</time>
      </trkpt>
      <trkpt lat="42.66127" lon="1.50058">
        <ele>2375.1999511719</ele>
        <time>2023-07-22T09:08:36.000Z</time>
      </trkpt>
      <trkpt lat="42.66132" lon="1.50052">
        <ele>2374.6000976562</ele>
        <time>2023-07-22T09:08:41.000Z</time>
      </trkpt>
      <trkpt lat="42.66133" lon="1.5005">
        <ele>2374.1999511719</ele>
        <time>2023-07-22T09:08:43.000Z</time>
      </trkpt>
      <trkpt lat="42.66133" lon="1.50049">
        <ele>2373.6000976562</ele>
        <time>2023-07-22T09:08:47.000Z</time>
      </trkpt>
      <trkpt lat="42.66135" lon="1.5005">
        <ele>2373.1999511719</ele>
        <time>2023-07-22T09:08:51.000Z</time>
      </trkpt>
      <trkpt lat="42.66135" lon="1.5005">
        <ele>2373</ele>
        <time>2023-07-22T09:08:52.000Z</time>
      </trkpt>
      <trkpt lat="42.66136" lon="1.5005">
        <ele>2373</ele>
        <time>2023-07-22T09:08:54.000Z</time>
      </trkpt>
      <trkpt lat="42.6614" lon="1.50045">
        <ele>2372.8000488281</ele>
        <time>2023-07-22T09:09:01.000Z</time>
      </trkpt>
      <trkpt lat="42.66142" lon="1.50041">
        <ele>2372</ele>
        <time>2023-07-22T09:09:07.000Z</time>
      </trkpt>
      <trkpt lat="42.66143" lon="1.50039">
        <ele>2371.6000976562</ele>
        <time>2023-07-22T09:09:09.000Z</time>
      </trkpt>
      <trkpt lat="42.66144" lon="1.50035">
        <ele>2370.6000976562</ele>
        <time>2023-07-22T09:09:14.000Z</time>
      </trkpt>
      <trkpt lat="42.66144" lon="1.50034">
        <ele>2370.3999023438</ele>
        <time>2023-07-22T09:09:15.000Z</time>
      </trkpt>
      <trkpt lat="42.66146" lon="1.50034">
        <ele>2369.6000976562</ele>
        <time>2023-07-22T09:09:20.000Z</time>
      </trkpt>
      <trkpt lat="42.66146" lon="1.50033">
        <ele>2369</ele>
        <time>2023-07-22T09:09:24.000Z</time>
      </trkpt>
      <trkpt lat="42.66149" lon="1.5003">
        <ele>2368.6000976562</ele>
        <time>2023-07-22T09:09:27.000Z</time>
      </trkpt>
      <trkpt lat="42.6615" lon="1.50029">
        <ele>2368.1999511719</ele>
        <time>2023-07-22T09:09:30.000Z</time>
      </trkpt>
      <trkpt lat="42.6615" lon="1.50027">
        <ele>2368</ele>
        <time>2023-07-22T09:09:37.000Z</time>
      </trkpt>
      <trkpt lat="42.66155" lon="1.50026">
        <ele>2367.6000976562</ele>
        <time>2023-07-22T09:09:45.000Z</time>
      </trkpt>
      <trkpt lat="42.66155" lon="1.50026">
        <ele>2367.6000976562</ele>
        <time>2023-07-22T09:09:46.000Z</time>
      </trkpt>
      <trkpt lat="42.66157" lon="1.50024">
        <ele>2366.6000976562</ele>
        <time>2023-07-22T09:09:52.000Z</time>
      </trkpt>
      <trkpt lat="42.66162" lon="1.5002">
        <ele>2366.8000488281</ele>
        <time>2023-07-22T09:10:00.000Z</time>
      </trkpt>
      <trkpt lat="42.66169" lon="1.50017">
        <ele>2367</ele>
        <time>2023-07-22T09:10:08.000Z</time>
      </trkpt>
      <trkpt lat="42.66175" lon="1.50012">
        <ele>2366.8000488281</ele>
        <time>2023-07-22T09:10:18.000Z</time>
      </trkpt>
      <trkpt lat="42.66177" lon="1.50006">
        <ele>2366.6000976562</ele>
        <time>2023-07-22T09:10:26.000Z</time>
      </trkpt>
      <trkpt lat="42.66178" lon="1.50004">
        <ele>2366.3999023438</ele>
        <time>2023-07-22T09:10:27.000Z</time>
      </trkpt>
      <trkpt lat="42.66182" lon="1.49998">
        <ele>2365.8000488281</ele>
        <time>2023-07-22T09:10:33.000Z</time>
      </trkpt>
      <trkpt lat="42.66184" lon="1.49998">
        <ele>2365.8000488281</ele>
        <time>2023-07-22T09:10:40.000Z</time>
      </trkpt>
      <trkpt lat="42.6618" lon="1.49997">
        <ele>2365.3999023438</ele>
        <time>2023-07-22T09:10:53.000Z</time>
      </trkpt>
      <trkpt lat="42.66175" lon="1.5">
        <ele>2366</ele>
        <time>2023-07-22T09:11:17.000Z</time>
      </trkpt>
      <trkpt lat="42.66177" lon="1.49999">
        <ele>2366.1999511719</ele>
        <time>2023-07-22T09:11:25.000Z</time>
      </trkpt>
      <trkpt lat="42.66177" lon="1.5">
        <ele>2366.1999511719</ele>
        <time>2023-07-22T09:11:34.000Z</time>
      </trkpt>
      <trkpt lat="42.66181" lon="1.49997">
        <ele>2366.1999511719</ele>
        <time>2023-07-22T09:11:44.000Z</time>
      </trkpt>
      <trkpt lat="42.66185" lon="1.49993">
        <ele>2366</ele>
        <time>2023-07-22T09:11:57.000Z</time>
      </trkpt>
      <trkpt lat="42.66184" lon="1.49996">
        <ele>2366.3999023438</ele>
        <time>2023-07-22T09:12:18.000Z</time>
      </trkpt>
      <trkpt lat="42.66183" lon="1.49994">
        <ele>2366.1999511719</ele>
        <time>2023-07-22T09:12:42.000Z</time>
      </trkpt>
      <trkpt lat="42.66186" lon="1.49991">
        <ele>2365.1999511719</ele>
        <time>2023-07-22T09:12:52.000Z</time>
      </trkpt>
      <trkpt lat="42.66189" lon="1.49988">
        <ele>2364.8000488281</ele>
        <time>2023-07-22T09:13:12.000Z</time>
      </trkpt>
      <trkpt lat="42.66191" lon="1.49986">
        <ele>2364.6000976562</ele>
        <time>2023-07-22T09:13:20.000Z</time>
      </trkpt>
      <trkpt lat="42.6619" lon="1.49987">
        <ele>2362.8000488281</ele>
        <time>2023-07-22T09:13:41.000Z</time>
      </trkpt>
      <trkpt lat="42.66189" lon="1.4999">
        <ele>2362.6000976562</ele>
        <time>2023-07-22T09:13:48.000Z</time>
      </trkpt>
      <trkpt lat="42.66192" lon="1.49987">
        <ele>2361.8000488281</ele>
        <time>2023-07-22T09:14:18.000Z</time>
      </trkpt>
      <trkpt lat="42.66194" lon="1.49985">
        <ele>2361</ele>
        <time>2023-07-22T09:14:28.000Z</time>
      </trkpt>
      <trkpt lat="42.66194" lon="1.49985">
        <ele>2360.8000488281</ele>
        <time>2023-07-22T09:14:29.000Z</time>
      </trkpt>
      <trkpt lat="42.66196" lon="1.49985">
        <ele>2360.6000976562</ele>
        <time>2023-07-22T09:14:33.000Z</time>
      </trkpt>
      <trkpt lat="42.66192" lon="1.49981">
        <ele>2359.8000488281</ele>
        <time>2023-07-22T09:14:48.000Z</time>
      </trkpt>
      <trkpt lat="42.66196" lon="1.49975">
        <ele>2358</ele>
        <time>2023-07-22T09:15:12.000Z</time>
      </trkpt>
      <trkpt lat="42.66197" lon="1.49974">
        <ele>2357.3999023438</ele>
        <time>2023-07-22T09:15:14.000Z</time>
      </trkpt>
      <trkpt lat="42.66194" lon="1.4998">
        <ele>2356.3999023438</ele>
        <time>2023-07-22T09:15:22.000Z</time>
      </trkpt>
      <trkpt lat="42.66193" lon="1.49981">
        <ele>2356.1999511719</ele>
        <time>2023-07-22T09:15:24.000Z</time>
      </trkpt>
      <trkpt lat="42.66206" lon="1.49972">
        <ele>2351</ele>
        <time>2023-07-22T09:16:04.000Z</time>
      </trkpt>
      <trkpt lat="42.66206" lon="1.49973">
        <ele>2351</ele>
        <time>2023-07-22T09:16:06.000Z</time>
      </trkpt>
      <trkpt lat="42.66206" lon="1.49975">
        <ele>2348.8000488281</ele>
        <time>2023-07-22T09:16:12.000Z</time>
      </trkpt>
      <trkpt lat="42.66207" lon="1.49975">
        <ele>2348</ele>
        <time>2023-07-22T09:16:18.000Z</time>
      </trkpt>
      <trkpt lat="42.66208" lon="1.49975">
        <ele>2348</ele>
        <time>2023-07-22T09:16:41.000Z</time>
      </trkpt>
      <trkpt lat="42.66225" lon="1.49971">
        <ele>2341.6000976562</ele>
        <time>2023-07-22T09:17:19.000Z</time>
      </trkpt>
      <trkpt lat="42.66226" lon="1.49971">
        <ele>2341</ele>
        <time>2023-07-22T09:17:23.000Z</time>
      </trkpt>
      <trkpt lat="42.66234" lon="1.49973">
        <ele>2338.1999511719</ele>
        <time>2023-07-22T09:17:45.000Z</time>
      </trkpt>
      <trkpt lat="42.66235" lon="1.49974">
        <ele>2337.8000488281</ele>
        <time>2023-07-22T09:17:47.000Z</time>
      </trkpt>
      <trkpt lat="42.66242" lon="1.49978">
        <ele>2336</ele>
        <time>2023-07-22T09:17:59.000Z</time>
      </trkpt>
      <trkpt lat="42.66242" lon="1.4998">
        <ele>2335.6000976562</ele>
        <time>2023-07-22T09:18:03.000Z</time>
      </trkpt>
      <trkpt lat="42.66243" lon="1.4998">
        <ele>2334.6000976562</ele>
        <time>2023-07-22T09:18:07.000Z</time>
      </trkpt>
      <trkpt lat="42.66243" lon="1.4998">
        <ele>2334.6000976562</ele>
        <time>2023-07-22T09:18:08.000Z</time>
      </trkpt>
      <trkpt lat="42.66247" lon="1.49979">
        <ele>2333.3999023438</ele>
        <time>2023-07-22T09:18:12.000Z</time>
      </trkpt>
      <trkpt lat="42.66245" lon="1.4998">
        <ele>2333.1999511719</ele>
        <time>2023-07-22T09:18:15.000Z</time>
      </trkpt>
      <trkpt lat="42.66247" lon="1.49979">
        <ele>2333.3999023438</ele>
        <time>2023-07-22T09:18:29.000Z</time>
      </trkpt>
      <trkpt lat="42.66246" lon="1.49984">
        <ele>2332.8000488281</ele>
        <time>2023-07-22T09:18:36.000Z</time>
      </trkpt>
      <trkpt lat="42.66247" lon="1.49986">
        <ele>2332.1999511719</ele>
        <time>2023-07-22T09:18:39.000Z</time>
      </trkpt>
      <trkpt lat="42.6625" lon="1.49985">
        <ele>2331.1999511719</ele>
        <time>2023-07-22T09:18:45.000Z</time>
      </trkpt>
      <trkpt lat="42.66251" lon="1.49985">
        <ele>2331.1999511719</ele>
        <time>2023-07-22T09:18:46.000Z</time>
      </trkpt>
      <trkpt lat="42.66256" lon="1.49983">
        <ele>2330.3999023438</ele>
        <time>2023-07-22T09:18:53.000Z</time>
      </trkpt>
      <trkpt lat="42.66258" lon="1.49982">
        <ele>2330.1999511719</ele>
        <time>2023-07-22T09:18:55.000Z</time>
      </trkpt>
      <trkpt lat="42.66262" lon="1.49981">
        <ele>2329.1999511719</ele>
        <time>2023-07-22T09:19:00.000Z</time>
      </trkpt>
      <trkpt lat="42.66262" lon="1.4998">
        <ele>2329</ele>
        <time>2023-07-22T09:19:01.000Z</time>
      </trkpt>
      <trkpt lat="42.66263" lon="1.49978">
        <ele>2328</ele>
        <time>2023-07-22T09:19:07.000Z</time>
      </trkpt>
      <trkpt lat="42.66263" lon="1.49976">
        <ele>2328.1999511719</ele>
        <time>2023-07-22T09:19:12.000Z</time>
      </trkpt>
      <trkpt lat="42.66266" lon="1.49976">
        <ele>2327.8000488281</ele>
        <time>2023-07-22T09:19:18.000Z</time>
      </trkpt>
      <trkpt lat="42.66273" lon="1.49977">
        <ele>2327.3999023438</ele>
        <time>2023-07-22T09:19:23.000Z</time>
      </trkpt>
      <trkpt lat="42.66274" lon="1.49975">
        <ele>2326.8000488281</ele>
        <time>2023-07-22T09:19:27.000Z</time>
      </trkpt>
      <trkpt lat="42.66275" lon="1.49975">
        <ele>2326.6000976562</ele>
        <time>2023-07-22T09:19:30.000Z</time>
      </trkpt>
      <trkpt lat="42.66274" lon="1.49974">
        <ele>2326.6000976562</ele>
        <time>2023-07-22T09:19:38.000Z</time>
      </trkpt>
      <trkpt lat="42.66274" lon="1.49974">
        <ele>2326.6000976562</ele>
        <time>2023-07-22T09:19:45.000Z</time>
      </trkpt>
      <trkpt lat="42.66274" lon="1.49975">
        <ele>2326.1999511719</ele>
        <time>2023-07-22T09:19:53.000Z</time>
      </trkpt>
      <trkpt lat="42.66274" lon="1.49979">
        <ele>2326.3999023438</ele>
        <time>2023-07-22T09:20:01.000Z</time>
      </trkpt>
      <trkpt lat="42.66274" lon="1.49978">
        <ele>2326.3999023438</ele>
        <time>2023-07-22T09:20:10.000Z</time>
      </trkpt>
      <trkpt lat="42.66274" lon="1.49978">
        <ele>2326.1999511719</ele>
        <time>2023-07-22T09:20:18.000Z</time>
      </trkpt>
      <trkpt lat="42.66271" lon="1.49978">
        <ele>2326.1999511719</ele>
        <time>2023-07-22T09:20:28.000Z</time>
      </trkpt>
      <trkpt lat="42.66276" lon="1.49975">
        <ele>2326</ele>
        <time>2023-07-22T09:20:40.000Z</time>
      </trkpt>
      <trkpt lat="42.66275" lon="1.49975">
        <ele>2326</ele>
        <time>2023-07-22T09:20:49.000Z</time>
      </trkpt>
      <trkpt lat="42.66274" lon="1.49979">
        <ele>2326</ele>
        <time>2023-07-22T09:20:56.000Z</time>
      </trkpt>
      <trkpt lat="42.66274" lon="1.49976">
        <ele>2326</ele>
        <time>2023-07-22T09:21:03.000Z</time>
      </trkpt>
      <trkpt lat="42.66274" lon="1.4997">
        <ele>2327.1999511719</ele>
        <time>2023-07-22T09:21:13.000Z</time>
      </trkpt>
      <trkpt lat="42.66274" lon="1.49968">
        <ele>2326.6000976562</ele>
        <time>2023-07-22T09:21:20.000Z</time>
      </trkpt>
      <trkpt lat="42.66275" lon="1.49965">
        <ele>2326.3999023438</ele>
        <time>2023-07-22T09:21:27.000Z</time>
      </trkpt>
      <trkpt lat="42.66273" lon="1.49964">
        <ele>2326.6000976562</ele>
        <time>2023-07-22T09:21:36.000Z</time>
      </trkpt>
      <trkpt lat="42.66273" lon="1.49962">
        <ele>2327.1999511719</ele>
        <time>2023-07-22T09:21:45.000Z</time>
      </trkpt>
      <trkpt lat="42.66277" lon="1.49959">
        <ele>2327.8000488281</ele>
        <time>2023-07-22T09:21:54.000Z</time>
      </trkpt>
      <trkpt lat="42.66274" lon="1.49962">
        <ele>2327.8000488281</ele>
        <time>2023-07-22T09:22:03.000Z</time>
      </trkpt>
      <trkpt lat="42.66274" lon="1.49961">
        <ele>2328</ele>
        <time>2023-07-22T09:22:04.000Z</time>
      </trkpt>
      <trkpt lat="42.66273" lon="1.49955">
        <ele>2327.3999023438</ele>
        <time>2023-07-22T09:22:15.000Z</time>
      </trkpt>
      <trkpt lat="42.66275" lon="1.49956">
        <ele>2328</ele>
        <time>2023-07-22T09:22:21.000Z</time>
      </trkpt>
      <trkpt lat="42.66273" lon="1.49955">
        <ele>2328.1999511719</ele>
        <time>2023-07-22T09:22:27.000Z</time>
      </trkpt>
      <trkpt lat="42.66276" lon="1.4995">
        <ele>2328.6000976562</ele>
        <time>2023-07-22T09:22:42.000Z</time>
      </trkpt>
      <trkpt lat="42.66278" lon="1.49949">
        <ele>2328.3999023438</ele>
        <time>2023-07-22T09:23:00.000Z</time>
      </trkpt>
      <trkpt lat="42.66279" lon="1.49946">
        <ele>2328.3999023438</ele>
        <time>2023-07-22T09:23:08.000Z</time>
      </trkpt>
      <trkpt lat="42.66286" lon="1.49941">
        <ele>2328</ele>
        <time>2023-07-22T09:23:15.000Z</time>
      </trkpt>
      <trkpt lat="42.66295" lon="1.49934">
        <ele>2327.6000976562</ele>
        <time>2023-07-22T09:23:22.000Z</time>
      </trkpt>
      <trkpt lat="42.66299" lon="1.49928">
        <ele>2327.3999023438</ele>
        <time>2023-07-22T09:23:28.000Z</time>
      </trkpt>
      <trkpt lat="42.663" lon="1.49924">
        <ele>2326.8000488281</ele>
        <time>2023-07-22T09:23:32.000Z</time>
      </trkpt>
      <trkpt lat="42.66295" lon="1.49923">
        <ele>2326.3999023438</ele>
        <time>2023-07-22T09:23:36.000Z</time>
      </trkpt>
      <trkpt lat="42.66294" lon="1.49922">
        <ele>2325.6000976562</ele>
        <time>2023-07-22T09:23:40.000Z</time>
      </trkpt>
      <trkpt lat="42.66294" lon="1.4992">
        <ele>2325</ele>
        <time>2023-07-22T09:23:42.000Z</time>
      </trkpt>
      <trkpt lat="42.66295" lon="1.49919">
        <ele>2324.6000976562</ele>
        <time>2023-07-22T09:23:45.000Z</time>
      </trkpt>
      <trkpt lat="42.66295" lon="1.49918">
        <ele>2324</ele>
        <time>2023-07-22T09:23:48.000Z</time>
      </trkpt>
      <trkpt lat="42.663" lon="1.4991">
        <ele>2324</ele>
        <time>2023-07-22T09:24:00.000Z</time>
      </trkpt>
      <trkpt lat="42.66294" lon="1.49908">
        <ele>2324</ele>
        <time>2023-07-22T09:24:06.000Z</time>
      </trkpt>
      <trkpt lat="42.66293" lon="1.4991">
        <ele>2324.1999511719</ele>
        <time>2023-07-22T09:24:16.000Z</time>
      </trkpt>
      <trkpt lat="42.66294" lon="1.49907">
        <ele>2324</ele>
        <time>2023-07-22T09:24:27.000Z</time>
      </trkpt>
      <trkpt lat="42.66291" lon="1.49907">
        <ele>2323.6000976562</ele>
        <time>2023-07-22T09:24:35.000Z</time>
      </trkpt>
      <trkpt lat="42.66289" lon="1.49906">
        <ele>2323.6000976562</ele>
        <time>2023-07-22T09:24:41.000Z</time>
      </trkpt>
      <trkpt lat="42.66291" lon="1.49907">
        <ele>2323.6000976562</ele>
        <time>2023-07-22T09:24:50.000Z</time>
      </trkpt>
      <trkpt lat="42.66292" lon="1.49907">
        <ele>2323.6000976562</ele>
        <time>2023-07-22T09:24:55.000Z</time>
      </trkpt>
      <trkpt lat="42.66292" lon="1.49907">
        <ele>2323.3999023438</ele>
        <time>2023-07-22T09:24:56.000Z</time>
      </trkpt>
      <trkpt lat="42.66296" lon="1.49907">
        <ele>2322.6000976562</ele>
        <time>2023-07-22T09:25:03.000Z</time>
      </trkpt>
      <trkpt lat="42.66298" lon="1.49906">
        <ele>2321.1999511719</ele>
        <time>2023-07-22T09:25:17.000Z</time>
      </trkpt>
      <trkpt lat="42.66298" lon="1.49905">
        <ele>2320.3999023438</ele>
        <time>2023-07-22T09:25:22.000Z</time>
      </trkpt>
      <trkpt lat="42.66299" lon="1.49904">
        <ele>2320.1999511719</ele>
        <time>2023-07-22T09:25:23.000Z</time>
      </trkpt>
      <trkpt lat="42.663" lon="1.499">
        <ele>2320</ele>
        <time>2023-07-22T09:25:31.000Z</time>
      </trkpt>
      <trkpt lat="42.66306" lon="1.49899">
        <ele>2318.8000488281</ele>
        <time>2023-07-22T09:25:58.000Z</time>
      </trkpt>
      <trkpt lat="42.66298" lon="1.49901">
        <ele>2319.8000488281</ele>
        <time>2023-07-22T09:26:09.000Z</time>
      </trkpt>
      <trkpt lat="42.663" lon="1.49902">
        <ele>2319</ele>
        <time>2023-07-22T09:26:16.000Z</time>
      </trkpt>
      <trkpt lat="42.663" lon="1.49899">
        <ele>2318</ele>
        <time>2023-07-22T09:26:26.000Z</time>
      </trkpt>
      <trkpt lat="42.66304" lon="1.49899">
        <ele>2317.8000488281</ele>
        <time>2023-07-22T09:26:34.000Z</time>
      </trkpt>
      <trkpt lat="42.6631" lon="1.49899">
        <ele>2318</ele>
        <time>2023-07-22T09:26:42.000Z</time>
      </trkpt>
      <trkpt lat="42.6631" lon="1.49896">
        <ele>2317.6000976562</ele>
        <time>2023-07-22T09:26:51.000Z</time>
      </trkpt>
      <trkpt lat="42.66311" lon="1.49891">
        <ele>2318.3999023438</ele>
        <time>2023-07-22T09:26:58.000Z</time>
      </trkpt>
      <trkpt lat="42.66311" lon="1.49893">
        <ele>2318.3999023438</ele>
        <time>2023-07-22T09:27:03.000Z</time>
      </trkpt>
      <trkpt lat="42.66312" lon="1.49891">
        <ele>2318.3999023438</ele>
        <time>2023-07-22T09:27:10.000Z</time>
      </trkpt>
      <trkpt lat="42.66312" lon="1.49888">
        <ele>2318.8000488281</ele>
        <time>2023-07-22T09:27:16.000Z</time>
      </trkpt>
      <trkpt lat="42.66311" lon="1.49888">
        <ele>2319</ele>
        <time>2023-07-22T09:27:19.000Z</time>
      </trkpt>
      <trkpt lat="42.66308" lon="1.49887">
        <ele>2319.6000976562</ele>
        <time>2023-07-22T09:27:25.000Z</time>
      </trkpt>
      <trkpt lat="42.66308" lon="1.49886">
        <ele>2320</ele>
        <time>2023-07-22T09:27:33.000Z</time>
      </trkpt>
      <trkpt lat="42.66309" lon="1.49884">
        <ele>2319.6000976562</ele>
        <time>2023-07-22T09:27:40.000Z</time>
      </trkpt>
      <trkpt lat="42.66308" lon="1.49883">
        <ele>2319.1999511719</ele>
        <time>2023-07-22T09:27:50.000Z</time>
      </trkpt>
      <trkpt lat="42.66313" lon="1.49883">
        <ele>2319.1999511719</ele>
        <time>2023-07-22T09:28:00.000Z</time>
      </trkpt>
      <trkpt lat="42.66316" lon="1.49883">
        <ele>2319.3999023438</ele>
        <time>2023-07-22T09:28:06.000Z</time>
      </trkpt>
      <trkpt lat="42.66317" lon="1.4988">
        <ele>2319</ele>
        <time>2023-07-22T09:28:18.000Z</time>
      </trkpt>
      <trkpt lat="42.66314" lon="1.49878">
        <ele>2318.6000976562</ele>
        <time>2023-07-22T09:28:29.000Z</time>
      </trkpt>
      <trkpt lat="42.66312" lon="1.49876">
        <ele>2318</ele>
        <time>2023-07-22T09:28:36.000Z</time>
      </trkpt>
      <trkpt lat="42.66312" lon="1.49877">
        <ele>2318</ele>
        <time>2023-07-22T09:28:37.000Z</time>
      </trkpt>
      <trkpt lat="42.6631" lon="1.49879">
        <ele>2317.1999511719</ele>
        <time>2023-07-22T09:28:43.000Z</time>
      </trkpt>
      <trkpt lat="42.6631" lon="1.49879">
        <ele>2317</ele>
        <time>2023-07-22T09:28:46.000Z</time>
      </trkpt>
      <trkpt lat="42.66311" lon="1.4988">
        <ele>2316.6000976562</ele>
        <time>2023-07-22T09:28:52.000Z</time>
      </trkpt>
      <trkpt lat="42.66312" lon="1.49877">
        <ele>2316.1999511719</ele>
        <time>2023-07-22T09:28:59.000Z</time>
      </trkpt>
      <trkpt lat="42.66314" lon="1.49877">
        <ele>2316</ele>
        <time>2023-07-22T09:29:05.000Z</time>
      </trkpt>
      <trkpt lat="42.66315" lon="1.49877">
        <ele>2315.6000976562</ele>
        <time>2023-07-22T09:29:07.000Z</time>
      </trkpt>
      <trkpt lat="42.6632" lon="1.49875">
        <ele>2314.6000976562</ele>
        <time>2023-07-22T09:29:30.000Z</time>
      </trkpt>
      <trkpt lat="42.66328" lon="1.49871">
        <ele>2314.6000976562</ele>
        <time>2023-07-22T09:29:42.000Z</time>
      </trkpt>
      <trkpt lat="42.66327" lon="1.49868">
        <ele>2315</ele>
        <time>2023-07-22T09:29:50.000Z</time>
      </trkpt>
      <trkpt lat="42.66326" lon="1.49866">
        <ele>2314.8000488281</ele>
        <time>2023-07-22T09:29:56.000Z</time>
      </trkpt>
      <trkpt lat="42.66327" lon="1.49862">
        <ele>2315.1999511719</ele>
        <time>2023-07-22T09:30:05.000Z</time>
      </trkpt>
      <trkpt lat="42.66329" lon="1.49859">
        <ele>2314.8000488281</ele>
        <time>2023-07-22T09:30:12.000Z</time>
      </trkpt>
      <trkpt lat="42.66329" lon="1.49857">
        <ele>2314.8000488281</ele>
        <time>2023-07-22T09:30:20.000Z</time>
      </trkpt>
      <trkpt lat="42.66329" lon="1.49854">
        <ele>2314.6000976562</ele>
        <time>2023-07-22T09:30:24.000Z</time>
      </trkpt>
      <trkpt lat="42.6633" lon="1.49852">
        <ele>2314.8000488281</ele>
        <time>2023-07-22T09:30:32.000Z</time>
      </trkpt>
      <trkpt lat="42.66332" lon="1.49853">
        <ele>2315</ele>
        <time>2023-07-22T09:30:40.000Z</time>
      </trkpt>
      <trkpt lat="42.66329" lon="1.49848">
        <ele>2315.1999511719</ele>
        <time>2023-07-22T09:30:55.000Z</time>
      </trkpt>
      <trkpt lat="42.66328" lon="1.49845">
        <ele>2315</ele>
        <time>2023-07-22T09:31:03.000Z</time>
      </trkpt>
      <trkpt lat="42.66325" lon="1.49846">
        <ele>2314.8000488281</ele>
        <time>2023-07-22T09:31:08.000Z</time>
      </trkpt>
      <trkpt lat="42.66326" lon="1.49846">
        <ele>2314.6000976562</ele>
        <time>2023-07-22T09:31:11.000Z</time>
      </trkpt>
      <trkpt lat="42.66326" lon="1.49848">
        <ele>2314</ele>
        <time>2023-07-22T09:31:16.000Z</time>
      </trkpt>
      <trkpt lat="42.66326" lon="1.49847">
        <ele>2313.8000488281</ele>
        <time>2023-07-22T09:31:18.000Z</time>
      </trkpt>
      <trkpt lat="42.66327" lon="1.49845">
        <ele>2313.6000976562</ele>
        <time>2023-07-22T09:31:23.000Z</time>
      </trkpt>
      <trkpt lat="42.6633" lon="1.49845">
        <ele>2313.6000976562</ele>
        <time>2023-07-22T09:31:29.000Z</time>
      </trkpt>
      <trkpt lat="42.66331" lon="1.49843">
        <ele>2313.6000976562</ele>
        <time>2023-07-22T09:31:36.000Z</time>
      </trkpt>
      <trkpt lat="42.66328" lon="1.49846">
        <ele>2313.3999023438</ele>
        <time>2023-07-22T09:31:42.000Z</time>
      </trkpt>
      <trkpt lat="42.66329" lon="1.49845">
        <ele>2313.3999023438</ele>
        <time>2023-07-22T09:31:53.000Z</time>
      </trkpt>
      <trkpt lat="42.66329" lon="1.49846">
        <ele>2313.1999511719</ele>
        <time>2023-07-22T09:32:00.000Z</time>
      </trkpt>
      <trkpt lat="42.66331" lon="1.49847">
        <ele>2313.3999023438</ele>
        <time>2023-07-22T09:32:08.000Z</time>
      </trkpt>
      <trkpt lat="42.66331" lon="1.49844">
        <ele>2313.3999023438</ele>
        <time>2023-07-22T09:32:17.000Z</time>
      </trkpt>
      <trkpt lat="42.66329" lon="1.49846">
        <ele>2313.8000488281</ele>
        <time>2023-07-22T09:32:24.000Z</time>
      </trkpt>
      <trkpt lat="42.66328" lon="1.49847">
        <ele>2314.1999511719</ele>
        <time>2023-07-22T09:32:34.000Z</time>
      </trkpt>
      <trkpt lat="42.66331" lon="1.49845">
        <ele>2314</ele>
        <time>2023-07-22T09:32:41.000Z</time>
      </trkpt>
      <trkpt lat="42.66329" lon="1.49847">
        <ele>2313.8000488281</ele>
        <time>2023-07-22T09:32:48.000Z</time>
      </trkpt>
      <trkpt lat="42.6633" lon="1.49845">
        <ele>2314</ele>
        <time>2023-07-22T09:32:56.000Z</time>
      </trkpt>
      <trkpt lat="42.66332" lon="1.49847">
        <ele>2313.6000976562</ele>
        <time>2023-07-22T09:33:03.000Z</time>
      </trkpt>
      <trkpt lat="42.66329" lon="1.49844">
        <ele>2313.6000976562</ele>
        <time>2023-07-22T09:33:11.000Z</time>
      </trkpt>
      <trkpt lat="42.66328" lon="1.49844">
        <ele>2313.6000976562</ele>
        <time>2023-07-22T09:33:19.000Z</time>
      </trkpt>
      <trkpt lat="42.66328" lon="1.49846">
        <ele>2313.6000976562</ele>
        <time>2023-07-22T09:33:28.000Z</time>
      </trkpt>
      <trkpt lat="42.66328" lon="1.49847">
        <ele>2313.6000976562</ele>
        <time>2023-07-22T09:33:36.000Z</time>
      </trkpt>
      <trkpt lat="42.6633" lon="1.49845">
        <ele>2313.6000976562</ele>
        <time>2023-07-22T09:33:44.000Z</time>
      </trkpt>
      <trkpt lat="42.66333" lon="1.49843">
        <ele>2313.6000976562</ele>
        <time>2023-07-22T09:33:50.000Z</time>
      </trkpt>
      <trkpt lat="42.66334" lon="1.49841">
        <ele>2313.6000976562</ele>
        <time>2023-07-22T09:33:57.000Z</time>
      </trkpt>
      <trkpt lat="42.66336" lon="1.49838">
        <ele>2313.1999511719</ele>
        <time>2023-07-22T09:34:04.000Z</time>
      </trkpt>
      <trkpt lat="42.66337" lon="1.4984">
        <ele>2313.1999511719</ele>
        <time>2023-07-22T09:34:09.000Z</time>
      </trkpt>
      <trkpt lat="42.66338" lon="1.49839">
        <ele>2313.1999511719</ele>
        <time>2023-07-22T09:34:16.000Z</time>
      </trkpt>
      <trkpt lat="42.66338" lon="1.49835">
        <ele>2313.3999023438</ele>
        <time>2023-07-22T09:34:21.000Z</time>
      </trkpt>
      <trkpt lat="42.66337" lon="1.49834">
        <ele>2313.1999511719</ele>
        <time>2023-07-22T09:34:27.000Z</time>
      </trkpt>
      <trkpt lat="42.66338" lon="1.49829">
        <ele>2313.1999511719</ele>
        <time>2023-07-22T09:34:36.000Z</time>
      </trkpt>
      <trkpt lat="42.66339" lon="1.49827">
        <ele>2313.1999511719</ele>
        <time>2023-07-22T09:34:41.000Z</time>
      </trkpt>
      <trkpt lat="42.66338" lon="1.49829">
        <ele>2313.1999511719</ele>
        <time>2023-07-22T09:34:48.000Z</time>
      </trkpt>
      <trkpt lat="42.66337" lon="1.49827">
        <ele>2313.6000976562</ele>
        <time>2023-07-22T09:34:54.000Z</time>
      </trkpt>
      <trkpt lat="42.66337" lon="1.49825">
        <ele>2313.6000976562</ele>
        <time>2023-07-22T09:34:58.000Z</time>
      </trkpt>
      <trkpt lat="42.66337" lon="1.49825">
        <ele>2314.3999023438</ele>
        <time>2023-07-22T09:35:04.000Z</time>
      </trkpt>
      <trkpt lat="42.66336" lon="1.49822">
        <ele>2315</ele>
        <time>2023-07-22T09:35:14.000Z</time>
      </trkpt>
      <trkpt lat="42.66335" lon="1.49822">
        <ele>2315.8000488281</ele>
        <time>2023-07-22T09:35:25.000Z</time>
      </trkpt>
      <trkpt lat="42.66336" lon="1.49816">
        <ele>2315.8000488281</ele>
        <time>2023-07-22T09:35:30.000Z</time>
      </trkpt>
      <trkpt lat="42.66336" lon="1.49813">
        <ele>2315.3999023438</ele>
        <time>2023-07-22T09:35:37.000Z</time>
      </trkpt>
      <trkpt lat="42.66335" lon="1.49809">
        <ele>2315.3999023438</ele>
        <time>2023-07-22T09:35:44.000Z</time>
      </trkpt>
      <trkpt lat="42.66335" lon="1.49804">
        <ele>2315.8000488281</ele>
        <time>2023-07-22T09:35:51.000Z</time>
      </trkpt>
      <trkpt lat="42.66335" lon="1.49804">
        <ele>2316.1999511719</ele>
        <time>2023-07-22T09:35:52.000Z</time>
      </trkpt>
      <trkpt lat="42.66338" lon="1.49803">
        <ele>2316.8000488281</ele>
        <time>2023-07-22T09:36:01.000Z</time>
      </trkpt>
      <trkpt lat="42.66339" lon="1.49803">
        <ele>2317.1999511719</ele>
        <time>2023-07-22T09:36:04.000Z</time>
      </trkpt>
      <trkpt lat="42.6634" lon="1.49802">
        <ele>2317.3999023438</ele>
        <time>2023-07-22T09:36:09.000Z</time>
      </trkpt>
      <trkpt lat="42.6634" lon="1.49799">
        <ele>2317.3999023438</ele>
        <time>2023-07-22T09:36:20.000Z</time>
      </trkpt>
      <trkpt lat="42.6634" lon="1.49795">
        <ele>2318.1999511719</ele>
        <time>2023-07-22T09:36:27.000Z</time>
      </trkpt>
      <trkpt lat="42.6634" lon="1.49792">
        <ele>2318.6000976562</ele>
        <time>2023-07-22T09:36:35.000Z</time>
      </trkpt>
      <trkpt lat="42.6634" lon="1.49791">
        <ele>2319.6000976562</ele>
        <time>2023-07-22T09:36:38.000Z</time>
      </trkpt>
      <trkpt lat="42.66339" lon="1.49787">
        <ele>2320.1999511719</ele>
        <time>2023-07-22T09:36:43.000Z</time>
      </trkpt>
      <trkpt lat="42.66338" lon="1.49786">
        <ele>2320.6000976562</ele>
        <time>2023-07-22T09:36:46.000Z</time>
      </trkpt>
      <trkpt lat="42.66337" lon="1.49784">
        <ele>2321.1999511719</ele>
        <time>2023-07-22T09:36:50.000Z</time>
      </trkpt>
      <trkpt lat="42.66336" lon="1.49781">
        <ele>2321.8000488281</ele>
        <time>2023-07-22T09:36:55.000Z</time>
      </trkpt>
      <trkpt lat="42.66336" lon="1.4978">
        <ele>2321.8000488281</ele>
        <time>2023-07-22T09:36:56.000Z</time>
      </trkpt>
      <trkpt lat="42.66334" lon="1.49777">
        <ele>2322.3999023438</ele>
        <time>2023-07-22T09:37:04.000Z</time>
      </trkpt>
      <trkpt lat="42.66333" lon="1.49776">
        <ele>2323</ele>
        <time>2023-07-22T09:37:09.000Z</time>
      </trkpt>
      <trkpt lat="42.66333" lon="1.49775">
        <ele>2324</ele>
        <time>2023-07-22T09:37:12.000Z</time>
      </trkpt>
      <trkpt lat="42.66333" lon="1.49774">
        <ele>2324</ele>
        <time>2023-07-22T09:37:13.000Z</time>
      </trkpt>
      <trkpt lat="42.66334" lon="1.49772">
        <ele>2325.1999511719</ele>
        <time>2023-07-22T09:37:19.000Z</time>
      </trkpt>
      <trkpt lat="42.66335" lon="1.49772">
        <ele>2325.3999023438</ele>
        <time>2023-07-22T09:37:20.000Z</time>
      </trkpt>
      <trkpt lat="42.66337" lon="1.49769">
        <ele>2326</ele>
        <time>2023-07-22T09:37:29.000Z</time>
      </trkpt>
      <trkpt lat="42.66337" lon="1.49768">
        <ele>2326.1999511719</ele>
        <time>2023-07-22T09:37:31.000Z</time>
      </trkpt>
      <trkpt lat="42.6634" lon="1.49762">
        <ele>2325.8000488281</ele>
        <time>2023-07-22T09:37:37.000Z</time>
      </trkpt>
      <trkpt lat="42.66336" lon="1.49755">
        <ele>2325.3999023438</ele>
        <time>2023-07-22T09:37:46.000Z</time>
      </trkpt>
      <trkpt lat="42.66334" lon="1.49748">
        <ele>2326.1999511719</ele>
        <time>2023-07-22T09:37:54.000Z</time>
      </trkpt>
      <trkpt lat="42.66334" lon="1.49744">
        <ele>2326.6000976562</ele>
        <time>2023-07-22T09:37:59.000Z</time>
      </trkpt>
      <trkpt lat="42.66334" lon="1.49737">
        <ele>2326.6000976562</ele>
        <time>2023-07-22T09:38:06.000Z</time>
      </trkpt>
      <trkpt lat="42.66331" lon="1.49731">
        <ele>2326.8000488281</ele>
        <time>2023-07-22T09:38:13.000Z</time>
      </trkpt>
      <trkpt lat="42.66331" lon="1.49731">
        <ele>2327.3999023438</ele>
        <time>2023-07-22T09:38:15.000Z</time>
      </trkpt>
      <trkpt lat="42.66333" lon="1.49731">
        <ele>2327.3999023438</ele>
        <time>2023-07-22T09:38:21.000Z</time>
      </trkpt>
      <trkpt lat="42.66327" lon="1.49726">
        <ele>2326.6000976562</ele>
        <time>2023-07-22T09:38:33.000Z</time>
      </trkpt>
      <trkpt lat="42.66329" lon="1.49718">
        <ele>2327.6000976562</ele>
        <time>2023-07-22T09:38:41.000Z</time>
      </trkpt>
      <trkpt lat="42.66328" lon="1.49712">
        <ele>2328.3999023438</ele>
        <time>2023-07-22T09:38:48.000Z</time>
      </trkpt>
      <trkpt lat="42.66328" lon="1.49711">
        <ele>2328.6000976562</ele>
        <time>2023-07-22T09:38:49.000Z</time>
      </trkpt>
      <trkpt lat="42.66328" lon="1.49707">
        <ele>2328.6000976562</ele>
        <time>2023-07-22T09:38:55.000Z</time>
      </trkpt>
      <trkpt lat="42.66328" lon="1.49702">
        <ele>2329.6000976562</ele>
        <time>2023-07-22T09:39:01.000Z</time>
      </trkpt>
      <trkpt lat="42.66328" lon="1.49699">
        <ele>2330.6000976562</ele>
        <time>2023-07-22T09:39:06.000Z</time>
      </trkpt>
      <trkpt lat="42.66328" lon="1.49699">
        <ele>2330.8000488281</ele>
        <time>2023-07-22T09:39:07.000Z</time>
      </trkpt>
      <trkpt lat="42.6633" lon="1.49696">
        <ele>2331.6000976562</ele>
        <time>2023-07-22T09:39:15.000Z</time>
      </trkpt>
      <trkpt lat="42.66331" lon="1.49696">
        <ele>2331.8000488281</ele>
        <time>2023-07-22T09:39:16.000Z</time>
      </trkpt>
      <trkpt lat="42.66334" lon="1.49694">
        <ele>2333</ele>
        <time>2023-07-22T09:39:23.000Z</time>
      </trkpt>
      <trkpt lat="42.66335" lon="1.49691">
        <ele>2334</ele>
        <time>2023-07-22T09:39:30.000Z</time>
      </trkpt>
      <trkpt lat="42.66337" lon="1.49689">
        <ele>2334.6000976562</ele>
        <time>2023-07-22T09:39:33.000Z</time>
      </trkpt>
      <trkpt lat="42.66338" lon="1.49688">
        <ele>2335</ele>
        <time>2023-07-22T09:39:35.000Z</time>
      </trkpt>
      <trkpt lat="42.66338" lon="1.49685">
        <ele>2336</ele>
        <time>2023-07-22T09:39:42.000Z</time>
      </trkpt>
      <trkpt lat="42.66338" lon="1.49684">
        <ele>2336.1999511719</ele>
        <time>2023-07-22T09:39:43.000Z</time>
      </trkpt>
      <trkpt lat="42.66337" lon="1.49679">
        <ele>2337.3999023438</ele>
        <time>2023-07-22T09:39:50.000Z</time>
      </trkpt>
      <trkpt lat="42.66337" lon="1.49679">
        <ele>2337.6000976562</ele>
        <time>2023-07-22T09:39:51.000Z</time>
      </trkpt>
      <trkpt lat="42.66337" lon="1.49677">
        <ele>2338.3999023438</ele>
        <time>2023-07-22T09:39:56.000Z</time>
      </trkpt>
      <trkpt lat="42.6634" lon="1.49676">
        <ele>2339</ele>
        <time>2023-07-22T09:40:00.000Z</time>
      </trkpt>
      <trkpt lat="42.66341" lon="1.49675">
        <ele>2339.3999023438</ele>
        <time>2023-07-22T09:40:02.000Z</time>
      </trkpt>
      <trkpt lat="42.66345" lon="1.49672">
        <ele>2340.3999023438</ele>
        <time>2023-07-22T09:40:09.000Z</time>
      </trkpt>
      <trkpt lat="42.66347" lon="1.49668">
        <ele>2340.8000488281</ele>
        <time>2023-07-22T09:40:15.000Z</time>
      </trkpt>
      <trkpt lat="42.66349" lon="1.49665">
        <ele>2341.3999023438</ele>
        <time>2023-07-22T09:40:18.000Z</time>
      </trkpt>
      <trkpt lat="42.6635" lon="1.49663">
        <ele>2342.1999511719</ele>
        <time>2023-07-22T09:40:22.000Z</time>
      </trkpt>
      <trkpt lat="42.66352" lon="1.49661">
        <ele>2342.3999023438</ele>
        <time>2023-07-22T09:40:25.000Z</time>
      </trkpt>
      <trkpt lat="42.66351" lon="1.49658">
        <ele>2342.6000976562</ele>
        <time>2023-07-22T09:40:30.000Z</time>
      </trkpt>
      <trkpt lat="42.6635" lon="1.49652">
        <ele>2343.3999023438</ele>
        <time>2023-07-22T09:40:38.000Z</time>
      </trkpt>
      <trkpt lat="42.66351" lon="1.49652">
        <ele>2343.6000976562</ele>
        <time>2023-07-22T09:40:39.000Z</time>
      </trkpt>
      <trkpt lat="42.66351" lon="1.49648">
        <ele>2344.1999511719</ele>
        <time>2023-07-22T09:40:45.000Z</time>
      </trkpt>
      <trkpt lat="42.66352" lon="1.49645">
        <ele>2344.8000488281</ele>
        <time>2023-07-22T09:40:50.000Z</time>
      </trkpt>
      <trkpt lat="42.66352" lon="1.49644">
        <ele>2345.6000976562</ele>
        <time>2023-07-22T09:40:55.000Z</time>
      </trkpt>
      <trkpt lat="42.66352" lon="1.49643">
        <ele>2345.8000488281</ele>
        <time>2023-07-22T09:40:57.000Z</time>
      </trkpt>
      <trkpt lat="42.66352" lon="1.49641">
        <ele>2345.8000488281</ele>
        <time>2023-07-22T09:41:02.000Z</time>
      </trkpt>
      <trkpt lat="42.66355" lon="1.49646">
        <ele>2345.3999023438</ele>
        <time>2023-07-22T09:41:08.000Z</time>
      </trkpt>
      <trkpt lat="42.66355" lon="1.49647">
        <ele>2344.8000488281</ele>
        <time>2023-07-22T09:41:12.000Z</time>
      </trkpt>
      <trkpt lat="42.66357" lon="1.49645">
        <ele>2344.3999023438</ele>
        <time>2023-07-22T09:41:17.000Z</time>
      </trkpt>
      <trkpt lat="42.66359" lon="1.4964">
        <ele>2343.8000488281</ele>
        <time>2023-07-22T09:41:22.000Z</time>
      </trkpt>
      <trkpt lat="42.6636" lon="1.49637">
        <ele>2343.6000976562</ele>
        <time>2023-07-22T09:41:28.000Z</time>
      </trkpt>
      <trkpt lat="42.66361" lon="1.49638">
        <ele>2343.3999023438</ele>
        <time>2023-07-22T09:41:33.000Z</time>
      </trkpt>
      <trkpt lat="42.66359" lon="1.49638">
        <ele>2343.3999023438</ele>
        <time>2023-07-22T09:41:35.000Z</time>
      </trkpt>
      <trkpt lat="42.66357" lon="1.49639">
        <ele>2343.3999023438</ele>
        <time>2023-07-22T09:41:37.000Z</time>
      </trkpt>
      <trkpt lat="42.66358" lon="1.49639">
        <ele>2343.3999023438</ele>
        <time>2023-07-22T09:41:40.000Z</time>
      </trkpt>
      <trkpt lat="42.66357" lon="1.4964">
        <ele>2343.3999023438</ele>
        <time>2023-07-22T09:41:43.000Z</time>
      </trkpt>
      <trkpt lat="42.66357" lon="1.49639">
        <ele>2343.3999023438</ele>
        <time>2023-07-22T09:41:50.000Z</time>
      </trkpt>
      <trkpt lat="42.66356" lon="1.4964">
        <ele>2343.3999023438</ele>
        <time>2023-07-22T09:41:58.000Z</time>
      </trkpt>
      <trkpt lat="42.66357" lon="1.49639">
        <ele>2343.1999511719</ele>
        <time>2023-07-22T09:42:12.000Z</time>
      </trkpt>
      <trkpt lat="42.66355" lon="1.49639">
        <ele>2343.3999023438</ele>
        <time>2023-07-22T09:42:20.000Z</time>
      </trkpt>
      <trkpt lat="42.66357" lon="1.49639">
        <ele>2343.3999023438</ele>
        <time>2023-07-22T09:42:27.000Z</time>
      </trkpt>
      <trkpt lat="42.66358" lon="1.49638">
        <ele>2343.1999511719</ele>
        <time>2023-07-22T09:42:35.000Z</time>
      </trkpt>
      <trkpt lat="42.6636" lon="1.49636">
        <ele>2343.1999511719</ele>
        <time>2023-07-22T09:42:42.000Z</time>
      </trkpt>
      <trkpt lat="42.66357" lon="1.49641">
        <ele>2343</ele>
        <time>2023-07-22T09:42:50.000Z</time>
      </trkpt>
      <trkpt lat="42.66353" lon="1.49639">
        <ele>2342.8000488281</ele>
        <time>2023-07-22T09:42:59.000Z</time>
      </trkpt>
      <trkpt lat="42.66358" lon="1.4964">
        <ele>2343.1999511719</ele>
        <time>2023-07-22T09:43:11.000Z</time>
      </trkpt>
      <trkpt lat="42.66358" lon="1.49638">
        <ele>2343.3999023438</ele>
        <time>2023-07-22T09:43:27.000Z</time>
      </trkpt>
      <trkpt lat="42.6636" lon="1.49632">
        <ele>2343.1999511719</ele>
        <time>2023-07-22T09:43:34.000Z</time>
      </trkpt>
      <trkpt lat="42.66362" lon="1.49627">
        <ele>2344</ele>
        <time>2023-07-22T09:43:41.000Z</time>
      </trkpt>
      <trkpt lat="42.66363" lon="1.49626">
        <ele>2344.8000488281</ele>
        <time>2023-07-22T09:43:47.000Z</time>
      </trkpt>
      <trkpt lat="42.66364" lon="1.49626">
        <ele>2344.8000488281</ele>
        <time>2023-07-22T09:43:48.000Z</time>
      </trkpt>
      <trkpt lat="42.66367" lon="1.49624">
        <ele>2345.1999511719</ele>
        <time>2023-07-22T09:43:54.000Z</time>
      </trkpt>
      <trkpt lat="42.66369" lon="1.49622">
        <ele>2345.3999023438</ele>
        <time>2023-07-22T09:43:59.000Z</time>
      </trkpt>
      <trkpt lat="42.6637" lon="1.49616">
        <ele>2345</ele>
        <time>2023-07-22T09:44:06.000Z</time>
      </trkpt>
      <trkpt lat="42.66371" lon="1.49613">
        <ele>2345</ele>
        <time>2023-07-22T09:44:11.000Z</time>
      </trkpt>
      <trkpt lat="42.66374" lon="1.49607">
        <ele>2345</ele>
        <time>2023-07-22T09:44:19.000Z</time>
      </trkpt>
      <trkpt lat="42.66379" lon="1.49602">
        <ele>2345.1999511719</ele>
        <time>2023-07-22T09:44:27.000Z</time>
      </trkpt>
      <trkpt lat="42.66383" lon="1.49598">
        <ele>2345.1999511719</ele>
        <time>2023-07-22T09:44:32.000Z</time>
      </trkpt>
      <trkpt lat="42.66381" lon="1.49596">
        <ele>2345.6000976562</ele>
        <time>2023-07-22T09:44:39.000Z</time>
      </trkpt>
      <trkpt lat="42.66381" lon="1.49595">
        <ele>2345.8000488281</ele>
        <time>2023-07-22T09:44:41.000Z</time>
      </trkpt>
      <trkpt lat="42.66381" lon="1.49591">
        <ele>2346</ele>
        <time>2023-07-22T09:44:44.000Z</time>
      </trkpt>
      <trkpt lat="42.6638" lon="1.49591">
        <ele>2346.1999511719</ele>
        <time>2023-07-22T09:44:50.000Z</time>
      </trkpt>
      <trkpt lat="42.66381" lon="1.49587">
        <ele>2346.1999511719</ele>
        <time>2023-07-22T09:44:56.000Z</time>
      </trkpt>
      <trkpt lat="42.6638" lon="1.49583">
        <ele>2346.1999511719</ele>
        <time>2023-07-22T09:45:01.000Z</time>
      </trkpt>
      <trkpt lat="42.6638" lon="1.49581">
        <ele>2346</ele>
        <time>2023-07-22T09:45:07.000Z</time>
      </trkpt>
      <trkpt lat="42.66382" lon="1.49576">
        <ele>2346</ele>
        <time>2023-07-22T09:45:12.000Z</time>
      </trkpt>
      <trkpt lat="42.66382" lon="1.49575">
        <ele>2344.8000488281</ele>
        <time>2023-07-22T09:45:18.000Z</time>
      </trkpt>
      <trkpt lat="42.66383" lon="1.49574">
        <ele>2344.6000976562</ele>
        <time>2023-07-22T09:45:19.000Z</time>
      </trkpt>
      <trkpt lat="42.66385" lon="1.4957">
        <ele>2344.8000488281</ele>
        <time>2023-07-22T09:45:27.000Z</time>
      </trkpt>
      <trkpt lat="42.66385" lon="1.49567">
        <ele>2345.6000976562</ele>
        <time>2023-07-22T09:45:36.000Z</time>
      </trkpt>
      <trkpt lat="42.66386" lon="1.49566">
        <ele>2345.8000488281</ele>
        <time>2023-07-22T09:45:39.000Z</time>
      </trkpt>
      <trkpt lat="42.66388" lon="1.49563">
        <ele>2345.8000488281</ele>
        <time>2023-07-22T09:45:43.000Z</time>
      </trkpt>
      <trkpt lat="42.66391" lon="1.49558">
        <ele>2346.6000976562</ele>
        <time>2023-07-22T09:45:51.000Z</time>
      </trkpt>
      <trkpt lat="42.66397" lon="1.49551">
        <ele>2346.6000976562</ele>
        <time>2023-07-22T09:45:58.000Z</time>
      </trkpt>
      <trkpt lat="42.664" lon="1.49548">
        <ele>2346.8000488281</ele>
        <time>2023-07-22T09:46:02.000Z</time>
      </trkpt>
      <trkpt lat="42.66404" lon="1.49544">
        <ele>2347.3999023438</ele>
        <time>2023-07-22T09:46:06.000Z</time>
      </trkpt>
      <trkpt lat="42.66403" lon="1.4954">
        <ele>2347.8000488281</ele>
        <time>2023-07-22T09:46:12.000Z</time>
      </trkpt>
      <trkpt lat="42.66404" lon="1.49537">
        <ele>2348.8000488281</ele>
        <time>2023-07-22T09:46:18.000Z</time>
      </trkpt>
      <trkpt lat="42.66404" lon="1.49537">
        <ele>2349.3999023438</ele>
        <time>2023-07-22T09:46:20.000Z</time>
      </trkpt>
      <trkpt lat="42.66404" lon="1.49535">
        <ele>2350</ele>
        <time>2023-07-22T09:46:24.000Z</time>
      </trkpt>
      <trkpt lat="42.66404" lon="1.49534">
        <ele>2350.1999511719</ele>
        <time>2023-07-22T09:46:26.000Z</time>
      </trkpt>
      <trkpt lat="42.66405" lon="1.4953">
        <ele>2351</ele>
        <time>2023-07-22T09:46:32.000Z</time>
      </trkpt>
      <trkpt lat="42.66405" lon="1.4953">
        <ele>2351.3999023438</ele>
        <time>2023-07-22T09:46:34.000Z</time>
      </trkpt>
      <trkpt lat="42.66405" lon="1.49528">
        <ele>2352.1999511719</ele>
        <time>2023-07-22T09:46:39.000Z</time>
      </trkpt>
      <trkpt lat="42.66405" lon="1.49528">
        <ele>2352.3999023438</ele>
        <time>2023-07-22T09:46:41.000Z</time>
      </trkpt>
      <trkpt lat="42.66406" lon="1.4953">
        <ele>2353.3999023438</ele>
        <time>2023-07-22T09:46:47.000Z</time>
      </trkpt>
      <trkpt lat="42.66407" lon="1.4953">
        <ele>2353.8000488281</ele>
        <time>2023-07-22T09:46:49.000Z</time>
      </trkpt>
      <trkpt lat="42.66408" lon="1.49531">
        <ele>2354.3999023438</ele>
        <time>2023-07-22T09:46:54.000Z</time>
      </trkpt>
      <trkpt lat="42.66409" lon="1.49532">
        <ele>2354.6000976562</ele>
        <time>2023-07-22T09:46:56.000Z</time>
      </trkpt>
      <trkpt lat="42.66411" lon="1.49531">
        <ele>2355.6000976562</ele>
        <time>2023-07-22T09:47:01.000Z</time>
      </trkpt>
      <trkpt lat="42.6641" lon="1.49529">
        <ele>2356</ele>
        <time>2023-07-22T09:47:05.000Z</time>
      </trkpt>
      <trkpt lat="42.66413" lon="1.49528">
        <ele>2356.6000976562</ele>
        <time>2023-07-22T09:47:13.000Z</time>
      </trkpt>
      <trkpt lat="42.66415" lon="1.49527">
        <ele>2357.8000488281</ele>
        <time>2023-07-22T09:47:18.000Z</time>
      </trkpt>
      <trkpt lat="42.66417" lon="1.49523">
        <ele>2358.8000488281</ele>
        <time>2023-07-22T09:47:24.000Z</time>
      </trkpt>
      <trkpt lat="42.66417" lon="1.49523">
        <ele>2359.1999511719</ele>
        <time>2023-07-22T09:47:25.000Z</time>
      </trkpt>
      <trkpt lat="42.66421" lon="1.49518">
        <ele>2359.3999023438</ele>
        <time>2023-07-22T09:47:34.000Z</time>
      </trkpt>
      <trkpt lat="42.66423" lon="1.49516">
        <ele>2360.1999511719</ele>
        <time>2023-07-22T09:47:40.000Z</time>
      </trkpt>
      <trkpt lat="42.66424" lon="1.49517">
        <ele>2360.3999023438</ele>
        <time>2023-07-22T09:47:42.000Z</time>
      </trkpt>
      <trkpt lat="42.66425" lon="1.49515">
        <ele>2362.8000488281</ele>
        <time>2023-07-22T09:47:52.000Z</time>
      </trkpt>
      <trkpt lat="42.66426" lon="1.49515">
        <ele>2363.1999511719</ele>
        <time>2023-07-22T09:47:56.000Z</time>
      </trkpt>
      <trkpt lat="42.66428" lon="1.49511">
        <ele>2363.8000488281</ele>
        <time>2023-07-22T09:48:02.000Z</time>
      </trkpt>
      <trkpt lat="42.66428" lon="1.49511">
        <ele>2364</ele>
        <time>2023-07-22T09:48:03.000Z</time>
      </trkpt>
      <trkpt lat="42.66429" lon="1.4951">
        <ele>2365</ele>
        <time>2023-07-22T09:48:08.000Z</time>
      </trkpt>
      <trkpt lat="42.66429" lon="1.49507">
        <ele>2365.6000976562</ele>
        <time>2023-07-22T09:48:11.000Z</time>
      </trkpt>
      <trkpt lat="42.6643" lon="1.49507">
        <ele>2366</ele>
        <time>2023-07-22T09:48:12.000Z</time>
      </trkpt>
      <trkpt lat="42.6643" lon="1.49505">
        <ele>2367</ele>
        <time>2023-07-22T09:48:19.000Z</time>
      </trkpt>
      <trkpt lat="42.66429" lon="1.49505">
        <ele>2367.1999511719</ele>
        <time>2023-07-22T09:48:20.000Z</time>
      </trkpt>
      <trkpt lat="42.6643" lon="1.49506">
        <ele>2368.1999511719</ele>
        <time>2023-07-22T09:48:27.000Z</time>
      </trkpt>
      <trkpt lat="42.6643" lon="1.49506">
        <ele>2368.3999023438</ele>
        <time>2023-07-22T09:48:28.000Z</time>
      </trkpt>
      <trkpt lat="42.66426" lon="1.49494">
        <ele>2373.6000976562</ele>
        <time>2023-07-22T09:49:36.000Z</time>
      </trkpt>
      <trkpt lat="42.66427" lon="1.49493">
        <ele>2374</ele>
        <time>2023-07-22T09:49:37.000Z</time>
      </trkpt>
      <trkpt lat="42.66425" lon="1.49493">
        <ele>2375.1999511719</ele>
        <time>2023-07-22T09:49:47.000Z</time>
      </trkpt>
      <trkpt lat="42.66425" lon="1.4949">
        <ele>2375.3999023438</ele>
        <time>2023-07-22T09:49:52.000Z</time>
      </trkpt>
      <trkpt lat="42.66425" lon="1.49489">
        <ele>2375.8000488281</ele>
        <time>2023-07-22T09:49:55.000Z</time>
      </trkpt>
      <trkpt lat="42.66424" lon="1.49489">
        <ele>2376.1999511719</ele>
        <time>2023-07-22T09:50:00.000Z</time>
      </trkpt>
      <trkpt lat="42.66421" lon="1.49487">
        <ele>2377</ele>
        <time>2023-07-22T09:50:06.000Z</time>
      </trkpt>
      <trkpt lat="42.66421" lon="1.49487">
        <ele>2378</ele>
        <time>2023-07-22T09:50:15.000Z</time>
      </trkpt>
      <trkpt lat="42.66423" lon="1.49485">
        <ele>2379.3999023438</ele>
        <time>2023-07-22T09:50:30.000Z</time>
      </trkpt>
      <trkpt lat="42.66423" lon="1.49484">
        <ele>2380.1999511719</ele>
        <time>2023-07-22T09:50:34.000Z</time>
      </trkpt>
      <trkpt lat="42.66423" lon="1.49483">
        <ele>2380.6000976562</ele>
        <time>2023-07-22T09:50:38.000Z</time>
      </trkpt>
      <trkpt lat="42.66423" lon="1.49482">
        <ele>2381.1999511719</ele>
        <time>2023-07-22T09:50:42.000Z</time>
      </trkpt>
      <trkpt lat="42.66422" lon="1.49482">
        <ele>2381.6000976562</ele>
        <time>2023-07-22T09:50:48.000Z</time>
      </trkpt>
      <trkpt lat="42.66421" lon="1.49484">
        <ele>2381.8000488281</ele>
        <time>2023-07-22T09:51:02.000Z</time>
      </trkpt>
      <trkpt lat="42.66428" lon="1.49484">
        <ele>2382.6000976562</ele>
        <time>2023-07-22T09:51:20.000Z</time>
      </trkpt>
      <trkpt lat="42.66426" lon="1.49483">
        <ele>2383</ele>
        <time>2023-07-22T09:51:27.000Z</time>
      </trkpt>
      <trkpt lat="42.66424" lon="1.4948">
        <ele>2383.3999023438</ele>
        <time>2023-07-22T09:51:30.000Z</time>
      </trkpt>
      <trkpt lat="42.66423" lon="1.4948">
        <ele>2384</ele>
        <time>2023-07-22T09:51:34.000Z</time>
      </trkpt>
      <trkpt lat="42.66427" lon="1.4948">
        <ele>2386.6000976562</ele>
        <time>2023-07-22T09:52:07.000Z</time>
      </trkpt>
      <trkpt lat="42.66412" lon="1.49465">
        <ele>2388.6000976562</ele>
        <time>2023-07-22T09:52:22.000Z</time>
      </trkpt>
      <trkpt lat="42.66415" lon="1.49468">
        <ele>2388.8000488281</ele>
        <time>2023-07-22T09:52:27.000Z</time>
      </trkpt>
      <trkpt lat="42.66416" lon="1.49468">
        <ele>2389.8000488281</ele>
        <time>2023-07-22T09:52:31.000Z</time>
      </trkpt>
      <trkpt lat="42.66417" lon="1.49468">
        <ele>2390</ele>
        <time>2023-07-22T09:52:32.000Z</time>
      </trkpt>
      <trkpt lat="42.66419" lon="1.49469">
        <ele>2391</ele>
        <time>2023-07-22T09:52:37.000Z</time>
      </trkpt>
      <trkpt lat="42.66423" lon="1.49471">
        <ele>2392.3999023438</ele>
        <time>2023-07-22T09:53:03.000Z</time>
      </trkpt>
      <trkpt lat="42.6642" lon="1.49465">
        <ele>2394.8000488281</ele>
        <time>2023-07-22T09:53:27.000Z</time>
      </trkpt>
      <trkpt lat="42.66419" lon="1.49462">
        <ele>2396.1999511719</ele>
        <time>2023-07-22T09:53:39.000Z</time>
      </trkpt>
      <trkpt lat="42.6642" lon="1.49461">
        <ele>2396.3999023438</ele>
        <time>2023-07-22T09:53:42.000Z</time>
      </trkpt>
      <trkpt lat="42.6642" lon="1.49461">
        <ele>2396.6000976562</ele>
        <time>2023-07-22T09:53:46.000Z</time>
      </trkpt>
      <trkpt lat="42.6642" lon="1.49459">
        <ele>2397.6000976562</ele>
        <time>2023-07-22T09:53:51.000Z</time>
      </trkpt>
      <trkpt lat="42.66419" lon="1.49459">
        <ele>2397.8000488281</ele>
        <time>2023-07-22T09:53:54.000Z</time>
      </trkpt>
      <trkpt lat="42.66419" lon="1.49458">
        <ele>2399.3999023438</ele>
        <time>2023-07-22T09:54:07.000Z</time>
      </trkpt>
      <trkpt lat="42.6642" lon="1.49454">
        <ele>2400.8000488281</ele>
        <time>2023-07-22T09:54:20.000Z</time>
      </trkpt>
      <trkpt lat="42.66419" lon="1.49453">
        <ele>2401.1999511719</ele>
        <time>2023-07-22T09:54:24.000Z</time>
      </trkpt>
      <trkpt lat="42.66419" lon="1.49451">
        <ele>2402.8000488281</ele>
        <time>2023-07-22T09:54:52.000Z</time>
      </trkpt>
      <trkpt lat="42.66419" lon="1.49451">
        <ele>2403.3999023438</ele>
        <time>2023-07-22T09:55:08.000Z</time>
      </trkpt>
      <trkpt lat="42.66415" lon="1.49443">
        <ele>2410.3999023438</ele>
        <time>2023-07-22T09:55:54.000Z</time>
      </trkpt>
      <trkpt lat="42.66416" lon="1.49441">
        <ele>2410.6000976562</ele>
        <time>2023-07-22T09:56:02.000Z</time>
      </trkpt>
      <trkpt lat="42.66415" lon="1.49441">
        <ele>2410.8000488281</ele>
        <time>2023-07-22T09:56:03.000Z</time>
      </trkpt>
      <trkpt lat="42.66414" lon="1.49439">
        <ele>2411.8000488281</ele>
        <time>2023-07-22T09:56:07.000Z</time>
      </trkpt>
      <trkpt lat="42.66414" lon="1.49437">
        <ele>2412.3999023438</ele>
        <time>2023-07-22T09:56:11.000Z</time>
      </trkpt>
      <trkpt lat="42.66412" lon="1.49436">
        <ele>2413</ele>
        <time>2023-07-22T09:56:14.000Z</time>
      </trkpt>
      <trkpt lat="42.66412" lon="1.49433">
        <ele>2413.6000976562</ele>
        <time>2023-07-22T09:56:18.000Z</time>
      </trkpt>
      <trkpt lat="42.66411" lon="1.49433">
        <ele>2414.1999511719</ele>
        <time>2023-07-22T09:56:20.000Z</time>
      </trkpt>
      <trkpt lat="42.66413" lon="1.4943">
        <ele>2414.8000488281</ele>
        <time>2023-07-22T09:56:26.000Z</time>
      </trkpt>
      <trkpt lat="42.66413" lon="1.49429">
        <ele>2415.1999511719</ele>
        <time>2023-07-22T09:56:30.000Z</time>
      </trkpt>
      <trkpt lat="42.66413" lon="1.4943">
        <ele>2416</ele>
        <time>2023-07-22T09:56:34.000Z</time>
      </trkpt>
      <trkpt lat="42.66413" lon="1.4943">
        <ele>2416.1999511719</ele>
        <time>2023-07-22T09:56:35.000Z</time>
      </trkpt>
      <trkpt lat="42.66412" lon="1.49424">
        <ele>2417.3999023438</ele>
        <time>2023-07-22T09:56:51.000Z</time>
      </trkpt>
      <trkpt lat="42.66411" lon="1.49422">
        <ele>2418</ele>
        <time>2023-07-22T09:56:58.000Z</time>
      </trkpt>
      <trkpt lat="42.66411" lon="1.49418">
        <ele>2418.3999023438</ele>
        <time>2023-07-22T09:57:03.000Z</time>
      </trkpt>
      <trkpt lat="42.66411" lon="1.49418">
        <ele>2419</ele>
        <time>2023-07-22T09:57:05.000Z</time>
      </trkpt>
      <trkpt lat="42.66411" lon="1.49417">
        <ele>2419.3999023438</ele>
        <time>2023-07-22T09:57:07.000Z</time>
      </trkpt>
      <trkpt lat="42.66412" lon="1.49413">
        <ele>2420.6000976562</ele>
        <time>2023-07-22T09:57:12.000Z</time>
      </trkpt>
      <trkpt lat="42.6641" lon="1.4941">
        <ele>2421.3999023438</ele>
        <time>2023-07-22T09:57:18.000Z</time>
      </trkpt>
      <trkpt lat="42.66407" lon="1.49409">
        <ele>2421.8000488281</ele>
        <time>2023-07-22T09:57:20.000Z</time>
      </trkpt>
      <trkpt lat="42.66406" lon="1.49408">
        <ele>2422.3999023438</ele>
        <time>2023-07-22T09:57:22.000Z</time>
      </trkpt>
      <trkpt lat="42.66405" lon="1.49403">
        <ele>2423.1999511719</ele>
        <time>2023-07-22T09:57:28.000Z</time>
      </trkpt>
      <trkpt lat="42.66405" lon="1.49402">
        <ele>2423.6000976562</ele>
        <time>2023-07-22T09:57:29.000Z</time>
      </trkpt>
      <trkpt lat="42.66404" lon="1.49401">
        <ele>2423.8000488281</ele>
        <time>2023-07-22T09:57:32.000Z</time>
      </trkpt>
      <trkpt lat="42.66401" lon="1.49398">
        <ele>2424.3999023438</ele>
        <time>2023-07-22T09:57:37.000Z</time>
      </trkpt>
      <trkpt lat="42.664" lon="1.49392">
        <ele>2425</ele>
        <time>2023-07-22T09:57:41.000Z</time>
      </trkpt>
      <trkpt lat="42.66398" lon="1.4939">
        <ele>2425.3999023438</ele>
        <time>2023-07-22T09:57:44.000Z</time>
      </trkpt>
      <trkpt lat="42.66395" lon="1.49388">
        <ele>2426.1999511719</ele>
        <time>2023-07-22T09:57:49.000Z</time>
      </trkpt>
      <trkpt lat="42.66394" lon="1.49385">
        <ele>2426.8000488281</ele>
        <time>2023-07-22T09:57:55.000Z</time>
      </trkpt>
      <trkpt lat="42.66393" lon="1.49383">
        <ele>2426.8000488281</ele>
        <time>2023-07-22T09:57:57.000Z</time>
      </trkpt>
      <trkpt lat="42.66392" lon="1.49381">
        <ele>2427.6000976562</ele>
        <time>2023-07-22T09:58:01.000Z</time>
      </trkpt>
      <trkpt lat="42.66391" lon="1.49377">
        <ele>2428.3999023438</ele>
        <time>2023-07-22T09:58:05.000Z</time>
      </trkpt>
      <trkpt lat="42.66389" lon="1.49373">
        <ele>2428.6000976562</ele>
        <time>2023-07-22T09:58:11.000Z</time>
      </trkpt>
      <trkpt lat="42.66389" lon="1.49373">
        <ele>2428.8000488281</ele>
        <time>2023-07-22T09:58:12.000Z</time>
      </trkpt>
      <trkpt lat="42.66387" lon="1.49366">
        <ele>2429.6000976562</ele>
        <time>2023-07-22T09:58:23.000Z</time>
      </trkpt>
      <trkpt lat="42.66388" lon="1.49364">
        <ele>2430.8000488281</ele>
        <time>2023-07-22T09:58:27.000Z</time>
      </trkpt>
      <trkpt lat="42.66387" lon="1.49362">
        <ele>2431.1999511719</ele>
        <time>2023-07-22T09:58:31.000Z</time>
      </trkpt>
      <trkpt lat="42.66387" lon="1.49361">
        <ele>2432</ele>
        <time>2023-07-22T09:58:33.000Z</time>
      </trkpt>
      <trkpt lat="42.66387" lon="1.49354">
        <ele>2432.1999511719</ele>
        <time>2023-07-22T09:58:39.000Z</time>
      </trkpt>
      <trkpt lat="42.66385" lon="1.49346">
        <ele>2432.6000976562</ele>
        <time>2023-07-22T09:58:47.000Z</time>
      </trkpt>
      <trkpt lat="42.6638" lon="1.49338">
        <ele>2431.8000488281</ele>
        <time>2023-07-22T09:58:54.000Z</time>
      </trkpt>
      <trkpt lat="42.66376" lon="1.49329">
        <ele>2431.1999511719</ele>
        <time>2023-07-22T09:59:01.000Z</time>
      </trkpt>
      <trkpt lat="42.66375" lon="1.49326">
        <ele>2430.8000488281</ele>
        <time>2023-07-22T09:59:02.000Z</time>
      </trkpt>
      <trkpt lat="42.66371" lon="1.49319">
        <ele>2430.1999511719</ele>
        <time>2023-07-22T09:59:09.000Z</time>
      </trkpt>
      <trkpt lat="42.66368" lon="1.49316">
        <ele>2431</ele>
        <time>2023-07-22T09:59:15.000Z</time>
      </trkpt>
      <trkpt lat="42.66368" lon="1.49318">
        <ele>2430.3999023438</ele>
        <time>2023-07-22T09:59:16.000Z</time>
      </trkpt>
      <trkpt lat="42.66368" lon="1.49318">
        <ele>2430.1999511719</ele>
        <time>2023-07-22T09:59:21.000Z</time>
      </trkpt>
      <trkpt lat="42.66365" lon="1.49316">
        <ele>2430.6000976562</ele>
        <time>2023-07-22T09:59:30.000Z</time>
      </trkpt>
      <trkpt lat="42.66369" lon="1.4932">
        <ele>2430.8000488281</ele>
        <time>2023-07-22T09:59:38.000Z</time>
      </trkpt>
      <trkpt lat="42.66369" lon="1.49315">
        <ele>2431</ele>
        <time>2023-07-22T09:59:45.000Z</time>
      </trkpt>
      <trkpt lat="42.66366" lon="1.49313">
        <ele>2431.1999511719</ele>
        <time>2023-07-22T09:59:51.000Z</time>
      </trkpt>
      <trkpt lat="42.66366" lon="1.49313">
        <ele>2432</ele>
        <time>2023-07-22T09:59:52.000Z</time>
      </trkpt>
      <trkpt lat="42.66365" lon="1.49312">
        <ele>2431.8000488281</ele>
        <time>2023-07-22T09:59:57.000Z</time>
      </trkpt>
      <trkpt lat="42.66364" lon="1.49309">
        <ele>2430.6000976562</ele>
        <time>2023-07-22T10:00:00.000Z</time>
      </trkpt>
      <trkpt lat="42.66364" lon="1.49306">
        <ele>2430</ele>
        <time>2023-07-22T10:00:02.000Z</time>
      </trkpt>
      <trkpt lat="42.66364" lon="1.49305">
        <ele>2429.6000976562</ele>
        <time>2023-07-22T10:00:03.000Z</time>
      </trkpt>
      <trkpt lat="42.66363" lon="1.49302">
        <ele>2428.3999023438</ele>
        <time>2023-07-22T10:00:07.000Z</time>
      </trkpt>
      <trkpt lat="42.66363" lon="1.493">
        <ele>2428.1999511719</ele>
        <time>2023-07-22T10:00:09.000Z</time>
      </trkpt>
      <trkpt lat="42.66363" lon="1.49297">
        <ele>2427.3999023438</ele>
        <time>2023-07-22T10:00:13.000Z</time>
      </trkpt>
      <trkpt lat="42.66363" lon="1.49293">
        <ele>2426.3999023438</ele>
        <time>2023-07-22T10:00:17.000Z</time>
      </trkpt>
      <trkpt lat="42.66363" lon="1.49292">
        <ele>2426.1999511719</ele>
        <time>2023-07-22T10:00:18.000Z</time>
      </trkpt>
      <trkpt lat="42.66363" lon="1.4929">
        <ele>2425.1999511719</ele>
        <time>2023-07-22T10:00:22.000Z</time>
      </trkpt>
      <trkpt lat="42.66362" lon="1.49285">
        <ele>2424.3999023438</ele>
        <time>2023-07-22T10:00:26.000Z</time>
      </trkpt>
      <trkpt lat="42.66358" lon="1.4928">
        <ele>2424.6000976562</ele>
        <time>2023-07-22T10:00:32.000Z</time>
      </trkpt>
      <trkpt lat="42.6635" lon="1.49274">
        <ele>2424.8000488281</ele>
        <time>2023-07-22T10:00:43.000Z</time>
      </trkpt>
      <trkpt lat="42.6635" lon="1.49274">
        <ele>2425.1999511719</ele>
        <time>2023-07-22T10:00:44.000Z</time>
      </trkpt>
      <trkpt lat="42.6635" lon="1.49275">
        <ele>2426.1999511719</ele>
        <time>2023-07-22T10:00:54.000Z</time>
      </trkpt>
      <trkpt lat="42.66352" lon="1.49275">
        <ele>2425.1999511719</ele>
        <time>2023-07-22T10:01:03.000Z</time>
      </trkpt>
      <trkpt lat="42.66346" lon="1.4927">
        <ele>2425.6000976562</ele>
        <time>2023-07-22T10:01:17.000Z</time>
      </trkpt>
      <trkpt lat="42.66346" lon="1.49268">
        <ele>2426.6000976562</ele>
        <time>2023-07-22T10:01:21.000Z</time>
      </trkpt>
      <trkpt lat="42.66348" lon="1.49266">
        <ele>2427.6000976562</ele>
        <time>2023-07-22T10:01:29.000Z</time>
      </trkpt>
      <trkpt lat="42.66349" lon="1.49265">
        <ele>2428</ele>
        <time>2023-07-22T10:01:35.000Z</time>
      </trkpt>
      <trkpt lat="42.66349" lon="1.49264">
        <ele>2428.8000488281</ele>
        <time>2023-07-22T10:01:41.000Z</time>
      </trkpt>
      <trkpt lat="42.66348" lon="1.49264">
        <ele>2429</ele>
        <time>2023-07-22T10:01:43.000Z</time>
      </trkpt>
      <trkpt lat="42.66346" lon="1.4926">
        <ele>2429.8000488281</ele>
        <time>2023-07-22T10:01:50.000Z</time>
      </trkpt>
      <trkpt lat="42.66346" lon="1.4926">
        <ele>2429.8000488281</ele>
        <time>2023-07-22T10:01:51.000Z</time>
      </trkpt>
      <trkpt lat="42.66345" lon="1.49256">
        <ele>2431</ele>
        <time>2023-07-22T10:02:03.000Z</time>
      </trkpt>
      <trkpt lat="42.66345" lon="1.49259">
        <ele>2430.1999511719</ele>
        <time>2023-07-22T10:02:11.000Z</time>
      </trkpt>
      <trkpt lat="42.66343" lon="1.4925">
        <ele>2430.1999511719</ele>
        <time>2023-07-22T10:02:34.000Z</time>
      </trkpt>
      <trkpt lat="42.66342" lon="1.49239">
        <ele>2429</ele>
        <time>2023-07-22T10:02:40.000Z</time>
      </trkpt>
      <trkpt lat="42.66344" lon="1.49231">
        <ele>2430</ele>
        <time>2023-07-22T10:02:47.000Z</time>
      </trkpt>
      <trkpt lat="42.66347" lon="1.49228">
        <ele>2430.8000488281</ele>
        <time>2023-07-22T10:02:53.000Z</time>
      </trkpt>
      <trkpt lat="42.66347" lon="1.49227">
        <ele>2430.8000488281</ele>
        <time>2023-07-22T10:02:57.000Z</time>
      </trkpt>
      <trkpt lat="42.66344" lon="1.49226">
        <ele>2431</ele>
        <time>2023-07-22T10:03:02.000Z</time>
      </trkpt>
      <trkpt lat="42.66341" lon="1.4922">
        <ele>2429.3999023438</ele>
        <time>2023-07-22T10:03:13.000Z</time>
      </trkpt>
      <trkpt lat="42.66342" lon="1.49219">
        <ele>2428.6000976562</ele>
        <time>2023-07-22T10:03:15.000Z</time>
      </trkpt>
      <trkpt lat="42.66342" lon="1.49218">
        <ele>2428.3999023438</ele>
        <time>2023-07-22T10:03:16.000Z</time>
      </trkpt>
      <trkpt lat="42.66344" lon="1.49212">
        <ele>2427.1999511719</ele>
        <time>2023-07-22T10:03:21.000Z</time>
      </trkpt>
      <trkpt lat="42.66346" lon="1.49204">
        <ele>2426.3999023438</ele>
        <time>2023-07-22T10:03:29.000Z</time>
      </trkpt>
      <trkpt lat="42.66344" lon="1.492">
        <ele>2427</ele>
        <time>2023-07-22T10:03:39.000Z</time>
      </trkpt>
      <trkpt lat="42.66343" lon="1.49192">
        <ele>2427</ele>
        <time>2023-07-22T10:03:47.000Z</time>
      </trkpt>
      <trkpt lat="42.66342" lon="1.49187">
        <ele>2427.8000488281</ele>
        <time>2023-07-22T10:03:54.000Z</time>
      </trkpt>
      <trkpt lat="42.66341" lon="1.49186">
        <ele>2428.1999511719</ele>
        <time>2023-07-22T10:03:57.000Z</time>
      </trkpt>
      <trkpt lat="42.6634" lon="1.49181">
        <ele>2429.3999023438</ele>
        <time>2023-07-22T10:04:01.000Z</time>
      </trkpt>
      <trkpt lat="42.6634" lon="1.4918">
        <ele>2429.8000488281</ele>
        <time>2023-07-22T10:04:02.000Z</time>
      </trkpt>
      <trkpt lat="42.66339" lon="1.49176">
        <ele>2430.6000976562</ele>
        <time>2023-07-22T10:04:05.000Z</time>
      </trkpt>
      <trkpt lat="42.66339" lon="1.49174">
        <ele>2431.8000488281</ele>
        <time>2023-07-22T10:04:10.000Z</time>
      </trkpt>
      <trkpt lat="42.6634" lon="1.49174">
        <ele>2433</ele>
        <time>2023-07-22T10:04:15.000Z</time>
      </trkpt>
      <trkpt lat="42.66342" lon="1.49174">
        <ele>2433.3999023438</ele>
        <time>2023-07-22T10:04:17.000Z</time>
      </trkpt>
      <trkpt lat="42.66341" lon="1.49171">
        <ele>2434</ele>
        <time>2023-07-22T10:04:21.000Z</time>
      </trkpt>
      <trkpt lat="42.6634" lon="1.49171">
        <ele>2434.6000976562</ele>
        <time>2023-07-22T10:04:24.000Z</time>
      </trkpt>
      <trkpt lat="42.66339" lon="1.49171">
        <ele>2435</ele>
        <time>2023-07-22T10:04:26.000Z</time>
      </trkpt>
      <trkpt lat="42.66336" lon="1.4917">
        <ele>2435.1999511719</ele>
        <time>2023-07-22T10:04:32.000Z</time>
      </trkpt>
      <trkpt lat="42.66333" lon="1.49166">
        <ele>2435</ele>
        <time>2023-07-22T10:04:39.000Z</time>
      </trkpt>
      <trkpt lat="42.66331" lon="1.49162">
        <ele>2436</ele>
        <time>2023-07-22T10:04:47.000Z</time>
      </trkpt>
      <trkpt lat="42.66329" lon="1.4916">
        <ele>2436.1999511719</ele>
        <time>2023-07-22T10:04:49.000Z</time>
      </trkpt>
      <trkpt lat="42.66327" lon="1.49157">
        <ele>2436.3999023438</ele>
        <time>2023-07-22T10:04:54.000Z</time>
      </trkpt>
      <trkpt lat="42.66326" lon="1.49155">
        <ele>2436.8000488281</ele>
        <time>2023-07-22T10:05:01.000Z</time>
      </trkpt>
      <trkpt lat="42.66321" lon="1.49148">
        <ele>2436.3999023438</ele>
        <time>2023-07-22T10:05:16.000Z</time>
      </trkpt>
      <trkpt lat="42.66321" lon="1.49146">
        <ele>2437.3999023438</ele>
        <time>2023-07-22T10:05:21.000Z</time>
      </trkpt>
      <trkpt lat="42.66321" lon="1.49145">
        <ele>2438.3999023438</ele>
        <time>2023-07-22T10:05:24.000Z</time>
      </trkpt>
      <trkpt lat="42.66322" lon="1.49143">
        <ele>2438.8000488281</ele>
        <time>2023-07-22T10:05:27.000Z</time>
      </trkpt>
      <trkpt lat="42.66327" lon="1.49142">
        <ele>2439</ele>
        <time>2023-07-22T10:05:35.000Z</time>
      </trkpt>
      <trkpt lat="42.66325" lon="1.49145">
        <ele>2439</ele>
        <time>2023-07-22T10:06:02.000Z</time>
      </trkpt>
      <trkpt lat="42.66326" lon="1.49143">
        <ele>2438.8000488281</ele>
        <time>2023-07-22T10:06:09.000Z</time>
      </trkpt>
      <trkpt lat="42.66327" lon="1.4914">
        <ele>2438.6000976562</ele>
        <time>2023-07-22T10:06:16.000Z</time>
      </trkpt>
      <trkpt lat="42.66322" lon="1.49137">
        <ele>2438</ele>
        <time>2023-07-22T10:06:35.000Z</time>
      </trkpt>
      <trkpt lat="42.66324" lon="1.49141">
        <ele>2438.1999511719</ele>
        <time>2023-07-22T10:06:40.000Z</time>
      </trkpt>
      <trkpt lat="42.66329" lon="1.49145">
        <ele>2438.1999511719</ele>
        <time>2023-07-22T10:06:59.000Z</time>
      </trkpt>
      <trkpt lat="42.66325" lon="1.49141">
        <ele>2438.6000976562</ele>
        <time>2023-07-22T10:07:05.000Z</time>
      </trkpt>
      <trkpt lat="42.66323" lon="1.49136">
        <ele>2439.3999023438</ele>
        <time>2023-07-22T10:07:11.000Z</time>
      </trkpt>
      <trkpt lat="42.66323" lon="1.49136">
        <ele>2439.6000976562</ele>
        <time>2023-07-22T10:07:12.000Z</time>
      </trkpt>
      <trkpt lat="42.66323" lon="1.49135">
        <ele>2440.1999511719</ele>
        <time>2023-07-22T10:07:20.000Z</time>
      </trkpt>
      <trkpt lat="42.66324" lon="1.49134">
        <ele>2440.3999023438</ele>
        <time>2023-07-22T10:07:22.000Z</time>
      </trkpt>
      <trkpt lat="42.66325" lon="1.49135">
        <ele>2440.8000488281</ele>
        <time>2023-07-22T10:07:27.000Z</time>
      </trkpt>
      <trkpt lat="42.66332" lon="1.49132">
        <ele>2442.6000976562</ele>
        <time>2023-07-22T10:07:40.000Z</time>
      </trkpt>
      <trkpt lat="42.66331" lon="1.4913">
        <ele>2442.8000488281</ele>
        <time>2023-07-22T10:07:41.000Z</time>
      </trkpt>
      <trkpt lat="42.6633" lon="1.49129">
        <ele>2442.8000488281</ele>
        <time>2023-07-22T10:07:42.000Z</time>
      </trkpt>
      <trkpt lat="42.66327" lon="1.49124">
        <ele>2444</ele>
        <time>2023-07-22T10:07:48.000Z</time>
      </trkpt>
      <trkpt lat="42.66327" lon="1.49124">
        <ele>2443.8000488281</ele>
        <time>2023-07-22T10:07:50.000Z</time>
      </trkpt>
      <trkpt lat="42.66324" lon="1.4912">
        <ele>2443.3999023438</ele>
        <time>2023-07-22T10:07:58.000Z</time>
      </trkpt>
      <trkpt lat="42.66321" lon="1.49115">
        <ele>2443</ele>
        <time>2023-07-22T10:08:05.000Z</time>
      </trkpt>
      <trkpt lat="42.66322" lon="1.49111">
        <ele>2444.6000976562</ele>
        <time>2023-07-22T10:08:14.000Z</time>
      </trkpt>
      <trkpt lat="42.66323" lon="1.4911">
        <ele>2445</ele>
        <time>2023-07-22T10:08:16.000Z</time>
      </trkpt>
      <trkpt lat="42.66325" lon="1.49108">
        <ele>2445.3999023438</ele>
        <time>2023-07-22T10:08:22.000Z</time>
      </trkpt>
      <trkpt lat="42.66326" lon="1.49105">
        <ele>2446.3999023438</ele>
        <time>2023-07-22T10:08:26.000Z</time>
      </trkpt>
      <trkpt lat="42.66326" lon="1.49099">
        <ele>2446.6000976562</ele>
        <time>2023-07-22T10:08:31.000Z</time>
      </trkpt>
      <trkpt lat="42.66326" lon="1.49095">
        <ele>2447</ele>
        <time>2023-07-22T10:08:37.000Z</time>
      </trkpt>
      <trkpt lat="42.66325" lon="1.49088">
        <ele>2447</ele>
        <time>2023-07-22T10:08:44.000Z</time>
      </trkpt>
      <trkpt lat="42.66327" lon="1.49082">
        <ele>2447.1999511719</ele>
        <time>2023-07-22T10:08:53.000Z</time>
      </trkpt>
      <trkpt lat="42.6633" lon="1.49077">
        <ele>2445.8000488281</ele>
        <time>2023-07-22T10:09:02.000Z</time>
      </trkpt>
      <trkpt lat="42.6633" lon="1.49075">
        <ele>2445.3999023438</ele>
        <time>2023-07-22T10:09:04.000Z</time>
      </trkpt>
      <trkpt lat="42.6633" lon="1.49073">
        <ele>2444.1999511719</ele>
        <time>2023-07-22T10:09:09.000Z</time>
      </trkpt>
      <trkpt lat="42.66331" lon="1.49067">
        <ele>2442.8000488281</ele>
        <time>2023-07-22T10:09:16.000Z</time>
      </trkpt>
      <trkpt lat="42.66331" lon="1.49067">
        <ele>2442.6000976562</ele>
        <time>2023-07-22T10:09:17.000Z</time>
      </trkpt>
      <trkpt lat="42.66333" lon="1.49062">
        <ele>2442.1999511719</ele>
        <time>2023-07-22T10:09:23.000Z</time>
      </trkpt>
      <trkpt lat="42.66333" lon="1.49063">
        <ele>2441.8000488281</ele>
        <time>2023-07-22T10:09:25.000Z</time>
      </trkpt>
      <trkpt lat="42.66331" lon="1.49063">
        <ele>2441.6000976562</ele>
        <time>2023-07-22T10:09:29.000Z</time>
      </trkpt>
      <trkpt lat="42.6633" lon="1.49062">
        <ele>2440.8000488281</ele>
        <time>2023-07-22T10:09:34.000Z</time>
      </trkpt>
      <trkpt lat="42.66331" lon="1.49061">
        <ele>2440.8000488281</ele>
        <time>2023-07-22T10:09:36.000Z</time>
      </trkpt>
      <trkpt lat="42.66327" lon="1.4906">
        <ele>2440</ele>
        <time>2023-07-22T10:09:45.000Z</time>
      </trkpt>
      <trkpt lat="42.6633" lon="1.49057">
        <ele>2442</ele>
        <time>2023-07-22T10:09:58.000Z</time>
      </trkpt>
      <trkpt lat="42.66329" lon="1.49057">
        <ele>2443</ele>
        <time>2023-07-22T10:10:00.000Z</time>
      </trkpt>
      <trkpt lat="42.66328" lon="1.49057">
        <ele>2442</ele>
        <time>2023-07-22T10:10:04.000Z</time>
      </trkpt>
      <trkpt lat="42.66328" lon="1.49056">
        <ele>2441.6000976562</ele>
        <time>2023-07-22T10:10:06.000Z</time>
      </trkpt>
      <trkpt lat="42.66332" lon="1.49056">
        <ele>2437.8000488281</ele>
        <time>2023-07-22T10:10:14.000Z</time>
      </trkpt>
      <trkpt lat="42.66334" lon="1.49055">
        <ele>2437.3999023438</ele>
        <time>2023-07-22T10:10:18.000Z</time>
      </trkpt>
      <trkpt lat="42.66336" lon="1.49053">
        <ele>2437.1999511719</ele>
        <time>2023-07-22T10:10:21.000Z</time>
      </trkpt>
      <trkpt lat="42.66337" lon="1.49048">
        <ele>2436.3999023438</ele>
        <time>2023-07-22T10:10:27.000Z</time>
      </trkpt>
      <trkpt lat="42.66338" lon="1.49047">
        <ele>2435.8000488281</ele>
        <time>2023-07-22T10:10:29.000Z</time>
      </trkpt>
      <trkpt lat="42.66339" lon="1.49047">
        <ele>2435</ele>
        <time>2023-07-22T10:10:32.000Z</time>
      </trkpt>
      <trkpt lat="42.66339" lon="1.49049">
        <ele>2434.8000488281</ele>
        <time>2023-07-22T10:10:36.000Z</time>
      </trkpt>
      <trkpt lat="42.66345" lon="1.49048">
        <ele>2433</ele>
        <time>2023-07-22T10:10:57.000Z</time>
      </trkpt>
      <trkpt lat="42.66338" lon="1.4905">
        <ele>2432.1999511719</ele>
        <time>2023-07-22T10:11:08.000Z</time>
      </trkpt>
      <trkpt lat="42.66339" lon="1.4905">
        <ele>2431.6000976562</ele>
        <time>2023-07-22T10:11:09.000Z</time>
      </trkpt>
      <trkpt lat="42.66338" lon="1.4905">
        <ele>2430.3999023438</ele>
        <time>2023-07-22T10:11:14.000Z</time>
      </trkpt>
      <trkpt lat="42.66338" lon="1.4905">
        <ele>2430.3999023438</ele>
        <time>2023-07-22T10:11:15.000Z</time>
      </trkpt>
      <trkpt lat="42.66336" lon="1.49049">
        <ele>2430.6000976562</ele>
        <time>2023-07-22T10:11:23.000Z</time>
      </trkpt>
      <trkpt lat="42.66337" lon="1.49048">
        <ele>2430.3999023438</ele>
        <time>2023-07-22T10:11:27.000Z</time>
      </trkpt>
      <trkpt lat="42.66336" lon="1.49047">
        <ele>2430</ele>
        <time>2023-07-22T10:11:32.000Z</time>
      </trkpt>
      <trkpt lat="42.66339" lon="1.4904">
        <ele>2428.1999511719</ele>
        <time>2023-07-22T10:11:45.000Z</time>
      </trkpt>
      <trkpt lat="42.66339" lon="1.49038">
        <ele>2428</ele>
        <time>2023-07-22T10:11:47.000Z</time>
      </trkpt>
      <trkpt lat="42.66341" lon="1.49038">
        <ele>2427</ele>
        <time>2023-07-22T10:11:52.000Z</time>
      </trkpt>
      <trkpt lat="42.66342" lon="1.49037">
        <ele>2426.8000488281</ele>
        <time>2023-07-22T10:11:53.000Z</time>
      </trkpt>
      <trkpt lat="42.66344" lon="1.49036">
        <ele>2425.8000488281</ele>
        <time>2023-07-22T10:11:57.000Z</time>
      </trkpt>
      <trkpt lat="42.66348" lon="1.49035">
        <ele>2425.1999511719</ele>
        <time>2023-07-22T10:12:01.000Z</time>
      </trkpt>
      <trkpt lat="42.66352" lon="1.49035">
        <ele>2424.6000976562</ele>
        <time>2023-07-22T10:12:04.000Z</time>
      </trkpt>
      <trkpt lat="42.66357" lon="1.49034">
        <ele>2423.3999023438</ele>
        <time>2023-07-22T10:12:10.000Z</time>
      </trkpt>
      <trkpt lat="42.66359" lon="1.49034">
        <ele>2423.3999023438</ele>
        <time>2023-07-22T10:12:11.000Z</time>
      </trkpt>
      <trkpt lat="42.6637" lon="1.49033">
        <ele>2423.8000488281</ele>
        <time>2023-07-22T10:12:22.000Z</time>
      </trkpt>
      <trkpt lat="42.66373" lon="1.49032">
        <ele>2422.3999023438</ele>
        <time>2023-07-22T10:12:26.000Z</time>
      </trkpt>
      <trkpt lat="42.66374" lon="1.49032">
        <ele>2422.1999511719</ele>
        <time>2023-07-22T10:12:28.000Z</time>
      </trkpt>
      <trkpt lat="42.66375" lon="1.49033">
        <ele>2421.1999511719</ele>
        <time>2023-07-22T10:12:33.000Z</time>
      </trkpt>
      <trkpt lat="42.66379" lon="1.49035">
        <ele>2420.1999511719</ele>
        <time>2023-07-22T10:12:36.000Z</time>
      </trkpt>
      <trkpt lat="42.66389" lon="1.49039">
        <ele>2420</ele>
        <time>2023-07-22T10:12:43.000Z</time>
      </trkpt>
      <trkpt lat="42.66398" lon="1.4904">
        <ele>2420.1999511719</ele>
        <time>2023-07-22T10:12:51.000Z</time>
      </trkpt>
      <trkpt lat="42.66404" lon="1.49041">
        <ele>2420.8000488281</ele>
        <time>2023-07-22T10:12:57.000Z</time>
      </trkpt>
      <trkpt lat="42.66409" lon="1.49042">
        <ele>2421.1999511719</ele>
        <time>2023-07-22T10:13:03.000Z</time>
      </trkpt>
      <trkpt lat="42.66413" lon="1.49042">
        <ele>2421.8000488281</ele>
        <time>2023-07-22T10:13:07.000Z</time>
      </trkpt>
      <trkpt lat="42.66418" lon="1.49039">
        <ele>2421.3999023438</ele>
        <time>2023-07-22T10:13:15.000Z</time>
      </trkpt>
      <trkpt lat="42.66423" lon="1.49042">
        <ele>2421.3999023438</ele>
        <time>2023-07-22T10:13:24.000Z</time>
      </trkpt>
      <trkpt lat="42.66424" lon="1.4904">
        <ele>2420.1999511719</ele>
        <time>2023-07-22T10:13:31.000Z</time>
      </trkpt>
      <trkpt lat="42.66424" lon="1.4904">
        <ele>2420</ele>
        <time>2023-07-22T10:13:32.000Z</time>
      </trkpt>
      <trkpt lat="42.66424" lon="1.49038">
        <ele>2419.3999023438</ele>
        <time>2023-07-22T10:13:38.000Z</time>
      </trkpt>
      <trkpt lat="42.66422" lon="1.49037">
        <ele>2419.1999511719</ele>
        <time>2023-07-22T10:13:40.000Z</time>
      </trkpt>
      <trkpt lat="42.66422" lon="1.49036">
        <ele>2418.8000488281</ele>
        <time>2023-07-22T10:13:45.000Z</time>
      </trkpt>
      <trkpt lat="42.66421" lon="1.49038">
        <ele>2418.3999023438</ele>
        <time>2023-07-22T10:13:51.000Z</time>
      </trkpt>
      <trkpt lat="42.66421" lon="1.49041">
        <ele>2418</ele>
        <time>2023-07-22T10:13:58.000Z</time>
      </trkpt>
      <trkpt lat="42.66421" lon="1.4904">
        <ele>2417.8000488281</ele>
        <time>2023-07-22T10:13:59.000Z</time>
      </trkpt>
      <trkpt lat="42.66422" lon="1.49036">
        <ele>2417.6000976562</ele>
        <time>2023-07-22T10:14:03.000Z</time>
      </trkpt>
      <trkpt lat="42.66425" lon="1.4903">
        <ele>2417</ele>
        <time>2023-07-22T10:14:08.000Z</time>
      </trkpt>
      <trkpt lat="42.66427" lon="1.49026">
        <ele>2417</ele>
        <time>2023-07-22T10:14:10.000Z</time>
      </trkpt>
      <trkpt lat="42.66431" lon="1.49022">
        <ele>2417</ele>
        <time>2023-07-22T10:14:16.000Z</time>
      </trkpt>
      <trkpt lat="42.66435" lon="1.49019">
        <ele>2417.3999023438</ele>
        <time>2023-07-22T10:14:26.000Z</time>
      </trkpt>
      <trkpt lat="42.66436" lon="1.49018">
        <ele>2417.6000976562</ele>
        <time>2023-07-22T10:14:27.000Z</time>
      </trkpt>
      <trkpt lat="42.66435" lon="1.49016">
        <ele>2417.8000488281</ele>
        <time>2023-07-22T10:14:29.000Z</time>
      </trkpt>
      <trkpt lat="42.66434" lon="1.49016">
        <ele>2418.1999511719</ele>
        <time>2023-07-22T10:14:31.000Z</time>
      </trkpt>
      <trkpt lat="42.66432" lon="1.49013">
        <ele>2418.6000976562</ele>
        <time>2023-07-22T10:14:34.000Z</time>
      </trkpt>
      <trkpt lat="42.66429" lon="1.49006">
        <ele>2418.6000976562</ele>
        <time>2023-07-22T10:14:42.000Z</time>
      </trkpt>
      <trkpt lat="42.66429" lon="1.49002">
        <ele>2419.1999511719</ele>
        <time>2023-07-22T10:14:47.000Z</time>
      </trkpt>
      <trkpt lat="42.66429" lon="1.49001">
        <ele>2419.6000976562</ele>
        <time>2023-07-22T10:14:48.000Z</time>
      </trkpt>
      <trkpt lat="42.66429" lon="1.49001">
        <ele>2420.1999511719</ele>
        <time>2023-07-22T10:14:56.000Z</time>
      </trkpt>
      <trkpt lat="42.6643" lon="1.48999">
        <ele>2420.3999023438</ele>
        <time>2023-07-22T10:14:59.000Z</time>
      </trkpt>
      <trkpt lat="42.66431" lon="1.48996">
        <ele>2420.8000488281</ele>
        <time>2023-07-22T10:15:04.000Z</time>
      </trkpt>
      <trkpt lat="42.66431" lon="1.48995">
        <ele>2421.6000976562</ele>
        <time>2023-07-22T10:15:07.000Z</time>
      </trkpt>
      <trkpt lat="42.66431" lon="1.48993">
        <ele>2422.1999511719</ele>
        <time>2023-07-22T10:15:11.000Z</time>
      </trkpt>
      <trkpt lat="42.6643" lon="1.48993">
        <ele>2422.6000976562</ele>
        <time>2023-07-22T10:15:12.000Z</time>
      </trkpt>
      <trkpt lat="42.66429" lon="1.48989">
        <ele>2422.3999023438</ele>
        <time>2023-07-22T10:15:18.000Z</time>
      </trkpt>
      <trkpt lat="42.6643" lon="1.48988">
        <ele>2423.6000976562</ele>
        <time>2023-07-22T10:15:25.000Z</time>
      </trkpt>
      <trkpt lat="42.66429" lon="1.48986">
        <ele>2423.3999023438</ele>
        <time>2023-07-22T10:15:33.000Z</time>
      </trkpt>
      <trkpt lat="42.66429" lon="1.48988">
        <ele>2423.8000488281</ele>
        <time>2023-07-22T10:15:36.000Z</time>
      </trkpt>
      <trkpt lat="42.66428" lon="1.48992">
        <ele>2424.3999023438</ele>
        <time>2023-07-22T10:15:41.000Z</time>
      </trkpt>
      <trkpt lat="42.66429" lon="1.48988">
        <ele>2424.6000976562</ele>
        <time>2023-07-22T10:15:48.000Z</time>
      </trkpt>
      <trkpt lat="42.66431" lon="1.48986">
        <ele>2424.8000488281</ele>
        <time>2023-07-22T10:15:53.000Z</time>
      </trkpt>
      <trkpt lat="42.66431" lon="1.48987">
        <ele>2425</ele>
        <time>2023-07-22T10:15:55.000Z</time>
      </trkpt>
      <trkpt lat="42.66432" lon="1.48988">
        <ele>2426</ele>
        <time>2023-07-22T10:16:00.000Z</time>
      </trkpt>
      <trkpt lat="42.66434" lon="1.48989">
        <ele>2426.6000976562</ele>
        <time>2023-07-22T10:16:03.000Z</time>
      </trkpt>
      <trkpt lat="42.66435" lon="1.48989">
        <ele>2427</ele>
        <time>2023-07-22T10:16:05.000Z</time>
      </trkpt>
      <trkpt lat="42.66436" lon="1.48989">
        <ele>2428.1999511719</ele>
        <time>2023-07-22T10:16:10.000Z</time>
      </trkpt>
      <trkpt lat="42.66436" lon="1.4899">
        <ele>2428.1999511719</ele>
        <time>2023-07-22T10:16:11.000Z</time>
      </trkpt>
      <trkpt lat="42.66437" lon="1.48993">
        <ele>2429.3999023438</ele>
        <time>2023-07-22T10:16:17.000Z</time>
      </trkpt>
      <trkpt lat="42.6644" lon="1.48997">
        <ele>2430.3999023438</ele>
        <time>2023-07-22T10:16:25.000Z</time>
      </trkpt>
      <trkpt lat="42.66441" lon="1.48998">
        <ele>2431.6000976562</ele>
        <time>2023-07-22T10:16:29.000Z</time>
      </trkpt>
      <trkpt lat="42.66442" lon="1.48998">
        <ele>2432.1999511719</ele>
        <time>2023-07-22T10:16:31.000Z</time>
      </trkpt>
      <trkpt lat="42.66442" lon="1.48998">
        <ele>2432.6000976562</ele>
        <time>2023-07-22T10:16:33.000Z</time>
      </trkpt>
      <trkpt lat="42.66442" lon="1.48999">
        <ele>2433.8000488281</ele>
        <time>2023-07-22T10:16:37.000Z</time>
      </trkpt>
      <trkpt lat="42.66442" lon="1.48999">
        <ele>2434.3999023438</ele>
        <time>2023-07-22T10:16:38.000Z</time>
      </trkpt>
      <trkpt lat="42.66442" lon="1.48997">
        <ele>2434.8000488281</ele>
        <time>2023-07-22T10:16:46.000Z</time>
      </trkpt>
      <trkpt lat="42.66443" lon="1.48997">
        <ele>2434.8000488281</ele>
        <time>2023-07-22T10:16:47.000Z</time>
      </trkpt>
      <trkpt lat="42.66447" lon="1.48993">
        <ele>2435.8000488281</ele>
        <time>2023-07-22T10:16:52.000Z</time>
      </trkpt>
      <trkpt lat="42.66449" lon="1.48993">
        <ele>2435.8000488281</ele>
        <time>2023-07-22T10:16:53.000Z</time>
      </trkpt>
      <trkpt lat="42.66452" lon="1.48995">
        <ele>2436</ele>
        <time>2023-07-22T10:16:58.000Z</time>
      </trkpt>
      <trkpt lat="42.66453" lon="1.48994">
        <ele>2436.8000488281</ele>
        <time>2023-07-22T10:17:05.000Z</time>
      </trkpt>
      <trkpt lat="42.66453" lon="1.48993">
        <ele>2437.1999511719</ele>
        <time>2023-07-22T10:17:06.000Z</time>
      </trkpt>
      <trkpt lat="42.66457" lon="1.48986">
        <ele>2437.8000488281</ele>
        <time>2023-07-22T10:17:12.000Z</time>
      </trkpt>
      <trkpt lat="42.66458" lon="1.48983">
        <ele>2438.1999511719</ele>
        <time>2023-07-22T10:17:16.000Z</time>
      </trkpt>
      <trkpt lat="42.66459" lon="1.48982">
        <ele>2438.6000976562</ele>
        <time>2023-07-22T10:17:18.000Z</time>
      </trkpt>
      <trkpt lat="42.66459" lon="1.48978">
        <ele>2439.1999511719</ele>
        <time>2023-07-22T10:17:23.000Z</time>
      </trkpt>
      <trkpt lat="42.66459" lon="1.48976">
        <ele>2439.3999023438</ele>
        <time>2023-07-22T10:17:24.000Z</time>
      </trkpt>
      <trkpt lat="42.6646" lon="1.48972">
        <ele>2440</ele>
        <time>2023-07-22T10:17:28.000Z</time>
      </trkpt>
      <trkpt lat="42.66461" lon="1.48972">
        <ele>2438.1999511719</ele>
        <time>2023-07-22T10:17:35.000Z</time>
      </trkpt>
      <trkpt lat="42.66462" lon="1.48973">
        <ele>2438</ele>
        <time>2023-07-22T10:17:37.000Z</time>
      </trkpt>
      <trkpt lat="42.66464" lon="1.48974">
        <ele>2436.8000488281</ele>
        <time>2023-07-22T10:17:42.000Z</time>
      </trkpt>
      <trkpt lat="42.66464" lon="1.48973">
        <ele>2436.8000488281</ele>
        <time>2023-07-22T10:17:44.000Z</time>
      </trkpt>
      <trkpt lat="42.66467" lon="1.48972">
        <ele>2436.8000488281</ele>
        <time>2023-07-22T10:17:50.000Z</time>
      </trkpt>
      <trkpt lat="42.66473" lon="1.48975">
        <ele>2437.8000488281</ele>
        <time>2023-07-22T10:17:56.000Z</time>
      </trkpt>
      <trkpt lat="42.66473" lon="1.48976">
        <ele>2438</ele>
        <time>2023-07-22T10:17:57.000Z</time>
      </trkpt>
      <trkpt lat="42.66475" lon="1.48982">
        <ele>2438.6000976562</ele>
        <time>2023-07-22T10:18:01.000Z</time>
      </trkpt>
      <trkpt lat="42.66479" lon="1.48981">
        <ele>2437.8000488281</ele>
        <time>2023-07-22T10:18:06.000Z</time>
      </trkpt>
      <trkpt lat="42.6648" lon="1.4898">
        <ele>2437.1999511719</ele>
        <time>2023-07-22T10:18:07.000Z</time>
      </trkpt>
      <trkpt lat="42.6648" lon="1.48979">
        <ele>2436.6000976562</ele>
        <time>2023-07-22T10:18:08.000Z</time>
      </trkpt>
      <trkpt lat="42.66484" lon="1.48974">
        <ele>2436.8000488281</ele>
        <time>2023-07-22T10:18:14.000Z</time>
      </trkpt>
      <trkpt lat="42.66486" lon="1.48975">
        <ele>2438</ele>
        <time>2023-07-22T10:18:16.000Z</time>
      </trkpt>
      <trkpt lat="42.66491" lon="1.48977">
        <ele>2438.8000488281</ele>
        <time>2023-07-22T10:18:20.000Z</time>
      </trkpt>
      <trkpt lat="42.66496" lon="1.48976">
        <ele>2436.3999023438</ele>
        <time>2023-07-22T10:18:24.000Z</time>
      </trkpt>
      <trkpt lat="42.66497" lon="1.48974">
        <ele>2435.3999023438</ele>
        <time>2023-07-22T10:18:27.000Z</time>
      </trkpt>
      <trkpt lat="42.66502" lon="1.48976">
        <ele>2437.3999023438</ele>
        <time>2023-07-22T10:18:32.000Z</time>
      </trkpt>
      <trkpt lat="42.66502" lon="1.48976">
        <ele>2438.3999023438</ele>
        <time>2023-07-22T10:18:33.000Z</time>
      </trkpt>
      <trkpt lat="42.66503" lon="1.48979">
        <ele>2437</ele>
        <time>2023-07-22T10:18:39.000Z</time>
      </trkpt>
      <trkpt lat="42.66503" lon="1.48979">
        <ele>2437</ele>
        <time>2023-07-22T10:18:41.000Z</time>
      </trkpt>
      <trkpt lat="42.66503" lon="1.48975">
        <ele>2437.8000488281</ele>
        <time>2023-07-22T10:18:50.000Z</time>
      </trkpt>
      <trkpt lat="42.66503" lon="1.48975">
        <ele>2439.8000488281</ele>
        <time>2023-07-22T10:18:56.000Z</time>
      </trkpt>
      <trkpt lat="42.66504" lon="1.48975">
        <ele>2439.8000488281</ele>
        <time>2023-07-22T10:19:01.000Z</time>
      </trkpt>
      <trkpt lat="42.66505" lon="1.48979">
        <ele>2439.6000976562</ele>
        <time>2023-07-22T10:19:08.000Z</time>
      </trkpt>
      <trkpt lat="42.66506" lon="1.48978">
        <ele>2439.6000976562</ele>
        <time>2023-07-22T10:19:19.000Z</time>
      </trkpt>
      <trkpt lat="42.66505" lon="1.48977">
        <ele>2439</ele>
        <time>2023-07-22T10:19:27.000Z</time>
      </trkpt>
      <trkpt lat="42.66504" lon="1.48976">
        <ele>2439.1999511719</ele>
        <time>2023-07-22T10:19:36.000Z</time>
      </trkpt>
      <trkpt lat="42.66503" lon="1.48981">
        <ele>2439.6000976562</ele>
        <time>2023-07-22T10:19:43.000Z</time>
      </trkpt>
      <trkpt lat="42.665" lon="1.48983">
        <ele>2439.3999023438</ele>
        <time>2023-07-22T10:19:49.000Z</time>
      </trkpt>
      <trkpt lat="42.66498" lon="1.48985">
        <ele>2439.3999023438</ele>
        <time>2023-07-22T10:19:57.000Z</time>
      </trkpt>
      <trkpt lat="42.66501" lon="1.48981">
        <ele>2439.3999023438</ele>
        <time>2023-07-22T10:20:06.000Z</time>
      </trkpt>
      <trkpt lat="42.665" lon="1.48982">
        <ele>2439.8000488281</ele>
        <time>2023-07-22T10:20:14.000Z</time>
      </trkpt>
      <trkpt lat="42.66498" lon="1.48977">
        <ele>2439.6000976562</ele>
        <time>2023-07-22T10:20:20.000Z</time>
      </trkpt>
      <trkpt lat="42.66499" lon="1.48977">
        <ele>2439.1999511719</ele>
        <time>2023-07-22T10:20:31.000Z</time>
      </trkpt>
      <trkpt lat="42.66499" lon="1.48977">
        <ele>2439.3999023438</ele>
        <time>2023-07-22T10:20:41.000Z</time>
      </trkpt>
      <trkpt lat="42.66499" lon="1.48981">
        <ele>2438.6000976562</ele>
        <time>2023-07-22T10:20:58.000Z</time>
      </trkpt>
      <trkpt lat="42.66501" lon="1.4898">
        <ele>2438.6000976562</ele>
        <time>2023-07-22T10:21:00.000Z</time>
      </trkpt>
      <trkpt lat="42.66505" lon="1.48976">
        <ele>2437.3999023438</ele>
        <time>2023-07-22T10:21:14.000Z</time>
      </trkpt>
      <trkpt lat="42.66501" lon="1.48983">
        <ele>2437.6000976562</ele>
        <time>2023-07-22T10:21:25.000Z</time>
      </trkpt>
      <trkpt lat="42.66499" lon="1.48984">
        <ele>2438.1999511719</ele>
        <time>2023-07-22T10:21:33.000Z</time>
      </trkpt>
      <trkpt lat="42.66499" lon="1.48979">
        <ele>2438.6000976562</ele>
        <time>2023-07-22T10:21:42.000Z</time>
      </trkpt>
      <trkpt lat="42.66502" lon="1.48977">
        <ele>2438.1999511719</ele>
        <time>2023-07-22T10:22:21.000Z</time>
      </trkpt>
      <trkpt lat="42.66502" lon="1.48979">
        <ele>2438.1999511719</ele>
        <time>2023-07-22T10:22:28.000Z</time>
      </trkpt>
      <trkpt lat="42.665" lon="1.48978">
        <ele>2437</ele>
        <time>2023-07-22T10:22:37.000Z</time>
      </trkpt>
      <trkpt lat="42.66503" lon="1.48971">
        <ele>2436.6000976562</ele>
        <time>2023-07-22T10:22:42.000Z</time>
      </trkpt>
      <trkpt lat="42.66501" lon="1.4897">
        <ele>2441.2</ele>
        <time>2023-07-22T11:00:23Z</time>
      </trkpt>
      <trkpt lat="42.66496" lon="1.48968">
        <ele>2441.7</ele>
        <time>2023-07-22T11:00:34Z</time>
      </trkpt>
      <trkpt lat="42.66493" lon="1.48965">
        <ele>2441.4</ele>
        <time>2023-07-22T11:00:45Z</time>
      </trkpt>
      <trkpt lat="42.66489" lon="1.48957">
        <ele>2440.7</ele>
        <time>2023-07-22T11:00:56Z</time>
      </trkpt>
      <trkpt lat="42.66486" lon="1.4895">
        <ele>2440</ele>
        <time>2023-07-22T11:01:07Z</time>
      </trkpt>
      <trkpt lat="42.66482" lon="1.48951">
        <ele>2440</ele>
        <time>2023-07-22T11:01:18Z</time>
      </trkpt>
      <trkpt lat="42.66478" lon="1.4895">
        <ele>2439.7</ele>
        <time>2023-07-22T11:01:29Z</time>
      </trkpt>
      <trkpt lat="42.66476" lon="1.48948">
        <ele>2439.5</ele>
        <time>2023-07-22T11:01:40Z</time>
      </trkpt>
      <trkpt lat="42.66476" lon="1.48943">
        <ele>2438.8</ele>
        <time>2023-07-22T11:01:51Z</time>
      </trkpt>
      <trkpt lat="42.66477" lon="1.48939">
        <ele>2438.2</ele>
        <time>2023-07-22T11:02:02Z</time>
      </trkpt>
      <trkpt lat="42.66473" lon="1.48938">
        <ele>2437.8</ele>
        <time>2023-07-22T11:02:13Z</time>
      </trkpt>
      <trkpt lat="42.6647" lon="1.48937">
        <ele>2438</ele>
        <time>2023-07-22T11:02:24Z</time>
      </trkpt>
      <trkpt lat="42.66464" lon="1.48926">
        <ele>2436.6</ele>
        <time>2023-07-22T11:02:35Z</time>
      </trkpt>
      <trkpt lat="42.66462" lon="1.48916">
        <ele>2434.9</ele>
        <time>2023-07-22T11:02:46Z</time>
      </trkpt>
      <trkpt lat="42.6646" lon="1.48909">
        <ele>2433.5</ele>
        <time>2023-07-22T11:02:57Z</time>
      </trkpt>
      <trkpt lat="42.66458" lon="1.48903">
        <ele>2432.4</ele>
        <time>2023-07-22T11:03:08Z</time>
      </trkpt>
      <trkpt lat="42.66454" lon="1.48894">
        <ele>2430.9</ele>
        <time>2023-07-22T11:03:19Z</time>
      </trkpt>
      <trkpt lat="42.66452" lon="1.48893">
        <ele>2430.8</ele>
        <time>2023-07-22T11:03:30Z</time>
      </trkpt>
      <trkpt lat="42.66453" lon="1.48888">
        <ele>2429.7</ele>
        <time>2023-07-22T11:03:41Z</time>
      </trkpt>
      <trkpt lat="42.66453" lon="1.48884">
        <ele>2429.2</ele>
        <time>2023-07-22T11:03:52Z</time>
      </trkpt>
      <trkpt lat="42.66454" lon="1.48879">
        <ele>2428.4</ele>
        <time>2023-07-22T11:04:03Z</time>
      </trkpt>
      <trkpt lat="42.66456" lon="1.48872">
        <ele>2427.1</ele>
        <time>2023-07-22T11:04:14Z</time>
      </trkpt>
      <trkpt lat="42.66458" lon="1.48866">
        <ele>2425.8</ele>
        <time>2023-07-22T11:04:25Z</time>
      </trkpt>
      <trkpt lat="42.66457" lon="1.48861">
        <ele>2425.4</ele>
        <time>2023-07-22T11:04:36Z</time>
      </trkpt>
      <trkpt lat="42.66458" lon="1.48853">
        <ele>2424.9</ele>
        <time>2023-07-22T11:04:47Z</time>
      </trkpt>
      <trkpt lat="42.66455" lon="1.4885">
        <ele>2425.2</ele>
        <time>2023-07-22T11:04:58Z</time>
      </trkpt>
      <trkpt lat="42.66453" lon="1.48843">
        <ele>2425.1</ele>
        <time>2023-07-22T11:05:09Z</time>
      </trkpt>
      <trkpt lat="42.66453" lon="1.48842">
        <ele>2418.8000488281</ele>
        <time>2023-07-22T11:05:47.000Z</time>
      </trkpt>
      <trkpt lat="42.66449" lon="1.48836">
        <ele>2417.6000976562</ele>
        <time>2023-07-22T11:06:07.000Z</time>
      </trkpt>
      <trkpt lat="42.66448" lon="1.48834">
        <ele>2417</ele>
        <time>2023-07-22T11:06:10.000Z</time>
      </trkpt>
      <trkpt lat="42.66448" lon="1.48831">
        <ele>2416.8000488281</ele>
        <time>2023-07-22T11:06:12.000Z</time>
      </trkpt>
      <trkpt lat="42.66447" lon="1.48828">
        <ele>2415.8000488281</ele>
        <time>2023-07-22T11:06:17.000Z</time>
      </trkpt>
      <trkpt lat="42.66447" lon="1.48828">
        <ele>2415.3999023438</ele>
        <time>2023-07-22T11:06:19.000Z</time>
      </trkpt>
      <trkpt lat="42.66444" lon="1.4882">
        <ele>2415</ele>
        <time>2023-07-22T11:06:28.000Z</time>
      </trkpt>
      <trkpt lat="42.66443" lon="1.48817">
        <ele>2414.8000488281</ele>
        <time>2023-07-22T11:06:30.000Z</time>
      </trkpt>
      <trkpt lat="42.66439" lon="1.4881">
        <ele>2414.1999511719</ele>
        <time>2023-07-22T11:06:36.000Z</time>
      </trkpt>
      <trkpt lat="42.66435" lon="1.48805">
        <ele>2414.3999023438</ele>
        <time>2023-07-22T11:06:42.000Z</time>
      </trkpt>
      <trkpt lat="42.66432" lon="1.48795">
        <ele>2414.8000488281</ele>
        <time>2023-07-22T11:06:50.000Z</time>
      </trkpt>
      <trkpt lat="42.66431" lon="1.48793">
        <ele>2415.1999511719</ele>
        <time>2023-07-22T11:06:57.000Z</time>
      </trkpt>
      <trkpt lat="42.66431" lon="1.48793">
        <ele>2415.1999511719</ele>
        <time>2023-07-22T11:06:59.000Z</time>
      </trkpt>
      <trkpt lat="42.66432" lon="1.48791">
        <ele>2414.8000488281</ele>
        <time>2023-07-22T11:07:06.000Z</time>
      </trkpt>
      <trkpt lat="42.66429" lon="1.48794">
        <ele>2415</ele>
        <time>2023-07-22T11:07:15.000Z</time>
      </trkpt>
      <trkpt lat="42.66429" lon="1.48785">
        <ele>2415</ele>
        <time>2023-07-22T11:07:21.000Z</time>
      </trkpt>
      <trkpt lat="42.66428" lon="1.48777">
        <ele>2415.8000488281</ele>
        <time>2023-07-22T11:07:25.000Z</time>
      </trkpt>
      <trkpt lat="42.66426" lon="1.48772">
        <ele>2416</ele>
        <time>2023-07-22T11:07:28.000Z</time>
      </trkpt>
      <trkpt lat="42.66426" lon="1.48765">
        <ele>2415.3999023438</ele>
        <time>2023-07-22T11:07:35.000Z</time>
      </trkpt>
      <trkpt lat="42.66427" lon="1.48761">
        <ele>2414.3999023438</ele>
        <time>2023-07-22T11:07:38.000Z</time>
      </trkpt>
      <trkpt lat="42.66427" lon="1.4876">
        <ele>2413.1999511719</ele>
        <time>2023-07-22T11:07:40.000Z</time>
      </trkpt>
      <trkpt lat="42.66427" lon="1.4876">
        <ele>2413.1999511719</ele>
        <time>2023-07-22T11:07:41.000Z</time>
      </trkpt>
      <trkpt lat="42.66428" lon="1.48757">
        <ele>2414</ele>
        <time>2023-07-22T11:07:48.000Z</time>
      </trkpt>
      <trkpt lat="42.66427" lon="1.48757">
        <ele>2414.3999023438</ele>
        <time>2023-07-22T11:07:54.000Z</time>
      </trkpt>
      <trkpt lat="42.66429" lon="1.48759">
        <ele>2414.3999023438</ele>
        <time>2023-07-22T11:07:59.000Z</time>
      </trkpt>
      <trkpt lat="42.66433" lon="1.48753">
        <ele>2414.1999511719</ele>
        <time>2023-07-22T11:08:07.000Z</time>
      </trkpt>
      <trkpt lat="42.66438" lon="1.48746">
        <ele>2413.6000976562</ele>
        <time>2023-07-22T11:08:13.000Z</time>
      </trkpt>
      <trkpt lat="42.66439" lon="1.48744">
        <ele>2413</ele>
        <time>2023-07-22T11:08:15.000Z</time>
      </trkpt>
      <trkpt lat="42.66445" lon="1.48741">
        <ele>2412.3999023438</ele>
        <time>2023-07-22T11:08:20.000Z</time>
      </trkpt>
      <trkpt lat="42.66451" lon="1.48744">
        <ele>2412</ele>
        <time>2023-07-22T11:08:26.000Z</time>
      </trkpt>
      <trkpt lat="42.66455" lon="1.48748">
        <ele>2411.1999511719</ele>
        <time>2023-07-22T11:08:32.000Z</time>
      </trkpt>
      <trkpt lat="42.66457" lon="1.48752">
        <ele>2411</ele>
        <time>2023-07-22T11:08:35.000Z</time>
      </trkpt>
      <trkpt lat="42.66459" lon="1.48756">
        <ele>2410.8000488281</ele>
        <time>2023-07-22T11:08:39.000Z</time>
      </trkpt>
      <trkpt lat="42.66465" lon="1.48761">
        <ele>2410.1999511719</ele>
        <time>2023-07-22T11:08:47.000Z</time>
      </trkpt>
      <trkpt lat="42.66471" lon="1.48759">
        <ele>2410.1999511719</ele>
        <time>2023-07-22T11:08:50.000Z</time>
      </trkpt>
      <trkpt lat="42.66473" lon="1.48758">
        <ele>2410</ele>
        <time>2023-07-22T11:08:52.000Z</time>
      </trkpt>
      <trkpt lat="42.66474" lon="1.48757">
        <ele>2410</ele>
        <time>2023-07-22T11:08:53.000Z</time>
      </trkpt>
      <trkpt lat="42.66474" lon="1.48753">
        <ele>2409.3999023438</ele>
        <time>2023-07-22T11:09:00.000Z</time>
      </trkpt>
      <trkpt lat="42.66473" lon="1.48752">
        <ele>2409.1999511719</ele>
        <time>2023-07-22T11:09:01.000Z</time>
      </trkpt>
      <trkpt lat="42.6647" lon="1.48746">
        <ele>2409</ele>
        <time>2023-07-22T11:09:06.000Z</time>
      </trkpt>
      <trkpt lat="42.66471" lon="1.48746">
        <ele>2408.6000976562</ele>
        <time>2023-07-22T11:09:07.000Z</time>
      </trkpt>
      <trkpt lat="42.66474" lon="1.48746">
        <ele>2408</ele>
        <time>2023-07-22T11:09:16.000Z</time>
      </trkpt>
      <trkpt lat="42.66471" lon="1.48748">
        <ele>2408.3999023438</ele>
        <time>2023-07-22T11:09:25.000Z</time>
      </trkpt>
      <trkpt lat="42.66474" lon="1.48753">
        <ele>2407.8000488281</ele>
        <time>2023-07-22T11:09:32.000Z</time>
      </trkpt>
      <trkpt lat="42.66475" lon="1.48755">
        <ele>2407.3999023438</ele>
        <time>2023-07-22T11:09:34.000Z</time>
      </trkpt>
      <trkpt lat="42.66478" lon="1.48756">
        <ele>2406.3999023438</ele>
        <time>2023-07-22T11:09:40.000Z</time>
      </trkpt>
      <trkpt lat="42.66482" lon="1.48748">
        <ele>2405.6000976562</ele>
        <time>2023-07-22T11:09:47.000Z</time>
      </trkpt>
      <trkpt lat="42.66483" lon="1.48745">
        <ele>2405.1999511719</ele>
        <time>2023-07-22T11:09:49.000Z</time>
      </trkpt>
      <trkpt lat="42.66485" lon="1.48743">
        <ele>2405</ele>
        <time>2023-07-22T11:09:51.000Z</time>
      </trkpt>
      <trkpt lat="42.66486" lon="1.4874">
        <ele>2405</ele>
        <time>2023-07-22T11:09:54.000Z</time>
      </trkpt>
      <trkpt lat="42.66489" lon="1.48736">
        <ele>2405.3999023438</ele>
        <time>2023-07-22T11:10:00.000Z</time>
      </trkpt>
      <trkpt lat="42.66493" lon="1.48733">
        <ele>2405.3999023438</ele>
        <time>2023-07-22T11:10:06.000Z</time>
      </trkpt>
      <trkpt lat="42.66499" lon="1.48731">
        <ele>2405</ele>
        <time>2023-07-22T11:10:12.000Z</time>
      </trkpt>
      <trkpt lat="42.66502" lon="1.48735">
        <ele>2404.3999023438</ele>
        <time>2023-07-22T11:10:18.000Z</time>
      </trkpt>
      <trkpt lat="42.66507" lon="1.48736">
        <ele>2404.3999023438</ele>
        <time>2023-07-22T11:10:23.000Z</time>
      </trkpt>
      <trkpt lat="42.66513" lon="1.48736">
        <ele>2404.1999511719</ele>
        <time>2023-07-22T11:10:30.000Z</time>
      </trkpt>
      <trkpt lat="42.66514" lon="1.48737">
        <ele>2404</ele>
        <time>2023-07-22T11:10:31.000Z</time>
      </trkpt>
      <trkpt lat="42.66521" lon="1.48736">
        <ele>2403</ele>
        <time>2023-07-22T11:10:37.000Z</time>
      </trkpt>
      <trkpt lat="42.66525" lon="1.48733">
        <ele>2402.3999023438</ele>
        <time>2023-07-22T11:10:41.000Z</time>
      </trkpt>
      <trkpt lat="42.66526" lon="1.48731">
        <ele>2402.1999511719</ele>
        <time>2023-07-22T11:10:42.000Z</time>
      </trkpt>
      <trkpt lat="42.66527" lon="1.48729">
        <ele>2402.1999511719</ele>
        <time>2023-07-22T11:10:45.000Z</time>
      </trkpt>
      <trkpt lat="42.66526" lon="1.48722">
        <ele>2402</ele>
        <time>2023-07-22T11:10:50.000Z</time>
      </trkpt>
      <trkpt lat="42.66528" lon="1.48729">
        <ele>2402.1999511719</ele>
        <time>2023-07-22T11:10:55.000Z</time>
      </trkpt>
      <trkpt lat="42.66529" lon="1.48733">
        <ele>2402</ele>
        <time>2023-07-22T11:11:01.000Z</time>
      </trkpt>
      <trkpt lat="42.66531" lon="1.48735">
        <ele>2400.8000488281</ele>
        <time>2023-07-22T11:11:05.000Z</time>
      </trkpt>
      <trkpt lat="42.66531" lon="1.48737">
        <ele>2400.6000976562</ele>
        <time>2023-07-22T11:11:08.000Z</time>
      </trkpt>
      <trkpt lat="42.66525" lon="1.48738">
        <ele>2400.3999023438</ele>
        <time>2023-07-22T11:11:17.000Z</time>
      </trkpt>
      <trkpt lat="42.66525" lon="1.48738">
        <ele>2400.3999023438</ele>
        <time>2023-07-22T11:11:18.000Z</time>
      </trkpt>
      <trkpt lat="42.66523" lon="1.48739">
        <ele>2400.3999023438</ele>
        <time>2023-07-22T11:11:24.000Z</time>
      </trkpt>
      <trkpt lat="42.66521" lon="1.48743">
        <ele>2400.3999023438</ele>
        <time>2023-07-22T11:11:34.000Z</time>
      </trkpt>
      <trkpt lat="42.66524" lon="1.48736">
        <ele>2400.6000976562</ele>
        <time>2023-07-22T11:11:39.000Z</time>
      </trkpt>
      <trkpt lat="42.66526" lon="1.48739">
        <ele>2400.3999023438</ele>
        <time>2023-07-22T11:11:46.000Z</time>
      </trkpt>
      <trkpt lat="42.66528" lon="1.48744">
        <ele>2399.3999023438</ele>
        <time>2023-07-22T11:11:53.000Z</time>
      </trkpt>
      <trkpt lat="42.66527" lon="1.48747">
        <ele>2398.8000488281</ele>
        <time>2023-07-22T11:11:55.000Z</time>
      </trkpt>
      <trkpt lat="42.66527" lon="1.48748">
        <ele>2398.1999511719</ele>
        <time>2023-07-22T11:11:57.000Z</time>
      </trkpt>
      <trkpt lat="42.66529" lon="1.48754">
        <ele>2397.6000976562</ele>
        <time>2023-07-22T11:12:02.000Z</time>
      </trkpt>
      <trkpt lat="42.6653" lon="1.48755">
        <ele>2397.1999511719</ele>
        <time>2023-07-22T11:12:03.000Z</time>
      </trkpt>
      <trkpt lat="42.66533" lon="1.48753">
        <ele>2396.6000976562</ele>
        <time>2023-07-22T11:12:05.000Z</time>
      </trkpt>
      <trkpt lat="42.66535" lon="1.48752">
        <ele>2396</ele>
        <time>2023-07-22T11:12:07.000Z</time>
      </trkpt>
      <trkpt lat="42.66536" lon="1.48751">
        <ele>2395.8000488281</ele>
        <time>2023-07-22T11:12:08.000Z</time>
      </trkpt>
      <trkpt lat="42.66539" lon="1.48747">
        <ele>2395</ele>
        <time>2023-07-22T11:12:13.000Z</time>
      </trkpt>
      <trkpt lat="42.6654" lon="1.48745">
        <ele>2394.3999023438</ele>
        <time>2023-07-22T11:12:15.000Z</time>
      </trkpt>
      <trkpt lat="42.66543" lon="1.48742">
        <ele>2393.8000488281</ele>
        <time>2023-07-22T11:12:22.000Z</time>
      </trkpt>
      <trkpt lat="42.66551" lon="1.48738">
        <ele>2392.8000488281</ele>
        <time>2023-07-22T11:12:28.000Z</time>
      </trkpt>
      <trkpt lat="42.66552" lon="1.48737">
        <ele>2392.1999511719</ele>
        <time>2023-07-22T11:12:30.000Z</time>
      </trkpt>
      <trkpt lat="42.66553" lon="1.48736">
        <ele>2391.6000976562</ele>
        <time>2023-07-22T11:12:32.000Z</time>
      </trkpt>
      <trkpt lat="42.66555" lon="1.48736">
        <ele>2390.6000976562</ele>
        <time>2023-07-22T11:12:37.000Z</time>
      </trkpt>
      <trkpt lat="42.66555" lon="1.48736">
        <ele>2390.3999023438</ele>
        <time>2023-07-22T11:12:38.000Z</time>
      </trkpt>
      <trkpt lat="42.6656" lon="1.48735">
        <ele>2389.8000488281</ele>
        <time>2023-07-22T11:12:44.000Z</time>
      </trkpt>
      <trkpt lat="42.66565" lon="1.48735">
        <ele>2389.3999023438</ele>
        <time>2023-07-22T11:12:48.000Z</time>
      </trkpt>
      <trkpt lat="42.66566" lon="1.48735">
        <ele>2389.1999511719</ele>
        <time>2023-07-22T11:12:50.000Z</time>
      </trkpt>
      <trkpt lat="42.66568" lon="1.48739">
        <ele>2388.3999023438</ele>
        <time>2023-07-22T11:12:57.000Z</time>
      </trkpt>
      <trkpt lat="42.6657" lon="1.48743">
        <ele>2388.3999023438</ele>
        <time>2023-07-22T11:13:03.000Z</time>
      </trkpt>
      <trkpt lat="42.66571" lon="1.48744">
        <ele>2388.3999023438</ele>
        <time>2023-07-22T11:13:04.000Z</time>
      </trkpt>
      <trkpt lat="42.66574" lon="1.48749">
        <ele>2387.8000488281</ele>
        <time>2023-07-22T11:13:09.000Z</time>
      </trkpt>
      <trkpt lat="42.66574" lon="1.48746">
        <ele>2387.3999023438</ele>
        <time>2023-07-22T11:13:15.000Z</time>
      </trkpt>
      <trkpt lat="42.66575" lon="1.48746">
        <ele>2387.3999023438</ele>
        <time>2023-07-22T11:13:22.000Z</time>
      </trkpt>
      <trkpt lat="42.66573" lon="1.48746">
        <ele>2387.6000976562</ele>
        <time>2023-07-22T11:13:29.000Z</time>
      </trkpt>
      <trkpt lat="42.66575" lon="1.48749">
        <ele>2387.6000976562</ele>
        <time>2023-07-22T11:13:38.000Z</time>
      </trkpt>
      <trkpt lat="42.66579" lon="1.48752">
        <ele>2387.6000976562</ele>
        <time>2023-07-22T11:13:46.000Z</time>
      </trkpt>
      <trkpt lat="42.66576" lon="1.48749">
        <ele>2387.8000488281</ele>
        <time>2023-07-22T11:13:54.000Z</time>
      </trkpt>
      <trkpt lat="42.66578" lon="1.48746">
        <ele>2387.8000488281</ele>
        <time>2023-07-22T11:14:00.000Z</time>
      </trkpt>
      <trkpt lat="42.66584" lon="1.48751">
        <ele>2387.3999023438</ele>
        <time>2023-07-22T11:14:06.000Z</time>
      </trkpt>
      <trkpt lat="42.66585" lon="1.48752">
        <ele>2387.1999511719</ele>
        <time>2023-07-22T11:14:07.000Z</time>
      </trkpt>
      <trkpt lat="42.66588" lon="1.48753">
        <ele>2386.6000976562</ele>
        <time>2023-07-22T11:14:13.000Z</time>
      </trkpt>
      <trkpt lat="42.6659" lon="1.48757">
        <ele>2386.1999511719</ele>
        <time>2023-07-22T11:14:21.000Z</time>
      </trkpt>
      <trkpt lat="42.66599" lon="1.48757">
        <ele>2385.1999511719</ele>
        <time>2023-07-22T11:14:28.000Z</time>
      </trkpt>
      <trkpt lat="42.66599" lon="1.48756">
        <ele>2385</ele>
        <time>2023-07-22T11:14:29.000Z</time>
      </trkpt>
      <trkpt lat="42.66608" lon="1.48755">
        <ele>2384</ele>
        <time>2023-07-22T11:14:35.000Z</time>
      </trkpt>
      <trkpt lat="42.66608" lon="1.48755">
        <ele>2383.8000488281</ele>
        <time>2023-07-22T11:14:36.000Z</time>
      </trkpt>
      <trkpt lat="42.66612" lon="1.48757">
        <ele>2382.8000488281</ele>
        <time>2023-07-22T11:14:41.000Z</time>
      </trkpt>
      <trkpt lat="42.66612" lon="1.4876">
        <ele>2382.1999511719</ele>
        <time>2023-07-22T11:14:45.000Z</time>
      </trkpt>
      <trkpt lat="42.66613" lon="1.48762">
        <ele>2381.8000488281</ele>
        <time>2023-07-22T11:14:47.000Z</time>
      </trkpt>
      <trkpt lat="42.66618" lon="1.48767">
        <ele>2380.6000976562</ele>
        <time>2023-07-22T11:14:52.000Z</time>
      </trkpt>
      <trkpt lat="42.66621" lon="1.48767">
        <ele>2379.1999511719</ele>
        <time>2023-07-22T11:14:55.000Z</time>
      </trkpt>
      <trkpt lat="42.66624" lon="1.48768">
        <ele>2378.1999511719</ele>
        <time>2023-07-22T11:14:59.000Z</time>
      </trkpt>
      <trkpt lat="42.66626" lon="1.48772">
        <ele>2377.1999511719</ele>
        <time>2023-07-22T11:15:03.000Z</time>
      </trkpt>
      <trkpt lat="42.66629" lon="1.48776">
        <ele>2376</ele>
        <time>2023-07-22T11:15:07.000Z</time>
      </trkpt>
      <trkpt lat="42.66633" lon="1.48782">
        <ele>2375</ele>
        <time>2023-07-22T11:15:12.000Z</time>
      </trkpt>
      <trkpt lat="42.66634" lon="1.48783">
        <ele>2374.6000976562</ele>
        <time>2023-07-22T11:15:14.000Z</time>
      </trkpt>
      <trkpt lat="42.66637" lon="1.48785">
        <ele>2373.8000488281</ele>
        <time>2023-07-22T11:15:19.000Z</time>
      </trkpt>
      <trkpt lat="42.66638" lon="1.48785">
        <ele>2373.1999511719</ele>
        <time>2023-07-22T11:15:22.000Z</time>
      </trkpt>
      <trkpt lat="42.66639" lon="1.48785">
        <ele>2372.6000976562</ele>
        <time>2023-07-22T11:15:25.000Z</time>
      </trkpt>
      <trkpt lat="42.66639" lon="1.48785">
        <ele>2372.3999023438</ele>
        <time>2023-07-22T11:15:28.000Z</time>
      </trkpt>
      <trkpt lat="42.66641" lon="1.48788">
        <ele>2372</ele>
        <time>2023-07-22T11:15:48.000Z</time>
      </trkpt>
      <trkpt lat="42.66643" lon="1.48791">
        <ele>2371.6000976562</ele>
        <time>2023-07-22T11:15:52.000Z</time>
      </trkpt>
      <trkpt lat="42.66644" lon="1.48791">
        <ele>2371.3999023438</ele>
        <time>2023-07-22T11:15:54.000Z</time>
      </trkpt>
      <trkpt lat="42.66647" lon="1.48793">
        <ele>2370.1999511719</ele>
        <time>2023-07-22T11:16:00.000Z</time>
      </trkpt>
      <trkpt lat="42.66648" lon="1.48794">
        <ele>2369.6000976562</ele>
        <time>2023-07-22T11:16:03.000Z</time>
      </trkpt>
      <trkpt lat="42.6665" lon="1.48795">
        <ele>2369.1999511719</ele>
        <time>2023-07-22T11:16:07.000Z</time>
      </trkpt>
      <trkpt lat="42.66652" lon="1.48797">
        <ele>2368.8000488281</ele>
        <time>2023-07-22T11:16:10.000Z</time>
      </trkpt>
      <trkpt lat="42.66655" lon="1.48799">
        <ele>2368.1999511719</ele>
        <time>2023-07-22T11:16:13.000Z</time>
      </trkpt>
      <trkpt lat="42.66659" lon="1.488">
        <ele>2367.1999511719</ele>
        <time>2023-07-22T11:16:17.000Z</time>
      </trkpt>
      <trkpt lat="42.66659" lon="1.48799">
        <ele>2367</ele>
        <time>2023-07-22T11:16:18.000Z</time>
      </trkpt>
      <trkpt lat="42.66668" lon="1.48803">
        <ele>2365.8000488281</ele>
        <time>2023-07-22T11:16:28.000Z</time>
      </trkpt>
      <trkpt lat="42.66674" lon="1.48804">
        <ele>2366.1999511719</ele>
        <time>2023-07-22T11:16:34.000Z</time>
      </trkpt>
      <trkpt lat="42.66696" lon="1.48807">
        <ele>2367.8000488281</ele>
        <time>2023-07-22T11:16:55.000Z</time>
      </trkpt>
      <trkpt lat="42.66697" lon="1.48807">
        <ele>2368</ele>
        <time>2023-07-22T11:16:57.000Z</time>
      </trkpt>
      <trkpt lat="42.66702" lon="1.48809">
        <ele>2368.3999023438</ele>
        <time>2023-07-22T11:17:03.000Z</time>
      </trkpt>
      <trkpt lat="42.66711" lon="1.48811">
        <ele>2368.1999511719</ele>
        <time>2023-07-22T11:17:10.000Z</time>
      </trkpt>
      <trkpt lat="42.66716" lon="1.48814">
        <ele>2367.8000488281</ele>
        <time>2023-07-22T11:17:17.000Z</time>
      </trkpt>
      <trkpt lat="42.6672" lon="1.48817">
        <ele>2367.1999511719</ele>
        <time>2023-07-22T11:17:24.000Z</time>
      </trkpt>
      <trkpt lat="42.66725" lon="1.4882">
        <ele>2367</ele>
        <time>2023-07-22T11:17:31.000Z</time>
      </trkpt>
      <trkpt lat="42.66727" lon="1.48821">
        <ele>2366.8000488281</ele>
        <time>2023-07-22T11:17:33.000Z</time>
      </trkpt>
      <trkpt lat="42.66733" lon="1.48823">
        <ele>2366.3999023438</ele>
        <time>2023-07-22T11:17:40.000Z</time>
      </trkpt>
      <trkpt lat="42.66737" lon="1.48828">
        <ele>2366.3999023438</ele>
        <time>2023-07-22T11:17:47.000Z</time>
      </trkpt>
      <trkpt lat="42.66739" lon="1.48831">
        <ele>2366.3999023438</ele>
        <time>2023-07-22T11:17:54.000Z</time>
      </trkpt>
      <trkpt lat="42.66741" lon="1.48834">
        <ele>2366</ele>
        <time>2023-07-22T11:17:57.000Z</time>
      </trkpt>
      <trkpt lat="42.66743" lon="1.48839">
        <ele>2365.6000976562</ele>
        <time>2023-07-22T11:18:01.000Z</time>
      </trkpt>
      <trkpt lat="42.66746" lon="1.48845">
        <ele>2364.8000488281</ele>
        <time>2023-07-22T11:18:05.000Z</time>
      </trkpt>
      <trkpt lat="42.66747" lon="1.48848">
        <ele>2364.3999023438</ele>
        <time>2023-07-22T11:18:07.000Z</time>
      </trkpt>
      <trkpt lat="42.66751" lon="1.48856">
        <ele>2364.6000976562</ele>
        <time>2023-07-22T11:18:14.000Z</time>
      </trkpt>
      <trkpt lat="42.66753" lon="1.48865">
        <ele>2365.1999511719</ele>
        <time>2023-07-22T11:18:22.000Z</time>
      </trkpt>
      <trkpt lat="42.66758" lon="1.48875">
        <ele>2364.8000488281</ele>
        <time>2023-07-22T11:18:31.000Z</time>
      </trkpt>
      <trkpt lat="42.66764" lon="1.4888">
        <ele>2365</ele>
        <time>2023-07-22T11:18:38.000Z</time>
      </trkpt>
      <trkpt lat="42.66769" lon="1.48888">
        <ele>2365.1999511719</ele>
        <time>2023-07-22T11:18:45.000Z</time>
      </trkpt>
      <trkpt lat="42.66773" lon="1.48899">
        <ele>2365</ele>
        <time>2023-07-22T11:18:53.000Z</time>
      </trkpt>
      <trkpt lat="42.66777" lon="1.48902">
        <ele>2364.1999511719</ele>
        <time>2023-07-22T11:19:00.000Z</time>
      </trkpt>
      <trkpt lat="42.6678" lon="1.48906">
        <ele>2363.8000488281</ele>
        <time>2023-07-22T11:19:07.000Z</time>
      </trkpt>
      <trkpt lat="42.66777" lon="1.48909">
        <ele>2363.6000976562</ele>
        <time>2023-07-22T11:19:10.000Z</time>
      </trkpt>
      <trkpt lat="42.66778" lon="1.4891">
        <ele>2363.3999023438</ele>
        <time>2023-07-22T11:19:12.000Z</time>
      </trkpt>
      <trkpt lat="42.66778" lon="1.48913">
        <ele>2363.1999511719</ele>
        <time>2023-07-22T11:19:18.000Z</time>
      </trkpt>
      <trkpt lat="42.66779" lon="1.48913">
        <ele>2363.1999511719</ele>
        <time>2023-07-22T11:19:20.000Z</time>
      </trkpt>
      <trkpt lat="42.66784" lon="1.48919">
        <ele>2362.8000488281</ele>
        <time>2023-07-22T11:19:32.000Z</time>
      </trkpt>
      <trkpt lat="42.66791" lon="1.48928">
        <ele>2362.6000976562</ele>
        <time>2023-07-22T11:19:41.000Z</time>
      </trkpt>
      <trkpt lat="42.66796" lon="1.48932">
        <ele>2362</ele>
        <time>2023-07-22T11:19:47.000Z</time>
      </trkpt>
      <trkpt lat="42.66803" lon="1.48936">
        <ele>2361.3999023438</ele>
        <time>2023-07-22T11:19:52.000Z</time>
      </trkpt>
      <trkpt lat="42.66807" lon="1.48937">
        <ele>2361.1999511719</ele>
        <time>2023-07-22T11:19:56.000Z</time>
      </trkpt>
      <trkpt lat="42.66808" lon="1.48936">
        <ele>2360.3999023438</ele>
        <time>2023-07-22T11:20:08.000Z</time>
      </trkpt>
      <trkpt lat="42.66812" lon="1.48941">
        <ele>2360.6000976562</ele>
        <time>2023-07-22T11:20:17.000Z</time>
      </trkpt>
      <trkpt lat="42.66817" lon="1.48944">
        <ele>2360.8000488281</ele>
        <time>2023-07-22T11:20:24.000Z</time>
      </trkpt>
      <trkpt lat="42.66823" lon="1.48948">
        <ele>2361</ele>
        <time>2023-07-22T11:20:30.000Z</time>
      </trkpt>
      <trkpt lat="42.66828" lon="1.48954">
        <ele>2361</ele>
        <time>2023-07-22T11:20:36.000Z</time>
      </trkpt>
      <trkpt lat="42.66833" lon="1.48959">
        <ele>2361.3999023438</ele>
        <time>2023-07-22T11:20:42.000Z</time>
      </trkpt>
      <trkpt lat="42.66843" lon="1.48967">
        <ele>2360.1999511719</ele>
        <time>2023-07-22T11:20:51.000Z</time>
      </trkpt>
      <trkpt lat="42.66852" lon="1.48973">
        <ele>2360.3999023438</ele>
        <time>2023-07-22T11:21:00.000Z</time>
      </trkpt>
      <trkpt lat="42.66858" lon="1.48978">
        <ele>2359.3999023438</ele>
        <time>2023-07-22T11:21:08.000Z</time>
      </trkpt>
      <trkpt lat="42.66866" lon="1.48983">
        <ele>2360.3999023438</ele>
        <time>2023-07-22T11:21:19.000Z</time>
      </trkpt>
      <trkpt lat="42.66872" lon="1.48987">
        <ele>2359.3999023438</ele>
        <time>2023-07-22T11:21:24.000Z</time>
      </trkpt>
      <trkpt lat="42.66876" lon="1.4899">
        <ele>2358.8000488281</ele>
        <time>2023-07-22T11:21:27.000Z</time>
      </trkpt>
      <trkpt lat="42.66881" lon="1.48994">
        <ele>2360</ele>
        <time>2023-07-22T11:21:33.000Z</time>
      </trkpt>
      <trkpt lat="42.66886" lon="1.48999">
        <ele>2360.3999023438</ele>
        <time>2023-07-22T11:21:38.000Z</time>
      </trkpt>
      <trkpt lat="42.66887" lon="1.49001">
        <ele>2360.1999511719</ele>
        <time>2023-07-22T11:21:40.000Z</time>
      </trkpt>
      <trkpt lat="42.6689" lon="1.49006">
        <ele>2360.3999023438</ele>
        <time>2023-07-22T11:21:47.000Z</time>
      </trkpt>
      <trkpt lat="42.66893" lon="1.49012">
        <ele>2361.6000976562</ele>
        <time>2023-07-22T11:21:54.000Z</time>
      </trkpt>
      <trkpt lat="42.66894" lon="1.49013">
        <ele>2361.8000488281</ele>
        <time>2023-07-22T11:21:55.000Z</time>
      </trkpt>
      <trkpt lat="42.66896" lon="1.49015">
        <ele>2362.6000976562</ele>
        <time>2023-07-22T11:21:58.000Z</time>
      </trkpt>
      <trkpt lat="42.66898" lon="1.49015">
        <ele>2363.3999023438</ele>
        <time>2023-07-22T11:22:02.000Z</time>
      </trkpt>
      <trkpt lat="42.66898" lon="1.49015">
        <ele>2363.8000488281</ele>
        <time>2023-07-22T11:22:03.000Z</time>
      </trkpt>
      <trkpt lat="42.66903" lon="1.49019">
        <ele>2364.8000488281</ele>
        <time>2023-07-22T11:22:09.000Z</time>
      </trkpt>
      <trkpt lat="42.66904" lon="1.49021">
        <ele>2365.1999511719</ele>
        <time>2023-07-22T11:22:11.000Z</time>
      </trkpt>
      <trkpt lat="42.66909" lon="1.49029">
        <ele>2366</ele>
        <time>2023-07-22T11:22:20.000Z</time>
      </trkpt>
      <trkpt lat="42.66916" lon="1.49035">
        <ele>2366.6000976562</ele>
        <time>2023-07-22T11:22:28.000Z</time>
      </trkpt>
      <trkpt lat="42.6692" lon="1.49036">
        <ele>2366.6000976562</ele>
        <time>2023-07-22T11:22:35.000Z</time>
      </trkpt>
      <trkpt lat="42.66924" lon="1.49041">
        <ele>2366.1999511719</ele>
        <time>2023-07-22T11:22:43.000Z</time>
      </trkpt>
      <trkpt lat="42.66928" lon="1.49042">
        <ele>2365</ele>
        <time>2023-07-22T11:22:47.000Z</time>
      </trkpt>
      <trkpt lat="42.6693" lon="1.49041">
        <ele>2364</ele>
        <time>2023-07-22T11:22:50.000Z</time>
      </trkpt>
      <trkpt lat="42.66931" lon="1.4904">
        <ele>2363.8000488281</ele>
        <time>2023-07-22T11:22:51.000Z</time>
      </trkpt>
      <trkpt lat="42.66934" lon="1.4904">
        <ele>2362.6000976562</ele>
        <time>2023-07-22T11:22:55.000Z</time>
      </trkpt>
      <trkpt lat="42.66937" lon="1.49041">
        <ele>2362.1999511719</ele>
        <time>2023-07-22T11:22:58.000Z</time>
      </trkpt>
      <trkpt lat="42.6694" lon="1.49042">
        <ele>2361.6000976562</ele>
        <time>2023-07-22T11:23:01.000Z</time>
      </trkpt>
      <trkpt lat="42.66941" lon="1.49044">
        <ele>2361</ele>
        <time>2023-07-22T11:23:06.000Z</time>
      </trkpt>
      <trkpt lat="42.66945" lon="1.49048">
        <ele>2360.3999023438</ele>
        <time>2023-07-22T11:23:11.000Z</time>
      </trkpt>
      <trkpt lat="42.66947" lon="1.49052">
        <ele>2359.6000976562</ele>
        <time>2023-07-22T11:23:15.000Z</time>
      </trkpt>
      <trkpt lat="42.66947" lon="1.49054">
        <ele>2359.3999023438</ele>
        <time>2023-07-22T11:23:16.000Z</time>
      </trkpt>
      <trkpt lat="42.6695" lon="1.49056">
        <ele>2358.1999511719</ele>
        <time>2023-07-22T11:23:22.000Z</time>
      </trkpt>
      <trkpt lat="42.6695" lon="1.49056">
        <ele>2358</ele>
        <time>2023-07-22T11:23:23.000Z</time>
      </trkpt>
      <trkpt lat="42.66951" lon="1.49047">
        <ele>2357.8000488281</ele>
        <time>2023-07-22T11:23:31.000Z</time>
      </trkpt>
      <trkpt lat="42.66949" lon="1.49042">
        <ele>2357.8000488281</ele>
        <time>2023-07-22T11:23:37.000Z</time>
      </trkpt>
      <trkpt lat="42.66951" lon="1.49047">
        <ele>2357.6000976562</ele>
        <time>2023-07-22T11:23:45.000Z</time>
      </trkpt>
      <trkpt lat="42.66954" lon="1.4905">
        <ele>2357.6000976562</ele>
        <time>2023-07-22T11:23:50.000Z</time>
      </trkpt>
      <trkpt lat="42.6695" lon="1.49052">
        <ele>2357.1999511719</ele>
        <time>2023-07-22T11:23:54.000Z</time>
      </trkpt>
      <trkpt lat="42.66948" lon="1.49052">
        <ele>2357</ele>
        <time>2023-07-22T11:23:57.000Z</time>
      </trkpt>
      <trkpt lat="42.66943" lon="1.49053">
        <ele>2356</ele>
        <time>2023-07-22T11:24:02.000Z</time>
      </trkpt>
      <trkpt lat="42.66942" lon="1.49054">
        <ele>2355.8000488281</ele>
        <time>2023-07-22T11:24:03.000Z</time>
      </trkpt>
      <trkpt lat="42.66938" lon="1.49058">
        <ele>2355</ele>
        <time>2023-07-22T11:24:11.000Z</time>
      </trkpt>
      <trkpt lat="42.6694" lon="1.4906">
        <ele>2354.8000488281</ele>
        <time>2023-07-22T11:24:12.000Z</time>
      </trkpt>
      <trkpt lat="42.66943" lon="1.49063">
        <ele>2354</ele>
        <time>2023-07-22T11:24:16.000Z</time>
      </trkpt>
      <trkpt lat="42.66946" lon="1.49065">
        <ele>2353.1999511719</ele>
        <time>2023-07-22T11:24:20.000Z</time>
      </trkpt>
      <trkpt lat="42.66948" lon="1.49066">
        <ele>2352.8000488281</ele>
        <time>2023-07-22T11:24:22.000Z</time>
      </trkpt>
      <trkpt lat="42.66951" lon="1.49068">
        <ele>2352</ele>
        <time>2023-07-22T11:24:27.000Z</time>
      </trkpt>
      <trkpt lat="42.66952" lon="1.49069">
        <ele>2351.8000488281</ele>
        <time>2023-07-22T11:24:28.000Z</time>
      </trkpt>
      <trkpt lat="42.66953" lon="1.49072">
        <ele>2351</ele>
        <time>2023-07-22T11:24:33.000Z</time>
      </trkpt>
      <trkpt lat="42.66953" lon="1.49073">
        <ele>2350.6000976562</ele>
        <time>2023-07-22T11:24:35.000Z</time>
      </trkpt>
      <trkpt lat="42.66954" lon="1.49079">
        <ele>2350.1999511719</ele>
        <time>2023-07-22T11:24:39.000Z</time>
      </trkpt>
      <trkpt lat="42.66955" lon="1.49084">
        <ele>2349.3999023438</ele>
        <time>2023-07-22T11:24:43.000Z</time>
      </trkpt>
      <trkpt lat="42.66958" lon="1.49088">
        <ele>2348.6000976562</ele>
        <time>2023-07-22T11:24:47.000Z</time>
      </trkpt>
      <trkpt lat="42.66959" lon="1.49089">
        <ele>2348.3999023438</ele>
        <time>2023-07-22T11:24:48.000Z</time>
      </trkpt>
      <trkpt lat="42.66962" lon="1.49093">
        <ele>2348.1999511719</ele>
        <time>2023-07-22T11:24:54.000Z</time>
      </trkpt>
      <trkpt lat="42.66966" lon="1.49098">
        <ele>2348.6000976562</ele>
        <time>2023-07-22T11:25:02.000Z</time>
      </trkpt>
      <trkpt lat="42.66972" lon="1.49109">
        <ele>2347.1999511719</ele>
        <time>2023-07-22T11:25:11.000Z</time>
      </trkpt>
      <trkpt lat="42.66977" lon="1.49121">
        <ele>2347.1999511719</ele>
        <time>2023-07-22T11:25:20.000Z</time>
      </trkpt>
      <trkpt lat="42.6698" lon="1.49124">
        <ele>2347.1999511719</ele>
        <time>2023-07-22T11:25:26.000Z</time>
      </trkpt>
      <trkpt lat="42.66986" lon="1.49134">
        <ele>2346.3999023438</ele>
        <time>2023-07-22T11:25:34.000Z</time>
      </trkpt>
      <trkpt lat="42.66987" lon="1.49135">
        <ele>2346.1999511719</ele>
        <time>2023-07-22T11:25:35.000Z</time>
      </trkpt>
      <trkpt lat="42.66992" lon="1.49139">
        <ele>2345.6000976562</ele>
        <time>2023-07-22T11:25:42.000Z</time>
      </trkpt>
      <trkpt lat="42.66996" lon="1.49144">
        <ele>2345.3999023438</ele>
        <time>2023-07-22T11:25:49.000Z</time>
      </trkpt>
      <trkpt lat="42.67" lon="1.49149">
        <ele>2345.1999511719</ele>
        <time>2023-07-22T11:25:55.000Z</time>
      </trkpt>
      <trkpt lat="42.67001" lon="1.49151">
        <ele>2344.6000976562</ele>
        <time>2023-07-22T11:25:58.000Z</time>
      </trkpt>
      <trkpt lat="42.67003" lon="1.49155">
        <ele>2343.8000488281</ele>
        <time>2023-07-22T11:26:04.000Z</time>
      </trkpt>
      <trkpt lat="42.67009" lon="1.49158">
        <ele>2342.8000488281</ele>
        <time>2023-07-22T11:26:10.000Z</time>
      </trkpt>
      <trkpt lat="42.67011" lon="1.49161">
        <ele>2342.6000976562</ele>
        <time>2023-07-22T11:26:12.000Z</time>
      </trkpt>
      <trkpt lat="42.67018" lon="1.49164">
        <ele>2341.6000976562</ele>
        <time>2023-07-22T11:26:19.000Z</time>
      </trkpt>
      <trkpt lat="42.67017" lon="1.49167">
        <ele>2342</ele>
        <time>2023-07-22T11:26:55.000Z</time>
      </trkpt>
      <trkpt lat="42.67016" lon="1.49169">
        <ele>2341.6000976562</ele>
        <time>2023-07-22T11:27:02.000Z</time>
      </trkpt>
      <trkpt lat="42.67018" lon="1.49168">
        <ele>2342</ele>
        <time>2023-07-22T11:27:20.000Z</time>
      </trkpt>
      <trkpt lat="42.67019" lon="1.49163">
        <ele>2342.3999023438</ele>
        <time>2023-07-22T11:27:27.000Z</time>
      </trkpt>
      <trkpt lat="42.6702" lon="1.49162">
        <ele>2342.6000976562</ele>
        <time>2023-07-22T11:27:30.000Z</time>
      </trkpt>
      <trkpt lat="42.67019" lon="1.49164">
        <ele>2343.1999511719</ele>
        <time>2023-07-22T11:27:37.000Z</time>
      </trkpt>
      <trkpt lat="42.67022" lon="1.49164">
        <ele>2342.8000488281</ele>
        <time>2023-07-22T11:28:02.000Z</time>
      </trkpt>
      <trkpt lat="42.67024" lon="1.49169">
        <ele>2343.3999023438</ele>
        <time>2023-07-22T11:28:07.000Z</time>
      </trkpt>
      <trkpt lat="42.67028" lon="1.49175">
        <ele>2343.1999511719</ele>
        <time>2023-07-22T11:28:15.000Z</time>
      </trkpt>
      <trkpt lat="42.67035" lon="1.4918">
        <ele>2343.3999023438</ele>
        <time>2023-07-22T11:28:23.000Z</time>
      </trkpt>
      <trkpt lat="42.67036" lon="1.4918">
        <ele>2343.6000976562</ele>
        <time>2023-07-22T11:28:25.000Z</time>
      </trkpt>
      <trkpt lat="42.67042" lon="1.49183">
        <ele>2344.1999511719</ele>
        <time>2023-07-22T11:28:31.000Z</time>
      </trkpt>
      <trkpt lat="42.6705" lon="1.49189">
        <ele>2344</ele>
        <time>2023-07-22T11:28:39.000Z</time>
      </trkpt>
      <trkpt lat="42.67057" lon="1.49194">
        <ele>2344.6000976562</ele>
        <time>2023-07-22T11:28:48.000Z</time>
      </trkpt>
      <trkpt lat="42.67073" lon="1.49188">
        <ele>2345.6000976562</ele>
        <time>2023-07-22T11:29:06.000Z</time>
      </trkpt>
      <trkpt lat="42.67078" lon="1.49189">
        <ele>2345.8000488281</ele>
        <time>2023-07-22T11:29:11.000Z</time>
      </trkpt>
      <trkpt lat="42.67087" lon="1.49192">
        <ele>2346.3999023438</ele>
        <time>2023-07-22T11:29:18.000Z</time>
      </trkpt>
      <trkpt lat="42.67089" lon="1.49193">
        <ele>2346.8000488281</ele>
        <time>2023-07-22T11:29:20.000Z</time>
      </trkpt>
      <trkpt lat="42.67093" lon="1.49194">
        <ele>2347.3999023438</ele>
        <time>2023-07-22T11:29:25.000Z</time>
      </trkpt>
      <trkpt lat="42.67094" lon="1.49195">
        <ele>2348</ele>
        <time>2023-07-22T11:29:27.000Z</time>
      </trkpt>
      <trkpt lat="42.67097" lon="1.49198">
        <ele>2349</ele>
        <time>2023-07-22T11:29:32.000Z</time>
      </trkpt>
      <trkpt lat="42.67098" lon="1.49199">
        <ele>2349</ele>
        <time>2023-07-22T11:29:33.000Z</time>
      </trkpt>
      <trkpt lat="42.67103" lon="1.49203">
        <ele>2349.6000976562</ele>
        <time>2023-07-22T11:29:40.000Z</time>
      </trkpt>
      <trkpt lat="42.67103" lon="1.49203">
        <ele>2350.1999511719</ele>
        <time>2023-07-22T11:29:43.000Z</time>
      </trkpt>
      <trkpt lat="42.67105" lon="1.49208">
        <ele>2351</ele>
        <time>2023-07-22T11:29:48.000Z</time>
      </trkpt>
      <trkpt lat="42.67105" lon="1.49209">
        <ele>2351.1999511719</ele>
        <time>2023-07-22T11:29:49.000Z</time>
      </trkpt>
      <trkpt lat="42.6711" lon="1.49214">
        <ele>2352</ele>
        <time>2023-07-22T11:29:55.000Z</time>
      </trkpt>
      <trkpt lat="42.67113" lon="1.49216">
        <ele>2352.3999023438</ele>
        <time>2023-07-22T11:29:58.000Z</time>
      </trkpt>
      <trkpt lat="42.67115" lon="1.49216">
        <ele>2352.6000976562</ele>
        <time>2023-07-22T11:30:00.000Z</time>
      </trkpt>
      <trkpt lat="42.67124" lon="1.49215">
        <ele>2352.6000976562</ele>
        <time>2023-07-22T11:30:06.000Z</time>
      </trkpt>
      <trkpt lat="42.67131" lon="1.49216">
        <ele>2353.6000976562</ele>
        <time>2023-07-22T11:30:13.000Z</time>
      </trkpt>
      <trkpt lat="42.67135" lon="1.49214">
        <ele>2354.6000976562</ele>
        <time>2023-07-22T11:30:19.000Z</time>
      </trkpt>
      <trkpt lat="42.67137" lon="1.49214">
        <ele>2355.1999511719</ele>
        <time>2023-07-22T11:30:21.000Z</time>
      </trkpt>
      <trkpt lat="42.67139" lon="1.49215">
        <ele>2355.8000488281</ele>
        <time>2023-07-22T11:30:24.000Z</time>
      </trkpt>
      <trkpt lat="42.67144" lon="1.49218">
        <ele>2356</ele>
        <time>2023-07-22T11:30:28.000Z</time>
      </trkpt>
      <trkpt lat="42.67145" lon="1.49217">
        <ele>2356</ele>
        <time>2023-07-22T11:30:32.000Z</time>
      </trkpt>
      <trkpt lat="42.67144" lon="1.49216">
        <ele>2355.6000976562</ele>
        <time>2023-07-22T11:30:34.000Z</time>
      </trkpt>
      <trkpt lat="42.67144" lon="1.49216">
        <ele>2354.6000976562</ele>
        <time>2023-07-22T11:30:35.000Z</time>
      </trkpt>
      <trkpt lat="42.67144" lon="1.49217">
        <ele>2353.8000488281</ele>
        <time>2023-07-22T11:30:41.000Z</time>
      </trkpt>
      <trkpt lat="42.67143" lon="1.49216">
        <ele>2355.1999511719</ele>
        <time>2023-07-22T11:30:47.000Z</time>
      </trkpt>
      <trkpt lat="42.67143" lon="1.49216">
        <ele>2355.8000488281</ele>
        <time>2023-07-22T11:30:49.000Z</time>
      </trkpt>
      <trkpt lat="42.67145" lon="1.49217">
        <ele>2356.1999511719</ele>
        <time>2023-07-22T11:30:54.000Z</time>
      </trkpt>
      <trkpt lat="42.67153" lon="1.49222">
        <ele>2354.8000488281</ele>
        <time>2023-07-22T11:31:02.000Z</time>
      </trkpt>
      <trkpt lat="42.67155" lon="1.49225">
        <ele>2353.8000488281</ele>
        <time>2023-07-22T11:31:09.000Z</time>
      </trkpt>
      <trkpt lat="42.67156" lon="1.49225">
        <ele>2353.6000976562</ele>
        <time>2023-07-22T11:31:10.000Z</time>
      </trkpt>
      <trkpt lat="42.67157" lon="1.49225">
        <ele>2352.3999023438</ele>
        <time>2023-07-22T11:31:14.000Z</time>
      </trkpt>
      <trkpt lat="42.67153" lon="1.49226">
        <ele>2351.6000976562</ele>
        <time>2023-07-22T11:31:21.000Z</time>
      </trkpt>
      <trkpt lat="42.67153" lon="1.49225">
        <ele>2351.6000976562</ele>
        <time>2023-07-22T11:31:31.000Z</time>
      </trkpt>
      <trkpt lat="42.67153" lon="1.49223">
        <ele>2351.1999511719</ele>
        <time>2023-07-22T11:31:38.000Z</time>
      </trkpt>
      <trkpt lat="42.67156" lon="1.49228">
        <ele>2351.6000976562</ele>
        <time>2023-07-22T11:31:45.000Z</time>
      </trkpt>
      <trkpt lat="42.67159" lon="1.49233">
        <ele>2350</ele>
        <time>2023-07-22T11:31:53.000Z</time>
      </trkpt>
      <trkpt lat="42.67162" lon="1.49233">
        <ele>2348.8000488281</ele>
        <time>2023-07-22T11:31:56.000Z</time>
      </trkpt>
      <trkpt lat="42.67164" lon="1.4923">
        <ele>2347.6000976562</ele>
        <time>2023-07-22T11:31:59.000Z</time>
      </trkpt>
      <trkpt lat="42.67165" lon="1.49229">
        <ele>2347.6000976562</ele>
        <time>2023-07-22T11:32:00.000Z</time>
      </trkpt>
      <trkpt lat="42.67167" lon="1.49226">
        <ele>2346.3999023438</ele>
        <time>2023-07-22T11:32:05.000Z</time>
      </trkpt>
      <trkpt lat="42.67168" lon="1.49225">
        <ele>2346.3999023438</ele>
        <time>2023-07-22T11:32:06.000Z</time>
      </trkpt>
      <trkpt lat="42.67168" lon="1.49228">
        <ele>2345.1999511719</ele>
        <time>2023-07-22T11:32:11.000Z</time>
      </trkpt>
      <trkpt lat="42.67169" lon="1.49231">
        <ele>2344.3999023438</ele>
        <time>2023-07-22T11:32:14.000Z</time>
      </trkpt>
      <trkpt lat="42.67169" lon="1.49232">
        <ele>2344</ele>
        <time>2023-07-22T11:32:15.000Z</time>
      </trkpt>
      <trkpt lat="42.67169" lon="1.49237">
        <ele>2343</ele>
        <time>2023-07-22T11:32:19.000Z</time>
      </trkpt>
      <trkpt lat="42.67169" lon="1.49239">
        <ele>2341.8000488281</ele>
        <time>2023-07-22T11:32:22.000Z</time>
      </trkpt>
      <trkpt lat="42.67169" lon="1.49243">
        <ele>2340.8000488281</ele>
        <time>2023-07-22T11:32:29.000Z</time>
      </trkpt>
      <trkpt lat="42.67169" lon="1.49246">
        <ele>2340.6000976562</ele>
        <time>2023-07-22T11:32:31.000Z</time>
      </trkpt>
      <trkpt lat="42.67171" lon="1.4925">
        <ele>2339.6000976562</ele>
        <time>2023-07-22T11:32:36.000Z</time>
      </trkpt>
      <trkpt lat="42.67172" lon="1.4925">
        <ele>2339</ele>
        <time>2023-07-22T11:32:38.000Z</time>
      </trkpt>
      <trkpt lat="42.67171" lon="1.49251">
        <ele>2338.6000976562</ele>
        <time>2023-07-22T11:32:42.000Z</time>
      </trkpt>
      <trkpt lat="42.67171" lon="1.49252">
        <ele>2338.1999511719</ele>
        <time>2023-07-22T11:32:49.000Z</time>
      </trkpt>
      <trkpt lat="42.67172" lon="1.49251">
        <ele>2337.8000488281</ele>
        <time>2023-07-22T11:32:55.000Z</time>
      </trkpt>
      <trkpt lat="42.67172" lon="1.49249">
        <ele>2337.3999023438</ele>
        <time>2023-07-22T11:32:59.000Z</time>
      </trkpt>
      <trkpt lat="42.67173" lon="1.49246">
        <ele>2337</ele>
        <time>2023-07-22T11:33:03.000Z</time>
      </trkpt>
      <trkpt lat="42.67174" lon="1.49241">
        <ele>2336.1999511719</ele>
        <time>2023-07-22T11:33:07.000Z</time>
      </trkpt>
      <trkpt lat="42.67173" lon="1.49234">
        <ele>2334.8000488281</ele>
        <time>2023-07-22T11:33:11.000Z</time>
      </trkpt>
      <trkpt lat="42.67173" lon="1.49227">
        <ele>2333.8000488281</ele>
        <time>2023-07-22T11:33:16.000Z</time>
      </trkpt>
      <trkpt lat="42.67174" lon="1.49225">
        <ele>2333.3999023438</ele>
        <time>2023-07-22T11:33:18.000Z</time>
      </trkpt>
      <trkpt lat="42.67174" lon="1.49217">
        <ele>2332.8000488281</ele>
        <time>2023-07-22T11:33:24.000Z</time>
      </trkpt>
      <trkpt lat="42.67175" lon="1.49215">
        <ele>2332.8000488281</ele>
        <time>2023-07-22T11:33:26.000Z</time>
      </trkpt>
      <trkpt lat="42.67176" lon="1.49214">
        <ele>2332.6000976562</ele>
        <time>2023-07-22T11:33:27.000Z</time>
      </trkpt>
      <trkpt lat="42.67176" lon="1.49215">
        <ele>2332.6000976562</ele>
        <time>2023-07-22T11:33:28.000Z</time>
      </trkpt>
      <trkpt lat="42.67178" lon="1.49217">
        <ele>2331.6000976562</ele>
        <time>2023-07-22T11:33:34.000Z</time>
      </trkpt>
      <trkpt lat="42.67179" lon="1.49221">
        <ele>2330.3999023438</ele>
        <time>2023-07-22T11:33:39.000Z</time>
      </trkpt>
      <trkpt lat="42.6718" lon="1.49222">
        <ele>2329.6000976562</ele>
        <time>2023-07-22T11:33:42.000Z</time>
      </trkpt>
      <trkpt lat="42.6718" lon="1.49223">
        <ele>2329.3999023438</ele>
        <time>2023-07-22T11:33:45.000Z</time>
      </trkpt>
      <trkpt lat="42.6718" lon="1.49223">
        <ele>2328.6000976562</ele>
        <time>2023-07-22T11:33:51.000Z</time>
      </trkpt>
      <trkpt lat="42.67182" lon="1.49221">
        <ele>2328.6000976562</ele>
        <time>2023-07-22T11:33:59.000Z</time>
      </trkpt>
      <trkpt lat="42.67181" lon="1.49224">
        <ele>2328.1999511719</ele>
        <time>2023-07-22T11:34:05.000Z</time>
      </trkpt>
      <trkpt lat="42.6718" lon="1.49223">
        <ele>2328.1999511719</ele>
        <time>2023-07-22T11:34:08.000Z</time>
      </trkpt>
      <trkpt lat="42.67179" lon="1.49222">
        <ele>2328.3999023438</ele>
        <time>2023-07-22T11:34:15.000Z</time>
      </trkpt>
      <trkpt lat="42.67179" lon="1.49222">
        <ele>2328.6000976562</ele>
        <time>2023-07-22T11:34:23.000Z</time>
      </trkpt>
      <trkpt lat="42.67181" lon="1.49232">
        <ele>2327.6000976562</ele>
        <time>2023-07-22T11:34:31.000Z</time>
      </trkpt>
      <trkpt lat="42.67181" lon="1.49233">
        <ele>2327.1999511719</ele>
        <time>2023-07-22T11:34:32.000Z</time>
      </trkpt>
      <trkpt lat="42.67182" lon="1.49236">
        <ele>2326.1999511719</ele>
        <time>2023-07-22T11:34:34.000Z</time>
      </trkpt>
      <trkpt lat="42.67183" lon="1.49236">
        <ele>2325</ele>
        <time>2023-07-22T11:34:38.000Z</time>
      </trkpt>
      <trkpt lat="42.67184" lon="1.49237">
        <ele>2324.8000488281</ele>
        <time>2023-07-22T11:34:39.000Z</time>
      </trkpt>
      <trkpt lat="42.67186" lon="1.4924">
        <ele>2324</ele>
        <time>2023-07-22T11:34:46.000Z</time>
      </trkpt>
      <trkpt lat="42.67186" lon="1.49242">
        <ele>2323.8000488281</ele>
        <time>2023-07-22T11:34:48.000Z</time>
      </trkpt>
      <trkpt lat="42.67186" lon="1.49248">
        <ele>2323</ele>
        <time>2023-07-22T11:34:52.000Z</time>
      </trkpt>
      <trkpt lat="42.67186" lon="1.49248">
        <ele>2322.1999511719</ele>
        <time>2023-07-22T11:34:55.000Z</time>
      </trkpt>
      <trkpt lat="42.67187" lon="1.49247">
        <ele>2321.8000488281</ele>
        <time>2023-07-22T11:34:57.000Z</time>
      </trkpt>
      <trkpt lat="42.6719" lon="1.49245">
        <ele>2320.8000488281</ele>
        <time>2023-07-22T11:35:02.000Z</time>
      </trkpt>
      <trkpt lat="42.6719" lon="1.49245">
        <ele>2320.6000976562</ele>
        <time>2023-07-22T11:35:03.000Z</time>
      </trkpt>
      <trkpt lat="42.67192" lon="1.49243">
        <ele>2319.6000976562</ele>
        <time>2023-07-22T11:35:06.000Z</time>
      </trkpt>
      <trkpt lat="42.67193" lon="1.49243">
        <ele>2319.1999511719</ele>
        <time>2023-07-22T11:35:08.000Z</time>
      </trkpt>
      <trkpt lat="42.67193" lon="1.49245">
        <ele>2318.6000976562</ele>
        <time>2023-07-22T11:35:11.000Z</time>
      </trkpt>
      <trkpt lat="42.67193" lon="1.49246">
        <ele>2318.1999511719</ele>
        <time>2023-07-22T11:35:12.000Z</time>
      </trkpt>
      <trkpt lat="42.67194" lon="1.49249">
        <ele>2317.3999023438</ele>
        <time>2023-07-22T11:35:16.000Z</time>
      </trkpt>
      <trkpt lat="42.67193" lon="1.4925">
        <ele>2317.1999511719</ele>
        <time>2023-07-22T11:35:17.000Z</time>
      </trkpt>
      <trkpt lat="42.67189" lon="1.49256">
        <ele>2316.1999511719</ele>
        <time>2023-07-22T11:35:24.000Z</time>
      </trkpt>
      <trkpt lat="42.6719" lon="1.49259">
        <ele>2315</ele>
        <time>2023-07-22T11:35:30.000Z</time>
      </trkpt>
      <trkpt lat="42.67191" lon="1.49262">
        <ele>2314.6000976562</ele>
        <time>2023-07-22T11:35:32.000Z</time>
      </trkpt>
      <trkpt lat="42.67193" lon="1.49262">
        <ele>2313.8000488281</ele>
        <time>2023-07-22T11:35:35.000Z</time>
      </trkpt>
      <trkpt lat="42.67195" lon="1.49261">
        <ele>2313.1999511719</ele>
        <time>2023-07-22T11:35:39.000Z</time>
      </trkpt>
      <trkpt lat="42.67196" lon="1.49261">
        <ele>2312.8000488281</ele>
        <time>2023-07-22T11:35:41.000Z</time>
      </trkpt>
      <trkpt lat="42.67201" lon="1.49256">
        <ele>2311.8000488281</ele>
        <time>2023-07-22T11:35:47.000Z</time>
      </trkpt>
      <trkpt lat="42.67202" lon="1.49256">
        <ele>2311.6000976562</ele>
        <time>2023-07-22T11:35:48.000Z</time>
      </trkpt>
      <trkpt lat="42.67204" lon="1.49253">
        <ele>2310.6000976562</ele>
        <time>2023-07-22T11:35:54.000Z</time>
      </trkpt>
      <trkpt lat="42.67204" lon="1.49254">
        <ele>2310.6000976562</ele>
        <time>2023-07-22T11:35:55.000Z</time>
      </trkpt>
      <trkpt lat="42.67204" lon="1.49257">
        <ele>2309.6000976562</ele>
        <time>2023-07-22T11:35:59.000Z</time>
      </trkpt>
      <trkpt lat="42.67204" lon="1.49259">
        <ele>2309.1999511719</ele>
        <time>2023-07-22T11:36:01.000Z</time>
      </trkpt>
      <trkpt lat="42.67203" lon="1.49259">
        <ele>2308.8000488281</ele>
        <time>2023-07-22T11:36:02.000Z</time>
      </trkpt>
      <trkpt lat="42.67203" lon="1.49261">
        <ele>2308.3999023438</ele>
        <time>2023-07-22T11:36:04.000Z</time>
      </trkpt>
      <trkpt lat="42.67205" lon="1.49268">
        <ele>2307.1999511719</ele>
        <time>2023-07-22T11:36:10.000Z</time>
      </trkpt>
      <trkpt lat="42.67205" lon="1.49268">
        <ele>2307</ele>
        <time>2023-07-22T11:36:11.000Z</time>
      </trkpt>
      <trkpt lat="42.67205" lon="1.49269">
        <ele>2306.1999511719</ele>
        <time>2023-07-22T11:36:14.000Z</time>
      </trkpt>
      <trkpt lat="42.67205" lon="1.49272">
        <ele>2305.8000488281</ele>
        <time>2023-07-22T11:36:17.000Z</time>
      </trkpt>
      <trkpt lat="42.67206" lon="1.49275">
        <ele>2305.1999511719</ele>
        <time>2023-07-22T11:36:21.000Z</time>
      </trkpt>
      <trkpt lat="42.67207" lon="1.49274">
        <ele>2304.1999511719</ele>
        <time>2023-07-22T11:36:26.000Z</time>
      </trkpt>
      <trkpt lat="42.67207" lon="1.49275">
        <ele>2304</ele>
        <time>2023-07-22T11:36:27.000Z</time>
      </trkpt>
      <trkpt lat="42.67207" lon="1.4928">
        <ele>2303</ele>
        <time>2023-07-22T11:36:34.000Z</time>
      </trkpt>
      <trkpt lat="42.67207" lon="1.49279">
        <ele>2302.8000488281</ele>
        <time>2023-07-22T11:36:36.000Z</time>
      </trkpt>
      <trkpt lat="42.67208" lon="1.49279">
        <ele>2301.8000488281</ele>
        <time>2023-07-22T11:36:40.000Z</time>
      </trkpt>
      <trkpt lat="42.67208" lon="1.4928">
        <ele>2301.1999511719</ele>
        <time>2023-07-22T11:36:42.000Z</time>
      </trkpt>
      <trkpt lat="42.67209" lon="1.4928">
        <ele>2300.6000976562</ele>
        <time>2023-07-22T11:36:44.000Z</time>
      </trkpt>
      <trkpt lat="42.67211" lon="1.49284">
        <ele>2299.6000976562</ele>
        <time>2023-07-22T11:36:48.000Z</time>
      </trkpt>
      <trkpt lat="42.67211" lon="1.49286">
        <ele>2299</ele>
        <time>2023-07-22T11:36:50.000Z</time>
      </trkpt>
      <trkpt lat="42.67211" lon="1.49287">
        <ele>2298.6000976562</ele>
        <time>2023-07-22T11:36:53.000Z</time>
      </trkpt>
      <trkpt lat="42.6721" lon="1.49285">
        <ele>2298.3999023438</ele>
        <time>2023-07-22T11:36:57.000Z</time>
      </trkpt>
      <trkpt lat="42.67211" lon="1.49288">
        <ele>2298.8000488281</ele>
        <time>2023-07-22T11:37:05.000Z</time>
      </trkpt>
      <trkpt lat="42.67212" lon="1.49293">
        <ele>2297.6000976562</ele>
        <time>2023-07-22T11:37:12.000Z</time>
      </trkpt>
      <trkpt lat="42.67212" lon="1.49294">
        <ele>2297.6000976562</ele>
        <time>2023-07-22T11:37:13.000Z</time>
      </trkpt>
      <trkpt lat="42.67211" lon="1.49298">
        <ele>2297</ele>
        <time>2023-07-22T11:37:19.000Z</time>
      </trkpt>
      <trkpt lat="42.6721" lon="1.49299">
        <ele>2296.1999511719</ele>
        <time>2023-07-22T11:37:23.000Z</time>
      </trkpt>
      <trkpt lat="42.67211" lon="1.49299">
        <ele>2295.1999511719</ele>
        <time>2023-07-22T11:37:27.000Z</time>
      </trkpt>
      <trkpt lat="42.67212" lon="1.49298">
        <ele>2295</ele>
        <time>2023-07-22T11:37:29.000Z</time>
      </trkpt>
      <trkpt lat="42.67215" lon="1.49296">
        <ele>2294</ele>
        <time>2023-07-22T11:37:32.000Z</time>
      </trkpt>
      <trkpt lat="42.67217" lon="1.49296">
        <ele>2293</ele>
        <time>2023-07-22T11:37:36.000Z</time>
      </trkpt>
      <trkpt lat="42.67219" lon="1.49294">
        <ele>2291.8000488281</ele>
        <time>2023-07-22T11:37:40.000Z</time>
      </trkpt>
      <trkpt lat="42.67222" lon="1.49295">
        <ele>2291</ele>
        <time>2023-07-22T11:37:45.000Z</time>
      </trkpt>
      <trkpt lat="42.67223" lon="1.49298">
        <ele>2290.6000976562</ele>
        <time>2023-07-22T11:37:47.000Z</time>
      </trkpt>
      <trkpt lat="42.67221" lon="1.49303">
        <ele>2290.1999511719</ele>
        <time>2023-07-22T11:37:51.000Z</time>
      </trkpt>
      <trkpt lat="42.6722" lon="1.49302">
        <ele>2289.3999023438</ele>
        <time>2023-07-22T11:37:54.000Z</time>
      </trkpt>
      <trkpt lat="42.67221" lon="1.49302">
        <ele>2289</ele>
        <time>2023-07-22T11:37:56.000Z</time>
      </trkpt>
      <trkpt lat="42.67223" lon="1.49303">
        <ele>2288.3999023438</ele>
        <time>2023-07-22T11:38:01.000Z</time>
      </trkpt>
      <trkpt lat="42.67223" lon="1.49305">
        <ele>2287.1999511719</ele>
        <time>2023-07-22T11:38:05.000Z</time>
      </trkpt>
      <trkpt lat="42.67223" lon="1.49306">
        <ele>2286.8000488281</ele>
        <time>2023-07-22T11:38:07.000Z</time>
      </trkpt>
      <trkpt lat="42.67222" lon="1.49312">
        <ele>2286.3999023438</ele>
        <time>2023-07-22T11:38:15.000Z</time>
      </trkpt>
      <trkpt lat="42.67224" lon="1.49315">
        <ele>2285.8000488281</ele>
        <time>2023-07-22T11:38:20.000Z</time>
      </trkpt>
      <trkpt lat="42.67223" lon="1.49318">
        <ele>2284.6000976562</ele>
        <time>2023-07-22T11:38:23.000Z</time>
      </trkpt>
      <trkpt lat="42.67222" lon="1.49318">
        <ele>2284</ele>
        <time>2023-07-22T11:38:27.000Z</time>
      </trkpt>
      <trkpt lat="42.67219" lon="1.49321">
        <ele>2283.3999023438</ele>
        <time>2023-07-22T11:38:34.000Z</time>
      </trkpt>
      <trkpt lat="42.67219" lon="1.49321">
        <ele>2283.1999511719</ele>
        <time>2023-07-22T11:38:35.000Z</time>
      </trkpt>
      <trkpt lat="42.67219" lon="1.49323">
        <ele>2282.1999511719</ele>
        <time>2023-07-22T11:38:39.000Z</time>
      </trkpt>
      <trkpt lat="42.6722" lon="1.49327">
        <ele>2281.6000976562</ele>
        <time>2023-07-22T11:38:42.000Z</time>
      </trkpt>
      <trkpt lat="42.67221" lon="1.49326">
        <ele>2281</ele>
        <time>2023-07-22T11:38:44.000Z</time>
      </trkpt>
      <trkpt lat="42.67223" lon="1.49325">
        <ele>2280</ele>
        <time>2023-07-22T11:38:48.000Z</time>
      </trkpt>
      <trkpt lat="42.67226" lon="1.49326">
        <ele>2279</ele>
        <time>2023-07-22T11:38:53.000Z</time>
      </trkpt>
      <trkpt lat="42.67227" lon="1.49327">
        <ele>2278.6000976562</ele>
        <time>2023-07-22T11:38:55.000Z</time>
      </trkpt>
      <trkpt lat="42.67228" lon="1.49329">
        <ele>2278</ele>
        <time>2023-07-22T11:39:00.000Z</time>
      </trkpt>
      <trkpt lat="42.67229" lon="1.49329">
        <ele>2278</ele>
        <time>2023-07-22T11:39:02.000Z</time>
      </trkpt>
      <trkpt lat="42.6723" lon="1.49326">
        <ele>2277</ele>
        <time>2023-07-22T11:39:08.000Z</time>
      </trkpt>
      <trkpt lat="42.67231" lon="1.49326">
        <ele>2276.8000488281</ele>
        <time>2023-07-22T11:39:09.000Z</time>
      </trkpt>
      <trkpt lat="42.67233" lon="1.49324">
        <ele>2275.8000488281</ele>
        <time>2023-07-22T11:39:13.000Z</time>
      </trkpt>
      <trkpt lat="42.67234" lon="1.49323">
        <ele>2275.6000976562</ele>
        <time>2023-07-22T11:39:15.000Z</time>
      </trkpt>
      <trkpt lat="42.67235" lon="1.4932">
        <ele>2274.6000976562</ele>
        <time>2023-07-22T11:39:21.000Z</time>
      </trkpt>
      <trkpt lat="42.67235" lon="1.4932">
        <ele>2274.3999023438</ele>
        <time>2023-07-22T11:39:22.000Z</time>
      </trkpt>
      <trkpt lat="42.67235" lon="1.49322">
        <ele>2273.3999023438</ele>
        <time>2023-07-22T11:39:25.000Z</time>
      </trkpt>
      <trkpt lat="42.67237" lon="1.49325">
        <ele>2272.3999023438</ele>
        <time>2023-07-22T11:39:29.000Z</time>
      </trkpt>
      <trkpt lat="42.67238" lon="1.49326">
        <ele>2272.1999511719</ele>
        <time>2023-07-22T11:39:30.000Z</time>
      </trkpt>
      <trkpt lat="42.67236" lon="1.4933">
        <ele>2271</ele>
        <time>2023-07-22T11:39:38.000Z</time>
      </trkpt>
      <trkpt lat="42.67236" lon="1.4933">
        <ele>2270.8000488281</ele>
        <time>2023-07-22T11:39:39.000Z</time>
      </trkpt>
      <trkpt lat="42.67237" lon="1.49334">
        <ele>2270</ele>
        <time>2023-07-22T11:39:44.000Z</time>
      </trkpt>
      <trkpt lat="42.67239" lon="1.49338">
        <ele>2269.6000976562</ele>
        <time>2023-07-22T11:39:48.000Z</time>
      </trkpt>
      <trkpt lat="42.67241" lon="1.49335">
        <ele>2269</ele>
        <time>2023-07-22T11:39:51.000Z</time>
      </trkpt>
      <trkpt lat="42.67243" lon="1.49332">
        <ele>2268.6000976562</ele>
        <time>2023-07-22T11:39:54.000Z</time>
      </trkpt>
      <trkpt lat="42.67246" lon="1.49327">
        <ele>2267.8000488281</ele>
        <time>2023-07-22T11:39:58.000Z</time>
      </trkpt>
      <trkpt lat="42.67248" lon="1.49323">
        <ele>2266.8000488281</ele>
        <time>2023-07-22T11:40:03.000Z</time>
      </trkpt>
      <trkpt lat="42.6725" lon="1.49323">
        <ele>2265.6000976562</ele>
        <time>2023-07-22T11:40:09.000Z</time>
      </trkpt>
      <trkpt lat="42.6725" lon="1.49323">
        <ele>2265.3999023438</ele>
        <time>2023-07-22T11:40:10.000Z</time>
      </trkpt>
      <trkpt lat="42.67251" lon="1.49324">
        <ele>2265.1999511719</ele>
        <time>2023-07-22T11:40:11.000Z</time>
      </trkpt>
      <trkpt lat="42.67255" lon="1.49323">
        <ele>2264.3999023438</ele>
        <time>2023-07-22T11:40:14.000Z</time>
      </trkpt>
      <trkpt lat="42.67257" lon="1.49322">
        <ele>2263.6000976562</ele>
        <time>2023-07-22T11:40:18.000Z</time>
      </trkpt>
      <trkpt lat="42.67257" lon="1.49322">
        <ele>2263.3999023438</ele>
        <time>2023-07-22T11:40:19.000Z</time>
      </trkpt>
      <trkpt lat="42.67261" lon="1.49316">
        <ele>2262.3999023438</ele>
        <time>2023-07-22T11:40:26.000Z</time>
      </trkpt>
      <trkpt lat="42.67262" lon="1.49316">
        <ele>2262.1999511719</ele>
        <time>2023-07-22T11:40:27.000Z</time>
      </trkpt>
      <trkpt lat="42.67262" lon="1.49315">
        <ele>2261.1999511719</ele>
        <time>2023-07-22T11:40:34.000Z</time>
      </trkpt>
      <trkpt lat="42.67262" lon="1.49315">
        <ele>2260.8000488281</ele>
        <time>2023-07-22T11:40:35.000Z</time>
      </trkpt>
      <trkpt lat="42.67264" lon="1.4932">
        <ele>2259.8000488281</ele>
        <time>2023-07-22T11:40:41.000Z</time>
      </trkpt>
      <trkpt lat="42.67264" lon="1.49321">
        <ele>2259.6000976562</ele>
        <time>2023-07-22T11:40:43.000Z</time>
      </trkpt>
      <trkpt lat="42.67266" lon="1.49328">
        <ele>2258.6000976562</ele>
        <time>2023-07-22T11:40:48.000Z</time>
      </trkpt>
      <trkpt lat="42.67265" lon="1.49329">
        <ele>2258.3999023438</ele>
        <time>2023-07-22T11:40:50.000Z</time>
      </trkpt>
      <trkpt lat="42.67264" lon="1.49329">
        <ele>2257.8000488281</ele>
        <time>2023-07-22T11:40:53.000Z</time>
      </trkpt>
      <trkpt lat="42.67264" lon="1.4933">
        <ele>2257.3999023438</ele>
        <time>2023-07-22T11:40:54.000Z</time>
      </trkpt>
      <trkpt lat="42.67267" lon="1.49331">
        <ele>2257</ele>
        <time>2023-07-22T11:40:58.000Z</time>
      </trkpt>
      <trkpt lat="42.6727" lon="1.4933">
        <ele>2256.3999023438</ele>
        <time>2023-07-22T11:41:02.000Z</time>
      </trkpt>
      <trkpt lat="42.67271" lon="1.49327">
        <ele>2256</ele>
        <time>2023-07-22T11:41:05.000Z</time>
      </trkpt>
      <trkpt lat="42.67272" lon="1.49323">
        <ele>2255.1999511719</ele>
        <time>2023-07-22T11:41:09.000Z</time>
      </trkpt>
      <trkpt lat="42.67273" lon="1.49326">
        <ele>2254.3999023438</ele>
        <time>2023-07-22T11:41:13.000Z</time>
      </trkpt>
      <trkpt lat="42.67273" lon="1.49327">
        <ele>2254</ele>
        <time>2023-07-22T11:41:15.000Z</time>
      </trkpt>
      <trkpt lat="42.67275" lon="1.49332">
        <ele>2253</ele>
        <time>2023-07-22T11:41:23.000Z</time>
      </trkpt>
      <trkpt lat="42.67275" lon="1.49332">
        <ele>2252.8000488281</ele>
        <time>2023-07-22T11:41:24.000Z</time>
      </trkpt>
      <trkpt lat="42.67277" lon="1.49336">
        <ele>2251.8000488281</ele>
        <time>2023-07-22T11:41:29.000Z</time>
      </trkpt>
      <trkpt lat="42.67277" lon="1.4934">
        <ele>2251.1999511719</ele>
        <time>2023-07-22T11:41:31.000Z</time>
      </trkpt>
      <trkpt lat="42.67276" lon="1.49341">
        <ele>2250.8000488281</ele>
        <time>2023-07-22T11:41:33.000Z</time>
      </trkpt>
      <trkpt lat="42.67275" lon="1.49344">
        <ele>2249.8000488281</ele>
        <time>2023-07-22T11:41:38.000Z</time>
      </trkpt>
      <trkpt lat="42.67274" lon="1.49344">
        <ele>2249.6000976562</ele>
        <time>2023-07-22T11:41:39.000Z</time>
      </trkpt>
      <trkpt lat="42.67272" lon="1.4935">
        <ele>2248.6000976562</ele>
        <time>2023-07-22T11:41:45.000Z</time>
      </trkpt>
      <trkpt lat="42.67272" lon="1.49351">
        <ele>2248.3999023438</ele>
        <time>2023-07-22T11:41:46.000Z</time>
      </trkpt>
      <trkpt lat="42.67271" lon="1.49357">
        <ele>2247.3999023438</ele>
        <time>2023-07-22T11:41:50.000Z</time>
      </trkpt>
      <trkpt lat="42.67272" lon="1.49359">
        <ele>2247</ele>
        <time>2023-07-22T11:41:52.000Z</time>
      </trkpt>
      <trkpt lat="42.67273" lon="1.49358">
        <ele>2246.8000488281</ele>
        <time>2023-07-22T11:41:54.000Z</time>
      </trkpt>
      <trkpt lat="42.67274" lon="1.49357">
        <ele>2246.3999023438</ele>
        <time>2023-07-22T11:41:56.000Z</time>
      </trkpt>
      <trkpt lat="42.67277" lon="1.49356">
        <ele>2245.6000976562</ele>
        <time>2023-07-22T11:41:59.000Z</time>
      </trkpt>
      <trkpt lat="42.67278" lon="1.49355">
        <ele>2245.1999511719</ele>
        <time>2023-07-22T11:42:01.000Z</time>
      </trkpt>
      <trkpt lat="42.6728" lon="1.49353">
        <ele>2244</ele>
        <time>2023-07-22T11:42:05.000Z</time>
      </trkpt>
      <trkpt lat="42.67281" lon="1.49354">
        <ele>2243.6000976562</ele>
        <time>2023-07-22T11:42:07.000Z</time>
      </trkpt>
      <trkpt lat="42.67282" lon="1.49354">
        <ele>2243.3999023438</ele>
        <time>2023-07-22T11:42:08.000Z</time>
      </trkpt>
      <trkpt lat="42.67282" lon="1.49355">
        <ele>2243</ele>
        <time>2023-07-22T11:42:10.000Z</time>
      </trkpt>
      <trkpt lat="42.67281" lon="1.4936">
        <ele>2241.8000488281</ele>
        <time>2023-07-22T11:42:15.000Z</time>
      </trkpt>
      <trkpt lat="42.6728" lon="1.49364">
        <ele>2241</ele>
        <time>2023-07-22T11:42:21.000Z</time>
      </trkpt>
      <trkpt lat="42.6728" lon="1.49365">
        <ele>2240.8000488281</ele>
        <time>2023-07-22T11:42:22.000Z</time>
      </trkpt>
      <trkpt lat="42.6728" lon="1.49365">
        <ele>2240.6000976562</ele>
        <time>2023-07-22T11:42:23.000Z</time>
      </trkpt>
      <trkpt lat="42.67282" lon="1.49363">
        <ele>2240.1999511719</ele>
        <time>2023-07-22T11:42:28.000Z</time>
      </trkpt>
      <trkpt lat="42.67288" lon="1.49359">
        <ele>2239.6000976562</ele>
        <time>2023-07-22T11:42:35.000Z</time>
      </trkpt>
      <trkpt lat="42.67289" lon="1.49359">
        <ele>2239.1999511719</ele>
        <time>2023-07-22T11:42:36.000Z</time>
      </trkpt>
      <trkpt lat="42.67294" lon="1.49356">
        <ele>2238.1999511719</ele>
        <time>2023-07-22T11:42:42.000Z</time>
      </trkpt>
      <trkpt lat="42.67294" lon="1.49356">
        <ele>2238.1999511719</ele>
        <time>2023-07-22T11:42:43.000Z</time>
      </trkpt>
      <trkpt lat="42.67296" lon="1.49352">
        <ele>2237</ele>
        <time>2023-07-22T11:42:48.000Z</time>
      </trkpt>
      <trkpt lat="42.67297" lon="1.49351">
        <ele>2236.3999023438</ele>
        <time>2023-07-22T11:42:50.000Z</time>
      </trkpt>
      <trkpt lat="42.67299" lon="1.4935">
        <ele>2236</ele>
        <time>2023-07-22T11:42:53.000Z</time>
      </trkpt>
      <trkpt lat="42.673" lon="1.49353">
        <ele>2235.6000976562</ele>
        <time>2023-07-22T11:42:57.000Z</time>
      </trkpt>
      <trkpt lat="42.673" lon="1.49354">
        <ele>2235</ele>
        <time>2023-07-22T11:43:00.000Z</time>
      </trkpt>
      <trkpt lat="42.673" lon="1.49359">
        <ele>2234</ele>
        <time>2023-07-22T11:43:07.000Z</time>
      </trkpt>
      <trkpt lat="42.67301" lon="1.49365">
        <ele>2232.8000488281</ele>
        <time>2023-07-22T11:43:12.000Z</time>
      </trkpt>
      <trkpt lat="42.67301" lon="1.49367">
        <ele>2232.1999511719</ele>
        <time>2023-07-22T11:43:15.000Z</time>
      </trkpt>
      <trkpt lat="42.673" lon="1.49368">
        <ele>2231.6000976562</ele>
        <time>2023-07-22T11:43:19.000Z</time>
      </trkpt>
      <trkpt lat="42.67299" lon="1.49373">
        <ele>2230.8000488281</ele>
        <time>2023-07-22T11:43:23.000Z</time>
      </trkpt>
      <trkpt lat="42.673" lon="1.49375">
        <ele>2230.6000976562</ele>
        <time>2023-07-22T11:43:24.000Z</time>
      </trkpt>
      <trkpt lat="42.67305" lon="1.49373">
        <ele>2230</ele>
        <time>2023-07-22T11:43:29.000Z</time>
      </trkpt>
      <trkpt lat="42.67307" lon="1.49372">
        <ele>2229.1999511719</ele>
        <time>2023-07-22T11:43:35.000Z</time>
      </trkpt>
      <trkpt lat="42.67308" lon="1.49372">
        <ele>2229</ele>
        <time>2023-07-22T11:43:36.000Z</time>
      </trkpt>
      <trkpt lat="42.67314" lon="1.49369">
        <ele>2228.1999511719</ele>
        <time>2023-07-22T11:43:42.000Z</time>
      </trkpt>
      <trkpt lat="42.67316" lon="1.49368">
        <ele>2227.6000976562</ele>
        <time>2023-07-22T11:43:44.000Z</time>
      </trkpt>
      <trkpt lat="42.67317" lon="1.49367">
        <ele>2227.1999511719</ele>
        <time>2023-07-22T11:43:46.000Z</time>
      </trkpt>
      <trkpt lat="42.67318" lon="1.49367">
        <ele>2226</ele>
        <time>2023-07-22T11:43:50.000Z</time>
      </trkpt>
      <trkpt lat="42.67319" lon="1.49368">
        <ele>2225.8000488281</ele>
        <time>2023-07-22T11:43:51.000Z</time>
      </trkpt>
      <trkpt lat="42.67321" lon="1.49369">
        <ele>2225.3999023438</ele>
        <time>2023-07-22T11:43:53.000Z</time>
      </trkpt>
      <trkpt lat="42.67321" lon="1.49371">
        <ele>2224.6000976562</ele>
        <time>2023-07-22T11:43:56.000Z</time>
      </trkpt>
      <trkpt lat="42.67321" lon="1.49372">
        <ele>2224.1999511719</ele>
        <time>2023-07-22T11:43:57.000Z</time>
      </trkpt>
      <trkpt lat="42.67319" lon="1.49377">
        <ele>2223.6000976562</ele>
        <time>2023-07-22T11:44:01.000Z</time>
      </trkpt>
      <trkpt lat="42.67316" lon="1.49383">
        <ele>2223.3999023438</ele>
        <time>2023-07-22T11:44:04.000Z</time>
      </trkpt>
      <trkpt lat="42.67315" lon="1.49385">
        <ele>2222.6000976562</ele>
        <time>2023-07-22T11:44:06.000Z</time>
      </trkpt>
      <trkpt lat="42.67312" lon="1.4939">
        <ele>2221.3999023438</ele>
        <time>2023-07-22T11:44:12.000Z</time>
      </trkpt>
      <trkpt lat="42.6731" lon="1.49393">
        <ele>2220.8000488281</ele>
        <time>2023-07-22T11:44:17.000Z</time>
      </trkpt>
      <trkpt lat="42.67311" lon="1.49392">
        <ele>2220.8000488281</ele>
        <time>2023-07-22T11:44:18.000Z</time>
      </trkpt>
      <trkpt lat="42.67313" lon="1.4939">
        <ele>2220.3999023438</ele>
        <time>2023-07-22T11:44:23.000Z</time>
      </trkpt>
      <trkpt lat="42.67313" lon="1.49392">
        <ele>2219.8000488281</ele>
        <time>2023-07-22T11:44:25.000Z</time>
      </trkpt>
      <trkpt lat="42.67313" lon="1.49392">
        <ele>2219.6000976562</ele>
        <time>2023-07-22T11:44:26.000Z</time>
      </trkpt>
      <trkpt lat="42.67313" lon="1.49392">
        <ele>2219.3999023438</ele>
        <time>2023-07-22T11:44:28.000Z</time>
      </trkpt>
      <trkpt lat="42.67314" lon="1.49393">
        <ele>2219.3999023438</ele>
        <time>2023-07-22T11:44:29.000Z</time>
      </trkpt>
      <trkpt lat="42.67315" lon="1.49394">
        <ele>2218.3999023438</ele>
        <time>2023-07-22T11:44:32.000Z</time>
      </trkpt>
      <trkpt lat="42.67316" lon="1.49395">
        <ele>2218.1999511719</ele>
        <time>2023-07-22T11:44:33.000Z</time>
      </trkpt>
      <trkpt lat="42.67321" lon="1.49396">
        <ele>2217.1999511719</ele>
        <time>2023-07-22T11:44:39.000Z</time>
      </trkpt>
      <trkpt lat="42.67322" lon="1.49396">
        <ele>2217.1999511719</ele>
        <time>2023-07-22T11:44:40.000Z</time>
      </trkpt>
      <trkpt lat="42.67325" lon="1.49398">
        <ele>2215.8000488281</ele>
        <time>2023-07-22T11:44:46.000Z</time>
      </trkpt>
      <trkpt lat="42.67326" lon="1.49399">
        <ele>2215.6000976562</ele>
        <time>2023-07-22T11:44:47.000Z</time>
      </trkpt>
      <trkpt lat="42.67329" lon="1.49402">
        <ele>2214.8000488281</ele>
        <time>2023-07-22T11:44:51.000Z</time>
      </trkpt>
      <trkpt lat="42.6733" lon="1.49404">
        <ele>2214.3999023438</ele>
        <time>2023-07-22T11:44:54.000Z</time>
      </trkpt>
      <trkpt lat="42.6733" lon="1.49406">
        <ele>2213.6000976562</ele>
        <time>2023-07-22T11:44:58.000Z</time>
      </trkpt>
      <trkpt lat="42.6733" lon="1.49408">
        <ele>2213.3999023438</ele>
        <time>2023-07-22T11:45:00.000Z</time>
      </trkpt>
      <trkpt lat="42.67331" lon="1.49411">
        <ele>2212.3999023438</ele>
        <time>2023-07-22T11:45:03.000Z</time>
      </trkpt>
      <trkpt lat="42.67332" lon="1.49413">
        <ele>2212.1999511719</ele>
        <time>2023-07-22T11:45:07.000Z</time>
      </trkpt>
      <trkpt lat="42.6733" lon="1.49413">
        <ele>2211.1999511719</ele>
        <time>2023-07-22T11:45:10.000Z</time>
      </trkpt>
      <trkpt lat="42.67329" lon="1.49419">
        <ele>2210</ele>
        <time>2023-07-22T11:45:13.000Z</time>
      </trkpt>
      <trkpt lat="42.67328" lon="1.49421">
        <ele>2210</ele>
        <time>2023-07-22T11:45:14.000Z</time>
      </trkpt>
      <trkpt lat="42.67328" lon="1.4943">
        <ele>2209</ele>
        <time>2023-07-22T11:45:21.000Z</time>
      </trkpt>
      <trkpt lat="42.67328" lon="1.49431">
        <ele>2208.8000488281</ele>
        <time>2023-07-22T11:45:22.000Z</time>
      </trkpt>
      <trkpt lat="42.67328" lon="1.49432">
        <ele>2208.6000976562</ele>
        <time>2023-07-22T11:45:24.000Z</time>
      </trkpt>
      <trkpt lat="42.67328" lon="1.49435">
        <ele>2207.8000488281</ele>
        <time>2023-07-22T11:45:26.000Z</time>
      </trkpt>
      <trkpt lat="42.67328" lon="1.49436">
        <ele>2207.3999023438</ele>
        <time>2023-07-22T11:45:27.000Z</time>
      </trkpt>
      <trkpt lat="42.67328" lon="1.49438">
        <ele>2206.6000976562</ele>
        <time>2023-07-22T11:45:29.000Z</time>
      </trkpt>
      <trkpt lat="42.67325" lon="1.49445">
        <ele>2206</ele>
        <time>2023-07-22T11:45:34.000Z</time>
      </trkpt>
      <trkpt lat="42.67322" lon="1.49455">
        <ele>2205.1999511719</ele>
        <time>2023-07-22T11:45:40.000Z</time>
      </trkpt>
      <trkpt lat="42.67321" lon="1.49457">
        <ele>2205.1999511719</ele>
        <time>2023-07-22T11:45:41.000Z</time>
      </trkpt>
      <trkpt lat="42.67319" lon="1.49465">
        <ele>2205</ele>
        <time>2023-07-22T11:45:48.000Z</time>
      </trkpt>
      <trkpt lat="42.67319" lon="1.49471">
        <ele>2204.1999511719</ele>
        <time>2023-07-22T11:45:55.000Z</time>
      </trkpt>
      <trkpt lat="42.67319" lon="1.49472">
        <ele>2204.1999511719</ele>
        <time>2023-07-22T11:45:56.000Z</time>
      </trkpt>
      <trkpt lat="42.67318" lon="1.49476">
        <ele>2203.1999511719</ele>
        <time>2023-07-22T11:46:02.000Z</time>
      </trkpt>
      <trkpt lat="42.67318" lon="1.49475">
        <ele>2202.8000488281</ele>
        <time>2023-07-22T11:46:04.000Z</time>
      </trkpt>
      <trkpt lat="42.67312" lon="1.49474">
        <ele>2202.6000976562</ele>
        <time>2023-07-22T11:46:10.000Z</time>
      </trkpt>
      <trkpt lat="42.6731" lon="1.49473">
        <ele>2202</ele>
        <time>2023-07-22T11:46:12.000Z</time>
      </trkpt>
      <trkpt lat="42.67306" lon="1.49475">
        <ele>2201.6000976562</ele>
        <time>2023-07-22T11:46:15.000Z</time>
      </trkpt>
      <trkpt lat="42.67306" lon="1.49475">
        <ele>2201.6000976562</ele>
        <time>2023-07-22T11:46:16.000Z</time>
      </trkpt>
      <trkpt lat="42.67304" lon="1.4948">
        <ele>2201.1999511719</ele>
        <time>2023-07-22T11:46:24.000Z</time>
      </trkpt>
      <trkpt lat="42.67303" lon="1.4948">
        <ele>2200.8000488281</ele>
        <time>2023-07-22T11:46:25.000Z</time>
      </trkpt>
      <trkpt lat="42.67298" lon="1.49482">
        <ele>2199.8000488281</ele>
        <time>2023-07-22T11:46:30.000Z</time>
      </trkpt>
      <trkpt lat="42.67296" lon="1.49485">
        <ele>2198.8000488281</ele>
        <time>2023-07-22T11:46:33.000Z</time>
      </trkpt>
      <trkpt lat="42.67295" lon="1.49486">
        <ele>2198.8000488281</ele>
        <time>2023-07-22T11:46:34.000Z</time>
      </trkpt>
      <trkpt lat="42.67299" lon="1.4949">
        <ele>2197.8000488281</ele>
        <time>2023-07-22T11:46:39.000Z</time>
      </trkpt>
      <trkpt lat="42.67301" lon="1.49491">
        <ele>2197.6000976562</ele>
        <time>2023-07-22T11:46:41.000Z</time>
      </trkpt>
      <trkpt lat="42.67305" lon="1.49492">
        <ele>2196.6000976562</ele>
        <time>2023-07-22T11:46:47.000Z</time>
      </trkpt>
      <trkpt lat="42.67307" lon="1.49503">
        <ele>2195.3999023438</ele>
        <time>2023-07-22T11:47:13.000Z</time>
      </trkpt>
      <trkpt lat="42.6731" lon="1.49503">
        <ele>2194.6000976562</ele>
        <time>2023-07-22T11:47:17.000Z</time>
      </trkpt>
      <trkpt lat="42.67315" lon="1.49506">
        <ele>2192.1999511719</ele>
        <time>2023-07-22T11:47:26.000Z</time>
      </trkpt>
      <trkpt lat="42.67321" lon="1.49507">
        <ele>2191.1999511719</ele>
        <time>2023-07-22T11:47:32.000Z</time>
      </trkpt>
      <trkpt lat="42.67326" lon="1.49508">
        <ele>2190</ele>
        <time>2023-07-22T11:47:36.000Z</time>
      </trkpt>
      <trkpt lat="42.67327" lon="1.49508">
        <ele>2189.3999023438</ele>
        <time>2023-07-22T11:47:39.000Z</time>
      </trkpt>
      <trkpt lat="42.67331" lon="1.49512">
        <ele>2187</ele>
        <time>2023-07-22T11:47:50.000Z</time>
      </trkpt>
      <trkpt lat="42.67333" lon="1.49511">
        <ele>2186.8000488281</ele>
        <time>2023-07-22T11:47:51.000Z</time>
      </trkpt>
      <trkpt lat="42.67334" lon="1.49509">
        <ele>2185.8000488281</ele>
        <time>2023-07-22T11:47:56.000Z</time>
      </trkpt>
      <trkpt lat="42.67334" lon="1.49508">
        <ele>2185.3999023438</ele>
        <time>2023-07-22T11:47:58.000Z</time>
      </trkpt>
      <trkpt lat="42.67333" lon="1.49508">
        <ele>2184.6000976562</ele>
        <time>2023-07-22T11:48:02.000Z</time>
      </trkpt>
      <trkpt lat="42.67332" lon="1.49509">
        <ele>2184.1999511719</ele>
        <time>2023-07-22T11:48:04.000Z</time>
      </trkpt>
      <trkpt lat="42.6733" lon="1.49508">
        <ele>2183.3999023438</ele>
        <time>2023-07-22T11:48:07.000Z</time>
      </trkpt>
      <trkpt lat="42.67321" lon="1.49536">
        <ele>2175.3999023438</ele>
        <time>2023-07-22T11:48:49.000Z</time>
      </trkpt>
      <trkpt lat="42.67322" lon="1.49536">
        <ele>2175.1999511719</ele>
        <time>2023-07-22T11:48:50.000Z</time>
      </trkpt>
      <trkpt lat="42.67326" lon="1.49537">
        <ele>2174</ele>
        <time>2023-07-22T11:48:54.000Z</time>
      </trkpt>
      <trkpt lat="42.67327" lon="1.49538">
        <ele>2173.6000976562</ele>
        <time>2023-07-22T11:48:56.000Z</time>
      </trkpt>
      <trkpt lat="42.6734" lon="1.49528">
        <ele>2171.8000488281</ele>
        <time>2023-07-22T11:49:05.000Z</time>
      </trkpt>
      <trkpt lat="42.67338" lon="1.49534">
        <ele>2175.2</ele>
        <time>2023-07-22T11:49:54Z</time>
      </trkpt>
      <trkpt lat="42.67331" lon="1.4954">
        <ele>2171.5</ele>
        <time>2023-07-22T11:50:33Z</time>
      </trkpt>
      <trkpt lat="42.67338" lon="1.49542">
        <ele>2169.1</ele>
        <time>2023-07-22T11:51:12Z</time>
      </trkpt>
      <trkpt lat="42.67338" lon="1.49547">
        <ele>2165.7</ele>
        <time>2023-07-22T11:51:51Z</time>
      </trkpt>
      <trkpt lat="42.67344" lon="1.49549">
        <ele>2163.4</ele>
        <time>2023-07-22T11:52:30Z</time>
      </trkpt>
      <trkpt lat="42.6734" lon="1.49564">
        <ele>2155.5</ele>
        <time>2023-07-22T11:53:09Z</time>
      </trkpt>
      <trkpt lat="42.67356" lon="1.49569">
        <ele>2152.3</ele>
        <time>2023-07-22T11:53:48Z</time>
      </trkpt>
      <trkpt lat="42.67374" lon="1.49554">
        <ele>2150</ele>
        <time>2023-07-22T11:54:27Z</time>
      </trkpt>
      <trkpt lat="42.67383" lon="1.49531">
        <ele>2147.9</ele>
        <time>2023-07-22T11:55:06Z</time>
      </trkpt>
      <trkpt lat="42.67383" lon="1.49514">
        <ele>2152.5</ele>
        <time>2023-07-22T11:55:45Z</time>
      </trkpt>
      <trkpt lat="42.67387" lon="1.4951">
        <ele>2147.9</ele>
        <time>2023-07-22T11:56:24Z</time>
      </trkpt>
      <trkpt lat="42.67398" lon="1.49531">
        <ele>2129.7</ele>
        <time>2023-07-22T11:57:03Z</time>
      </trkpt>
      <trkpt lat="42.67402" lon="1.49502">
        <ele>2131.2</ele>
        <time>2023-07-22T11:57:42Z</time>
      </trkpt>
      <trkpt lat="42.67413" lon="1.49485">
        <ele>2122.2</ele>
        <time>2023-07-22T11:58:21Z</time>
      </trkpt>
      <trkpt lat="42.67411" lon="1.49532">
        <ele>2110.9</ele>
        <time>2023-07-22T11:59:00Z</time>
      </trkpt>
      <trkpt lat="42.67413" lon="1.49538">
        <ele>2106.1</ele>
        <time>2023-07-22T11:59:39Z</time>
      </trkpt>
      <trkpt lat="42.67429" lon="1.49509">
        <ele>2098.4</ele>
        <time>2023-07-22T12:00:18Z</time>
      </trkpt>
      <trkpt lat="42.67443" lon="1.49484">
        <ele>2090.6</ele>
        <time>2023-07-22T12:00:57Z</time>
      </trkpt>
      <trkpt lat="42.67456" lon="1.49491">
        <ele>2082.1</ele>
        <time>2023-07-22T12:01:36Z</time>
      </trkpt>
      <trkpt lat="42.67481" lon="1.49482">
        <ele>2073.4</ele>
        <time>2023-07-22T12:02:15Z</time>
      </trkpt>
      <trkpt lat="42.67493" lon="1.49472">
        <ele>2071.1</ele>
        <time>2023-07-22T12:02:54Z</time>
      </trkpt>
      <trkpt lat="42.67508" lon="1.4946">
        <ele>2066.3</ele>
        <time>2023-07-22T12:03:33Z</time>
      </trkpt>
      <trkpt lat="42.67511" lon="1.49472">
        <ele>2062.6</ele>
        <time>2023-07-22T12:04:12Z</time>
      </trkpt>
      <trkpt lat="42.67515" lon="1.49496">
        <ele>2055.3</ele>
        <time>2023-07-22T12:04:51Z</time>
      </trkpt>
      <trkpt lat="42.67527" lon="1.49488">
        <ele>2051.6</ele>
        <time>2023-07-22T12:05:30Z</time>
      </trkpt>
      <trkpt lat="42.67544" lon="1.49472">
        <ele>2048.2</ele>
        <time>2023-07-22T12:06:09Z</time>
      </trkpt>
      <trkpt lat="42.67562" lon="1.49497">
        <ele>2038.9</ele>
        <time>2023-07-22T12:06:48Z</time>
      </trkpt>
      <trkpt lat="42.67564" lon="1.49525">
        <ele>2034.4</ele>
        <time>2023-07-22T12:07:27Z</time>
      </trkpt>
      <trkpt lat="42.67567" lon="1.49555">
        <ele>2029.2</ele>
        <time>2023-07-22T12:08:06Z</time>
      </trkpt>
      <trkpt lat="42.6754" lon="1.49625">
        <ele>2018.4</ele>
        <time>2023-07-22T12:08:45Z</time>
      </trkpt>
      <trkpt lat="42.67529" lon="1.49683">
        <ele>2013.6</ele>
        <time>2023-07-22T12:09:24Z</time>
      </trkpt>
      <trkpt lat="42.67552" lon="1.49718">
        <ele>2003.2</ele>
        <time>2023-07-22T12:10:03Z</time>
      </trkpt>
      <trkpt lat="42.67568" lon="1.49725">
        <ele>1997.7</ele>
        <time>2023-07-22T12:10:42Z</time>
      </trkpt>
      <trkpt lat="42.67573" lon="1.49713">
        <ele>1996.8</ele>
        <time>2023-07-22T12:11:21Z</time>
      </trkpt>
      <trkpt lat="42.67592" lon="1.49714">
        <ele>1991.5</ele>
        <time>2023-07-22T12:12:00Z</time>
      </trkpt>
      <trkpt lat="42.67607" lon="1.4971">
        <ele>1988.3</ele>
        <time>2023-07-22T12:12:39Z</time>
      </trkpt>
      <trkpt lat="42.67615" lon="1.4971">
        <ele>1986.8</ele>
        <time>2023-07-22T12:13:18Z</time>
      </trkpt>
      <trkpt lat="42.67626" lon="1.49701">
        <ele>1985.3</ele>
        <time>2023-07-22T12:13:57Z</time>
      </trkpt>
      <trkpt lat="42.67642" lon="1.49698">
        <ele>1981.7</ele>
        <time>2023-07-22T12:14:36Z</time>
      </trkpt>
      <trkpt lat="42.67644" lon="1.497">
        <ele>1971.5999755859</ele>
        <time>2023-07-22T12:15:33.000Z</time>
      </trkpt>
      <trkpt lat="42.67647" lon="1.49698">
        <ele>1971.4000244141</ele>
        <time>2023-07-22T12:15:37.000Z</time>
      </trkpt>
      <trkpt lat="42.67648" lon="1.49699">
        <ele>1971.1999511719</ele>
        <time>2023-07-22T12:15:40.000Z</time>
      </trkpt>
      <trkpt lat="42.67648" lon="1.49703">
        <ele>1971.1999511719</ele>
        <time>2023-07-22T12:15:48.000Z</time>
      </trkpt>
      <trkpt lat="42.67649" lon="1.49701">
        <ele>1971</ele>
        <time>2023-07-22T12:15:54.000Z</time>
      </trkpt>
      <trkpt lat="42.6765" lon="1.497">
        <ele>1970.4000244141</ele>
        <time>2023-07-22T12:15:58.000Z</time>
      </trkpt>
      <trkpt lat="42.6765" lon="1.497">
        <ele>1970.4000244141</ele>
        <time>2023-07-22T12:16:00.000Z</time>
      </trkpt>
      <trkpt lat="42.67649" lon="1.49699">
        <ele>1970</ele>
        <time>2023-07-22T12:16:07.000Z</time>
      </trkpt>
      <trkpt lat="42.67655" lon="1.49699">
        <ele>1969</ele>
        <time>2023-07-22T12:16:20.000Z</time>
      </trkpt>
      <trkpt lat="42.67655" lon="1.49702">
        <ele>1969</ele>
        <time>2023-07-22T12:16:32.000Z</time>
      </trkpt>
      <trkpt lat="42.67655" lon="1.49704">
        <ele>1969.1999511719</ele>
        <time>2023-07-22T12:16:41.000Z</time>
      </trkpt>
      <trkpt lat="42.67655" lon="1.49703">
        <ele>1969.4000244141</ele>
        <time>2023-07-22T12:16:49.000Z</time>
      </trkpt>
      <trkpt lat="42.67655" lon="1.49703">
        <ele>1969.5999755859</ele>
        <time>2023-07-22T12:16:58.000Z</time>
      </trkpt>
      <trkpt lat="42.67656" lon="1.49704">
        <ele>1969.8000488281</ele>
        <time>2023-07-22T12:17:07.000Z</time>
      </trkpt>
      <trkpt lat="42.67657" lon="1.49706">
        <ele>1969.1999511719</ele>
        <time>2023-07-22T12:17:13.000Z</time>
      </trkpt>
      <trkpt lat="42.67658" lon="1.49707">
        <ele>1968.4000244141</ele>
        <time>2023-07-22T12:17:20.000Z</time>
      </trkpt>
      <trkpt lat="42.67658" lon="1.49707">
        <ele>1968.4000244141</ele>
        <time>2023-07-22T12:17:21.000Z</time>
      </trkpt>
      <trkpt lat="42.67659" lon="1.49704">
        <ele>1968</ele>
        <time>2023-07-22T12:17:28.000Z</time>
      </trkpt>
      <trkpt lat="42.67661" lon="1.49697">
        <ele>1967.4000244141</ele>
        <time>2023-07-22T12:17:37.000Z</time>
      </trkpt>
      <trkpt lat="42.67662" lon="1.49696">
        <ele>1967.1999511719</ele>
        <time>2023-07-22T12:17:38.000Z</time>
      </trkpt>
      <trkpt lat="42.67664" lon="1.49697">
        <ele>1966.8000488281</ele>
        <time>2023-07-22T12:17:43.000Z</time>
      </trkpt>
      <trkpt lat="42.67663" lon="1.497">
        <ele>1966.1999511719</ele>
        <time>2023-07-22T12:17:47.000Z</time>
      </trkpt>
      <trkpt lat="42.67663" lon="1.497">
        <ele>1965.8000488281</ele>
        <time>2023-07-22T12:17:51.000Z</time>
      </trkpt>
      <trkpt lat="42.67664" lon="1.49699">
        <ele>1965.4000244141</ele>
        <time>2023-07-22T12:17:59.000Z</time>
      </trkpt>
      <trkpt lat="42.67664" lon="1.49699">
        <ele>1965.1999511719</ele>
        <time>2023-07-22T12:18:01.000Z</time>
      </trkpt>
      <trkpt lat="42.67666" lon="1.49701">
        <ele>1964.4000244141</ele>
        <time>2023-07-22T12:18:08.000Z</time>
      </trkpt>
      <trkpt lat="42.67667" lon="1.497">
        <ele>1964</ele>
        <time>2023-07-22T12:18:10.000Z</time>
      </trkpt>
      <trkpt lat="42.67671" lon="1.49701">
        <ele>1963</ele>
        <time>2023-07-22T12:18:16.000Z</time>
      </trkpt>
      <trkpt lat="42.67672" lon="1.49703">
        <ele>1962.5999755859</ele>
        <time>2023-07-22T12:18:19.000Z</time>
      </trkpt>
      <trkpt lat="42.67672" lon="1.49706">
        <ele>1961.8000488281</ele>
        <time>2023-07-22T12:18:25.000Z</time>
      </trkpt>
      <trkpt lat="42.67672" lon="1.49706">
        <ele>1961.8000488281</ele>
        <time>2023-07-22T12:18:26.000Z</time>
      </trkpt>
      <trkpt lat="42.67673" lon="1.49711">
        <ele>1961.1999511719</ele>
        <time>2023-07-22T12:18:33.000Z</time>
      </trkpt>
      <trkpt lat="42.67674" lon="1.49712">
        <ele>1960.8000488281</ele>
        <time>2023-07-22T12:18:37.000Z</time>
      </trkpt>
      <trkpt lat="42.67675" lon="1.49714">
        <ele>1960.5999755859</ele>
        <time>2023-07-22T12:18:40.000Z</time>
      </trkpt>
      <trkpt lat="42.67677" lon="1.49716">
        <ele>1959.8000488281</ele>
        <time>2023-07-22T12:18:44.000Z</time>
      </trkpt>
      <trkpt lat="42.67678" lon="1.49719">
        <ele>1959.1999511719</ele>
        <time>2023-07-22T12:18:48.000Z</time>
      </trkpt>
      <trkpt lat="42.6768" lon="1.49722">
        <ele>1958.8000488281</ele>
        <time>2023-07-22T12:18:51.000Z</time>
      </trkpt>
      <trkpt lat="42.6768" lon="1.49723">
        <ele>1958</ele>
        <time>2023-07-22T12:18:56.000Z</time>
      </trkpt>
      <trkpt lat="42.67681" lon="1.49725">
        <ele>1957.5999755859</ele>
        <time>2023-07-22T12:18:59.000Z</time>
      </trkpt>
      <trkpt lat="42.67681" lon="1.49729">
        <ele>1956.5999755859</ele>
        <time>2023-07-22T12:19:06.000Z</time>
      </trkpt>
      <trkpt lat="42.67681" lon="1.4973">
        <ele>1956.5999755859</ele>
        <time>2023-07-22T12:19:07.000Z</time>
      </trkpt>
      <trkpt lat="42.67681" lon="1.49737">
        <ele>1955.5999755859</ele>
        <time>2023-07-22T12:19:14.000Z</time>
      </trkpt>
      <trkpt lat="42.67681" lon="1.49738">
        <ele>1955.4000244141</ele>
        <time>2023-07-22T12:19:15.000Z</time>
      </trkpt>
      <trkpt lat="42.67683" lon="1.49737">
        <ele>1955</ele>
        <time>2023-07-22T12:19:19.000Z</time>
      </trkpt>
      <trkpt lat="42.67684" lon="1.49734">
        <ele>1954.5999755859</ele>
        <time>2023-07-22T12:19:22.000Z</time>
      </trkpt>
      <trkpt lat="42.67687" lon="1.4973">
        <ele>1953.5999755859</ele>
        <time>2023-07-22T12:19:30.000Z</time>
      </trkpt>
      <trkpt lat="42.67687" lon="1.4973">
        <ele>1953.4000244141</ele>
        <time>2023-07-22T12:19:31.000Z</time>
      </trkpt>
      <trkpt lat="42.67689" lon="1.49727">
        <ele>1952.5999755859</ele>
        <time>2023-07-22T12:19:37.000Z</time>
      </trkpt>
      <trkpt lat="42.6769" lon="1.49727">
        <ele>1952.4000244141</ele>
        <time>2023-07-22T12:19:38.000Z</time>
      </trkpt>
      <trkpt lat="42.67692" lon="1.49727">
        <ele>1951.5999755859</ele>
        <time>2023-07-22T12:19:45.000Z</time>
      </trkpt>
      <trkpt lat="42.67692" lon="1.49727">
        <ele>1951.1999511719</ele>
        <time>2023-07-22T12:19:48.000Z</time>
      </trkpt>
      <trkpt lat="42.67693" lon="1.49727">
        <ele>1950.8000488281</ele>
        <time>2023-07-22T12:19:51.000Z</time>
      </trkpt>
      <trkpt lat="42.67695" lon="1.49727">
        <ele>1950.1999511719</ele>
        <time>2023-07-22T12:19:56.000Z</time>
      </trkpt>
      <trkpt lat="42.67696" lon="1.49727">
        <ele>1950</ele>
        <time>2023-07-22T12:19:58.000Z</time>
      </trkpt>
      <trkpt lat="42.67697" lon="1.49725">
        <ele>1949.1999511719</ele>
        <time>2023-07-22T12:20:04.000Z</time>
      </trkpt>
      <trkpt lat="42.67699" lon="1.49722">
        <ele>1948.5999755859</ele>
        <time>2023-07-22T12:20:09.000Z</time>
      </trkpt>
      <trkpt lat="42.67702" lon="1.49717">
        <ele>1948</ele>
        <time>2023-07-22T12:20:13.000Z</time>
      </trkpt>
      <trkpt lat="42.67704" lon="1.49712">
        <ele>1947.4000244141</ele>
        <time>2023-07-22T12:20:17.000Z</time>
      </trkpt>
      <trkpt lat="42.67704" lon="1.49709">
        <ele>1947</ele>
        <time>2023-07-22T12:20:22.000Z</time>
      </trkpt>
      <trkpt lat="42.67704" lon="1.49709">
        <ele>1946.5999755859</ele>
        <time>2023-07-22T12:20:24.000Z</time>
      </trkpt>
      <trkpt lat="42.67704" lon="1.49708">
        <ele>1946.4000244141</ele>
        <time>2023-07-22T12:20:25.000Z</time>
      </trkpt>
      <trkpt lat="42.67705" lon="1.49707">
        <ele>1945.8000488281</ele>
        <time>2023-07-22T12:20:29.000Z</time>
      </trkpt>
      <trkpt lat="42.67704" lon="1.49703">
        <ele>1945.1999511719</ele>
        <time>2023-07-22T12:20:33.000Z</time>
      </trkpt>
      <trkpt lat="42.67705" lon="1.49702">
        <ele>1944.8000488281</ele>
        <time>2023-07-22T12:20:36.000Z</time>
      </trkpt>
      <trkpt lat="42.67709" lon="1.49704">
        <ele>1944.1999511719</ele>
        <time>2023-07-22T12:20:41.000Z</time>
      </trkpt>
      <trkpt lat="42.67713" lon="1.49707">
        <ele>1943.8000488281</ele>
        <time>2023-07-22T12:20:46.000Z</time>
      </trkpt>
      <trkpt lat="42.67715" lon="1.49709">
        <ele>1943.1999511719</ele>
        <time>2023-07-22T12:20:50.000Z</time>
      </trkpt>
      <trkpt lat="42.67715" lon="1.49714">
        <ele>1942.5999755859</ele>
        <time>2023-07-22T12:20:56.000Z</time>
      </trkpt>
      <trkpt lat="42.67715" lon="1.49715">
        <ele>1942.4000244141</ele>
        <time>2023-07-22T12:20:57.000Z</time>
      </trkpt>
      <trkpt lat="42.67716" lon="1.49718">
        <ele>1941.5999755859</ele>
        <time>2023-07-22T12:21:01.000Z</time>
      </trkpt>
      <trkpt lat="42.67716" lon="1.4972">
        <ele>1941.1999511719</ele>
        <time>2023-07-22T12:21:05.000Z</time>
      </trkpt>
      <trkpt lat="42.67717" lon="1.49722">
        <ele>1940.4000244141</ele>
        <time>2023-07-22T12:21:09.000Z</time>
      </trkpt>
      <trkpt lat="42.67718" lon="1.49724">
        <ele>1939.5999755859</ele>
        <time>2023-07-22T12:21:16.000Z</time>
      </trkpt>
      <trkpt lat="42.67719" lon="1.49725">
        <ele>1939.1999511719</ele>
        <time>2023-07-22T12:21:18.000Z</time>
      </trkpt>
      <trkpt lat="42.6772" lon="1.49728">
        <ele>1938.8000488281</ele>
        <time>2023-07-22T12:21:23.000Z</time>
      </trkpt>
      <trkpt lat="42.67721" lon="1.49732">
        <ele>1938.1999511719</ele>
        <time>2023-07-22T12:21:28.000Z</time>
      </trkpt>
      <trkpt lat="42.67722" lon="1.49734">
        <ele>1937.8000488281</ele>
        <time>2023-07-22T12:21:30.000Z</time>
      </trkpt>
      <trkpt lat="42.67723" lon="1.49737">
        <ele>1937</ele>
        <time>2023-07-22T12:21:34.000Z</time>
      </trkpt>
      <trkpt lat="42.67726" lon="1.49738">
        <ele>1936.5999755859</ele>
        <time>2023-07-22T12:21:38.000Z</time>
      </trkpt>
      <trkpt lat="42.67733" lon="1.49732">
        <ele>1936.1999511719</ele>
        <time>2023-07-22T12:21:44.000Z</time>
      </trkpt>
      <trkpt lat="42.67734" lon="1.49731">
        <ele>1936</ele>
        <time>2023-07-22T12:21:46.000Z</time>
      </trkpt>
      <trkpt lat="42.67736" lon="1.49729">
        <ele>1935.4000244141</ele>
        <time>2023-07-22T12:21:51.000Z</time>
      </trkpt>
      <trkpt lat="42.67739" lon="1.49727">
        <ele>1935</ele>
        <time>2023-07-22T12:21:54.000Z</time>
      </trkpt>
      <trkpt lat="42.67741" lon="1.49728">
        <ele>1934.5999755859</ele>
        <time>2023-07-22T12:21:57.000Z</time>
      </trkpt>
      <trkpt lat="42.67744" lon="1.49732">
        <ele>1934</ele>
        <time>2023-07-22T12:22:01.000Z</time>
      </trkpt>
      <trkpt lat="42.67749" lon="1.49732">
        <ele>1933.1999511719</ele>
        <time>2023-07-22T12:22:04.000Z</time>
      </trkpt>
      <trkpt lat="42.67751" lon="1.49731">
        <ele>1932.8000488281</ele>
        <time>2023-07-22T12:22:08.000Z</time>
      </trkpt>
      <trkpt lat="42.67753" lon="1.49732">
        <ele>1932.5999755859</ele>
        <time>2023-07-22T12:22:11.000Z</time>
      </trkpt>
      <trkpt lat="42.67758" lon="1.49736">
        <ele>1931.8000488281</ele>
        <time>2023-07-22T12:22:19.000Z</time>
      </trkpt>
      <trkpt lat="42.67762" lon="1.49743">
        <ele>1931.1999511719</ele>
        <time>2023-07-22T12:22:27.000Z</time>
      </trkpt>
      <trkpt lat="42.67763" lon="1.49747">
        <ele>1930.8000488281</ele>
        <time>2023-07-22T12:22:30.000Z</time>
      </trkpt>
      <trkpt lat="42.67763" lon="1.49753">
        <ele>1930</ele>
        <time>2023-07-22T12:22:35.000Z</time>
      </trkpt>
      <trkpt lat="42.67765" lon="1.49766">
        <ele>1929.8000488281</ele>
        <time>2023-07-22T12:22:44.000Z</time>
      </trkpt>
      <trkpt lat="42.67765" lon="1.49766">
        <ele>1929.5999755859</ele>
        <time>2023-07-22T12:22:45.000Z</time>
      </trkpt>
      <trkpt lat="42.67765" lon="1.49768">
        <ele>1929.4000244141</ele>
        <time>2023-07-22T12:22:51.000Z</time>
      </trkpt>
      <trkpt lat="42.67765" lon="1.49768">
        <ele>1929.4000244141</ele>
        <time>2023-07-22T12:22:52.000Z</time>
      </trkpt>
      <trkpt lat="42.67765" lon="1.49765">
        <ele>1929.5999755859</ele>
        <time>2023-07-22T12:23:05.000Z</time>
      </trkpt>
      <trkpt lat="42.67765" lon="1.49765">
        <ele>1930</ele>
        <time>2023-07-22T12:23:23.000Z</time>
      </trkpt>
      <trkpt lat="42.67762" lon="1.49766">
        <ele>1930</ele>
        <time>2023-07-22T12:23:35.000Z</time>
      </trkpt>
      <trkpt lat="42.67762" lon="1.49769">
        <ele>1930</ele>
        <time>2023-07-22T12:23:47.000Z</time>
      </trkpt>
      <trkpt lat="42.67764" lon="1.49761">
        <ele>1930</ele>
        <time>2023-07-22T12:23:55.000Z</time>
      </trkpt>
      <trkpt lat="42.67764" lon="1.49762">
        <ele>1930.1999511719</ele>
        <time>2023-07-22T12:24:03.000Z</time>
      </trkpt>
      <trkpt lat="42.67765" lon="1.49764">
        <ele>1930</ele>
        <time>2023-07-22T12:24:10.000Z</time>
      </trkpt>
      <trkpt lat="42.67766" lon="1.49766">
        <ele>1930</ele>
        <time>2023-07-22T12:24:17.000Z</time>
      </trkpt>
      <trkpt lat="42.67765" lon="1.49767">
        <ele>1930</ele>
        <time>2023-07-22T12:24:24.000Z</time>
      </trkpt>
      <trkpt lat="42.67763" lon="1.49778">
        <ele>1930.8000488281</ele>
        <time>2023-07-22T12:24:33.000Z</time>
      </trkpt>
      <trkpt lat="42.67763" lon="1.49779">
        <ele>1931</ele>
        <time>2023-07-22T12:24:34.000Z</time>
      </trkpt>
      <trkpt lat="42.67758" lon="1.4979">
        <ele>1931.1999511719</ele>
        <time>2023-07-22T12:24:43.000Z</time>
      </trkpt>
      <trkpt lat="42.67754" lon="1.49801">
        <ele>1931.8000488281</ele>
        <time>2023-07-22T12:24:51.000Z</time>
      </trkpt>
      <trkpt lat="42.67753" lon="1.49803">
        <ele>1931.8000488281</ele>
        <time>2023-07-22T12:24:52.000Z</time>
      </trkpt>
      <trkpt lat="42.67751" lon="1.49809">
        <ele>1932</ele>
        <time>2023-07-22T12:24:57.000Z</time>
      </trkpt>
      <trkpt lat="42.67748" lon="1.49816">
        <ele>1932.1999511719</ele>
        <time>2023-07-22T12:25:04.000Z</time>
      </trkpt>
      <trkpt lat="42.67742" lon="1.49819">
        <ele>1932.8000488281</ele>
        <time>2023-07-22T12:25:12.000Z</time>
      </trkpt>
      <trkpt lat="42.67741" lon="1.49821">
        <ele>1932.8000488281</ele>
        <time>2023-07-22T12:25:19.000Z</time>
      </trkpt>
      <trkpt lat="42.6774" lon="1.49821">
        <ele>1932.8000488281</ele>
        <time>2023-07-22T12:25:21.000Z</time>
      </trkpt>
      <trkpt lat="42.67741" lon="1.49827">
        <ele>1932.8000488281</ele>
        <time>2023-07-22T12:25:26.000Z</time>
      </trkpt>
      <trkpt lat="42.67746" lon="1.4983">
        <ele>1932.8000488281</ele>
        <time>2023-07-22T12:25:33.000Z</time>
      </trkpt>
      <trkpt lat="42.67756" lon="1.49837">
        <ele>1933.8000488281</ele>
        <time>2023-07-22T12:25:50.000Z</time>
      </trkpt>
      <trkpt lat="42.67757" lon="1.49838">
        <ele>1934</ele>
        <time>2023-07-22T12:25:51.000Z</time>
      </trkpt>
      <trkpt lat="42.67762" lon="1.49841">
        <ele>1934.1999511719</ele>
        <time>2023-07-22T12:25:57.000Z</time>
      </trkpt>
      <trkpt lat="42.67766" lon="1.49848">
        <ele>1934</ele>
        <time>2023-07-22T12:26:04.000Z</time>
      </trkpt>
      <trkpt lat="42.67769" lon="1.49855">
        <ele>1934.1999511719</ele>
        <time>2023-07-22T12:26:12.000Z</time>
      </trkpt>
      <trkpt lat="42.67772" lon="1.49862">
        <ele>1933.5999755859</ele>
        <time>2023-07-22T12:26:19.000Z</time>
      </trkpt>
      <trkpt lat="42.67777" lon="1.49864">
        <ele>1933.4000244141</ele>
        <time>2023-07-22T12:26:26.000Z</time>
      </trkpt>
      <trkpt lat="42.6778" lon="1.49866">
        <ele>1932.8000488281</ele>
        <time>2023-07-22T12:26:33.000Z</time>
      </trkpt>
      <trkpt lat="42.67782" lon="1.49867">
        <ele>1932.5999755859</ele>
        <time>2023-07-22T12:26:35.000Z</time>
      </trkpt>
      <trkpt lat="42.67785" lon="1.49867">
        <ele>1931.8000488281</ele>
        <time>2023-07-22T12:26:39.000Z</time>
      </trkpt>
      <trkpt lat="42.67788" lon="1.49866">
        <ele>1931.5999755859</ele>
        <time>2023-07-22T12:26:43.000Z</time>
      </trkpt>
      <trkpt lat="42.67792" lon="1.49864">
        <ele>1931.8000488281</ele>
        <time>2023-07-22T12:26:48.000Z</time>
      </trkpt>
      <trkpt lat="42.67797" lon="1.49861">
        <ele>1931.4000244141</ele>
        <time>2023-07-22T12:26:57.000Z</time>
      </trkpt>
      <trkpt lat="42.67799" lon="1.49864">
        <ele>1932</ele>
        <time>2023-07-22T12:27:03.000Z</time>
      </trkpt>
      <trkpt lat="42.67804" lon="1.49861">
        <ele>1932</ele>
        <time>2023-07-22T12:27:10.000Z</time>
      </trkpt>
      <trkpt lat="42.67807" lon="1.49859">
        <ele>1931.1999511719</ele>
        <time>2023-07-22T12:27:17.000Z</time>
      </trkpt>
      <trkpt lat="42.67807" lon="1.49863">
        <ele>1930.5999755859</ele>
        <time>2023-07-22T12:27:23.000Z</time>
      </trkpt>
      <trkpt lat="42.67807" lon="1.49864">
        <ele>1930.4000244141</ele>
        <time>2023-07-22T12:27:25.000Z</time>
      </trkpt>
      <trkpt lat="42.67809" lon="1.49867">
        <ele>1929.5999755859</ele>
        <time>2023-07-22T12:27:30.000Z</time>
      </trkpt>
      <trkpt lat="42.6781" lon="1.49867">
        <ele>1929.5999755859</ele>
        <time>2023-07-22T12:27:34.000Z</time>
      </trkpt>
      <trkpt lat="42.67811" lon="1.49866">
        <ele>1928.8000488281</ele>
        <time>2023-07-22T12:27:42.000Z</time>
      </trkpt>
      <trkpt lat="42.67812" lon="1.49866">
        <ele>1928.5999755859</ele>
        <time>2023-07-22T12:27:46.000Z</time>
      </trkpt>
      <trkpt lat="42.67813" lon="1.49866">
        <ele>1928.4000244141</ele>
        <time>2023-07-22T12:27:50.000Z</time>
      </trkpt>
      <trkpt lat="42.67815" lon="1.49867">
        <ele>1927.8000488281</ele>
        <time>2023-07-22T12:27:58.000Z</time>
      </trkpt>
      <trkpt lat="42.67816" lon="1.49867">
        <ele>1927.4000244141</ele>
        <time>2023-07-22T12:28:02.000Z</time>
      </trkpt>
      <trkpt lat="42.67816" lon="1.49867">
        <ele>1927</ele>
        <time>2023-07-22T12:28:06.000Z</time>
      </trkpt>
      <trkpt lat="42.67821" lon="1.49868">
        <ele>1926.4000244141</ele>
        <time>2023-07-22T12:28:13.000Z</time>
      </trkpt>
      <trkpt lat="42.67823" lon="1.49868">
        <ele>1926</ele>
        <time>2023-07-22T12:28:16.000Z</time>
      </trkpt>
      <trkpt lat="42.67826" lon="1.49867">
        <ele>1925.4000244141</ele>
        <time>2023-07-22T12:28:23.000Z</time>
      </trkpt>
      <trkpt lat="42.67828" lon="1.49867">
        <ele>1924.4000244141</ele>
        <time>2023-07-22T12:28:31.000Z</time>
      </trkpt>
      <trkpt lat="42.67828" lon="1.49867">
        <ele>1924.1999511719</ele>
        <time>2023-07-22T12:28:33.000Z</time>
      </trkpt>
      <trkpt lat="42.67828" lon="1.49867">
        <ele>1923.4000244141</ele>
        <time>2023-07-22T12:28:39.000Z</time>
      </trkpt>
      <trkpt lat="42.67829" lon="1.49867">
        <ele>1922.8000488281</ele>
        <time>2023-07-22T12:28:43.000Z</time>
      </trkpt>
      <trkpt lat="42.67831" lon="1.49869">
        <ele>1922.4000244141</ele>
        <time>2023-07-22T12:28:50.000Z</time>
      </trkpt>
      <trkpt lat="42.67831" lon="1.49869">
        <ele>1922.1999511719</ele>
        <time>2023-07-22T12:28:51.000Z</time>
      </trkpt>
      <trkpt lat="42.67832" lon="1.49868">
        <ele>1921.1999511719</ele>
        <time>2023-07-22T12:28:59.000Z</time>
      </trkpt>
      <trkpt lat="42.67833" lon="1.49869">
        <ele>1920</ele>
        <time>2023-07-22T12:29:08.000Z</time>
      </trkpt>
      <trkpt lat="42.6784" lon="1.49872">
        <ele>1918.8000488281</ele>
        <time>2023-07-22T12:29:15.000Z</time>
      </trkpt>
      <trkpt lat="42.6784" lon="1.49872">
        <ele>1918.5999755859</ele>
        <time>2023-07-22T12:29:16.000Z</time>
      </trkpt>
      <trkpt lat="42.67841" lon="1.49871">
        <ele>1917.5999755859</ele>
        <time>2023-07-22T12:29:20.000Z</time>
      </trkpt>
      <trkpt lat="42.67843" lon="1.49871">
        <ele>1917.1999511719</ele>
        <time>2023-07-22T12:29:24.000Z</time>
      </trkpt>
      <trkpt lat="42.67844" lon="1.49866">
        <ele>1916.8000488281</ele>
        <time>2023-07-22T12:29:31.000Z</time>
      </trkpt>
      <trkpt lat="42.67844" lon="1.49865">
        <ele>1916.5999755859</ele>
        <time>2023-07-22T12:29:33.000Z</time>
      </trkpt>
      <trkpt lat="42.67847" lon="1.49865">
        <ele>1916.1999511719</ele>
        <time>2023-07-22T12:29:36.000Z</time>
      </trkpt>
      <trkpt lat="42.67851" lon="1.49863">
        <ele>1915.4000244141</ele>
        <time>2023-07-22T12:29:42.000Z</time>
      </trkpt>
      <trkpt lat="42.67852" lon="1.49862">
        <ele>1915</ele>
        <time>2023-07-22T12:29:45.000Z</time>
      </trkpt>
      <trkpt lat="42.67855" lon="1.49862">
        <ele>1914.4000244141</ele>
        <time>2023-07-22T12:29:49.000Z</time>
      </trkpt>
      <trkpt lat="42.67856" lon="1.49861">
        <ele>1914</ele>
        <time>2023-07-22T12:29:52.000Z</time>
      </trkpt>
      <trkpt lat="42.67859" lon="1.49859">
        <ele>1913.4000244141</ele>
        <time>2023-07-22T12:29:57.000Z</time>
      </trkpt>
      <trkpt lat="42.67861" lon="1.49858">
        <ele>1912.4000244141</ele>
        <time>2023-07-22T12:30:01.000Z</time>
      </trkpt>
      <trkpt lat="42.67862" lon="1.49858">
        <ele>1912.1999511719</ele>
        <time>2023-07-22T12:30:03.000Z</time>
      </trkpt>
      <trkpt lat="42.67864" lon="1.49858">
        <ele>1911.1999511719</ele>
        <time>2023-07-22T12:30:08.000Z</time>
      </trkpt>
      <trkpt lat="42.67864" lon="1.49857">
        <ele>1911</ele>
        <time>2023-07-22T12:30:09.000Z</time>
      </trkpt>
      <trkpt lat="42.67868" lon="1.49856">
        <ele>1910</ele>
        <time>2023-07-22T12:30:15.000Z</time>
      </trkpt>
      <trkpt lat="42.67868" lon="1.49856">
        <ele>1909.8000488281</ele>
        <time>2023-07-22T12:30:16.000Z</time>
      </trkpt>
      <trkpt lat="42.6787" lon="1.49857">
        <ele>1909</ele>
        <time>2023-07-22T12:30:20.000Z</time>
      </trkpt>
      <trkpt lat="42.67871" lon="1.49858">
        <ele>1908.4000244141</ele>
        <time>2023-07-22T12:30:24.000Z</time>
      </trkpt>
      <trkpt lat="42.67873" lon="1.49858">
        <ele>1907.8000488281</ele>
        <time>2023-07-22T12:30:28.000Z</time>
      </trkpt>
      <trkpt lat="42.67875" lon="1.49858">
        <ele>1906.8000488281</ele>
        <time>2023-07-22T12:30:34.000Z</time>
      </trkpt>
      <trkpt lat="42.67875" lon="1.49857">
        <ele>1906.5999755859</ele>
        <time>2023-07-22T12:30:36.000Z</time>
      </trkpt>
      <trkpt lat="42.67877" lon="1.49854">
        <ele>1905.5999755859</ele>
        <time>2023-07-22T12:30:43.000Z</time>
      </trkpt>
      <trkpt lat="42.67879" lon="1.49852">
        <ele>1904.5999755859</ele>
        <time>2023-07-22T12:30:49.000Z</time>
      </trkpt>
      <trkpt lat="42.6788" lon="1.49852">
        <ele>1904.4000244141</ele>
        <time>2023-07-22T12:30:50.000Z</time>
      </trkpt>
      <trkpt lat="42.67887" lon="1.49845">
        <ele>1904</ele>
        <time>2023-07-22T12:30:57.000Z</time>
      </trkpt>
      <trkpt lat="42.67891" lon="1.49841">
        <ele>1904</ele>
        <time>2023-07-22T12:31:06.000Z</time>
      </trkpt>
      <trkpt lat="42.67896" lon="1.49836">
        <ele>1903.5999755859</ele>
        <time>2023-07-22T12:31:12.000Z</time>
      </trkpt>
      <trkpt lat="42.67898" lon="1.49834">
        <ele>1903.1999511719</ele>
        <time>2023-07-22T12:31:15.000Z</time>
      </trkpt>
      <trkpt lat="42.679" lon="1.4983">
        <ele>1902.1999511719</ele>
        <time>2023-07-22T12:31:21.000Z</time>
      </trkpt>
      <trkpt lat="42.67902" lon="1.49827">
        <ele>1901.5999755859</ele>
        <time>2023-07-22T12:31:29.000Z</time>
      </trkpt>
      <trkpt lat="42.67903" lon="1.49827">
        <ele>1901.1999511719</ele>
        <time>2023-07-22T12:31:31.000Z</time>
      </trkpt>
      <trkpt lat="42.67901" lon="1.4983">
        <ele>1900.5999755859</ele>
        <time>2023-07-22T12:31:35.000Z</time>
      </trkpt>
      <trkpt lat="42.679" lon="1.49833">
        <ele>1900.1999511719</ele>
        <time>2023-07-22T12:31:37.000Z</time>
      </trkpt>
      <trkpt lat="42.67898" lon="1.49838">
        <ele>1899.4000244141</ele>
        <time>2023-07-22T12:31:42.000Z</time>
      </trkpt>
      <trkpt lat="42.67899" lon="1.49836">
        <ele>1899.1999511719</ele>
        <time>2023-07-22T12:31:44.000Z</time>
      </trkpt>
      <trkpt lat="42.679" lon="1.49835">
        <ele>1899</ele>
        <time>2023-07-22T12:31:45.000Z</time>
      </trkpt>
      <trkpt lat="42.67902" lon="1.49833">
        <ele>1898.8000488281</ele>
        <time>2023-07-22T12:31:49.000Z</time>
      </trkpt>
      <trkpt lat="42.67904" lon="1.49832">
        <ele>1898</ele>
        <time>2023-07-22T12:31:53.000Z</time>
      </trkpt>
      <trkpt lat="42.67907" lon="1.49829">
        <ele>1897.1999511719</ele>
        <time>2023-07-22T12:31:58.000Z</time>
      </trkpt>
      <trkpt lat="42.67908" lon="1.49829">
        <ele>1896.8000488281</ele>
        <time>2023-07-22T12:32:00.000Z</time>
      </trkpt>
      <trkpt lat="42.67909" lon="1.49827">
        <ele>1896</ele>
        <time>2023-07-22T12:32:05.000Z</time>
      </trkpt>
      <trkpt lat="42.67909" lon="1.49828">
        <ele>1895.8000488281</ele>
        <time>2023-07-22T12:32:06.000Z</time>
      </trkpt>
      <trkpt lat="42.67911" lon="1.49826">
        <ele>1894.8000488281</ele>
        <time>2023-07-22T12:32:12.000Z</time>
      </trkpt>
      <trkpt lat="42.67912" lon="1.49826">
        <ele>1894.8000488281</ele>
        <time>2023-07-22T12:32:13.000Z</time>
      </trkpt>
      <trkpt lat="42.67917" lon="1.49822">
        <ele>1893.8000488281</ele>
        <time>2023-07-22T12:32:19.000Z</time>
      </trkpt>
      <trkpt lat="42.67917" lon="1.49821">
        <ele>1893.4000244141</ele>
        <time>2023-07-22T12:32:20.000Z</time>
      </trkpt>
      <trkpt lat="42.6792" lon="1.49819">
        <ele>1892.5999755859</ele>
        <time>2023-07-22T12:32:25.000Z</time>
      </trkpt>
      <trkpt lat="42.67921" lon="1.49819">
        <ele>1892.4000244141</ele>
        <time>2023-07-22T12:32:27.000Z</time>
      </trkpt>
      <trkpt lat="42.67925" lon="1.49816">
        <ele>1891.5999755859</ele>
        <time>2023-07-22T12:32:33.000Z</time>
      </trkpt>
      <trkpt lat="42.67926" lon="1.49815">
        <ele>1891.4000244141</ele>
        <time>2023-07-22T12:32:34.000Z</time>
      </trkpt>
      <trkpt lat="42.6793" lon="1.49813">
        <ele>1890.5999755859</ele>
        <time>2023-07-22T12:32:41.000Z</time>
      </trkpt>
      <trkpt lat="42.67931" lon="1.49813">
        <ele>1890.1999511719</ele>
        <time>2023-07-22T12:32:43.000Z</time>
      </trkpt>
      <trkpt lat="42.67932" lon="1.4981">
        <ele>1889.4000244141</ele>
        <time>2023-07-22T12:32:50.000Z</time>
      </trkpt>
      <trkpt lat="42.67933" lon="1.49809">
        <ele>1889.1999511719</ele>
        <time>2023-07-22T12:32:51.000Z</time>
      </trkpt>
      <trkpt lat="42.67935" lon="1.49807">
        <ele>1888.1999511719</ele>
        <time>2023-07-22T12:32:56.000Z</time>
      </trkpt>
      <trkpt lat="42.67936" lon="1.49806">
        <ele>1887.8000488281</ele>
        <time>2023-07-22T12:32:58.000Z</time>
      </trkpt>
      <trkpt lat="42.67941" lon="1.49802">
        <ele>1886.8000488281</ele>
        <time>2023-07-22T12:33:04.000Z</time>
      </trkpt>
      <trkpt lat="42.67946" lon="1.49798">
        <ele>1885.8000488281</ele>
        <time>2023-07-22T12:33:11.000Z</time>
      </trkpt>
      <trkpt lat="42.67948" lon="1.49795">
        <ele>1885</ele>
        <time>2023-07-22T12:33:15.000Z</time>
      </trkpt>
      <trkpt lat="42.6795" lon="1.49794">
        <ele>1884.5999755859</ele>
        <time>2023-07-22T12:33:17.000Z</time>
      </trkpt>
      <trkpt lat="42.67953" lon="1.49792">
        <ele>1883.5999755859</ele>
        <time>2023-07-22T12:33:22.000Z</time>
      </trkpt>
      <trkpt lat="42.67954" lon="1.49789">
        <ele>1882.4000244141</ele>
        <time>2023-07-22T12:33:28.000Z</time>
      </trkpt>
      <trkpt lat="42.67954" lon="1.49789">
        <ele>1882.1999511719</ele>
        <time>2023-07-22T12:33:30.000Z</time>
      </trkpt>
      <trkpt lat="42.67953" lon="1.49792">
        <ele>1881.1999511719</ele>
        <time>2023-07-22T12:33:35.000Z</time>
      </trkpt>
      <trkpt lat="42.67953" lon="1.49793">
        <ele>1880.8000488281</ele>
        <time>2023-07-22T12:33:37.000Z</time>
      </trkpt>
      <trkpt lat="42.67954" lon="1.49795">
        <ele>1880.1999511719</ele>
        <time>2023-07-22T12:33:41.000Z</time>
      </trkpt>
      <trkpt lat="42.67955" lon="1.49795">
        <ele>1880</ele>
        <time>2023-07-22T12:33:43.000Z</time>
      </trkpt>
      <trkpt lat="42.67956" lon="1.49793">
        <ele>1879</ele>
        <time>2023-07-22T12:33:50.000Z</time>
      </trkpt>
      <trkpt lat="42.67956" lon="1.49786">
        <ele>1878</ele>
        <time>2023-07-22T12:33:59.000Z</time>
      </trkpt>
      <trkpt lat="42.67956" lon="1.49785">
        <ele>1877.8000488281</ele>
        <time>2023-07-22T12:34:00.000Z</time>
      </trkpt>
      <trkpt lat="42.67956" lon="1.49782">
        <ele>1877</ele>
        <time>2023-07-22T12:34:05.000Z</time>
      </trkpt>
      <trkpt lat="42.67959" lon="1.4978">
        <ele>1876.4000244141</ele>
        <time>2023-07-22T12:34:08.000Z</time>
      </trkpt>
      <trkpt lat="42.67959" lon="1.49779">
        <ele>1876</ele>
        <time>2023-07-22T12:34:10.000Z</time>
      </trkpt>
      <trkpt lat="42.67959" lon="1.49778">
        <ele>1875.5999755859</ele>
        <time>2023-07-22T12:34:14.000Z</time>
      </trkpt>
      <trkpt lat="42.67962" lon="1.49777">
        <ele>1874.8000488281</ele>
        <time>2023-07-22T12:34:20.000Z</time>
      </trkpt>
      <trkpt lat="42.67962" lon="1.49779">
        <ele>1874</ele>
        <time>2023-07-22T12:34:25.000Z</time>
      </trkpt>
      <trkpt lat="42.67962" lon="1.4978">
        <ele>1873.8000488281</ele>
        <time>2023-07-22T12:34:27.000Z</time>
      </trkpt>
      <trkpt lat="42.67963" lon="1.49784">
        <ele>1872.8000488281</ele>
        <time>2023-07-22T12:34:32.000Z</time>
      </trkpt>
      <trkpt lat="42.67965" lon="1.49782">
        <ele>1871</ele>
        <time>2023-07-22T12:34:50.000Z</time>
      </trkpt>
      <trkpt lat="42.67966" lon="1.49786">
        <ele>1870.4000244141</ele>
        <time>2023-07-22T12:34:53.000Z</time>
      </trkpt>
      <trkpt lat="42.67966" lon="1.49788">
        <ele>1869.8000488281</ele>
        <time>2023-07-22T12:34:56.000Z</time>
      </trkpt>
      <trkpt lat="42.67965" lon="1.49789">
        <ele>1869.4000244141</ele>
        <time>2023-07-22T12:34:59.000Z</time>
      </trkpt>
      <trkpt lat="42.67964" lon="1.49789">
        <ele>1869</ele>
        <time>2023-07-22T12:35:03.000Z</time>
      </trkpt>
      <trkpt lat="42.67964" lon="1.49791">
        <ele>1868.4000244141</ele>
        <time>2023-07-22T12:35:06.000Z</time>
      </trkpt>
      <trkpt lat="42.67966" lon="1.49796">
        <ele>1867.8000488281</ele>
        <time>2023-07-22T12:35:11.000Z</time>
      </trkpt>
      <trkpt lat="42.67967" lon="1.49797">
        <ele>1867.4000244141</ele>
        <time>2023-07-22T12:35:13.000Z</time>
      </trkpt>
      <trkpt lat="42.67966" lon="1.49792">
        <ele>1865.1999511719</ele>
        <time>2023-07-22T12:35:25.000Z</time>
      </trkpt>
      <trkpt lat="42.67966" lon="1.49791">
        <ele>1865</ele>
        <time>2023-07-22T12:35:26.000Z</time>
      </trkpt>
      <trkpt lat="42.67966" lon="1.49788">
        <ele>1864.1999511719</ele>
        <time>2023-07-22T12:35:33.000Z</time>
      </trkpt>
      <trkpt lat="42.67966" lon="1.49788">
        <ele>1864</ele>
        <time>2023-07-22T12:35:34.000Z</time>
      </trkpt>
      <trkpt lat="42.67966" lon="1.49786">
        <ele>1863.5999755859</ele>
        <time>2023-07-22T12:35:40.000Z</time>
      </trkpt>
      <trkpt lat="42.67965" lon="1.49784">
        <ele>1863</ele>
        <time>2023-07-22T12:35:44.000Z</time>
      </trkpt>
      <trkpt lat="42.67964" lon="1.49778">
        <ele>1862.1999511719</ele>
        <time>2023-07-22T12:35:50.000Z</time>
      </trkpt>
      <trkpt lat="42.67964" lon="1.49777">
        <ele>1862</ele>
        <time>2023-07-22T12:35:52.000Z</time>
      </trkpt>
      <trkpt lat="42.67963" lon="1.49774">
        <ele>1861.1999511719</ele>
        <time>2023-07-22T12:35:58.000Z</time>
      </trkpt>
      <trkpt lat="42.67963" lon="1.49774">
        <ele>1861</ele>
        <time>2023-07-22T12:35:59.000Z</time>
      </trkpt>
      <trkpt lat="42.67983" lon="1.49771">
        <ele>1852</ele>
        <time>2023-07-22T12:36:48.000Z</time>
      </trkpt>
      <trkpt lat="42.67986" lon="1.49778">
        <ele>1851</ele>
        <time>2023-07-22T12:36:56.000Z</time>
      </trkpt>
      <trkpt lat="42.67984" lon="1.49785">
        <ele>1850</ele>
        <time>2023-07-22T12:37:04.000Z</time>
      </trkpt>
      <trkpt lat="42.67984" lon="1.49784">
        <ele>1849.8000488281</ele>
        <time>2023-07-22T12:37:05.000Z</time>
      </trkpt>
      <trkpt lat="42.67985" lon="1.4978">
        <ele>1849.1999511719</ele>
        <time>2023-07-22T12:37:11.000Z</time>
      </trkpt>
      <trkpt lat="42.67985" lon="1.49778">
        <ele>1848.8000488281</ele>
        <time>2023-07-22T12:37:16.000Z</time>
      </trkpt>
      <trkpt lat="42.67986" lon="1.49776">
        <ele>1848.8000488281</ele>
        <time>2023-07-22T12:37:17.000Z</time>
      </trkpt>
      <trkpt lat="42.67989" lon="1.49772">
        <ele>1847.5999755859</ele>
        <time>2023-07-22T12:37:23.000Z</time>
      </trkpt>
      <trkpt lat="42.6799" lon="1.49772">
        <ele>1847.5999755859</ele>
        <time>2023-07-22T12:37:24.000Z</time>
      </trkpt>
      <trkpt lat="42.67993" lon="1.49765">
        <ele>1846.5999755859</ele>
        <time>2023-07-22T12:37:32.000Z</time>
      </trkpt>
      <trkpt lat="42.67994" lon="1.49764">
        <ele>1845.5999755859</ele>
        <time>2023-07-22T12:37:38.000Z</time>
      </trkpt>
      <trkpt lat="42.67994" lon="1.49762">
        <ele>1845.4000244141</ele>
        <time>2023-07-22T12:37:40.000Z</time>
      </trkpt>
      <trkpt lat="42.67992" lon="1.49759">
        <ele>1844.8000488281</ele>
        <time>2023-07-22T12:37:44.000Z</time>
      </trkpt>
      <trkpt lat="42.68005" lon="1.49773">
        <ele>1837.5999755859</ele>
        <time>2023-07-22T12:38:27.000Z</time>
      </trkpt>
      <trkpt lat="42.68004" lon="1.49775">
        <ele>1837.1999511719</ele>
        <time>2023-07-22T12:38:29.000Z</time>
      </trkpt>
      <trkpt lat="42.68003" lon="1.49777">
        <ele>1836.5999755859</ele>
        <time>2023-07-22T12:38:32.000Z</time>
      </trkpt>
      <trkpt lat="42.68" lon="1.49781">
        <ele>1835.4000244141</ele>
        <time>2023-07-22T12:38:37.000Z</time>
      </trkpt>
      <trkpt lat="42.67998" lon="1.49783">
        <ele>1835.1999511719</ele>
        <time>2023-07-22T12:38:39.000Z</time>
      </trkpt>
      <trkpt lat="42.67992" lon="1.49792">
        <ele>1834.5999755859</ele>
        <time>2023-07-22T12:38:46.000Z</time>
      </trkpt>
      <trkpt lat="42.67992" lon="1.49794">
        <ele>1834.4000244141</ele>
        <time>2023-07-22T12:38:47.000Z</time>
      </trkpt>
      <trkpt lat="42.67991" lon="1.49797">
        <ele>1833.8000488281</ele>
        <time>2023-07-22T12:38:53.000Z</time>
      </trkpt>
      <trkpt lat="42.67991" lon="1.49797">
        <ele>1833.5999755859</ele>
        <time>2023-07-22T12:38:54.000Z</time>
      </trkpt>
      <trkpt lat="42.67991" lon="1.49796">
        <ele>1833.4000244141</ele>
        <time>2023-07-22T12:38:56.000Z</time>
      </trkpt>
      <trkpt lat="42.67996" lon="1.49792">
        <ele>1832.5999755859</ele>
        <time>2023-07-22T12:39:01.000Z</time>
      </trkpt>
      <trkpt lat="42.67996" lon="1.4979">
        <ele>1832.1999511719</ele>
        <time>2023-07-22T12:39:03.000Z</time>
      </trkpt>
      <trkpt lat="42.67997" lon="1.49787">
        <ele>1831.1999511719</ele>
        <time>2023-07-22T12:39:08.000Z</time>
      </trkpt>
      <trkpt lat="42.67999" lon="1.49785">
        <ele>1830.5999755859</ele>
        <time>2023-07-22T12:39:10.000Z</time>
      </trkpt>
      <trkpt lat="42.68" lon="1.49783">
        <ele>1830.1999511719</ele>
        <time>2023-07-22T12:39:12.000Z</time>
      </trkpt>
      <trkpt lat="42.68003" lon="1.49779">
        <ele>1829</ele>
        <time>2023-07-22T12:39:17.000Z</time>
      </trkpt>
      <trkpt lat="42.68003" lon="1.49778">
        <ele>1828.5999755859</ele>
        <time>2023-07-22T12:39:18.000Z</time>
      </trkpt>
      <trkpt lat="42.68005" lon="1.49776">
        <ele>1828</ele>
        <time>2023-07-22T12:39:21.000Z</time>
      </trkpt>
      <trkpt lat="42.68007" lon="1.49772">
        <ele>1827</ele>
        <time>2023-07-22T12:39:26.000Z</time>
      </trkpt>
      <trkpt lat="42.68008" lon="1.49772">
        <ele>1826.5999755859</ele>
        <time>2023-07-22T12:39:27.000Z</time>
      </trkpt>
      <trkpt lat="42.68009" lon="1.4977">
        <ele>1825.8000488281</ele>
        <time>2023-07-22T12:39:31.000Z</time>
      </trkpt>
      <trkpt lat="42.68011" lon="1.4977">
        <ele>1825.1999511719</ele>
        <time>2023-07-22T12:39:35.000Z</time>
      </trkpt>
      <trkpt lat="42.68013" lon="1.49768">
        <ele>1824.8000488281</ele>
        <time>2023-07-22T12:39:39.000Z</time>
      </trkpt>
      <trkpt lat="42.68014" lon="1.49766">
        <ele>1824.1999511719</ele>
        <time>2023-07-22T12:39:43.000Z</time>
      </trkpt>
      <trkpt lat="42.68015" lon="1.49766">
        <ele>1823.5999755859</ele>
        <time>2023-07-22T12:39:45.000Z</time>
      </trkpt>
      <trkpt lat="42.6802" lon="1.49765">
        <ele>1822.4000244141</ele>
        <time>2023-07-22T12:39:50.000Z</time>
      </trkpt>
      <trkpt lat="42.68029" lon="1.49758">
        <ele>1820.4000244141</ele>
        <time>2023-07-22T12:40:04.000Z</time>
      </trkpt>
      <trkpt lat="42.68029" lon="1.49758">
        <ele>1820.1999511719</ele>
        <time>2023-07-22T12:40:06.000Z</time>
      </trkpt>
      <trkpt lat="42.68027" lon="1.49766">
        <ele>1817.8000488281</ele>
        <time>2023-07-22T12:40:19.000Z</time>
      </trkpt>
      <trkpt lat="42.68026" lon="1.49771">
        <ele>1817.1999511719</ele>
        <time>2023-07-22T12:40:25.000Z</time>
      </trkpt>
      <trkpt lat="42.68026" lon="1.49772">
        <ele>1817</ele>
        <time>2023-07-22T12:40:26.000Z</time>
      </trkpt>
      <trkpt lat="42.68022" lon="1.49777">
        <ele>1816.1999511719</ele>
        <time>2023-07-22T12:40:32.000Z</time>
      </trkpt>
      <trkpt lat="42.68023" lon="1.49777">
        <ele>1816</ele>
        <time>2023-07-22T12:40:34.000Z</time>
      </trkpt>
      <trkpt lat="42.68018" lon="1.49783">
        <ele>1815.1999511719</ele>
        <time>2023-07-22T12:40:50.000Z</time>
      </trkpt>
      <trkpt lat="42.68017" lon="1.49787">
        <ele>1814.8000488281</ele>
        <time>2023-07-22T12:40:52.000Z</time>
      </trkpt>
      <trkpt lat="42.68019" lon="1.49788">
        <ele>1813.8000488281</ele>
        <time>2023-07-22T12:40:59.000Z</time>
      </trkpt>
      <trkpt lat="42.68021" lon="1.49782">
        <ele>1812.8000488281</ele>
        <time>2023-07-22T12:41:04.000Z</time>
      </trkpt>
      <trkpt lat="42.68021" lon="1.49781">
        <ele>1812.1999511719</ele>
        <time>2023-07-22T12:41:06.000Z</time>
      </trkpt>
      <trkpt lat="42.68023" lon="1.49778">
        <ele>1811.5999755859</ele>
        <time>2023-07-22T12:41:09.000Z</time>
      </trkpt>
      <trkpt lat="42.68024" lon="1.49777">
        <ele>1810.8000488281</ele>
        <time>2023-07-22T12:41:12.000Z</time>
      </trkpt>
      <trkpt lat="42.68025" lon="1.49777">
        <ele>1810.4000244141</ele>
        <time>2023-07-22T12:41:13.000Z</time>
      </trkpt>
      <trkpt lat="42.68026" lon="1.49777">
        <ele>1809.4000244141</ele>
        <time>2023-07-22T12:41:17.000Z</time>
      </trkpt>
      <trkpt lat="42.68029" lon="1.49777">
        <ele>1808.5999755859</ele>
        <time>2023-07-22T12:41:21.000Z</time>
      </trkpt>
      <trkpt lat="42.68029" lon="1.49777">
        <ele>1808.1999511719</ele>
        <time>2023-07-22T12:41:22.000Z</time>
      </trkpt>
      <trkpt lat="42.68035" lon="1.49773">
        <ele>1805.1999511719</ele>
        <time>2023-07-22T12:41:57.000Z</time>
      </trkpt>
      <trkpt lat="42.68036" lon="1.49775">
        <ele>1804.8000488281</ele>
        <time>2023-07-22T12:41:59.000Z</time>
      </trkpt>
      <trkpt lat="42.68037" lon="1.49784">
        <ele>1804.4000244141</ele>
        <time>2023-07-22T12:42:06.000Z</time>
      </trkpt>
      <trkpt lat="42.68038" lon="1.49786">
        <ele>1804</ele>
        <time>2023-07-22T12:42:08.000Z</time>
      </trkpt>
      <trkpt lat="42.6804" lon="1.49789">
        <ele>1802.8000488281</ele>
        <time>2023-07-22T12:42:13.000Z</time>
      </trkpt>
      <trkpt lat="42.6804" lon="1.4979">
        <ele>1802.5999755859</ele>
        <time>2023-07-22T12:42:14.000Z</time>
      </trkpt>
      <trkpt lat="42.68039" lon="1.49794">
        <ele>1801.8000488281</ele>
        <time>2023-07-22T12:42:19.000Z</time>
      </trkpt>
      <trkpt lat="42.68038" lon="1.49794">
        <ele>1801.1999511719</ele>
        <time>2023-07-22T12:42:22.000Z</time>
      </trkpt>
      <trkpt lat="42.68037" lon="1.49793">
        <ele>1801</ele>
        <time>2023-07-22T12:42:23.000Z</time>
      </trkpt>
      <trkpt lat="42.68036" lon="1.49792">
        <ele>1800.8000488281</ele>
        <time>2023-07-22T12:42:26.000Z</time>
      </trkpt>
      <trkpt lat="42.68036" lon="1.49791">
        <ele>1800.5999755859</ele>
        <time>2023-07-22T12:42:28.000Z</time>
      </trkpt>
      <trkpt lat="42.68034" lon="1.49787">
        <ele>1800.1999511719</ele>
        <time>2023-07-22T12:42:35.000Z</time>
      </trkpt>
      <trkpt lat="42.68037" lon="1.49784">
        <ele>1799.8000488281</ele>
        <time>2023-07-22T12:42:42.000Z</time>
      </trkpt>
      <trkpt lat="42.68038" lon="1.49781">
        <ele>1799.5999755859</ele>
        <time>2023-07-22T12:42:44.000Z</time>
      </trkpt>
      <trkpt lat="42.6804" lon="1.49778">
        <ele>1798.5999755859</ele>
        <time>2023-07-22T12:42:49.000Z</time>
      </trkpt>
      <trkpt lat="42.68042" lon="1.49778">
        <ele>1798</ele>
        <time>2023-07-22T12:42:51.000Z</time>
      </trkpt>
      <trkpt lat="42.68052" lon="1.4978">
        <ele>1795</ele>
        <time>2023-07-22T12:43:06.000Z</time>
      </trkpt>
      <trkpt lat="42.68052" lon="1.4978">
        <ele>1794.8000488281</ele>
        <time>2023-07-22T12:43:07.000Z</time>
      </trkpt>
      <trkpt lat="42.68051" lon="1.49786">
        <ele>1794.1999511719</ele>
        <time>2023-07-22T12:43:12.000Z</time>
      </trkpt>
      <trkpt lat="42.68051" lon="1.49788">
        <ele>1794</ele>
        <time>2023-07-22T12:43:13.000Z</time>
      </trkpt>
      <trkpt lat="42.68051" lon="1.4979">
        <ele>1793.5999755859</ele>
        <time>2023-07-22T12:43:20.000Z</time>
      </trkpt>
      <trkpt lat="42.68052" lon="1.49782">
        <ele>1790.8000488281</ele>
        <time>2023-07-22T12:43:42.000Z</time>
      </trkpt>
      <trkpt lat="42.68058" lon="1.49778">
        <ele>1790.1999511719</ele>
        <time>2023-07-22T12:43:51.000Z</time>
      </trkpt>
      <trkpt lat="42.68061" lon="1.49775">
        <ele>1789.8000488281</ele>
        <time>2023-07-22T12:43:55.000Z</time>
      </trkpt>
      <trkpt lat="42.68064" lon="1.49775">
        <ele>1789.5999755859</ele>
        <time>2023-07-22T12:44:00.000Z</time>
      </trkpt>
      <trkpt lat="42.68063" lon="1.49781">
        <ele>1789.1999511719</ele>
        <time>2023-07-22T12:44:07.000Z</time>
      </trkpt>
      <trkpt lat="42.68061" lon="1.49782">
        <ele>1788.8000488281</ele>
        <time>2023-07-22T12:44:10.000Z</time>
      </trkpt>
      <trkpt lat="42.6806" lon="1.49782">
        <ele>1788.5999755859</ele>
        <time>2023-07-22T12:44:14.000Z</time>
      </trkpt>
      <trkpt lat="42.68059" lon="1.49783">
        <ele>1788</ele>
        <time>2023-07-22T12:44:23.000Z</time>
      </trkpt>
      <trkpt lat="42.68075" lon="1.49774">
        <ele>1784</ele>
        <time>2023-07-22T12:44:53.000Z</time>
      </trkpt>
      <trkpt lat="42.68075" lon="1.49773">
        <ele>1783.8000488281</ele>
        <time>2023-07-22T12:44:54.000Z</time>
      </trkpt>
      <trkpt lat="42.68076" lon="1.4977">
        <ele>1783.1999511719</ele>
        <time>2023-07-22T12:44:58.000Z</time>
      </trkpt>
      <trkpt lat="42.68077" lon="1.49766">
        <ele>1782.4000244141</ele>
        <time>2023-07-22T12:45:04.000Z</time>
      </trkpt>
      <trkpt lat="42.68071" lon="1.49772">
        <ele>1779.8000488281</ele>
        <time>2023-07-22T12:45:39.000Z</time>
      </trkpt>
      <trkpt lat="42.68075" lon="1.49769">
        <ele>1778.1999511719</ele>
        <time>2023-07-22T12:45:48.000Z</time>
      </trkpt>
      <trkpt lat="42.68077" lon="1.49767">
        <ele>1777.8000488281</ele>
        <time>2023-07-22T12:45:52.000Z</time>
      </trkpt>
      <trkpt lat="42.68078" lon="1.49765">
        <ele>1777.5999755859</ele>
        <time>2023-07-22T12:45:54.000Z</time>
      </trkpt>
      <trkpt lat="42.68079" lon="1.4976">
        <ele>1776.5999755859</ele>
        <time>2023-07-22T12:45:59.000Z</time>
      </trkpt>
      <trkpt lat="42.68079" lon="1.4976">
        <ele>1776.4000244141</ele>
        <time>2023-07-22T12:46:01.000Z</time>
      </trkpt>
      <trkpt lat="42.68092" lon="1.49775">
        <ele>1773.1999511719</ele>
        <time>2023-07-22T12:46:20.000Z</time>
      </trkpt>
      <trkpt lat="42.68092" lon="1.49775">
        <ele>1772.8000488281</ele>
        <time>2023-07-22T12:46:23.000Z</time>
      </trkpt>
      <trkpt lat="42.68093" lon="1.49775">
        <ele>1772.8000488281</ele>
        <time>2023-07-22T12:46:24.000Z</time>
      </trkpt>
      <trkpt lat="42.68096" lon="1.49774">
        <ele>1772.4000244141</ele>
        <time>2023-07-22T12:46:27.000Z</time>
      </trkpt>
      <trkpt lat="42.68097" lon="1.49775">
        <ele>1771.5999755859</ele>
        <time>2023-07-22T12:46:31.000Z</time>
      </trkpt>
      <trkpt lat="42.68095" lon="1.49775">
        <ele>1771.4000244141</ele>
        <time>2023-07-22T12:46:39.000Z</time>
      </trkpt>
      <trkpt lat="42.68095" lon="1.49774">
        <ele>1771.5999755859</ele>
        <time>2023-07-22T12:46:48.000Z</time>
      </trkpt>
      <trkpt lat="42.68208" lon="1.49759">
        <ele>1725.5999755859</ele>
        <time>2023-07-22T12:52:00.000Z</time>
      </trkpt>
      <trkpt lat="42.68208" lon="1.49755">
        <ele>1724.8000488281</ele>
        <time>2023-07-22T12:52:05.000Z</time>
      </trkpt>
      <trkpt lat="42.68211" lon="1.49752">
        <ele>1723.8000488281</ele>
        <time>2023-07-22T12:52:11.000Z</time>
      </trkpt>
      <trkpt lat="42.68211" lon="1.49751">
        <ele>1723.8000488281</ele>
        <time>2023-07-22T12:52:12.000Z</time>
      </trkpt>
      <trkpt lat="42.6824" lon="1.49734">
        <ele>1717</ele>
        <time>2023-07-22T12:52:58.000Z</time>
      </trkpt>
      <trkpt lat="42.68337" lon="1.49764">
        <ele>1691.4000244141</ele>
        <time>2023-07-22T12:56:02.000Z</time>
      </trkpt>
      <trkpt lat="42.68339" lon="1.49763">
        <ele>1690.4000244141</ele>
        <time>2023-07-22T12:56:06.000Z</time>
      </trkpt>
      <trkpt lat="42.68339" lon="1.49763">
        <ele>1690.1999511719</ele>
        <time>2023-07-22T12:56:07.000Z</time>
      </trkpt>
      <trkpt lat="42.68346" lon="1.49776">
        <ele>1688</ele>
        <time>2023-07-22T12:56:25.000Z</time>
      </trkpt>
      <trkpt lat="42.68346" lon="1.49776">
        <ele>1687.8000488281</ele>
        <time>2023-07-22T12:56:26.000Z</time>
      </trkpt>
      <trkpt lat="42.68373" lon="1.49789">
        <ele>1679.8000488281</ele>
        <time>2023-07-22T12:58:08.000Z</time>
      </trkpt>
      <trkpt lat="42.68376" lon="1.4979">
        <ele>1679.4000244141</ele>
        <time>2023-07-22T12:58:17.000Z</time>
      </trkpt>
      <trkpt lat="42.68374" lon="1.49787">
        <ele>1680</ele>
        <time>2023-07-22T12:58:25.000Z</time>
      </trkpt>
      <trkpt lat="42.68366" lon="1.49779">
        <ele>1679.4000244141</ele>
        <time>2023-07-22T12:58:40.000Z</time>
      </trkpt>
      <trkpt lat="42.68366" lon="1.49781">
        <ele>1679.1999511719</ele>
        <time>2023-07-22T12:58:45.000Z</time>
      </trkpt>
      <trkpt lat="42.68366" lon="1.49781">
        <ele>1679.1999511719</ele>
        <time>2023-07-22T12:58:46.000Z</time>
      </trkpt>
      <trkpt lat="42.68365" lon="1.49786">
        <ele>1678.8000488281</ele>
        <time>2023-07-22T12:58:53.000Z</time>
      </trkpt>
      <trkpt lat="42.68364" lon="1.49787">
        <ele>1678.1999511719</ele>
        <time>2023-07-22T12:58:58.000Z</time>
      </trkpt>
      <trkpt lat="42.68366" lon="1.49789">
        <ele>1677.8000488281</ele>
        <time>2023-07-22T12:59:01.000Z</time>
      </trkpt>
      <trkpt lat="42.68369" lon="1.49797">
        <ele>1677</ele>
        <time>2023-07-22T12:59:07.000Z</time>
      </trkpt>
      <trkpt lat="42.68371" lon="1.49802">
        <ele>1676.8000488281</ele>
        <time>2023-07-22T12:59:09.000Z</time>
      </trkpt>
      <trkpt lat="42.68373" lon="1.49803">
        <ele>1676.4000244141</ele>
        <time>2023-07-22T12:59:12.000Z</time>
      </trkpt>
      <trkpt lat="42.68373" lon="1.49802">
        <ele>1676.1999511719</ele>
        <time>2023-07-22T12:59:13.000Z</time>
      </trkpt>
      <trkpt lat="42.68376" lon="1.49807">
        <ele>1676</ele>
        <time>2023-07-22T12:59:18.000Z</time>
      </trkpt>
      <trkpt lat="42.68377" lon="1.4981">
        <ele>1675.8000488281</ele>
        <time>2023-07-22T12:59:20.000Z</time>
      </trkpt>
      <trkpt lat="42.68404" lon="1.49853">
        <ele>1682.8000488281</ele>
        <time>2023-07-22T13:01:33.000Z</time>
      </trkpt>
      <trkpt lat="42.68404" lon="1.49855">
        <ele>1683</ele>
        <time>2023-07-22T13:01:37.000Z</time>
      </trkpt>
      <trkpt lat="42.68404" lon="1.49855">
        <ele>1683.1999511719</ele>
        <time>2023-07-22T13:01:39.000Z</time>
      </trkpt>
      <trkpt lat="42.68406" lon="1.49858">
        <ele>1684.1999511719</ele>
        <time>2023-07-22T13:01:46.000Z</time>
      </trkpt>
      <trkpt lat="42.68406" lon="1.49859">
        <ele>1685</ele>
        <time>2023-07-22T13:01:51.000Z</time>
      </trkpt>
      <trkpt lat="42.68407" lon="1.49864">
        <ele>1685</ele>
        <time>2023-07-22T13:01:58.000Z</time>
      </trkpt>
      <trkpt lat="42.68407" lon="1.49871">
        <ele>1684.5999755859</ele>
        <time>2023-07-22T13:02:04.000Z</time>
      </trkpt>
      <trkpt lat="42.68408" lon="1.49877">
        <ele>1683.8000488281</ele>
        <time>2023-07-22T13:02:12.000Z</time>
      </trkpt>
      <trkpt lat="42.68409" lon="1.49883">
        <ele>1684.1999511719</ele>
        <time>2023-07-22T13:02:19.000Z</time>
      </trkpt>
      <trkpt lat="42.6841" lon="1.49889">
        <ele>1684.5999755859</ele>
        <time>2023-07-22T13:02:25.000Z</time>
      </trkpt>
      <trkpt lat="42.68417" lon="1.49897">
        <ele>1684</ele>
        <time>2023-07-22T13:02:37.000Z</time>
      </trkpt>
      <trkpt lat="42.68417" lon="1.49899">
        <ele>1683.1999511719</ele>
        <time>2023-07-22T13:02:41.000Z</time>
      </trkpt>
      <trkpt lat="42.6842" lon="1.49906">
        <ele>1682.4000244141</ele>
        <time>2023-07-22T13:02:49.000Z</time>
      </trkpt>
      <trkpt lat="42.68421" lon="1.49908">
        <ele>1682</ele>
        <time>2023-07-22T13:02:50.000Z</time>
      </trkpt>
      <trkpt lat="42.68426" lon="1.49915">
        <ele>1680.4000244141</ele>
        <time>2023-07-22T13:03:08.000Z</time>
      </trkpt>
      <trkpt lat="42.68428" lon="1.49916">
        <ele>1680.4000244141</ele>
        <time>2023-07-22T13:03:10.000Z</time>
      </trkpt>
      <trkpt lat="42.68428" lon="1.49917">
        <ele>1679.8000488281</ele>
        <time>2023-07-22T13:03:12.000Z</time>
      </trkpt>
      <trkpt lat="42.68435" lon="1.49927">
        <ele>1677.5999755859</ele>
        <time>2023-07-22T13:03:27.000Z</time>
      </trkpt>
      <trkpt lat="42.68435" lon="1.49927">
        <ele>1677.5999755859</ele>
        <time>2023-07-22T13:03:28.000Z</time>
      </trkpt>
      <trkpt lat="42.68432" lon="1.49927">
        <ele>1676.5999755859</ele>
        <time>2023-07-22T13:03:48.000Z</time>
      </trkpt>
      <trkpt lat="42.68432" lon="1.49929">
        <ele>1676</ele>
        <time>2023-07-22T13:03:55.000Z</time>
      </trkpt>
      <trkpt lat="42.68429" lon="1.49929">
        <ele>1675.4000244141</ele>
        <time>2023-07-22T13:03:57.000Z</time>
      </trkpt>
      <trkpt lat="42.68426" lon="1.49931">
        <ele>1674.4000244141</ele>
        <time>2023-07-22T13:04:02.000Z</time>
      </trkpt>
      <trkpt lat="42.68425" lon="1.49937">
        <ele>1673.4000244141</ele>
        <time>2023-07-22T13:04:09.000Z</time>
      </trkpt>
      <trkpt lat="42.68425" lon="1.49939">
        <ele>1673.1999511719</ele>
        <time>2023-07-22T13:04:10.000Z</time>
      </trkpt>
      <trkpt lat="42.68423" lon="1.4994">
        <ele>1672.4000244141</ele>
        <time>2023-07-22T13:04:16.000Z</time>
      </trkpt>
      <trkpt lat="42.68423" lon="1.4994">
        <ele>1672</ele>
        <time>2023-07-22T13:04:17.000Z</time>
      </trkpt>
      <trkpt lat="42.68423" lon="1.49944">
        <ele>1671</ele>
        <time>2023-07-22T13:04:23.000Z</time>
      </trkpt>
      <trkpt lat="42.68423" lon="1.49944">
        <ele>1671</ele>
        <time>2023-07-22T13:04:24.000Z</time>
      </trkpt>
      <trkpt lat="42.68425" lon="1.49951">
        <ele>1670.1999511719</ele>
        <time>2023-07-22T13:04:30.000Z</time>
      </trkpt>
      <trkpt lat="42.68425" lon="1.49957">
        <ele>1670.1999511719</ele>
        <time>2023-07-22T13:04:36.000Z</time>
      </trkpt>
      <trkpt lat="42.68424" lon="1.49962">
        <ele>1670.4000244141</ele>
        <time>2023-07-22T13:04:41.000Z</time>
      </trkpt>
      <trkpt lat="42.68423" lon="1.49964">
        <ele>1670.4000244141</ele>
        <time>2023-07-22T13:04:47.000Z</time>
      </trkpt>
      <trkpt lat="42.68424" lon="1.49966">
        <ele>1671.1999511719</ele>
        <time>2023-07-22T13:04:55.000Z</time>
      </trkpt>
      <trkpt lat="42.68432" lon="1.49973">
        <ele>1671.4000244141</ele>
        <time>2023-07-22T13:05:12.000Z</time>
      </trkpt>
      <trkpt lat="42.68455" lon="1.49988">
        <ele>1672.8000488281</ele>
        <time>2023-07-22T13:05:37.000Z</time>
      </trkpt>
      <trkpt lat="42.68457" lon="1.49992">
        <ele>1673</ele>
        <time>2023-07-22T13:05:39.000Z</time>
      </trkpt>
      <trkpt lat="42.68457" lon="1.49994">
        <ele>1673</ele>
        <time>2023-07-22T13:05:40.000Z</time>
      </trkpt>
      <trkpt lat="42.68457" lon="1.49999">
        <ele>1673.1999511719</ele>
        <time>2023-07-22T13:05:46.000Z</time>
      </trkpt>
      <trkpt lat="42.68461" lon="1.50004">
        <ele>1673.1999511719</ele>
        <time>2023-07-22T13:05:53.000Z</time>
      </trkpt>
      <trkpt lat="42.68462" lon="1.50003">
        <ele>1673</ele>
        <time>2023-07-22T13:06:01.000Z</time>
      </trkpt>
      <trkpt lat="42.68462" lon="1.50006">
        <ele>1673</ele>
        <time>2023-07-22T13:06:11.000Z</time>
      </trkpt>
      <trkpt lat="42.68463" lon="1.50007">
        <ele>1672.8000488281</ele>
        <time>2023-07-22T13:06:23.000Z</time>
      </trkpt>
      <trkpt lat="42.68462" lon="1.50006">
        <ele>1672.4000244141</ele>
        <time>2023-07-22T13:06:32.000Z</time>
      </trkpt>
      <trkpt lat="42.68461" lon="1.50006">
        <ele>1672.4000244141</ele>
        <time>2023-07-22T13:06:39.000Z</time>
      </trkpt>
      <trkpt lat="42.6846" lon="1.50013">
        <ele>1673.4000244141</ele>
        <time>2023-07-22T13:06:46.000Z</time>
      </trkpt>
      <trkpt lat="42.68461" lon="1.5002">
        <ele>1674.1999511719</ele>
        <time>2023-07-22T13:06:51.000Z</time>
      </trkpt>
      <trkpt lat="42.6846" lon="1.50024">
        <ele>1674.5999755859</ele>
        <time>2023-07-22T13:06:54.000Z</time>
      </trkpt>
      <trkpt lat="42.68461" lon="1.50029">
        <ele>1673.5999755859</ele>
        <time>2023-07-22T13:07:03.000Z</time>
      </trkpt>
      <trkpt lat="42.68462" lon="1.50027">
        <ele>1673</ele>
        <time>2023-07-22T13:07:06.000Z</time>
      </trkpt>
      <trkpt lat="42.68462" lon="1.50029">
        <ele>1671.8000488281</ele>
        <time>2023-07-22T13:07:10.000Z</time>
      </trkpt>
      <trkpt lat="42.68462" lon="1.50037">
        <ele>1670.8000488281</ele>
        <time>2023-07-22T13:07:17.000Z</time>
      </trkpt>
      <trkpt lat="42.68464" lon="1.50054">
        <ele>1667.4000244141</ele>
        <time>2023-07-22T13:07:33.000Z</time>
      </trkpt>
      <trkpt lat="42.68465" lon="1.50058">
        <ele>1666.4000244141</ele>
        <time>2023-07-22T13:07:39.000Z</time>
      </trkpt>
      <trkpt lat="42.68465" lon="1.50055">
        <ele>1664.8000488281</ele>
        <time>2023-07-22T13:07:46.000Z</time>
      </trkpt>
      <trkpt lat="42.68466" lon="1.50058">
        <ele>1664</ele>
        <time>2023-07-22T13:07:49.000Z</time>
      </trkpt>
      <trkpt lat="42.68477" lon="1.50068">
        <ele>1659.1999511719</ele>
        <time>2023-07-22T13:08:12.000Z</time>
      </trkpt>
      <trkpt lat="42.68503" lon="1.50078">
        <ele>1660</ele>
        <time>2023-07-22T13:08:41.000Z</time>
      </trkpt>
      <trkpt lat="42.68517" lon="1.50085">
        <ele>1659.5999755859</ele>
        <time>2023-07-22T13:09:02.000Z</time>
      </trkpt>
      <trkpt lat="42.68519" lon="1.50079">
        <ele>1659.8000488281</ele>
        <time>2023-07-22T13:09:12.000Z</time>
      </trkpt>
      <trkpt lat="42.68545" lon="1.501">
        <ele>1660</ele>
        <time>2023-07-22T13:09:42.000Z</time>
      </trkpt>
      <trkpt lat="42.68544" lon="1.50104">
        <ele>1660.1999511719</ele>
        <time>2023-07-22T13:09:46.000Z</time>
      </trkpt>
      <trkpt lat="42.68546" lon="1.50107">
        <ele>1660.4000244141</ele>
        <time>2023-07-22T13:09:49.000Z</time>
      </trkpt>
      <trkpt lat="42.6855" lon="1.50107">
        <ele>1660.5999755859</ele>
        <time>2023-07-22T13:09:54.000Z</time>
      </trkpt>
      <trkpt lat="42.68591" lon="1.50139">
        <ele>1658.1999511719</ele>
        <time>2023-07-22T13:10:43.000Z</time>
      </trkpt>
      <trkpt lat="42.68633" lon="1.50151">
        <ele>1659.5999755859</ele>
        <time>2023-07-22T13:11:36.000Z</time>
      </trkpt>
      <trkpt lat="42.68633" lon="1.50151">
        <ele>1659.5999755859</ele>
        <time>2023-07-22T13:11:37.000Z</time>
      </trkpt>
      <trkpt lat="42.68636" lon="1.50147">
        <ele>1660.1999511719</ele>
        <time>2023-07-22T13:11:43.000Z</time>
      </trkpt>
      <trkpt lat="42.68642" lon="1.50143">
        <ele>1660.4000244141</ele>
        <time>2023-07-22T13:11:51.000Z</time>
      </trkpt>
      <trkpt lat="42.68646" lon="1.50142">
        <ele>1660</ele>
        <time>2023-07-22T13:11:58.000Z</time>
      </trkpt>
      <trkpt lat="42.68652" lon="1.5014">
        <ele>1660.5999755859</ele>
        <time>2023-07-22T13:12:03.000Z</time>
      </trkpt>
      <trkpt lat="42.68657" lon="1.50141">
        <ele>1661.5999755859</ele>
        <time>2023-07-22T13:12:08.000Z</time>
      </trkpt>
      <trkpt lat="42.68657" lon="1.5014">
        <ele>1661.8000488281</ele>
        <time>2023-07-22T13:12:09.000Z</time>
      </trkpt>
      <trkpt lat="42.68673" lon="1.50143">
        <ele>1662.4000244141</ele>
        <time>2023-07-22T13:12:23.000Z</time>
      </trkpt>
      <trkpt lat="42.68677" lon="1.50142">
        <ele>1662.8000488281</ele>
        <time>2023-07-22T13:12:28.000Z</time>
      </trkpt>
      <trkpt lat="42.6868" lon="1.50141">
        <ele>1662.8000488281</ele>
        <time>2023-07-22T13:12:32.000Z</time>
      </trkpt>
      <trkpt lat="42.68688" lon="1.50141">
        <ele>1663</ele>
        <time>2023-07-22T13:12:40.000Z</time>
      </trkpt>
      <trkpt lat="42.68697" lon="1.50141">
        <ele>1663.4000244141</ele>
        <time>2023-07-22T13:12:46.000Z</time>
      </trkpt>
      <trkpt lat="42.68703" lon="1.50142">
        <ele>1663.8000488281</ele>
        <time>2023-07-22T13:12:52.000Z</time>
      </trkpt>
      <trkpt lat="42.68704" lon="1.50142">
        <ele>1663.8000488281</ele>
        <time>2023-07-22T13:12:53.000Z</time>
      </trkpt>
      <trkpt lat="42.68708" lon="1.50141">
        <ele>1663.8000488281</ele>
        <time>2023-07-22T13:13:00.000Z</time>
      </trkpt>
      <trkpt lat="42.68709" lon="1.50139">
        <ele>1663.5999755859</ele>
        <time>2023-07-22T13:13:01.000Z</time>
      </trkpt>
      <trkpt lat="42.68713" lon="1.50137">
        <ele>1662.4000244141</ele>
        <time>2023-07-22T13:13:07.000Z</time>
      </trkpt>
      <trkpt lat="42.68716" lon="1.50137">
        <ele>1661.4000244141</ele>
        <time>2023-07-22T13:13:11.000Z</time>
      </trkpt>
      <trkpt lat="42.68718" lon="1.50137">
        <ele>1660.5999755859</ele>
        <time>2023-07-22T13:13:15.000Z</time>
      </trkpt>
      <trkpt lat="42.6872" lon="1.50137">
        <ele>1660.4000244141</ele>
        <time>2023-07-22T13:13:17.000Z</time>
      </trkpt>
      <trkpt lat="42.68728" lon="1.50132">
        <ele>1660</ele>
        <time>2023-07-22T13:13:26.000Z</time>
      </trkpt>
      <trkpt lat="42.6873" lon="1.50129">
        <ele>1659.8000488281</ele>
        <time>2023-07-22T13:13:31.000Z</time>
      </trkpt>
      <trkpt lat="42.68737" lon="1.50128">
        <ele>1659.4000244141</ele>
        <time>2023-07-22T13:13:38.000Z</time>
      </trkpt>
      <trkpt lat="42.68741" lon="1.50128">
        <ele>1659.1999511719</ele>
        <time>2023-07-22T13:13:41.000Z</time>
      </trkpt>
      <trkpt lat="42.68749" lon="1.50128">
        <ele>1659.4000244141</ele>
        <time>2023-07-22T13:13:50.000Z</time>
      </trkpt>
      <trkpt lat="42.68758" lon="1.50122">
        <ele>1658.5999755859</ele>
        <time>2023-07-22T13:13:59.000Z</time>
      </trkpt>
      <trkpt lat="42.68764" lon="1.50119">
        <ele>1658.5999755859</ele>
        <time>2023-07-22T13:14:06.000Z</time>
      </trkpt>
      <trkpt lat="42.68771" lon="1.50117">
        <ele>1659</ele>
        <time>2023-07-22T13:14:13.000Z</time>
      </trkpt>
      <trkpt lat="42.68778" lon="1.50114">
        <ele>1658.1999511719</ele>
        <time>2023-07-22T13:14:18.000Z</time>
      </trkpt>
      <trkpt lat="42.6878" lon="1.50113">
        <ele>1658</ele>
        <time>2023-07-22T13:14:21.000Z</time>
      </trkpt>
      <trkpt lat="42.68789" lon="1.50109">
        <ele>1657.5999755859</ele>
        <time>2023-07-22T13:14:29.000Z</time>
      </trkpt>
      <trkpt lat="42.68795" lon="1.50109">
        <ele>1657</ele>
        <time>2023-07-22T13:14:33.000Z</time>
      </trkpt>
      <trkpt lat="42.68802" lon="1.50108">
        <ele>1656.8000488281</ele>
        <time>2023-07-22T13:14:37.000Z</time>
      </trkpt>
      <trkpt lat="42.68805" lon="1.50107">
        <ele>1656.8000488281</ele>
        <time>2023-07-22T13:14:42.000Z</time>
      </trkpt>
      <trkpt lat="42.6881" lon="1.50109">
        <ele>1657.1999511719</ele>
        <time>2023-07-22T13:14:50.000Z</time>
      </trkpt>
      <trkpt lat="42.68813" lon="1.50106">
        <ele>1657.1999511719</ele>
        <time>2023-07-22T13:14:57.000Z</time>
      </trkpt>
      <trkpt lat="42.68816" lon="1.50104">
        <ele>1657.8000488281</ele>
        <time>2023-07-22T13:15:05.000Z</time>
      </trkpt>
      <trkpt lat="42.68818" lon="1.50103">
        <ele>1658</ele>
        <time>2023-07-22T13:15:07.000Z</time>
      </trkpt>
      <trkpt lat="42.68821" lon="1.50103">
        <ele>1658.4000244141</ele>
        <time>2023-07-22T13:15:12.000Z</time>
      </trkpt>
      <trkpt lat="42.68821" lon="1.50104">
        <ele>1659</ele>
        <time>2023-07-22T13:15:17.000Z</time>
      </trkpt>
      <trkpt lat="42.68823" lon="1.50106">
        <ele>1659.8000488281</ele>
        <time>2023-07-22T13:15:21.000Z</time>
      </trkpt>
      <trkpt lat="42.68824" lon="1.50107">
        <ele>1660.4000244141</ele>
        <time>2023-07-22T13:15:23.000Z</time>
      </trkpt>
      <trkpt lat="42.68825" lon="1.50104">
        <ele>1660.5999755859</ele>
        <time>2023-07-22T13:15:26.000Z</time>
      </trkpt>
      <trkpt lat="42.68825" lon="1.50103">
        <ele>1660.5999755859</ele>
        <time>2023-07-22T13:15:27.000Z</time>
      </trkpt>
      <trkpt lat="42.68829" lon="1.50101">
        <ele>1660.5999755859</ele>
        <time>2023-07-22T13:15:33.000Z</time>
      </trkpt>
      <trkpt lat="42.6883" lon="1.50105">
        <ele>1661.4000244141</ele>
        <time>2023-07-22T13:15:39.000Z</time>
      </trkpt>
      <trkpt lat="42.68831" lon="1.50105">
        <ele>1661.5999755859</ele>
        <time>2023-07-22T13:15:40.000Z</time>
      </trkpt>
      <trkpt lat="42.68834" lon="1.50106">
        <ele>1662.5999755859</ele>
        <time>2023-07-22T13:15:46.000Z</time>
      </trkpt>
      <trkpt lat="42.68836" lon="1.50104">
        <ele>1663</ele>
        <time>2023-07-22T13:15:48.000Z</time>
      </trkpt>
      <trkpt lat="42.68842" lon="1.50103">
        <ele>1663.5999755859</ele>
        <time>2023-07-22T13:15:55.000Z</time>
      </trkpt>
      <trkpt lat="42.68843" lon="1.50103">
        <ele>1663.5999755859</ele>
        <time>2023-07-22T13:15:56.000Z</time>
      </trkpt>
      <trkpt lat="42.68847" lon="1.50104">
        <ele>1663.8000488281</ele>
        <time>2023-07-22T13:16:02.000Z</time>
      </trkpt>
      <trkpt lat="42.68851" lon="1.50103">
        <ele>1663</ele>
        <time>2023-07-22T13:16:10.000Z</time>
      </trkpt>
      <trkpt lat="42.68856" lon="1.50101">
        <ele>1663.1999511719</ele>
        <time>2023-07-22T13:16:17.000Z</time>
      </trkpt>
      <trkpt lat="42.68857" lon="1.50099">
        <ele>1663.4000244141</ele>
        <time>2023-07-22T13:16:21.000Z</time>
      </trkpt>
      <trkpt lat="42.68863" lon="1.50095">
        <ele>1663.4000244141</ele>
        <time>2023-07-22T13:16:28.000Z</time>
      </trkpt>
      <trkpt lat="42.68871" lon="1.50087">
        <ele>1663.4000244141</ele>
        <time>2023-07-22T13:16:36.000Z</time>
      </trkpt>
      <trkpt lat="42.68875" lon="1.50082">
        <ele>1663.8000488281</ele>
        <time>2023-07-22T13:16:44.000Z</time>
      </trkpt>
      <trkpt lat="42.68881" lon="1.50075">
        <ele>1663.4000244141</ele>
        <time>2023-07-22T13:16:50.000Z</time>
      </trkpt>
      <trkpt lat="42.68889" lon="1.50072">
        <ele>1663.1999511719</ele>
        <time>2023-07-22T13:16:58.000Z</time>
      </trkpt>
      <trkpt lat="42.68891" lon="1.5007">
        <ele>1663.1999511719</ele>
        <time>2023-07-22T13:17:05.000Z</time>
      </trkpt>
      <trkpt lat="42.68896" lon="1.50066">
        <ele>1662.4000244141</ele>
        <time>2023-07-22T13:17:11.000Z</time>
      </trkpt>
      <trkpt lat="42.68898" lon="1.50065">
        <ele>1662.1999511719</ele>
        <time>2023-07-22T13:17:12.000Z</time>
      </trkpt>
      <trkpt lat="42.68906" lon="1.50064">
        <ele>1661.8000488281</ele>
        <time>2023-07-22T13:17:20.000Z</time>
      </trkpt>
      <trkpt lat="42.68911" lon="1.50064">
        <ele>1662.5999755859</ele>
        <time>2023-07-22T13:17:27.000Z</time>
      </trkpt>
      <trkpt lat="42.68914" lon="1.50064">
        <ele>1662.1999511719</ele>
        <time>2023-07-22T13:17:34.000Z</time>
      </trkpt>
      <trkpt lat="42.6892" lon="1.50062">
        <ele>1662</ele>
        <time>2023-07-22T13:17:42.000Z</time>
      </trkpt>
      <trkpt lat="42.68924" lon="1.5006">
        <ele>1662.5999755859</ele>
        <time>2023-07-22T13:17:49.000Z</time>
      </trkpt>
      <trkpt lat="42.68928" lon="1.50063">
        <ele>1663.5999755859</ele>
        <time>2023-07-22T13:17:55.000Z</time>
      </trkpt>
      <trkpt lat="42.6893" lon="1.50064">
        <ele>1664</ele>
        <time>2023-07-22T13:17:57.000Z</time>
      </trkpt>
      <trkpt lat="42.68936" lon="1.50065">
        <ele>1664.5999755859</ele>
        <time>2023-07-22T13:18:02.000Z</time>
      </trkpt>
      <trkpt lat="42.6894" lon="1.50064">
        <ele>1665</ele>
        <time>2023-07-22T13:18:05.000Z</time>
      </trkpt>
      <trkpt lat="42.68945" lon="1.50062">
        <ele>1666</ele>
        <time>2023-07-22T13:18:11.000Z</time>
      </trkpt>
      <trkpt lat="42.68951" lon="1.50061">
        <ele>1666.8000488281</ele>
        <time>2023-07-22T13:18:16.000Z</time>
      </trkpt>
      <trkpt lat="42.68952" lon="1.5006">
        <ele>1667</ele>
        <time>2023-07-22T13:18:18.000Z</time>
      </trkpt>
      <trkpt lat="42.68956" lon="1.50058">
        <ele>1667.8000488281</ele>
        <time>2023-07-22T13:18:22.000Z</time>
      </trkpt>
      <trkpt lat="42.68956" lon="1.50058">
        <ele>1668</ele>
        <time>2023-07-22T13:18:23.000Z</time>
      </trkpt>
      <trkpt lat="42.68957" lon="1.50056">
        <ele>1669.1999511719</ele>
        <time>2023-07-22T13:18:28.000Z</time>
      </trkpt>
      <trkpt lat="42.68957" lon="1.50056">
        <ele>1669.4000244141</ele>
        <time>2023-07-22T13:18:29.000Z</time>
      </trkpt>
      <trkpt lat="42.68963" lon="1.50056">
        <ele>1669.4000244141</ele>
        <time>2023-07-22T13:18:35.000Z</time>
      </trkpt>
      <trkpt lat="42.68975" lon="1.50051">
        <ele>1669.4000244141</ele>
        <time>2023-07-22T13:18:44.000Z</time>
      </trkpt>
      <trkpt lat="42.6898" lon="1.50046">
        <ele>1669.5999755859</ele>
        <time>2023-07-22T13:18:51.000Z</time>
      </trkpt>
      <trkpt lat="42.68978" lon="1.50044">
        <ele>1670.4000244141</ele>
        <time>2023-07-22T13:18:57.000Z</time>
      </trkpt>
      <trkpt lat="42.68977" lon="1.50042">
        <ele>1670.8000488281</ele>
        <time>2023-07-22T13:18:59.000Z</time>
      </trkpt>
      <trkpt lat="42.68979" lon="1.50038">
        <ele>1671.4000244141</ele>
        <time>2023-07-22T13:19:04.000Z</time>
      </trkpt>
      <trkpt lat="42.6898" lon="1.50037">
        <ele>1671.8000488281</ele>
        <time>2023-07-22T13:19:06.000Z</time>
      </trkpt>
      <trkpt lat="42.6898" lon="1.50033">
        <ele>1672</ele>
        <time>2023-07-22T13:19:13.000Z</time>
      </trkpt>
      <trkpt lat="42.68984" lon="1.50034">
        <ele>1671</ele>
        <time>2023-07-22T13:19:18.000Z</time>
      </trkpt>
      <trkpt lat="42.68985" lon="1.50034">
        <ele>1670.8000488281</ele>
        <time>2023-07-22T13:19:19.000Z</time>
      </trkpt>
      <trkpt lat="42.68988" lon="1.50034">
        <ele>1671</ele>
        <time>2023-07-22T13:19:25.000Z</time>
      </trkpt>
      <trkpt lat="42.68996" lon="1.50032">
        <ele>1670.4000244141</ele>
        <time>2023-07-22T13:19:30.000Z</time>
      </trkpt>
      <trkpt lat="42.68997" lon="1.50032">
        <ele>1670.1999511719</ele>
        <time>2023-07-22T13:19:32.000Z</time>
      </trkpt>
      <trkpt lat="42.69" lon="1.50031">
        <ele>1670.8000488281</ele>
        <time>2023-07-22T13:19:40.000Z</time>
      </trkpt>
      <trkpt lat="42.69004" lon="1.50026">
        <ele>1671.1999511719</ele>
        <time>2023-07-22T13:19:47.000Z</time>
      </trkpt>
      <trkpt lat="42.69005" lon="1.50024">
        <ele>1671.5999755859</ele>
        <time>2023-07-22T13:19:51.000Z</time>
      </trkpt>
      <trkpt lat="42.69007" lon="1.50025">
        <ele>1672.1999511719</ele>
        <time>2023-07-22T13:19:55.000Z</time>
      </trkpt>
      <trkpt lat="42.69009" lon="1.50026">
        <ele>1672.8000488281</ele>
        <time>2023-07-22T13:19:57.000Z</time>
      </trkpt>
      <trkpt lat="42.69011" lon="1.50028">
        <ele>1673.4000244141</ele>
        <time>2023-07-22T13:20:03.000Z</time>
      </trkpt>
      <trkpt lat="42.69016" lon="1.50028">
        <ele>1673.4000244141</ele>
        <time>2023-07-22T13:20:12.000Z</time>
      </trkpt>
      <trkpt lat="42.69022" lon="1.50022">
        <ele>1672.4000244141</ele>
        <time>2023-07-22T13:20:19.000Z</time>
      </trkpt>
      <trkpt lat="42.69026" lon="1.50019">
        <ele>1672.4000244141</ele>
        <time>2023-07-22T13:20:26.000Z</time>
      </trkpt>
      <trkpt lat="42.69036" lon="1.50018">
        <ele>1673.1999511719</ele>
        <time>2023-07-22T13:20:35.000Z</time>
      </trkpt>
      <trkpt lat="42.69038" lon="1.50021">
        <ele>1674</ele>
        <time>2023-07-22T13:20:39.000Z</time>
      </trkpt>
      <trkpt lat="42.6904" lon="1.50024">
        <ele>1674.4000244141</ele>
        <time>2023-07-22T13:20:43.000Z</time>
      </trkpt>
      <trkpt lat="42.69043" lon="1.50025">
        <ele>1675</ele>
        <time>2023-07-22T13:20:46.000Z</time>
      </trkpt>
      <trkpt lat="42.69047" lon="1.50025">
        <ele>1675.4000244141</ele>
        <time>2023-07-22T13:20:49.000Z</time>
      </trkpt>
      <trkpt lat="42.69052" lon="1.50025">
        <ele>1676</ele>
        <time>2023-07-22T13:20:55.000Z</time>
      </trkpt>
      <trkpt lat="42.69052" lon="1.50024">
        <ele>1676.1999511719</ele>
        <time>2023-07-22T13:20:56.000Z</time>
      </trkpt>
      <trkpt lat="42.69054" lon="1.5002">
        <ele>1677.1999511719</ele>
        <time>2023-07-22T13:21:01.000Z</time>
      </trkpt>
      <trkpt lat="42.69056" lon="1.50019">
        <ele>1677.8000488281</ele>
        <time>2023-07-22T13:21:05.000Z</time>
      </trkpt>
      <trkpt lat="42.69057" lon="1.50019">
        <ele>1678.1999511719</ele>
        <time>2023-07-22T13:21:09.000Z</time>
      </trkpt>
      <trkpt lat="42.69058" lon="1.50019">
        <ele>1678.5999755859</ele>
        <time>2023-07-22T13:21:11.000Z</time>
      </trkpt>
      <trkpt lat="42.69063" lon="1.50018">
        <ele>1679.1999511719</ele>
        <time>2023-07-22T13:21:15.000Z</time>
      </trkpt>
      <trkpt lat="42.69065" lon="1.50019">
        <ele>1679.4000244141</ele>
        <time>2023-07-22T13:21:18.000Z</time>
      </trkpt>
      <trkpt lat="42.69065" lon="1.5002">
        <ele>1679.8000488281</ele>
        <time>2023-07-22T13:21:22.000Z</time>
      </trkpt>
      <trkpt lat="42.69069" lon="1.5002">
        <ele>1679.8000488281</ele>
        <time>2023-07-22T13:21:25.000Z</time>
      </trkpt>
      <trkpt lat="42.69079" lon="1.50017">
        <ele>1679.1999511719</ele>
        <time>2023-07-22T13:21:34.000Z</time>
      </trkpt>
      <trkpt lat="42.69081" lon="1.50016">
        <ele>1680.1999511719</ele>
        <time>2023-07-22T13:21:39.000Z</time>
      </trkpt>
      <trkpt lat="42.69084" lon="1.50014">
        <ele>1680.8000488281</ele>
        <time>2023-07-22T13:21:42.000Z</time>
      </trkpt>
      <trkpt lat="42.69085" lon="1.50014">
        <ele>1681.4000244141</ele>
        <time>2023-07-22T13:21:45.000Z</time>
      </trkpt>
      <trkpt lat="42.69086" lon="1.50012">
        <ele>1682</ele>
        <time>2023-07-22T13:21:48.000Z</time>
      </trkpt>
      <trkpt lat="42.6909" lon="1.5001">
        <ele>1682.4000244141</ele>
        <time>2023-07-22T13:21:51.000Z</time>
      </trkpt>
      <trkpt lat="42.69094" lon="1.50009">
        <ele>1682.8000488281</ele>
        <time>2023-07-22T13:21:55.000Z</time>
      </trkpt>
      <trkpt lat="42.69101" lon="1.50008">
        <ele>1683.5999755859</ele>
        <time>2023-07-22T13:22:03.000Z</time>
      </trkpt>
      <trkpt lat="42.69101" lon="1.50008">
        <ele>1683.5999755859</ele>
        <time>2023-07-22T13:22:04.000Z</time>
      </trkpt>
      <trkpt lat="42.69105" lon="1.50008">
        <ele>1684.5999755859</ele>
        <time>2023-07-22T13:22:07.000Z</time>
      </trkpt>
      <trkpt lat="42.6911" lon="1.50007">
        <ele>1685.5999755859</ele>
        <time>2023-07-22T13:22:13.000Z</time>
      </trkpt>
      <trkpt lat="42.69111" lon="1.50008">
        <ele>1685.1999511719</ele>
        <time>2023-07-22T13:22:20.000Z</time>
      </trkpt>
      <trkpt lat="42.69111" lon="1.50008">
        <ele>1684.8000488281</ele>
        <time>2023-07-22T13:22:29.000Z</time>
      </trkpt>
      <trkpt lat="42.69118" lon="1.5001">
        <ele>1685.1999511719</ele>
        <time>2023-07-22T13:22:36.000Z</time>
      </trkpt>
      <trkpt lat="42.69127" lon="1.50011">
        <ele>1685.1999511719</ele>
        <time>2023-07-22T13:22:44.000Z</time>
      </trkpt>
      <trkpt lat="42.6913" lon="1.50009">
        <ele>1684.8000488281</ele>
        <time>2023-07-22T13:22:50.000Z</time>
      </trkpt>
      <trkpt lat="42.69131" lon="1.50008">
        <ele>1684.5999755859</ele>
        <time>2023-07-22T13:22:51.000Z</time>
      </trkpt>
      <trkpt lat="42.69133" lon="1.50006">
        <ele>1683.5999755859</ele>
        <time>2023-07-22T13:22:58.000Z</time>
      </trkpt>
      <trkpt lat="42.69134" lon="1.50006">
        <ele>1683.4000244141</ele>
        <time>2023-07-22T13:22:59.000Z</time>
      </trkpt>
      <trkpt lat="42.69144" lon="1.5001">
        <ele>1682.5999755859</ele>
        <time>2023-07-22T13:23:06.000Z</time>
      </trkpt>
      <trkpt lat="42.69145" lon="1.5001">
        <ele>1682.5999755859</ele>
        <time>2023-07-22T13:23:07.000Z</time>
      </trkpt>
      <trkpt lat="42.69152" lon="1.50009">
        <ele>1681.8000488281</ele>
        <time>2023-07-22T13:23:15.000Z</time>
      </trkpt>
      <trkpt lat="42.6916" lon="1.50007">
        <ele>1682</ele>
        <time>2023-07-22T13:23:21.000Z</time>
      </trkpt>
      <trkpt lat="42.69167" lon="1.50002">
        <ele>1683</ele>
        <time>2023-07-22T13:23:28.000Z</time>
      </trkpt>
      <trkpt lat="42.69177" lon="1.49994">
        <ele>1683</ele>
        <time>2023-07-22T13:23:37.000Z</time>
      </trkpt>
      <trkpt lat="42.69187" lon="1.49987">
        <ele>1682.1999511719</ele>
        <time>2023-07-22T13:23:47.000Z</time>
      </trkpt>
      <trkpt lat="42.69195" lon="1.49988">
        <ele>1682.1999511719</ele>
        <time>2023-07-22T13:23:53.000Z</time>
      </trkpt>
      <trkpt lat="42.69205" lon="1.49991">
        <ele>1682.5999755859</ele>
        <time>2023-07-22T13:24:01.000Z</time>
      </trkpt>
      <trkpt lat="42.69215" lon="1.49994">
        <ele>1682.5999755859</ele>
        <time>2023-07-22T13:24:10.000Z</time>
      </trkpt>
      <trkpt lat="42.69222" lon="1.49995">
        <ele>1682.4000244141</ele>
        <time>2023-07-22T13:24:18.000Z</time>
      </trkpt>
      <trkpt lat="42.69228" lon="1.49995">
        <ele>1682.1999511719</ele>
        <time>2023-07-22T13:24:24.000Z</time>
      </trkpt>
      <trkpt lat="42.69236" lon="1.49994">
        <ele>1682.1999511719</ele>
        <time>2023-07-22T13:24:32.000Z</time>
      </trkpt>
      <trkpt lat="42.69243" lon="1.49987">
        <ele>1682.1999511719</ele>
        <time>2023-07-22T13:24:40.000Z</time>
      </trkpt>
      <trkpt lat="42.69246" lon="1.49977">
        <ele>1683.4000244141</ele>
        <time>2023-07-22T13:24:48.000Z</time>
      </trkpt>
      <trkpt lat="42.69247" lon="1.49975">
        <ele>1683.5999755859</ele>
        <time>2023-07-22T13:24:49.000Z</time>
      </trkpt>
      <trkpt lat="42.69249" lon="1.49967">
        <ele>1683.8000488281</ele>
        <time>2023-07-22T13:24:55.000Z</time>
      </trkpt>
      <trkpt lat="42.69252" lon="1.49958">
        <ele>1683.8000488281</ele>
        <time>2023-07-22T13:25:01.000Z</time>
      </trkpt>
      <trkpt lat="42.69254" lon="1.49941">
        <ele>1683.4000244141</ele>
        <time>2023-07-22T13:25:11.000Z</time>
      </trkpt>
      <trkpt lat="42.69255" lon="1.49937">
        <ele>1683</ele>
        <time>2023-07-22T13:25:16.000Z</time>
      </trkpt>
      <trkpt lat="42.69257" lon="1.49928">
        <ele>1682.4000244141</ele>
        <time>2023-07-22T13:25:22.000Z</time>
      </trkpt>
      <trkpt lat="42.6926" lon="1.49913">
        <ele>1681.5999755859</ele>
        <time>2023-07-22T13:25:30.000Z</time>
      </trkpt>
      <trkpt lat="42.6926" lon="1.49904">
        <ele>1681.4000244141</ele>
        <time>2023-07-22T13:25:36.000Z</time>
      </trkpt>
      <trkpt lat="42.69261" lon="1.49901">
        <ele>1681.1999511719</ele>
        <time>2023-07-22T13:25:38.000Z</time>
      </trkpt>
      <trkpt lat="42.69265" lon="1.49892">
        <ele>1681.1999511719</ele>
        <time>2023-07-22T13:25:46.000Z</time>
      </trkpt>
      <trkpt lat="42.69266" lon="1.49881">
        <ele>1680.5999755859</ele>
        <time>2023-07-22T13:25:53.000Z</time>
      </trkpt>
      <trkpt lat="42.69266" lon="1.4988">
        <ele>1680.1999511719</ele>
        <time>2023-07-22T13:26:00.000Z</time>
      </trkpt>
      <trkpt lat="42.69266" lon="1.4988">
        <ele>1680.1999511719</ele>
        <time>2023-07-22T13:26:01.000Z</time>
      </trkpt>
      <trkpt lat="42.69264" lon="1.49877">
        <ele>1679.8000488281</ele>
        <time>2023-07-22T13:26:07.000Z</time>
      </trkpt>
      <trkpt lat="42.69264" lon="1.49877">
        <ele>1679.8000488281</ele>
        <time>2023-07-22T13:26:08.000Z</time>
      </trkpt>
      <trkpt lat="42.69265" lon="1.49876">
        <ele>1679.4000244141</ele>
        <time>2023-07-22T13:26:15.000Z</time>
      </trkpt>
      <trkpt lat="42.69267" lon="1.49876">
        <ele>1679.4000244141</ele>
        <time>2023-07-22T13:26:21.000Z</time>
      </trkpt>
      <trkpt lat="42.69269" lon="1.49876">
        <ele>1679.1999511719</ele>
        <time>2023-07-22T13:26:26.000Z</time>
      </trkpt>
      <trkpt lat="42.69269" lon="1.49877">
        <ele>1679.1999511719</ele>
        <time>2023-07-22T13:26:28.000Z</time>
      </trkpt>
      <trkpt lat="42.69273" lon="1.49884">
        <ele>1678.8000488281</ele>
        <time>2023-07-22T13:26:37.000Z</time>
      </trkpt>
      <trkpt lat="42.69278" lon="1.49883">
        <ele>1679</ele>
        <time>2023-07-22T13:26:43.000Z</time>
      </trkpt>
      <trkpt lat="42.69285" lon="1.49884">
        <ele>1679</ele>
        <time>2023-07-22T13:26:51.000Z</time>
      </trkpt>
      <trkpt lat="42.69297" lon="1.49889">
        <ele>1679.4000244141</ele>
        <time>2023-07-22T13:27:00.000Z</time>
      </trkpt>
      <trkpt lat="42.69305" lon="1.49891">
        <ele>1679.1999511719</ele>
        <time>2023-07-22T13:27:07.000Z</time>
      </trkpt>
      <trkpt lat="42.6931" lon="1.49887">
        <ele>1678.1999511719</ele>
        <time>2023-07-22T13:27:13.000Z</time>
      </trkpt>
      <trkpt lat="42.69315" lon="1.49882">
        <ele>1677.4000244141</ele>
        <time>2023-07-22T13:27:21.000Z</time>
      </trkpt>
      <trkpt lat="42.69316" lon="1.49881">
        <ele>1677.1999511719</ele>
        <time>2023-07-22T13:27:22.000Z</time>
      </trkpt>
      <trkpt lat="42.6932" lon="1.49882">
        <ele>1676</ele>
        <time>2023-07-22T13:27:27.000Z</time>
      </trkpt>
      <trkpt lat="42.69322" lon="1.49883">
        <ele>1675.1999511719</ele>
        <time>2023-07-22T13:27:29.000Z</time>
      </trkpt>
      <trkpt lat="42.69322" lon="1.49883">
        <ele>1674.8000488281</ele>
        <time>2023-07-22T13:27:30.000Z</time>
      </trkpt>
      <trkpt lat="42.69324" lon="1.4989">
        <ele>1674.1999511719</ele>
        <time>2023-07-22T13:27:35.000Z</time>
      </trkpt>
      <trkpt lat="42.69328" lon="1.49894">
        <ele>1673.5999755859</ele>
        <time>2023-07-22T13:27:41.000Z</time>
      </trkpt>
      <trkpt lat="42.69337" lon="1.49901">
        <ele>1673</ele>
        <time>2023-07-22T13:27:49.000Z</time>
      </trkpt>
      <trkpt lat="42.69341" lon="1.49898">
        <ele>1672.4000244141</ele>
        <time>2023-07-22T13:27:54.000Z</time>
      </trkpt>
      <trkpt lat="42.69342" lon="1.49897">
        <ele>1672.4000244141</ele>
        <time>2023-07-22T13:27:55.000Z</time>
      </trkpt>
      <trkpt lat="42.69349" lon="1.49894">
        <ele>1671.8000488281</ele>
        <time>2023-07-22T13:28:03.000Z</time>
      </trkpt>
      <trkpt lat="42.69351" lon="1.49895">
        <ele>1671.4000244141</ele>
        <time>2023-07-22T13:28:07.000Z</time>
      </trkpt>
      <trkpt lat="42.69354" lon="1.49894">
        <ele>1670.4000244141</ele>
        <time>2023-07-22T13:28:11.000Z</time>
      </trkpt>
      <trkpt lat="42.69353" lon="1.49893">
        <ele>1670.1999511719</ele>
        <time>2023-07-22T13:28:12.000Z</time>
      </trkpt>
      <trkpt lat="42.6936" lon="1.49889">
        <ele>1669.1999511719</ele>
        <time>2023-07-22T13:28:18.000Z</time>
      </trkpt>
      <trkpt lat="42.6937" lon="1.49886">
        <ele>1668.8000488281</ele>
        <time>2023-07-22T13:28:26.000Z</time>
      </trkpt>
      <trkpt lat="42.6938" lon="1.49885">
        <ele>1669.5999755859</ele>
        <time>2023-07-22T13:28:34.000Z</time>
      </trkpt>
      <trkpt lat="42.69385" lon="1.49881">
        <ele>1669.1999511719</ele>
        <time>2023-07-22T13:28:41.000Z</time>
      </trkpt>
      <trkpt lat="42.69385" lon="1.49883">
        <ele>1669.1999511719</ele>
        <time>2023-07-22T13:28:48.000Z</time>
      </trkpt>
      <trkpt lat="42.69386" lon="1.49883">
        <ele>1669.4000244141</ele>
        <time>2023-07-22T13:28:49.000Z</time>
      </trkpt>
      <trkpt lat="42.69387" lon="1.49885">
        <ele>1669.1999511719</ele>
        <time>2023-07-22T13:28:58.000Z</time>
      </trkpt>
      <trkpt lat="42.6939" lon="1.49881">
        <ele>1669</ele>
        <time>2023-07-22T13:29:06.000Z</time>
      </trkpt>
      <trkpt lat="42.69395" lon="1.49876">
        <ele>1668.8000488281</ele>
        <time>2023-07-22T13:29:13.000Z</time>
      </trkpt>
      <trkpt lat="42.69397" lon="1.49874">
        <ele>1668.1999511719</ele>
        <time>2023-07-22T13:29:16.000Z</time>
      </trkpt>
      <trkpt lat="42.69401" lon="1.49872">
        <ele>1667.8000488281</ele>
        <time>2023-07-22T13:29:20.000Z</time>
      </trkpt>
      <trkpt lat="42.69407" lon="1.49867">
        <ele>1668.1999511719</ele>
        <time>2023-07-22T13:29:28.000Z</time>
      </trkpt>
      <trkpt lat="42.69415" lon="1.49861">
        <ele>1668.1999511719</ele>
        <time>2023-07-22T13:29:37.000Z</time>
      </trkpt>
      <trkpt lat="42.6942" lon="1.49856">
        <ele>1667.8000488281</ele>
        <time>2023-07-22T13:29:43.000Z</time>
      </trkpt>
      <trkpt lat="42.69421" lon="1.49848">
        <ele>1667.4000244141</ele>
        <time>2023-07-22T13:29:49.000Z</time>
      </trkpt>
      <trkpt lat="42.69422" lon="1.49842">
        <ele>1667.1999511719</ele>
        <time>2023-07-22T13:29:54.000Z</time>
      </trkpt>
      <trkpt lat="42.69422" lon="1.49841">
        <ele>1667</ele>
        <time>2023-07-22T13:29:55.000Z</time>
      </trkpt>
      <trkpt lat="42.69426" lon="1.49834">
        <ele>1666.1999511719</ele>
        <time>2023-07-22T13:30:01.000Z</time>
      </trkpt>
      <trkpt lat="42.69431" lon="1.49826">
        <ele>1666.4000244141</ele>
        <time>2023-07-22T13:30:07.000Z</time>
      </trkpt>
      <trkpt lat="42.69434" lon="1.49821">
        <ele>1667</ele>
        <time>2023-07-22T13:30:13.000Z</time>
      </trkpt>
      <trkpt lat="42.69434" lon="1.49821">
        <ele>1667</ele>
        <time>2023-07-22T13:30:19.000Z</time>
      </trkpt>
      <trkpt lat="42.69435" lon="1.49821">
        <ele>1667</ele>
        <time>2023-07-22T13:30:20.000Z</time>
      </trkpt>
      <trkpt lat="42.69435" lon="1.49824">
        <ele>1666.8000488281</ele>
        <time>2023-07-22T13:30:27.000Z</time>
      </trkpt>
      <trkpt lat="42.69437" lon="1.49824">
        <ele>1666.8000488281</ele>
        <time>2023-07-22T13:30:32.000Z</time>
      </trkpt>
      <trkpt lat="42.69434" lon="1.49819">
        <ele>1667.5999755859</ele>
        <time>2023-07-22T13:30:40.000Z</time>
      </trkpt>
      <trkpt lat="42.6943" lon="1.49815">
        <ele>1667.5999755859</ele>
        <time>2023-07-22T13:30:47.000Z</time>
      </trkpt>
      <trkpt lat="42.69431" lon="1.49815">
        <ele>1668.1999511719</ele>
        <time>2023-07-22T13:30:49.000Z</time>
      </trkpt>
      <trkpt lat="42.69431" lon="1.49813">
        <ele>1668.4000244141</ele>
        <time>2023-07-22T13:30:52.000Z</time>
      </trkpt>
      <trkpt lat="42.69432" lon="1.49813">
        <ele>1668.1999511719</ele>
        <time>2023-07-22T13:30:57.000Z</time>
      </trkpt>
      <trkpt lat="42.69432" lon="1.49815">
        <ele>1667.8000488281</ele>
        <time>2023-07-22T13:31:06.000Z</time>
      </trkpt>
      <trkpt lat="42.69431" lon="1.49813">
        <ele>1667.8000488281</ele>
        <time>2023-07-22T13:31:10.000Z</time>
      </trkpt>
      <trkpt lat="42.69428" lon="1.4981">
        <ele>1667.5999755859</ele>
        <time>2023-07-22T13:31:17.000Z</time>
      </trkpt>
      <trkpt lat="42.69431" lon="1.49815">
        <ele>1667.5999755859</ele>
        <time>2023-07-22T13:31:25.000Z</time>
      </trkpt>
      <trkpt lat="42.69431" lon="1.49817">
        <ele>1667.4000244141</ele>
        <time>2023-07-22T13:31:32.000Z</time>
      </trkpt>
      <trkpt lat="42.69432" lon="1.49818">
        <ele>1667.1999511719</ele>
        <time>2023-07-22T13:31:37.000Z</time>
      </trkpt>
      <trkpt lat="42.69433" lon="1.49816">
        <ele>1667.1999511719</ele>
        <time>2023-07-22T13:31:39.000Z</time>
      </trkpt>
      <trkpt lat="42.69433" lon="1.49815">
        <ele>1667</ele>
        <time>2023-07-22T13:31:46.000Z</time>
      </trkpt>
      <trkpt lat="42.69432" lon="1.49813">
        <ele>1666.5999755859</ele>
        <time>2023-07-22T13:31:52.000Z</time>
      </trkpt>
      <trkpt lat="42.69432" lon="1.4981">
        <ele>1666.5999755859</ele>
        <time>2023-07-22T13:31:58.000Z</time>
      </trkpt>
      <trkpt lat="42.69429" lon="1.49813">
        <ele>1666.4000244141</ele>
        <time>2023-07-22T13:32:07.000Z</time>
      </trkpt>
      <trkpt lat="42.6943" lon="1.49813">
        <ele>1666.1999511719</ele>
        <time>2023-07-22T13:32:10.000Z</time>
      </trkpt>
      <trkpt lat="42.69431" lon="1.49815">
        <ele>1665.8000488281</ele>
        <time>2023-07-22T13:32:15.000Z</time>
      </trkpt>
      <trkpt lat="42.69435" lon="1.49817">
        <ele>1665.8000488281</ele>
        <time>2023-07-22T13:32:22.000Z</time>
      </trkpt>
      <trkpt lat="42.69429" lon="1.49817">
        <ele>1665.8000488281</ele>
        <time>2023-07-22T13:32:39.000Z</time>
      </trkpt>
      <trkpt lat="42.69429" lon="1.49814">
        <ele>1665.5999755859</ele>
        <time>2023-07-22T13:32:47.000Z</time>
      </trkpt>
      <trkpt lat="42.69429" lon="1.49811">
        <ele>1665.4000244141</ele>
        <time>2023-07-22T13:32:57.000Z</time>
      </trkpt>
      <trkpt lat="42.69435" lon="1.49816">
        <ele>1665.4000244141</ele>
        <time>2023-07-22T13:33:06.000Z</time>
      </trkpt>
      <trkpt lat="42.69434" lon="1.49813">
        <ele>1665.8000488281</ele>
        <time>2023-07-22T13:33:14.000Z</time>
      </trkpt>
      <trkpt lat="42.69432" lon="1.49815">
        <ele>1665.5999755859</ele>
        <time>2023-07-22T13:33:21.000Z</time>
      </trkpt>
      <trkpt lat="42.69433" lon="1.49819">
        <ele>1665.4000244141</ele>
        <time>2023-07-22T13:33:30.000Z</time>
      </trkpt>
      <trkpt lat="42.69433" lon="1.4982">
        <ele>1665</ele>
        <time>2023-07-22T13:33:32.000Z</time>
      </trkpt>
      <trkpt lat="42.69433" lon="1.4982">
        <ele>1664.1999511719</ele>
        <time>2023-07-22T13:33:36.000Z</time>
      </trkpt>
      <trkpt lat="42.69432" lon="1.49821">
        <ele>1664.4000244141</ele>
        <time>2023-07-22T13:33:44.000Z</time>
      </trkpt>
      <trkpt lat="42.69432" lon="1.4982">
        <ele>1664.4000244141</ele>
        <time>2023-07-22T13:33:52.000Z</time>
      </trkpt>
      <trkpt lat="42.69432" lon="1.49818">
        <ele>1664.4000244141</ele>
        <time>2023-07-22T13:34:02.000Z</time>
      </trkpt>
      <trkpt lat="42.69433" lon="1.49822">
        <ele>1664.1999511719</ele>
        <time>2023-07-22T13:34:09.000Z</time>
      </trkpt>
      <trkpt lat="42.69434" lon="1.49824">
        <ele>1663.8000488281</ele>
        <time>2023-07-22T13:34:13.000Z</time>
      </trkpt>
      <trkpt lat="42.69435" lon="1.49825">
        <ele>1663.5999755859</ele>
        <time>2023-07-22T13:34:16.000Z</time>
      </trkpt>
      <trkpt lat="42.69436" lon="1.49826">
        <ele>1663.8000488281</ele>
        <time>2023-07-22T13:34:24.000Z</time>
      </trkpt>
      <trkpt lat="42.69438" lon="1.49829">
        <ele>1663.5999755859</ele>
        <time>2023-07-22T13:34:32.000Z</time>
      </trkpt>
      <trkpt lat="42.69442" lon="1.4983">
        <ele>1662.8000488281</ele>
        <time>2023-07-22T13:34:37.000Z</time>
      </trkpt>
      <trkpt lat="42.69444" lon="1.4983">
        <ele>1662.8000488281</ele>
        <time>2023-07-22T13:34:39.000Z</time>
      </trkpt>
      <trkpt lat="42.69449" lon="1.49825">
        <ele>1661.4000244141</ele>
        <time>2023-07-22T13:34:46.000Z</time>
      </trkpt>
      <trkpt lat="42.6945" lon="1.49824">
        <ele>1661.1999511719</ele>
        <time>2023-07-22T13:34:47.000Z</time>
      </trkpt>
      <trkpt lat="42.69453" lon="1.49822">
        <ele>1660.1999511719</ele>
        <time>2023-07-22T13:34:50.000Z</time>
      </trkpt>
      <trkpt lat="42.69454" lon="1.49821">
        <ele>1659</ele>
        <time>2023-07-22T13:34:54.000Z</time>
      </trkpt>
      <trkpt lat="42.69455" lon="1.49821">
        <ele>1658.5999755859</ele>
        <time>2023-07-22T13:34:55.000Z</time>
      </trkpt>
      <trkpt lat="42.6946" lon="1.49821">
        <ele>1657.8000488281</ele>
        <time>2023-07-22T13:35:00.000Z</time>
      </trkpt>
      <trkpt lat="42.69462" lon="1.49821">
        <ele>1657.4000244141</ele>
        <time>2023-07-22T13:35:03.000Z</time>
      </trkpt>
      <trkpt lat="42.69467" lon="1.49819">
        <ele>1656.8000488281</ele>
        <time>2023-07-22T13:35:09.000Z</time>
      </trkpt>
      <trkpt lat="42.69468" lon="1.49817">
        <ele>1656.4000244141</ele>
        <time>2023-07-22T13:35:11.000Z</time>
      </trkpt>
      <trkpt lat="42.6947" lon="1.49815">
        <ele>1655.5999755859</ele>
        <time>2023-07-22T13:35:16.000Z</time>
      </trkpt>
      <trkpt lat="42.69474" lon="1.49813">
        <ele>1654.8000488281</ele>
        <time>2023-07-22T13:35:19.000Z</time>
      </trkpt>
      <trkpt lat="42.69477" lon="1.49812">
        <ele>1654.4000244141</ele>
        <time>2023-07-22T13:35:21.000Z</time>
      </trkpt>
      <trkpt lat="42.69482" lon="1.4981">
        <ele>1653.5999755859</ele>
        <time>2023-07-22T13:35:26.000Z</time>
      </trkpt>
      <trkpt lat="42.69483" lon="1.4981">
        <ele>1653.1999511719</ele>
        <time>2023-07-22T13:35:28.000Z</time>
      </trkpt>
      <trkpt lat="42.69488" lon="1.49809">
        <ele>1652</ele>
        <time>2023-07-22T13:35:35.000Z</time>
      </trkpt>
      <trkpt lat="42.69492" lon="1.4981">
        <ele>1651</ele>
        <time>2023-07-22T13:35:44.000Z</time>
      </trkpt>
      <trkpt lat="42.69493" lon="1.4981">
        <ele>1650.8000488281</ele>
        <time>2023-07-22T13:35:45.000Z</time>
      </trkpt>
      <trkpt lat="42.69499" lon="1.4981">
        <ele>1650</ele>
        <time>2023-07-22T13:35:51.000Z</time>
      </trkpt>
      <trkpt lat="42.695" lon="1.4981">
        <ele>1649.8000488281</ele>
        <time>2023-07-22T13:35:52.000Z</time>
      </trkpt>
      <trkpt lat="42.69503" lon="1.49806">
        <ele>1648.8000488281</ele>
        <time>2023-07-22T13:35:58.000Z</time>
      </trkpt>
      <trkpt lat="42.69507" lon="1.49805">
        <ele>1647.5999755859</ele>
        <time>2023-07-22T13:36:03.000Z</time>
      </trkpt>
      <trkpt lat="42.69507" lon="1.49806">
        <ele>1646.8000488281</ele>
        <time>2023-07-22T13:36:05.000Z</time>
      </trkpt>
      <trkpt lat="42.69507" lon="1.49806">
        <ele>1646.4000244141</ele>
        <time>2023-07-22T13:36:06.000Z</time>
      </trkpt>
      <trkpt lat="42.69507" lon="1.49809">
        <ele>1646</ele>
        <time>2023-07-22T13:36:14.000Z</time>
      </trkpt>
      <trkpt lat="42.69506" lon="1.49807">
        <ele>1645.8000488281</ele>
        <time>2023-07-22T13:36:22.000Z</time>
      </trkpt>
      <trkpt lat="42.69504" lon="1.49803">
        <ele>1646.1999511719</ele>
        <time>2023-07-22T13:36:30.000Z</time>
      </trkpt>
      <trkpt lat="42.69511" lon="1.49803">
        <ele>1646.1999511719</ele>
        <time>2023-07-22T13:36:40.000Z</time>
      </trkpt>
      <trkpt lat="42.69513" lon="1.49802">
        <ele>1645.8000488281</ele>
        <time>2023-07-22T13:36:46.000Z</time>
      </trkpt>
      <trkpt lat="42.69516" lon="1.49803">
        <ele>1646.1999511719</ele>
        <time>2023-07-22T13:36:52.000Z</time>
      </trkpt>
      <trkpt lat="42.69525" lon="1.49803">
        <ele>1646.4000244141</ele>
        <time>2023-07-22T13:37:01.000Z</time>
      </trkpt>
      <trkpt lat="42.6953" lon="1.49802">
        <ele>1645.8000488281</ele>
        <time>2023-07-22T13:37:08.000Z</time>
      </trkpt>
      <trkpt lat="42.69533" lon="1.49804">
        <ele>1645.8000488281</ele>
        <time>2023-07-22T13:37:14.000Z</time>
      </trkpt>
      <trkpt lat="42.69539" lon="1.49805">
        <ele>1645.5999755859</ele>
        <time>2023-07-22T13:37:21.000Z</time>
      </trkpt>
      <trkpt lat="42.69545" lon="1.49806">
        <ele>1645.4000244141</ele>
        <time>2023-07-22T13:37:26.000Z</time>
      </trkpt>
      <trkpt lat="42.69551" lon="1.49805">
        <ele>1644.8000488281</ele>
        <time>2023-07-22T13:37:29.000Z</time>
      </trkpt>
      <trkpt lat="42.69556" lon="1.49804">
        <ele>1644.1999511719</ele>
        <time>2023-07-22T13:37:33.000Z</time>
      </trkpt>
      <trkpt lat="42.69562" lon="1.49799">
        <ele>1644</ele>
        <time>2023-07-22T13:37:38.000Z</time>
      </trkpt>
      <trkpt lat="42.69564" lon="1.4979">
        <ele>1643.4000244141</ele>
        <time>2023-07-22T13:37:45.000Z</time>
      </trkpt>
      <trkpt lat="42.69563" lon="1.4979">
        <ele>1643</ele>
        <time>2023-07-22T13:37:46.000Z</time>
      </trkpt>
      <trkpt lat="42.69564" lon="1.49784">
        <ele>1642.1999511719</ele>
        <time>2023-07-22T13:37:52.000Z</time>
      </trkpt>
      <trkpt lat="42.69566" lon="1.49781">
        <ele>1641.8000488281</ele>
        <time>2023-07-22T13:37:56.000Z</time>
      </trkpt>
      <trkpt lat="42.69569" lon="1.49781">
        <ele>1641</ele>
        <time>2023-07-22T13:38:00.000Z</time>
      </trkpt>
      <trkpt lat="42.69571" lon="1.4978">
        <ele>1640.5999755859</ele>
        <time>2023-07-22T13:38:03.000Z</time>
      </trkpt>
      <trkpt lat="42.69575" lon="1.49779">
        <ele>1640.1999511719</ele>
        <time>2023-07-22T13:38:07.000Z</time>
      </trkpt>
      <trkpt lat="42.69582" lon="1.49775">
        <ele>1640</ele>
        <time>2023-07-22T13:38:14.000Z</time>
      </trkpt>
      <trkpt lat="42.69586" lon="1.49772">
        <ele>1639.4000244141</ele>
        <time>2023-07-22T13:38:18.000Z</time>
      </trkpt>
      <trkpt lat="42.6959" lon="1.49771">
        <ele>1639</ele>
        <time>2023-07-22T13:38:23.000Z</time>
      </trkpt>
      <trkpt lat="42.69593" lon="1.4977">
        <ele>1638.4000244141</ele>
        <time>2023-07-22T13:38:25.000Z</time>
      </trkpt>
      <trkpt lat="42.69599" lon="1.49768">
        <ele>1637.8000488281</ele>
        <time>2023-07-22T13:38:30.000Z</time>
      </trkpt>
      <trkpt lat="42.69604" lon="1.49764">
        <ele>1637.1999511719</ele>
        <time>2023-07-22T13:38:36.000Z</time>
      </trkpt>
      <trkpt lat="42.69605" lon="1.49764">
        <ele>1636.8000488281</ele>
        <time>2023-07-22T13:38:38.000Z</time>
      </trkpt>
      <trkpt lat="42.6961" lon="1.49763">
        <ele>1636</ele>
        <time>2023-07-22T13:38:42.000Z</time>
      </trkpt>
      <trkpt lat="42.69615" lon="1.49762">
        <ele>1635.8000488281</ele>
        <time>2023-07-22T13:38:46.000Z</time>
      </trkpt>
      <trkpt lat="42.69619" lon="1.4976">
        <ele>1635.1999511719</ele>
        <time>2023-07-22T13:38:52.000Z</time>
      </trkpt>
      <trkpt lat="42.6962" lon="1.4976">
        <ele>1635</ele>
        <time>2023-07-22T13:38:53.000Z</time>
      </trkpt>
      <trkpt lat="42.69623" lon="1.49758">
        <ele>1633.8000488281</ele>
        <time>2023-07-22T13:38:57.000Z</time>
      </trkpt>
      <trkpt lat="42.69625" lon="1.49757">
        <ele>1633.4000244141</ele>
        <time>2023-07-22T13:38:59.000Z</time>
      </trkpt>
      <trkpt lat="42.69631" lon="1.49751">
        <ele>1632.8000488281</ele>
        <time>2023-07-22T13:39:05.000Z</time>
      </trkpt>
      <trkpt lat="42.69632" lon="1.4975">
        <ele>1632.8000488281</ele>
        <time>2023-07-22T13:39:06.000Z</time>
      </trkpt>
      <trkpt lat="42.69636" lon="1.49745">
        <ele>1632.1999511719</ele>
        <time>2023-07-22T13:39:11.000Z</time>
      </trkpt>
      <trkpt lat="42.69638" lon="1.49747">
        <ele>1631.8000488281</ele>
        <time>2023-07-22T13:39:15.000Z</time>
      </trkpt>
      <trkpt lat="42.6964" lon="1.49747">
        <ele>1632</ele>
        <time>2023-07-22T13:39:17.000Z</time>
      </trkpt>
      <trkpt lat="42.69644" lon="1.49743">
        <ele>1631.5999755859</ele>
        <time>2023-07-22T13:39:23.000Z</time>
      </trkpt>
      <trkpt lat="42.69645" lon="1.49742">
        <ele>1631.5999755859</ele>
        <time>2023-07-22T13:39:24.000Z</time>
      </trkpt>
      <trkpt lat="42.6965" lon="1.49737">
        <ele>1631.5999755859</ele>
        <time>2023-07-22T13:39:30.000Z</time>
      </trkpt>
      <trkpt lat="42.69654" lon="1.49732">
        <ele>1631</ele>
        <time>2023-07-22T13:39:37.000Z</time>
      </trkpt>
      <trkpt lat="42.6966" lon="1.49728">
        <ele>1630.8000488281</ele>
        <time>2023-07-22T13:39:44.000Z</time>
      </trkpt>
      <trkpt lat="42.69662" lon="1.49727">
        <ele>1630.5999755859</ele>
        <time>2023-07-22T13:39:51.000Z</time>
      </trkpt>
      <trkpt lat="42.69662" lon="1.49727">
        <ele>1630.4000244141</ele>
        <time>2023-07-22T13:39:52.000Z</time>
      </trkpt>
      <trkpt lat="42.69667" lon="1.49721">
        <ele>1629.4000244141</ele>
        <time>2023-07-22T13:39:59.000Z</time>
      </trkpt>
      <trkpt lat="42.69672" lon="1.49719">
        <ele>1628.4000244141</ele>
        <time>2023-07-22T13:40:03.000Z</time>
      </trkpt>
      <trkpt lat="42.69678" lon="1.49718">
        <ele>1627.8000488281</ele>
        <time>2023-07-22T13:40:07.000Z</time>
      </trkpt>
      <trkpt lat="42.69684" lon="1.49717">
        <ele>1627.4000244141</ele>
        <time>2023-07-22T13:40:11.000Z</time>
      </trkpt>
      <trkpt lat="42.69688" lon="1.49715">
        <ele>1627.4000244141</ele>
        <time>2023-07-22T13:40:15.000Z</time>
      </trkpt>
      <trkpt lat="42.69693" lon="1.49711">
        <ele>1627</ele>
        <time>2023-07-22T13:40:22.000Z</time>
      </trkpt>
      <trkpt lat="42.69694" lon="1.49709">
        <ele>1626</ele>
        <time>2023-07-22T13:40:25.000Z</time>
      </trkpt>
      <trkpt lat="42.69697" lon="1.49707">
        <ele>1625.5999755859</ele>
        <time>2023-07-22T13:40:29.000Z</time>
      </trkpt>
      <trkpt lat="42.69703" lon="1.49705">
        <ele>1624.8000488281</ele>
        <time>2023-07-22T13:40:35.000Z</time>
      </trkpt>
      <trkpt lat="42.69704" lon="1.49705">
        <ele>1624.5999755859</ele>
        <time>2023-07-22T13:40:36.000Z</time>
      </trkpt>
      <trkpt lat="42.69707" lon="1.49704">
        <ele>1624.1999511719</ele>
        <time>2023-07-22T13:40:43.000Z</time>
      </trkpt>
      <trkpt lat="42.69714" lon="1.49695">
        <ele>1624.4000244141</ele>
        <time>2023-07-22T13:40:50.000Z</time>
      </trkpt>
      <trkpt lat="42.6972" lon="1.49687">
        <ele>1623.5999755859</ele>
        <time>2023-07-22T13:40:56.000Z</time>
      </trkpt>
      <trkpt lat="42.69724" lon="1.49683">
        <ele>1623.1999511719</ele>
        <time>2023-07-22T13:40:59.000Z</time>
      </trkpt>
      <trkpt lat="42.6973" lon="1.4968">
        <ele>1622.5999755859</ele>
        <time>2023-07-22T13:41:05.000Z</time>
      </trkpt>
      <trkpt lat="42.69735" lon="1.49679">
        <ele>1622</ele>
        <time>2023-07-22T13:41:08.000Z</time>
      </trkpt>
      <trkpt lat="42.69742" lon="1.49676">
        <ele>1621.4000244141</ele>
        <time>2023-07-22T13:41:12.000Z</time>
      </trkpt>
      <trkpt lat="42.69746" lon="1.49675">
        <ele>1620.8000488281</ele>
        <time>2023-07-22T13:41:15.000Z</time>
      </trkpt>
      <trkpt lat="42.6975" lon="1.49673">
        <ele>1620.4000244141</ele>
        <time>2023-07-22T13:41:19.000Z</time>
      </trkpt>
      <trkpt lat="42.69756" lon="1.49669">
        <ele>1619.4000244141</ele>
        <time>2023-07-22T13:41:24.000Z</time>
      </trkpt>
      <trkpt lat="42.69756" lon="1.49669">
        <ele>1619.1999511719</ele>
        <time>2023-07-22T13:41:25.000Z</time>
      </trkpt>
      <trkpt lat="42.69763" lon="1.49664">
        <ele>1618</ele>
        <time>2023-07-22T13:41:32.000Z</time>
      </trkpt>
      <trkpt lat="42.69764" lon="1.49664">
        <ele>1617.8000488281</ele>
        <time>2023-07-22T13:41:33.000Z</time>
      </trkpt>
      <trkpt lat="42.6977" lon="1.49664">
        <ele>1617</ele>
        <time>2023-07-22T13:41:37.000Z</time>
      </trkpt>
      <trkpt lat="42.69772" lon="1.49662">
        <ele>1616.5999755859</ele>
        <time>2023-07-22T13:41:40.000Z</time>
      </trkpt>
      <trkpt lat="42.69776" lon="1.49659">
        <ele>1616</ele>
        <time>2023-07-22T13:41:45.000Z</time>
      </trkpt>
      <trkpt lat="42.6978" lon="1.49657">
        <ele>1615</ele>
        <time>2023-07-22T13:41:50.000Z</time>
      </trkpt>
      <trkpt lat="42.69781" lon="1.49656">
        <ele>1615</ele>
        <time>2023-07-22T13:41:51.000Z</time>
      </trkpt>
      <trkpt lat="42.69785" lon="1.49655">
        <ele>1613.8000488281</ele>
        <time>2023-07-22T13:41:56.000Z</time>
      </trkpt>
      <trkpt lat="42.69786" lon="1.49655">
        <ele>1613.5999755859</ele>
        <time>2023-07-22T13:41:57.000Z</time>
      </trkpt>
      <trkpt lat="42.69791" lon="1.49654">
        <ele>1613.4000244141</ele>
        <time>2023-07-22T13:42:05.000Z</time>
      </trkpt>
      <trkpt lat="42.69796" lon="1.49653">
        <ele>1612.5999755859</ele>
        <time>2023-07-22T13:42:09.000Z</time>
      </trkpt>
      <trkpt lat="42.698" lon="1.49651">
        <ele>1612</ele>
        <time>2023-07-22T13:42:12.000Z</time>
      </trkpt>
      <trkpt lat="42.69803" lon="1.4965">
        <ele>1611.5999755859</ele>
        <time>2023-07-22T13:42:14.000Z</time>
      </trkpt>
      <trkpt lat="42.6981" lon="1.4965">
        <ele>1610.5999755859</ele>
        <time>2023-07-22T13:42:20.000Z</time>
      </trkpt>
      <trkpt lat="42.69812" lon="1.49652">
        <ele>1610.1999511719</ele>
        <time>2023-07-22T13:42:22.000Z</time>
      </trkpt>
      <trkpt lat="42.69816" lon="1.49659">
        <ele>1610</ele>
        <time>2023-07-22T13:42:27.000Z</time>
      </trkpt>
      <trkpt lat="42.6982" lon="1.49663">
        <ele>1609.4000244141</ele>
        <time>2023-07-22T13:42:31.000Z</time>
      </trkpt>
      <trkpt lat="42.69823" lon="1.49666">
        <ele>1608.8000488281</ele>
        <time>2023-07-22T13:42:35.000Z</time>
      </trkpt>
      <trkpt lat="42.69824" lon="1.49666">
        <ele>1608.4000244141</ele>
        <time>2023-07-22T13:42:37.000Z</time>
      </trkpt>
      <trkpt lat="42.69828" lon="1.4967">
        <ele>1607.4000244141</ele>
        <time>2023-07-22T13:42:42.000Z</time>
      </trkpt>
      <trkpt lat="42.69829" lon="1.4967">
        <ele>1607.1999511719</ele>
        <time>2023-07-22T13:42:43.000Z</time>
      </trkpt>
      <trkpt lat="42.69834" lon="1.49676">
        <ele>1606</ele>
        <time>2023-07-22T13:42:48.000Z</time>
      </trkpt>
      <trkpt lat="42.69834" lon="1.49677">
        <ele>1606</ele>
        <time>2023-07-22T13:42:49.000Z</time>
      </trkpt>
      <trkpt lat="42.69835" lon="1.49676">
        <ele>1605.8000488281</ele>
        <time>2023-07-22T13:42:53.000Z</time>
      </trkpt>
      <trkpt lat="42.69837" lon="1.49676">
        <ele>1605.4000244141</ele>
        <time>2023-07-22T13:42:56.000Z</time>
      </trkpt>
      <trkpt lat="42.69836" lon="1.49678">
        <ele>1604.8000488281</ele>
        <time>2023-07-22T13:42:58.000Z</time>
      </trkpt>
      <trkpt lat="42.69835" lon="1.49682">
        <ele>1604</ele>
        <time>2023-07-22T13:43:02.000Z</time>
      </trkpt>
      <trkpt lat="42.69836" lon="1.49683">
        <ele>1603.8000488281</ele>
        <time>2023-07-22T13:43:04.000Z</time>
      </trkpt>
      <trkpt lat="42.69838" lon="1.49685">
        <ele>1603</ele>
        <time>2023-07-22T13:43:09.000Z</time>
      </trkpt>
      <trkpt lat="42.69839" lon="1.49685">
        <ele>1602.5999755859</ele>
        <time>2023-07-22T13:43:10.000Z</time>
      </trkpt>
      <trkpt lat="42.69842" lon="1.49685">
        <ele>1601.8000488281</ele>
        <time>2023-07-22T13:43:15.000Z</time>
      </trkpt>
      <trkpt lat="42.69842" lon="1.49684">
        <ele>1601.5999755859</ele>
        <time>2023-07-22T13:43:16.000Z</time>
      </trkpt>
      <trkpt lat="42.69845" lon="1.49682">
        <ele>1600.4000244141</ele>
        <time>2023-07-22T13:43:21.000Z</time>
      </trkpt>
      <trkpt lat="42.69845" lon="1.49682">
        <ele>1600.1999511719</ele>
        <time>2023-07-22T13:43:22.000Z</time>
      </trkpt>
      <trkpt lat="42.69846" lon="1.49682">
        <ele>1599.8000488281</ele>
        <time>2023-07-22T13:43:32.000Z</time>
      </trkpt>
      <trkpt lat="42.69848" lon="1.4968">
        <ele>1599.5999755859</ele>
        <time>2023-07-22T13:43:39.000Z</time>
      </trkpt>
      <trkpt lat="42.69851" lon="1.49677">
        <ele>1599.1999511719</ele>
        <time>2023-07-22T13:43:42.000Z</time>
      </trkpt>
      <trkpt lat="42.69853" lon="1.49676">
        <ele>1598.5999755859</ele>
        <time>2023-07-22T13:43:45.000Z</time>
      </trkpt>
      <trkpt lat="42.69855" lon="1.49675">
        <ele>1598</ele>
        <time>2023-07-22T13:43:47.000Z</time>
      </trkpt>
      <trkpt lat="42.69862" lon="1.49673">
        <ele>1597</ele>
        <time>2023-07-22T13:43:53.000Z</time>
      </trkpt>
      <trkpt lat="42.69863" lon="1.49674">
        <ele>1596.8000488281</ele>
        <time>2023-07-22T13:43:54.000Z</time>
      </trkpt>
      <trkpt lat="42.6987" lon="1.49675">
        <ele>1596</ele>
        <time>2023-07-22T13:43:58.000Z</time>
      </trkpt>
      <trkpt lat="42.69873" lon="1.49676">
        <ele>1595.4000244141</ele>
        <time>2023-07-22T13:44:01.000Z</time>
      </trkpt>
      <trkpt lat="42.69876" lon="1.49678">
        <ele>1594.8000488281</ele>
        <time>2023-07-22T13:44:04.000Z</time>
      </trkpt>
      <trkpt lat="42.69877" lon="1.49679">
        <ele>1594.1999511719</ele>
        <time>2023-07-22T13:44:07.000Z</time>
      </trkpt>
      <trkpt lat="42.69879" lon="1.4968">
        <ele>1593.5999755859</ele>
        <time>2023-07-22T13:44:10.000Z</time>
      </trkpt>
      <trkpt lat="42.69885" lon="1.4968">
        <ele>1592.5999755859</ele>
        <time>2023-07-22T13:44:15.000Z</time>
      </trkpt>
      <trkpt lat="42.69886" lon="1.49679">
        <ele>1592.4000244141</ele>
        <time>2023-07-22T13:44:16.000Z</time>
      </trkpt>
      <trkpt lat="42.69891" lon="1.49676">
        <ele>1591.1999511719</ele>
        <time>2023-07-22T13:44:22.000Z</time>
      </trkpt>
      <trkpt lat="42.69893" lon="1.49676">
        <ele>1590.5999755859</ele>
        <time>2023-07-22T13:44:24.000Z</time>
      </trkpt>
      <trkpt lat="42.69898" lon="1.49675">
        <ele>1590</ele>
        <time>2023-07-22T13:44:27.000Z</time>
      </trkpt>
      <trkpt lat="42.69903" lon="1.49674">
        <ele>1589.4000244141</ele>
        <time>2023-07-22T13:44:31.000Z</time>
      </trkpt>
      <trkpt lat="42.69906" lon="1.49673">
        <ele>1589</ele>
        <time>2023-07-22T13:44:34.000Z</time>
      </trkpt>
      <trkpt lat="42.69909" lon="1.49671">
        <ele>1587.5999755859</ele>
        <time>2023-07-22T13:44:39.000Z</time>
      </trkpt>
      <trkpt lat="42.69911" lon="1.4967">
        <ele>1586.4000244141</ele>
        <time>2023-07-22T13:44:42.000Z</time>
      </trkpt>
      <trkpt lat="42.69915" lon="1.49669">
        <ele>1586.1999511719</ele>
        <time>2023-07-22T13:44:47.000Z</time>
      </trkpt>
      <trkpt lat="42.69921" lon="1.49671">
        <ele>1585.4000244141</ele>
        <time>2023-07-22T13:44:53.000Z</time>
      </trkpt>
      <trkpt lat="42.69924" lon="1.49672">
        <ele>1585</ele>
        <time>2023-07-22T13:44:55.000Z</time>
      </trkpt>
      <trkpt lat="42.69927" lon="1.49673">
        <ele>1584.4000244141</ele>
        <time>2023-07-22T13:44:58.000Z</time>
      </trkpt>
      <trkpt lat="42.69933" lon="1.49673">
        <ele>1584</ele>
        <time>2023-07-22T13:45:03.000Z</time>
      </trkpt>
      <trkpt lat="42.69938" lon="1.49673">
        <ele>1583.1999511719</ele>
        <time>2023-07-22T13:45:07.000Z</time>
      </trkpt>
      <trkpt lat="42.69941" lon="1.49671">
        <ele>1582.8000488281</ele>
        <time>2023-07-22T13:45:10.000Z</time>
      </trkpt>
      <trkpt lat="42.69944" lon="1.4967">
        <ele>1582</ele>
        <time>2023-07-22T13:45:15.000Z</time>
      </trkpt>
      <trkpt lat="42.69945" lon="1.4967">
        <ele>1582</ele>
        <time>2023-07-22T13:45:16.000Z</time>
      </trkpt>
      <trkpt lat="42.69955" lon="1.49669">
        <ele>1581</ele>
        <time>2023-07-22T13:45:24.000Z</time>
      </trkpt>
      <trkpt lat="42.69957" lon="1.49674">
        <ele>1580.4000244141</ele>
        <time>2023-07-22T13:45:30.000Z</time>
      </trkpt>
      <trkpt lat="42.69961" lon="1.49676">
        <ele>1580</ele>
        <time>2023-07-22T13:45:35.000Z</time>
      </trkpt>
      <trkpt lat="42.69966" lon="1.49678">
        <ele>1579.5999755859</ele>
        <time>2023-07-22T13:45:38.000Z</time>
      </trkpt>
      <trkpt lat="42.69969" lon="1.49679">
        <ele>1578.8000488281</ele>
        <time>2023-07-22T13:45:41.000Z</time>
      </trkpt>
      <trkpt lat="42.69973" lon="1.4968">
        <ele>1577.8000488281</ele>
        <time>2023-07-22T13:45:46.000Z</time>
      </trkpt>
      <trkpt lat="42.69974" lon="1.4968">
        <ele>1577.5999755859</ele>
        <time>2023-07-22T13:45:47.000Z</time>
      </trkpt>
      <trkpt lat="42.69977" lon="1.49681">
        <ele>1576.5999755859</ele>
        <time>2023-07-22T13:45:53.000Z</time>
      </trkpt>
      <trkpt lat="42.69977" lon="1.49681">
        <ele>1576.4000244141</ele>
        <time>2023-07-22T13:45:54.000Z</time>
      </trkpt>
      <trkpt lat="42.69983" lon="1.49682">
        <ele>1575.1999511719</ele>
        <time>2023-07-22T13:45:58.000Z</time>
      </trkpt>
      <trkpt lat="42.69987" lon="1.49684">
        <ele>1574.5999755859</ele>
        <time>2023-07-22T13:46:01.000Z</time>
      </trkpt>
      <trkpt lat="42.69989" lon="1.49684">
        <ele>1574.1999511719</ele>
        <time>2023-07-22T13:46:03.000Z</time>
      </trkpt>
      <trkpt lat="42.69992" lon="1.49683">
        <ele>1573</ele>
        <time>2023-07-22T13:46:08.000Z</time>
      </trkpt>
      <trkpt lat="42.69996" lon="1.49682">
        <ele>1572</ele>
        <time>2023-07-22T13:46:13.000Z</time>
      </trkpt>
      <trkpt lat="42.69998" lon="1.49681">
        <ele>1571.5999755859</ele>
        <time>2023-07-22T13:46:15.000Z</time>
      </trkpt>
      <trkpt lat="42.69999" lon="1.49681">
        <ele>1570.8000488281</ele>
        <time>2023-07-22T13:46:18.000Z</time>
      </trkpt>
      <trkpt lat="42.69998" lon="1.49681">
        <ele>1570.5999755859</ele>
        <time>2023-07-22T13:46:21.000Z</time>
      </trkpt>
      <trkpt lat="42.69998" lon="1.49681">
        <ele>1570.5999755859</ele>
        <time>2023-07-22T13:46:22.000Z</time>
      </trkpt>
      <trkpt lat="42.69995" lon="1.49681">
        <ele>1570.5999755859</ele>
        <time>2023-07-22T13:46:29.000Z</time>
      </trkpt>
      <trkpt lat="42.7" lon="1.49679">
        <ele>1570.5999755859</ele>
        <time>2023-07-22T13:46:36.000Z</time>
      </trkpt>
      <trkpt lat="42.70005" lon="1.4968">
        <ele>1569.8000488281</ele>
        <time>2023-07-22T13:46:42.000Z</time>
      </trkpt>
      <trkpt lat="42.70007" lon="1.49681">
        <ele>1569.1999511719</ele>
        <time>2023-07-22T13:46:44.000Z</time>
      </trkpt>
      <trkpt lat="42.70013" lon="1.4968">
        <ele>1568.5999755859</ele>
        <time>2023-07-22T13:46:49.000Z</time>
      </trkpt>
      <trkpt lat="42.70016" lon="1.49681">
        <ele>1568</ele>
        <time>2023-07-22T13:46:52.000Z</time>
      </trkpt>
      <trkpt lat="42.70019" lon="1.4968">
        <ele>1567.5999755859</ele>
        <time>2023-07-22T13:46:54.000Z</time>
      </trkpt>
      <trkpt lat="42.70021" lon="1.49679">
        <ele>1566.4000244141</ele>
        <time>2023-07-22T13:46:59.000Z</time>
      </trkpt>
      <trkpt lat="42.70022" lon="1.49678">
        <ele>1566</ele>
        <time>2023-07-22T13:47:01.000Z</time>
      </trkpt>
      <trkpt lat="42.70026" lon="1.49678">
        <ele>1565</ele>
        <time>2023-07-22T13:47:04.000Z</time>
      </trkpt>
      <trkpt lat="42.70028" lon="1.49677">
        <ele>1564</ele>
        <time>2023-07-22T13:47:08.000Z</time>
      </trkpt>
      <trkpt lat="42.70028" lon="1.49677">
        <ele>1563.8000488281</ele>
        <time>2023-07-22T13:47:09.000Z</time>
      </trkpt>
      <trkpt lat="42.70029" lon="1.4968">
        <ele>1563.1999511719</ele>
        <time>2023-07-22T13:47:12.000Z</time>
      </trkpt>
      <trkpt lat="42.7003" lon="1.49681">
        <ele>1563</ele>
        <time>2023-07-22T13:47:14.000Z</time>
      </trkpt>
      <trkpt lat="42.70031" lon="1.49683">
        <ele>1562.8000488281</ele>
        <time>2023-07-22T13:47:16.000Z</time>
      </trkpt>
      <trkpt lat="42.70038" lon="1.4969">
        <ele>1561.8000488281</ele>
        <time>2023-07-22T13:47:22.000Z</time>
      </trkpt>
      <trkpt lat="42.70036" lon="1.49691">
        <ele>1560.8000488281</ele>
        <time>2023-07-22T13:47:27.000Z</time>
      </trkpt>
      <trkpt lat="42.70036" lon="1.49693">
        <ele>1560.4000244141</ele>
        <time>2023-07-22T13:47:29.000Z</time>
      </trkpt>
      <trkpt lat="42.70037" lon="1.497">
        <ele>1560</ele>
        <time>2023-07-22T13:47:35.000Z</time>
      </trkpt>
      <trkpt lat="42.70039" lon="1.49699">
        <ele>1559.8000488281</ele>
        <time>2023-07-22T13:47:37.000Z</time>
      </trkpt>
      <trkpt lat="42.70041" lon="1.497">
        <ele>1559.4000244141</ele>
        <time>2023-07-22T13:47:40.000Z</time>
      </trkpt>
      <trkpt lat="42.70045" lon="1.49699">
        <ele>1559</ele>
        <time>2023-07-22T13:47:47.000Z</time>
      </trkpt>
      <trkpt lat="42.70045" lon="1.49699">
        <ele>1558.5999755859</ele>
        <time>2023-07-22T13:47:49.000Z</time>
      </trkpt>
      <trkpt lat="42.70048" lon="1.49702">
        <ele>1558</ele>
        <time>2023-07-22T13:47:55.000Z</time>
      </trkpt>
      <trkpt lat="42.70049" lon="1.497">
        <ele>1557.5999755859</ele>
        <time>2023-07-22T13:47:58.000Z</time>
      </trkpt>
      <trkpt lat="42.70052" lon="1.497">
        <ele>1556.8000488281</ele>
        <time>2023-07-22T13:48:02.000Z</time>
      </trkpt>
      <trkpt lat="42.70053" lon="1.49701">
        <ele>1556.4000244141</ele>
        <time>2023-07-22T13:48:04.000Z</time>
      </trkpt>
      <trkpt lat="42.70059" lon="1.49703">
        <ele>1555.4000244141</ele>
        <time>2023-07-22T13:48:09.000Z</time>
      </trkpt>
      <trkpt lat="42.7006" lon="1.49704">
        <ele>1555</ele>
        <time>2023-07-22T13:48:10.000Z</time>
      </trkpt>
      <trkpt lat="42.70066" lon="1.49706">
        <ele>1554.1999511719</ele>
        <time>2023-07-22T13:48:17.000Z</time>
      </trkpt>
      <trkpt lat="42.70067" lon="1.49707">
        <ele>1554</ele>
        <time>2023-07-22T13:48:18.000Z</time>
      </trkpt>
      <trkpt lat="42.70076" lon="1.49712">
        <ele>1553.4000244141</ele>
        <time>2023-07-22T13:48:27.000Z</time>
      </trkpt>
      <trkpt lat="42.70077" lon="1.49713">
        <ele>1553.1999511719</ele>
        <time>2023-07-22T13:48:29.000Z</time>
      </trkpt>
      <trkpt lat="42.70081" lon="1.49715">
        <ele>1552.4000244141</ele>
        <time>2023-07-22T13:48:35.000Z</time>
      </trkpt>
      <trkpt lat="42.70082" lon="1.49715">
        <ele>1552.1999511719</ele>
        <time>2023-07-22T13:48:36.000Z</time>
      </trkpt>
      <trkpt lat="42.70082" lon="1.49714">
        <ele>1552</ele>
        <time>2023-07-22T13:48:37.000Z</time>
      </trkpt>
      <trkpt lat="42.70086" lon="1.49713">
        <ele>1551.5999755859</ele>
        <time>2023-07-22T13:48:41.000Z</time>
      </trkpt>
      <trkpt lat="42.70089" lon="1.49712">
        <ele>1551.1999511719</ele>
        <time>2023-07-22T13:48:44.000Z</time>
      </trkpt>
      <trkpt lat="42.70091" lon="1.49712">
        <ele>1550.8000488281</ele>
        <time>2023-07-22T13:48:47.000Z</time>
      </trkpt>
      <trkpt lat="42.70096" lon="1.49712">
        <ele>1550</ele>
        <time>2023-07-22T13:48:53.000Z</time>
      </trkpt>
      <trkpt lat="42.70097" lon="1.49712">
        <ele>1550</ele>
        <time>2023-07-22T13:48:54.000Z</time>
      </trkpt>
      <trkpt lat="42.70103" lon="1.49711">
        <ele>1549</ele>
        <time>2023-07-22T13:49:01.000Z</time>
      </trkpt>
      <trkpt lat="42.70104" lon="1.49711">
        <ele>1548.8000488281</ele>
        <time>2023-07-22T13:49:03.000Z</time>
      </trkpt>
      <trkpt lat="42.70108" lon="1.49711">
        <ele>1548</ele>
        <time>2023-07-22T13:49:08.000Z</time>
      </trkpt>
      <trkpt lat="42.70109" lon="1.49711">
        <ele>1548</ele>
        <time>2023-07-22T13:49:09.000Z</time>
      </trkpt>
      <trkpt lat="42.70115" lon="1.49713">
        <ele>1547.5999755859</ele>
        <time>2023-07-22T13:49:15.000Z</time>
      </trkpt>
      <trkpt lat="42.70119" lon="1.49715">
        <ele>1546.8000488281</ele>
        <time>2023-07-22T13:49:19.000Z</time>
      </trkpt>
      <trkpt lat="42.70123" lon="1.49716">
        <ele>1546.4000244141</ele>
        <time>2023-07-22T13:49:22.000Z</time>
      </trkpt>
      <trkpt lat="42.70132" lon="1.49719">
        <ele>1545.8000488281</ele>
        <time>2023-07-22T13:49:28.000Z</time>
      </trkpt>
      <trkpt lat="42.70132" lon="1.49718">
        <ele>1545.5999755859</ele>
        <time>2023-07-22T13:49:29.000Z</time>
      </trkpt>
      <trkpt lat="42.70139" lon="1.49717">
        <ele>1544.5999755859</ele>
        <time>2023-07-22T13:49:36.000Z</time>
      </trkpt>
      <trkpt lat="42.70144" lon="1.4972">
        <ele>1543.5999755859</ele>
        <time>2023-07-22T13:49:42.000Z</time>
      </trkpt>
      <trkpt lat="42.70147" lon="1.49722">
        <ele>1543</ele>
        <time>2023-07-22T13:49:45.000Z</time>
      </trkpt>
      <trkpt lat="42.7015" lon="1.49723">
        <ele>1542.4000244141</ele>
        <time>2023-07-22T13:49:48.000Z</time>
      </trkpt>
      <trkpt lat="42.70151" lon="1.49726">
        <ele>1542.4000244141</ele>
        <time>2023-07-22T13:49:52.000Z</time>
      </trkpt>
      <trkpt lat="42.70156" lon="1.49731">
        <ele>1542</ele>
        <time>2023-07-22T13:49:58.000Z</time>
      </trkpt>
      <trkpt lat="42.70161" lon="1.49734">
        <ele>1541.4000244141</ele>
        <time>2023-07-22T13:50:03.000Z</time>
      </trkpt>
      <trkpt lat="42.70164" lon="1.49737">
        <ele>1541.1999511719</ele>
        <time>2023-07-22T13:50:06.000Z</time>
      </trkpt>
      <trkpt lat="42.70173" lon="1.49738">
        <ele>1540.5999755859</ele>
        <time>2023-07-22T13:50:15.000Z</time>
      </trkpt>
      <trkpt lat="42.70174" lon="1.49738">
        <ele>1540.1999511719</ele>
        <time>2023-07-22T13:50:17.000Z</time>
      </trkpt>
      <trkpt lat="42.70177" lon="1.49738">
        <ele>1539.1999511719</ele>
        <time>2023-07-22T13:50:22.000Z</time>
      </trkpt>
      <trkpt lat="42.70178" lon="1.49739">
        <ele>1539</ele>
        <time>2023-07-22T13:50:23.000Z</time>
      </trkpt>
      <trkpt lat="42.70179" lon="1.4974">
        <ele>1538.8000488281</ele>
        <time>2023-07-22T13:50:24.000Z</time>
      </trkpt>
      <trkpt lat="42.70182" lon="1.49744">
        <ele>1538.8000488281</ele>
        <time>2023-07-22T13:50:29.000Z</time>
      </trkpt>
      <trkpt lat="42.70184" lon="1.49747">
        <ele>1538.1999511719</ele>
        <time>2023-07-22T13:50:32.000Z</time>
      </trkpt>
      <trkpt lat="42.70188" lon="1.49749">
        <ele>1537.5999755859</ele>
        <time>2023-07-22T13:50:36.000Z</time>
      </trkpt>
      <trkpt lat="42.70194" lon="1.49752">
        <ele>1537.1999511719</ele>
        <time>2023-07-22T13:50:41.000Z</time>
      </trkpt>
      <trkpt lat="42.70196" lon="1.49753">
        <ele>1537</ele>
        <time>2023-07-22T13:50:44.000Z</time>
      </trkpt>
      <trkpt lat="42.70199" lon="1.49753">
        <ele>1536.1999511719</ele>
        <time>2023-07-22T13:50:48.000Z</time>
      </trkpt>
      <trkpt lat="42.702" lon="1.49753">
        <ele>1535.8000488281</ele>
        <time>2023-07-22T13:50:50.000Z</time>
      </trkpt>
      <trkpt lat="42.70203" lon="1.49751">
        <ele>1535.1999511719</ele>
        <time>2023-07-22T13:50:53.000Z</time>
      </trkpt>
      <trkpt lat="42.70205" lon="1.4975">
        <ele>1534.1999511719</ele>
        <time>2023-07-22T13:50:57.000Z</time>
      </trkpt>
      <trkpt lat="42.70208" lon="1.49748">
        <ele>1533</ele>
        <time>2023-07-22T13:51:04.000Z</time>
      </trkpt>
      <trkpt lat="42.70211" lon="1.49747">
        <ele>1532</ele>
        <time>2023-07-22T13:51:10.000Z</time>
      </trkpt>
      <trkpt lat="42.70212" lon="1.49748">
        <ele>1532</ele>
        <time>2023-07-22T13:51:11.000Z</time>
      </trkpt>
      <trkpt lat="42.70215" lon="1.49749">
        <ele>1531</ele>
        <time>2023-07-22T13:51:16.000Z</time>
      </trkpt>
      <trkpt lat="42.70216" lon="1.49749">
        <ele>1531</ele>
        <time>2023-07-22T13:51:17.000Z</time>
      </trkpt>
      <trkpt lat="42.70216" lon="1.49753">
        <ele>1529.8000488281</ele>
        <time>2023-07-22T13:51:23.000Z</time>
      </trkpt>
      <trkpt lat="42.7022" lon="1.49756">
        <ele>1529.1999511719</ele>
        <time>2023-07-22T13:51:31.000Z</time>
      </trkpt>
      <trkpt lat="42.70224" lon="1.49756">
        <ele>1528.8000488281</ele>
        <time>2023-07-22T13:51:35.000Z</time>
      </trkpt>
      <trkpt lat="42.70227" lon="1.49754">
        <ele>1528.4000244141</ele>
        <time>2023-07-22T13:51:38.000Z</time>
      </trkpt>
      <trkpt lat="42.70228" lon="1.49756">
        <ele>1527.8000488281</ele>
        <time>2023-07-22T13:51:44.000Z</time>
      </trkpt>
      <trkpt lat="42.70228" lon="1.49757">
        <ele>1527.5999755859</ele>
        <time>2023-07-22T13:51:45.000Z</time>
      </trkpt>
      <trkpt lat="42.7023" lon="1.4976">
        <ele>1527</ele>
        <time>2023-07-22T13:51:51.000Z</time>
      </trkpt>
      <trkpt lat="42.70233" lon="1.49761">
        <ele>1526.4000244141</ele>
        <time>2023-07-22T13:51:54.000Z</time>
      </trkpt>
      <trkpt lat="42.70237" lon="1.4976">
        <ele>1525.8000488281</ele>
        <time>2023-07-22T13:51:59.000Z</time>
      </trkpt>
      <trkpt lat="42.7024" lon="1.49761">
        <ele>1525.1999511719</ele>
        <time>2023-07-22T13:52:03.000Z</time>
      </trkpt>
      <trkpt lat="42.70243" lon="1.49765">
        <ele>1524.8000488281</ele>
        <time>2023-07-22T13:52:07.000Z</time>
      </trkpt>
      <trkpt lat="42.70246" lon="1.49766">
        <ele>1524.1999511719</ele>
        <time>2023-07-22T13:52:12.000Z</time>
      </trkpt>
      <trkpt lat="42.70246" lon="1.49765">
        <ele>1523.8000488281</ele>
        <time>2023-07-22T13:52:13.000Z</time>
      </trkpt>
      <trkpt lat="42.70246" lon="1.49759">
        <ele>1523.4000244141</ele>
        <time>2023-07-22T13:52:17.000Z</time>
      </trkpt>
      <trkpt lat="42.70247" lon="1.49759">
        <ele>1523.1999511719</ele>
        <time>2023-07-22T13:52:19.000Z</time>
      </trkpt>
      <trkpt lat="42.70247" lon="1.49759">
        <ele>1523</ele>
        <time>2023-07-22T13:52:20.000Z</time>
      </trkpt>
      <trkpt lat="42.70251" lon="1.4976">
        <ele>1522</ele>
        <time>2023-07-22T13:52:25.000Z</time>
      </trkpt>
      <trkpt lat="42.70254" lon="1.49761">
        <ele>1521</ele>
        <time>2023-07-22T13:52:29.000Z</time>
      </trkpt>
      <trkpt lat="42.70254" lon="1.4976">
        <ele>1520.1999511719</ele>
        <time>2023-07-22T13:52:33.000Z</time>
      </trkpt>
      <trkpt lat="42.70254" lon="1.49758">
        <ele>1519.8000488281</ele>
        <time>2023-07-22T13:52:35.000Z</time>
      </trkpt>
      <trkpt lat="42.70254" lon="1.49752">
        <ele>1518.5999755859</ele>
        <time>2023-07-22T13:52:40.000Z</time>
      </trkpt>
      <trkpt lat="42.70254" lon="1.49751">
        <ele>1518.4000244141</ele>
        <time>2023-07-22T13:52:41.000Z</time>
      </trkpt>
      <trkpt lat="42.70259" lon="1.49748">
        <ele>1516.4000244141</ele>
        <time>2023-07-22T13:52:51.000Z</time>
      </trkpt>
      <trkpt lat="42.70259" lon="1.49747">
        <ele>1516.1999511719</ele>
        <time>2023-07-22T13:52:52.000Z</time>
      </trkpt>
      <trkpt lat="42.70259" lon="1.49747">
        <ele>1515.8000488281</ele>
        <time>2023-07-22T13:52:54.000Z</time>
      </trkpt>
      <trkpt lat="42.7026" lon="1.49748">
        <ele>1515.1999511719</ele>
        <time>2023-07-22T13:52:56.000Z</time>
      </trkpt>
      <trkpt lat="42.70261" lon="1.49751">
        <ele>1514.5999755859</ele>
        <time>2023-07-22T13:52:58.000Z</time>
      </trkpt>
      <trkpt lat="42.70261" lon="1.49751">
        <ele>1514.5999755859</ele>
        <time>2023-07-22T13:52:59.000Z</time>
      </trkpt>
      <trkpt lat="42.70262" lon="1.49752">
        <ele>1514</ele>
        <time>2023-07-22T13:53:01.000Z</time>
      </trkpt>
      <trkpt lat="42.70265" lon="1.49754">
        <ele>1513.4000244141</ele>
        <time>2023-07-22T13:53:07.000Z</time>
      </trkpt>
      <trkpt lat="42.70266" lon="1.49753">
        <ele>1513</ele>
        <time>2023-07-22T13:53:09.000Z</time>
      </trkpt>
      <trkpt lat="42.70269" lon="1.4975">
        <ele>1510</ele>
        <time>2023-07-22T13:53:27.000Z</time>
      </trkpt>
      <trkpt lat="42.70278" lon="1.49744">
        <ele>1506.4000244141</ele>
        <time>2023-07-22T13:53:45.000Z</time>
      </trkpt>
      <trkpt lat="42.70278" lon="1.49746">
        <ele>1506.1999511719</ele>
        <time>2023-07-22T13:53:46.000Z</time>
      </trkpt>
      <trkpt lat="42.70275" lon="1.49749">
        <ele>1505.5999755859</ele>
        <time>2023-07-22T13:53:55.000Z</time>
      </trkpt>
      <trkpt lat="42.70275" lon="1.49749">
        <ele>1505.5999755859</ele>
        <time>2023-07-22T13:54:04.000Z</time>
      </trkpt>
      <trkpt lat="42.70278" lon="1.49753">
        <ele>1505.5999755859</ele>
        <time>2023-07-22T13:54:13.000Z</time>
      </trkpt>
      <trkpt lat="42.70277" lon="1.49746">
        <ele>1505.8000488281</ele>
        <time>2023-07-22T13:54:26.000Z</time>
      </trkpt>
      <trkpt lat="42.70278" lon="1.49756">
        <ele>1505.4000244141</ele>
        <time>2023-07-22T13:54:37.000Z</time>
      </trkpt>
      <trkpt lat="42.70278" lon="1.49757">
        <ele>1505</ele>
        <time>2023-07-22T13:54:40.000Z</time>
      </trkpt>
      <trkpt lat="42.70279" lon="1.49758">
        <ele>1504.5999755859</ele>
        <time>2023-07-22T13:54:42.000Z</time>
      </trkpt>
      <trkpt lat="42.70281" lon="1.4976">
        <ele>1503.8000488281</ele>
        <time>2023-07-22T13:54:46.000Z</time>
      </trkpt>
      <trkpt lat="42.70284" lon="1.49758">
        <ele>1502.5999755859</ele>
        <time>2023-07-22T13:54:52.000Z</time>
      </trkpt>
      <trkpt lat="42.70287" lon="1.49757">
        <ele>1502.1999511719</ele>
        <time>2023-07-22T13:54:54.000Z</time>
      </trkpt>
      <trkpt lat="42.70291" lon="1.49755">
        <ele>1501.4000244141</ele>
        <time>2023-07-22T13:54:57.000Z</time>
      </trkpt>
      <trkpt lat="42.70296" lon="1.49751">
        <ele>1500.4000244141</ele>
        <time>2023-07-22T13:55:02.000Z</time>
      </trkpt>
      <trkpt lat="42.70303" lon="1.49748">
        <ele>1499.4000244141</ele>
        <time>2023-07-22T13:55:08.000Z</time>
      </trkpt>
      <trkpt lat="42.70304" lon="1.49748">
        <ele>1499.1999511719</ele>
        <time>2023-07-22T13:55:09.000Z</time>
      </trkpt>
      <trkpt lat="42.7031" lon="1.49752">
        <ele>1498.4000244141</ele>
        <time>2023-07-22T13:55:16.000Z</time>
      </trkpt>
      <trkpt lat="42.70313" lon="1.49754">
        <ele>1498.1999511719</ele>
        <time>2023-07-22T13:55:20.000Z</time>
      </trkpt>
      <trkpt lat="42.70316" lon="1.49757">
        <ele>1497.4000244141</ele>
        <time>2023-07-22T13:55:24.000Z</time>
      </trkpt>
      <trkpt lat="42.70317" lon="1.49758">
        <ele>1497</ele>
        <time>2023-07-22T13:55:26.000Z</time>
      </trkpt>
      <trkpt lat="42.7032" lon="1.49759">
        <ele>1496.5999755859</ele>
        <time>2023-07-22T13:55:32.000Z</time>
      </trkpt>
      <trkpt lat="42.70322" lon="1.49757">
        <ele>1496</ele>
        <time>2023-07-22T13:55:35.000Z</time>
      </trkpt>
      <trkpt lat="42.70325" lon="1.49758">
        <ele>1495.4000244141</ele>
        <time>2023-07-22T13:55:39.000Z</time>
      </trkpt>
      <trkpt lat="42.70326" lon="1.49761">
        <ele>1494.5999755859</ele>
        <time>2023-07-22T13:55:41.000Z</time>
      </trkpt>
      <trkpt lat="42.70329" lon="1.49764">
        <ele>1494</ele>
        <time>2023-07-22T13:55:45.000Z</time>
      </trkpt>
      <trkpt lat="42.70331" lon="1.49765">
        <ele>1493.4000244141</ele>
        <time>2023-07-22T13:55:48.000Z</time>
      </trkpt>
      <trkpt lat="42.70332" lon="1.49765">
        <ele>1493</ele>
        <time>2023-07-22T13:55:50.000Z</time>
      </trkpt>
      <trkpt lat="42.70335" lon="1.49766">
        <ele>1492.4000244141</ele>
        <time>2023-07-22T13:55:53.000Z</time>
      </trkpt>
      <trkpt lat="42.70337" lon="1.49764">
        <ele>1491.5999755859</ele>
        <time>2023-07-22T13:55:57.000Z</time>
      </trkpt>
      <trkpt lat="42.70338" lon="1.49763">
        <ele>1491.4000244141</ele>
        <time>2023-07-22T13:55:58.000Z</time>
      </trkpt>
      <trkpt lat="42.70344" lon="1.49758">
        <ele>1490.1999511719</ele>
        <time>2023-07-22T13:56:03.000Z</time>
      </trkpt>
      <trkpt lat="42.70347" lon="1.49755">
        <ele>1489.1999511719</ele>
        <time>2023-07-22T13:56:07.000Z</time>
      </trkpt>
      <trkpt lat="42.7035" lon="1.49753">
        <ele>1488.5999755859</ele>
        <time>2023-07-22T13:56:10.000Z</time>
      </trkpt>
      <trkpt lat="42.70351" lon="1.49752">
        <ele>1488</ele>
        <time>2023-07-22T13:56:13.000Z</time>
      </trkpt>
      <trkpt lat="42.70354" lon="1.49752">
        <ele>1486.8000488281</ele>
        <time>2023-07-22T13:56:17.000Z</time>
      </trkpt>
      <trkpt lat="42.70355" lon="1.49752">
        <ele>1486.1999511719</ele>
        <time>2023-07-22T13:56:19.000Z</time>
      </trkpt>
      <trkpt lat="42.70357" lon="1.49752">
        <ele>1485.5999755859</ele>
        <time>2023-07-22T13:56:21.000Z</time>
      </trkpt>
      <trkpt lat="42.70361" lon="1.49751">
        <ele>1484.5999755859</ele>
        <time>2023-07-22T13:56:25.000Z</time>
      </trkpt>
      <trkpt lat="42.70363" lon="1.49749">
        <ele>1484.1999511719</ele>
        <time>2023-07-22T13:56:27.000Z</time>
      </trkpt>
      <trkpt lat="42.70365" lon="1.49748">
        <ele>1483.1999511719</ele>
        <time>2023-07-22T13:56:30.000Z</time>
      </trkpt>
      <trkpt lat="42.70368" lon="1.49746">
        <ele>1482.5999755859</ele>
        <time>2023-07-22T13:56:33.000Z</time>
      </trkpt>
      <trkpt lat="42.70369" lon="1.49745">
        <ele>1482.1999511719</ele>
        <time>2023-07-22T13:56:34.000Z</time>
      </trkpt>
      <trkpt lat="42.70374" lon="1.49743">
        <ele>1481</ele>
        <time>2023-07-22T13:56:38.000Z</time>
      </trkpt>
      <trkpt lat="42.70376" lon="1.49743">
        <ele>1479.8000488281</ele>
        <time>2023-07-22T13:56:41.000Z</time>
      </trkpt>
      <trkpt lat="42.70379" lon="1.49743">
        <ele>1478.5999755859</ele>
        <time>2023-07-22T13:56:46.000Z</time>
      </trkpt>
      <trkpt lat="42.70382" lon="1.49738">
        <ele>1477.8000488281</ele>
        <time>2023-07-22T13:56:50.000Z</time>
      </trkpt>
      <trkpt lat="42.70384" lon="1.49734">
        <ele>1477.4000244141</ele>
        <time>2023-07-22T13:56:53.000Z</time>
      </trkpt>
      <trkpt lat="42.70386" lon="1.49728">
        <ele>1476.4000244141</ele>
        <time>2023-07-22T13:56:57.000Z</time>
      </trkpt>
      <trkpt lat="42.7039" lon="1.4972">
        <ele>1475.1999511719</ele>
        <time>2023-07-22T13:57:04.000Z</time>
      </trkpt>
      <trkpt lat="42.70392" lon="1.49716">
        <ele>1474.1999511719</ele>
        <time>2023-07-22T13:57:08.000Z</time>
      </trkpt>
      <trkpt lat="42.70393" lon="1.49714">
        <ele>1474</ele>
        <time>2023-07-22T13:57:09.000Z</time>
      </trkpt>
      <trkpt lat="42.70395" lon="1.49709">
        <ele>1472.8000488281</ele>
        <time>2023-07-22T13:57:15.000Z</time>
      </trkpt>
      <trkpt lat="42.70402" lon="1.49708">
        <ele>1471.5999755859</ele>
        <time>2023-07-22T13:57:21.000Z</time>
      </trkpt>
      <trkpt lat="42.70404" lon="1.49708">
        <ele>1471.1999511719</ele>
        <time>2023-07-22T13:57:22.000Z</time>
      </trkpt>
      <trkpt lat="42.70406" lon="1.4971">
        <ele>1470.5999755859</ele>
        <time>2023-07-22T13:57:24.000Z</time>
      </trkpt>
      <trkpt lat="42.70409" lon="1.49714">
        <ele>1469.5999755859</ele>
        <time>2023-07-22T13:57:29.000Z</time>
      </trkpt>
      <trkpt lat="42.70409" lon="1.49716">
        <ele>1469.4000244141</ele>
        <time>2023-07-22T13:57:35.000Z</time>
      </trkpt>
      <trkpt lat="42.70409" lon="1.49716">
        <ele>1469.4000244141</ele>
        <time>2023-07-22T13:57:36.000Z</time>
      </trkpt>
      <trkpt lat="42.70408" lon="1.49719">
        <ele>1469.1999511719</ele>
        <time>2023-07-22T13:57:45.000Z</time>
      </trkpt>
      <trkpt lat="42.70406" lon="1.49715">
        <ele>1469.1999511719</ele>
        <time>2023-07-22T13:57:52.000Z</time>
      </trkpt>
      <trkpt lat="42.70409" lon="1.49711">
        <ele>1469.4000244141</ele>
        <time>2023-07-22T13:58:03.000Z</time>
      </trkpt>
      <trkpt lat="42.7041" lon="1.49709">
        <ele>1469.1999511719</ele>
        <time>2023-07-22T13:58:11.000Z</time>
      </trkpt>
      <trkpt lat="42.7041" lon="1.4971">
        <ele>1469.1999511719</ele>
        <time>2023-07-22T13:58:20.000Z</time>
      </trkpt>
      <trkpt lat="42.70411" lon="1.49715">
        <ele>1469.4000244141</ele>
        <time>2023-07-22T13:58:30.000Z</time>
      </trkpt>
      <trkpt lat="42.70414" lon="1.49717">
        <ele>1469.5999755859</ele>
        <time>2023-07-22T13:58:40.000Z</time>
      </trkpt>
      <trkpt lat="42.70418" lon="1.49714">
        <ele>1468.8000488281</ele>
        <time>2023-07-22T13:58:46.000Z</time>
      </trkpt>
      <trkpt lat="42.7042" lon="1.49712">
        <ele>1468.4000244141</ele>
        <time>2023-07-22T13:58:48.000Z</time>
      </trkpt>
      <trkpt lat="42.70423" lon="1.49708">
        <ele>1467.4000244141</ele>
        <time>2023-07-22T13:58:52.000Z</time>
      </trkpt>
      <trkpt lat="42.70423" lon="1.49708">
        <ele>1467.1999511719</ele>
        <time>2023-07-22T13:58:53.000Z</time>
      </trkpt>
      <trkpt lat="42.70425" lon="1.49707">
        <ele>1466.4000244141</ele>
        <time>2023-07-22T13:58:55.000Z</time>
      </trkpt>
      <trkpt lat="42.70425" lon="1.49707">
        <ele>1466.1999511719</ele>
        <time>2023-07-22T13:58:56.000Z</time>
      </trkpt>
      <trkpt lat="42.70428" lon="1.49705">
        <ele>1465.4000244141</ele>
        <time>2023-07-22T13:58:59.000Z</time>
      </trkpt>
      <trkpt lat="42.70429" lon="1.49704">
        <ele>1465</ele>
        <time>2023-07-22T13:59:01.000Z</time>
      </trkpt>
      <trkpt lat="42.70429" lon="1.49704">
        <ele>1463.8000488281</ele>
        <time>2023-07-22T13:59:04.000Z</time>
      </trkpt>
      <trkpt lat="42.70429" lon="1.49703">
        <ele>1463.5999755859</ele>
        <time>2023-07-22T13:59:05.000Z</time>
      </trkpt>
      <trkpt lat="42.70429" lon="1.49701">
        <ele>1463.5999755859</ele>
        <time>2023-07-22T13:59:15.000Z</time>
      </trkpt>
      <trkpt lat="42.7043" lon="1.49699">
        <ele>1463.8000488281</ele>
        <time>2023-07-22T13:59:25.000Z</time>
      </trkpt>
      <trkpt lat="42.70437" lon="1.49701">
        <ele>1462.8000488281</ele>
        <time>2023-07-22T13:59:32.000Z</time>
      </trkpt>
      <trkpt lat="42.70438" lon="1.49701">
        <ele>1462.8000488281</ele>
        <time>2023-07-22T13:59:33.000Z</time>
      </trkpt>
      <trkpt lat="42.70442" lon="1.49698">
        <ele>1461.1999511719</ele>
        <time>2023-07-22T13:59:40.000Z</time>
      </trkpt>
      <trkpt lat="42.70447" lon="1.49697">
        <ele>1460</ele>
        <time>2023-07-22T13:59:44.000Z</time>
      </trkpt>
      <trkpt lat="42.70451" lon="1.49699">
        <ele>1458.8000488281</ele>
        <time>2023-07-22T13:59:49.000Z</time>
      </trkpt>
      <trkpt lat="42.70451" lon="1.49699">
        <ele>1457.5999755859</ele>
        <time>2023-07-22T13:59:53.000Z</time>
      </trkpt>
      <trkpt lat="42.70453" lon="1.49697">
        <ele>1456.8000488281</ele>
        <time>2023-07-22T13:59:58.000Z</time>
      </trkpt>
      <trkpt lat="42.70454" lon="1.49697">
        <ele>1456.5999755859</ele>
        <time>2023-07-22T13:59:59.000Z</time>
      </trkpt>
      <trkpt lat="42.70458" lon="1.49695">
        <ele>1455.4000244141</ele>
        <time>2023-07-22T14:00:04.000Z</time>
      </trkpt>
      <trkpt lat="42.70458" lon="1.49696">
        <ele>1454.8000488281</ele>
        <time>2023-07-22T14:00:07.000Z</time>
      </trkpt>
      <trkpt lat="42.70459" lon="1.49696">
        <ele>1454.1999511719</ele>
        <time>2023-07-22T14:00:10.000Z</time>
      </trkpt>
      <trkpt lat="42.70462" lon="1.49695">
        <ele>1453.1999511719</ele>
        <time>2023-07-22T14:00:15.000Z</time>
      </trkpt>
      <trkpt lat="42.70463" lon="1.49694">
        <ele>1453</ele>
        <time>2023-07-22T14:00:16.000Z</time>
      </trkpt>
      <trkpt lat="42.70466" lon="1.49692">
        <ele>1452</ele>
        <time>2023-07-22T14:00:22.000Z</time>
      </trkpt>
      <trkpt lat="42.70467" lon="1.49691">
        <ele>1451.8000488281</ele>
        <time>2023-07-22T14:00:24.000Z</time>
      </trkpt>
      <trkpt lat="42.70467" lon="1.4969">
        <ele>1450.8000488281</ele>
        <time>2023-07-22T14:00:29.000Z</time>
      </trkpt>
      <trkpt lat="42.7047" lon="1.49686">
        <ele>1450</ele>
        <time>2023-07-22T14:00:33.000Z</time>
      </trkpt>
      <trkpt lat="42.7047" lon="1.49685">
        <ele>1449.8000488281</ele>
        <time>2023-07-22T14:00:34.000Z</time>
      </trkpt>
      <trkpt lat="42.70471" lon="1.4968">
        <ele>1448.8000488281</ele>
        <time>2023-07-22T14:00:40.000Z</time>
      </trkpt>
      <trkpt lat="42.70472" lon="1.49679">
        <ele>1448.5999755859</ele>
        <time>2023-07-22T14:00:41.000Z</time>
      </trkpt>
      <trkpt lat="42.70476" lon="1.49677">
        <ele>1447.5999755859</ele>
        <time>2023-07-22T14:00:46.000Z</time>
      </trkpt>
      <trkpt lat="42.70476" lon="1.49676">
        <ele>1447.4000244141</ele>
        <time>2023-07-22T14:00:47.000Z</time>
      </trkpt>
      <trkpt lat="42.7048" lon="1.49676">
        <ele>1446.1999511719</ele>
        <time>2023-07-22T14:00:52.000Z</time>
      </trkpt>
      <trkpt lat="42.70481" lon="1.49675">
        <ele>1446</ele>
        <time>2023-07-22T14:00:53.000Z</time>
      </trkpt>
      <trkpt lat="42.70486" lon="1.49669">
        <ele>1445.1999511719</ele>
        <time>2023-07-22T14:01:00.000Z</time>
      </trkpt>
      <trkpt lat="42.70487" lon="1.49665">
        <ele>1444</ele>
        <time>2023-07-22T14:01:05.000Z</time>
      </trkpt>
      <trkpt lat="42.70488" lon="1.49664">
        <ele>1443.5999755859</ele>
        <time>2023-07-22T14:01:07.000Z</time>
      </trkpt>
      <trkpt lat="42.7049" lon="1.49661">
        <ele>1443</ele>
        <time>2023-07-22T14:01:10.000Z</time>
      </trkpt>
      <trkpt lat="42.70494" lon="1.49656">
        <ele>1442</ele>
        <time>2023-07-22T14:01:15.000Z</time>
      </trkpt>
      <trkpt lat="42.70495" lon="1.49654">
        <ele>1441.5999755859</ele>
        <time>2023-07-22T14:01:16.000Z</time>
      </trkpt>
      <trkpt lat="42.70499" lon="1.4965">
        <ele>1441</ele>
        <time>2023-07-22T14:01:20.000Z</time>
      </trkpt>
      <trkpt lat="42.70502" lon="1.49652">
        <ele>1440.1999511719</ele>
        <time>2023-07-22T14:01:23.000Z</time>
      </trkpt>
      <trkpt lat="42.70503" lon="1.49653">
        <ele>1440</ele>
        <time>2023-07-22T14:01:24.000Z</time>
      </trkpt>
      <trkpt lat="42.70504" lon="1.49652">
        <ele>1439.8000488281</ele>
        <time>2023-07-22T14:01:25.000Z</time>
      </trkpt>
      <trkpt lat="42.70511" lon="1.49648">
        <ele>1438.8000488281</ele>
        <time>2023-07-22T14:01:31.000Z</time>
      </trkpt>
      <trkpt lat="42.70512" lon="1.49647">
        <ele>1438.5999755859</ele>
        <time>2023-07-22T14:01:32.000Z</time>
      </trkpt>
      <trkpt lat="42.70518" lon="1.49645">
        <ele>1437.4000244141</ele>
        <time>2023-07-22T14:01:38.000Z</time>
      </trkpt>
      <trkpt lat="42.70524" lon="1.49642">
        <ele>1436.5999755859</ele>
        <time>2023-07-22T14:01:46.000Z</time>
      </trkpt>
      <trkpt lat="42.70525" lon="1.4964">
        <ele>1436.4000244141</ele>
        <time>2023-07-22T14:01:47.000Z</time>
      </trkpt>
      <trkpt lat="42.70528" lon="1.49639">
        <ele>1435.1999511719</ele>
        <time>2023-07-22T14:01:52.000Z</time>
      </trkpt>
      <trkpt lat="42.70534" lon="1.49636">
        <ele>1434.1999511719</ele>
        <time>2023-07-22T14:01:57.000Z</time>
      </trkpt>
      <trkpt lat="42.70535" lon="1.49636">
        <ele>1434</ele>
        <time>2023-07-22T14:01:58.000Z</time>
      </trkpt>
      <trkpt lat="42.70535" lon="1.49635">
        <ele>1433</ele>
        <time>2023-07-22T14:02:03.000Z</time>
      </trkpt>
      <trkpt lat="42.70537" lon="1.49634">
        <ele>1432.1999511719</ele>
        <time>2023-07-22T14:02:06.000Z</time>
      </trkpt>
      <trkpt lat="42.70539" lon="1.49632">
        <ele>1431.5999755859</ele>
        <time>2023-07-22T14:02:08.000Z</time>
      </trkpt>
      <trkpt lat="42.70542" lon="1.4963">
        <ele>1430.5999755859</ele>
        <time>2023-07-22T14:02:12.000Z</time>
      </trkpt>
      <trkpt lat="42.70544" lon="1.4963">
        <ele>1430.5999755859</ele>
        <time>2023-07-22T14:02:13.000Z</time>
      </trkpt>
      <trkpt lat="42.70549" lon="1.49628">
        <ele>1429.4000244141</ele>
        <time>2023-07-22T14:02:18.000Z</time>
      </trkpt>
      <trkpt lat="42.70549" lon="1.49628">
        <ele>1429.1999511719</ele>
        <time>2023-07-22T14:02:19.000Z</time>
      </trkpt>
      <trkpt lat="42.70554" lon="1.49627">
        <ele>1428.4000244141</ele>
        <time>2023-07-22T14:02:23.000Z</time>
      </trkpt>
      <trkpt lat="42.70558" lon="1.49627">
        <ele>1427.4000244141</ele>
        <time>2023-07-22T14:02:28.000Z</time>
      </trkpt>
      <trkpt lat="42.70559" lon="1.49627">
        <ele>1427.1999511719</ele>
        <time>2023-07-22T14:02:29.000Z</time>
      </trkpt>
      <trkpt lat="42.70566" lon="1.49625">
        <ele>1426.1999511719</ele>
        <time>2023-07-22T14:02:35.000Z</time>
      </trkpt>
      <trkpt lat="42.70567" lon="1.49625">
        <ele>1426</ele>
        <time>2023-07-22T14:02:36.000Z</time>
      </trkpt>
      <trkpt lat="42.70569" lon="1.49623">
        <ele>1425</ele>
        <time>2023-07-22T14:02:40.000Z</time>
      </trkpt>
      <trkpt lat="42.70571" lon="1.49622">
        <ele>1424.5999755859</ele>
        <time>2023-07-22T14:02:43.000Z</time>
      </trkpt>
      <trkpt lat="42.70573" lon="1.49621">
        <ele>1424</ele>
        <time>2023-07-22T14:02:45.000Z</time>
      </trkpt>
      <trkpt lat="42.7058" lon="1.49618">
        <ele>1423</ele>
        <time>2023-07-22T14:02:50.000Z</time>
      </trkpt>
      <trkpt lat="42.70588" lon="1.49615">
        <ele>1421.8000488281</ele>
        <time>2023-07-22T14:02:56.000Z</time>
      </trkpt>
      <trkpt lat="42.70591" lon="1.49614">
        <ele>1421.4000244141</ele>
        <time>2023-07-22T14:02:59.000Z</time>
      </trkpt>
      <trkpt lat="42.70594" lon="1.49612">
        <ele>1420.8000488281</ele>
        <time>2023-07-22T14:03:02.000Z</time>
      </trkpt>
      <trkpt lat="42.70596" lon="1.49609">
        <ele>1420</ele>
        <time>2023-07-22T14:03:06.000Z</time>
      </trkpt>
      <trkpt lat="42.70598" lon="1.49608">
        <ele>1419.5999755859</ele>
        <time>2023-07-22T14:03:08.000Z</time>
      </trkpt>
      <trkpt lat="42.70603" lon="1.49607">
        <ele>1418.5999755859</ele>
        <time>2023-07-22T14:03:13.000Z</time>
      </trkpt>
      <trkpt lat="42.70604" lon="1.49606">
        <ele>1418.4000244141</ele>
        <time>2023-07-22T14:03:14.000Z</time>
      </trkpt>
      <trkpt lat="42.70607" lon="1.49604">
        <ele>1417.5999755859</ele>
        <time>2023-07-22T14:03:18.000Z</time>
      </trkpt>
      <trkpt lat="42.70608" lon="1.49605">
        <ele>1416.5999755859</ele>
        <time>2023-07-22T14:03:21.000Z</time>
      </trkpt>
      <trkpt lat="42.70608" lon="1.49606">
        <ele>1416.4000244141</ele>
        <time>2023-07-22T14:03:22.000Z</time>
      </trkpt>
      <trkpt lat="42.70611" lon="1.49607">
        <ele>1415.4000244141</ele>
        <time>2023-07-22T14:03:26.000Z</time>
      </trkpt>
      <trkpt lat="42.70612" lon="1.49607">
        <ele>1415.1999511719</ele>
        <time>2023-07-22T14:03:27.000Z</time>
      </trkpt>
      <trkpt lat="42.70612" lon="1.49606">
        <ele>1415</ele>
        <time>2023-07-22T14:03:28.000Z</time>
      </trkpt>
      <trkpt lat="42.70612" lon="1.49606">
        <ele>1414.8000488281</ele>
        <time>2023-07-22T14:03:29.000Z</time>
      </trkpt>
      <trkpt lat="42.70615" lon="1.49605">
        <ele>1414</ele>
        <time>2023-07-22T14:03:33.000Z</time>
      </trkpt>
      <trkpt lat="42.70617" lon="1.49606">
        <ele>1413.5999755859</ele>
        <time>2023-07-22T14:03:36.000Z</time>
      </trkpt>
      <trkpt lat="42.7062" lon="1.49607">
        <ele>1413</ele>
        <time>2023-07-22T14:03:40.000Z</time>
      </trkpt>
      <trkpt lat="42.70623" lon="1.49606">
        <ele>1412</ele>
        <time>2023-07-22T14:03:45.000Z</time>
      </trkpt>
      <trkpt lat="42.70624" lon="1.49605">
        <ele>1411.8000488281</ele>
        <time>2023-07-22T14:03:46.000Z</time>
      </trkpt>
      <trkpt lat="42.7063" lon="1.49592">
        <ele>1410</ele>
        <time>2023-07-22T14:03:57.000Z</time>
      </trkpt>
      <trkpt lat="42.70631" lon="1.49588">
        <ele>1409.5999755859</ele>
        <time>2023-07-22T14:03:59.000Z</time>
      </trkpt>
      <trkpt lat="42.70632" lon="1.49585">
        <ele>1408.8000488281</ele>
        <time>2023-07-22T14:04:04.000Z</time>
      </trkpt>
      <trkpt lat="42.70632" lon="1.49585">
        <ele>1408.5999755859</ele>
        <time>2023-07-22T14:04:05.000Z</time>
      </trkpt>
      <trkpt lat="42.70634" lon="1.49581">
        <ele>1407.4000244141</ele>
        <time>2023-07-22T14:04:09.000Z</time>
      </trkpt>
      <trkpt lat="42.70635" lon="1.4958">
        <ele>1407</ele>
        <time>2023-07-22T14:04:11.000Z</time>
      </trkpt>
      <trkpt lat="42.70637" lon="1.4958">
        <ele>1406.1999511719</ele>
        <time>2023-07-22T14:04:14.000Z</time>
      </trkpt>
      <trkpt lat="42.70637" lon="1.49581">
        <ele>1406</ele>
        <time>2023-07-22T14:04:15.000Z</time>
      </trkpt>
      <trkpt lat="42.70637" lon="1.49585">
        <ele>1405</ele>
        <time>2023-07-22T14:04:18.000Z</time>
      </trkpt>
      <trkpt lat="42.70641" lon="1.49591">
        <ele>1404.1999511719</ele>
        <time>2023-07-22T14:04:23.000Z</time>
      </trkpt>
      <trkpt lat="42.70645" lon="1.4959">
        <ele>1404.1999511719</ele>
        <time>2023-07-22T14:04:25.000Z</time>
      </trkpt>
      <trkpt lat="42.7065" lon="1.49589">
        <ele>1404</ele>
        <time>2023-07-22T14:04:30.000Z</time>
      </trkpt>
      <trkpt lat="42.7065" lon="1.49589">
        <ele>1403.8000488281</ele>
        <time>2023-07-22T14:04:31.000Z</time>
      </trkpt>
      <trkpt lat="42.70651" lon="1.49585">
        <ele>1402.8000488281</ele>
        <time>2023-07-22T14:04:37.000Z</time>
      </trkpt>
      <trkpt lat="42.70654" lon="1.4958">
        <ele>1401.5999755859</ele>
        <time>2023-07-22T14:04:45.000Z</time>
      </trkpt>
      <trkpt lat="42.70655" lon="1.49578">
        <ele>1401.4000244141</ele>
        <time>2023-07-22T14:04:47.000Z</time>
      </trkpt>
      <trkpt lat="42.70656" lon="1.49578">
        <ele>1400.5999755859</ele>
        <time>2023-07-22T14:04:52.000Z</time>
      </trkpt>
      <trkpt lat="42.70658" lon="1.49578">
        <ele>1400</ele>
        <time>2023-07-22T14:04:55.000Z</time>
      </trkpt>
      <trkpt lat="42.7066" lon="1.49576">
        <ele>1399.5999755859</ele>
        <time>2023-07-22T14:04:58.000Z</time>
      </trkpt>
      <trkpt lat="42.70663" lon="1.49574">
        <ele>1399</ele>
        <time>2023-07-22T14:05:01.000Z</time>
      </trkpt>
      <trkpt lat="42.70662" lon="1.49571">
        <ele>1398.5999755859</ele>
        <time>2023-07-22T14:05:06.000Z</time>
      </trkpt>
      <trkpt lat="42.70662" lon="1.4957">
        <ele>1398.1999511719</ele>
        <time>2023-07-22T14:05:07.000Z</time>
      </trkpt>
      <trkpt lat="42.70665" lon="1.49566">
        <ele>1397.4000244141</ele>
        <time>2023-07-22T14:05:14.000Z</time>
      </trkpt>
      <trkpt lat="42.70665" lon="1.49565">
        <ele>1397.4000244141</ele>
        <time>2023-07-22T14:05:15.000Z</time>
      </trkpt>
      <trkpt lat="42.70668" lon="1.49561">
        <ele>1396.1999511719</ele>
        <time>2023-07-22T14:05:20.000Z</time>
      </trkpt>
      <trkpt lat="42.70668" lon="1.4956">
        <ele>1395.4000244141</ele>
        <time>2023-07-22T14:05:23.000Z</time>
      </trkpt>
      <trkpt lat="42.70669" lon="1.49559">
        <ele>1395</ele>
        <time>2023-07-22T14:05:25.000Z</time>
      </trkpt>
      <trkpt lat="42.70672" lon="1.49558">
        <ele>1393.8000488281</ele>
        <time>2023-07-22T14:05:29.000Z</time>
      </trkpt>
      <trkpt lat="42.70675" lon="1.49556">
        <ele>1393.5999755859</ele>
        <time>2023-07-22T14:05:31.000Z</time>
      </trkpt>
      <trkpt lat="42.70679" lon="1.49554">
        <ele>1392.5999755859</ele>
        <time>2023-07-22T14:05:35.000Z</time>
      </trkpt>
      <trkpt lat="42.70682" lon="1.49552">
        <ele>1391.8000488281</ele>
        <time>2023-07-22T14:05:39.000Z</time>
      </trkpt>
      <trkpt lat="42.70682" lon="1.49551">
        <ele>1391.5999755859</ele>
        <time>2023-07-22T14:05:40.000Z</time>
      </trkpt>
      <trkpt lat="42.70684" lon="1.49548">
        <ele>1390.4000244141</ele>
        <time>2023-07-22T14:05:44.000Z</time>
      </trkpt>
      <trkpt lat="42.70687" lon="1.49542">
        <ele>1389.4000244141</ele>
        <time>2023-07-22T14:05:48.000Z</time>
      </trkpt>
      <trkpt lat="42.70691" lon="1.49539">
        <ele>1388.1999511719</ele>
        <time>2023-07-22T14:05:53.000Z</time>
      </trkpt>
      <trkpt lat="42.70692" lon="1.49538">
        <ele>1387.5999755859</ele>
        <time>2023-07-22T14:05:55.000Z</time>
      </trkpt>
      <trkpt lat="42.70693" lon="1.49534">
        <ele>1387</ele>
        <time>2023-07-22T14:05:59.000Z</time>
      </trkpt>
      <trkpt lat="42.70695" lon="1.49531">
        <ele>1386.1999511719</ele>
        <time>2023-07-22T14:06:02.000Z</time>
      </trkpt>
      <trkpt lat="42.70697" lon="1.4953">
        <ele>1385.8000488281</ele>
        <time>2023-07-22T14:06:04.000Z</time>
      </trkpt>
      <trkpt lat="42.70705" lon="1.49527">
        <ele>1385.4000244141</ele>
        <time>2023-07-22T14:06:10.000Z</time>
      </trkpt>
      <trkpt lat="42.70711" lon="1.49523">
        <ele>1384.8000488281</ele>
        <time>2023-07-22T14:06:14.000Z</time>
      </trkpt>
      <trkpt lat="42.70713" lon="1.49521">
        <ele>1384.5999755859</ele>
        <time>2023-07-22T14:06:17.000Z</time>
      </trkpt>
      <trkpt lat="42.70716" lon="1.49526">
        <ele>1384.5999755859</ele>
        <time>2023-07-22T14:06:25.000Z</time>
      </trkpt>
      <trkpt lat="42.70723" lon="1.49517">
        <ele>1384.1999511719</ele>
        <time>2023-07-22T14:06:33.000Z</time>
      </trkpt>
      <trkpt lat="42.70724" lon="1.49514">
        <ele>1383.8000488281</ele>
        <time>2023-07-22T14:06:35.000Z</time>
      </trkpt>
      <trkpt lat="42.7073" lon="1.49508">
        <ele>1383</ele>
        <time>2023-07-22T14:06:40.000Z</time>
      </trkpt>
      <trkpt lat="42.70731" lon="1.49508">
        <ele>1382.5999755859</ele>
        <time>2023-07-22T14:06:41.000Z</time>
      </trkpt>
      <trkpt lat="42.70735" lon="1.49509">
        <ele>1382</ele>
        <time>2023-07-22T14:06:46.000Z</time>
      </trkpt>
      <trkpt lat="42.70735" lon="1.49509">
        <ele>1381.4000244141</ele>
        <time>2023-07-22T14:06:49.000Z</time>
      </trkpt>
      <trkpt lat="42.70737" lon="1.49509">
        <ele>1381.1999511719</ele>
        <time>2023-07-22T14:06:52.000Z</time>
      </trkpt>
      <trkpt lat="42.70746" lon="1.49506">
        <ele>1380.4000244141</ele>
        <time>2023-07-22T14:06:59.000Z</time>
      </trkpt>
      <trkpt lat="42.70749" lon="1.49501">
        <ele>1379.4000244141</ele>
        <time>2023-07-22T14:07:05.000Z</time>
      </trkpt>
      <trkpt lat="42.7075" lon="1.495">
        <ele>1379.1999511719</ele>
        <time>2023-07-22T14:07:06.000Z</time>
      </trkpt>
      <trkpt lat="42.70752" lon="1.49494">
        <ele>1377.8000488281</ele>
        <time>2023-07-22T14:07:11.000Z</time>
      </trkpt>
      <trkpt lat="42.70757" lon="1.49487">
        <ele>1376.8000488281</ele>
        <time>2023-07-22T14:07:16.000Z</time>
      </trkpt>
      <trkpt lat="42.70758" lon="1.49485">
        <ele>1375.5999755859</ele>
        <time>2023-07-22T14:07:19.000Z</time>
      </trkpt>
      <trkpt lat="42.70759" lon="1.49484">
        <ele>1375.1999511719</ele>
        <time>2023-07-22T14:07:20.000Z</time>
      </trkpt>
      <trkpt lat="42.70762" lon="1.49481">
        <ele>1374.4000244141</ele>
        <time>2023-07-22T14:07:24.000Z</time>
      </trkpt>
      <trkpt lat="42.70765" lon="1.49478">
        <ele>1373.5999755859</ele>
        <time>2023-07-22T14:07:27.000Z</time>
      </trkpt>
      <trkpt lat="42.70767" lon="1.49475">
        <ele>1373.1999511719</ele>
        <time>2023-07-22T14:07:29.000Z</time>
      </trkpt>
      <trkpt lat="42.70769" lon="1.49472">
        <ele>1372.1999511719</ele>
        <time>2023-07-22T14:07:32.000Z</time>
      </trkpt>
      <trkpt lat="42.70771" lon="1.4947">
        <ele>1371.4000244141</ele>
        <time>2023-07-22T14:07:34.000Z</time>
      </trkpt>
      <trkpt lat="42.70772" lon="1.49469">
        <ele>1371.1999511719</ele>
        <time>2023-07-22T14:07:35.000Z</time>
      </trkpt>
      <trkpt lat="42.70777" lon="1.49464">
        <ele>1369.8000488281</ele>
        <time>2023-07-22T14:07:40.000Z</time>
      </trkpt>
      <trkpt lat="42.70777" lon="1.49463">
        <ele>1369.4000244141</ele>
        <time>2023-07-22T14:07:41.000Z</time>
      </trkpt>
      <trkpt lat="42.7078" lon="1.49462">
        <ele>1368.8000488281</ele>
        <time>2023-07-22T14:07:45.000Z</time>
      </trkpt>
      <trkpt lat="42.70781" lon="1.49462">
        <ele>1368.4000244141</ele>
        <time>2023-07-22T14:07:47.000Z</time>
      </trkpt>
      <trkpt lat="42.70783" lon="1.49463">
        <ele>1367.5999755859</ele>
        <time>2023-07-22T14:07:50.000Z</time>
      </trkpt>
      <trkpt lat="42.70786" lon="1.49465">
        <ele>1367</ele>
        <time>2023-07-22T14:07:53.000Z</time>
      </trkpt>
      <trkpt lat="42.70792" lon="1.49466">
        <ele>1366.5999755859</ele>
        <time>2023-07-22T14:07:56.000Z</time>
      </trkpt>
      <trkpt lat="42.70797" lon="1.49466">
        <ele>1365.8000488281</ele>
        <time>2023-07-22T14:07:59.000Z</time>
      </trkpt>
      <trkpt lat="42.70799" lon="1.49465">
        <ele>1365.4000244141</ele>
        <time>2023-07-22T14:08:01.000Z</time>
      </trkpt>
      <trkpt lat="42.70804" lon="1.49464">
        <ele>1364.1999511719</ele>
        <time>2023-07-22T14:08:07.000Z</time>
      </trkpt>
      <trkpt lat="42.70807" lon="1.49464">
        <ele>1363.1999511719</ele>
        <time>2023-07-22T14:08:11.000Z</time>
      </trkpt>
      <trkpt lat="42.70807" lon="1.49464">
        <ele>1363</ele>
        <time>2023-07-22T14:08:12.000Z</time>
      </trkpt>
      <trkpt lat="42.70811" lon="1.49463">
        <ele>1362</ele>
        <time>2023-07-22T14:08:16.000Z</time>
      </trkpt>
      <trkpt lat="42.70813" lon="1.49463">
        <ele>1361.8000488281</ele>
        <time>2023-07-22T14:08:18.000Z</time>
      </trkpt>
      <trkpt lat="42.70822" lon="1.49462">
        <ele>1359.5999755859</ele>
        <time>2023-07-22T14:08:27.000Z</time>
      </trkpt>
      <trkpt lat="42.7083" lon="1.49465">
        <ele>1358.1999511719</ele>
        <time>2023-07-22T14:08:34.000Z</time>
      </trkpt>
      <trkpt lat="42.70841" lon="1.49468">
        <ele>1355.8000488281</ele>
        <time>2023-07-22T14:08:43.000Z</time>
      </trkpt>
      <trkpt lat="42.70842" lon="1.49468">
        <ele>1355.1999511719</ele>
        <time>2023-07-22T14:08:46.000Z</time>
      </trkpt>
      <trkpt lat="42.70843" lon="1.49468">
        <ele>1354.8000488281</ele>
        <time>2023-07-22T14:08:48.000Z</time>
      </trkpt>
      <trkpt lat="42.70851" lon="1.49467">
        <ele>1352.8000488281</ele>
        <time>2023-07-22T14:08:57.000Z</time>
      </trkpt>
      <trkpt lat="42.70856" lon="1.49465">
        <ele>1352.1999511719</ele>
        <time>2023-07-22T14:09:00.000Z</time>
      </trkpt>
      <trkpt lat="42.70859" lon="1.49465">
        <ele>1351.5999755859</ele>
        <time>2023-07-22T14:09:02.000Z</time>
      </trkpt>
      <trkpt lat="42.70863" lon="1.49468">
        <ele>1350.4000244141</ele>
        <time>2023-07-22T14:09:07.000Z</time>
      </trkpt>
      <trkpt lat="42.70863" lon="1.49469">
        <ele>1350.1999511719</ele>
        <time>2023-07-22T14:09:08.000Z</time>
      </trkpt>
      <trkpt lat="42.70868" lon="1.49472">
        <ele>1349.4000244141</ele>
        <time>2023-07-22T14:09:12.000Z</time>
      </trkpt>
      <trkpt lat="42.70871" lon="1.49474">
        <ele>1348.5999755859</ele>
        <time>2023-07-22T14:09:14.000Z</time>
      </trkpt>
      <trkpt lat="42.70872" lon="1.49474">
        <ele>1348</ele>
        <time>2023-07-22T14:09:16.000Z</time>
      </trkpt>
      <trkpt lat="42.70879" lon="1.49482">
        <ele>1347.1999511719</ele>
        <time>2023-07-22T14:09:24.000Z</time>
      </trkpt>
      <trkpt lat="42.70885" lon="1.49485">
        <ele>1347</ele>
        <time>2023-07-22T14:09:27.000Z</time>
      </trkpt>
      <trkpt lat="42.70887" lon="1.49488">
        <ele>1346.8000488281</ele>
        <time>2023-07-22T14:09:30.000Z</time>
      </trkpt>
      <trkpt lat="42.70893" lon="1.4949">
        <ele>1346</ele>
        <time>2023-07-22T14:09:38.000Z</time>
      </trkpt>
      <trkpt lat="42.70897" lon="1.4949">
        <ele>1344.8000488281</ele>
        <time>2023-07-22T14:09:43.000Z</time>
      </trkpt>
      <trkpt lat="42.70899" lon="1.4949">
        <ele>1343.5999755859</ele>
        <time>2023-07-22T14:09:47.000Z</time>
      </trkpt>
      <trkpt lat="42.70901" lon="1.49488">
        <ele>1343.1999511719</ele>
        <time>2023-07-22T14:09:49.000Z</time>
      </trkpt>
      <trkpt lat="42.709" lon="1.49486">
        <ele>1342.5999755859</ele>
        <time>2023-07-22T14:09:51.000Z</time>
      </trkpt>
      <trkpt lat="42.70899" lon="1.49479">
        <ele>1341.5999755859</ele>
        <time>2023-07-22T14:09:57.000Z</time>
      </trkpt>
      <trkpt lat="42.70896" lon="1.49477">
        <ele>1340.4000244141</ele>
        <time>2023-07-22T14:10:02.000Z</time>
      </trkpt>
      <trkpt lat="42.70895" lon="1.49476">
        <ele>1340</ele>
        <time>2023-07-22T14:10:04.000Z</time>
      </trkpt>
      <trkpt lat="42.70894" lon="1.49475">
        <ele>1339.4000244141</ele>
        <time>2023-07-22T14:10:06.000Z</time>
      </trkpt>
      <trkpt lat="42.70891" lon="1.49473">
        <ele>1338.4000244141</ele>
        <time>2023-07-22T14:10:10.000Z</time>
      </trkpt>
      <trkpt lat="42.70891" lon="1.49472">
        <ele>1338.1999511719</ele>
        <time>2023-07-22T14:10:11.000Z</time>
      </trkpt>
      <trkpt lat="42.70891" lon="1.49467">
        <ele>1337.4000244141</ele>
        <time>2023-07-22T14:10:17.000Z</time>
      </trkpt>
      <trkpt lat="42.70892" lon="1.49467">
        <ele>1337.1999511719</ele>
        <time>2023-07-22T14:10:18.000Z</time>
      </trkpt>
      <trkpt lat="42.70893" lon="1.49466">
        <ele>1337</ele>
        <time>2023-07-22T14:10:19.000Z</time>
      </trkpt>
      <trkpt lat="42.70894" lon="1.49466">
        <ele>1336.4000244141</ele>
        <time>2023-07-22T14:10:22.000Z</time>
      </trkpt>
      <trkpt lat="42.70894" lon="1.49466">
        <ele>1336.1999511719</ele>
        <time>2023-07-22T14:10:23.000Z</time>
      </trkpt>
      <trkpt lat="42.70894" lon="1.49466">
        <ele>1336</ele>
        <time>2023-07-22T14:10:24.000Z</time>
      </trkpt>
      <trkpt lat="42.70895" lon="1.49464">
        <ele>1335.5999755859</ele>
        <time>2023-07-22T14:10:26.000Z</time>
      </trkpt>
      <trkpt lat="42.70898" lon="1.49463">
        <ele>1335</ele>
        <time>2023-07-22T14:10:29.000Z</time>
      </trkpt>
      <trkpt lat="42.70899" lon="1.49463">
        <ele>1334.8000488281</ele>
        <time>2023-07-22T14:10:30.000Z</time>
      </trkpt>
      <trkpt lat="42.70903" lon="1.49462">
        <ele>1333.8000488281</ele>
        <time>2023-07-22T14:10:35.000Z</time>
      </trkpt>
      <trkpt lat="42.70903" lon="1.49461">
        <ele>1333.1999511719</ele>
        <time>2023-07-22T14:10:37.000Z</time>
      </trkpt>
      <trkpt lat="42.70903" lon="1.49461">
        <ele>1332.5999755859</ele>
        <time>2023-07-22T14:10:40.000Z</time>
      </trkpt>
      <trkpt lat="42.70902" lon="1.49462">
        <ele>1331.8000488281</ele>
        <time>2023-07-22T14:10:44.000Z</time>
      </trkpt>
      <trkpt lat="42.70908" lon="1.49466">
        <ele>1330.4000244141</ele>
        <time>2023-07-22T14:10:58.000Z</time>
      </trkpt>
      <trkpt lat="42.70917" lon="1.4947">
        <ele>1329.4000244141</ele>
        <time>2023-07-22T14:11:04.000Z</time>
      </trkpt>
      <trkpt lat="42.70918" lon="1.4947">
        <ele>1329.4000244141</ele>
        <time>2023-07-22T14:11:05.000Z</time>
      </trkpt>
      <trkpt lat="42.70921" lon="1.49472">
        <ele>1329</ele>
        <time>2023-07-22T14:11:11.000Z</time>
      </trkpt>
      <trkpt lat="42.70924" lon="1.49475">
        <ele>1328.1999511719</ele>
        <time>2023-07-22T14:11:16.000Z</time>
      </trkpt>
      <trkpt lat="42.70925" lon="1.49475">
        <ele>1328.1999511719</ele>
        <time>2023-07-22T14:11:18.000Z</time>
      </trkpt>
      <trkpt lat="42.7093" lon="1.49475">
        <ele>1327.1999511719</ele>
        <time>2023-07-22T14:11:25.000Z</time>
      </trkpt>
      <trkpt lat="42.70931" lon="1.49475">
        <ele>1327</ele>
        <time>2023-07-22T14:11:26.000Z</time>
      </trkpt>
      <trkpt lat="42.70934" lon="1.49473">
        <ele>1326</ele>
        <time>2023-07-22T14:11:32.000Z</time>
      </trkpt>
      <trkpt lat="42.70934" lon="1.49473">
        <ele>1326</ele>
        <time>2023-07-22T14:11:33.000Z</time>
      </trkpt>
      <trkpt lat="42.70937" lon="1.49473">
        <ele>1325</ele>
        <time>2023-07-22T14:11:39.000Z</time>
      </trkpt>
      <trkpt lat="42.70938" lon="1.49473">
        <ele>1324.8000488281</ele>
        <time>2023-07-22T14:11:41.000Z</time>
      </trkpt>
      <trkpt lat="42.70946" lon="1.49471">
        <ele>1324</ele>
        <time>2023-07-22T14:11:48.000Z</time>
      </trkpt>
      <trkpt lat="42.70946" lon="1.49471">
        <ele>1323.8000488281</ele>
        <time>2023-07-22T14:11:49.000Z</time>
      </trkpt>
      <trkpt lat="42.70953" lon="1.49468">
        <ele>1323</ele>
        <time>2023-07-22T14:11:57.000Z</time>
      </trkpt>
      <trkpt lat="42.70954" lon="1.49468">
        <ele>1322.1999511719</ele>
        <time>2023-07-22T14:12:04.000Z</time>
      </trkpt>
      <trkpt lat="42.70955" lon="1.49468">
        <ele>1321.8000488281</ele>
        <time>2023-07-22T14:12:06.000Z</time>
      </trkpt>
      <trkpt lat="42.70959" lon="1.49465">
        <ele>1321</ele>
        <time>2023-07-22T14:12:13.000Z</time>
      </trkpt>
      <trkpt lat="42.7096" lon="1.49464">
        <ele>1320.8000488281</ele>
        <time>2023-07-22T14:12:14.000Z</time>
      </trkpt>
      <trkpt lat="42.70967" lon="1.49459">
        <ele>1320</ele>
        <time>2023-07-22T14:12:20.000Z</time>
      </trkpt>
      <trkpt lat="42.70974" lon="1.49456">
        <ele>1319.8000488281</ele>
        <time>2023-07-22T14:12:25.000Z</time>
      </trkpt>
      <trkpt lat="42.70978" lon="1.49454">
        <ele>1319.5999755859</ele>
        <time>2023-07-22T14:12:28.000Z</time>
      </trkpt>
      <trkpt lat="42.70987" lon="1.49449">
        <ele>1319</ele>
        <time>2023-07-22T14:12:36.000Z</time>
      </trkpt>
      <trkpt lat="42.70988" lon="1.49449">
        <ele>1318.5999755859</ele>
        <time>2023-07-22T14:12:37.000Z</time>
      </trkpt>
      <trkpt lat="42.70995" lon="1.49445">
        <ele>1318.5999755859</ele>
        <time>2023-07-22T14:12:45.000Z</time>
      </trkpt>
      <trkpt lat="42.71" lon="1.49437">
        <ele>1317.5999755859</ele>
        <time>2023-07-22T14:12:52.000Z</time>
      </trkpt>
      <trkpt lat="42.71002" lon="1.49435">
        <ele>1317.4000244141</ele>
        <time>2023-07-22T14:12:53.000Z</time>
      </trkpt>
      <trkpt lat="42.71005" lon="1.49431">
        <ele>1316.5999755859</ele>
        <time>2023-07-22T14:12:57.000Z</time>
      </trkpt>
      <trkpt lat="42.71008" lon="1.49428">
        <ele>1316.1999511719</ele>
        <time>2023-07-22T14:13:01.000Z</time>
      </trkpt>
      <trkpt lat="42.71013" lon="1.49421">
        <ele>1315.4000244141</ele>
        <time>2023-07-22T14:13:08.000Z</time>
      </trkpt>
      <trkpt lat="42.71014" lon="1.49419">
        <ele>1315</ele>
        <time>2023-07-22T14:13:10.000Z</time>
      </trkpt>
      <trkpt lat="42.71014" lon="1.49417">
        <ele>1314.1999511719</ele>
        <time>2023-07-22T14:13:12.000Z</time>
      </trkpt>
      <trkpt lat="42.71016" lon="1.49412">
        <ele>1313</ele>
        <time>2023-07-22T14:13:16.000Z</time>
      </trkpt>
      <trkpt lat="42.71018" lon="1.49409">
        <ele>1312.1999511719</ele>
        <time>2023-07-22T14:13:19.000Z</time>
      </trkpt>
      <trkpt lat="42.71018" lon="1.49409">
        <ele>1311.8000488281</ele>
        <time>2023-07-22T14:13:20.000Z</time>
      </trkpt>
      <trkpt lat="42.71017" lon="1.49406">
        <ele>1310.5999755859</ele>
        <time>2023-07-22T14:13:24.000Z</time>
      </trkpt>
      <trkpt lat="42.71019" lon="1.49402">
        <ele>1309.5999755859</ele>
        <time>2023-07-22T14:13:27.000Z</time>
      </trkpt>
      <trkpt lat="42.71019" lon="1.49398">
        <ele>1308.5999755859</ele>
        <time>2023-07-22T14:13:30.000Z</time>
      </trkpt>
      <trkpt lat="42.71022" lon="1.49394">
        <ele>1307.4000244141</ele>
        <time>2023-07-22T14:13:34.000Z</time>
      </trkpt>
      <trkpt lat="42.71024" lon="1.49392">
        <ele>1306.4000244141</ele>
        <time>2023-07-22T14:13:37.000Z</time>
      </trkpt>
      <trkpt lat="42.71027" lon="1.49389">
        <ele>1305.4000244141</ele>
        <time>2023-07-22T14:13:41.000Z</time>
      </trkpt>
      <trkpt lat="42.71032" lon="1.49384">
        <ele>1304.1999511719</ele>
        <time>2023-07-22T14:13:45.000Z</time>
      </trkpt>
      <trkpt lat="42.71034" lon="1.49382">
        <ele>1303.5999755859</ele>
        <time>2023-07-22T14:13:47.000Z</time>
      </trkpt>
      <trkpt lat="42.71036" lon="1.4938">
        <ele>1303.1999511719</ele>
        <time>2023-07-22T14:13:49.000Z</time>
      </trkpt>
      <trkpt lat="42.71039" lon="1.49377">
        <ele>1302</ele>
        <time>2023-07-22T14:13:53.000Z</time>
      </trkpt>
      <trkpt lat="42.71039" lon="1.49376">
        <ele>1301.8000488281</ele>
        <time>2023-07-22T14:13:54.000Z</time>
      </trkpt>
      <trkpt lat="42.71041" lon="1.49373">
        <ele>1301</ele>
        <time>2023-07-22T14:13:57.000Z</time>
      </trkpt>
      <trkpt lat="42.71044" lon="1.49373">
        <ele>1300</ele>
        <time>2023-07-22T14:14:01.000Z</time>
      </trkpt>
      <trkpt lat="42.71044" lon="1.49372">
        <ele>1299.8000488281</ele>
        <time>2023-07-22T14:14:02.000Z</time>
      </trkpt>
      <trkpt lat="42.71048" lon="1.49367">
        <ele>1298.8000488281</ele>
        <time>2023-07-22T14:14:08.000Z</time>
      </trkpt>
      <trkpt lat="42.71049" lon="1.49367">
        <ele>1298.4000244141</ele>
        <time>2023-07-22T14:14:10.000Z</time>
      </trkpt>
      <trkpt lat="42.71051" lon="1.49366">
        <ele>1297.8000488281</ele>
        <time>2023-07-22T14:14:14.000Z</time>
      </trkpt>
      <trkpt lat="42.71053" lon="1.49366">
        <ele>1297.4000244141</ele>
        <time>2023-07-22T14:14:16.000Z</time>
      </trkpt>
      <trkpt lat="42.71057" lon="1.49364">
        <ele>1296.5999755859</ele>
        <time>2023-07-22T14:14:20.000Z</time>
      </trkpt>
      <trkpt lat="42.71059" lon="1.49364">
        <ele>1296.4000244141</ele>
        <time>2023-07-22T14:14:22.000Z</time>
      </trkpt>
      <trkpt lat="42.71062" lon="1.49363">
        <ele>1295.5999755859</ele>
        <time>2023-07-22T14:14:26.000Z</time>
      </trkpt>
      <trkpt lat="42.71067" lon="1.49361">
        <ele>1295</ele>
        <time>2023-07-22T14:14:34.000Z</time>
      </trkpt>
      <trkpt lat="42.71068" lon="1.49361">
        <ele>1294.5999755859</ele>
        <time>2023-07-22T14:14:37.000Z</time>
      </trkpt>
      <trkpt lat="42.7107" lon="1.49361">
        <ele>1293.4000244141</ele>
        <time>2023-07-22T14:14:42.000Z</time>
      </trkpt>
      <trkpt lat="42.71072" lon="1.4936">
        <ele>1292.8000488281</ele>
        <time>2023-07-22T14:14:45.000Z</time>
      </trkpt>
      <trkpt lat="42.71073" lon="1.49356">
        <ele>1292.5999755859</ele>
        <time>2023-07-22T14:14:50.000Z</time>
      </trkpt>
      <trkpt lat="42.71075" lon="1.49353">
        <ele>1292.4000244141</ele>
        <time>2023-07-22T14:14:52.000Z</time>
      </trkpt>
      <trkpt lat="42.71079" lon="1.4935">
        <ele>1291.5999755859</ele>
        <time>2023-07-22T14:14:59.000Z</time>
      </trkpt>
      <trkpt lat="42.71079" lon="1.49349">
        <ele>1291.4000244141</ele>
        <time>2023-07-22T14:15:00.000Z</time>
      </trkpt>
      <trkpt lat="42.71083" lon="1.49347">
        <ele>1290.1999511719</ele>
        <time>2023-07-22T14:15:05.000Z</time>
      </trkpt>
      <trkpt lat="42.71084" lon="1.49347">
        <ele>1289.8000488281</ele>
        <time>2023-07-22T14:15:06.000Z</time>
      </trkpt>
      <trkpt lat="42.71087" lon="1.49343">
        <ele>1289.4000244141</ele>
        <time>2023-07-22T14:15:13.000Z</time>
      </trkpt>
      <trkpt lat="42.71092" lon="1.49341">
        <ele>1289.4000244141</ele>
        <time>2023-07-22T14:15:20.000Z</time>
      </trkpt>
      <trkpt lat="42.71096" lon="1.4934">
        <ele>1289.1999511719</ele>
        <time>2023-07-22T14:15:28.000Z</time>
      </trkpt>
      <trkpt lat="42.71096" lon="1.4934">
        <ele>1289.1999511719</ele>
        <time>2023-07-22T14:15:29.000Z</time>
      </trkpt>
      <trkpt lat="42.71095" lon="1.49341">
        <ele>1289</ele>
        <time>2023-07-22T14:15:36.000Z</time>
      </trkpt>
      <trkpt lat="42.71094" lon="1.49344">
        <ele>1288.8000488281</ele>
        <time>2023-07-22T14:15:44.000Z</time>
      </trkpt>
      <trkpt lat="42.71093" lon="1.49346">
        <ele>1288.5999755859</ele>
        <time>2023-07-22T14:15:51.000Z</time>
      </trkpt>
      <trkpt lat="42.71092" lon="1.49348">
        <ele>1288.5999755859</ele>
        <time>2023-07-22T14:15:58.000Z</time>
      </trkpt>
      <trkpt lat="42.7109" lon="1.49344">
        <ele>1288.4000244141</ele>
        <time>2023-07-22T14:16:06.000Z</time>
      </trkpt>
      <trkpt lat="42.71092" lon="1.49344">
        <ele>1288</ele>
        <time>2023-07-22T14:16:08.000Z</time>
      </trkpt>
      <trkpt lat="42.71095" lon="1.49342">
        <ele>1287</ele>
        <time>2023-07-22T14:16:12.000Z</time>
      </trkpt>
      <trkpt lat="42.71098" lon="1.49342">
        <ele>1286.1999511719</ele>
        <time>2023-07-22T14:16:17.000Z</time>
      </trkpt>
      <trkpt lat="42.71102" lon="1.49342">
        <ele>1285.1999511719</ele>
        <time>2023-07-22T14:16:27.000Z</time>
      </trkpt>
      <trkpt lat="42.71109" lon="1.4934">
        <ele>1283.8000488281</ele>
        <time>2023-07-22T14:16:35.000Z</time>
      </trkpt>
      <trkpt lat="42.7111" lon="1.49339">
        <ele>1283.5999755859</ele>
        <time>2023-07-22T14:16:37.000Z</time>
      </trkpt>
      <trkpt lat="42.71114" lon="1.49338">
        <ele>1283</ele>
        <time>2023-07-22T14:16:46.000Z</time>
      </trkpt>
      <trkpt lat="42.71114" lon="1.49337">
        <ele>1282.8000488281</ele>
        <time>2023-07-22T14:16:47.000Z</time>
      </trkpt>
      <trkpt lat="42.71116" lon="1.49334">
        <ele>1281.4000244141</ele>
        <time>2023-07-22T14:16:52.000Z</time>
      </trkpt>
      <trkpt lat="42.71118" lon="1.49331">
        <ele>1280.8000488281</ele>
        <time>2023-07-22T14:16:54.000Z</time>
      </trkpt>
      <trkpt lat="42.71121" lon="1.49328">
        <ele>1280.1999511719</ele>
        <time>2023-07-22T14:16:56.000Z</time>
      </trkpt>
      <trkpt lat="42.71125" lon="1.49324">
        <ele>1278.8000488281</ele>
        <time>2023-07-22T14:17:01.000Z</time>
      </trkpt>
      <trkpt lat="42.71125" lon="1.49324">
        <ele>1278.8000488281</ele>
        <time>2023-07-22T14:17:02.000Z</time>
      </trkpt>
      <trkpt lat="42.71128" lon="1.49317">
        <ele>1277.8000488281</ele>
        <time>2023-07-22T14:17:08.000Z</time>
      </trkpt>
      <trkpt lat="42.71132" lon="1.49311">
        <ele>1276.5999755859</ele>
        <time>2023-07-22T14:17:13.000Z</time>
      </trkpt>
      <trkpt lat="42.71134" lon="1.4931">
        <ele>1276</ele>
        <time>2023-07-22T14:17:17.000Z</time>
      </trkpt>
      <trkpt lat="42.71136" lon="1.4931">
        <ele>1275.4000244141</ele>
        <time>2023-07-22T14:17:20.000Z</time>
      </trkpt>
      <trkpt lat="42.71142" lon="1.49307">
        <ele>1274.5999755859</ele>
        <time>2023-07-22T14:17:24.000Z</time>
      </trkpt>
      <trkpt lat="42.71144" lon="1.49307">
        <ele>1274.4000244141</ele>
        <time>2023-07-22T14:17:25.000Z</time>
      </trkpt>
      <trkpt lat="42.71152" lon="1.49301">
        <ele>1273.4000244141</ele>
        <time>2023-07-22T14:17:32.000Z</time>
      </trkpt>
      <trkpt lat="42.71157" lon="1.49297">
        <ele>1273.5999755859</ele>
        <time>2023-07-22T14:17:40.000Z</time>
      </trkpt>
      <trkpt lat="42.71158" lon="1.49296">
        <ele>1273.4000244141</ele>
        <time>2023-07-22T14:17:42.000Z</time>
      </trkpt>
      <trkpt lat="42.7116" lon="1.49294">
        <ele>1272.1999511719</ele>
        <time>2023-07-22T14:17:47.000Z</time>
      </trkpt>
      <trkpt lat="42.71161" lon="1.49294">
        <ele>1271.8000488281</ele>
        <time>2023-07-22T14:17:48.000Z</time>
      </trkpt>
      <trkpt lat="42.71162" lon="1.49292">
        <ele>1271</ele>
        <time>2023-07-22T14:17:51.000Z</time>
      </trkpt>
      <trkpt lat="42.71164" lon="1.49291">
        <ele>1269.8000488281</ele>
        <time>2023-07-22T14:17:54.000Z</time>
      </trkpt>
      <trkpt lat="42.71165" lon="1.4929">
        <ele>1269.5999755859</ele>
        <time>2023-07-22T14:17:55.000Z</time>
      </trkpt>
      <trkpt lat="42.71168" lon="1.49289">
        <ele>1268.5999755859</ele>
        <time>2023-07-22T14:17:59.000Z</time>
      </trkpt>
      <trkpt lat="42.71172" lon="1.49285">
        <ele>1265.8000488281</ele>
        <time>2023-07-22T14:18:08.000Z</time>
      </trkpt>
      <trkpt lat="42.71173" lon="1.49281">
        <ele>1265</ele>
        <time>2023-07-22T14:18:11.000Z</time>
      </trkpt>
      <trkpt lat="42.71176" lon="1.49281">
        <ele>1263.8000488281</ele>
        <time>2023-07-22T14:18:16.000Z</time>
      </trkpt>
      <trkpt lat="42.71179" lon="1.49284">
        <ele>1262.5999755859</ele>
        <time>2023-07-22T14:18:21.000Z</time>
      </trkpt>
      <trkpt lat="42.71183" lon="1.49284">
        <ele>1261.5999755859</ele>
        <time>2023-07-22T14:18:25.000Z</time>
      </trkpt>
      <trkpt lat="42.71188" lon="1.49281">
        <ele>1260.5999755859</ele>
        <time>2023-07-22T14:18:28.000Z</time>
      </trkpt>
      <trkpt lat="42.71192" lon="1.49278">
        <ele>1259.4000244141</ele>
        <time>2023-07-22T14:18:32.000Z</time>
      </trkpt>
      <trkpt lat="42.71193" lon="1.49277">
        <ele>1259</ele>
        <time>2023-07-22T14:18:33.000Z</time>
      </trkpt>
      <trkpt lat="42.71195" lon="1.49274">
        <ele>1258.1999511719</ele>
        <time>2023-07-22T14:18:37.000Z</time>
      </trkpt>
      <trkpt lat="42.71198" lon="1.49271">
        <ele>1257.1999511719</ele>
        <time>2023-07-22T14:18:41.000Z</time>
      </trkpt>
      <trkpt lat="42.71201" lon="1.49267">
        <ele>1256</ele>
        <time>2023-07-22T14:18:46.000Z</time>
      </trkpt>
      <trkpt lat="42.71203" lon="1.49265">
        <ele>1255</ele>
        <time>2023-07-22T14:18:48.000Z</time>
      </trkpt>
      <trkpt lat="42.71204" lon="1.49264">
        <ele>1254.5999755859</ele>
        <time>2023-07-22T14:18:49.000Z</time>
      </trkpt>
      <trkpt lat="42.71206" lon="1.49263">
        <ele>1253.5999755859</ele>
        <time>2023-07-22T14:18:52.000Z</time>
      </trkpt>
      <trkpt lat="42.71209" lon="1.4926">
        <ele>1252.8000488281</ele>
        <time>2023-07-22T14:18:55.000Z</time>
      </trkpt>
      <trkpt lat="42.71211" lon="1.49258">
        <ele>1252.4000244141</ele>
        <time>2023-07-22T14:18:57.000Z</time>
      </trkpt>
      <trkpt lat="42.71217" lon="1.49257">
        <ele>1251.1999511719</ele>
        <time>2023-07-22T14:19:03.000Z</time>
      </trkpt>
      <trkpt lat="42.71227" lon="1.4925">
        <ele>1250.1999511719</ele>
        <time>2023-07-22T14:19:10.000Z</time>
      </trkpt>
      <trkpt lat="42.71229" lon="1.49249">
        <ele>1250</ele>
        <time>2023-07-22T14:19:11.000Z</time>
      </trkpt>
      <trkpt lat="42.71237" lon="1.49243">
        <ele>1249.1999511719</ele>
        <time>2023-07-22T14:19:20.000Z</time>
      </trkpt>
      <trkpt lat="42.71238" lon="1.49243">
        <ele>1249</ele>
        <time>2023-07-22T14:19:21.000Z</time>
      </trkpt>
      <trkpt lat="42.7124" lon="1.49242">
        <ele>1248</ele>
        <time>2023-07-22T14:19:25.000Z</time>
      </trkpt>
      <trkpt lat="42.71248" lon="1.49234">
        <ele>1246.4000244141</ele>
        <time>2023-07-22T14:19:37.000Z</time>
      </trkpt>
      <trkpt lat="42.71249" lon="1.49227">
        <ele>1245.8000488281</ele>
        <time>2023-07-22T14:19:43.000Z</time>
      </trkpt>
      <trkpt lat="42.7125" lon="1.49224">
        <ele>1245.5999755859</ele>
        <time>2023-07-22T14:19:45.000Z</time>
      </trkpt>
      <trkpt lat="42.71251" lon="1.4922">
        <ele>1244.8000488281</ele>
        <time>2023-07-22T14:19:48.000Z</time>
      </trkpt>
      <trkpt lat="42.71255" lon="1.49214">
        <ele>1243.8000488281</ele>
        <time>2023-07-22T14:19:52.000Z</time>
      </trkpt>
      <trkpt lat="42.71255" lon="1.49214">
        <ele>1243.5999755859</ele>
        <time>2023-07-22T14:19:53.000Z</time>
      </trkpt>
      <trkpt lat="42.71258" lon="1.49211">
        <ele>1242.5999755859</ele>
        <time>2023-07-22T14:19:57.000Z</time>
      </trkpt>
      <trkpt lat="42.71261" lon="1.49209">
        <ele>1241.8000488281</ele>
        <time>2023-07-22T14:20:00.000Z</time>
      </trkpt>
      <trkpt lat="42.71262" lon="1.49206">
        <ele>1241.4000244141</ele>
        <time>2023-07-22T14:20:02.000Z</time>
      </trkpt>
      <trkpt lat="42.71265" lon="1.49199">
        <ele>1240.1999511719</ele>
        <time>2023-07-22T14:20:07.000Z</time>
      </trkpt>
      <trkpt lat="42.71268" lon="1.49195">
        <ele>1239.1999511719</ele>
        <time>2023-07-22T14:20:10.000Z</time>
      </trkpt>
      <trkpt lat="42.71268" lon="1.49194">
        <ele>1238.8000488281</ele>
        <time>2023-07-22T14:20:11.000Z</time>
      </trkpt>
      <trkpt lat="42.71272" lon="1.49189">
        <ele>1237.8000488281</ele>
        <time>2023-07-22T14:20:15.000Z</time>
      </trkpt>
      <trkpt lat="42.71273" lon="1.49188">
        <ele>1237.5999755859</ele>
        <time>2023-07-22T14:20:17.000Z</time>
      </trkpt>
      <trkpt lat="42.71277" lon="1.49184">
        <ele>1236.5999755859</ele>
        <time>2023-07-22T14:20:22.000Z</time>
      </trkpt>
      <trkpt lat="42.7128" lon="1.49184">
        <ele>1236</ele>
        <time>2023-07-22T14:20:24.000Z</time>
      </trkpt>
      <trkpt lat="42.71281" lon="1.49182">
        <ele>1235.4000244141</ele>
        <time>2023-07-22T14:20:26.000Z</time>
      </trkpt>
      <trkpt lat="42.71283" lon="1.49179">
        <ele>1234.1999511719</ele>
        <time>2023-07-22T14:20:30.000Z</time>
      </trkpt>
      <trkpt lat="42.71284" lon="1.49176">
        <ele>1233.5999755859</ele>
        <time>2023-07-22T14:20:32.000Z</time>
      </trkpt>
      <trkpt lat="42.71284" lon="1.49174">
        <ele>1233</ele>
        <time>2023-07-22T14:20:34.000Z</time>
      </trkpt>
      <trkpt lat="42.71287" lon="1.49168">
        <ele>1232</ele>
        <time>2023-07-22T14:20:38.000Z</time>
      </trkpt>
      <trkpt lat="42.71288" lon="1.49165">
        <ele>1231</ele>
        <time>2023-07-22T14:20:40.000Z</time>
      </trkpt>
      <trkpt lat="42.71288" lon="1.49164">
        <ele>1230.8000488281</ele>
        <time>2023-07-22T14:20:41.000Z</time>
      </trkpt>
      <trkpt lat="42.7129" lon="1.49161">
        <ele>1229.8000488281</ele>
        <time>2023-07-22T14:20:44.000Z</time>
      </trkpt>
      <trkpt lat="42.71291" lon="1.49158">
        <ele>1228.8000488281</ele>
        <time>2023-07-22T14:20:47.000Z</time>
      </trkpt>
      <trkpt lat="42.71291" lon="1.49157">
        <ele>1228.4000244141</ele>
        <time>2023-07-22T14:20:48.000Z</time>
      </trkpt>
      <trkpt lat="42.71293" lon="1.49151">
        <ele>1227.1999511719</ele>
        <time>2023-07-22T14:20:53.000Z</time>
      </trkpt>
      <trkpt lat="42.71293" lon="1.4915">
        <ele>1227</ele>
        <time>2023-07-22T14:20:54.000Z</time>
      </trkpt>
      <trkpt lat="42.71294" lon="1.49146">
        <ele>1225.8000488281</ele>
        <time>2023-07-22T14:20:58.000Z</time>
      </trkpt>
      <trkpt lat="42.71297" lon="1.49144">
        <ele>1224.8000488281</ele>
        <time>2023-07-22T14:21:02.000Z</time>
      </trkpt>
      <trkpt lat="42.71299" lon="1.4914">
        <ele>1223.5999755859</ele>
        <time>2023-07-22T14:21:07.000Z</time>
      </trkpt>
      <trkpt lat="42.71299" lon="1.49138">
        <ele>1223.1999511719</ele>
        <time>2023-07-22T14:21:09.000Z</time>
      </trkpt>
      <trkpt lat="42.713" lon="1.49136">
        <ele>1222.5999755859</ele>
        <time>2023-07-22T14:21:11.000Z</time>
      </trkpt>
      <trkpt lat="42.71303" lon="1.49132">
        <ele>1221.4000244141</ele>
        <time>2023-07-22T14:21:15.000Z</time>
      </trkpt>
      <trkpt lat="42.71304" lon="1.4913">
        <ele>1221</ele>
        <time>2023-07-22T14:21:17.000Z</time>
      </trkpt>
      <trkpt lat="42.71305" lon="1.49126">
        <ele>1220</ele>
        <time>2023-07-22T14:21:20.000Z</time>
      </trkpt>
      <trkpt lat="42.71307" lon="1.49123">
        <ele>1219</ele>
        <time>2023-07-22T14:21:23.000Z</time>
      </trkpt>
      <trkpt lat="42.71307" lon="1.4912">
        <ele>1217.8000488281</ele>
        <time>2023-07-22T14:21:27.000Z</time>
      </trkpt>
      <trkpt lat="42.71307" lon="1.49118">
        <ele>1217.4000244141</ele>
        <time>2023-07-22T14:21:29.000Z</time>
      </trkpt>
      <trkpt lat="42.71307" lon="1.49116">
        <ele>1216.8000488281</ele>
        <time>2023-07-22T14:21:31.000Z</time>
      </trkpt>
      <trkpt lat="42.71308" lon="1.49109">
        <ele>1215.4000244141</ele>
        <time>2023-07-22T14:21:35.000Z</time>
      </trkpt>
      <trkpt lat="42.71309" lon="1.49109">
        <ele>1215.4000244141</ele>
        <time>2023-07-22T14:21:36.000Z</time>
      </trkpt>
      <trkpt lat="42.71311" lon="1.49107">
        <ele>1214.4000244141</ele>
        <time>2023-07-22T14:21:39.000Z</time>
      </trkpt>
      <trkpt lat="42.71314" lon="1.49104">
        <ele>1213.4000244141</ele>
        <time>2023-07-22T14:21:43.000Z</time>
      </trkpt>
      <trkpt lat="42.71314" lon="1.49103">
        <ele>1213.1999511719</ele>
        <time>2023-07-22T14:21:44.000Z</time>
      </trkpt>
      <trkpt lat="42.71318" lon="1.49095">
        <ele>1212.1999511719</ele>
        <time>2023-07-22T14:21:48.000Z</time>
      </trkpt>
      <trkpt lat="42.71319" lon="1.49093">
        <ele>1211.8000488281</ele>
        <time>2023-07-22T14:21:50.000Z</time>
      </trkpt>
      <trkpt lat="42.71318" lon="1.49094">
        <ele>1211.4000244141</ele>
        <time>2023-07-22T14:21:55.000Z</time>
      </trkpt>
      <trkpt lat="42.71318" lon="1.49098">
        <ele>1211.4000244141</ele>
        <time>2023-07-22T14:21:57.000Z</time>
      </trkpt>
      <trkpt lat="42.71315" lon="1.49101">
        <ele>1211.4000244141</ele>
        <time>2023-07-22T14:22:02.000Z</time>
      </trkpt>
      <trkpt lat="42.71315" lon="1.49098">
        <ele>1211.4000244141</ele>
        <time>2023-07-22T14:22:10.000Z</time>
      </trkpt>
      <trkpt lat="42.71308" lon="1.49094">
        <ele>1211.4000244141</ele>
        <time>2023-07-22T14:22:16.000Z</time>
      </trkpt>
      <trkpt lat="42.71288" lon="1.49104">
        <ele>1209.5999755859</ele>
        <time>2023-07-22T14:22:30.000Z</time>
      </trkpt>
      <trkpt lat="42.71286" lon="1.49105">
        <ele>1209.5999755859</ele>
        <time>2023-07-22T14:22:31.000Z</time>
      </trkpt>
      <trkpt lat="42.71283" lon="1.49101">
        <ele>1209</ele>
        <time>2023-07-22T14:22:36.000Z</time>
      </trkpt>
      <trkpt lat="42.71283" lon="1.49097">
        <ele>1209</ele>
        <time>2023-07-22T14:22:38.000Z</time>
      </trkpt>
      <trkpt lat="42.71283" lon="1.49095">
        <ele>1208.8000488281</ele>
        <time>2023-07-22T14:22:39.000Z</time>
      </trkpt>
      <trkpt lat="42.71281" lon="1.49088">
        <ele>1208.4000244141</ele>
        <time>2023-07-22T14:22:45.000Z</time>
      </trkpt>
      <trkpt lat="42.71276" lon="1.49079">
        <ele>1208.1999511719</ele>
        <time>2023-07-22T14:22:54.000Z</time>
      </trkpt>
      <trkpt lat="42.71276" lon="1.49077">
        <ele>1208.1999511719</ele>
        <time>2023-07-22T14:22:59.000Z</time>
      </trkpt>
      <trkpt lat="42.71277" lon="1.49078">
        <ele>1208.1999511719</ele>
        <time>2023-07-22T14:23:00.000Z</time>
      </trkpt>
      <trkpt lat="42.71283" lon="1.49081">
        <ele>1208.1999511719</ele>
        <time>2023-07-22T14:23:06.000Z</time>
      </trkpt>
      <trkpt lat="42.71287" lon="1.49083">
        <ele>1208</ele>
        <time>2023-07-22T14:23:14.000Z</time>
      </trkpt>
      <trkpt lat="42.71283" lon="1.49081">
        <ele>1208.1999511719</ele>
        <time>2023-07-22T14:23:25.000Z</time>
      </trkpt>
      <trkpt lat="42.71286" lon="1.49086">
        <ele>1208.1999511719</ele>
        <time>2023-07-22T14:23:32.000Z</time>
      </trkpt>
      <trkpt lat="42.71285" lon="1.49084">
        <ele>1208</ele>
        <time>2023-07-22T14:23:39.000Z</time>
      </trkpt>
      <trkpt lat="42.71287" lon="1.49086">
        <ele>1208</ele>
        <time>2023-07-22T14:23:46.000Z</time>
      </trkpt>
      <trkpt lat="42.71291" lon="1.49088">
        <ele>1208</ele>
        <time>2023-07-22T14:23:53.000Z</time>
      </trkpt>
      <trkpt lat="42.7129" lon="1.49087">
        <ele>1208.1999511719</ele>
        <time>2023-07-22T14:24:00.000Z</time>
      </trkpt>
      <trkpt lat="42.71289" lon="1.49086">
        <ele>1208</ele>
        <time>2023-07-22T14:24:07.000Z</time>
      </trkpt>
      <trkpt lat="42.71284" lon="1.49087">
        <ele>1208</ele>
        <time>2023-07-22T14:24:17.000Z</time>
      </trkpt>
      <trkpt lat="42.71288" lon="1.49086">
        <ele>1207.8000488281</ele>
        <time>2023-07-22T14:24:20.000Z</time>
      </trkpt>
      <trkpt lat="42.71293" lon="1.49084">
        <ele>1207.1999511719</ele>
        <time>2023-07-22T14:24:24.000Z</time>
      </trkpt>
      <trkpt lat="42.71298" lon="1.49082">
        <ele>1206.8000488281</ele>
        <time>2023-07-22T14:24:27.000Z</time>
      </trkpt>
      <trkpt lat="42.71301" lon="1.49077">
        <ele>1206</ele>
        <time>2023-07-22T14:24:30.000Z</time>
      </trkpt>
      <trkpt lat="42.71304" lon="1.49074">
        <ele>1205.5999755859</ele>
        <time>2023-07-22T14:24:33.000Z</time>
      </trkpt>
      <trkpt lat="42.71309" lon="1.49068">
        <ele>1204.4000244141</ele>
        <time>2023-07-22T14:24:39.000Z</time>
      </trkpt>
      <trkpt lat="42.7131" lon="1.49067">
        <ele>1204.4000244141</ele>
        <time>2023-07-22T14:24:40.000Z</time>
      </trkpt>
      <trkpt lat="42.71314" lon="1.4906">
        <ele>1203.4000244141</ele>
        <time>2023-07-22T14:24:45.000Z</time>
      </trkpt>
      <trkpt lat="42.71317" lon="1.49056">
        <ele>1202.8000488281</ele>
        <time>2023-07-22T14:24:48.000Z</time>
      </trkpt>
      <trkpt lat="42.71319" lon="1.49055">
        <ele>1202.4000244141</ele>
        <time>2023-07-22T14:24:50.000Z</time>
      </trkpt>
      <trkpt lat="42.71328" lon="1.49045">
        <ele>1201.4000244141</ele>
        <time>2023-07-22T14:24:55.000Z</time>
      </trkpt>
      <trkpt lat="42.71334" lon="1.49041">
        <ele>1200.1999511719</ele>
        <time>2023-07-22T14:25:00.000Z</time>
      </trkpt>
      <trkpt lat="42.71337" lon="1.4904">
        <ele>1199.8000488281</ele>
        <time>2023-07-22T14:25:02.000Z</time>
      </trkpt>
      <trkpt lat="42.71342" lon="1.49038">
        <ele>1199.1999511719</ele>
        <time>2023-07-22T14:25:07.000Z</time>
      </trkpt>
      <trkpt lat="42.71363" lon="1.49028">
        <ele>1197.1999511719</ele>
        <time>2023-07-22T14:25:22.000Z</time>
      </trkpt>
      <trkpt lat="42.71389" lon="1.49015">
        <ele>1195</ele>
        <time>2023-07-22T14:25:42.000Z</time>
      </trkpt>
      <trkpt lat="42.7139" lon="1.49015">
        <ele>1194.8000488281</ele>
        <time>2023-07-22T14:25:43.000Z</time>
      </trkpt>
      <trkpt lat="42.71397" lon="1.49016">
        <ele>1193.4000244141</ele>
        <time>2023-07-22T14:25:53.000Z</time>
      </trkpt>
      <trkpt lat="42.71398" lon="1.49015">
        <ele>1193.4000244141</ele>
        <time>2023-07-22T14:25:55.000Z</time>
      </trkpt>
      <trkpt lat="42.71398" lon="1.49013">
        <ele>1193.4000244141</ele>
        <time>2023-07-22T14:25:56.000Z</time>
      </trkpt>
      <trkpt lat="42.71399" lon="1.49014">
        <ele>1193.4000244141</ele>
        <time>2023-07-22T14:26:03.000Z</time>
      </trkpt>
      <trkpt lat="42.71396" lon="1.49015">
        <ele>1193.4000244141</ele>
        <time>2023-07-22T14:26:12.000Z</time>
      </trkpt>
      <trkpt lat="42.71398" lon="1.49016">
        <ele>1193.4000244141</ele>
        <time>2023-07-22T14:26:17.000Z</time>
      </trkpt>
      <trkpt lat="42.71398" lon="1.49014">
        <ele>1193.4000244141</ele>
        <time>2023-07-22T14:26:24.000Z</time>
      </trkpt>
      <trkpt lat="42.71439" lon="1.49006">
        <ele>1191.4000244141</ele>
        <time>2023-07-22T14:27:02.000Z</time>
      </trkpt>
      <trkpt lat="42.7144" lon="1.49005">
        <ele>1191.4000244141</ele>
        <time>2023-07-22T14:27:03.000Z</time>
      </trkpt>
      <trkpt lat="42.71452" lon="1.48993">
        <ele>1191</ele>
        <time>2023-07-22T14:27:13.000Z</time>
      </trkpt>
      <trkpt lat="42.71467" lon="1.48983">
        <ele>1190.8000488281</ele>
        <time>2023-07-22T14:27:22.000Z</time>
      </trkpt>
      <trkpt lat="42.71473" lon="1.48977">
        <ele>1190.5999755859</ele>
        <time>2023-07-22T14:27:28.000Z</time>
      </trkpt>
      <trkpt lat="42.71478" lon="1.48973">
        <ele>1190.5999755859</ele>
        <time>2023-07-22T14:27:31.000Z</time>
      </trkpt>
      <trkpt lat="42.71495" lon="1.48976">
        <ele>1190.1999511719</ele>
        <time>2023-07-22T14:27:46.000Z</time>
      </trkpt>
      <trkpt lat="42.71496" lon="1.48977">
        <ele>1190.1999511719</ele>
        <time>2023-07-22T14:27:47.000Z</time>
      </trkpt>
      <trkpt lat="42.71517" lon="1.48992">
        <ele>1188.8000488281</ele>
        <time>2023-07-22T14:28:05.000Z</time>
      </trkpt>
      <trkpt lat="42.71519" lon="1.48992">
        <ele>1188.5999755859</ele>
        <time>2023-07-22T14:28:06.000Z</time>
      </trkpt>
      <trkpt lat="42.71527" lon="1.48997">
        <ele>1187.5999755859</ele>
        <time>2023-07-22T14:28:12.000Z</time>
      </trkpt>
      <trkpt lat="42.71537" lon="1.48995">
        <ele>1185.8000488281</ele>
        <time>2023-07-22T14:28:25.000Z</time>
      </trkpt>
      <trkpt lat="42.71537" lon="1.48995">
        <ele>1185.5999755859</ele>
        <time>2023-07-22T14:28:26.000Z</time>
      </trkpt>
      <trkpt lat="42.71537" lon="1.48999">
        <ele>1185.5999755859</ele>
        <time>2023-07-22T14:28:43.000Z</time>
      </trkpt>
      <trkpt lat="42.71536" lon="1.48998">
        <ele>1185.5999755859</ele>
        <time>2023-07-22T14:28:51.000Z</time>
      </trkpt>
      <trkpt lat="42.71538" lon="1.49002">
        <ele>1185.4000244141</ele>
        <time>2023-07-22T14:29:03.000Z</time>
      </trkpt>
      <trkpt lat="42.71547" lon="1.48997">
        <ele>1185.1999511719</ele>
        <time>2023-07-22T14:29:15.000Z</time>
      </trkpt>
      <trkpt lat="42.71551" lon="1.48995">
        <ele>1184.4000244141</ele>
        <time>2023-07-22T14:29:20.000Z</time>
      </trkpt>
      <trkpt lat="42.71553" lon="1.48995">
        <ele>1184.1999511719</ele>
        <time>2023-07-22T14:29:22.000Z</time>
      </trkpt>
      <trkpt lat="42.71559" lon="1.48992">
        <ele>1183.1999511719</ele>
        <time>2023-07-22T14:29:27.000Z</time>
      </trkpt>
      <trkpt lat="42.71561" lon="1.48988">
        <ele>1182.5999755859</ele>
        <time>2023-07-22T14:29:30.000Z</time>
      </trkpt>
      <trkpt lat="42.71565" lon="1.48977">
        <ele>1182</ele>
        <time>2023-07-22T14:29:35.000Z</time>
      </trkpt>
      <trkpt lat="42.71569" lon="1.48974">
        <ele>1181.4000244141</ele>
        <time>2023-07-22T14:29:37.000Z</time>
      </trkpt>
      <trkpt lat="42.71571" lon="1.48971">
        <ele>1181.1999511719</ele>
        <time>2023-07-22T14:29:39.000Z</time>
      </trkpt>
      <trkpt lat="42.71579" lon="1.48965">
        <ele>1180.1999511719</ele>
        <time>2023-07-22T14:29:45.000Z</time>
      </trkpt>
      <trkpt lat="42.71581" lon="1.48964">
        <ele>1180</ele>
        <time>2023-07-22T14:29:46.000Z</time>
      </trkpt>
      <trkpt lat="42.71592" lon="1.48955">
        <ele>1178.4000244141</ele>
        <time>2023-07-22T14:29:55.000Z</time>
      </trkpt>
      <trkpt lat="42.71597" lon="1.48952">
        <ele>1178</ele>
        <time>2023-07-22T14:29:59.000Z</time>
      </trkpt>
      <trkpt lat="42.71603" lon="1.48949">
        <ele>1177.5999755859</ele>
        <time>2023-07-22T14:30:03.000Z</time>
      </trkpt>
      <trkpt lat="42.71608" lon="1.48942">
        <ele>1177</ele>
        <time>2023-07-22T14:30:07.000Z</time>
      </trkpt>
      <trkpt lat="42.71614" lon="1.48937">
        <ele>1176.1999511719</ele>
        <time>2023-07-22T14:30:12.000Z</time>
      </trkpt>
      <trkpt lat="42.71619" lon="1.48934">
        <ele>1176</ele>
        <time>2023-07-22T14:30:16.000Z</time>
      </trkpt>
      <trkpt lat="42.71629" lon="1.48925">
        <ele>1175.4000244141</ele>
        <time>2023-07-22T14:30:23.000Z</time>
      </trkpt>
      <trkpt lat="42.71639" lon="1.48914">
        <ele>1175</ele>
        <time>2023-07-22T14:30:30.000Z</time>
      </trkpt>
      <trkpt lat="42.7164" lon="1.48913">
        <ele>1174.8000488281</ele>
        <time>2023-07-22T14:30:31.000Z</time>
      </trkpt>
      <trkpt lat="42.71645" lon="1.48908">
        <ele>1174.4000244141</ele>
        <time>2023-07-22T14:30:35.000Z</time>
      </trkpt>
      <trkpt lat="42.7165" lon="1.48904">
        <ele>1173.8000488281</ele>
        <time>2023-07-22T14:30:41.000Z</time>
      </trkpt>
      <trkpt lat="42.71651" lon="1.48903">
        <ele>1173.5999755859</ele>
        <time>2023-07-22T14:30:43.000Z</time>
      </trkpt>
      <trkpt lat="42.71661" lon="1.48896">
        <ele>1172.8000488281</ele>
        <time>2023-07-22T14:30:49.000Z</time>
      </trkpt>
      <trkpt lat="42.71662" lon="1.48893">
        <ele>1172.5999755859</ele>
        <time>2023-07-22T14:30:50.000Z</time>
      </trkpt>
      <trkpt lat="42.71669" lon="1.48883">
        <ele>1172</ele>
        <time>2023-07-22T14:30:56.000Z</time>
      </trkpt>
      <trkpt lat="42.71673" lon="1.48878">
        <ele>1171.5999755859</ele>
        <time>2023-07-22T14:31:01.000Z</time>
      </trkpt>
      <trkpt lat="42.71676" lon="1.48876">
        <ele>1171.4000244141</ele>
        <time>2023-07-22T14:31:03.000Z</time>
      </trkpt>
      <trkpt lat="42.71687" lon="1.48867">
        <ele>1170.5999755859</ele>
        <time>2023-07-22T14:31:11.000Z</time>
      </trkpt>
      <trkpt lat="42.71689" lon="1.48866">
        <ele>1170.4000244141</ele>
        <time>2023-07-22T14:31:12.000Z</time>
      </trkpt>
      <trkpt lat="42.71699" lon="1.48856">
        <ele>1170</ele>
        <time>2023-07-22T14:31:20.000Z</time>
      </trkpt>
      <trkpt lat="42.71706" lon="1.4885">
        <ele>1169.5999755859</ele>
        <time>2023-07-22T14:31:25.000Z</time>
      </trkpt>
      <trkpt lat="42.71707" lon="1.48848">
        <ele>1169.4000244141</ele>
        <time>2023-07-22T14:31:26.000Z</time>
      </trkpt>
      <trkpt lat="42.71718" lon="1.4884">
        <ele>1168.4000244141</ele>
        <time>2023-07-22T14:31:34.000Z</time>
      </trkpt>
      <trkpt lat="42.7172" lon="1.48839">
        <ele>1168.4000244141</ele>
        <time>2023-07-22T14:31:35.000Z</time>
      </trkpt>
      <trkpt lat="42.71789" lon="1.48822">
        <ele>1161.1999511719</ele>
        <time>2023-07-22T14:32:23.000Z</time>
      </trkpt>
      <trkpt lat="42.71792" lon="1.4882">
        <ele>1160.4000244141</ele>
        <time>2023-07-22T14:32:25.000Z</time>
      </trkpt>
      <trkpt lat="42.718" lon="1.48814">
        <ele>1159.4000244141</ele>
        <time>2023-07-22T14:32:31.000Z</time>
      </trkpt>
      <trkpt lat="42.71801" lon="1.48814">
        <ele>1159.1999511719</ele>
        <time>2023-07-22T14:32:32.000Z</time>
      </trkpt>
      <trkpt lat="42.71808" lon="1.48809">
        <ele>1158.4000244141</ele>
        <time>2023-07-22T14:32:37.000Z</time>
      </trkpt>
      <trkpt lat="42.71811" lon="1.48806">
        <ele>1158</ele>
        <time>2023-07-22T14:32:39.000Z</time>
      </trkpt>
      <trkpt lat="42.71817" lon="1.48801">
        <ele>1157.4000244141</ele>
        <time>2023-07-22T14:32:43.000Z</time>
      </trkpt>
      <trkpt lat="42.71819" lon="1.48799">
        <ele>1156.8000488281</ele>
        <time>2023-07-22T14:32:45.000Z</time>
      </trkpt>
      <trkpt lat="42.71822" lon="1.48796">
        <ele>1156.1999511719</ele>
        <time>2023-07-22T14:32:48.000Z</time>
      </trkpt>
      <trkpt lat="42.7183" lon="1.48787">
        <ele>1155.1999511719</ele>
        <time>2023-07-22T14:32:54.000Z</time>
      </trkpt>
      <trkpt lat="42.71832" lon="1.48785">
        <ele>1154.8000488281</ele>
        <time>2023-07-22T14:32:56.000Z</time>
      </trkpt>
      <trkpt lat="42.71835" lon="1.48781">
        <ele>1154</ele>
        <time>2023-07-22T14:33:00.000Z</time>
      </trkpt>
      <trkpt lat="42.71839" lon="1.48777">
        <ele>1153.5999755859</ele>
        <time>2023-07-22T14:33:03.000Z</time>
      </trkpt>
      <trkpt lat="42.71843" lon="1.48773">
        <ele>1152.8000488281</ele>
        <time>2023-07-22T14:33:06.000Z</time>
      </trkpt>
      <trkpt lat="42.71847" lon="1.48772">
        <ele>1151.8000488281</ele>
        <time>2023-07-22T14:33:11.000Z</time>
      </trkpt>
      <trkpt lat="42.71902" lon="1.48751">
        <ele>1145.4000244141</ele>
        <time>2023-07-22T14:33:54.000Z</time>
      </trkpt>
      <trkpt lat="42.71904" lon="1.4875">
        <ele>1145.1999511719</ele>
        <time>2023-07-22T14:33:55.000Z</time>
      </trkpt>
      <trkpt lat="42.71906" lon="1.48749">
        <ele>1144.8000488281</ele>
        <time>2023-07-22T14:33:57.000Z</time>
      </trkpt>
      <trkpt lat="42.71911" lon="1.48746">
        <ele>1144.1999511719</ele>
        <time>2023-07-22T14:34:00.000Z</time>
      </trkpt>
      <trkpt lat="42.71919" lon="1.48739">
        <ele>1143</ele>
        <time>2023-07-22T14:34:06.000Z</time>
      </trkpt>
      <trkpt lat="42.71924" lon="1.48734">
        <ele>1142</ele>
        <time>2023-07-22T14:34:12.000Z</time>
      </trkpt>
      <trkpt lat="42.71926" lon="1.48732">
        <ele>1141.8000488281</ele>
        <time>2023-07-22T14:34:14.000Z</time>
      </trkpt>
      <trkpt lat="42.71932" lon="1.48727">
        <ele>1140.8000488281</ele>
        <time>2023-07-22T14:34:18.000Z</time>
      </trkpt>
      <trkpt lat="42.71938" lon="1.48719">
        <ele>1139.8000488281</ele>
        <time>2023-07-22T14:34:23.000Z</time>
      </trkpt>
      <trkpt lat="42.71945" lon="1.48712">
        <ele>1138.8000488281</ele>
        <time>2023-07-22T14:34:29.000Z</time>
      </trkpt>
      <trkpt lat="42.71947" lon="1.4871">
        <ele>1138.4000244141</ele>
        <time>2023-07-22T14:34:31.000Z</time>
      </trkpt>
      <trkpt lat="42.71951" lon="1.48707">
        <ele>1137.8000488281</ele>
        <time>2023-07-22T14:34:34.000Z</time>
      </trkpt>
      <trkpt lat="42.71957" lon="1.487">
        <ele>1136.8000488281</ele>
        <time>2023-07-22T14:34:40.000Z</time>
      </trkpt>
      <trkpt lat="42.71959" lon="1.48698">
        <ele>1136.5999755859</ele>
        <time>2023-07-22T14:34:42.000Z</time>
      </trkpt>
      <trkpt lat="42.71965" lon="1.48694">
        <ele>1136.1999511719</ele>
        <time>2023-07-22T14:34:47.000Z</time>
      </trkpt>
      <trkpt lat="42.71987" lon="1.48676">
        <ele>1134.5999755859</ele>
        <time>2023-07-22T14:35:05.000Z</time>
      </trkpt>
      <trkpt lat="42.71994" lon="1.48669">
        <ele>1134.1999511719</ele>
        <time>2023-07-22T14:35:09.000Z</time>
      </trkpt>
      <trkpt lat="42.71999" lon="1.48662">
        <ele>1133.4000244141</ele>
        <time>2023-07-22T14:35:13.000Z</time>
      </trkpt>
      <trkpt lat="42.72002" lon="1.48658">
        <ele>1133.4000244141</ele>
        <time>2023-07-22T14:35:16.000Z</time>
      </trkpt>
      <trkpt lat="42.72013" lon="1.48647">
        <ele>1133</ele>
        <time>2023-07-22T14:35:24.000Z</time>
      </trkpt>
      <trkpt lat="42.72055" lon="1.48627">
        <ele>1130.4000244141</ele>
        <time>2023-07-22T14:35:54.000Z</time>
      </trkpt>
      <trkpt lat="42.72058" lon="1.48626">
        <ele>1130.1999511719</ele>
        <time>2023-07-22T14:35:56.000Z</time>
      </trkpt>
      <trkpt lat="42.72074" lon="1.48622">
        <ele>1129.1999511719</ele>
        <time>2023-07-22T14:36:06.000Z</time>
      </trkpt>
      <trkpt lat="42.7208" lon="1.48619">
        <ele>1128.8000488281</ele>
        <time>2023-07-22T14:36:10.000Z</time>
      </trkpt>
      <trkpt lat="42.72094" lon="1.48608">
        <ele>1128.1999511719</ele>
        <time>2023-07-22T14:36:20.000Z</time>
      </trkpt>
      <trkpt lat="42.72098" lon="1.48603">
        <ele>1128</ele>
        <time>2023-07-22T14:36:23.000Z</time>
      </trkpt>
      <trkpt lat="42.72109" lon="1.48592">
        <ele>1127.1999511719</ele>
        <time>2023-07-22T14:36:31.000Z</time>
      </trkpt>
      <trkpt lat="42.7211" lon="1.48591">
        <ele>1127.1999511719</ele>
        <time>2023-07-22T14:36:32.000Z</time>
      </trkpt>
      <trkpt lat="42.72108" lon="1.48591">
        <ele>1127</ele>
        <time>2023-07-22T14:36:38.000Z</time>
      </trkpt>
      <trkpt lat="42.72106" lon="1.48589">
        <ele>1126.8000488281</ele>
        <time>2023-07-22T14:36:46.000Z</time>
      </trkpt>
      <trkpt lat="42.72108" lon="1.48587">
        <ele>1126.4000244141</ele>
        <time>2023-07-22T14:36:52.000Z</time>
      </trkpt>
      <trkpt lat="42.72115" lon="1.48578">
        <ele>1126.1999511719</ele>
        <time>2023-07-22T14:36:59.000Z</time>
      </trkpt>
      <trkpt lat="42.72119" lon="1.48569">
        <ele>1126.1999511719</ele>
        <time>2023-07-22T14:37:05.000Z</time>
      </trkpt>
      <trkpt lat="42.72119" lon="1.48567">
        <ele>1126.1999511719</ele>
        <time>2023-07-22T14:37:06.000Z</time>
      </trkpt>
      <trkpt lat="42.72128" lon="1.48555">
        <ele>1125.4000244141</ele>
        <time>2023-07-22T14:37:15.000Z</time>
      </trkpt>
      <trkpt lat="42.72135" lon="1.48548">
        <ele>1125</ele>
        <time>2023-07-22T14:37:20.000Z</time>
      </trkpt>
      <trkpt lat="42.72139" lon="1.48544">
        <ele>1124.8000488281</ele>
        <time>2023-07-22T14:37:23.000Z</time>
      </trkpt>
      <trkpt lat="42.72147" lon="1.48533">
        <ele>1124.1999511719</ele>
        <time>2023-07-22T14:37:31.000Z</time>
      </trkpt>
      <trkpt lat="42.72151" lon="1.48529">
        <ele>1124</ele>
        <time>2023-07-22T14:37:34.000Z</time>
      </trkpt>
      <trkpt lat="42.72154" lon="1.48524">
        <ele>1123.5999755859</ele>
        <time>2023-07-22T14:37:39.000Z</time>
      </trkpt>
      <trkpt lat="42.72154" lon="1.48521">
        <ele>1123.4000244141</ele>
        <time>2023-07-22T14:37:45.000Z</time>
      </trkpt>
      <trkpt lat="42.72154" lon="1.48521">
        <ele>1123.4000244141</ele>
        <time>2023-07-22T14:37:46.000Z</time>
      </trkpt>
      <trkpt lat="42.72157" lon="1.48516">
        <ele>1123.4000244141</ele>
        <time>2023-07-22T14:38:02.000Z</time>
      </trkpt>
      <trkpt lat="42.72304" lon="1.48459">
        <ele>1113.8000488281</ele>
        <time>2023-07-22T14:39:45.000Z</time>
      </trkpt>
      <trkpt lat="42.72306" lon="1.48458">
        <ele>1113.5999755859</ele>
        <time>2023-07-22T14:39:47.000Z</time>
      </trkpt>
      <trkpt lat="42.72312" lon="1.48454">
        <ele>1113.4000244141</ele>
        <time>2023-07-22T14:39:50.000Z</time>
      </trkpt>
      <trkpt lat="42.72322" lon="1.48446">
        <ele>1112.1999511719</ele>
        <time>2023-07-22T14:39:57.000Z</time>
      </trkpt>
      <trkpt lat="42.72327" lon="1.48443">
        <ele>1111.8000488281</ele>
        <time>2023-07-22T14:40:00.000Z</time>
      </trkpt>
      <trkpt lat="42.72334" lon="1.48438">
        <ele>1111.1999511719</ele>
        <time>2023-07-22T14:40:05.000Z</time>
      </trkpt>
      <trkpt lat="42.72333" lon="1.48438">
        <ele>1111</ele>
        <time>2023-07-22T14:40:06.000Z</time>
      </trkpt>
      <trkpt lat="42.72351" lon="1.48423">
        <ele>1109</ele>
        <time>2023-07-22T14:40:18.000Z</time>
      </trkpt>
      <trkpt lat="42.72352" lon="1.48422">
        <ele>1108.8000488281</ele>
        <time>2023-07-22T14:40:19.000Z</time>
      </trkpt>
      <trkpt lat="42.7236" lon="1.48412">
        <ele>1108</ele>
        <time>2023-07-22T14:40:25.000Z</time>
      </trkpt>
      <trkpt lat="42.72361" lon="1.48411">
        <ele>1107.8000488281</ele>
        <time>2023-07-22T14:40:26.000Z</time>
      </trkpt>
      <trkpt lat="42.72366" lon="1.48402">
        <ele>1106.8000488281</ele>
        <time>2023-07-22T14:40:32.000Z</time>
      </trkpt>
      <trkpt lat="42.7237" lon="1.48397">
        <ele>1106.1999511719</ele>
        <time>2023-07-22T14:40:36.000Z</time>
      </trkpt>
      <trkpt lat="42.72373" lon="1.48392">
        <ele>1105.5999755859</ele>
        <time>2023-07-22T14:40:39.000Z</time>
      </trkpt>
      <trkpt lat="42.7238" lon="1.48388">
        <ele>1104.5999755859</ele>
        <time>2023-07-22T14:40:45.000Z</time>
      </trkpt>
      <trkpt lat="42.73146" lon="1.48206">
        <ele>1034.4000244141</ele>
        <time>2023-07-22T14:49:06.000Z</time>
      </trkpt>
      <trkpt lat="42.73154" lon="1.48203">
        <ele>1033.5999755859</ele>
        <time>2023-07-22T14:49:12.000Z</time>
      </trkpt>
      <trkpt lat="42.7316" lon="1.482">
        <ele>1033.1999511719</ele>
        <time>2023-07-22T14:49:16.000Z</time>
      </trkpt>
      <trkpt lat="42.73171" lon="1.48195">
        <ele>1032.5999755859</ele>
        <time>2023-07-22T14:49:23.000Z</time>
      </trkpt>
      <trkpt lat="42.73187" lon="1.4819">
        <ele>1031.8000488281</ele>
        <time>2023-07-22T14:49:34.000Z</time>
      </trkpt>
      <trkpt lat="42.7319" lon="1.4819">
        <ele>1031.5999755859</ele>
        <time>2023-07-22T14:49:36.000Z</time>
      </trkpt>
      <trkpt lat="42.73201" lon="1.48188">
        <ele>1030.5999755859</ele>
        <time>2023-07-22T14:49:45.000Z</time>
      </trkpt>
      <trkpt lat="42.73211" lon="1.48189">
        <ele>1029.5999755859</ele>
        <time>2023-07-22T14:49:51.000Z</time>
      </trkpt>
      <trkpt lat="42.73213" lon="1.48189">
        <ele>1029.4000244141</ele>
        <time>2023-07-22T14:49:52.000Z</time>
      </trkpt>
      <trkpt lat="42.73229" lon="1.4819">
        <ele>1028.4000244141</ele>
        <time>2023-07-22T14:50:01.000Z</time>
      </trkpt>
      <trkpt lat="42.7324" lon="1.48189">
        <ele>1027.1999511719</ele>
        <time>2023-07-22T14:50:08.000Z</time>
      </trkpt>
      <trkpt lat="42.73242" lon="1.48189">
        <ele>1026.8000488281</ele>
        <time>2023-07-22T14:50:10.000Z</time>
      </trkpt>
      <trkpt lat="42.73303" lon="1.48175">
        <ele>1021.200012207</ele>
        <time>2023-07-22T14:50:57.000Z</time>
      </trkpt>
      <trkpt lat="42.7331" lon="1.48175">
        <ele>1021</ele>
        <time>2023-07-22T14:51:01.000Z</time>
      </trkpt>
      <trkpt lat="42.73311" lon="1.48173">
        <ele>1020.799987793</ele>
        <time>2023-07-22T14:51:04.000Z</time>
      </trkpt>
      <trkpt lat="42.73312" lon="1.48173">
        <ele>1020.5999755859</ele>
        <time>2023-07-22T14:51:08.000Z</time>
      </trkpt>
      <trkpt lat="42.73312" lon="1.48171">
        <ele>1020.5999755859</ele>
        <time>2023-07-22T14:51:09.000Z</time>
      </trkpt>
      <trkpt lat="42.73312" lon="1.4817">
        <ele>1020.5999755859</ele>
        <time>2023-07-22T14:51:10.000Z</time>
      </trkpt>
      <trkpt lat="42.73313" lon="1.4817">
        <ele>1020.5999755859</ele>
        <time>2023-07-22T14:51:18.000Z</time>
      </trkpt>
      <trkpt lat="42.73366" lon="1.48136">
        <ele>1019.799987793</ele>
        <time>2023-07-22T14:52:06.000Z</time>
      </trkpt>
      <trkpt lat="42.73367" lon="1.48134">
        <ele>1019.799987793</ele>
        <time>2023-07-22T14:52:07.000Z</time>
      </trkpt>
      <trkpt lat="42.73369" lon="1.48128">
        <ele>1019.5999755859</ele>
        <time>2023-07-22T14:52:10.000Z</time>
      </trkpt>
      <trkpt lat="42.73371" lon="1.4812">
        <ele>1019.4000244141</ele>
        <time>2023-07-22T14:52:14.000Z</time>
      </trkpt>
      <trkpt lat="42.73376" lon="1.48108">
        <ele>1018.5999755859</ele>
        <time>2023-07-22T14:52:21.000Z</time>
      </trkpt>
      <trkpt lat="42.73377" lon="1.48106">
        <ele>1018.5999755859</ele>
        <time>2023-07-22T14:52:22.000Z</time>
      </trkpt>
      <trkpt lat="42.73383" lon="1.48088">
        <ele>1017.200012207</ele>
        <time>2023-07-22T14:52:30.000Z</time>
      </trkpt>
      <trkpt lat="42.73386" lon="1.48075">
        <ele>1016.4000244141</ele>
        <time>2023-07-22T14:52:37.000Z</time>
      </trkpt>
      <trkpt lat="42.73387" lon="1.48073">
        <ele>1016.200012207</ele>
        <time>2023-07-22T14:52:38.000Z</time>
      </trkpt>
      <trkpt lat="42.73396" lon="1.48058">
        <ele>1015.200012207</ele>
        <time>2023-07-22T14:52:45.000Z</time>
      </trkpt>
      <trkpt lat="42.73399" lon="1.48055">
        <ele>1015</ele>
        <time>2023-07-22T14:52:47.000Z</time>
      </trkpt>
      <trkpt lat="42.73406" lon="1.48045">
        <ele>1013.4000244141</ele>
        <time>2023-07-22T14:52:57.000Z</time>
      </trkpt>
      <trkpt lat="42.7341" lon="1.48039">
        <ele>1012.799987793</ele>
        <time>2023-07-22T14:53:01.000Z</time>
      </trkpt>
      <trkpt lat="42.73413" lon="1.48035">
        <ele>1012.200012207</ele>
        <time>2023-07-22T14:53:04.000Z</time>
      </trkpt>
      <trkpt lat="42.73418" lon="1.4803">
        <ele>1011.799987793</ele>
        <time>2023-07-22T14:53:07.000Z</time>
      </trkpt>
      <trkpt lat="42.73424" lon="1.48023">
        <ele>1011.200012207</ele>
        <time>2023-07-22T14:53:11.000Z</time>
      </trkpt>
      <trkpt lat="42.73427" lon="1.48021">
        <ele>1010.5999755859</ele>
        <time>2023-07-22T14:53:13.000Z</time>
      </trkpt>
      <trkpt lat="42.73509" lon="1.47981">
        <ele>1000.799987793</ele>
        <time>2023-07-22T14:54:07.000Z</time>
      </trkpt>
      <trkpt lat="42.7358" lon="1.47951">
        <ele>996.20001220703</ele>
        <time>2023-07-22T14:54:55.000Z</time>
      </trkpt>
      <trkpt lat="42.73585" lon="1.47944">
        <ele>995.40002441406</ele>
        <time>2023-07-22T14:55:01.000Z</time>
      </trkpt>
      <trkpt lat="42.73586" lon="1.47943">
        <ele>995.20001220703</ele>
        <time>2023-07-22T14:55:02.000Z</time>
      </trkpt>
    </trkseg>
  </trk>
</gpx>